<?xml version="1.0" encoding="UTF-8" standalone="no" ?>
<gpx xmlns="http://www.topografix.com/GPX/1/1" xmlns:xsi="http://www.w3.org/2001/XMLSchema-instance" xsi:schemaLocation="http://www.topografix.com/GPX/1/1 http://www.topografix.com/GPX/1/1/gpx.xsd" version="1.1" creator="VisuGPX - https://www.visugpx.com">
  <metadata>
    <name>rando jugazan 19 km</name>
  </metadata>
  <trk>
    <name><![CDATA[rando jugazan 19 km]]></name>
    <trkseg>
      <trkpt lat="44.78239" lon="-0.1557">
        <ele>64.1</ele>
        <time>2022-10-06T08:22:50Z</time>
      </trkpt>
      <trkpt lat="44.78239" lon="-0.1557">
        <ele>64.1</ele>
        <time>2022-10-06T08:22:51Z</time>
      </trkpt>
      <trkpt lat="44.78239" lon="-0.15569">
        <ele>64.1</ele>
        <time>2022-10-06T08:22:52Z</time>
      </trkpt>
      <trkpt lat="44.78239" lon="-0.15568">
        <ele>64</ele>
        <time>2022-10-06T08:22:53Z</time>
      </trkpt>
      <trkpt lat="44.78239" lon="-0.15568">
        <ele>64</ele>
        <time>2022-10-06T08:22:55Z</time>
      </trkpt>
      <trkpt lat="44.78239" lon="-0.15568">
        <ele>64</ele>
        <time>2022-10-06T08:22:56Z</time>
      </trkpt>
      <trkpt lat="44.78239" lon="-0.15569">
        <ele>64</ele>
        <time>2022-10-06T08:22:57Z</time>
      </trkpt>
      <trkpt lat="44.78239" lon="-0.1557">
        <ele>63.9</ele>
        <time>2022-10-06T08:22:58Z</time>
      </trkpt>
      <trkpt lat="44.78239" lon="-0.1557">
        <ele>63.9</ele>
        <time>2022-10-06T08:22:59Z</time>
      </trkpt>
      <trkpt lat="44.78239" lon="-0.1557">
        <ele>63.9</ele>
        <time>2022-10-06T08:23:00Z</time>
      </trkpt>
      <trkpt lat="44.78239" lon="-0.1557">
        <ele>63.9</ele>
        <time>2022-10-06T08:23:01Z</time>
      </trkpt>
      <trkpt lat="44.78239" lon="-0.15571">
        <ele>63.9</ele>
        <time>2022-10-06T08:23:02Z</time>
      </trkpt>
      <trkpt lat="44.78239" lon="-0.15571">
        <ele>63.9</ele>
        <time>2022-10-06T08:23:03Z</time>
      </trkpt>
      <trkpt lat="44.78239" lon="-0.15571">
        <ele>63.9</ele>
        <time>2022-10-06T08:23:04Z</time>
      </trkpt>
      <trkpt lat="44.78239" lon="-0.15571">
        <ele>63.9</ele>
        <time>2022-10-06T08:23:05Z</time>
      </trkpt>
      <trkpt lat="44.78239" lon="-0.15571">
        <ele>63.9</ele>
        <time>2022-10-06T08:23:06Z</time>
      </trkpt>
      <trkpt lat="44.78239" lon="-0.15571">
        <ele>63.9</ele>
        <time>2022-10-06T08:23:07Z</time>
      </trkpt>
      <trkpt lat="44.78239" lon="-0.15571">
        <ele>63.9</ele>
        <time>2022-10-06T08:23:08Z</time>
      </trkpt>
      <trkpt lat="44.78239" lon="-0.15571">
        <ele>63.9</ele>
        <time>2022-10-06T08:23:09Z</time>
      </trkpt>
      <trkpt lat="44.78239" lon="-0.15571">
        <ele>63.9</ele>
        <time>2022-10-06T08:23:10Z</time>
      </trkpt>
      <trkpt lat="44.78239" lon="-0.15571">
        <ele>63.9</ele>
        <time>2022-10-06T08:23:11Z</time>
      </trkpt>
      <trkpt lat="44.78239" lon="-0.15572">
        <ele>63.9</ele>
        <time>2022-10-06T08:23:12Z</time>
      </trkpt>
      <trkpt lat="44.78239" lon="-0.15572">
        <ele>63.9</ele>
        <time>2022-10-06T08:23:13Z</time>
      </trkpt>
      <trkpt lat="44.78239" lon="-0.15572">
        <ele>63.9</ele>
        <time>2022-10-06T08:23:14Z</time>
      </trkpt>
      <trkpt lat="44.78239" lon="-0.15572">
        <ele>63.9</ele>
        <time>2022-10-06T08:23:15Z</time>
      </trkpt>
      <trkpt lat="44.78239" lon="-0.15572">
        <ele>63.9</ele>
        <time>2022-10-06T08:23:16Z</time>
      </trkpt>
      <trkpt lat="44.78239" lon="-0.15572">
        <ele>63.9</ele>
        <time>2022-10-06T08:23:17Z</time>
      </trkpt>
      <trkpt lat="44.78239" lon="-0.15572">
        <ele>63.9</ele>
        <time>2022-10-06T08:23:18Z</time>
      </trkpt>
      <trkpt lat="44.78239" lon="-0.15572">
        <ele>63.9</ele>
        <time>2022-10-06T08:23:19Z</time>
      </trkpt>
      <trkpt lat="44.78239" lon="-0.15572">
        <ele>63.9</ele>
        <time>2022-10-06T08:23:20Z</time>
      </trkpt>
      <trkpt lat="44.78239" lon="-0.15572">
        <ele>63.9</ele>
        <time>2022-10-06T08:23:21Z</time>
      </trkpt>
      <trkpt lat="44.78239" lon="-0.15572">
        <ele>63.9</ele>
        <time>2022-10-06T08:23:22Z</time>
      </trkpt>
      <trkpt lat="44.78239" lon="-0.15572">
        <ele>63.9</ele>
        <time>2022-10-06T08:23:23Z</time>
      </trkpt>
      <trkpt lat="44.78239" lon="-0.15572">
        <ele>63.9</ele>
        <time>2022-10-06T08:23:24Z</time>
      </trkpt>
      <trkpt lat="44.78239" lon="-0.15572">
        <ele>63.9</ele>
        <time>2022-10-06T08:23:25Z</time>
      </trkpt>
      <trkpt lat="44.78239" lon="-0.15572">
        <ele>63.9</ele>
        <time>2022-10-06T08:23:26Z</time>
      </trkpt>
      <trkpt lat="44.78239" lon="-0.15572">
        <ele>63.9</ele>
        <time>2022-10-06T08:23:27Z</time>
      </trkpt>
      <trkpt lat="44.78239" lon="-0.15572">
        <ele>63.9</ele>
        <time>2022-10-06T08:23:28Z</time>
      </trkpt>
      <trkpt lat="44.78239" lon="-0.15572">
        <ele>63.9</ele>
        <time>2022-10-06T08:23:29Z</time>
      </trkpt>
      <trkpt lat="44.78239" lon="-0.15572">
        <ele>63.9</ele>
        <time>2022-10-06T08:23:30Z</time>
      </trkpt>
      <trkpt lat="44.78239" lon="-0.15572">
        <ele>63.9</ele>
        <time>2022-10-06T08:23:31Z</time>
      </trkpt>
      <trkpt lat="44.78239" lon="-0.15572">
        <ele>63.9</ele>
        <time>2022-10-06T08:23:32Z</time>
      </trkpt>
      <trkpt lat="44.78239" lon="-0.15571">
        <ele>63.9</ele>
        <time>2022-10-06T08:23:33Z</time>
      </trkpt>
      <trkpt lat="44.78239" lon="-0.15571">
        <ele>63.9</ele>
        <time>2022-10-06T08:23:34Z</time>
      </trkpt>
      <trkpt lat="44.78239" lon="-0.15571">
        <ele>63.9</ele>
        <time>2022-10-06T08:23:35Z</time>
      </trkpt>
      <trkpt lat="44.78239" lon="-0.15571">
        <ele>63.9</ele>
        <time>2022-10-06T08:23:36Z</time>
      </trkpt>
      <trkpt lat="44.78239" lon="-0.15571">
        <ele>63.9</ele>
        <time>2022-10-06T08:23:37Z</time>
      </trkpt>
      <trkpt lat="44.78239" lon="-0.15571">
        <ele>63.9</ele>
        <time>2022-10-06T08:23:38Z</time>
      </trkpt>
      <trkpt lat="44.78239" lon="-0.15572">
        <ele>63.8</ele>
        <time>2022-10-06T08:23:39Z</time>
      </trkpt>
      <trkpt lat="44.78239" lon="-0.15572">
        <ele>63.8</ele>
        <time>2022-10-06T08:23:40Z</time>
      </trkpt>
      <trkpt lat="44.78239" lon="-0.15572">
        <ele>63.8</ele>
        <time>2022-10-06T08:23:41Z</time>
      </trkpt>
      <trkpt lat="44.78239" lon="-0.15572">
        <ele>63.8</ele>
        <time>2022-10-06T08:23:42Z</time>
      </trkpt>
      <trkpt lat="44.78239" lon="-0.15572">
        <ele>63.8</ele>
        <time>2022-10-06T08:23:43Z</time>
      </trkpt>
      <trkpt lat="44.78239" lon="-0.15572">
        <ele>63.8</ele>
        <time>2022-10-06T08:23:44Z</time>
      </trkpt>
      <trkpt lat="44.78239" lon="-0.15572">
        <ele>63.8</ele>
        <time>2022-10-06T08:23:45Z</time>
      </trkpt>
      <trkpt lat="44.78239" lon="-0.15572">
        <ele>63.8</ele>
        <time>2022-10-06T08:23:46Z</time>
      </trkpt>
      <trkpt lat="44.78239" lon="-0.15572">
        <ele>63.8</ele>
        <time>2022-10-06T08:23:47Z</time>
      </trkpt>
      <trkpt lat="44.78239" lon="-0.15572">
        <ele>63.8</ele>
        <time>2022-10-06T08:23:48Z</time>
      </trkpt>
      <trkpt lat="44.78239" lon="-0.15572">
        <ele>63.8</ele>
        <time>2022-10-06T08:23:49Z</time>
      </trkpt>
      <trkpt lat="44.78239" lon="-0.15572">
        <ele>63.8</ele>
        <time>2022-10-06T08:23:50Z</time>
      </trkpt>
      <trkpt lat="44.78239" lon="-0.15572">
        <ele>63.8</ele>
        <time>2022-10-06T08:23:51Z</time>
      </trkpt>
      <trkpt lat="44.78239" lon="-0.15572">
        <ele>63.8</ele>
        <time>2022-10-06T08:23:52Z</time>
      </trkpt>
      <trkpt lat="44.78239" lon="-0.15572">
        <ele>63.8</ele>
        <time>2022-10-06T08:23:53Z</time>
      </trkpt>
      <trkpt lat="44.78239" lon="-0.15572">
        <ele>63.8</ele>
        <time>2022-10-06T08:23:54Z</time>
      </trkpt>
      <trkpt lat="44.78239" lon="-0.15572">
        <ele>63.8</ele>
        <time>2022-10-06T08:23:55Z</time>
      </trkpt>
      <trkpt lat="44.78239" lon="-0.15572">
        <ele>63.8</ele>
        <time>2022-10-06T08:23:56Z</time>
      </trkpt>
      <trkpt lat="44.78239" lon="-0.15572">
        <ele>63.8</ele>
        <time>2022-10-06T08:23:57Z</time>
      </trkpt>
      <trkpt lat="44.78239" lon="-0.15572">
        <ele>63.8</ele>
        <time>2022-10-06T08:23:58Z</time>
      </trkpt>
      <trkpt lat="44.78239" lon="-0.15572">
        <ele>63.8</ele>
        <time>2022-10-06T08:23:59Z</time>
      </trkpt>
      <trkpt lat="44.78239" lon="-0.15572">
        <ele>63.8</ele>
        <time>2022-10-06T08:24:00Z</time>
      </trkpt>
      <trkpt lat="44.78239" lon="-0.15572">
        <ele>63.8</ele>
        <time>2022-10-06T08:24:01Z</time>
      </trkpt>
      <trkpt lat="44.78239" lon="-0.15572">
        <ele>63.8</ele>
        <time>2022-10-06T08:24:02Z</time>
      </trkpt>
      <trkpt lat="44.78239" lon="-0.15572">
        <ele>63.8</ele>
        <time>2022-10-06T08:24:03Z</time>
      </trkpt>
      <trkpt lat="44.78239" lon="-0.15572">
        <ele>63.8</ele>
        <time>2022-10-06T08:24:04Z</time>
      </trkpt>
      <trkpt lat="44.78239" lon="-0.15572">
        <ele>63.8</ele>
        <time>2022-10-06T08:24:05Z</time>
      </trkpt>
      <trkpt lat="44.78239" lon="-0.15572">
        <ele>63.8</ele>
        <time>2022-10-06T08:24:06Z</time>
      </trkpt>
      <trkpt lat="44.78239" lon="-0.15572">
        <ele>63.8</ele>
        <time>2022-10-06T08:24:07Z</time>
      </trkpt>
      <trkpt lat="44.78239" lon="-0.15572">
        <ele>63.8</ele>
        <time>2022-10-06T08:24:08Z</time>
      </trkpt>
      <trkpt lat="44.78239" lon="-0.15572">
        <ele>63.8</ele>
        <time>2022-10-06T08:24:09Z</time>
      </trkpt>
      <trkpt lat="44.78239" lon="-0.15572">
        <ele>63.8</ele>
        <time>2022-10-06T08:24:10Z</time>
      </trkpt>
      <trkpt lat="44.78239" lon="-0.15572">
        <ele>63.8</ele>
        <time>2022-10-06T08:24:11Z</time>
      </trkpt>
      <trkpt lat="44.78239" lon="-0.15572">
        <ele>63.8</ele>
        <time>2022-10-06T08:24:12Z</time>
      </trkpt>
      <trkpt lat="44.78239" lon="-0.15572">
        <ele>63.8</ele>
        <time>2022-10-06T08:24:13Z</time>
      </trkpt>
      <trkpt lat="44.78239" lon="-0.15572">
        <ele>63.8</ele>
        <time>2022-10-06T08:24:14Z</time>
      </trkpt>
      <trkpt lat="44.78239" lon="-0.15572">
        <ele>63.8</ele>
        <time>2022-10-06T08:24:15Z</time>
      </trkpt>
      <trkpt lat="44.78239" lon="-0.15572">
        <ele>63.8</ele>
        <time>2022-10-06T08:24:16Z</time>
      </trkpt>
      <trkpt lat="44.78239" lon="-0.15572">
        <ele>63.8</ele>
        <time>2022-10-06T08:24:17Z</time>
      </trkpt>
      <trkpt lat="44.78239" lon="-0.15572">
        <ele>63.8</ele>
        <time>2022-10-06T08:24:18Z</time>
      </trkpt>
      <trkpt lat="44.78239" lon="-0.15572">
        <ele>63.8</ele>
        <time>2022-10-06T08:24:19Z</time>
      </trkpt>
      <trkpt lat="44.78239" lon="-0.15572">
        <ele>63.8</ele>
        <time>2022-10-06T08:24:20Z</time>
      </trkpt>
      <trkpt lat="44.78239" lon="-0.15572">
        <ele>63.8</ele>
        <time>2022-10-06T08:24:21Z</time>
      </trkpt>
      <trkpt lat="44.78239" lon="-0.15572">
        <ele>63.8</ele>
        <time>2022-10-06T08:24:22Z</time>
      </trkpt>
      <trkpt lat="44.78239" lon="-0.15572">
        <ele>63.8</ele>
        <time>2022-10-06T08:24:23Z</time>
      </trkpt>
      <trkpt lat="44.78239" lon="-0.15572">
        <ele>63.8</ele>
        <time>2022-10-06T08:24:24Z</time>
      </trkpt>
      <trkpt lat="44.78239" lon="-0.15572">
        <ele>63.8</ele>
        <time>2022-10-06T08:24:25Z</time>
      </trkpt>
      <trkpt lat="44.78239" lon="-0.15572">
        <ele>63.8</ele>
        <time>2022-10-06T08:24:26Z</time>
      </trkpt>
      <trkpt lat="44.78239" lon="-0.15572">
        <ele>63.8</ele>
        <time>2022-10-06T08:24:27Z</time>
      </trkpt>
      <trkpt lat="44.78239" lon="-0.15572">
        <ele>63.8</ele>
        <time>2022-10-06T08:24:28Z</time>
      </trkpt>
      <trkpt lat="44.78239" lon="-0.15572">
        <ele>63.8</ele>
        <time>2022-10-06T08:24:29Z</time>
      </trkpt>
      <trkpt lat="44.78239" lon="-0.15573">
        <ele>63.8</ele>
        <time>2022-10-06T08:24:30Z</time>
      </trkpt>
      <trkpt lat="44.78239" lon="-0.15573">
        <ele>63.8</ele>
        <time>2022-10-06T08:24:31Z</time>
      </trkpt>
      <trkpt lat="44.78239" lon="-0.15574">
        <ele>63.8</ele>
        <time>2022-10-06T08:24:32Z</time>
      </trkpt>
      <trkpt lat="44.78239" lon="-0.15573">
        <ele>63.7</ele>
        <time>2022-10-06T08:24:33Z</time>
      </trkpt>
      <trkpt lat="44.78239" lon="-0.15573">
        <ele>63.7</ele>
        <time>2022-10-06T08:24:34Z</time>
      </trkpt>
      <trkpt lat="44.78238" lon="-0.15572">
        <ele>63.7</ele>
        <time>2022-10-06T08:24:35Z</time>
      </trkpt>
      <trkpt lat="44.78238" lon="-0.15572">
        <ele>63.7</ele>
        <time>2022-10-06T08:24:36Z</time>
      </trkpt>
      <trkpt lat="44.78238" lon="-0.15572">
        <ele>63.7</ele>
        <time>2022-10-06T08:24:37Z</time>
      </trkpt>
      <trkpt lat="44.78238" lon="-0.15572">
        <ele>63.7</ele>
        <time>2022-10-06T08:24:38Z</time>
      </trkpt>
      <trkpt lat="44.78238" lon="-0.15572">
        <ele>63.7</ele>
        <time>2022-10-06T08:24:39Z</time>
      </trkpt>
      <trkpt lat="44.78238" lon="-0.15572">
        <ele>63.7</ele>
        <time>2022-10-06T08:24:40Z</time>
      </trkpt>
      <trkpt lat="44.78238" lon="-0.15572">
        <ele>63.7</ele>
        <time>2022-10-06T08:24:41Z</time>
      </trkpt>
      <trkpt lat="44.78238" lon="-0.15572">
        <ele>63.7</ele>
        <time>2022-10-06T08:24:42Z</time>
      </trkpt>
      <trkpt lat="44.78238" lon="-0.15572">
        <ele>63.7</ele>
        <time>2022-10-06T08:24:43Z</time>
      </trkpt>
      <trkpt lat="44.78239" lon="-0.15572">
        <ele>63.6</ele>
        <time>2022-10-06T08:24:44Z</time>
      </trkpt>
      <trkpt lat="44.78239" lon="-0.15573">
        <ele>63.6</ele>
        <time>2022-10-06T08:24:45Z</time>
      </trkpt>
      <trkpt lat="44.7824" lon="-0.15573">
        <ele>63.6</ele>
        <time>2022-10-06T08:24:46Z</time>
      </trkpt>
      <trkpt lat="44.78241" lon="-0.15573">
        <ele>63.5</ele>
        <time>2022-10-06T08:24:47Z</time>
      </trkpt>
      <trkpt lat="44.78241" lon="-0.15574">
        <ele>63.5</ele>
        <time>2022-10-06T08:24:48Z</time>
      </trkpt>
      <trkpt lat="44.78241" lon="-0.15575">
        <ele>63.5</ele>
        <time>2022-10-06T08:24:49Z</time>
      </trkpt>
      <trkpt lat="44.78242" lon="-0.15576">
        <ele>63.4</ele>
        <time>2022-10-06T08:24:50Z</time>
      </trkpt>
      <trkpt lat="44.78242" lon="-0.15577">
        <ele>63.4</ele>
        <time>2022-10-06T08:24:51Z</time>
      </trkpt>
      <trkpt lat="44.78242" lon="-0.15577">
        <ele>63.4</ele>
        <time>2022-10-06T08:24:52Z</time>
      </trkpt>
      <trkpt lat="44.78242" lon="-0.15577">
        <ele>63.4</ele>
        <time>2022-10-06T08:24:53Z</time>
      </trkpt>
      <trkpt lat="44.78242" lon="-0.15577">
        <ele>63.4</ele>
        <time>2022-10-06T08:24:54Z</time>
      </trkpt>
      <trkpt lat="44.78242" lon="-0.15577">
        <ele>63.4</ele>
        <time>2022-10-06T08:24:56Z</time>
      </trkpt>
      <trkpt lat="44.78243" lon="-0.15577">
        <ele>63.3</ele>
        <time>2022-10-06T08:24:57Z</time>
      </trkpt>
      <trkpt lat="44.78243" lon="-0.15577">
        <ele>63.3</ele>
        <time>2022-10-06T08:24:58Z</time>
      </trkpt>
      <trkpt lat="44.78243" lon="-0.15577">
        <ele>63.3</ele>
        <time>2022-10-06T08:24:59Z</time>
      </trkpt>
      <trkpt lat="44.78243" lon="-0.15577">
        <ele>63.3</ele>
        <time>2022-10-06T08:25:00Z</time>
      </trkpt>
      <trkpt lat="44.78243" lon="-0.15577">
        <ele>63.3</ele>
        <time>2022-10-06T08:25:01Z</time>
      </trkpt>
      <trkpt lat="44.78243" lon="-0.15578">
        <ele>63.3</ele>
        <time>2022-10-06T08:25:02Z</time>
      </trkpt>
      <trkpt lat="44.78243" lon="-0.15578">
        <ele>63.3</ele>
        <time>2022-10-06T08:25:03Z</time>
      </trkpt>
      <trkpt lat="44.78243" lon="-0.15578">
        <ele>63.3</ele>
        <time>2022-10-06T08:25:04Z</time>
      </trkpt>
      <trkpt lat="44.78243" lon="-0.15578">
        <ele>63.3</ele>
        <time>2022-10-06T08:25:05Z</time>
      </trkpt>
      <trkpt lat="44.78243" lon="-0.15578">
        <ele>63.3</ele>
        <time>2022-10-06T08:25:06Z</time>
      </trkpt>
      <trkpt lat="44.78243" lon="-0.15578">
        <ele>63.3</ele>
        <time>2022-10-06T08:25:07Z</time>
      </trkpt>
      <trkpt lat="44.78243" lon="-0.15577">
        <ele>63.3</ele>
        <time>2022-10-06T08:25:08Z</time>
      </trkpt>
      <trkpt lat="44.78243" lon="-0.15577">
        <ele>63.3</ele>
        <time>2022-10-06T08:25:09Z</time>
      </trkpt>
      <trkpt lat="44.78242" lon="-0.15577">
        <ele>63.3</ele>
        <time>2022-10-06T08:25:10Z</time>
      </trkpt>
      <trkpt lat="44.78242" lon="-0.15577">
        <ele>63.2</ele>
        <time>2022-10-06T08:25:11Z</time>
      </trkpt>
      <trkpt lat="44.78242" lon="-0.15577">
        <ele>63.2</ele>
        <time>2022-10-06T08:25:12Z</time>
      </trkpt>
      <trkpt lat="44.78242" lon="-0.15577">
        <ele>63.2</ele>
        <time>2022-10-06T08:25:13Z</time>
      </trkpt>
      <trkpt lat="44.78242" lon="-0.15577">
        <ele>63.2</ele>
        <time>2022-10-06T08:25:14Z</time>
      </trkpt>
      <trkpt lat="44.78242" lon="-0.15577">
        <ele>63.2</ele>
        <time>2022-10-06T08:25:15Z</time>
      </trkpt>
      <trkpt lat="44.78242" lon="-0.15577">
        <ele>63.2</ele>
        <time>2022-10-06T08:25:16Z</time>
      </trkpt>
      <trkpt lat="44.78242" lon="-0.15577">
        <ele>63.2</ele>
        <time>2022-10-06T08:25:17Z</time>
      </trkpt>
      <trkpt lat="44.78242" lon="-0.15577">
        <ele>63.2</ele>
        <time>2022-10-06T08:25:18Z</time>
      </trkpt>
      <trkpt lat="44.78242" lon="-0.15577">
        <ele>63.2</ele>
        <time>2022-10-06T08:25:19Z</time>
      </trkpt>
      <trkpt lat="44.78242" lon="-0.15577">
        <ele>63.2</ele>
        <time>2022-10-06T08:25:20Z</time>
      </trkpt>
      <trkpt lat="44.78242" lon="-0.15577">
        <ele>63.2</ele>
        <time>2022-10-06T08:25:21Z</time>
      </trkpt>
      <trkpt lat="44.78242" lon="-0.15577">
        <ele>63.2</ele>
        <time>2022-10-06T08:25:22Z</time>
      </trkpt>
      <trkpt lat="44.78242" lon="-0.15577">
        <ele>63.2</ele>
        <time>2022-10-06T08:25:23Z</time>
      </trkpt>
      <trkpt lat="44.78242" lon="-0.15577">
        <ele>63.2</ele>
        <time>2022-10-06T08:25:24Z</time>
      </trkpt>
      <trkpt lat="44.78242" lon="-0.15577">
        <ele>63.2</ele>
        <time>2022-10-06T08:25:25Z</time>
      </trkpt>
      <trkpt lat="44.78242" lon="-0.15577">
        <ele>63.2</ele>
        <time>2022-10-06T08:25:26Z</time>
      </trkpt>
      <trkpt lat="44.78241" lon="-0.15576">
        <ele>63.2</ele>
        <time>2022-10-06T08:25:27Z</time>
      </trkpt>
      <trkpt lat="44.78241" lon="-0.15576">
        <ele>63.2</ele>
        <time>2022-10-06T08:25:28Z</time>
      </trkpt>
      <trkpt lat="44.78241" lon="-0.15576">
        <ele>63.2</ele>
        <time>2022-10-06T08:25:29Z</time>
      </trkpt>
      <trkpt lat="44.78241" lon="-0.15576">
        <ele>63.1</ele>
        <time>2022-10-06T08:25:30Z</time>
      </trkpt>
      <trkpt lat="44.78241" lon="-0.15575">
        <ele>63.1</ele>
        <time>2022-10-06T08:25:31Z</time>
      </trkpt>
      <trkpt lat="44.7824" lon="-0.15575">
        <ele>63.1</ele>
        <time>2022-10-06T08:25:32Z</time>
      </trkpt>
      <trkpt lat="44.7824" lon="-0.15575">
        <ele>63.1</ele>
        <time>2022-10-06T08:25:34Z</time>
      </trkpt>
      <trkpt lat="44.78239" lon="-0.15575">
        <ele>63.1</ele>
        <time>2022-10-06T08:25:35Z</time>
      </trkpt>
      <trkpt lat="44.78239" lon="-0.15575">
        <ele>63.1</ele>
        <time>2022-10-06T08:25:36Z</time>
      </trkpt>
      <trkpt lat="44.78239" lon="-0.15575">
        <ele>63.1</ele>
        <time>2022-10-06T08:25:37Z</time>
      </trkpt>
      <trkpt lat="44.78239" lon="-0.15575">
        <ele>63</ele>
        <time>2022-10-06T08:25:38Z</time>
      </trkpt>
      <trkpt lat="44.78239" lon="-0.15575">
        <ele>63</ele>
        <time>2022-10-06T08:25:39Z</time>
      </trkpt>
      <trkpt lat="44.78239" lon="-0.15575">
        <ele>63</ele>
        <time>2022-10-06T08:25:40Z</time>
      </trkpt>
      <trkpt lat="44.78239" lon="-0.15575">
        <ele>63</ele>
        <time>2022-10-06T08:25:41Z</time>
      </trkpt>
      <trkpt lat="44.78239" lon="-0.15575">
        <ele>63</ele>
        <time>2022-10-06T08:25:42Z</time>
      </trkpt>
      <trkpt lat="44.78239" lon="-0.15575">
        <ele>63</ele>
        <time>2022-10-06T08:25:43Z</time>
      </trkpt>
      <trkpt lat="44.78239" lon="-0.15575">
        <ele>63</ele>
        <time>2022-10-06T08:25:44Z</time>
      </trkpt>
      <trkpt lat="44.78239" lon="-0.15575">
        <ele>63</ele>
        <time>2022-10-06T08:25:45Z</time>
      </trkpt>
      <trkpt lat="44.78239" lon="-0.15575">
        <ele>63</ele>
        <time>2022-10-06T08:25:46Z</time>
      </trkpt>
      <trkpt lat="44.78239" lon="-0.15575">
        <ele>63</ele>
        <time>2022-10-06T08:25:47Z</time>
      </trkpt>
      <trkpt lat="44.78239" lon="-0.15575">
        <ele>63</ele>
        <time>2022-10-06T08:25:48Z</time>
      </trkpt>
      <trkpt lat="44.78239" lon="-0.15575">
        <ele>63</ele>
        <time>2022-10-06T08:25:49Z</time>
      </trkpt>
      <trkpt lat="44.78239" lon="-0.15575">
        <ele>63</ele>
        <time>2022-10-06T08:25:50Z</time>
      </trkpt>
      <trkpt lat="44.78239" lon="-0.15575">
        <ele>63</ele>
        <time>2022-10-06T08:25:51Z</time>
      </trkpt>
      <trkpt lat="44.78238" lon="-0.15575">
        <ele>63</ele>
        <time>2022-10-06T08:25:52Z</time>
      </trkpt>
      <trkpt lat="44.78238" lon="-0.15575">
        <ele>63</ele>
        <time>2022-10-06T08:25:53Z</time>
      </trkpt>
      <trkpt lat="44.78238" lon="-0.15575">
        <ele>63</ele>
        <time>2022-10-06T08:25:54Z</time>
      </trkpt>
      <trkpt lat="44.78238" lon="-0.15575">
        <ele>63</ele>
        <time>2022-10-06T08:25:55Z</time>
      </trkpt>
      <trkpt lat="44.78238" lon="-0.15575">
        <ele>63</ele>
        <time>2022-10-06T08:25:56Z</time>
      </trkpt>
      <trkpt lat="44.78238" lon="-0.15575">
        <ele>63</ele>
        <time>2022-10-06T08:25:57Z</time>
      </trkpt>
      <trkpt lat="44.78238" lon="-0.15575">
        <ele>63</ele>
        <time>2022-10-06T08:25:58Z</time>
      </trkpt>
      <trkpt lat="44.78238" lon="-0.15575">
        <ele>63</ele>
        <time>2022-10-06T08:25:59Z</time>
      </trkpt>
      <trkpt lat="44.78238" lon="-0.15575">
        <ele>63</ele>
        <time>2022-10-06T08:26:00Z</time>
      </trkpt>
      <trkpt lat="44.78238" lon="-0.15575">
        <ele>63</ele>
        <time>2022-10-06T08:26:01Z</time>
      </trkpt>
      <trkpt lat="44.78238" lon="-0.15575">
        <ele>63</ele>
        <time>2022-10-06T08:26:02Z</time>
      </trkpt>
      <trkpt lat="44.78238" lon="-0.15575">
        <ele>63</ele>
        <time>2022-10-06T08:26:03Z</time>
      </trkpt>
      <trkpt lat="44.78238" lon="-0.15575">
        <ele>63</ele>
        <time>2022-10-06T08:26:04Z</time>
      </trkpt>
      <trkpt lat="44.78238" lon="-0.15575">
        <ele>63</ele>
        <time>2022-10-06T08:26:05Z</time>
      </trkpt>
      <trkpt lat="44.78238" lon="-0.15575">
        <ele>63</ele>
        <time>2022-10-06T08:26:06Z</time>
      </trkpt>
      <trkpt lat="44.78238" lon="-0.15575">
        <ele>63</ele>
        <time>2022-10-06T08:26:07Z</time>
      </trkpt>
      <trkpt lat="44.78238" lon="-0.15575">
        <ele>63</ele>
        <time>2022-10-06T08:26:08Z</time>
      </trkpt>
      <trkpt lat="44.78238" lon="-0.15575">
        <ele>63</ele>
        <time>2022-10-06T08:26:09Z</time>
      </trkpt>
      <trkpt lat="44.78238" lon="-0.15575">
        <ele>63</ele>
        <time>2022-10-06T08:26:10Z</time>
      </trkpt>
      <trkpt lat="44.78238" lon="-0.15575">
        <ele>63</ele>
        <time>2022-10-06T08:26:11Z</time>
      </trkpt>
      <trkpt lat="44.78237" lon="-0.15575">
        <ele>63</ele>
        <time>2022-10-06T08:26:12Z</time>
      </trkpt>
      <trkpt lat="44.78237" lon="-0.15575">
        <ele>63</ele>
        <time>2022-10-06T08:26:13Z</time>
      </trkpt>
      <trkpt lat="44.78237" lon="-0.15575">
        <ele>63</ele>
        <time>2022-10-06T08:26:14Z</time>
      </trkpt>
      <trkpt lat="44.78237" lon="-0.15575">
        <ele>63</ele>
        <time>2022-10-06T08:26:15Z</time>
      </trkpt>
      <trkpt lat="44.78237" lon="-0.15575">
        <ele>63</ele>
        <time>2022-10-06T08:26:16Z</time>
      </trkpt>
      <trkpt lat="44.78237" lon="-0.15575">
        <ele>63</ele>
        <time>2022-10-06T08:26:17Z</time>
      </trkpt>
      <trkpt lat="44.78237" lon="-0.15575">
        <ele>63</ele>
        <time>2022-10-06T08:26:18Z</time>
      </trkpt>
      <trkpt lat="44.78237" lon="-0.15575">
        <ele>63</ele>
        <time>2022-10-06T08:26:19Z</time>
      </trkpt>
      <trkpt lat="44.78237" lon="-0.15575">
        <ele>63</ele>
        <time>2022-10-06T08:26:20Z</time>
      </trkpt>
      <trkpt lat="44.78237" lon="-0.15575">
        <ele>63</ele>
        <time>2022-10-06T08:26:21Z</time>
      </trkpt>
      <trkpt lat="44.78237" lon="-0.15575">
        <ele>62.9</ele>
        <time>2022-10-06T08:26:22Z</time>
      </trkpt>
      <trkpt lat="44.78237" lon="-0.15575">
        <ele>62.9</ele>
        <time>2022-10-06T08:26:23Z</time>
      </trkpt>
      <trkpt lat="44.78237" lon="-0.15575">
        <ele>62.9</ele>
        <time>2022-10-06T08:26:24Z</time>
      </trkpt>
      <trkpt lat="44.78237" lon="-0.15575">
        <ele>62.9</ele>
        <time>2022-10-06T08:26:25Z</time>
      </trkpt>
      <trkpt lat="44.78237" lon="-0.15575">
        <ele>62.9</ele>
        <time>2022-10-06T08:26:26Z</time>
      </trkpt>
      <trkpt lat="44.78237" lon="-0.15575">
        <ele>62.9</ele>
        <time>2022-10-06T08:26:27Z</time>
      </trkpt>
      <trkpt lat="44.78237" lon="-0.15575">
        <ele>62.9</ele>
        <time>2022-10-06T08:26:28Z</time>
      </trkpt>
      <trkpt lat="44.78237" lon="-0.15575">
        <ele>62.9</ele>
        <time>2022-10-06T08:26:29Z</time>
      </trkpt>
      <trkpt lat="44.78237" lon="-0.15575">
        <ele>62.9</ele>
        <time>2022-10-06T08:26:30Z</time>
      </trkpt>
      <trkpt lat="44.78236" lon="-0.15575">
        <ele>62.9</ele>
        <time>2022-10-06T08:26:31Z</time>
      </trkpt>
      <trkpt lat="44.78236" lon="-0.15575">
        <ele>62.9</ele>
        <time>2022-10-06T08:26:32Z</time>
      </trkpt>
      <trkpt lat="44.78236" lon="-0.15575">
        <ele>62.9</ele>
        <time>2022-10-06T08:26:33Z</time>
      </trkpt>
      <trkpt lat="44.78236" lon="-0.15575">
        <ele>62.9</ele>
        <time>2022-10-06T08:26:34Z</time>
      </trkpt>
      <trkpt lat="44.78236" lon="-0.15575">
        <ele>62.9</ele>
        <time>2022-10-06T08:26:35Z</time>
      </trkpt>
      <trkpt lat="44.78236" lon="-0.15575">
        <ele>62.9</ele>
        <time>2022-10-06T08:26:36Z</time>
      </trkpt>
      <trkpt lat="44.78236" lon="-0.15575">
        <ele>62.9</ele>
        <time>2022-10-06T08:26:37Z</time>
      </trkpt>
      <trkpt lat="44.78236" lon="-0.15575">
        <ele>62.9</ele>
        <time>2022-10-06T08:26:38Z</time>
      </trkpt>
      <trkpt lat="44.78236" lon="-0.15575">
        <ele>62.9</ele>
        <time>2022-10-06T08:26:39Z</time>
      </trkpt>
      <trkpt lat="44.78236" lon="-0.15575">
        <ele>62.9</ele>
        <time>2022-10-06T08:26:40Z</time>
      </trkpt>
      <trkpt lat="44.78236" lon="-0.15575">
        <ele>62.9</ele>
        <time>2022-10-06T08:26:41Z</time>
      </trkpt>
      <trkpt lat="44.78236" lon="-0.15575">
        <ele>62.9</ele>
        <time>2022-10-06T08:26:42Z</time>
      </trkpt>
      <trkpt lat="44.78236" lon="-0.15575">
        <ele>62.9</ele>
        <time>2022-10-06T08:26:43Z</time>
      </trkpt>
      <trkpt lat="44.78236" lon="-0.15575">
        <ele>62.9</ele>
        <time>2022-10-06T08:26:44Z</time>
      </trkpt>
      <trkpt lat="44.78236" lon="-0.15575">
        <ele>62.9</ele>
        <time>2022-10-06T08:26:45Z</time>
      </trkpt>
      <trkpt lat="44.78236" lon="-0.15575">
        <ele>62.9</ele>
        <time>2022-10-06T08:26:46Z</time>
      </trkpt>
      <trkpt lat="44.78236" lon="-0.15575">
        <ele>62.9</ele>
        <time>2022-10-06T08:26:47Z</time>
      </trkpt>
      <trkpt lat="44.78236" lon="-0.15575">
        <ele>62.9</ele>
        <time>2022-10-06T08:26:48Z</time>
      </trkpt>
      <trkpt lat="44.78236" lon="-0.15575">
        <ele>62.9</ele>
        <time>2022-10-06T08:26:49Z</time>
      </trkpt>
      <trkpt lat="44.78236" lon="-0.15575">
        <ele>62.9</ele>
        <time>2022-10-06T08:26:50Z</time>
      </trkpt>
      <trkpt lat="44.78235" lon="-0.15576">
        <ele>62.8</ele>
        <time>2022-10-06T08:26:51Z</time>
      </trkpt>
      <trkpt lat="44.78234" lon="-0.15576">
        <ele>62.8</ele>
        <time>2022-10-06T08:26:52Z</time>
      </trkpt>
      <trkpt lat="44.78234" lon="-0.15576">
        <ele>62.8</ele>
        <time>2022-10-06T08:26:53Z</time>
      </trkpt>
      <trkpt lat="44.78233" lon="-0.15576">
        <ele>62.8</ele>
        <time>2022-10-06T08:26:54Z</time>
      </trkpt>
      <trkpt lat="44.78233" lon="-0.15577">
        <ele>62.7</ele>
        <time>2022-10-06T08:26:55Z</time>
      </trkpt>
      <trkpt lat="44.78232" lon="-0.15577">
        <ele>62.7</ele>
        <time>2022-10-06T08:26:56Z</time>
      </trkpt>
      <trkpt lat="44.78232" lon="-0.15578">
        <ele>62.7</ele>
        <time>2022-10-06T08:26:57Z</time>
      </trkpt>
      <trkpt lat="44.78232" lon="-0.15578">
        <ele>62.6</ele>
        <time>2022-10-06T08:26:58Z</time>
      </trkpt>
      <trkpt lat="44.78232" lon="-0.15579">
        <ele>62.6</ele>
        <time>2022-10-06T08:26:59Z</time>
      </trkpt>
      <trkpt lat="44.78232" lon="-0.15579">
        <ele>62.6</ele>
        <time>2022-10-06T08:27:00Z</time>
      </trkpt>
      <trkpt lat="44.78232" lon="-0.15579">
        <ele>62.6</ele>
        <time>2022-10-06T08:27:01Z</time>
      </trkpt>
      <trkpt lat="44.78232" lon="-0.15579">
        <ele>62.6</ele>
        <time>2022-10-06T08:27:02Z</time>
      </trkpt>
      <trkpt lat="44.78232" lon="-0.15579">
        <ele>62.6</ele>
        <time>2022-10-06T08:27:03Z</time>
      </trkpt>
      <trkpt lat="44.78231" lon="-0.15579">
        <ele>62.6</ele>
        <time>2022-10-06T08:27:04Z</time>
      </trkpt>
      <trkpt lat="44.78231" lon="-0.15579">
        <ele>62.6</ele>
        <time>2022-10-06T08:27:05Z</time>
      </trkpt>
      <trkpt lat="44.78231" lon="-0.15579">
        <ele>62.6</ele>
        <time>2022-10-06T08:27:06Z</time>
      </trkpt>
      <trkpt lat="44.78231" lon="-0.15579">
        <ele>62.6</ele>
        <time>2022-10-06T08:27:07Z</time>
      </trkpt>
      <trkpt lat="44.78231" lon="-0.15579">
        <ele>62.6</ele>
        <time>2022-10-06T08:27:08Z</time>
      </trkpt>
      <trkpt lat="44.78231" lon="-0.15579">
        <ele>62.6</ele>
        <time>2022-10-06T08:27:09Z</time>
      </trkpt>
      <trkpt lat="44.78231" lon="-0.15579">
        <ele>62.6</ele>
        <time>2022-10-06T08:27:10Z</time>
      </trkpt>
      <trkpt lat="44.78231" lon="-0.15579">
        <ele>62.6</ele>
        <time>2022-10-06T08:27:11Z</time>
      </trkpt>
      <trkpt lat="44.78231" lon="-0.15579">
        <ele>62.6</ele>
        <time>2022-10-06T08:27:12Z</time>
      </trkpt>
      <trkpt lat="44.78231" lon="-0.15579">
        <ele>62.6</ele>
        <time>2022-10-06T08:27:13Z</time>
      </trkpt>
      <trkpt lat="44.78231" lon="-0.15579">
        <ele>62.5</ele>
        <time>2022-10-06T08:27:14Z</time>
      </trkpt>
      <trkpt lat="44.7823" lon="-0.1558">
        <ele>62.5</ele>
        <time>2022-10-06T08:27:15Z</time>
      </trkpt>
      <trkpt lat="44.7823" lon="-0.1558">
        <ele>62.5</ele>
        <time>2022-10-06T08:27:16Z</time>
      </trkpt>
      <trkpt lat="44.7823" lon="-0.1558">
        <ele>62.5</ele>
        <time>2022-10-06T08:27:17Z</time>
      </trkpt>
      <trkpt lat="44.7823" lon="-0.1558">
        <ele>62.5</ele>
        <time>2022-10-06T08:27:18Z</time>
      </trkpt>
      <trkpt lat="44.7823" lon="-0.1558">
        <ele>62.5</ele>
        <time>2022-10-06T08:27:19Z</time>
      </trkpt>
      <trkpt lat="44.7823" lon="-0.1558">
        <ele>62.5</ele>
        <time>2022-10-06T08:27:20Z</time>
      </trkpt>
      <trkpt lat="44.7823" lon="-0.1558">
        <ele>62.5</ele>
        <time>2022-10-06T08:27:21Z</time>
      </trkpt>
      <trkpt lat="44.7823" lon="-0.1558">
        <ele>62.5</ele>
        <time>2022-10-06T08:27:22Z</time>
      </trkpt>
      <trkpt lat="44.7823" lon="-0.1558">
        <ele>62.5</ele>
        <time>2022-10-06T08:27:23Z</time>
      </trkpt>
      <trkpt lat="44.7823" lon="-0.1558">
        <ele>62.5</ele>
        <time>2022-10-06T08:27:24Z</time>
      </trkpt>
      <trkpt lat="44.7823" lon="-0.1558">
        <ele>62.5</ele>
        <time>2022-10-06T08:27:25Z</time>
      </trkpt>
      <trkpt lat="44.7823" lon="-0.1558">
        <ele>62.5</ele>
        <time>2022-10-06T08:27:26Z</time>
      </trkpt>
      <trkpt lat="44.7823" lon="-0.1558">
        <ele>62.5</ele>
        <time>2022-10-06T08:27:27Z</time>
      </trkpt>
      <trkpt lat="44.7823" lon="-0.1558">
        <ele>62.5</ele>
        <time>2022-10-06T08:27:28Z</time>
      </trkpt>
      <trkpt lat="44.7823" lon="-0.1558">
        <ele>62.5</ele>
        <time>2022-10-06T08:27:29Z</time>
      </trkpt>
      <trkpt lat="44.7823" lon="-0.1558">
        <ele>62.5</ele>
        <time>2022-10-06T08:27:30Z</time>
      </trkpt>
      <trkpt lat="44.7823" lon="-0.1558">
        <ele>62.5</ele>
        <time>2022-10-06T08:27:31Z</time>
      </trkpt>
      <trkpt lat="44.7823" lon="-0.1558">
        <ele>62.5</ele>
        <time>2022-10-06T08:27:32Z</time>
      </trkpt>
      <trkpt lat="44.7823" lon="-0.1558">
        <ele>62.5</ele>
        <time>2022-10-06T08:27:33Z</time>
      </trkpt>
      <trkpt lat="44.7823" lon="-0.1558">
        <ele>62.5</ele>
        <time>2022-10-06T08:27:34Z</time>
      </trkpt>
      <trkpt lat="44.7823" lon="-0.1558">
        <ele>62.5</ele>
        <time>2022-10-06T08:27:35Z</time>
      </trkpt>
      <trkpt lat="44.7823" lon="-0.1558">
        <ele>62.5</ele>
        <time>2022-10-06T08:27:36Z</time>
      </trkpt>
      <trkpt lat="44.7823" lon="-0.1558">
        <ele>62.5</ele>
        <time>2022-10-06T08:27:37Z</time>
      </trkpt>
      <trkpt lat="44.7823" lon="-0.1558">
        <ele>62.5</ele>
        <time>2022-10-06T08:27:38Z</time>
      </trkpt>
      <trkpt lat="44.7823" lon="-0.1558">
        <ele>62.5</ele>
        <time>2022-10-06T08:27:39Z</time>
      </trkpt>
      <trkpt lat="44.7823" lon="-0.1558">
        <ele>62.5</ele>
        <time>2022-10-06T08:27:40Z</time>
      </trkpt>
      <trkpt lat="44.7823" lon="-0.1558">
        <ele>62.5</ele>
        <time>2022-10-06T08:27:41Z</time>
      </trkpt>
      <trkpt lat="44.7823" lon="-0.1558">
        <ele>62.5</ele>
        <time>2022-10-06T08:27:42Z</time>
      </trkpt>
      <trkpt lat="44.7823" lon="-0.1558">
        <ele>62.5</ele>
        <time>2022-10-06T08:27:43Z</time>
      </trkpt>
      <trkpt lat="44.7823" lon="-0.15579">
        <ele>62.5</ele>
        <time>2022-10-06T08:27:44Z</time>
      </trkpt>
      <trkpt lat="44.7823" lon="-0.15579">
        <ele>62.5</ele>
        <time>2022-10-06T08:27:45Z</time>
      </trkpt>
      <trkpt lat="44.7823" lon="-0.15579">
        <ele>62.5</ele>
        <time>2022-10-06T08:27:46Z</time>
      </trkpt>
      <trkpt lat="44.7823" lon="-0.15579">
        <ele>62.5</ele>
        <time>2022-10-06T08:27:47Z</time>
      </trkpt>
      <trkpt lat="44.7823" lon="-0.15579">
        <ele>62.5</ele>
        <time>2022-10-06T08:27:48Z</time>
      </trkpt>
      <trkpt lat="44.7823" lon="-0.15579">
        <ele>62.5</ele>
        <time>2022-10-06T08:27:49Z</time>
      </trkpt>
      <trkpt lat="44.7823" lon="-0.15579">
        <ele>62.5</ele>
        <time>2022-10-06T08:27:50Z</time>
      </trkpt>
      <trkpt lat="44.7823" lon="-0.15579">
        <ele>62.5</ele>
        <time>2022-10-06T08:27:51Z</time>
      </trkpt>
      <trkpt lat="44.7823" lon="-0.15579">
        <ele>62.5</ele>
        <time>2022-10-06T08:27:52Z</time>
      </trkpt>
      <trkpt lat="44.7823" lon="-0.15579">
        <ele>62.5</ele>
        <time>2022-10-06T08:27:53Z</time>
      </trkpt>
      <trkpt lat="44.7823" lon="-0.15579">
        <ele>62.5</ele>
        <time>2022-10-06T08:27:54Z</time>
      </trkpt>
      <trkpt lat="44.7823" lon="-0.15579">
        <ele>62.5</ele>
        <time>2022-10-06T08:27:55Z</time>
      </trkpt>
      <trkpt lat="44.7823" lon="-0.1558">
        <ele>62.4</ele>
        <time>2022-10-06T08:27:56Z</time>
      </trkpt>
      <trkpt lat="44.78229" lon="-0.15581">
        <ele>62.4</ele>
        <time>2022-10-06T08:27:57Z</time>
      </trkpt>
      <trkpt lat="44.78229" lon="-0.15581">
        <ele>62.4</ele>
        <time>2022-10-06T08:27:58Z</time>
      </trkpt>
      <trkpt lat="44.78228" lon="-0.15581">
        <ele>62.4</ele>
        <time>2022-10-06T08:27:59Z</time>
      </trkpt>
      <trkpt lat="44.78227" lon="-0.15582">
        <ele>62.3</ele>
        <time>2022-10-06T08:28:00Z</time>
      </trkpt>
      <trkpt lat="44.78225" lon="-0.15584">
        <ele>62.2</ele>
        <time>2022-10-06T08:28:01Z</time>
      </trkpt>
      <trkpt lat="44.78224" lon="-0.15585">
        <ele>62.1</ele>
        <time>2022-10-06T08:28:02Z</time>
      </trkpt>
      <trkpt lat="44.78223" lon="-0.15587">
        <ele>62</ele>
        <time>2022-10-06T08:28:03Z</time>
      </trkpt>
      <trkpt lat="44.78222" lon="-0.15588">
        <ele>61.9</ele>
        <time>2022-10-06T08:28:04Z</time>
      </trkpt>
      <trkpt lat="44.78221" lon="-0.15589">
        <ele>61.9</ele>
        <time>2022-10-06T08:28:05Z</time>
      </trkpt>
      <trkpt lat="44.7822" lon="-0.1559">
        <ele>61.8</ele>
        <time>2022-10-06T08:28:06Z</time>
      </trkpt>
      <trkpt lat="44.78219" lon="-0.15591">
        <ele>61.7</ele>
        <time>2022-10-06T08:28:07Z</time>
      </trkpt>
      <trkpt lat="44.78218" lon="-0.15592">
        <ele>61.7</ele>
        <time>2022-10-06T08:28:08Z</time>
      </trkpt>
      <trkpt lat="44.78217" lon="-0.15592">
        <ele>61.6</ele>
        <time>2022-10-06T08:28:09Z</time>
      </trkpt>
      <trkpt lat="44.78216" lon="-0.15592">
        <ele>61.6</ele>
        <time>2022-10-06T08:28:10Z</time>
      </trkpt>
      <trkpt lat="44.78215" lon="-0.15593">
        <ele>61.5</ele>
        <time>2022-10-06T08:28:11Z</time>
      </trkpt>
      <trkpt lat="44.78213" lon="-0.15594">
        <ele>61.4</ele>
        <time>2022-10-06T08:28:12Z</time>
      </trkpt>
      <trkpt lat="44.78213" lon="-0.15594">
        <ele>61.4</ele>
        <time>2022-10-06T08:28:13Z</time>
      </trkpt>
      <trkpt lat="44.78212" lon="-0.15595">
        <ele>61.3</ele>
        <time>2022-10-06T08:28:14Z</time>
      </trkpt>
      <trkpt lat="44.78211" lon="-0.15596">
        <ele>61.3</ele>
        <time>2022-10-06T08:28:15Z</time>
      </trkpt>
      <trkpt lat="44.7821" lon="-0.15597">
        <ele>61.2</ele>
        <time>2022-10-06T08:28:16Z</time>
      </trkpt>
      <trkpt lat="44.78208" lon="-0.15598">
        <ele>61.1</ele>
        <time>2022-10-06T08:28:17Z</time>
      </trkpt>
      <trkpt lat="44.78207" lon="-0.15599">
        <ele>61</ele>
        <time>2022-10-06T08:28:18Z</time>
      </trkpt>
      <trkpt lat="44.78207" lon="-0.15599">
        <ele>61</ele>
        <time>2022-10-06T08:28:19Z</time>
      </trkpt>
      <trkpt lat="44.78206" lon="-0.156">
        <ele>60.9</ele>
        <time>2022-10-06T08:28:20Z</time>
      </trkpt>
      <trkpt lat="44.78205" lon="-0.156">
        <ele>60.9</ele>
        <time>2022-10-06T08:28:21Z</time>
      </trkpt>
      <trkpt lat="44.78203" lon="-0.156">
        <ele>60.8</ele>
        <time>2022-10-06T08:28:22Z</time>
      </trkpt>
      <trkpt lat="44.78203" lon="-0.156">
        <ele>60.8</ele>
        <time>2022-10-06T08:28:23Z</time>
      </trkpt>
      <trkpt lat="44.78202" lon="-0.15601">
        <ele>60.7</ele>
        <time>2022-10-06T08:28:24Z</time>
      </trkpt>
      <trkpt lat="44.78201" lon="-0.15601">
        <ele>60.7</ele>
        <time>2022-10-06T08:28:25Z</time>
      </trkpt>
      <trkpt lat="44.782" lon="-0.156">
        <ele>60.6</ele>
        <time>2022-10-06T08:28:26Z</time>
      </trkpt>
      <trkpt lat="44.78199" lon="-0.156">
        <ele>60.6</ele>
        <time>2022-10-06T08:28:27Z</time>
      </trkpt>
      <trkpt lat="44.78198" lon="-0.156">
        <ele>60.5</ele>
        <time>2022-10-06T08:28:28Z</time>
      </trkpt>
      <trkpt lat="44.78197" lon="-0.156">
        <ele>60.4</ele>
        <time>2022-10-06T08:28:29Z</time>
      </trkpt>
      <trkpt lat="44.78196" lon="-0.156">
        <ele>60.4</ele>
        <time>2022-10-06T08:28:30Z</time>
      </trkpt>
      <trkpt lat="44.78195" lon="-0.156">
        <ele>60.3</ele>
        <time>2022-10-06T08:28:31Z</time>
      </trkpt>
      <trkpt lat="44.78194" lon="-0.156">
        <ele>60.3</ele>
        <time>2022-10-06T08:28:32Z</time>
      </trkpt>
      <trkpt lat="44.78192" lon="-0.156">
        <ele>60.1</ele>
        <time>2022-10-06T08:28:33Z</time>
      </trkpt>
      <trkpt lat="44.78191" lon="-0.15599">
        <ele>60.1</ele>
        <time>2022-10-06T08:28:34Z</time>
      </trkpt>
      <trkpt lat="44.7819" lon="-0.15599">
        <ele>60.1</ele>
        <time>2022-10-06T08:28:35Z</time>
      </trkpt>
      <trkpt lat="44.7819" lon="-0.15598">
        <ele>60</ele>
        <time>2022-10-06T08:28:36Z</time>
      </trkpt>
      <trkpt lat="44.78189" lon="-0.15597">
        <ele>59.9</ele>
        <time>2022-10-06T08:28:37Z</time>
      </trkpt>
      <trkpt lat="44.78188" lon="-0.15596">
        <ele>60.1</ele>
        <time>2022-10-06T08:28:38Z</time>
      </trkpt>
      <trkpt lat="44.78187" lon="-0.15595">
        <ele>60.2</ele>
        <time>2022-10-06T08:28:39Z</time>
      </trkpt>
      <trkpt lat="44.78185" lon="-0.15595">
        <ele>60.2</ele>
        <time>2022-10-06T08:28:40Z</time>
      </trkpt>
      <trkpt lat="44.78186" lon="-0.15595">
        <ele>60.2</ele>
        <time>2022-10-06T08:28:41Z</time>
      </trkpt>
      <trkpt lat="44.78186" lon="-0.15595">
        <ele>60.3</ele>
        <time>2022-10-06T08:28:42Z</time>
      </trkpt>
      <trkpt lat="44.78186" lon="-0.15596">
        <ele>60.3</ele>
        <time>2022-10-06T08:28:43Z</time>
      </trkpt>
      <trkpt lat="44.78187" lon="-0.15596">
        <ele>60.3</ele>
        <time>2022-10-06T08:28:44Z</time>
      </trkpt>
      <trkpt lat="44.78189" lon="-0.15597">
        <ele>60.4</ele>
        <time>2022-10-06T08:28:45Z</time>
      </trkpt>
      <trkpt lat="44.78189" lon="-0.15597">
        <ele>60.4</ele>
        <time>2022-10-06T08:28:46Z</time>
      </trkpt>
      <trkpt lat="44.78189" lon="-0.15597">
        <ele>60.4</ele>
        <time>2022-10-06T08:28:47Z</time>
      </trkpt>
      <trkpt lat="44.78189" lon="-0.15597">
        <ele>60.4</ele>
        <time>2022-10-06T08:28:48Z</time>
      </trkpt>
      <trkpt lat="44.78189" lon="-0.15597">
        <ele>60.4</ele>
        <time>2022-10-06T08:28:49Z</time>
      </trkpt>
      <trkpt lat="44.78189" lon="-0.15598">
        <ele>60.4</ele>
        <time>2022-10-06T08:28:50Z</time>
      </trkpt>
      <trkpt lat="44.78188" lon="-0.15598">
        <ele>60.4</ele>
        <time>2022-10-06T08:28:51Z</time>
      </trkpt>
      <trkpt lat="44.78188" lon="-0.15597">
        <ele>60.5</ele>
        <time>2022-10-06T08:28:52Z</time>
      </trkpt>
      <trkpt lat="44.78187" lon="-0.15595">
        <ele>60.5</ele>
        <time>2022-10-06T08:28:53Z</time>
      </trkpt>
      <trkpt lat="44.78185" lon="-0.15594">
        <ele>60.6</ele>
        <time>2022-10-06T08:28:54Z</time>
      </trkpt>
      <trkpt lat="44.78184" lon="-0.15593">
        <ele>60.6</ele>
        <time>2022-10-06T08:28:55Z</time>
      </trkpt>
      <trkpt lat="44.78182" lon="-0.15593">
        <ele>60.7</ele>
        <time>2022-10-06T08:28:56Z</time>
      </trkpt>
      <trkpt lat="44.78181" lon="-0.15592">
        <ele>60.8</ele>
        <time>2022-10-06T08:28:57Z</time>
      </trkpt>
      <trkpt lat="44.7818" lon="-0.1559">
        <ele>60.8</ele>
        <time>2022-10-06T08:28:58Z</time>
      </trkpt>
      <trkpt lat="44.7818" lon="-0.15589">
        <ele>60.8</ele>
        <time>2022-10-06T08:28:59Z</time>
      </trkpt>
      <trkpt lat="44.78179" lon="-0.15589">
        <ele>60.8</ele>
        <time>2022-10-06T08:29:00Z</time>
      </trkpt>
      <trkpt lat="44.78178" lon="-0.15588">
        <ele>60.9</ele>
        <time>2022-10-06T08:29:01Z</time>
      </trkpt>
      <trkpt lat="44.78177" lon="-0.15587">
        <ele>60.9</ele>
        <time>2022-10-06T08:29:02Z</time>
      </trkpt>
      <trkpt lat="44.78176" lon="-0.15586">
        <ele>60.9</ele>
        <time>2022-10-06T08:29:03Z</time>
      </trkpt>
      <trkpt lat="44.78176" lon="-0.15586">
        <ele>61</ele>
        <time>2022-10-06T08:29:04Z</time>
      </trkpt>
      <trkpt lat="44.78175" lon="-0.15585">
        <ele>61</ele>
        <time>2022-10-06T08:29:05Z</time>
      </trkpt>
      <trkpt lat="44.78174" lon="-0.15583">
        <ele>61</ele>
        <time>2022-10-06T08:29:06Z</time>
      </trkpt>
      <trkpt lat="44.78173" lon="-0.15583">
        <ele>61.1</ele>
        <time>2022-10-06T08:29:07Z</time>
      </trkpt>
      <trkpt lat="44.78173" lon="-0.15582">
        <ele>61.1</ele>
        <time>2022-10-06T08:29:08Z</time>
      </trkpt>
      <trkpt lat="44.78172" lon="-0.15581">
        <ele>61.1</ele>
        <time>2022-10-06T08:29:09Z</time>
      </trkpt>
      <trkpt lat="44.78172" lon="-0.15579">
        <ele>61.1</ele>
        <time>2022-10-06T08:29:10Z</time>
      </trkpt>
      <trkpt lat="44.78171" lon="-0.15578">
        <ele>61.2</ele>
        <time>2022-10-06T08:29:11Z</time>
      </trkpt>
      <trkpt lat="44.78171" lon="-0.15577">
        <ele>61.2</ele>
        <time>2022-10-06T08:29:12Z</time>
      </trkpt>
      <trkpt lat="44.7817" lon="-0.15576">
        <ele>61.2</ele>
        <time>2022-10-06T08:29:13Z</time>
      </trkpt>
      <trkpt lat="44.78169" lon="-0.15575">
        <ele>61.3</ele>
        <time>2022-10-06T08:29:14Z</time>
      </trkpt>
      <trkpt lat="44.78169" lon="-0.15574">
        <ele>61.3</ele>
        <time>2022-10-06T08:29:15Z</time>
      </trkpt>
      <trkpt lat="44.78168" lon="-0.15573">
        <ele>61.3</ele>
        <time>2022-10-06T08:29:16Z</time>
      </trkpt>
      <trkpt lat="44.78168" lon="-0.15572">
        <ele>61.3</ele>
        <time>2022-10-06T08:29:17Z</time>
      </trkpt>
      <trkpt lat="44.78168" lon="-0.1557">
        <ele>61.4</ele>
        <time>2022-10-06T08:29:18Z</time>
      </trkpt>
      <trkpt lat="44.78168" lon="-0.15569">
        <ele>61.4</ele>
        <time>2022-10-06T08:29:19Z</time>
      </trkpt>
      <trkpt lat="44.78168" lon="-0.15568">
        <ele>61.4</ele>
        <time>2022-10-06T08:29:20Z</time>
      </trkpt>
      <trkpt lat="44.78169" lon="-0.15566">
        <ele>61.5</ele>
        <time>2022-10-06T08:29:21Z</time>
      </trkpt>
      <trkpt lat="44.78169" lon="-0.15565">
        <ele>61.5</ele>
        <time>2022-10-06T08:29:22Z</time>
      </trkpt>
      <trkpt lat="44.78169" lon="-0.15563">
        <ele>61.5</ele>
        <time>2022-10-06T08:29:23Z</time>
      </trkpt>
      <trkpt lat="44.7817" lon="-0.15562">
        <ele>61.5</ele>
        <time>2022-10-06T08:29:24Z</time>
      </trkpt>
      <trkpt lat="44.7817" lon="-0.15559">
        <ele>61.6</ele>
        <time>2022-10-06T08:29:25Z</time>
      </trkpt>
      <trkpt lat="44.7817" lon="-0.15557">
        <ele>61.6</ele>
        <time>2022-10-06T08:29:26Z</time>
      </trkpt>
      <trkpt lat="44.78171" lon="-0.15556">
        <ele>61.7</ele>
        <time>2022-10-06T08:29:27Z</time>
      </trkpt>
      <trkpt lat="44.78171" lon="-0.15552">
        <ele>61.7</ele>
        <time>2022-10-06T08:29:28Z</time>
      </trkpt>
      <trkpt lat="44.78171" lon="-0.1555">
        <ele>61.8</ele>
        <time>2022-10-06T08:29:29Z</time>
      </trkpt>
      <trkpt lat="44.78171" lon="-0.15548">
        <ele>61.8</ele>
        <time>2022-10-06T08:29:30Z</time>
      </trkpt>
      <trkpt lat="44.78172" lon="-0.15546">
        <ele>61.9</ele>
        <time>2022-10-06T08:29:31Z</time>
      </trkpt>
      <trkpt lat="44.78172" lon="-0.15543">
        <ele>61.9</ele>
        <time>2022-10-06T08:29:32Z</time>
      </trkpt>
      <trkpt lat="44.78172" lon="-0.15541">
        <ele>62</ele>
        <time>2022-10-06T08:29:33Z</time>
      </trkpt>
      <trkpt lat="44.78173" lon="-0.15537">
        <ele>62</ele>
        <time>2022-10-06T08:29:34Z</time>
      </trkpt>
      <trkpt lat="44.78173" lon="-0.15536">
        <ele>62.1</ele>
        <time>2022-10-06T08:29:35Z</time>
      </trkpt>
      <trkpt lat="44.78173" lon="-0.15531">
        <ele>62.2</ele>
        <time>2022-10-06T08:29:36Z</time>
      </trkpt>
      <trkpt lat="44.78173" lon="-0.15529">
        <ele>62.2</ele>
        <time>2022-10-06T08:29:37Z</time>
      </trkpt>
      <trkpt lat="44.78173" lon="-0.15522">
        <ele>62.3</ele>
        <time>2022-10-06T08:29:38Z</time>
      </trkpt>
      <trkpt lat="44.78174" lon="-0.15517">
        <ele>62.4</ele>
        <time>2022-10-06T08:29:39Z</time>
      </trkpt>
      <trkpt lat="44.78174" lon="-0.15515">
        <ele>62.5</ele>
        <time>2022-10-06T08:29:40Z</time>
      </trkpt>
      <trkpt lat="44.78174" lon="-0.15511">
        <ele>62.6</ele>
        <time>2022-10-06T08:29:41Z</time>
      </trkpt>
      <trkpt lat="44.78174" lon="-0.15506">
        <ele>62.7</ele>
        <time>2022-10-06T08:29:42Z</time>
      </trkpt>
      <trkpt lat="44.78174" lon="-0.15504">
        <ele>62.7</ele>
        <time>2022-10-06T08:29:43Z</time>
      </trkpt>
      <trkpt lat="44.78174" lon="-0.155">
        <ele>62.8</ele>
        <time>2022-10-06T08:29:44Z</time>
      </trkpt>
      <trkpt lat="44.78174" lon="-0.15499">
        <ele>62.8</ele>
        <time>2022-10-06T08:29:45Z</time>
      </trkpt>
      <trkpt lat="44.78176" lon="-0.15496">
        <ele>62.9</ele>
        <time>2022-10-06T08:29:46Z</time>
      </trkpt>
      <trkpt lat="44.78177" lon="-0.15495">
        <ele>62.9</ele>
        <time>2022-10-06T08:29:47Z</time>
      </trkpt>
      <trkpt lat="44.78178" lon="-0.15493">
        <ele>63</ele>
        <time>2022-10-06T08:29:48Z</time>
      </trkpt>
      <trkpt lat="44.78178" lon="-0.1549">
        <ele>63</ele>
        <time>2022-10-06T08:29:49Z</time>
      </trkpt>
      <trkpt lat="44.78179" lon="-0.15488">
        <ele>63.1</ele>
        <time>2022-10-06T08:29:50Z</time>
      </trkpt>
      <trkpt lat="44.78179" lon="-0.15485">
        <ele>63.1</ele>
        <time>2022-10-06T08:29:51Z</time>
      </trkpt>
      <trkpt lat="44.78179" lon="-0.15483">
        <ele>63.1</ele>
        <time>2022-10-06T08:29:52Z</time>
      </trkpt>
      <trkpt lat="44.78179" lon="-0.15481">
        <ele>63.2</ele>
        <time>2022-10-06T08:29:53Z</time>
      </trkpt>
      <trkpt lat="44.78179" lon="-0.15478">
        <ele>63.3</ele>
        <time>2022-10-06T08:29:54Z</time>
      </trkpt>
      <trkpt lat="44.7818" lon="-0.15477">
        <ele>63.3</ele>
        <time>2022-10-06T08:29:55Z</time>
      </trkpt>
      <trkpt lat="44.7818" lon="-0.15475">
        <ele>63.3</ele>
        <time>2022-10-06T08:29:56Z</time>
      </trkpt>
      <trkpt lat="44.78182" lon="-0.15472">
        <ele>63.4</ele>
        <time>2022-10-06T08:29:57Z</time>
      </trkpt>
      <trkpt lat="44.78183" lon="-0.15471">
        <ele>63.5</ele>
        <time>2022-10-06T08:29:58Z</time>
      </trkpt>
      <trkpt lat="44.78184" lon="-0.15466">
        <ele>63.6</ele>
        <time>2022-10-06T08:29:59Z</time>
      </trkpt>
      <trkpt lat="44.78184" lon="-0.15465">
        <ele>63.6</ele>
        <time>2022-10-06T08:30:00Z</time>
      </trkpt>
      <trkpt lat="44.78185" lon="-0.15462">
        <ele>63.7</ele>
        <time>2022-10-06T08:30:01Z</time>
      </trkpt>
      <trkpt lat="44.78186" lon="-0.1546">
        <ele>63.7</ele>
        <time>2022-10-06T08:30:02Z</time>
      </trkpt>
      <trkpt lat="44.78186" lon="-0.15459">
        <ele>63.8</ele>
        <time>2022-10-06T08:30:03Z</time>
      </trkpt>
      <trkpt lat="44.78187" lon="-0.15458">
        <ele>63.8</ele>
        <time>2022-10-06T08:30:04Z</time>
      </trkpt>
      <trkpt lat="44.78187" lon="-0.15456">
        <ele>63.9</ele>
        <time>2022-10-06T08:30:05Z</time>
      </trkpt>
      <trkpt lat="44.78188" lon="-0.15454">
        <ele>63.9</ele>
        <time>2022-10-06T08:30:06Z</time>
      </trkpt>
      <trkpt lat="44.78188" lon="-0.15453">
        <ele>64</ele>
        <time>2022-10-06T08:30:07Z</time>
      </trkpt>
      <trkpt lat="44.78189" lon="-0.15451">
        <ele>64</ele>
        <time>2022-10-06T08:30:08Z</time>
      </trkpt>
      <trkpt lat="44.78188" lon="-0.15448">
        <ele>64.1</ele>
        <time>2022-10-06T08:30:09Z</time>
      </trkpt>
      <trkpt lat="44.78188" lon="-0.15447">
        <ele>64.1</ele>
        <time>2022-10-06T08:30:10Z</time>
      </trkpt>
      <trkpt lat="44.78188" lon="-0.15446">
        <ele>64.1</ele>
        <time>2022-10-06T08:30:11Z</time>
      </trkpt>
      <trkpt lat="44.78188" lon="-0.15443">
        <ele>64.2</ele>
        <time>2022-10-06T08:30:12Z</time>
      </trkpt>
      <trkpt lat="44.78189" lon="-0.15442">
        <ele>64.2</ele>
        <time>2022-10-06T08:30:13Z</time>
      </trkpt>
      <trkpt lat="44.78189" lon="-0.15441">
        <ele>64.3</ele>
        <time>2022-10-06T08:30:14Z</time>
      </trkpt>
      <trkpt lat="44.7819" lon="-0.15437">
        <ele>64.4</ele>
        <time>2022-10-06T08:30:15Z</time>
      </trkpt>
      <trkpt lat="44.78192" lon="-0.15435">
        <ele>64.4</ele>
        <time>2022-10-06T08:30:17Z</time>
      </trkpt>
      <trkpt lat="44.78192" lon="-0.15434">
        <ele>64.5</ele>
        <time>2022-10-06T08:30:18Z</time>
      </trkpt>
      <trkpt lat="44.78193" lon="-0.15433">
        <ele>64.5</ele>
        <time>2022-10-06T08:30:19Z</time>
      </trkpt>
      <trkpt lat="44.78194" lon="-0.1543">
        <ele>64.6</ele>
        <time>2022-10-06T08:30:20Z</time>
      </trkpt>
      <trkpt lat="44.78194" lon="-0.15429">
        <ele>64.6</ele>
        <time>2022-10-06T08:30:21Z</time>
      </trkpt>
      <trkpt lat="44.78194" lon="-0.15428">
        <ele>64.6</ele>
        <time>2022-10-06T08:30:22Z</time>
      </trkpt>
      <trkpt lat="44.78195" lon="-0.15427">
        <ele>64.7</ele>
        <time>2022-10-06T08:30:23Z</time>
      </trkpt>
      <trkpt lat="44.78195" lon="-0.15425">
        <ele>64.7</ele>
        <time>2022-10-06T08:30:24Z</time>
      </trkpt>
      <trkpt lat="44.78195" lon="-0.15424">
        <ele>64.7</ele>
        <time>2022-10-06T08:30:25Z</time>
      </trkpt>
      <trkpt lat="44.78196" lon="-0.15421">
        <ele>64.8</ele>
        <time>2022-10-06T08:30:26Z</time>
      </trkpt>
      <trkpt lat="44.78196" lon="-0.1542">
        <ele>64.8</ele>
        <time>2022-10-06T08:30:27Z</time>
      </trkpt>
      <trkpt lat="44.78197" lon="-0.15418">
        <ele>64.9</ele>
        <time>2022-10-06T08:30:28Z</time>
      </trkpt>
      <trkpt lat="44.78197" lon="-0.15417">
        <ele>64.9</ele>
        <time>2022-10-06T08:30:29Z</time>
      </trkpt>
      <trkpt lat="44.78199" lon="-0.15415">
        <ele>65</ele>
        <time>2022-10-06T08:30:30Z</time>
      </trkpt>
      <trkpt lat="44.782" lon="-0.15413">
        <ele>65</ele>
        <time>2022-10-06T08:30:31Z</time>
      </trkpt>
      <trkpt lat="44.782" lon="-0.15412">
        <ele>65.1</ele>
        <time>2022-10-06T08:30:32Z</time>
      </trkpt>
      <trkpt lat="44.78201" lon="-0.1541">
        <ele>65.1</ele>
        <time>2022-10-06T08:30:33Z</time>
      </trkpt>
      <trkpt lat="44.78202" lon="-0.15409">
        <ele>65.2</ele>
        <time>2022-10-06T08:30:34Z</time>
      </trkpt>
      <trkpt lat="44.78203" lon="-0.15407">
        <ele>65.2</ele>
        <time>2022-10-06T08:30:35Z</time>
      </trkpt>
      <trkpt lat="44.78204" lon="-0.15405">
        <ele>65.3</ele>
        <time>2022-10-06T08:30:36Z</time>
      </trkpt>
      <trkpt lat="44.78204" lon="-0.15404">
        <ele>65.3</ele>
        <time>2022-10-06T08:30:37Z</time>
      </trkpt>
      <trkpt lat="44.78205" lon="-0.15403">
        <ele>65.3</ele>
        <time>2022-10-06T08:30:38Z</time>
      </trkpt>
      <trkpt lat="44.78206" lon="-0.15402">
        <ele>65.4</ele>
        <time>2022-10-06T08:30:39Z</time>
      </trkpt>
      <trkpt lat="44.78207" lon="-0.154">
        <ele>65.4</ele>
        <time>2022-10-06T08:30:40Z</time>
      </trkpt>
      <trkpt lat="44.78208" lon="-0.15399">
        <ele>65.4</ele>
        <time>2022-10-06T08:30:41Z</time>
      </trkpt>
      <trkpt lat="44.78208" lon="-0.15398">
        <ele>65.5</ele>
        <time>2022-10-06T08:30:42Z</time>
      </trkpt>
      <trkpt lat="44.78209" lon="-0.15397">
        <ele>65.5</ele>
        <time>2022-10-06T08:30:43Z</time>
      </trkpt>
      <trkpt lat="44.7821" lon="-0.15395">
        <ele>65.6</ele>
        <time>2022-10-06T08:30:44Z</time>
      </trkpt>
      <trkpt lat="44.78211" lon="-0.15392">
        <ele>65.6</ele>
        <time>2022-10-06T08:30:45Z</time>
      </trkpt>
      <trkpt lat="44.78212" lon="-0.15391">
        <ele>65.7</ele>
        <time>2022-10-06T08:30:46Z</time>
      </trkpt>
      <trkpt lat="44.78212" lon="-0.1539">
        <ele>65.7</ele>
        <time>2022-10-06T08:30:47Z</time>
      </trkpt>
      <trkpt lat="44.78213" lon="-0.15389">
        <ele>65.7</ele>
        <time>2022-10-06T08:30:48Z</time>
      </trkpt>
      <trkpt lat="44.78214" lon="-0.15387">
        <ele>65.8</ele>
        <time>2022-10-06T08:30:49Z</time>
      </trkpt>
      <trkpt lat="44.78215" lon="-0.15386">
        <ele>65.8</ele>
        <time>2022-10-06T08:30:50Z</time>
      </trkpt>
      <trkpt lat="44.78215" lon="-0.15384">
        <ele>65.8</ele>
        <time>2022-10-06T08:30:51Z</time>
      </trkpt>
      <trkpt lat="44.78216" lon="-0.15383">
        <ele>65.9</ele>
        <time>2022-10-06T08:30:52Z</time>
      </trkpt>
      <trkpt lat="44.78217" lon="-0.15382">
        <ele>65.9</ele>
        <time>2022-10-06T08:30:53Z</time>
      </trkpt>
      <trkpt lat="44.78217" lon="-0.1538">
        <ele>65.9</ele>
        <time>2022-10-06T08:30:54Z</time>
      </trkpt>
      <trkpt lat="44.78218" lon="-0.15379">
        <ele>66</ele>
        <time>2022-10-06T08:30:55Z</time>
      </trkpt>
      <trkpt lat="44.7822" lon="-0.15376">
        <ele>66.1</ele>
        <time>2022-10-06T08:30:56Z</time>
      </trkpt>
      <trkpt lat="44.7822" lon="-0.15376">
        <ele>66.1</ele>
        <time>2022-10-06T08:30:57Z</time>
      </trkpt>
      <trkpt lat="44.78221" lon="-0.15375">
        <ele>66.1</ele>
        <time>2022-10-06T08:30:58Z</time>
      </trkpt>
      <trkpt lat="44.78222" lon="-0.15374">
        <ele>66.1</ele>
        <time>2022-10-06T08:30:59Z</time>
      </trkpt>
      <trkpt lat="44.78222" lon="-0.15373">
        <ele>66.2</ele>
        <time>2022-10-06T08:31:00Z</time>
      </trkpt>
      <trkpt lat="44.78223" lon="-0.15371">
        <ele>66.2</ele>
        <time>2022-10-06T08:31:01Z</time>
      </trkpt>
      <trkpt lat="44.78224" lon="-0.1537">
        <ele>66.3</ele>
        <time>2022-10-06T08:31:02Z</time>
      </trkpt>
      <trkpt lat="44.78225" lon="-0.15369">
        <ele>66.3</ele>
        <time>2022-10-06T08:31:03Z</time>
      </trkpt>
      <trkpt lat="44.78225" lon="-0.15368">
        <ele>66.3</ele>
        <time>2022-10-06T08:31:04Z</time>
      </trkpt>
      <trkpt lat="44.78226" lon="-0.15366">
        <ele>66.4</ele>
        <time>2022-10-06T08:31:05Z</time>
      </trkpt>
      <trkpt lat="44.78226" lon="-0.15365">
        <ele>66.4</ele>
        <time>2022-10-06T08:31:06Z</time>
      </trkpt>
      <trkpt lat="44.78227" lon="-0.15364">
        <ele>66.4</ele>
        <time>2022-10-06T08:31:07Z</time>
      </trkpt>
      <trkpt lat="44.78227" lon="-0.15362">
        <ele>66.5</ele>
        <time>2022-10-06T08:31:08Z</time>
      </trkpt>
      <trkpt lat="44.78228" lon="-0.15361">
        <ele>66.5</ele>
        <time>2022-10-06T08:31:09Z</time>
      </trkpt>
      <trkpt lat="44.78228" lon="-0.1536">
        <ele>66.5</ele>
        <time>2022-10-06T08:31:10Z</time>
      </trkpt>
      <trkpt lat="44.78229" lon="-0.15358">
        <ele>66.6</ele>
        <time>2022-10-06T08:31:11Z</time>
      </trkpt>
      <trkpt lat="44.78229" lon="-0.15357">
        <ele>66.6</ele>
        <time>2022-10-06T08:31:12Z</time>
      </trkpt>
      <trkpt lat="44.78229" lon="-0.15356">
        <ele>66.6</ele>
        <time>2022-10-06T08:31:13Z</time>
      </trkpt>
      <trkpt lat="44.7823" lon="-0.15355">
        <ele>66.7</ele>
        <time>2022-10-06T08:31:14Z</time>
      </trkpt>
      <trkpt lat="44.7823" lon="-0.15353">
        <ele>66.7</ele>
        <time>2022-10-06T08:31:15Z</time>
      </trkpt>
      <trkpt lat="44.78232" lon="-0.1535">
        <ele>66.8</ele>
        <time>2022-10-06T08:31:16Z</time>
      </trkpt>
      <trkpt lat="44.78232" lon="-0.15349">
        <ele>66.8</ele>
        <time>2022-10-06T08:31:17Z</time>
      </trkpt>
      <trkpt lat="44.78232" lon="-0.15348">
        <ele>66.8</ele>
        <time>2022-10-06T08:31:18Z</time>
      </trkpt>
      <trkpt lat="44.78233" lon="-0.15347">
        <ele>66.9</ele>
        <time>2022-10-06T08:31:19Z</time>
      </trkpt>
      <trkpt lat="44.78233" lon="-0.15345">
        <ele>66.9</ele>
        <time>2022-10-06T08:31:20Z</time>
      </trkpt>
      <trkpt lat="44.78234" lon="-0.15344">
        <ele>67</ele>
        <time>2022-10-06T08:31:21Z</time>
      </trkpt>
      <trkpt lat="44.78234" lon="-0.15343">
        <ele>67</ele>
        <time>2022-10-06T08:31:22Z</time>
      </trkpt>
      <trkpt lat="44.78235" lon="-0.15341">
        <ele>67</ele>
        <time>2022-10-06T08:31:23Z</time>
      </trkpt>
      <trkpt lat="44.78235" lon="-0.1534">
        <ele>67.1</ele>
        <time>2022-10-06T08:31:24Z</time>
      </trkpt>
      <trkpt lat="44.78236" lon="-0.15339">
        <ele>67.1</ele>
        <time>2022-10-06T08:31:25Z</time>
      </trkpt>
      <trkpt lat="44.78236" lon="-0.15338">
        <ele>67.1</ele>
        <time>2022-10-06T08:31:26Z</time>
      </trkpt>
      <trkpt lat="44.78237" lon="-0.15337">
        <ele>67.2</ele>
        <time>2022-10-06T08:31:27Z</time>
      </trkpt>
      <trkpt lat="44.78238" lon="-0.15336">
        <ele>67.2</ele>
        <time>2022-10-06T08:31:28Z</time>
      </trkpt>
      <trkpt lat="44.78239" lon="-0.15334">
        <ele>67.3</ele>
        <time>2022-10-06T08:31:29Z</time>
      </trkpt>
      <trkpt lat="44.7824" lon="-0.15333">
        <ele>67.3</ele>
        <time>2022-10-06T08:31:30Z</time>
      </trkpt>
      <trkpt lat="44.7824" lon="-0.15333">
        <ele>67.3</ele>
        <time>2022-10-06T08:31:31Z</time>
      </trkpt>
      <trkpt lat="44.78241" lon="-0.15331">
        <ele>67.4</ele>
        <time>2022-10-06T08:31:32Z</time>
      </trkpt>
      <trkpt lat="44.78242" lon="-0.1533">
        <ele>67.4</ele>
        <time>2022-10-06T08:31:33Z</time>
      </trkpt>
      <trkpt lat="44.78242" lon="-0.15328">
        <ele>67.5</ele>
        <time>2022-10-06T08:31:34Z</time>
      </trkpt>
      <trkpt lat="44.78243" lon="-0.15327">
        <ele>67.5</ele>
        <time>2022-10-06T08:31:35Z</time>
      </trkpt>
      <trkpt lat="44.78244" lon="-0.15326">
        <ele>67.6</ele>
        <time>2022-10-06T08:31:36Z</time>
      </trkpt>
      <trkpt lat="44.78244" lon="-0.15325">
        <ele>67.6</ele>
        <time>2022-10-06T08:31:37Z</time>
      </trkpt>
      <trkpt lat="44.78245" lon="-0.15322">
        <ele>67.7</ele>
        <time>2022-10-06T08:31:38Z</time>
      </trkpt>
      <trkpt lat="44.78246" lon="-0.15321">
        <ele>67.7</ele>
        <time>2022-10-06T08:31:39Z</time>
      </trkpt>
      <trkpt lat="44.78247" lon="-0.1532">
        <ele>67.7</ele>
        <time>2022-10-06T08:31:40Z</time>
      </trkpt>
      <trkpt lat="44.78247" lon="-0.15319">
        <ele>67.8</ele>
        <time>2022-10-06T08:31:41Z</time>
      </trkpt>
      <trkpt lat="44.78248" lon="-0.15318">
        <ele>67.8</ele>
        <time>2022-10-06T08:31:42Z</time>
      </trkpt>
      <trkpt lat="44.78249" lon="-0.15316">
        <ele>67.9</ele>
        <time>2022-10-06T08:31:43Z</time>
      </trkpt>
      <trkpt lat="44.7825" lon="-0.15314">
        <ele>68</ele>
        <time>2022-10-06T08:31:44Z</time>
      </trkpt>
      <trkpt lat="44.78251" lon="-0.15313">
        <ele>68</ele>
        <time>2022-10-06T08:31:45Z</time>
      </trkpt>
      <trkpt lat="44.78251" lon="-0.15312">
        <ele>68</ele>
        <time>2022-10-06T08:31:46Z</time>
      </trkpt>
      <trkpt lat="44.78252" lon="-0.1531">
        <ele>68.1</ele>
        <time>2022-10-06T08:31:47Z</time>
      </trkpt>
      <trkpt lat="44.78253" lon="-0.15309">
        <ele>68.2</ele>
        <time>2022-10-06T08:31:48Z</time>
      </trkpt>
      <trkpt lat="44.78253" lon="-0.15308">
        <ele>68.2</ele>
        <time>2022-10-06T08:31:49Z</time>
      </trkpt>
      <trkpt lat="44.78254" lon="-0.15307">
        <ele>68.2</ele>
        <time>2022-10-06T08:31:50Z</time>
      </trkpt>
      <trkpt lat="44.78255" lon="-0.15305">
        <ele>68.3</ele>
        <time>2022-10-06T08:31:51Z</time>
      </trkpt>
      <trkpt lat="44.78255" lon="-0.15303">
        <ele>68.4</ele>
        <time>2022-10-06T08:31:52Z</time>
      </trkpt>
      <trkpt lat="44.78256" lon="-0.15301">
        <ele>68.4</ele>
        <time>2022-10-06T08:31:53Z</time>
      </trkpt>
      <trkpt lat="44.78257" lon="-0.153">
        <ele>68.5</ele>
        <time>2022-10-06T08:31:54Z</time>
      </trkpt>
      <trkpt lat="44.78257" lon="-0.15299">
        <ele>68.5</ele>
        <time>2022-10-06T08:31:55Z</time>
      </trkpt>
      <trkpt lat="44.78258" lon="-0.15296">
        <ele>68.6</ele>
        <time>2022-10-06T08:31:56Z</time>
      </trkpt>
      <trkpt lat="44.78259" lon="-0.15295">
        <ele>68.6</ele>
        <time>2022-10-06T08:31:57Z</time>
      </trkpt>
      <trkpt lat="44.78259" lon="-0.15294">
        <ele>68.7</ele>
        <time>2022-10-06T08:31:58Z</time>
      </trkpt>
      <trkpt lat="44.7826" lon="-0.15293">
        <ele>68.7</ele>
        <time>2022-10-06T08:31:59Z</time>
      </trkpt>
      <trkpt lat="44.7826" lon="-0.15291">
        <ele>68.8</ele>
        <time>2022-10-06T08:32:00Z</time>
      </trkpt>
      <trkpt lat="44.78261" lon="-0.1529">
        <ele>68.8</ele>
        <time>2022-10-06T08:32:01Z</time>
      </trkpt>
      <trkpt lat="44.78262" lon="-0.15287">
        <ele>68.9</ele>
        <time>2022-10-06T08:32:02Z</time>
      </trkpt>
      <trkpt lat="44.78262" lon="-0.15286">
        <ele>68.9</ele>
        <time>2022-10-06T08:32:03Z</time>
      </trkpt>
      <trkpt lat="44.78263" lon="-0.15285">
        <ele>69</ele>
        <time>2022-10-06T08:32:04Z</time>
      </trkpt>
      <trkpt lat="44.78264" lon="-0.15283">
        <ele>69.1</ele>
        <time>2022-10-06T08:32:05Z</time>
      </trkpt>
      <trkpt lat="44.78264" lon="-0.15282">
        <ele>69.1</ele>
        <time>2022-10-06T08:32:06Z</time>
      </trkpt>
      <trkpt lat="44.78265" lon="-0.15281">
        <ele>69.1</ele>
        <time>2022-10-06T08:32:07Z</time>
      </trkpt>
      <trkpt lat="44.78265" lon="-0.15278">
        <ele>69.2</ele>
        <time>2022-10-06T08:32:08Z</time>
      </trkpt>
      <trkpt lat="44.78266" lon="-0.15277">
        <ele>69.3</ele>
        <time>2022-10-06T08:32:09Z</time>
      </trkpt>
      <trkpt lat="44.78266" lon="-0.15276">
        <ele>69.3</ele>
        <time>2022-10-06T08:32:10Z</time>
      </trkpt>
      <trkpt lat="44.78266" lon="-0.15274">
        <ele>69.4</ele>
        <time>2022-10-06T08:32:11Z</time>
      </trkpt>
      <trkpt lat="44.78267" lon="-0.15273">
        <ele>69.4</ele>
        <time>2022-10-06T08:32:12Z</time>
      </trkpt>
      <trkpt lat="44.78267" lon="-0.15272">
        <ele>69.5</ele>
        <time>2022-10-06T08:32:13Z</time>
      </trkpt>
      <trkpt lat="44.78268" lon="-0.1527">
        <ele>69.5</ele>
        <time>2022-10-06T08:32:14Z</time>
      </trkpt>
      <trkpt lat="44.78269" lon="-0.15268">
        <ele>69.6</ele>
        <time>2022-10-06T08:32:15Z</time>
      </trkpt>
      <trkpt lat="44.7827" lon="-0.15266">
        <ele>69.7</ele>
        <time>2022-10-06T08:32:17Z</time>
      </trkpt>
      <trkpt lat="44.78271" lon="-0.15264">
        <ele>69.8</ele>
        <time>2022-10-06T08:32:18Z</time>
      </trkpt>
      <trkpt lat="44.78271" lon="-0.15263">
        <ele>69.8</ele>
        <time>2022-10-06T08:32:19Z</time>
      </trkpt>
      <trkpt lat="44.78272" lon="-0.15261">
        <ele>69.9</ele>
        <time>2022-10-06T08:32:20Z</time>
      </trkpt>
      <trkpt lat="44.78272" lon="-0.1526">
        <ele>69.9</ele>
        <time>2022-10-06T08:32:21Z</time>
      </trkpt>
      <trkpt lat="44.78273" lon="-0.15257">
        <ele>70</ele>
        <time>2022-10-06T08:32:22Z</time>
      </trkpt>
      <trkpt lat="44.78273" lon="-0.15256">
        <ele>70</ele>
        <time>2022-10-06T08:32:23Z</time>
      </trkpt>
      <trkpt lat="44.78273" lon="-0.15254">
        <ele>70.1</ele>
        <time>2022-10-06T08:32:24Z</time>
      </trkpt>
      <trkpt lat="44.78274" lon="-0.15253">
        <ele>70.1</ele>
        <time>2022-10-06T08:32:25Z</time>
      </trkpt>
      <trkpt lat="44.78274" lon="-0.15252">
        <ele>70.2</ele>
        <time>2022-10-06T08:32:26Z</time>
      </trkpt>
      <trkpt lat="44.78275" lon="-0.15251">
        <ele>70.2</ele>
        <time>2022-10-06T08:32:27Z</time>
      </trkpt>
      <trkpt lat="44.78275" lon="-0.15248">
        <ele>70.3</ele>
        <time>2022-10-06T08:32:28Z</time>
      </trkpt>
      <trkpt lat="44.78276" lon="-0.15247">
        <ele>70.3</ele>
        <time>2022-10-06T08:32:29Z</time>
      </trkpt>
      <trkpt lat="44.78276" lon="-0.15246">
        <ele>70.4</ele>
        <time>2022-10-06T08:32:30Z</time>
      </trkpt>
      <trkpt lat="44.78277" lon="-0.15243">
        <ele>70.5</ele>
        <time>2022-10-06T08:32:31Z</time>
      </trkpt>
      <trkpt lat="44.78278" lon="-0.15242">
        <ele>70.5</ele>
        <time>2022-10-06T08:32:32Z</time>
      </trkpt>
      <trkpt lat="44.78278" lon="-0.15241">
        <ele>70.6</ele>
        <time>2022-10-06T08:32:33Z</time>
      </trkpt>
      <trkpt lat="44.78278" lon="-0.15239">
        <ele>70.6</ele>
        <time>2022-10-06T08:32:34Z</time>
      </trkpt>
      <trkpt lat="44.78279" lon="-0.15238">
        <ele>70.7</ele>
        <time>2022-10-06T08:32:35Z</time>
      </trkpt>
      <trkpt lat="44.78279" lon="-0.15236">
        <ele>70.7</ele>
        <time>2022-10-06T08:32:36Z</time>
      </trkpt>
      <trkpt lat="44.7828" lon="-0.15233">
        <ele>70.8</ele>
        <time>2022-10-06T08:32:37Z</time>
      </trkpt>
      <trkpt lat="44.78281" lon="-0.15233">
        <ele>70.9</ele>
        <time>2022-10-06T08:32:38Z</time>
      </trkpt>
      <trkpt lat="44.78281" lon="-0.15232">
        <ele>70.9</ele>
        <time>2022-10-06T08:32:39Z</time>
      </trkpt>
      <trkpt lat="44.78282" lon="-0.1523">
        <ele>71</ele>
        <time>2022-10-06T08:32:40Z</time>
      </trkpt>
      <trkpt lat="44.78283" lon="-0.15229">
        <ele>71</ele>
        <time>2022-10-06T08:32:41Z</time>
      </trkpt>
      <trkpt lat="44.78283" lon="-0.15227">
        <ele>71.1</ele>
        <time>2022-10-06T08:32:42Z</time>
      </trkpt>
      <trkpt lat="44.78284" lon="-0.15226">
        <ele>71.1</ele>
        <time>2022-10-06T08:32:43Z</time>
      </trkpt>
      <trkpt lat="44.78284" lon="-0.15224">
        <ele>71.2</ele>
        <time>2022-10-06T08:32:44Z</time>
      </trkpt>
      <trkpt lat="44.78284" lon="-0.15222">
        <ele>71.2</ele>
        <time>2022-10-06T08:32:45Z</time>
      </trkpt>
      <trkpt lat="44.78285" lon="-0.15221">
        <ele>71.3</ele>
        <time>2022-10-06T08:32:46Z</time>
      </trkpt>
      <trkpt lat="44.78285" lon="-0.15219">
        <ele>71.3</ele>
        <time>2022-10-06T08:32:47Z</time>
      </trkpt>
      <trkpt lat="44.78286" lon="-0.15217">
        <ele>71.4</ele>
        <time>2022-10-06T08:32:48Z</time>
      </trkpt>
      <trkpt lat="44.78286" lon="-0.15216">
        <ele>71.5</ele>
        <time>2022-10-06T08:32:49Z</time>
      </trkpt>
      <trkpt lat="44.78286" lon="-0.15214">
        <ele>71.5</ele>
        <time>2022-10-06T08:32:50Z</time>
      </trkpt>
      <trkpt lat="44.78287" lon="-0.15213">
        <ele>71.6</ele>
        <time>2022-10-06T08:32:51Z</time>
      </trkpt>
      <trkpt lat="44.78288" lon="-0.15212">
        <ele>71.6</ele>
        <time>2022-10-06T08:32:52Z</time>
      </trkpt>
      <trkpt lat="44.78288" lon="-0.1521">
        <ele>71.7</ele>
        <time>2022-10-06T08:32:53Z</time>
      </trkpt>
      <trkpt lat="44.7829" lon="-0.15209">
        <ele>71.7</ele>
        <time>2022-10-06T08:32:54Z</time>
      </trkpt>
      <trkpt lat="44.78291" lon="-0.15208">
        <ele>71.8</ele>
        <time>2022-10-06T08:32:55Z</time>
      </trkpt>
      <trkpt lat="44.78291" lon="-0.15207">
        <ele>71.8</ele>
        <time>2022-10-06T08:32:56Z</time>
      </trkpt>
      <trkpt lat="44.78294" lon="-0.15208">
        <ele>71.9</ele>
        <time>2022-10-06T08:32:57Z</time>
      </trkpt>
      <trkpt lat="44.78295" lon="-0.15209">
        <ele>72</ele>
        <time>2022-10-06T08:32:58Z</time>
      </trkpt>
      <trkpt lat="44.78296" lon="-0.15209">
        <ele>72</ele>
        <time>2022-10-06T08:32:59Z</time>
      </trkpt>
      <trkpt lat="44.78297" lon="-0.1521">
        <ele>72.1</ele>
        <time>2022-10-06T08:33:00Z</time>
      </trkpt>
      <trkpt lat="44.78298" lon="-0.1521">
        <ele>72.1</ele>
        <time>2022-10-06T08:33:01Z</time>
      </trkpt>
      <trkpt lat="44.78299" lon="-0.1521">
        <ele>72.2</ele>
        <time>2022-10-06T08:33:02Z</time>
      </trkpt>
      <trkpt lat="44.783" lon="-0.15211">
        <ele>72.2</ele>
        <time>2022-10-06T08:33:03Z</time>
      </trkpt>
      <trkpt lat="44.78301" lon="-0.15212">
        <ele>72.3</ele>
        <time>2022-10-06T08:33:04Z</time>
      </trkpt>
      <trkpt lat="44.78302" lon="-0.15213">
        <ele>72.4</ele>
        <time>2022-10-06T08:33:05Z</time>
      </trkpt>
      <trkpt lat="44.78303" lon="-0.15214">
        <ele>72.4</ele>
        <time>2022-10-06T08:33:06Z</time>
      </trkpt>
      <trkpt lat="44.78304" lon="-0.15215">
        <ele>72.5</ele>
        <time>2022-10-06T08:33:07Z</time>
      </trkpt>
      <trkpt lat="44.78305" lon="-0.15218">
        <ele>72.6</ele>
        <time>2022-10-06T08:33:08Z</time>
      </trkpt>
      <trkpt lat="44.78305" lon="-0.15218">
        <ele>72.6</ele>
        <time>2022-10-06T08:33:09Z</time>
      </trkpt>
      <trkpt lat="44.78305" lon="-0.1522">
        <ele>72.6</ele>
        <time>2022-10-06T08:33:10Z</time>
      </trkpt>
      <trkpt lat="44.78305" lon="-0.15221">
        <ele>72.7</ele>
        <time>2022-10-06T08:33:11Z</time>
      </trkpt>
      <trkpt lat="44.78306" lon="-0.15223">
        <ele>72.7</ele>
        <time>2022-10-06T08:33:12Z</time>
      </trkpt>
      <trkpt lat="44.78306" lon="-0.15224">
        <ele>72.8</ele>
        <time>2022-10-06T08:33:13Z</time>
      </trkpt>
      <trkpt lat="44.78307" lon="-0.15225">
        <ele>72.8</ele>
        <time>2022-10-06T08:33:14Z</time>
      </trkpt>
      <trkpt lat="44.78308" lon="-0.15227">
        <ele>72.9</ele>
        <time>2022-10-06T08:33:15Z</time>
      </trkpt>
      <trkpt lat="44.78308" lon="-0.15228">
        <ele>72.9</ele>
        <time>2022-10-06T08:33:16Z</time>
      </trkpt>
      <trkpt lat="44.78308" lon="-0.1523">
        <ele>73</ele>
        <time>2022-10-06T08:33:17Z</time>
      </trkpt>
      <trkpt lat="44.78309" lon="-0.15231">
        <ele>73.1</ele>
        <time>2022-10-06T08:33:18Z</time>
      </trkpt>
      <trkpt lat="44.7831" lon="-0.15232">
        <ele>73.1</ele>
        <time>2022-10-06T08:33:19Z</time>
      </trkpt>
      <trkpt lat="44.78311" lon="-0.15231">
        <ele>73.2</ele>
        <time>2022-10-06T08:33:20Z</time>
      </trkpt>
      <trkpt lat="44.78311" lon="-0.15229">
        <ele>73.3</ele>
        <time>2022-10-06T08:33:21Z</time>
      </trkpt>
      <trkpt lat="44.7831" lon="-0.15226">
        <ele>73.3</ele>
        <time>2022-10-06T08:33:22Z</time>
      </trkpt>
      <trkpt lat="44.7831" lon="-0.15224">
        <ele>73.4</ele>
        <time>2022-10-06T08:33:23Z</time>
      </trkpt>
      <trkpt lat="44.78309" lon="-0.15222">
        <ele>73.5</ele>
        <time>2022-10-06T08:33:24Z</time>
      </trkpt>
      <trkpt lat="44.78308" lon="-0.15219">
        <ele>73.6</ele>
        <time>2022-10-06T08:33:25Z</time>
      </trkpt>
      <trkpt lat="44.78308" lon="-0.15218">
        <ele>73.6</ele>
        <time>2022-10-06T08:33:26Z</time>
      </trkpt>
      <trkpt lat="44.78308" lon="-0.15217">
        <ele>73.7</ele>
        <time>2022-10-06T08:33:27Z</time>
      </trkpt>
      <trkpt lat="44.78307" lon="-0.15214">
        <ele>73.8</ele>
        <time>2022-10-06T08:33:28Z</time>
      </trkpt>
      <trkpt lat="44.78307" lon="-0.15212">
        <ele>73.8</ele>
        <time>2022-10-06T08:33:29Z</time>
      </trkpt>
      <trkpt lat="44.78307" lon="-0.15211">
        <ele>73.9</ele>
        <time>2022-10-06T08:33:30Z</time>
      </trkpt>
      <trkpt lat="44.78307" lon="-0.15209">
        <ele>74</ele>
        <time>2022-10-06T08:33:31Z</time>
      </trkpt>
      <trkpt lat="44.78308" lon="-0.15207">
        <ele>74</ele>
        <time>2022-10-06T08:33:32Z</time>
      </trkpt>
      <trkpt lat="44.78308" lon="-0.15204">
        <ele>74.2</ele>
        <time>2022-10-06T08:33:33Z</time>
      </trkpt>
      <trkpt lat="44.78307" lon="-0.15203">
        <ele>74.2</ele>
        <time>2022-10-06T08:33:34Z</time>
      </trkpt>
      <trkpt lat="44.78307" lon="-0.15202">
        <ele>74.3</ele>
        <time>2022-10-06T08:33:35Z</time>
      </trkpt>
      <trkpt lat="44.78306" lon="-0.152">
        <ele>74.3</ele>
        <time>2022-10-06T08:33:36Z</time>
      </trkpt>
      <trkpt lat="44.78305" lon="-0.15198">
        <ele>74.4</ele>
        <time>2022-10-06T08:33:37Z</time>
      </trkpt>
      <trkpt lat="44.78304" lon="-0.15196">
        <ele>74.4</ele>
        <time>2022-10-06T08:33:38Z</time>
      </trkpt>
      <trkpt lat="44.78304" lon="-0.15195">
        <ele>74.5</ele>
        <time>2022-10-06T08:33:39Z</time>
      </trkpt>
      <trkpt lat="44.78303" lon="-0.15193">
        <ele>74.5</ele>
        <time>2022-10-06T08:33:40Z</time>
      </trkpt>
      <trkpt lat="44.78302" lon="-0.1519">
        <ele>74.6</ele>
        <time>2022-10-06T08:33:41Z</time>
      </trkpt>
      <trkpt lat="44.78302" lon="-0.15188">
        <ele>74.7</ele>
        <time>2022-10-06T08:33:43Z</time>
      </trkpt>
      <trkpt lat="44.78302" lon="-0.15186">
        <ele>74.7</ele>
        <time>2022-10-06T08:33:44Z</time>
      </trkpt>
      <trkpt lat="44.78301" lon="-0.15185">
        <ele>74.7</ele>
        <time>2022-10-06T08:33:45Z</time>
      </trkpt>
      <trkpt lat="44.78301" lon="-0.15183">
        <ele>74.8</ele>
        <time>2022-10-06T08:33:46Z</time>
      </trkpt>
      <trkpt lat="44.78301" lon="-0.15182">
        <ele>74.8</ele>
        <time>2022-10-06T08:33:47Z</time>
      </trkpt>
      <trkpt lat="44.78301" lon="-0.1518">
        <ele>74.9</ele>
        <time>2022-10-06T08:33:48Z</time>
      </trkpt>
      <trkpt lat="44.78299" lon="-0.15177">
        <ele>74.9</ele>
        <time>2022-10-06T08:33:49Z</time>
      </trkpt>
      <trkpt lat="44.78299" lon="-0.15177">
        <ele>75</ele>
        <time>2022-10-06T08:33:50Z</time>
      </trkpt>
      <trkpt lat="44.78299" lon="-0.15176">
        <ele>75</ele>
        <time>2022-10-06T08:33:51Z</time>
      </trkpt>
      <trkpt lat="44.78298" lon="-0.15173">
        <ele>75.1</ele>
        <time>2022-10-06T08:33:52Z</time>
      </trkpt>
      <trkpt lat="44.78297" lon="-0.15172">
        <ele>75.1</ele>
        <time>2022-10-06T08:33:53Z</time>
      </trkpt>
      <trkpt lat="44.78297" lon="-0.15171">
        <ele>75.1</ele>
        <time>2022-10-06T08:33:54Z</time>
      </trkpt>
      <trkpt lat="44.78296" lon="-0.1517">
        <ele>75.2</ele>
        <time>2022-10-06T08:33:55Z</time>
      </trkpt>
      <trkpt lat="44.78295" lon="-0.15167">
        <ele>75.2</ele>
        <time>2022-10-06T08:33:56Z</time>
      </trkpt>
      <trkpt lat="44.78295" lon="-0.15166">
        <ele>75.2</ele>
        <time>2022-10-06T08:33:57Z</time>
      </trkpt>
      <trkpt lat="44.78295" lon="-0.15164">
        <ele>75.3</ele>
        <time>2022-10-06T08:33:58Z</time>
      </trkpt>
      <trkpt lat="44.78295" lon="-0.15163">
        <ele>75.3</ele>
        <time>2022-10-06T08:33:59Z</time>
      </trkpt>
      <trkpt lat="44.78295" lon="-0.1516">
        <ele>75.4</ele>
        <time>2022-10-06T08:34:00Z</time>
      </trkpt>
      <trkpt lat="44.78295" lon="-0.15158">
        <ele>75.4</ele>
        <time>2022-10-06T08:34:01Z</time>
      </trkpt>
      <trkpt lat="44.78295" lon="-0.15155">
        <ele>75.5</ele>
        <time>2022-10-06T08:34:02Z</time>
      </trkpt>
      <trkpt lat="44.78294" lon="-0.15154">
        <ele>75.5</ele>
        <time>2022-10-06T08:34:03Z</time>
      </trkpt>
      <trkpt lat="44.78294" lon="-0.15153">
        <ele>75.5</ele>
        <time>2022-10-06T08:34:04Z</time>
      </trkpt>
      <trkpt lat="44.78294" lon="-0.15151">
        <ele>75.6</ele>
        <time>2022-10-06T08:34:05Z</time>
      </trkpt>
      <trkpt lat="44.78294" lon="-0.15149">
        <ele>75.6</ele>
        <time>2022-10-06T08:34:06Z</time>
      </trkpt>
      <trkpt lat="44.78293" lon="-0.15148">
        <ele>75.6</ele>
        <time>2022-10-06T08:34:07Z</time>
      </trkpt>
      <trkpt lat="44.78293" lon="-0.15146">
        <ele>75.7</ele>
        <time>2022-10-06T08:34:08Z</time>
      </trkpt>
      <trkpt lat="44.78293" lon="-0.15143">
        <ele>75.7</ele>
        <time>2022-10-06T08:34:09Z</time>
      </trkpt>
      <trkpt lat="44.78292" lon="-0.15142">
        <ele>75.7</ele>
        <time>2022-10-06T08:34:10Z</time>
      </trkpt>
      <trkpt lat="44.78292" lon="-0.15141">
        <ele>75.8</ele>
        <time>2022-10-06T08:34:11Z</time>
      </trkpt>
      <trkpt lat="44.78292" lon="-0.15139">
        <ele>75.8</ele>
        <time>2022-10-06T08:34:12Z</time>
      </trkpt>
      <trkpt lat="44.78291" lon="-0.15138">
        <ele>75.8</ele>
        <time>2022-10-06T08:34:13Z</time>
      </trkpt>
      <trkpt lat="44.78291" lon="-0.15135">
        <ele>75.9</ele>
        <time>2022-10-06T08:34:14Z</time>
      </trkpt>
      <trkpt lat="44.78291" lon="-0.15134">
        <ele>75.9</ele>
        <time>2022-10-06T08:34:15Z</time>
      </trkpt>
      <trkpt lat="44.7829" lon="-0.15132">
        <ele>75.9</ele>
        <time>2022-10-06T08:34:16Z</time>
      </trkpt>
      <trkpt lat="44.7829" lon="-0.15129">
        <ele>76</ele>
        <time>2022-10-06T08:34:17Z</time>
      </trkpt>
      <trkpt lat="44.78289" lon="-0.15128">
        <ele>76</ele>
        <time>2022-10-06T08:34:18Z</time>
      </trkpt>
      <trkpt lat="44.78289" lon="-0.15126">
        <ele>76</ele>
        <time>2022-10-06T08:34:19Z</time>
      </trkpt>
      <trkpt lat="44.78289" lon="-0.15125">
        <ele>76.1</ele>
        <time>2022-10-06T08:34:20Z</time>
      </trkpt>
      <trkpt lat="44.78289" lon="-0.15123">
        <ele>76.1</ele>
        <time>2022-10-06T08:34:21Z</time>
      </trkpt>
      <trkpt lat="44.78289" lon="-0.15121">
        <ele>76.1</ele>
        <time>2022-10-06T08:34:22Z</time>
      </trkpt>
      <trkpt lat="44.78288" lon="-0.1512">
        <ele>76.2</ele>
        <time>2022-10-06T08:34:23Z</time>
      </trkpt>
      <trkpt lat="44.78288" lon="-0.15117">
        <ele>76.2</ele>
        <time>2022-10-06T08:34:24Z</time>
      </trkpt>
      <trkpt lat="44.78288" lon="-0.15116">
        <ele>76.2</ele>
        <time>2022-10-06T08:34:25Z</time>
      </trkpt>
      <trkpt lat="44.78288" lon="-0.15115">
        <ele>76.2</ele>
        <time>2022-10-06T08:34:26Z</time>
      </trkpt>
      <trkpt lat="44.78288" lon="-0.15113">
        <ele>76.3</ele>
        <time>2022-10-06T08:34:27Z</time>
      </trkpt>
      <trkpt lat="44.78288" lon="-0.15111">
        <ele>76.3</ele>
        <time>2022-10-06T08:34:28Z</time>
      </trkpt>
      <trkpt lat="44.78287" lon="-0.15109">
        <ele>76.3</ele>
        <time>2022-10-06T08:34:29Z</time>
      </trkpt>
      <trkpt lat="44.78287" lon="-0.15106">
        <ele>76.4</ele>
        <time>2022-10-06T08:34:30Z</time>
      </trkpt>
      <trkpt lat="44.78287" lon="-0.15105">
        <ele>76.4</ele>
        <time>2022-10-06T08:34:31Z</time>
      </trkpt>
      <trkpt lat="44.78287" lon="-0.15104">
        <ele>76.4</ele>
        <time>2022-10-06T08:34:32Z</time>
      </trkpt>
      <trkpt lat="44.78286" lon="-0.15102">
        <ele>76.5</ele>
        <time>2022-10-06T08:34:33Z</time>
      </trkpt>
      <trkpt lat="44.78285" lon="-0.15099">
        <ele>76.5</ele>
        <time>2022-10-06T08:34:34Z</time>
      </trkpt>
      <trkpt lat="44.78285" lon="-0.15098">
        <ele>76.5</ele>
        <time>2022-10-06T08:34:35Z</time>
      </trkpt>
      <trkpt lat="44.78285" lon="-0.15096">
        <ele>76.6</ele>
        <time>2022-10-06T08:34:36Z</time>
      </trkpt>
      <trkpt lat="44.78285" lon="-0.15095">
        <ele>76.6</ele>
        <time>2022-10-06T08:34:37Z</time>
      </trkpt>
      <trkpt lat="44.78284" lon="-0.15094">
        <ele>76.6</ele>
        <time>2022-10-06T08:34:38Z</time>
      </trkpt>
      <trkpt lat="44.78283" lon="-0.15092">
        <ele>76.6</ele>
        <time>2022-10-06T08:34:39Z</time>
      </trkpt>
      <trkpt lat="44.78282" lon="-0.15091">
        <ele>76.6</ele>
        <time>2022-10-06T08:34:40Z</time>
      </trkpt>
      <trkpt lat="44.78281" lon="-0.15089">
        <ele>76.7</ele>
        <time>2022-10-06T08:34:41Z</time>
      </trkpt>
      <trkpt lat="44.7828" lon="-0.15088">
        <ele>76.7</ele>
        <time>2022-10-06T08:34:43Z</time>
      </trkpt>
      <trkpt lat="44.78278" lon="-0.15086">
        <ele>76.8</ele>
        <time>2022-10-06T08:34:44Z</time>
      </trkpt>
      <trkpt lat="44.78278" lon="-0.15086">
        <ele>76.8</ele>
        <time>2022-10-06T08:34:45Z</time>
      </trkpt>
      <trkpt lat="44.78277" lon="-0.15085">
        <ele>76.8</ele>
        <time>2022-10-06T08:34:46Z</time>
      </trkpt>
      <trkpt lat="44.78275" lon="-0.15084">
        <ele>76.8</ele>
        <time>2022-10-06T08:34:47Z</time>
      </trkpt>
      <trkpt lat="44.78274" lon="-0.15084">
        <ele>76.8</ele>
        <time>2022-10-06T08:34:48Z</time>
      </trkpt>
      <trkpt lat="44.78273" lon="-0.15084">
        <ele>76.9</ele>
        <time>2022-10-06T08:34:49Z</time>
      </trkpt>
      <trkpt lat="44.78272" lon="-0.15083">
        <ele>76.9</ele>
        <time>2022-10-06T08:34:50Z</time>
      </trkpt>
      <trkpt lat="44.78272" lon="-0.15081">
        <ele>76.9</ele>
        <time>2022-10-06T08:34:51Z</time>
      </trkpt>
      <trkpt lat="44.78271" lon="-0.1508">
        <ele>76.9</ele>
        <time>2022-10-06T08:34:52Z</time>
      </trkpt>
      <trkpt lat="44.78271" lon="-0.15077">
        <ele>77</ele>
        <time>2022-10-06T08:34:53Z</time>
      </trkpt>
      <trkpt lat="44.7827" lon="-0.15076">
        <ele>77</ele>
        <time>2022-10-06T08:34:54Z</time>
      </trkpt>
      <trkpt lat="44.7827" lon="-0.15075">
        <ele>77</ele>
        <time>2022-10-06T08:34:55Z</time>
      </trkpt>
      <trkpt lat="44.7827" lon="-0.15071">
        <ele>77</ele>
        <time>2022-10-06T08:34:56Z</time>
      </trkpt>
      <trkpt lat="44.7827" lon="-0.1507">
        <ele>77</ele>
        <time>2022-10-06T08:34:57Z</time>
      </trkpt>
      <trkpt lat="44.7827" lon="-0.15069">
        <ele>77</ele>
        <time>2022-10-06T08:34:58Z</time>
      </trkpt>
      <trkpt lat="44.78269" lon="-0.15067">
        <ele>77.1</ele>
        <time>2022-10-06T08:34:59Z</time>
      </trkpt>
      <trkpt lat="44.78269" lon="-0.15066">
        <ele>77.1</ele>
        <time>2022-10-06T08:35:00Z</time>
      </trkpt>
      <trkpt lat="44.78269" lon="-0.15064">
        <ele>77.1</ele>
        <time>2022-10-06T08:35:01Z</time>
      </trkpt>
      <trkpt lat="44.78269" lon="-0.15063">
        <ele>77.1</ele>
        <time>2022-10-06T08:35:02Z</time>
      </trkpt>
      <trkpt lat="44.78269" lon="-0.15061">
        <ele>77.1</ele>
        <time>2022-10-06T08:35:03Z</time>
      </trkpt>
      <trkpt lat="44.78268" lon="-0.15059">
        <ele>77.2</ele>
        <time>2022-10-06T08:35:04Z</time>
      </trkpt>
      <trkpt lat="44.78268" lon="-0.15058">
        <ele>77.2</ele>
        <time>2022-10-06T08:35:05Z</time>
      </trkpt>
      <trkpt lat="44.78268" lon="-0.15057">
        <ele>77.2</ele>
        <time>2022-10-06T08:35:06Z</time>
      </trkpt>
      <trkpt lat="44.78268" lon="-0.15055">
        <ele>77.2</ele>
        <time>2022-10-06T08:35:07Z</time>
      </trkpt>
      <trkpt lat="44.78267" lon="-0.15053">
        <ele>77.3</ele>
        <time>2022-10-06T08:35:08Z</time>
      </trkpt>
      <trkpt lat="44.78267" lon="-0.15051">
        <ele>77.3</ele>
        <time>2022-10-06T08:35:09Z</time>
      </trkpt>
      <trkpt lat="44.78267" lon="-0.1505">
        <ele>77.3</ele>
        <time>2022-10-06T08:35:10Z</time>
      </trkpt>
      <trkpt lat="44.78266" lon="-0.15049">
        <ele>77.3</ele>
        <time>2022-10-06T08:35:11Z</time>
      </trkpt>
      <trkpt lat="44.78266" lon="-0.15047">
        <ele>77.4</ele>
        <time>2022-10-06T08:35:12Z</time>
      </trkpt>
      <trkpt lat="44.78266" lon="-0.15045">
        <ele>77.4</ele>
        <time>2022-10-06T08:35:13Z</time>
      </trkpt>
      <trkpt lat="44.78265" lon="-0.15043">
        <ele>77.4</ele>
        <time>2022-10-06T08:35:14Z</time>
      </trkpt>
      <trkpt lat="44.78265" lon="-0.15042">
        <ele>77.4</ele>
        <time>2022-10-06T08:35:15Z</time>
      </trkpt>
      <trkpt lat="44.78265" lon="-0.15041">
        <ele>77.5</ele>
        <time>2022-10-06T08:35:16Z</time>
      </trkpt>
      <trkpt lat="44.78264" lon="-0.15039">
        <ele>77.5</ele>
        <time>2022-10-06T08:35:17Z</time>
      </trkpt>
      <trkpt lat="44.78264" lon="-0.15038">
        <ele>77.5</ele>
        <time>2022-10-06T08:35:18Z</time>
      </trkpt>
      <trkpt lat="44.78263" lon="-0.15035">
        <ele>77.5</ele>
        <time>2022-10-06T08:35:19Z</time>
      </trkpt>
      <trkpt lat="44.78263" lon="-0.15034">
        <ele>77.6</ele>
        <time>2022-10-06T08:35:20Z</time>
      </trkpt>
      <trkpt lat="44.78263" lon="-0.15033">
        <ele>77.6</ele>
        <time>2022-10-06T08:35:21Z</time>
      </trkpt>
      <trkpt lat="44.78262" lon="-0.15031">
        <ele>77.6</ele>
        <time>2022-10-06T08:35:22Z</time>
      </trkpt>
      <trkpt lat="44.78262" lon="-0.15029">
        <ele>77.6</ele>
        <time>2022-10-06T08:35:23Z</time>
      </trkpt>
      <trkpt lat="44.78262" lon="-0.15026">
        <ele>77.7</ele>
        <time>2022-10-06T08:35:24Z</time>
      </trkpt>
      <trkpt lat="44.78262" lon="-0.15025">
        <ele>77.7</ele>
        <time>2022-10-06T08:35:25Z</time>
      </trkpt>
      <trkpt lat="44.78262" lon="-0.15024">
        <ele>77.7</ele>
        <time>2022-10-06T08:35:26Z</time>
      </trkpt>
      <trkpt lat="44.78261" lon="-0.15021">
        <ele>77.8</ele>
        <time>2022-10-06T08:35:27Z</time>
      </trkpt>
      <trkpt lat="44.78261" lon="-0.1502">
        <ele>77.8</ele>
        <time>2022-10-06T08:35:28Z</time>
      </trkpt>
      <trkpt lat="44.7826" lon="-0.15019">
        <ele>77.8</ele>
        <time>2022-10-06T08:35:29Z</time>
      </trkpt>
      <trkpt lat="44.7826" lon="-0.15018">
        <ele>77.8</ele>
        <time>2022-10-06T08:35:30Z</time>
      </trkpt>
      <trkpt lat="44.78259" lon="-0.15016">
        <ele>77.8</ele>
        <time>2022-10-06T08:35:31Z</time>
      </trkpt>
      <trkpt lat="44.78259" lon="-0.15014">
        <ele>77.8</ele>
        <time>2022-10-06T08:35:32Z</time>
      </trkpt>
      <trkpt lat="44.78259" lon="-0.15013">
        <ele>77.9</ele>
        <time>2022-10-06T08:35:33Z</time>
      </trkpt>
      <trkpt lat="44.78258" lon="-0.1501">
        <ele>77.9</ele>
        <time>2022-10-06T08:35:34Z</time>
      </trkpt>
      <trkpt lat="44.78258" lon="-0.15009">
        <ele>77.9</ele>
        <time>2022-10-06T08:35:35Z</time>
      </trkpt>
      <trkpt lat="44.78258" lon="-0.15008">
        <ele>77.9</ele>
        <time>2022-10-06T08:35:36Z</time>
      </trkpt>
      <trkpt lat="44.78258" lon="-0.15006">
        <ele>77.9</ele>
        <time>2022-10-06T08:35:37Z</time>
      </trkpt>
      <trkpt lat="44.78258" lon="-0.15004">
        <ele>78</ele>
        <time>2022-10-06T08:35:38Z</time>
      </trkpt>
      <trkpt lat="44.78257" lon="-0.15002">
        <ele>78</ele>
        <time>2022-10-06T08:35:39Z</time>
      </trkpt>
      <trkpt lat="44.78257" lon="-0.15">
        <ele>78</ele>
        <time>2022-10-06T08:35:40Z</time>
      </trkpt>
      <trkpt lat="44.78256" lon="-0.14999">
        <ele>78</ele>
        <time>2022-10-06T08:35:41Z</time>
      </trkpt>
      <trkpt lat="44.78256" lon="-0.14997">
        <ele>78</ele>
        <time>2022-10-06T08:35:42Z</time>
      </trkpt>
      <trkpt lat="44.78256" lon="-0.14996">
        <ele>78</ele>
        <time>2022-10-06T08:35:43Z</time>
      </trkpt>
      <trkpt lat="44.78255" lon="-0.14993">
        <ele>78.1</ele>
        <time>2022-10-06T08:35:44Z</time>
      </trkpt>
      <trkpt lat="44.78255" lon="-0.14991">
        <ele>78.1</ele>
        <time>2022-10-06T08:35:45Z</time>
      </trkpt>
      <trkpt lat="44.78255" lon="-0.1499">
        <ele>78.1</ele>
        <time>2022-10-06T08:35:46Z</time>
      </trkpt>
      <trkpt lat="44.78254" lon="-0.14989">
        <ele>78.1</ele>
        <time>2022-10-06T08:35:47Z</time>
      </trkpt>
      <trkpt lat="44.78254" lon="-0.14988">
        <ele>78.1</ele>
        <time>2022-10-06T08:35:48Z</time>
      </trkpt>
      <trkpt lat="44.78254" lon="-0.14986">
        <ele>78.1</ele>
        <time>2022-10-06T08:35:49Z</time>
      </trkpt>
      <trkpt lat="44.78254" lon="-0.14984">
        <ele>78.1</ele>
        <time>2022-10-06T08:35:50Z</time>
      </trkpt>
      <trkpt lat="44.78253" lon="-0.14981">
        <ele>78.2</ele>
        <time>2022-10-06T08:35:51Z</time>
      </trkpt>
      <trkpt lat="44.78253" lon="-0.1498">
        <ele>78.2</ele>
        <time>2022-10-06T08:35:52Z</time>
      </trkpt>
      <trkpt lat="44.78253" lon="-0.14979">
        <ele>78.2</ele>
        <time>2022-10-06T08:35:53Z</time>
      </trkpt>
      <trkpt lat="44.78252" lon="-0.14976">
        <ele>78.2</ele>
        <time>2022-10-06T08:35:54Z</time>
      </trkpt>
      <trkpt lat="44.78252" lon="-0.14975">
        <ele>78.2</ele>
        <time>2022-10-06T08:35:55Z</time>
      </trkpt>
      <trkpt lat="44.78251" lon="-0.14974">
        <ele>78.2</ele>
        <time>2022-10-06T08:35:56Z</time>
      </trkpt>
      <trkpt lat="44.78251" lon="-0.14973">
        <ele>78.2</ele>
        <time>2022-10-06T08:35:57Z</time>
      </trkpt>
      <trkpt lat="44.78251" lon="-0.14971">
        <ele>78.2</ele>
        <time>2022-10-06T08:35:58Z</time>
      </trkpt>
      <trkpt lat="44.78251" lon="-0.14969">
        <ele>78.2</ele>
        <time>2022-10-06T08:35:59Z</time>
      </trkpt>
      <trkpt lat="44.78251" lon="-0.14968">
        <ele>78.2</ele>
        <time>2022-10-06T08:36:00Z</time>
      </trkpt>
      <trkpt lat="44.78251" lon="-0.14966">
        <ele>78.2</ele>
        <time>2022-10-06T08:36:01Z</time>
      </trkpt>
      <trkpt lat="44.7825" lon="-0.14963">
        <ele>78.2</ele>
        <time>2022-10-06T08:36:02Z</time>
      </trkpt>
      <trkpt lat="44.7825" lon="-0.14962">
        <ele>78.2</ele>
        <time>2022-10-06T08:36:03Z</time>
      </trkpt>
      <trkpt lat="44.7825" lon="-0.1496">
        <ele>78.2</ele>
        <time>2022-10-06T08:36:04Z</time>
      </trkpt>
      <trkpt lat="44.7825" lon="-0.1496">
        <ele>78.2</ele>
        <time>2022-10-06T08:36:05Z</time>
      </trkpt>
      <trkpt lat="44.78249" lon="-0.14958">
        <ele>78.2</ele>
        <time>2022-10-06T08:36:06Z</time>
      </trkpt>
      <trkpt lat="44.78249" lon="-0.14957">
        <ele>78.2</ele>
        <time>2022-10-06T08:36:07Z</time>
      </trkpt>
      <trkpt lat="44.78248" lon="-0.14953">
        <ele>78.2</ele>
        <time>2022-10-06T08:36:08Z</time>
      </trkpt>
      <trkpt lat="44.78248" lon="-0.14951">
        <ele>78.2</ele>
        <time>2022-10-06T08:36:09Z</time>
      </trkpt>
      <trkpt lat="44.78248" lon="-0.1495">
        <ele>78.2</ele>
        <time>2022-10-06T08:36:10Z</time>
      </trkpt>
      <trkpt lat="44.78247" lon="-0.14949">
        <ele>78.2</ele>
        <time>2022-10-06T08:36:11Z</time>
      </trkpt>
      <trkpt lat="44.78247" lon="-0.14947">
        <ele>78.2</ele>
        <time>2022-10-06T08:36:12Z</time>
      </trkpt>
      <trkpt lat="44.78247" lon="-0.14943">
        <ele>78.2</ele>
        <time>2022-10-06T08:36:13Z</time>
      </trkpt>
      <trkpt lat="44.78246" lon="-0.14941">
        <ele>78.1</ele>
        <time>2022-10-06T08:36:14Z</time>
      </trkpt>
      <trkpt lat="44.78246" lon="-0.1494">
        <ele>78.1</ele>
        <time>2022-10-06T08:36:15Z</time>
      </trkpt>
      <trkpt lat="44.78246" lon="-0.14939">
        <ele>78.1</ele>
        <time>2022-10-06T08:36:16Z</time>
      </trkpt>
      <trkpt lat="44.78245" lon="-0.14935">
        <ele>78.1</ele>
        <time>2022-10-06T08:36:17Z</time>
      </trkpt>
      <trkpt lat="44.78245" lon="-0.14932">
        <ele>78.1</ele>
        <time>2022-10-06T08:36:19Z</time>
      </trkpt>
      <trkpt lat="44.78245" lon="-0.1493">
        <ele>78.1</ele>
        <time>2022-10-06T08:36:21Z</time>
      </trkpt>
      <trkpt lat="44.78245" lon="-0.14928">
        <ele>78.1</ele>
        <time>2022-10-06T08:36:22Z</time>
      </trkpt>
      <trkpt lat="44.78245" lon="-0.14927">
        <ele>78.1</ele>
        <time>2022-10-06T08:36:23Z</time>
      </trkpt>
      <trkpt lat="44.78245" lon="-0.14924">
        <ele>78.1</ele>
        <time>2022-10-06T08:36:24Z</time>
      </trkpt>
      <trkpt lat="44.78244" lon="-0.14922">
        <ele>78.1</ele>
        <time>2022-10-06T08:36:25Z</time>
      </trkpt>
      <trkpt lat="44.78244" lon="-0.14921">
        <ele>78.1</ele>
        <time>2022-10-06T08:36:26Z</time>
      </trkpt>
      <trkpt lat="44.78244" lon="-0.14919">
        <ele>78.1</ele>
        <time>2022-10-06T08:36:27Z</time>
      </trkpt>
      <trkpt lat="44.78244" lon="-0.14918">
        <ele>78.1</ele>
        <time>2022-10-06T08:36:28Z</time>
      </trkpt>
      <trkpt lat="44.78244" lon="-0.14915">
        <ele>78</ele>
        <time>2022-10-06T08:36:29Z</time>
      </trkpt>
      <trkpt lat="44.78243" lon="-0.14914">
        <ele>78</ele>
        <time>2022-10-06T08:36:30Z</time>
      </trkpt>
      <trkpt lat="44.78243" lon="-0.14913">
        <ele>78</ele>
        <time>2022-10-06T08:36:31Z</time>
      </trkpt>
      <trkpt lat="44.78243" lon="-0.14911">
        <ele>78</ele>
        <time>2022-10-06T08:36:32Z</time>
      </trkpt>
      <trkpt lat="44.78243" lon="-0.14909">
        <ele>78</ele>
        <time>2022-10-06T08:36:33Z</time>
      </trkpt>
      <trkpt lat="44.78243" lon="-0.14907">
        <ele>78</ele>
        <time>2022-10-06T08:36:34Z</time>
      </trkpt>
      <trkpt lat="44.78243" lon="-0.14905">
        <ele>78</ele>
        <time>2022-10-06T08:36:35Z</time>
      </trkpt>
      <trkpt lat="44.78243" lon="-0.14902">
        <ele>78</ele>
        <time>2022-10-06T08:36:36Z</time>
      </trkpt>
      <trkpt lat="44.78243" lon="-0.14901">
        <ele>78</ele>
        <time>2022-10-06T08:36:37Z</time>
      </trkpt>
      <trkpt lat="44.78243" lon="-0.149">
        <ele>78</ele>
        <time>2022-10-06T08:36:38Z</time>
      </trkpt>
      <trkpt lat="44.78243" lon="-0.14897">
        <ele>78</ele>
        <time>2022-10-06T08:36:39Z</time>
      </trkpt>
      <trkpt lat="44.78242" lon="-0.14895">
        <ele>78</ele>
        <time>2022-10-06T08:36:40Z</time>
      </trkpt>
      <trkpt lat="44.78242" lon="-0.14892">
        <ele>77.9</ele>
        <time>2022-10-06T08:36:41Z</time>
      </trkpt>
      <trkpt lat="44.78242" lon="-0.1489">
        <ele>77.9</ele>
        <time>2022-10-06T08:36:42Z</time>
      </trkpt>
      <trkpt lat="44.78241" lon="-0.14888">
        <ele>77.9</ele>
        <time>2022-10-06T08:36:44Z</time>
      </trkpt>
      <trkpt lat="44.78241" lon="-0.14887">
        <ele>77.9</ele>
        <time>2022-10-06T08:36:45Z</time>
      </trkpt>
      <trkpt lat="44.78241" lon="-0.14885">
        <ele>77.9</ele>
        <time>2022-10-06T08:36:46Z</time>
      </trkpt>
      <trkpt lat="44.78241" lon="-0.14883">
        <ele>77.9</ele>
        <time>2022-10-06T08:36:47Z</time>
      </trkpt>
      <trkpt lat="44.78241" lon="-0.14882">
        <ele>77.9</ele>
        <time>2022-10-06T08:36:48Z</time>
      </trkpt>
      <trkpt lat="44.78241" lon="-0.14878">
        <ele>77.9</ele>
        <time>2022-10-06T08:36:49Z</time>
      </trkpt>
      <trkpt lat="44.78241" lon="-0.14877">
        <ele>77.9</ele>
        <time>2022-10-06T08:36:50Z</time>
      </trkpt>
      <trkpt lat="44.78241" lon="-0.14877">
        <ele>77.9</ele>
        <time>2022-10-06T08:36:51Z</time>
      </trkpt>
      <trkpt lat="44.78241" lon="-0.14873">
        <ele>77.8</ele>
        <time>2022-10-06T08:36:52Z</time>
      </trkpt>
      <trkpt lat="44.7824" lon="-0.14872">
        <ele>77.8</ele>
        <time>2022-10-06T08:36:53Z</time>
      </trkpt>
      <trkpt lat="44.7824" lon="-0.1487">
        <ele>77.8</ele>
        <time>2022-10-06T08:36:54Z</time>
      </trkpt>
      <trkpt lat="44.7824" lon="-0.14869">
        <ele>77.8</ele>
        <time>2022-10-06T08:36:55Z</time>
      </trkpt>
      <trkpt lat="44.7824" lon="-0.14867">
        <ele>77.8</ele>
        <time>2022-10-06T08:36:56Z</time>
      </trkpt>
      <trkpt lat="44.7824" lon="-0.14866">
        <ele>77.8</ele>
        <time>2022-10-06T08:36:57Z</time>
      </trkpt>
      <trkpt lat="44.78239" lon="-0.14862">
        <ele>77.8</ele>
        <time>2022-10-06T08:36:58Z</time>
      </trkpt>
      <trkpt lat="44.78239" lon="-0.14861">
        <ele>77.8</ele>
        <time>2022-10-06T08:36:59Z</time>
      </trkpt>
      <trkpt lat="44.78239" lon="-0.14859">
        <ele>77.7</ele>
        <time>2022-10-06T08:37:00Z</time>
      </trkpt>
      <trkpt lat="44.78239" lon="-0.14858">
        <ele>77.7</ele>
        <time>2022-10-06T08:37:01Z</time>
      </trkpt>
      <trkpt lat="44.78239" lon="-0.14857">
        <ele>77.7</ele>
        <time>2022-10-06T08:37:02Z</time>
      </trkpt>
      <trkpt lat="44.78238" lon="-0.14855">
        <ele>77.7</ele>
        <time>2022-10-06T08:37:03Z</time>
      </trkpt>
      <trkpt lat="44.78238" lon="-0.14854">
        <ele>77.7</ele>
        <time>2022-10-06T08:37:04Z</time>
      </trkpt>
      <trkpt lat="44.78238" lon="-0.14852">
        <ele>77.7</ele>
        <time>2022-10-06T08:37:05Z</time>
      </trkpt>
      <trkpt lat="44.78238" lon="-0.14851">
        <ele>77.7</ele>
        <time>2022-10-06T08:37:06Z</time>
      </trkpt>
      <trkpt lat="44.78237" lon="-0.14849">
        <ele>77.7</ele>
        <time>2022-10-06T08:37:07Z</time>
      </trkpt>
      <trkpt lat="44.78237" lon="-0.14848">
        <ele>77.7</ele>
        <time>2022-10-06T08:37:08Z</time>
      </trkpt>
      <trkpt lat="44.78236" lon="-0.14846">
        <ele>77.7</ele>
        <time>2022-10-06T08:37:09Z</time>
      </trkpt>
      <trkpt lat="44.78236" lon="-0.14844">
        <ele>77.6</ele>
        <time>2022-10-06T08:37:10Z</time>
      </trkpt>
      <trkpt lat="44.78236" lon="-0.14843">
        <ele>77.6</ele>
        <time>2022-10-06T08:37:11Z</time>
      </trkpt>
      <trkpt lat="44.78235" lon="-0.14841">
        <ele>77.6</ele>
        <time>2022-10-06T08:37:12Z</time>
      </trkpt>
      <trkpt lat="44.78235" lon="-0.1484">
        <ele>77.6</ele>
        <time>2022-10-06T08:37:13Z</time>
      </trkpt>
      <trkpt lat="44.78235" lon="-0.14838">
        <ele>77.6</ele>
        <time>2022-10-06T08:37:14Z</time>
      </trkpt>
      <trkpt lat="44.78235" lon="-0.14837">
        <ele>77.6</ele>
        <time>2022-10-06T08:37:15Z</time>
      </trkpt>
      <trkpt lat="44.78235" lon="-0.14835">
        <ele>77.6</ele>
        <time>2022-10-06T08:37:16Z</time>
      </trkpt>
      <trkpt lat="44.78235" lon="-0.14834">
        <ele>77.6</ele>
        <time>2022-10-06T08:37:17Z</time>
      </trkpt>
      <trkpt lat="44.78234" lon="-0.14832">
        <ele>77.6</ele>
        <time>2022-10-06T08:37:18Z</time>
      </trkpt>
      <trkpt lat="44.78234" lon="-0.1483">
        <ele>77.6</ele>
        <time>2022-10-06T08:37:19Z</time>
      </trkpt>
      <trkpt lat="44.78234" lon="-0.14828">
        <ele>77.5</ele>
        <time>2022-10-06T08:37:20Z</time>
      </trkpt>
      <trkpt lat="44.78233" lon="-0.14826">
        <ele>77.5</ele>
        <time>2022-10-06T08:37:21Z</time>
      </trkpt>
      <trkpt lat="44.78233" lon="-0.14825">
        <ele>77.5</ele>
        <time>2022-10-06T08:37:22Z</time>
      </trkpt>
      <trkpt lat="44.78232" lon="-0.14823">
        <ele>77.5</ele>
        <time>2022-10-06T08:37:23Z</time>
      </trkpt>
      <trkpt lat="44.78232" lon="-0.14822">
        <ele>77.5</ele>
        <time>2022-10-06T08:37:24Z</time>
      </trkpt>
      <trkpt lat="44.78231" lon="-0.14819">
        <ele>77.5</ele>
        <time>2022-10-06T08:37:25Z</time>
      </trkpt>
      <trkpt lat="44.78231" lon="-0.14817">
        <ele>77.5</ele>
        <time>2022-10-06T08:37:26Z</time>
      </trkpt>
      <trkpt lat="44.78231" lon="-0.14816">
        <ele>77.5</ele>
        <time>2022-10-06T08:37:27Z</time>
      </trkpt>
      <trkpt lat="44.78231" lon="-0.14814">
        <ele>77.5</ele>
        <time>2022-10-06T08:37:28Z</time>
      </trkpt>
      <trkpt lat="44.7823" lon="-0.14812">
        <ele>77.4</ele>
        <time>2022-10-06T08:37:29Z</time>
      </trkpt>
      <trkpt lat="44.78229" lon="-0.1481">
        <ele>77.4</ele>
        <time>2022-10-06T08:37:30Z</time>
      </trkpt>
      <trkpt lat="44.78229" lon="-0.14809">
        <ele>77.4</ele>
        <time>2022-10-06T08:37:31Z</time>
      </trkpt>
      <trkpt lat="44.78229" lon="-0.14808">
        <ele>77.4</ele>
        <time>2022-10-06T08:37:32Z</time>
      </trkpt>
      <trkpt lat="44.78228" lon="-0.14806">
        <ele>77.4</ele>
        <time>2022-10-06T08:37:33Z</time>
      </trkpt>
      <trkpt lat="44.78228" lon="-0.14805">
        <ele>77.4</ele>
        <time>2022-10-06T08:37:34Z</time>
      </trkpt>
      <trkpt lat="44.78228" lon="-0.14803">
        <ele>77.4</ele>
        <time>2022-10-06T08:37:35Z</time>
      </trkpt>
      <trkpt lat="44.78227" lon="-0.14802">
        <ele>77.4</ele>
        <time>2022-10-06T08:37:36Z</time>
      </trkpt>
      <trkpt lat="44.78227" lon="-0.148">
        <ele>77.4</ele>
        <time>2022-10-06T08:37:37Z</time>
      </trkpt>
      <trkpt lat="44.78227" lon="-0.14799">
        <ele>77.4</ele>
        <time>2022-10-06T08:37:38Z</time>
      </trkpt>
      <trkpt lat="44.78226" lon="-0.14798">
        <ele>77.3</ele>
        <time>2022-10-06T08:37:39Z</time>
      </trkpt>
      <trkpt lat="44.78226" lon="-0.14795">
        <ele>77.3</ele>
        <time>2022-10-06T08:37:40Z</time>
      </trkpt>
      <trkpt lat="44.78226" lon="-0.14793">
        <ele>77.3</ele>
        <time>2022-10-06T08:37:41Z</time>
      </trkpt>
      <trkpt lat="44.78225" lon="-0.14792">
        <ele>77.3</ele>
        <time>2022-10-06T08:37:42Z</time>
      </trkpt>
      <trkpt lat="44.78225" lon="-0.14791">
        <ele>77.3</ele>
        <time>2022-10-06T08:37:43Z</time>
      </trkpt>
      <trkpt lat="44.78225" lon="-0.14789">
        <ele>77.3</ele>
        <time>2022-10-06T08:37:44Z</time>
      </trkpt>
      <trkpt lat="44.78224" lon="-0.14786">
        <ele>77.3</ele>
        <time>2022-10-06T08:37:45Z</time>
      </trkpt>
      <trkpt lat="44.78224" lon="-0.14785">
        <ele>77.3</ele>
        <time>2022-10-06T08:37:46Z</time>
      </trkpt>
      <trkpt lat="44.78223" lon="-0.14785">
        <ele>77.3</ele>
        <time>2022-10-06T08:37:47Z</time>
      </trkpt>
      <trkpt lat="44.78223" lon="-0.14782">
        <ele>77.2</ele>
        <time>2022-10-06T08:37:48Z</time>
      </trkpt>
      <trkpt lat="44.78222" lon="-0.14781">
        <ele>77.2</ele>
        <time>2022-10-06T08:37:49Z</time>
      </trkpt>
      <trkpt lat="44.78222" lon="-0.1478">
        <ele>77.2</ele>
        <time>2022-10-06T08:37:50Z</time>
      </trkpt>
      <trkpt lat="44.78222" lon="-0.14778">
        <ele>77.2</ele>
        <time>2022-10-06T08:37:51Z</time>
      </trkpt>
      <trkpt lat="44.78222" lon="-0.14777">
        <ele>77.2</ele>
        <time>2022-10-06T08:37:52Z</time>
      </trkpt>
      <trkpt lat="44.78221" lon="-0.14775">
        <ele>77.2</ele>
        <time>2022-10-06T08:37:53Z</time>
      </trkpt>
      <trkpt lat="44.78221" lon="-0.14774">
        <ele>77.2</ele>
        <time>2022-10-06T08:37:54Z</time>
      </trkpt>
      <trkpt lat="44.7822" lon="-0.14772">
        <ele>77.2</ele>
        <time>2022-10-06T08:37:55Z</time>
      </trkpt>
      <trkpt lat="44.7822" lon="-0.1477">
        <ele>77.2</ele>
        <time>2022-10-06T08:37:56Z</time>
      </trkpt>
      <trkpt lat="44.78219" lon="-0.14769">
        <ele>77.1</ele>
        <time>2022-10-06T08:37:57Z</time>
      </trkpt>
      <trkpt lat="44.78219" lon="-0.14767">
        <ele>77.1</ele>
        <time>2022-10-06T08:37:58Z</time>
      </trkpt>
      <trkpt lat="44.78219" lon="-0.14766">
        <ele>77.1</ele>
        <time>2022-10-06T08:37:59Z</time>
      </trkpt>
      <trkpt lat="44.78218" lon="-0.14763">
        <ele>77.1</ele>
        <time>2022-10-06T08:38:00Z</time>
      </trkpt>
      <trkpt lat="44.78218" lon="-0.14761">
        <ele>77.1</ele>
        <time>2022-10-06T08:38:01Z</time>
      </trkpt>
      <trkpt lat="44.78218" lon="-0.1476">
        <ele>77.1</ele>
        <time>2022-10-06T08:38:02Z</time>
      </trkpt>
      <trkpt lat="44.78217" lon="-0.14758">
        <ele>77</ele>
        <time>2022-10-06T08:38:03Z</time>
      </trkpt>
      <trkpt lat="44.78217" lon="-0.14757">
        <ele>77</ele>
        <time>2022-10-06T08:38:04Z</time>
      </trkpt>
      <trkpt lat="44.78216" lon="-0.14754">
        <ele>77</ele>
        <time>2022-10-06T08:38:05Z</time>
      </trkpt>
      <trkpt lat="44.78216" lon="-0.14753">
        <ele>77</ele>
        <time>2022-10-06T08:38:06Z</time>
      </trkpt>
      <trkpt lat="44.78216" lon="-0.14751">
        <ele>77</ele>
        <time>2022-10-06T08:38:07Z</time>
      </trkpt>
      <trkpt lat="44.78216" lon="-0.1475">
        <ele>77</ele>
        <time>2022-10-06T08:38:08Z</time>
      </trkpt>
      <trkpt lat="44.78216" lon="-0.14748">
        <ele>76.9</ele>
        <time>2022-10-06T08:38:09Z</time>
      </trkpt>
      <trkpt lat="44.78215" lon="-0.14746">
        <ele>76.9</ele>
        <time>2022-10-06T08:38:10Z</time>
      </trkpt>
      <trkpt lat="44.78215" lon="-0.14745">
        <ele>76.9</ele>
        <time>2022-10-06T08:38:11Z</time>
      </trkpt>
      <trkpt lat="44.78214" lon="-0.14743">
        <ele>76.9</ele>
        <time>2022-10-06T08:38:12Z</time>
      </trkpt>
      <trkpt lat="44.78214" lon="-0.14741">
        <ele>76.8</ele>
        <time>2022-10-06T08:38:13Z</time>
      </trkpt>
      <trkpt lat="44.78213" lon="-0.1474">
        <ele>76.8</ele>
        <time>2022-10-06T08:38:14Z</time>
      </trkpt>
      <trkpt lat="44.78213" lon="-0.14737">
        <ele>76.8</ele>
        <time>2022-10-06T08:38:15Z</time>
      </trkpt>
      <trkpt lat="44.78213" lon="-0.14736">
        <ele>76.8</ele>
        <time>2022-10-06T08:38:16Z</time>
      </trkpt>
      <trkpt lat="44.78212" lon="-0.14735">
        <ele>76.7</ele>
        <time>2022-10-06T08:38:17Z</time>
      </trkpt>
      <trkpt lat="44.78212" lon="-0.14733">
        <ele>76.7</ele>
        <time>2022-10-06T08:38:18Z</time>
      </trkpt>
      <trkpt lat="44.78212" lon="-0.14732">
        <ele>76.7</ele>
        <time>2022-10-06T08:38:19Z</time>
      </trkpt>
      <trkpt lat="44.78211" lon="-0.14729">
        <ele>76.6</ele>
        <time>2022-10-06T08:38:20Z</time>
      </trkpt>
      <trkpt lat="44.78211" lon="-0.14728">
        <ele>76.6</ele>
        <time>2022-10-06T08:38:21Z</time>
      </trkpt>
      <trkpt lat="44.78211" lon="-0.14727">
        <ele>76.6</ele>
        <time>2022-10-06T08:38:22Z</time>
      </trkpt>
      <trkpt lat="44.78211" lon="-0.14725">
        <ele>76.6</ele>
        <time>2022-10-06T08:38:23Z</time>
      </trkpt>
      <trkpt lat="44.78211" lon="-0.14723">
        <ele>76.5</ele>
        <time>2022-10-06T08:38:24Z</time>
      </trkpt>
      <trkpt lat="44.78211" lon="-0.14721">
        <ele>76.5</ele>
        <time>2022-10-06T08:38:25Z</time>
      </trkpt>
      <trkpt lat="44.78211" lon="-0.1472">
        <ele>76.4</ele>
        <time>2022-10-06T08:38:26Z</time>
      </trkpt>
      <trkpt lat="44.78211" lon="-0.14719">
        <ele>76.4</ele>
        <time>2022-10-06T08:38:27Z</time>
      </trkpt>
      <trkpt lat="44.7821" lon="-0.14717">
        <ele>76.4</ele>
        <time>2022-10-06T08:38:28Z</time>
      </trkpt>
      <trkpt lat="44.7821" lon="-0.14716">
        <ele>76.4</ele>
        <time>2022-10-06T08:38:29Z</time>
      </trkpt>
      <trkpt lat="44.7821" lon="-0.14714">
        <ele>76.4</ele>
        <time>2022-10-06T08:38:30Z</time>
      </trkpt>
      <trkpt lat="44.7821" lon="-0.14713">
        <ele>76.3</ele>
        <time>2022-10-06T08:38:31Z</time>
      </trkpt>
      <trkpt lat="44.78209" lon="-0.14712">
        <ele>76.3</ele>
        <time>2022-10-06T08:38:32Z</time>
      </trkpt>
      <trkpt lat="44.78209" lon="-0.1471">
        <ele>76.3</ele>
        <time>2022-10-06T08:38:33Z</time>
      </trkpt>
      <trkpt lat="44.78208" lon="-0.14709">
        <ele>76.3</ele>
        <time>2022-10-06T08:38:34Z</time>
      </trkpt>
      <trkpt lat="44.78208" lon="-0.14707">
        <ele>76.3</ele>
        <time>2022-10-06T08:38:35Z</time>
      </trkpt>
      <trkpt lat="44.78208" lon="-0.14706">
        <ele>76.3</ele>
        <time>2022-10-06T08:38:36Z</time>
      </trkpt>
      <trkpt lat="44.78208" lon="-0.14705">
        <ele>76.3</ele>
        <time>2022-10-06T08:38:37Z</time>
      </trkpt>
      <trkpt lat="44.78208" lon="-0.14702">
        <ele>76.2</ele>
        <time>2022-10-06T08:38:38Z</time>
      </trkpt>
      <trkpt lat="44.78208" lon="-0.14701">
        <ele>76.2</ele>
        <time>2022-10-06T08:38:39Z</time>
      </trkpt>
      <trkpt lat="44.78208" lon="-0.14699">
        <ele>76.2</ele>
        <time>2022-10-06T08:38:40Z</time>
      </trkpt>
      <trkpt lat="44.78208" lon="-0.14699">
        <ele>76.2</ele>
        <time>2022-10-06T08:38:41Z</time>
      </trkpt>
      <trkpt lat="44.78208" lon="-0.14698">
        <ele>76.2</ele>
        <time>2022-10-06T08:38:42Z</time>
      </trkpt>
      <trkpt lat="44.78208" lon="-0.14696">
        <ele>76.2</ele>
        <time>2022-10-06T08:38:43Z</time>
      </trkpt>
      <trkpt lat="44.78208" lon="-0.14694">
        <ele>76.1</ele>
        <time>2022-10-06T08:38:44Z</time>
      </trkpt>
      <trkpt lat="44.78208" lon="-0.14692">
        <ele>76.1</ele>
        <time>2022-10-06T08:38:45Z</time>
      </trkpt>
      <trkpt lat="44.78208" lon="-0.14691">
        <ele>76.1</ele>
        <time>2022-10-06T08:38:46Z</time>
      </trkpt>
      <trkpt lat="44.78208" lon="-0.1469">
        <ele>76.1</ele>
        <time>2022-10-06T08:38:47Z</time>
      </trkpt>
      <trkpt lat="44.78207" lon="-0.14687">
        <ele>76</ele>
        <time>2022-10-06T08:38:48Z</time>
      </trkpt>
      <trkpt lat="44.78207" lon="-0.14686">
        <ele>76</ele>
        <time>2022-10-06T08:38:49Z</time>
      </trkpt>
      <trkpt lat="44.78207" lon="-0.14685">
        <ele>76</ele>
        <time>2022-10-06T08:38:50Z</time>
      </trkpt>
      <trkpt lat="44.78207" lon="-0.14684">
        <ele>76</ele>
        <time>2022-10-06T08:38:51Z</time>
      </trkpt>
      <trkpt lat="44.78207" lon="-0.14683">
        <ele>76</ele>
        <time>2022-10-06T08:38:52Z</time>
      </trkpt>
      <trkpt lat="44.78207" lon="-0.14681">
        <ele>76</ele>
        <time>2022-10-06T08:38:53Z</time>
      </trkpt>
      <trkpt lat="44.78207" lon="-0.1468">
        <ele>76</ele>
        <time>2022-10-06T08:38:54Z</time>
      </trkpt>
      <trkpt lat="44.78207" lon="-0.14678">
        <ele>75.9</ele>
        <time>2022-10-06T08:38:55Z</time>
      </trkpt>
      <trkpt lat="44.78207" lon="-0.14677">
        <ele>75.9</ele>
        <time>2022-10-06T08:38:56Z</time>
      </trkpt>
      <trkpt lat="44.78207" lon="-0.14675">
        <ele>75.9</ele>
        <time>2022-10-06T08:38:57Z</time>
      </trkpt>
      <trkpt lat="44.78207" lon="-0.14672">
        <ele>75.9</ele>
        <time>2022-10-06T08:38:58Z</time>
      </trkpt>
      <trkpt lat="44.78207" lon="-0.14671">
        <ele>75.9</ele>
        <time>2022-10-06T08:38:59Z</time>
      </trkpt>
      <trkpt lat="44.78207" lon="-0.1467">
        <ele>75.8</ele>
        <time>2022-10-06T08:39:00Z</time>
      </trkpt>
      <trkpt lat="44.78206" lon="-0.14668">
        <ele>75.8</ele>
        <time>2022-10-06T08:39:01Z</time>
      </trkpt>
      <trkpt lat="44.78206" lon="-0.14667">
        <ele>75.8</ele>
        <time>2022-10-06T08:39:02Z</time>
      </trkpt>
      <trkpt lat="44.78206" lon="-0.14665">
        <ele>75.8</ele>
        <time>2022-10-06T08:39:03Z</time>
      </trkpt>
      <trkpt lat="44.78206" lon="-0.14664">
        <ele>75.8</ele>
        <time>2022-10-06T08:39:04Z</time>
      </trkpt>
      <trkpt lat="44.78206" lon="-0.14661">
        <ele>75.7</ele>
        <time>2022-10-06T08:39:05Z</time>
      </trkpt>
      <trkpt lat="44.78206" lon="-0.1466">
        <ele>75.7</ele>
        <time>2022-10-06T08:39:06Z</time>
      </trkpt>
      <trkpt lat="44.78206" lon="-0.14659">
        <ele>75.7</ele>
        <time>2022-10-06T08:39:07Z</time>
      </trkpt>
      <trkpt lat="44.78206" lon="-0.14657">
        <ele>75.7</ele>
        <time>2022-10-06T08:39:08Z</time>
      </trkpt>
      <trkpt lat="44.78206" lon="-0.14656">
        <ele>75.7</ele>
        <time>2022-10-06T08:39:09Z</time>
      </trkpt>
      <trkpt lat="44.78205" lon="-0.14654">
        <ele>75.6</ele>
        <time>2022-10-06T08:39:10Z</time>
      </trkpt>
      <trkpt lat="44.78205" lon="-0.14653">
        <ele>75.6</ele>
        <time>2022-10-06T08:39:11Z</time>
      </trkpt>
      <trkpt lat="44.78205" lon="-0.1465">
        <ele>75.6</ele>
        <time>2022-10-06T08:39:12Z</time>
      </trkpt>
      <trkpt lat="44.78204" lon="-0.14649">
        <ele>75.6</ele>
        <time>2022-10-06T08:39:13Z</time>
      </trkpt>
      <trkpt lat="44.78204" lon="-0.14647">
        <ele>75.6</ele>
        <time>2022-10-06T08:39:14Z</time>
      </trkpt>
      <trkpt lat="44.78204" lon="-0.14645">
        <ele>75.5</ele>
        <time>2022-10-06T08:39:15Z</time>
      </trkpt>
      <trkpt lat="44.78204" lon="-0.14644">
        <ele>75.5</ele>
        <time>2022-10-06T08:39:16Z</time>
      </trkpt>
      <trkpt lat="44.78203" lon="-0.14642">
        <ele>75.5</ele>
        <time>2022-10-06T08:39:17Z</time>
      </trkpt>
      <trkpt lat="44.78203" lon="-0.14641">
        <ele>75.5</ele>
        <time>2022-10-06T08:39:18Z</time>
      </trkpt>
      <trkpt lat="44.78203" lon="-0.14639">
        <ele>75.4</ele>
        <time>2022-10-06T08:39:19Z</time>
      </trkpt>
      <trkpt lat="44.78203" lon="-0.14638">
        <ele>75.4</ele>
        <time>2022-10-06T08:39:20Z</time>
      </trkpt>
      <trkpt lat="44.78203" lon="-0.14636">
        <ele>75.4</ele>
        <time>2022-10-06T08:39:21Z</time>
      </trkpt>
      <trkpt lat="44.78203" lon="-0.14633">
        <ele>75.4</ele>
        <time>2022-10-06T08:39:22Z</time>
      </trkpt>
      <trkpt lat="44.78203" lon="-0.14633">
        <ele>75.4</ele>
        <time>2022-10-06T08:39:23Z</time>
      </trkpt>
      <trkpt lat="44.78203" lon="-0.14631">
        <ele>75.4</ele>
        <time>2022-10-06T08:39:24Z</time>
      </trkpt>
      <trkpt lat="44.78203" lon="-0.1463">
        <ele>75.3</ele>
        <time>2022-10-06T08:39:25Z</time>
      </trkpt>
      <trkpt lat="44.78202" lon="-0.14628">
        <ele>75.3</ele>
        <time>2022-10-06T08:39:26Z</time>
      </trkpt>
      <trkpt lat="44.78202" lon="-0.14626">
        <ele>75.3</ele>
        <time>2022-10-06T08:39:27Z</time>
      </trkpt>
      <trkpt lat="44.78202" lon="-0.14624">
        <ele>75.3</ele>
        <time>2022-10-06T08:39:28Z</time>
      </trkpt>
      <trkpt lat="44.78202" lon="-0.14623">
        <ele>75.3</ele>
        <time>2022-10-06T08:39:29Z</time>
      </trkpt>
      <trkpt lat="44.78202" lon="-0.14621">
        <ele>75.2</ele>
        <time>2022-10-06T08:39:30Z</time>
      </trkpt>
      <trkpt lat="44.78202" lon="-0.1462">
        <ele>75.2</ele>
        <time>2022-10-06T08:39:31Z</time>
      </trkpt>
      <trkpt lat="44.78202" lon="-0.14619">
        <ele>75.2</ele>
        <time>2022-10-06T08:39:32Z</time>
      </trkpt>
      <trkpt lat="44.78201" lon="-0.14616">
        <ele>75.2</ele>
        <time>2022-10-06T08:39:33Z</time>
      </trkpt>
      <trkpt lat="44.78201" lon="-0.14614">
        <ele>75.2</ele>
        <time>2022-10-06T08:39:34Z</time>
      </trkpt>
      <trkpt lat="44.78201" lon="-0.14613">
        <ele>75.1</ele>
        <time>2022-10-06T08:39:35Z</time>
      </trkpt>
      <trkpt lat="44.78201" lon="-0.14612">
        <ele>75.1</ele>
        <time>2022-10-06T08:39:36Z</time>
      </trkpt>
      <trkpt lat="44.78201" lon="-0.14611">
        <ele>75.1</ele>
        <time>2022-10-06T08:39:37Z</time>
      </trkpt>
      <trkpt lat="44.78201" lon="-0.14609">
        <ele>75.1</ele>
        <time>2022-10-06T08:39:38Z</time>
      </trkpt>
      <trkpt lat="44.782" lon="-0.14608">
        <ele>75.1</ele>
        <time>2022-10-06T08:39:39Z</time>
      </trkpt>
      <trkpt lat="44.782" lon="-0.14605">
        <ele>75</ele>
        <time>2022-10-06T08:39:40Z</time>
      </trkpt>
      <trkpt lat="44.782" lon="-0.14604">
        <ele>75</ele>
        <time>2022-10-06T08:39:41Z</time>
      </trkpt>
      <trkpt lat="44.782" lon="-0.14603">
        <ele>75</ele>
        <time>2022-10-06T08:39:42Z</time>
      </trkpt>
      <trkpt lat="44.782" lon="-0.146">
        <ele>75</ele>
        <time>2022-10-06T08:39:43Z</time>
      </trkpt>
      <trkpt lat="44.782" lon="-0.14598">
        <ele>75</ele>
        <time>2022-10-06T08:39:44Z</time>
      </trkpt>
      <trkpt lat="44.782" lon="-0.14597">
        <ele>74.9</ele>
        <time>2022-10-06T08:39:45Z</time>
      </trkpt>
      <trkpt lat="44.782" lon="-0.14596">
        <ele>74.9</ele>
        <time>2022-10-06T08:39:46Z</time>
      </trkpt>
      <trkpt lat="44.78199" lon="-0.14594">
        <ele>74.9</ele>
        <time>2022-10-06T08:39:47Z</time>
      </trkpt>
      <trkpt lat="44.78199" lon="-0.14592">
        <ele>74.9</ele>
        <time>2022-10-06T08:39:48Z</time>
      </trkpt>
      <trkpt lat="44.78199" lon="-0.14588">
        <ele>74.8</ele>
        <time>2022-10-06T08:39:49Z</time>
      </trkpt>
      <trkpt lat="44.78199" lon="-0.14587">
        <ele>74.8</ele>
        <time>2022-10-06T08:39:51Z</time>
      </trkpt>
      <trkpt lat="44.78199" lon="-0.14585">
        <ele>74.8</ele>
        <time>2022-10-06T08:39:52Z</time>
      </trkpt>
      <trkpt lat="44.78199" lon="-0.14584">
        <ele>74.8</ele>
        <time>2022-10-06T08:39:53Z</time>
      </trkpt>
      <trkpt lat="44.78199" lon="-0.14582">
        <ele>74.7</ele>
        <time>2022-10-06T08:39:54Z</time>
      </trkpt>
      <trkpt lat="44.78198" lon="-0.1458">
        <ele>74.7</ele>
        <time>2022-10-06T08:39:55Z</time>
      </trkpt>
      <trkpt lat="44.78198" lon="-0.14579">
        <ele>74.7</ele>
        <time>2022-10-06T08:39:56Z</time>
      </trkpt>
      <trkpt lat="44.78198" lon="-0.14577">
        <ele>74.7</ele>
        <time>2022-10-06T08:39:57Z</time>
      </trkpt>
      <trkpt lat="44.78197" lon="-0.14576">
        <ele>74.7</ele>
        <time>2022-10-06T08:39:58Z</time>
      </trkpt>
      <trkpt lat="44.78197" lon="-0.14574">
        <ele>74.6</ele>
        <time>2022-10-06T08:39:59Z</time>
      </trkpt>
      <trkpt lat="44.78197" lon="-0.14571">
        <ele>74.6</ele>
        <time>2022-10-06T08:40:00Z</time>
      </trkpt>
      <trkpt lat="44.78197" lon="-0.14569">
        <ele>74.6</ele>
        <time>2022-10-06T08:40:01Z</time>
      </trkpt>
      <trkpt lat="44.78197" lon="-0.14568">
        <ele>74.6</ele>
        <time>2022-10-06T08:40:02Z</time>
      </trkpt>
      <trkpt lat="44.78196" lon="-0.14567">
        <ele>74.5</ele>
        <time>2022-10-06T08:40:03Z</time>
      </trkpt>
      <trkpt lat="44.78196" lon="-0.14566">
        <ele>74.5</ele>
        <time>2022-10-06T08:40:04Z</time>
      </trkpt>
      <trkpt lat="44.78196" lon="-0.14563">
        <ele>74.5</ele>
        <time>2022-10-06T08:40:05Z</time>
      </trkpt>
      <trkpt lat="44.78196" lon="-0.14562">
        <ele>74.5</ele>
        <time>2022-10-06T08:40:06Z</time>
      </trkpt>
      <trkpt lat="44.78196" lon="-0.1456">
        <ele>74.5</ele>
        <time>2022-10-06T08:40:07Z</time>
      </trkpt>
      <trkpt lat="44.78196" lon="-0.14557">
        <ele>74.4</ele>
        <time>2022-10-06T08:40:08Z</time>
      </trkpt>
      <trkpt lat="44.78196" lon="-0.14556">
        <ele>74.4</ele>
        <time>2022-10-06T08:40:09Z</time>
      </trkpt>
      <trkpt lat="44.78196" lon="-0.14554">
        <ele>74.4</ele>
        <time>2022-10-06T08:40:10Z</time>
      </trkpt>
      <trkpt lat="44.78196" lon="-0.14554">
        <ele>74.4</ele>
        <time>2022-10-06T08:40:11Z</time>
      </trkpt>
      <trkpt lat="44.78195" lon="-0.14552">
        <ele>74.4</ele>
        <time>2022-10-06T08:40:12Z</time>
      </trkpt>
      <trkpt lat="44.78195" lon="-0.1455">
        <ele>74.3</ele>
        <time>2022-10-06T08:40:13Z</time>
      </trkpt>
      <trkpt lat="44.78195" lon="-0.14548">
        <ele>74.3</ele>
        <time>2022-10-06T08:40:14Z</time>
      </trkpt>
      <trkpt lat="44.78195" lon="-0.14546">
        <ele>74.3</ele>
        <time>2022-10-06T08:40:15Z</time>
      </trkpt>
      <trkpt lat="44.78195" lon="-0.14545">
        <ele>74.3</ele>
        <time>2022-10-06T08:40:16Z</time>
      </trkpt>
      <trkpt lat="44.78195" lon="-0.14543">
        <ele>74.3</ele>
        <time>2022-10-06T08:40:17Z</time>
      </trkpt>
      <trkpt lat="44.78195" lon="-0.14542">
        <ele>74.3</ele>
        <time>2022-10-06T08:40:18Z</time>
      </trkpt>
      <trkpt lat="44.78194" lon="-0.14541">
        <ele>74.2</ele>
        <time>2022-10-06T08:40:19Z</time>
      </trkpt>
      <trkpt lat="44.78194" lon="-0.14539">
        <ele>74.2</ele>
        <time>2022-10-06T08:40:20Z</time>
      </trkpt>
      <trkpt lat="44.78195" lon="-0.14538">
        <ele>74.2</ele>
        <time>2022-10-06T08:40:21Z</time>
      </trkpt>
      <trkpt lat="44.78196" lon="-0.14537">
        <ele>74.2</ele>
        <time>2022-10-06T08:40:22Z</time>
      </trkpt>
      <trkpt lat="44.78197" lon="-0.14537">
        <ele>74.2</ele>
        <time>2022-10-06T08:40:23Z</time>
      </trkpt>
      <trkpt lat="44.78198" lon="-0.14536">
        <ele>74.2</ele>
        <time>2022-10-06T08:40:24Z</time>
      </trkpt>
      <trkpt lat="44.782" lon="-0.14535">
        <ele>74.1</ele>
        <time>2022-10-06T08:40:25Z</time>
      </trkpt>
      <trkpt lat="44.782" lon="-0.14534">
        <ele>74.1</ele>
        <time>2022-10-06T08:40:26Z</time>
      </trkpt>
      <trkpt lat="44.782" lon="-0.14533">
        <ele>74.1</ele>
        <time>2022-10-06T08:40:27Z</time>
      </trkpt>
      <trkpt lat="44.782" lon="-0.14531">
        <ele>74.1</ele>
        <time>2022-10-06T08:40:28Z</time>
      </trkpt>
      <trkpt lat="44.782" lon="-0.14529">
        <ele>74.1</ele>
        <time>2022-10-06T08:40:29Z</time>
      </trkpt>
      <trkpt lat="44.782" lon="-0.14528">
        <ele>74.1</ele>
        <time>2022-10-06T08:40:30Z</time>
      </trkpt>
      <trkpt lat="44.78199" lon="-0.14527">
        <ele>74.1</ele>
        <time>2022-10-06T08:40:31Z</time>
      </trkpt>
      <trkpt lat="44.78199" lon="-0.14526">
        <ele>74</ele>
        <time>2022-10-06T08:40:32Z</time>
      </trkpt>
      <trkpt lat="44.78199" lon="-0.14524">
        <ele>74</ele>
        <time>2022-10-06T08:40:33Z</time>
      </trkpt>
      <trkpt lat="44.78199" lon="-0.14523">
        <ele>74</ele>
        <time>2022-10-06T08:40:34Z</time>
      </trkpt>
      <trkpt lat="44.78199" lon="-0.14521">
        <ele>74</ele>
        <time>2022-10-06T08:40:35Z</time>
      </trkpt>
      <trkpt lat="44.78199" lon="-0.1452">
        <ele>74</ele>
        <time>2022-10-06T08:40:36Z</time>
      </trkpt>
      <trkpt lat="44.78199" lon="-0.14519">
        <ele>74</ele>
        <time>2022-10-06T08:40:37Z</time>
      </trkpt>
      <trkpt lat="44.78199" lon="-0.14518">
        <ele>74</ele>
        <time>2022-10-06T08:40:38Z</time>
      </trkpt>
      <trkpt lat="44.782" lon="-0.14516">
        <ele>74</ele>
        <time>2022-10-06T08:40:39Z</time>
      </trkpt>
      <trkpt lat="44.782" lon="-0.14514">
        <ele>73.9</ele>
        <time>2022-10-06T08:40:40Z</time>
      </trkpt>
      <trkpt lat="44.782" lon="-0.14513">
        <ele>73.9</ele>
        <time>2022-10-06T08:40:41Z</time>
      </trkpt>
      <trkpt lat="44.78201" lon="-0.14511">
        <ele>73.9</ele>
        <time>2022-10-06T08:40:42Z</time>
      </trkpt>
      <trkpt lat="44.782" lon="-0.14509">
        <ele>73.9</ele>
        <time>2022-10-06T08:40:43Z</time>
      </trkpt>
      <trkpt lat="44.782" lon="-0.14507">
        <ele>73.9</ele>
        <time>2022-10-06T08:40:44Z</time>
      </trkpt>
      <trkpt lat="44.782" lon="-0.14506">
        <ele>73.9</ele>
        <time>2022-10-06T08:40:45Z</time>
      </trkpt>
      <trkpt lat="44.782" lon="-0.14506">
        <ele>73.9</ele>
        <time>2022-10-06T08:40:46Z</time>
      </trkpt>
      <trkpt lat="44.78199" lon="-0.14504">
        <ele>73.9</ele>
        <time>2022-10-06T08:40:47Z</time>
      </trkpt>
      <trkpt lat="44.78199" lon="-0.14503">
        <ele>73.9</ele>
        <time>2022-10-06T08:40:48Z</time>
      </trkpt>
      <trkpt lat="44.78199" lon="-0.14502">
        <ele>73.9</ele>
        <time>2022-10-06T08:40:49Z</time>
      </trkpt>
      <trkpt lat="44.78199" lon="-0.14499">
        <ele>73.9</ele>
        <time>2022-10-06T08:40:50Z</time>
      </trkpt>
      <trkpt lat="44.78199" lon="-0.14498">
        <ele>73.9</ele>
        <time>2022-10-06T08:40:51Z</time>
      </trkpt>
      <trkpt lat="44.78199" lon="-0.14497">
        <ele>73.9</ele>
        <time>2022-10-06T08:40:52Z</time>
      </trkpt>
      <trkpt lat="44.78199" lon="-0.14494">
        <ele>73.9</ele>
        <time>2022-10-06T08:40:53Z</time>
      </trkpt>
      <trkpt lat="44.78199" lon="-0.14492">
        <ele>73.9</ele>
        <time>2022-10-06T08:40:54Z</time>
      </trkpt>
      <trkpt lat="44.78199" lon="-0.14491">
        <ele>73.9</ele>
        <time>2022-10-06T08:40:55Z</time>
      </trkpt>
      <trkpt lat="44.78199" lon="-0.14489">
        <ele>73.9</ele>
        <time>2022-10-06T08:40:56Z</time>
      </trkpt>
      <trkpt lat="44.78199" lon="-0.14488">
        <ele>73.9</ele>
        <time>2022-10-06T08:40:57Z</time>
      </trkpt>
      <trkpt lat="44.78199" lon="-0.14487">
        <ele>73.9</ele>
        <time>2022-10-06T08:40:58Z</time>
      </trkpt>
      <trkpt lat="44.78199" lon="-0.14485">
        <ele>73.9</ele>
        <time>2022-10-06T08:40:59Z</time>
      </trkpt>
      <trkpt lat="44.78199" lon="-0.14483">
        <ele>73.9</ele>
        <time>2022-10-06T08:41:00Z</time>
      </trkpt>
      <trkpt lat="44.78199" lon="-0.14481">
        <ele>73.9</ele>
        <time>2022-10-06T08:41:01Z</time>
      </trkpt>
      <trkpt lat="44.78199" lon="-0.1448">
        <ele>73.9</ele>
        <time>2022-10-06T08:41:02Z</time>
      </trkpt>
      <trkpt lat="44.78199" lon="-0.14478">
        <ele>73.9</ele>
        <time>2022-10-06T08:41:03Z</time>
      </trkpt>
      <trkpt lat="44.78199" lon="-0.14477">
        <ele>73.9</ele>
        <time>2022-10-06T08:41:04Z</time>
      </trkpt>
      <trkpt lat="44.78199" lon="-0.14475">
        <ele>73.9</ele>
        <time>2022-10-06T08:41:05Z</time>
      </trkpt>
      <trkpt lat="44.78198" lon="-0.14473">
        <ele>73.9</ele>
        <time>2022-10-06T08:41:06Z</time>
      </trkpt>
      <trkpt lat="44.78198" lon="-0.14472">
        <ele>73.9</ele>
        <time>2022-10-06T08:41:07Z</time>
      </trkpt>
      <trkpt lat="44.78198" lon="-0.14471">
        <ele>73.9</ele>
        <time>2022-10-06T08:41:08Z</time>
      </trkpt>
      <trkpt lat="44.78198" lon="-0.14469">
        <ele>74</ele>
        <time>2022-10-06T08:41:09Z</time>
      </trkpt>
      <trkpt lat="44.78198" lon="-0.14467">
        <ele>74</ele>
        <time>2022-10-06T08:41:10Z</time>
      </trkpt>
      <trkpt lat="44.78198" lon="-0.14465">
        <ele>74</ele>
        <time>2022-10-06T08:41:11Z</time>
      </trkpt>
      <trkpt lat="44.78198" lon="-0.14464">
        <ele>74</ele>
        <time>2022-10-06T08:41:12Z</time>
      </trkpt>
      <trkpt lat="44.78198" lon="-0.14462">
        <ele>74</ele>
        <time>2022-10-06T08:41:13Z</time>
      </trkpt>
      <trkpt lat="44.78198" lon="-0.14461">
        <ele>74</ele>
        <time>2022-10-06T08:41:14Z</time>
      </trkpt>
      <trkpt lat="44.78198" lon="-0.1446">
        <ele>74</ele>
        <time>2022-10-06T08:41:15Z</time>
      </trkpt>
      <trkpt lat="44.78198" lon="-0.14458">
        <ele>74.1</ele>
        <time>2022-10-06T08:41:16Z</time>
      </trkpt>
      <trkpt lat="44.78198" lon="-0.14455">
        <ele>74.1</ele>
        <time>2022-10-06T08:41:17Z</time>
      </trkpt>
      <trkpt lat="44.78198" lon="-0.14454">
        <ele>74.1</ele>
        <time>2022-10-06T08:41:18Z</time>
      </trkpt>
      <trkpt lat="44.78198" lon="-0.14453">
        <ele>74.1</ele>
        <time>2022-10-06T08:41:19Z</time>
      </trkpt>
      <trkpt lat="44.78198" lon="-0.14452">
        <ele>74.1</ele>
        <time>2022-10-06T08:41:20Z</time>
      </trkpt>
      <trkpt lat="44.78198" lon="-0.14449">
        <ele>74.2</ele>
        <time>2022-10-06T08:41:21Z</time>
      </trkpt>
      <trkpt lat="44.78198" lon="-0.14448">
        <ele>74.2</ele>
        <time>2022-10-06T08:41:22Z</time>
      </trkpt>
      <trkpt lat="44.78198" lon="-0.14447">
        <ele>74.2</ele>
        <time>2022-10-06T08:41:23Z</time>
      </trkpt>
      <trkpt lat="44.78198" lon="-0.14444">
        <ele>74.2</ele>
        <time>2022-10-06T08:41:24Z</time>
      </trkpt>
      <trkpt lat="44.78198" lon="-0.14443">
        <ele>74.2</ele>
        <time>2022-10-06T08:41:25Z</time>
      </trkpt>
      <trkpt lat="44.78198" lon="-0.14442">
        <ele>74.3</ele>
        <time>2022-10-06T08:41:26Z</time>
      </trkpt>
      <trkpt lat="44.78197" lon="-0.1444">
        <ele>74.3</ele>
        <time>2022-10-06T08:41:27Z</time>
      </trkpt>
      <trkpt lat="44.78197" lon="-0.14438">
        <ele>74.3</ele>
        <time>2022-10-06T08:41:28Z</time>
      </trkpt>
      <trkpt lat="44.78197" lon="-0.14437">
        <ele>74.3</ele>
        <time>2022-10-06T08:41:29Z</time>
      </trkpt>
      <trkpt lat="44.78197" lon="-0.14435">
        <ele>74.4</ele>
        <time>2022-10-06T08:41:30Z</time>
      </trkpt>
      <trkpt lat="44.78198" lon="-0.14434">
        <ele>74.4</ele>
        <time>2022-10-06T08:41:31Z</time>
      </trkpt>
      <trkpt lat="44.78198" lon="-0.14432">
        <ele>74.4</ele>
        <time>2022-10-06T08:41:32Z</time>
      </trkpt>
      <trkpt lat="44.78198" lon="-0.14431">
        <ele>74.4</ele>
        <time>2022-10-06T08:41:33Z</time>
      </trkpt>
      <trkpt lat="44.78198" lon="-0.1443">
        <ele>74.4</ele>
        <time>2022-10-06T08:41:34Z</time>
      </trkpt>
      <trkpt lat="44.78198" lon="-0.14428">
        <ele>74.5</ele>
        <time>2022-10-06T08:41:35Z</time>
      </trkpt>
      <trkpt lat="44.78198" lon="-0.14426">
        <ele>74.5</ele>
        <time>2022-10-06T08:41:36Z</time>
      </trkpt>
      <trkpt lat="44.78198" lon="-0.14425">
        <ele>74.5</ele>
        <time>2022-10-06T08:41:37Z</time>
      </trkpt>
      <trkpt lat="44.78198" lon="-0.14423">
        <ele>74.5</ele>
        <time>2022-10-06T08:41:38Z</time>
      </trkpt>
      <trkpt lat="44.78198" lon="-0.14421">
        <ele>74.6</ele>
        <time>2022-10-06T08:41:39Z</time>
      </trkpt>
      <trkpt lat="44.78197" lon="-0.14419">
        <ele>74.6</ele>
        <time>2022-10-06T08:41:40Z</time>
      </trkpt>
      <trkpt lat="44.78197" lon="-0.14418">
        <ele>74.6</ele>
        <time>2022-10-06T08:41:41Z</time>
      </trkpt>
      <trkpt lat="44.78197" lon="-0.14417">
        <ele>74.6</ele>
        <time>2022-10-06T08:41:42Z</time>
      </trkpt>
      <trkpt lat="44.78197" lon="-0.14415">
        <ele>74.7</ele>
        <time>2022-10-06T08:41:43Z</time>
      </trkpt>
      <trkpt lat="44.78197" lon="-0.14414">
        <ele>74.7</ele>
        <time>2022-10-06T08:41:44Z</time>
      </trkpt>
      <trkpt lat="44.78197" lon="-0.14412">
        <ele>74.7</ele>
        <time>2022-10-06T08:41:45Z</time>
      </trkpt>
      <trkpt lat="44.78197" lon="-0.14411">
        <ele>74.8</ele>
        <time>2022-10-06T08:41:46Z</time>
      </trkpt>
      <trkpt lat="44.78196" lon="-0.14409">
        <ele>74.8</ele>
        <time>2022-10-06T08:41:47Z</time>
      </trkpt>
      <trkpt lat="44.78196" lon="-0.14408">
        <ele>74.8</ele>
        <time>2022-10-06T08:41:48Z</time>
      </trkpt>
      <trkpt lat="44.78196" lon="-0.14407">
        <ele>74.8</ele>
        <time>2022-10-06T08:41:49Z</time>
      </trkpt>
      <trkpt lat="44.78196" lon="-0.14405">
        <ele>74.9</ele>
        <time>2022-10-06T08:41:50Z</time>
      </trkpt>
      <trkpt lat="44.78196" lon="-0.14403">
        <ele>74.9</ele>
        <time>2022-10-06T08:41:51Z</time>
      </trkpt>
      <trkpt lat="44.78196" lon="-0.14401">
        <ele>75</ele>
        <time>2022-10-06T08:41:52Z</time>
      </trkpt>
      <trkpt lat="44.78196" lon="-0.144">
        <ele>75</ele>
        <time>2022-10-06T08:41:54Z</time>
      </trkpt>
      <trkpt lat="44.78196" lon="-0.14398">
        <ele>75</ele>
        <time>2022-10-06T08:41:55Z</time>
      </trkpt>
      <trkpt lat="44.78197" lon="-0.14397">
        <ele>75.1</ele>
        <time>2022-10-06T08:41:56Z</time>
      </trkpt>
      <trkpt lat="44.78197" lon="-0.14396">
        <ele>75.1</ele>
        <time>2022-10-06T08:41:57Z</time>
      </trkpt>
      <trkpt lat="44.78198" lon="-0.14394">
        <ele>75.1</ele>
        <time>2022-10-06T08:41:58Z</time>
      </trkpt>
      <trkpt lat="44.78199" lon="-0.14393">
        <ele>75.1</ele>
        <time>2022-10-06T08:41:59Z</time>
      </trkpt>
      <trkpt lat="44.78199" lon="-0.14393">
        <ele>75.2</ele>
        <time>2022-10-06T08:42:00Z</time>
      </trkpt>
      <trkpt lat="44.782" lon="-0.14392">
        <ele>74.7</ele>
        <time>2022-10-06T08:42:01Z</time>
      </trkpt>
      <trkpt lat="44.78201" lon="-0.14391">
        <ele>74.6</ele>
        <time>2022-10-06T08:42:02Z</time>
      </trkpt>
      <trkpt lat="44.78202" lon="-0.14391">
        <ele>74.5</ele>
        <time>2022-10-06T08:42:03Z</time>
      </trkpt>
      <trkpt lat="44.78203" lon="-0.1439">
        <ele>74.4</ele>
        <time>2022-10-06T08:42:04Z</time>
      </trkpt>
      <trkpt lat="44.78204" lon="-0.14389">
        <ele>74.3</ele>
        <time>2022-10-06T08:42:05Z</time>
      </trkpt>
      <trkpt lat="44.78205" lon="-0.14389">
        <ele>74.2</ele>
        <time>2022-10-06T08:42:06Z</time>
      </trkpt>
      <trkpt lat="44.78206" lon="-0.14388">
        <ele>74.1</ele>
        <time>2022-10-06T08:42:07Z</time>
      </trkpt>
      <trkpt lat="44.78207" lon="-0.14387">
        <ele>74</ele>
        <time>2022-10-06T08:42:08Z</time>
      </trkpt>
      <trkpt lat="44.78209" lon="-0.14386">
        <ele>73.8</ele>
        <time>2022-10-06T08:42:09Z</time>
      </trkpt>
      <trkpt lat="44.78209" lon="-0.14386">
        <ele>73.8</ele>
        <time>2022-10-06T08:42:10Z</time>
      </trkpt>
      <trkpt lat="44.7821" lon="-0.14385">
        <ele>73.7</ele>
        <time>2022-10-06T08:42:11Z</time>
      </trkpt>
      <trkpt lat="44.78211" lon="-0.14385">
        <ele>73.6</ele>
        <time>2022-10-06T08:42:12Z</time>
      </trkpt>
      <trkpt lat="44.78212" lon="-0.14385">
        <ele>73.5</ele>
        <time>2022-10-06T08:42:13Z</time>
      </trkpt>
      <trkpt lat="44.78213" lon="-0.14384">
        <ele>73.4</ele>
        <time>2022-10-06T08:42:14Z</time>
      </trkpt>
      <trkpt lat="44.78214" lon="-0.14384">
        <ele>73.3</ele>
        <time>2022-10-06T08:42:15Z</time>
      </trkpt>
      <trkpt lat="44.78216" lon="-0.14384">
        <ele>73.2</ele>
        <time>2022-10-06T08:42:16Z</time>
      </trkpt>
      <trkpt lat="44.78217" lon="-0.14384">
        <ele>73.1</ele>
        <time>2022-10-06T08:42:17Z</time>
      </trkpt>
      <trkpt lat="44.78218" lon="-0.14383">
        <ele>73</ele>
        <time>2022-10-06T08:42:18Z</time>
      </trkpt>
      <trkpt lat="44.78219" lon="-0.14383">
        <ele>72.9</ele>
        <time>2022-10-06T08:42:19Z</time>
      </trkpt>
      <trkpt lat="44.7822" lon="-0.14383">
        <ele>72.8</ele>
        <time>2022-10-06T08:42:20Z</time>
      </trkpt>
      <trkpt lat="44.78222" lon="-0.14382">
        <ele>72.6</ele>
        <time>2022-10-06T08:42:21Z</time>
      </trkpt>
      <trkpt lat="44.78223" lon="-0.14382">
        <ele>72.6</ele>
        <time>2022-10-06T08:42:22Z</time>
      </trkpt>
      <trkpt lat="44.78224" lon="-0.14382">
        <ele>72.5</ele>
        <time>2022-10-06T08:42:23Z</time>
      </trkpt>
      <trkpt lat="44.78226" lon="-0.14382">
        <ele>72.3</ele>
        <time>2022-10-06T08:42:24Z</time>
      </trkpt>
      <trkpt lat="44.78227" lon="-0.14382">
        <ele>72.2</ele>
        <time>2022-10-06T08:42:25Z</time>
      </trkpt>
      <trkpt lat="44.78228" lon="-0.14382">
        <ele>72.2</ele>
        <time>2022-10-06T08:42:26Z</time>
      </trkpt>
      <trkpt lat="44.78229" lon="-0.14382">
        <ele>72.1</ele>
        <time>2022-10-06T08:42:27Z</time>
      </trkpt>
      <trkpt lat="44.7823" lon="-0.14382">
        <ele>72</ele>
        <time>2022-10-06T08:42:28Z</time>
      </trkpt>
      <trkpt lat="44.78231" lon="-0.14382">
        <ele>71.9</ele>
        <time>2022-10-06T08:42:29Z</time>
      </trkpt>
      <trkpt lat="44.78232" lon="-0.14381">
        <ele>71.9</ele>
        <time>2022-10-06T08:42:30Z</time>
      </trkpt>
      <trkpt lat="44.78233" lon="-0.14381">
        <ele>71.7</ele>
        <time>2022-10-06T08:42:31Z</time>
      </trkpt>
      <trkpt lat="44.78234" lon="-0.14381">
        <ele>71.7</ele>
        <time>2022-10-06T08:42:32Z</time>
      </trkpt>
      <trkpt lat="44.78235" lon="-0.14381">
        <ele>71.6</ele>
        <time>2022-10-06T08:42:33Z</time>
      </trkpt>
      <trkpt lat="44.78236" lon="-0.14381">
        <ele>71.5</ele>
        <time>2022-10-06T08:42:34Z</time>
      </trkpt>
      <trkpt lat="44.78238" lon="-0.14381">
        <ele>71.4</ele>
        <time>2022-10-06T08:42:35Z</time>
      </trkpt>
      <trkpt lat="44.7824" lon="-0.14381">
        <ele>71.3</ele>
        <time>2022-10-06T08:42:36Z</time>
      </trkpt>
      <trkpt lat="44.78241" lon="-0.14381">
        <ele>71.2</ele>
        <time>2022-10-06T08:42:37Z</time>
      </trkpt>
      <trkpt lat="44.78241" lon="-0.14381">
        <ele>71.2</ele>
        <time>2022-10-06T08:42:38Z</time>
      </trkpt>
      <trkpt lat="44.78243" lon="-0.1438">
        <ele>71.1</ele>
        <time>2022-10-06T08:42:39Z</time>
      </trkpt>
      <trkpt lat="44.78244" lon="-0.1438">
        <ele>71</ele>
        <time>2022-10-06T08:42:40Z</time>
      </trkpt>
      <trkpt lat="44.78245" lon="-0.1438">
        <ele>70.9</ele>
        <time>2022-10-06T08:42:41Z</time>
      </trkpt>
      <trkpt lat="44.78247" lon="-0.14379">
        <ele>70.8</ele>
        <time>2022-10-06T08:42:42Z</time>
      </trkpt>
      <trkpt lat="44.78248" lon="-0.14379">
        <ele>70.8</ele>
        <time>2022-10-06T08:42:43Z</time>
      </trkpt>
      <trkpt lat="44.78249" lon="-0.14379">
        <ele>70.7</ele>
        <time>2022-10-06T08:42:44Z</time>
      </trkpt>
      <trkpt lat="44.7825" lon="-0.14379">
        <ele>70.7</ele>
        <time>2022-10-06T08:42:45Z</time>
      </trkpt>
      <trkpt lat="44.78251" lon="-0.14378">
        <ele>70.6</ele>
        <time>2022-10-06T08:42:46Z</time>
      </trkpt>
      <trkpt lat="44.78252" lon="-0.14378">
        <ele>70.5</ele>
        <time>2022-10-06T08:42:47Z</time>
      </trkpt>
      <trkpt lat="44.78253" lon="-0.14377">
        <ele>70.4</ele>
        <time>2022-10-06T08:42:48Z</time>
      </trkpt>
      <trkpt lat="44.78254" lon="-0.14377">
        <ele>70.4</ele>
        <time>2022-10-06T08:42:49Z</time>
      </trkpt>
      <trkpt lat="44.78255" lon="-0.14376">
        <ele>70.4</ele>
        <time>2022-10-06T08:42:50Z</time>
      </trkpt>
      <trkpt lat="44.78256" lon="-0.14376">
        <ele>70.3</ele>
        <time>2022-10-06T08:42:51Z</time>
      </trkpt>
      <trkpt lat="44.78256" lon="-0.14376">
        <ele>70.3</ele>
        <time>2022-10-06T08:42:52Z</time>
      </trkpt>
      <trkpt lat="44.78257" lon="-0.14376">
        <ele>70.2</ele>
        <time>2022-10-06T08:42:53Z</time>
      </trkpt>
      <trkpt lat="44.78258" lon="-0.14376">
        <ele>70.2</ele>
        <time>2022-10-06T08:42:54Z</time>
      </trkpt>
      <trkpt lat="44.78259" lon="-0.14376">
        <ele>70.1</ele>
        <time>2022-10-06T08:42:55Z</time>
      </trkpt>
      <trkpt lat="44.78261" lon="-0.14375">
        <ele>70</ele>
        <time>2022-10-06T08:42:56Z</time>
      </trkpt>
      <trkpt lat="44.78262" lon="-0.14375">
        <ele>70</ele>
        <time>2022-10-06T08:42:57Z</time>
      </trkpt>
      <trkpt lat="44.78264" lon="-0.14375">
        <ele>69.9</ele>
        <time>2022-10-06T08:42:58Z</time>
      </trkpt>
      <trkpt lat="44.78265" lon="-0.14375">
        <ele>69.9</ele>
        <time>2022-10-06T08:42:59Z</time>
      </trkpt>
      <trkpt lat="44.78265" lon="-0.14374">
        <ele>69.8</ele>
        <time>2022-10-06T08:43:00Z</time>
      </trkpt>
      <trkpt lat="44.78267" lon="-0.14374">
        <ele>69.7</ele>
        <time>2022-10-06T08:43:01Z</time>
      </trkpt>
      <trkpt lat="44.78268" lon="-0.14374">
        <ele>69.7</ele>
        <time>2022-10-06T08:43:02Z</time>
      </trkpt>
      <trkpt lat="44.78269" lon="-0.14374">
        <ele>69.6</ele>
        <time>2022-10-06T08:43:03Z</time>
      </trkpt>
      <trkpt lat="44.7827" lon="-0.14373">
        <ele>69.6</ele>
        <time>2022-10-06T08:43:04Z</time>
      </trkpt>
      <trkpt lat="44.78272" lon="-0.14372">
        <ele>69.5</ele>
        <time>2022-10-06T08:43:05Z</time>
      </trkpt>
      <trkpt lat="44.78273" lon="-0.14372">
        <ele>69.5</ele>
        <time>2022-10-06T08:43:06Z</time>
      </trkpt>
      <trkpt lat="44.78274" lon="-0.14371">
        <ele>69.4</ele>
        <time>2022-10-06T08:43:07Z</time>
      </trkpt>
      <trkpt lat="44.78275" lon="-0.1437">
        <ele>69.4</ele>
        <time>2022-10-06T08:43:08Z</time>
      </trkpt>
      <trkpt lat="44.78277" lon="-0.14369">
        <ele>69.4</ele>
        <time>2022-10-06T08:43:09Z</time>
      </trkpt>
      <trkpt lat="44.78277" lon="-0.14369">
        <ele>69.4</ele>
        <time>2022-10-06T08:43:10Z</time>
      </trkpt>
      <trkpt lat="44.78278" lon="-0.14369">
        <ele>69.3</ele>
        <time>2022-10-06T08:43:11Z</time>
      </trkpt>
      <trkpt lat="44.78279" lon="-0.14369">
        <ele>69.3</ele>
        <time>2022-10-06T08:43:12Z</time>
      </trkpt>
      <trkpt lat="44.7828" lon="-0.14369">
        <ele>69.3</ele>
        <time>2022-10-06T08:43:13Z</time>
      </trkpt>
      <trkpt lat="44.78281" lon="-0.14368">
        <ele>69.3</ele>
        <time>2022-10-06T08:43:14Z</time>
      </trkpt>
      <trkpt lat="44.78283" lon="-0.14368">
        <ele>69.2</ele>
        <time>2022-10-06T08:43:15Z</time>
      </trkpt>
      <trkpt lat="44.78284" lon="-0.14367">
        <ele>69.2</ele>
        <time>2022-10-06T08:43:16Z</time>
      </trkpt>
      <trkpt lat="44.78285" lon="-0.14367">
        <ele>69.2</ele>
        <time>2022-10-06T08:43:17Z</time>
      </trkpt>
      <trkpt lat="44.78285" lon="-0.14367">
        <ele>69.2</ele>
        <time>2022-10-06T08:43:18Z</time>
      </trkpt>
      <trkpt lat="44.78287" lon="-0.14366">
        <ele>69.2</ele>
        <time>2022-10-06T08:43:19Z</time>
      </trkpt>
      <trkpt lat="44.78288" lon="-0.14366">
        <ele>69.2</ele>
        <time>2022-10-06T08:43:20Z</time>
      </trkpt>
      <trkpt lat="44.78289" lon="-0.14366">
        <ele>69.1</ele>
        <time>2022-10-06T08:43:21Z</time>
      </trkpt>
      <trkpt lat="44.7829" lon="-0.14366">
        <ele>69.1</ele>
        <time>2022-10-06T08:43:22Z</time>
      </trkpt>
      <trkpt lat="44.78291" lon="-0.14366">
        <ele>69.1</ele>
        <time>2022-10-06T08:43:23Z</time>
      </trkpt>
      <trkpt lat="44.78291" lon="-0.14366">
        <ele>69.1</ele>
        <time>2022-10-06T08:43:24Z</time>
      </trkpt>
      <trkpt lat="44.78292" lon="-0.14367">
        <ele>69.1</ele>
        <time>2022-10-06T08:43:25Z</time>
      </trkpt>
      <trkpt lat="44.78293" lon="-0.14367">
        <ele>69.1</ele>
        <time>2022-10-06T08:43:26Z</time>
      </trkpt>
      <trkpt lat="44.78294" lon="-0.14366">
        <ele>69.1</ele>
        <time>2022-10-06T08:43:27Z</time>
      </trkpt>
      <trkpt lat="44.78294" lon="-0.14366">
        <ele>69.1</ele>
        <time>2022-10-06T08:43:28Z</time>
      </trkpt>
      <trkpt lat="44.78295" lon="-0.14366">
        <ele>69.1</ele>
        <time>2022-10-06T08:43:29Z</time>
      </trkpt>
      <trkpt lat="44.78296" lon="-0.14365">
        <ele>69</ele>
        <time>2022-10-06T08:43:30Z</time>
      </trkpt>
      <trkpt lat="44.78298" lon="-0.14365">
        <ele>69</ele>
        <time>2022-10-06T08:43:31Z</time>
      </trkpt>
      <trkpt lat="44.78298" lon="-0.14364">
        <ele>69</ele>
        <time>2022-10-06T08:43:32Z</time>
      </trkpt>
      <trkpt lat="44.783" lon="-0.14364">
        <ele>69</ele>
        <time>2022-10-06T08:43:33Z</time>
      </trkpt>
      <trkpt lat="44.783" lon="-0.14363">
        <ele>69</ele>
        <time>2022-10-06T08:43:34Z</time>
      </trkpt>
      <trkpt lat="44.78301" lon="-0.14363">
        <ele>69</ele>
        <time>2022-10-06T08:43:35Z</time>
      </trkpt>
      <trkpt lat="44.78303" lon="-0.14363">
        <ele>69</ele>
        <time>2022-10-06T08:43:36Z</time>
      </trkpt>
      <trkpt lat="44.78304" lon="-0.14363">
        <ele>69</ele>
        <time>2022-10-06T08:43:37Z</time>
      </trkpt>
      <trkpt lat="44.78305" lon="-0.14362">
        <ele>69</ele>
        <time>2022-10-06T08:43:38Z</time>
      </trkpt>
      <trkpt lat="44.78306" lon="-0.14362">
        <ele>69</ele>
        <time>2022-10-06T08:43:39Z</time>
      </trkpt>
      <trkpt lat="44.78307" lon="-0.14361">
        <ele>69</ele>
        <time>2022-10-06T08:43:40Z</time>
      </trkpt>
      <trkpt lat="44.78308" lon="-0.14361">
        <ele>68.9</ele>
        <time>2022-10-06T08:43:41Z</time>
      </trkpt>
      <trkpt lat="44.78309" lon="-0.1436">
        <ele>68.9</ele>
        <time>2022-10-06T08:43:42Z</time>
      </trkpt>
      <trkpt lat="44.78311" lon="-0.14359">
        <ele>68.9</ele>
        <time>2022-10-06T08:43:43Z</time>
      </trkpt>
      <trkpt lat="44.78312" lon="-0.14358">
        <ele>68.9</ele>
        <time>2022-10-06T08:43:44Z</time>
      </trkpt>
      <trkpt lat="44.78312" lon="-0.14358">
        <ele>68.9</ele>
        <time>2022-10-06T08:43:45Z</time>
      </trkpt>
      <trkpt lat="44.78314" lon="-0.14357">
        <ele>68.9</ele>
        <time>2022-10-06T08:43:46Z</time>
      </trkpt>
      <trkpt lat="44.78315" lon="-0.14357">
        <ele>68.9</ele>
        <time>2022-10-06T08:43:47Z</time>
      </trkpt>
      <trkpt lat="44.78316" lon="-0.14357">
        <ele>68.9</ele>
        <time>2022-10-06T08:43:48Z</time>
      </trkpt>
      <trkpt lat="44.78318" lon="-0.14357">
        <ele>68.8</ele>
        <time>2022-10-06T08:43:49Z</time>
      </trkpt>
      <trkpt lat="44.78319" lon="-0.14356">
        <ele>68.8</ele>
        <time>2022-10-06T08:43:50Z</time>
      </trkpt>
      <trkpt lat="44.7832" lon="-0.14356">
        <ele>68.8</ele>
        <time>2022-10-06T08:43:51Z</time>
      </trkpt>
      <trkpt lat="44.7832" lon="-0.14356">
        <ele>68.8</ele>
        <time>2022-10-06T08:43:52Z</time>
      </trkpt>
      <trkpt lat="44.78321" lon="-0.14356">
        <ele>68.8</ele>
        <time>2022-10-06T08:43:53Z</time>
      </trkpt>
      <trkpt lat="44.78322" lon="-0.14356">
        <ele>68.8</ele>
        <time>2022-10-06T08:43:54Z</time>
      </trkpt>
      <trkpt lat="44.78323" lon="-0.14356">
        <ele>68.7</ele>
        <time>2022-10-06T08:43:55Z</time>
      </trkpt>
      <trkpt lat="44.78325" lon="-0.14356">
        <ele>68.7</ele>
        <time>2022-10-06T08:43:56Z</time>
      </trkpt>
      <trkpt lat="44.78326" lon="-0.14356">
        <ele>68.7</ele>
        <time>2022-10-06T08:43:57Z</time>
      </trkpt>
      <trkpt lat="44.78327" lon="-0.14355">
        <ele>68.7</ele>
        <time>2022-10-06T08:43:58Z</time>
      </trkpt>
      <trkpt lat="44.78328" lon="-0.14355">
        <ele>68.7</ele>
        <time>2022-10-06T08:43:59Z</time>
      </trkpt>
      <trkpt lat="44.78329" lon="-0.14354">
        <ele>68.7</ele>
        <time>2022-10-06T08:44:00Z</time>
      </trkpt>
      <trkpt lat="44.7833" lon="-0.14354">
        <ele>68.6</ele>
        <time>2022-10-06T08:44:01Z</time>
      </trkpt>
      <trkpt lat="44.78331" lon="-0.14353">
        <ele>68.6</ele>
        <time>2022-10-06T08:44:02Z</time>
      </trkpt>
      <trkpt lat="44.78332" lon="-0.14353">
        <ele>68.6</ele>
        <time>2022-10-06T08:44:03Z</time>
      </trkpt>
      <trkpt lat="44.78333" lon="-0.14352">
        <ele>68.6</ele>
        <time>2022-10-06T08:44:04Z</time>
      </trkpt>
      <trkpt lat="44.78334" lon="-0.14352">
        <ele>68.6</ele>
        <time>2022-10-06T08:44:05Z</time>
      </trkpt>
      <trkpt lat="44.78336" lon="-0.14351">
        <ele>68.6</ele>
        <time>2022-10-06T08:44:06Z</time>
      </trkpt>
      <trkpt lat="44.78337" lon="-0.14351">
        <ele>68.5</ele>
        <time>2022-10-06T08:44:07Z</time>
      </trkpt>
      <trkpt lat="44.78338" lon="-0.14351">
        <ele>68.5</ele>
        <time>2022-10-06T08:44:08Z</time>
      </trkpt>
      <trkpt lat="44.78339" lon="-0.14351">
        <ele>68.5</ele>
        <time>2022-10-06T08:44:09Z</time>
      </trkpt>
      <trkpt lat="44.7834" lon="-0.1435">
        <ele>68.5</ele>
        <time>2022-10-06T08:44:10Z</time>
      </trkpt>
      <trkpt lat="44.78341" lon="-0.1435">
        <ele>68.5</ele>
        <time>2022-10-06T08:44:11Z</time>
      </trkpt>
      <trkpt lat="44.78342" lon="-0.1435">
        <ele>68.5</ele>
        <time>2022-10-06T08:44:12Z</time>
      </trkpt>
      <trkpt lat="44.78343" lon="-0.1435">
        <ele>68.5</ele>
        <time>2022-10-06T08:44:13Z</time>
      </trkpt>
      <trkpt lat="44.78345" lon="-0.14349">
        <ele>68.4</ele>
        <time>2022-10-06T08:44:14Z</time>
      </trkpt>
      <trkpt lat="44.78346" lon="-0.14349">
        <ele>68.4</ele>
        <time>2022-10-06T08:44:15Z</time>
      </trkpt>
      <trkpt lat="44.78347" lon="-0.14349">
        <ele>68.4</ele>
        <time>2022-10-06T08:44:16Z</time>
      </trkpt>
      <trkpt lat="44.78348" lon="-0.14348">
        <ele>68.4</ele>
        <time>2022-10-06T08:44:17Z</time>
      </trkpt>
      <trkpt lat="44.78349" lon="-0.14348">
        <ele>68.4</ele>
        <time>2022-10-06T08:44:18Z</time>
      </trkpt>
      <trkpt lat="44.7835" lon="-0.14348">
        <ele>68.4</ele>
        <time>2022-10-06T08:44:19Z</time>
      </trkpt>
      <trkpt lat="44.78351" lon="-0.14347">
        <ele>68.4</ele>
        <time>2022-10-06T08:44:20Z</time>
      </trkpt>
      <trkpt lat="44.78353" lon="-0.14346">
        <ele>68.4</ele>
        <time>2022-10-06T08:44:21Z</time>
      </trkpt>
      <trkpt lat="44.78354" lon="-0.14346">
        <ele>68.3</ele>
        <time>2022-10-06T08:44:22Z</time>
      </trkpt>
      <trkpt lat="44.78354" lon="-0.14346">
        <ele>68.3</ele>
        <time>2022-10-06T08:44:23Z</time>
      </trkpt>
      <trkpt lat="44.78356" lon="-0.14345">
        <ele>68.3</ele>
        <time>2022-10-06T08:44:24Z</time>
      </trkpt>
      <trkpt lat="44.78357" lon="-0.14344">
        <ele>68.3</ele>
        <time>2022-10-06T08:44:25Z</time>
      </trkpt>
      <trkpt lat="44.78358" lon="-0.14343">
        <ele>68.3</ele>
        <time>2022-10-06T08:44:26Z</time>
      </trkpt>
      <trkpt lat="44.78359" lon="-0.14343">
        <ele>68.3</ele>
        <time>2022-10-06T08:44:27Z</time>
      </trkpt>
      <trkpt lat="44.7836" lon="-0.14342">
        <ele>68.3</ele>
        <time>2022-10-06T08:44:28Z</time>
      </trkpt>
      <trkpt lat="44.78361" lon="-0.14342">
        <ele>68.3</ele>
        <time>2022-10-06T08:44:29Z</time>
      </trkpt>
      <trkpt lat="44.78362" lon="-0.14341">
        <ele>68.3</ele>
        <time>2022-10-06T08:44:30Z</time>
      </trkpt>
      <trkpt lat="44.78363" lon="-0.1434">
        <ele>68.3</ele>
        <time>2022-10-06T08:44:31Z</time>
      </trkpt>
      <trkpt lat="44.78365" lon="-0.14339">
        <ele>68.3</ele>
        <time>2022-10-06T08:44:32Z</time>
      </trkpt>
      <trkpt lat="44.78366" lon="-0.14339">
        <ele>68.3</ele>
        <time>2022-10-06T08:44:33Z</time>
      </trkpt>
      <trkpt lat="44.78366" lon="-0.14338">
        <ele>68.3</ele>
        <time>2022-10-06T08:44:34Z</time>
      </trkpt>
      <trkpt lat="44.78367" lon="-0.14338">
        <ele>68.3</ele>
        <time>2022-10-06T08:44:35Z</time>
      </trkpt>
      <trkpt lat="44.78369" lon="-0.14337">
        <ele>68.3</ele>
        <time>2022-10-06T08:44:36Z</time>
      </trkpt>
      <trkpt lat="44.7837" lon="-0.14337">
        <ele>68.3</ele>
        <time>2022-10-06T08:44:37Z</time>
      </trkpt>
      <trkpt lat="44.78371" lon="-0.14336">
        <ele>68.3</ele>
        <time>2022-10-06T08:44:38Z</time>
      </trkpt>
      <trkpt lat="44.78373" lon="-0.14335">
        <ele>68.3</ele>
        <time>2022-10-06T08:44:39Z</time>
      </trkpt>
      <trkpt lat="44.78374" lon="-0.14334">
        <ele>68.3</ele>
        <time>2022-10-06T08:44:40Z</time>
      </trkpt>
      <trkpt lat="44.78375" lon="-0.14334">
        <ele>68.3</ele>
        <time>2022-10-06T08:44:41Z</time>
      </trkpt>
      <trkpt lat="44.78376" lon="-0.14334">
        <ele>68.3</ele>
        <time>2022-10-06T08:44:42Z</time>
      </trkpt>
      <trkpt lat="44.78377" lon="-0.14333">
        <ele>68.3</ele>
        <time>2022-10-06T08:44:43Z</time>
      </trkpt>
      <trkpt lat="44.78378" lon="-0.14333">
        <ele>68.3</ele>
        <time>2022-10-06T08:44:44Z</time>
      </trkpt>
      <trkpt lat="44.78379" lon="-0.14333">
        <ele>68.3</ele>
        <time>2022-10-06T08:44:45Z</time>
      </trkpt>
      <trkpt lat="44.78381" lon="-0.14332">
        <ele>68.3</ele>
        <time>2022-10-06T08:44:46Z</time>
      </trkpt>
      <trkpt lat="44.78381" lon="-0.14332">
        <ele>68.3</ele>
        <time>2022-10-06T08:44:47Z</time>
      </trkpt>
      <trkpt lat="44.78383" lon="-0.14332">
        <ele>68.3</ele>
        <time>2022-10-06T08:44:48Z</time>
      </trkpt>
      <trkpt lat="44.78383" lon="-0.14331">
        <ele>68.3</ele>
        <time>2022-10-06T08:44:49Z</time>
      </trkpt>
      <trkpt lat="44.78384" lon="-0.14331">
        <ele>68.3</ele>
        <time>2022-10-06T08:44:50Z</time>
      </trkpt>
      <trkpt lat="44.78386" lon="-0.1433">
        <ele>68.4</ele>
        <time>2022-10-06T08:44:51Z</time>
      </trkpt>
      <trkpt lat="44.78387" lon="-0.1433">
        <ele>68.4</ele>
        <time>2022-10-06T08:44:52Z</time>
      </trkpt>
      <trkpt lat="44.78388" lon="-0.14329">
        <ele>68.4</ele>
        <time>2022-10-06T08:44:53Z</time>
      </trkpt>
      <trkpt lat="44.78389" lon="-0.14328">
        <ele>68.4</ele>
        <time>2022-10-06T08:44:54Z</time>
      </trkpt>
      <trkpt lat="44.78392" lon="-0.14327">
        <ele>68.5</ele>
        <time>2022-10-06T08:44:55Z</time>
      </trkpt>
      <trkpt lat="44.78393" lon="-0.14326">
        <ele>68.5</ele>
        <time>2022-10-06T08:44:57Z</time>
      </trkpt>
      <trkpt lat="44.78394" lon="-0.14326">
        <ele>68.5</ele>
        <time>2022-10-06T08:44:58Z</time>
      </trkpt>
      <trkpt lat="44.78395" lon="-0.14325">
        <ele>68.5</ele>
        <time>2022-10-06T08:44:59Z</time>
      </trkpt>
      <trkpt lat="44.78396" lon="-0.14324">
        <ele>68.6</ele>
        <time>2022-10-06T08:45:00Z</time>
      </trkpt>
      <trkpt lat="44.78397" lon="-0.14323">
        <ele>68.6</ele>
        <time>2022-10-06T08:45:01Z</time>
      </trkpt>
      <trkpt lat="44.78398" lon="-0.14322">
        <ele>68.6</ele>
        <time>2022-10-06T08:45:02Z</time>
      </trkpt>
      <trkpt lat="44.78399" lon="-0.14321">
        <ele>68.6</ele>
        <time>2022-10-06T08:45:03Z</time>
      </trkpt>
      <trkpt lat="44.784" lon="-0.14321">
        <ele>68.7</ele>
        <time>2022-10-06T08:45:04Z</time>
      </trkpt>
      <trkpt lat="44.78401" lon="-0.1432">
        <ele>68.7</ele>
        <time>2022-10-06T08:45:05Z</time>
      </trkpt>
      <trkpt lat="44.78402" lon="-0.14319">
        <ele>68.8</ele>
        <time>2022-10-06T08:45:06Z</time>
      </trkpt>
      <trkpt lat="44.78403" lon="-0.14318">
        <ele>68.8</ele>
        <time>2022-10-06T08:45:07Z</time>
      </trkpt>
      <trkpt lat="44.78404" lon="-0.14317">
        <ele>68.8</ele>
        <time>2022-10-06T08:45:08Z</time>
      </trkpt>
      <trkpt lat="44.78405" lon="-0.14317">
        <ele>68.9</ele>
        <time>2022-10-06T08:45:09Z</time>
      </trkpt>
      <trkpt lat="44.78406" lon="-0.14316">
        <ele>68.9</ele>
        <time>2022-10-06T08:45:10Z</time>
      </trkpt>
      <trkpt lat="44.78407" lon="-0.14315">
        <ele>69</ele>
        <time>2022-10-06T08:45:11Z</time>
      </trkpt>
      <trkpt lat="44.78408" lon="-0.14313">
        <ele>69</ele>
        <time>2022-10-06T08:45:12Z</time>
      </trkpt>
      <trkpt lat="44.7841" lon="-0.14311">
        <ele>69.1</ele>
        <time>2022-10-06T08:45:13Z</time>
      </trkpt>
      <trkpt lat="44.7841" lon="-0.14311">
        <ele>69.1</ele>
        <time>2022-10-06T08:45:14Z</time>
      </trkpt>
      <trkpt lat="44.78411" lon="-0.1431">
        <ele>69.2</ele>
        <time>2022-10-06T08:45:15Z</time>
      </trkpt>
      <trkpt lat="44.78412" lon="-0.14309">
        <ele>69.2</ele>
        <time>2022-10-06T08:45:16Z</time>
      </trkpt>
      <trkpt lat="44.78413" lon="-0.14307">
        <ele>69.3</ele>
        <time>2022-10-06T08:45:17Z</time>
      </trkpt>
      <trkpt lat="44.78414" lon="-0.14307">
        <ele>69.3</ele>
        <time>2022-10-06T08:45:18Z</time>
      </trkpt>
      <trkpt lat="44.78415" lon="-0.14306">
        <ele>69.4</ele>
        <time>2022-10-06T08:45:19Z</time>
      </trkpt>
      <trkpt lat="44.78416" lon="-0.14305">
        <ele>69.4</ele>
        <time>2022-10-06T08:45:20Z</time>
      </trkpt>
      <trkpt lat="44.78417" lon="-0.14304">
        <ele>69.5</ele>
        <time>2022-10-06T08:45:21Z</time>
      </trkpt>
      <trkpt lat="44.78419" lon="-0.14303">
        <ele>69.5</ele>
        <time>2022-10-06T08:45:22Z</time>
      </trkpt>
      <trkpt lat="44.7842" lon="-0.14303">
        <ele>69.6</ele>
        <time>2022-10-06T08:45:23Z</time>
      </trkpt>
      <trkpt lat="44.7842" lon="-0.14302">
        <ele>69.6</ele>
        <time>2022-10-06T08:45:24Z</time>
      </trkpt>
      <trkpt lat="44.78422" lon="-0.14301">
        <ele>69.7</ele>
        <time>2022-10-06T08:45:25Z</time>
      </trkpt>
      <trkpt lat="44.78423" lon="-0.143">
        <ele>69.7</ele>
        <time>2022-10-06T08:45:26Z</time>
      </trkpt>
      <trkpt lat="44.78425" lon="-0.14299">
        <ele>69.8</ele>
        <time>2022-10-06T08:45:27Z</time>
      </trkpt>
      <trkpt lat="44.78425" lon="-0.14298">
        <ele>69.9</ele>
        <time>2022-10-06T08:45:28Z</time>
      </trkpt>
      <trkpt lat="44.78426" lon="-0.14297">
        <ele>69.9</ele>
        <time>2022-10-06T08:45:29Z</time>
      </trkpt>
      <trkpt lat="44.78427" lon="-0.14296">
        <ele>70</ele>
        <time>2022-10-06T08:45:30Z</time>
      </trkpt>
      <trkpt lat="44.78428" lon="-0.14294">
        <ele>70</ele>
        <time>2022-10-06T08:45:31Z</time>
      </trkpt>
      <trkpt lat="44.78429" lon="-0.14293">
        <ele>70.1</ele>
        <time>2022-10-06T08:45:32Z</time>
      </trkpt>
      <trkpt lat="44.7843" lon="-0.14292">
        <ele>70.1</ele>
        <time>2022-10-06T08:45:33Z</time>
      </trkpt>
      <trkpt lat="44.78431" lon="-0.14291">
        <ele>70.2</ele>
        <time>2022-10-06T08:45:34Z</time>
      </trkpt>
      <trkpt lat="44.78432" lon="-0.14291">
        <ele>70.2</ele>
        <time>2022-10-06T08:45:35Z</time>
      </trkpt>
      <trkpt lat="44.78432" lon="-0.1429">
        <ele>70.2</ele>
        <time>2022-10-06T08:45:36Z</time>
      </trkpt>
      <trkpt lat="44.78434" lon="-0.14288">
        <ele>70.3</ele>
        <time>2022-10-06T08:45:37Z</time>
      </trkpt>
      <trkpt lat="44.78434" lon="-0.14287">
        <ele>70.3</ele>
        <time>2022-10-06T08:45:38Z</time>
      </trkpt>
      <trkpt lat="44.78435" lon="-0.14286">
        <ele>70.4</ele>
        <time>2022-10-06T08:45:39Z</time>
      </trkpt>
      <trkpt lat="44.78436" lon="-0.14285">
        <ele>70.4</ele>
        <time>2022-10-06T08:45:40Z</time>
      </trkpt>
      <trkpt lat="44.78437" lon="-0.14284">
        <ele>70.5</ele>
        <time>2022-10-06T08:45:41Z</time>
      </trkpt>
      <trkpt lat="44.78438" lon="-0.14283">
        <ele>70.6</ele>
        <time>2022-10-06T08:45:42Z</time>
      </trkpt>
      <trkpt lat="44.78439" lon="-0.14282">
        <ele>70.6</ele>
        <time>2022-10-06T08:45:43Z</time>
      </trkpt>
      <trkpt lat="44.78439" lon="-0.14281">
        <ele>70.6</ele>
        <time>2022-10-06T08:45:44Z</time>
      </trkpt>
      <trkpt lat="44.78441" lon="-0.14278">
        <ele>70.7</ele>
        <time>2022-10-06T08:45:45Z</time>
      </trkpt>
      <trkpt lat="44.78442" lon="-0.14277">
        <ele>70.8</ele>
        <time>2022-10-06T08:45:46Z</time>
      </trkpt>
      <trkpt lat="44.78443" lon="-0.14276">
        <ele>70.9</ele>
        <time>2022-10-06T08:45:47Z</time>
      </trkpt>
      <trkpt lat="44.78443" lon="-0.14275">
        <ele>70.9</ele>
        <time>2022-10-06T08:45:49Z</time>
      </trkpt>
      <trkpt lat="44.78445" lon="-0.14273">
        <ele>71</ele>
        <time>2022-10-06T08:45:50Z</time>
      </trkpt>
      <trkpt lat="44.78446" lon="-0.14271">
        <ele>71.1</ele>
        <time>2022-10-06T08:45:52Z</time>
      </trkpt>
      <trkpt lat="44.78447" lon="-0.1427">
        <ele>71.1</ele>
        <time>2022-10-06T08:45:53Z</time>
      </trkpt>
      <trkpt lat="44.78448" lon="-0.14269">
        <ele>71.2</ele>
        <time>2022-10-06T08:45:54Z</time>
      </trkpt>
      <trkpt lat="44.7845" lon="-0.14267">
        <ele>71.3</ele>
        <time>2022-10-06T08:45:55Z</time>
      </trkpt>
      <trkpt lat="44.78451" lon="-0.14266">
        <ele>71.4</ele>
        <time>2022-10-06T08:45:57Z</time>
      </trkpt>
      <trkpt lat="44.78452" lon="-0.14265">
        <ele>71.4</ele>
        <time>2022-10-06T08:45:58Z</time>
      </trkpt>
      <trkpt lat="44.78452" lon="-0.14263">
        <ele>71.5</ele>
        <time>2022-10-06T08:45:59Z</time>
      </trkpt>
      <trkpt lat="44.78454" lon="-0.14261">
        <ele>71.6</ele>
        <time>2022-10-06T08:46:00Z</time>
      </trkpt>
      <trkpt lat="44.78455" lon="-0.14259">
        <ele>71.6</ele>
        <time>2022-10-06T08:46:02Z</time>
      </trkpt>
      <trkpt lat="44.78456" lon="-0.14259">
        <ele>71.7</ele>
        <time>2022-10-06T08:46:03Z</time>
      </trkpt>
      <trkpt lat="44.78457" lon="-0.14258">
        <ele>71.7</ele>
        <time>2022-10-06T08:46:04Z</time>
      </trkpt>
      <trkpt lat="44.78458" lon="-0.14257">
        <ele>71.8</ele>
        <time>2022-10-06T08:46:05Z</time>
      </trkpt>
      <trkpt lat="44.78459" lon="-0.14256">
        <ele>71.8</ele>
        <time>2022-10-06T08:46:06Z</time>
      </trkpt>
      <trkpt lat="44.7846" lon="-0.14255">
        <ele>71.9</ele>
        <time>2022-10-06T08:46:07Z</time>
      </trkpt>
      <trkpt lat="44.78461" lon="-0.14254">
        <ele>71.9</ele>
        <time>2022-10-06T08:46:08Z</time>
      </trkpt>
      <trkpt lat="44.78462" lon="-0.14252">
        <ele>72</ele>
        <time>2022-10-06T08:46:09Z</time>
      </trkpt>
      <trkpt lat="44.78463" lon="-0.14251">
        <ele>72.1</ele>
        <time>2022-10-06T08:46:10Z</time>
      </trkpt>
      <trkpt lat="44.78464" lon="-0.14251">
        <ele>72.1</ele>
        <time>2022-10-06T08:46:11Z</time>
      </trkpt>
      <trkpt lat="44.78465" lon="-0.14249">
        <ele>72.2</ele>
        <time>2022-10-06T08:46:12Z</time>
      </trkpt>
      <trkpt lat="44.78465" lon="-0.14248">
        <ele>72.2</ele>
        <time>2022-10-06T08:46:13Z</time>
      </trkpt>
      <trkpt lat="44.78466" lon="-0.14247">
        <ele>72.2</ele>
        <time>2022-10-06T08:46:14Z</time>
      </trkpt>
      <trkpt lat="44.78467" lon="-0.14244">
        <ele>72.3</ele>
        <time>2022-10-06T08:46:15Z</time>
      </trkpt>
      <trkpt lat="44.78468" lon="-0.14242">
        <ele>72.4</ele>
        <time>2022-10-06T08:46:17Z</time>
      </trkpt>
      <trkpt lat="44.78469" lon="-0.14241">
        <ele>72.4</ele>
        <time>2022-10-06T08:46:18Z</time>
      </trkpt>
      <trkpt lat="44.7847" lon="-0.1424">
        <ele>72.5</ele>
        <time>2022-10-06T08:46:19Z</time>
      </trkpt>
      <trkpt lat="44.78471" lon="-0.14239">
        <ele>72.5</ele>
        <time>2022-10-06T08:46:20Z</time>
      </trkpt>
      <trkpt lat="44.78471" lon="-0.14237">
        <ele>72.5</ele>
        <time>2022-10-06T08:46:21Z</time>
      </trkpt>
      <trkpt lat="44.78472" lon="-0.14236">
        <ele>72.6</ele>
        <time>2022-10-06T08:46:22Z</time>
      </trkpt>
      <trkpt lat="44.78473" lon="-0.14235">
        <ele>72.6</ele>
        <time>2022-10-06T08:46:23Z</time>
      </trkpt>
      <trkpt lat="44.78474" lon="-0.14234">
        <ele>72.6</ele>
        <time>2022-10-06T08:46:24Z</time>
      </trkpt>
      <trkpt lat="44.78474" lon="-0.14232">
        <ele>72.7</ele>
        <time>2022-10-06T08:46:25Z</time>
      </trkpt>
      <trkpt lat="44.78475" lon="-0.14231">
        <ele>72.7</ele>
        <time>2022-10-06T08:46:26Z</time>
      </trkpt>
      <trkpt lat="44.78476" lon="-0.14229">
        <ele>72.8</ele>
        <time>2022-10-06T08:46:27Z</time>
      </trkpt>
      <trkpt lat="44.78477" lon="-0.14228">
        <ele>72.8</ele>
        <time>2022-10-06T08:46:28Z</time>
      </trkpt>
      <trkpt lat="44.78478" lon="-0.14227">
        <ele>72.8</ele>
        <time>2022-10-06T08:46:29Z</time>
      </trkpt>
      <trkpt lat="44.78478" lon="-0.14225">
        <ele>72.8</ele>
        <time>2022-10-06T08:46:30Z</time>
      </trkpt>
      <trkpt lat="44.78479" lon="-0.14224">
        <ele>72.9</ele>
        <time>2022-10-06T08:46:31Z</time>
      </trkpt>
      <trkpt lat="44.7848" lon="-0.14222">
        <ele>72.9</ele>
        <time>2022-10-06T08:46:32Z</time>
      </trkpt>
      <trkpt lat="44.78481" lon="-0.14221">
        <ele>72.9</ele>
        <time>2022-10-06T08:46:33Z</time>
      </trkpt>
      <trkpt lat="44.78481" lon="-0.1422">
        <ele>73</ele>
        <time>2022-10-06T08:46:34Z</time>
      </trkpt>
      <trkpt lat="44.78482" lon="-0.14219">
        <ele>73</ele>
        <time>2022-10-06T08:46:35Z</time>
      </trkpt>
      <trkpt lat="44.78483" lon="-0.14218">
        <ele>73</ele>
        <time>2022-10-06T08:46:36Z</time>
      </trkpt>
      <trkpt lat="44.78484" lon="-0.14216">
        <ele>73</ele>
        <time>2022-10-06T08:46:37Z</time>
      </trkpt>
      <trkpt lat="44.78484" lon="-0.14215">
        <ele>73</ele>
        <time>2022-10-06T08:46:38Z</time>
      </trkpt>
      <trkpt lat="44.78485" lon="-0.14213">
        <ele>73.1</ele>
        <time>2022-10-06T08:46:39Z</time>
      </trkpt>
      <trkpt lat="44.78486" lon="-0.14211">
        <ele>73.1</ele>
        <time>2022-10-06T08:46:40Z</time>
      </trkpt>
      <trkpt lat="44.78487" lon="-0.14209">
        <ele>73.1</ele>
        <time>2022-10-06T08:46:42Z</time>
      </trkpt>
      <trkpt lat="44.78488" lon="-0.14208">
        <ele>73.1</ele>
        <time>2022-10-06T08:46:43Z</time>
      </trkpt>
      <trkpt lat="44.78489" lon="-0.14206">
        <ele>73.2</ele>
        <time>2022-10-06T08:46:44Z</time>
      </trkpt>
      <trkpt lat="44.7849" lon="-0.14203">
        <ele>73.2</ele>
        <time>2022-10-06T08:46:46Z</time>
      </trkpt>
      <trkpt lat="44.78491" lon="-0.14202">
        <ele>73.2</ele>
        <time>2022-10-06T08:46:47Z</time>
      </trkpt>
      <trkpt lat="44.78491" lon="-0.14201">
        <ele>73.2</ele>
        <time>2022-10-06T08:46:48Z</time>
      </trkpt>
      <trkpt lat="44.78492" lon="-0.142">
        <ele>73.2</ele>
        <time>2022-10-06T08:46:49Z</time>
      </trkpt>
      <trkpt lat="44.78492" lon="-0.14199">
        <ele>73.2</ele>
        <time>2022-10-06T08:46:50Z</time>
      </trkpt>
      <trkpt lat="44.78493" lon="-0.14198">
        <ele>73.3</ele>
        <time>2022-10-06T08:46:51Z</time>
      </trkpt>
      <trkpt lat="44.78494" lon="-0.14196">
        <ele>73.3</ele>
        <time>2022-10-06T08:46:52Z</time>
      </trkpt>
      <trkpt lat="44.78495" lon="-0.14195">
        <ele>73.3</ele>
        <time>2022-10-06T08:46:53Z</time>
      </trkpt>
      <trkpt lat="44.78495" lon="-0.14194">
        <ele>73.3</ele>
        <time>2022-10-06T08:46:54Z</time>
      </trkpt>
      <trkpt lat="44.78497" lon="-0.14192">
        <ele>73.3</ele>
        <time>2022-10-06T08:46:55Z</time>
      </trkpt>
      <trkpt lat="44.78498" lon="-0.1419">
        <ele>73.3</ele>
        <time>2022-10-06T08:46:56Z</time>
      </trkpt>
      <trkpt lat="44.78498" lon="-0.14189">
        <ele>73.3</ele>
        <time>2022-10-06T08:46:57Z</time>
      </trkpt>
      <trkpt lat="44.78499" lon="-0.14189">
        <ele>73.4</ele>
        <time>2022-10-06T08:46:58Z</time>
      </trkpt>
      <trkpt lat="44.785" lon="-0.14186">
        <ele>73.4</ele>
        <time>2022-10-06T08:46:59Z</time>
      </trkpt>
      <trkpt lat="44.78501" lon="-0.14185">
        <ele>73.4</ele>
        <time>2022-10-06T08:47:01Z</time>
      </trkpt>
      <trkpt lat="44.78502" lon="-0.14183">
        <ele>73.4</ele>
        <time>2022-10-06T08:47:02Z</time>
      </trkpt>
      <trkpt lat="44.78502" lon="-0.14182">
        <ele>73.4</ele>
        <time>2022-10-06T08:47:03Z</time>
      </trkpt>
      <trkpt lat="44.78503" lon="-0.14181">
        <ele>73.4</ele>
        <time>2022-10-06T08:47:04Z</time>
      </trkpt>
      <trkpt lat="44.78504" lon="-0.14179">
        <ele>73.4</ele>
        <time>2022-10-06T08:47:05Z</time>
      </trkpt>
      <trkpt lat="44.78505" lon="-0.14178">
        <ele>73.5</ele>
        <time>2022-10-06T08:47:06Z</time>
      </trkpt>
      <trkpt lat="44.78505" lon="-0.14177">
        <ele>73.5</ele>
        <time>2022-10-06T08:47:07Z</time>
      </trkpt>
      <trkpt lat="44.78505" lon="-0.14176">
        <ele>73.5</ele>
        <time>2022-10-06T08:47:08Z</time>
      </trkpt>
      <trkpt lat="44.78507" lon="-0.14173">
        <ele>73.5</ele>
        <time>2022-10-06T08:47:09Z</time>
      </trkpt>
      <trkpt lat="44.78507" lon="-0.14172">
        <ele>73.5</ele>
        <time>2022-10-06T08:47:11Z</time>
      </trkpt>
      <trkpt lat="44.78508" lon="-0.14169">
        <ele>73.5</ele>
        <time>2022-10-06T08:47:12Z</time>
      </trkpt>
      <trkpt lat="44.78509" lon="-0.14168">
        <ele>73.5</ele>
        <time>2022-10-06T08:47:13Z</time>
      </trkpt>
      <trkpt lat="44.78509" lon="-0.14167">
        <ele>73.6</ele>
        <time>2022-10-06T08:47:14Z</time>
      </trkpt>
      <trkpt lat="44.7851" lon="-0.14166">
        <ele>73.6</ele>
        <time>2022-10-06T08:47:15Z</time>
      </trkpt>
      <trkpt lat="44.78511" lon="-0.14165">
        <ele>73.6</ele>
        <time>2022-10-06T08:47:16Z</time>
      </trkpt>
      <trkpt lat="44.78512" lon="-0.14162">
        <ele>73.6</ele>
        <time>2022-10-06T08:47:17Z</time>
      </trkpt>
      <trkpt lat="44.78513" lon="-0.1416">
        <ele>73.6</ele>
        <time>2022-10-06T08:47:18Z</time>
      </trkpt>
      <trkpt lat="44.78513" lon="-0.14158">
        <ele>73.7</ele>
        <time>2022-10-06T08:47:19Z</time>
      </trkpt>
      <trkpt lat="44.78514" lon="-0.14157">
        <ele>73.7</ele>
        <time>2022-10-06T08:47:21Z</time>
      </trkpt>
      <trkpt lat="44.78515" lon="-0.14155">
        <ele>73.7</ele>
        <time>2022-10-06T08:47:22Z</time>
      </trkpt>
      <trkpt lat="44.78516" lon="-0.14154">
        <ele>73.7</ele>
        <time>2022-10-06T08:47:23Z</time>
      </trkpt>
      <trkpt lat="44.78516" lon="-0.14153">
        <ele>73.7</ele>
        <time>2022-10-06T08:47:24Z</time>
      </trkpt>
      <trkpt lat="44.78517" lon="-0.14152">
        <ele>73.7</ele>
        <time>2022-10-06T08:47:25Z</time>
      </trkpt>
      <trkpt lat="44.78518" lon="-0.14151">
        <ele>73.8</ele>
        <time>2022-10-06T08:47:26Z</time>
      </trkpt>
      <trkpt lat="44.78519" lon="-0.1415">
        <ele>73.8</ele>
        <time>2022-10-06T08:47:27Z</time>
      </trkpt>
      <trkpt lat="44.78519" lon="-0.1415">
        <ele>73.8</ele>
        <time>2022-10-06T08:47:28Z</time>
      </trkpt>
      <trkpt lat="44.7852" lon="-0.14149">
        <ele>73.8</ele>
        <time>2022-10-06T08:47:29Z</time>
      </trkpt>
      <trkpt lat="44.78522" lon="-0.14148">
        <ele>73.8</ele>
        <time>2022-10-06T08:47:30Z</time>
      </trkpt>
      <trkpt lat="44.78523" lon="-0.14147">
        <ele>73.9</ele>
        <time>2022-10-06T08:47:31Z</time>
      </trkpt>
      <trkpt lat="44.78524" lon="-0.14146">
        <ele>73.9</ele>
        <time>2022-10-06T08:47:32Z</time>
      </trkpt>
      <trkpt lat="44.78525" lon="-0.14145">
        <ele>73.9</ele>
        <time>2022-10-06T08:47:33Z</time>
      </trkpt>
      <trkpt lat="44.78526" lon="-0.14144">
        <ele>73.9</ele>
        <time>2022-10-06T08:47:34Z</time>
      </trkpt>
      <trkpt lat="44.78527" lon="-0.14143">
        <ele>73.9</ele>
        <time>2022-10-06T08:47:35Z</time>
      </trkpt>
      <trkpt lat="44.78527" lon="-0.14143">
        <ele>73.9</ele>
        <time>2022-10-06T08:47:36Z</time>
      </trkpt>
      <trkpt lat="44.78528" lon="-0.1414">
        <ele>74</ele>
        <time>2022-10-06T08:47:37Z</time>
      </trkpt>
      <trkpt lat="44.78529" lon="-0.1414">
        <ele>74</ele>
        <time>2022-10-06T08:47:38Z</time>
      </trkpt>
      <trkpt lat="44.78529" lon="-0.14139">
        <ele>74</ele>
        <time>2022-10-06T08:47:39Z</time>
      </trkpt>
      <trkpt lat="44.78531" lon="-0.14137">
        <ele>74.1</ele>
        <time>2022-10-06T08:47:40Z</time>
      </trkpt>
      <trkpt lat="44.78532" lon="-0.14136">
        <ele>74.1</ele>
        <time>2022-10-06T08:47:41Z</time>
      </trkpt>
      <trkpt lat="44.78532" lon="-0.14136">
        <ele>74.1</ele>
        <time>2022-10-06T08:47:42Z</time>
      </trkpt>
      <trkpt lat="44.78533" lon="-0.14135">
        <ele>74.1</ele>
        <time>2022-10-06T08:47:43Z</time>
      </trkpt>
      <trkpt lat="44.78534" lon="-0.14134">
        <ele>74.1</ele>
        <time>2022-10-06T08:47:44Z</time>
      </trkpt>
      <trkpt lat="44.78535" lon="-0.14133">
        <ele>74.2</ele>
        <time>2022-10-06T08:47:45Z</time>
      </trkpt>
      <trkpt lat="44.78536" lon="-0.14132">
        <ele>74.2</ele>
        <time>2022-10-06T08:47:46Z</time>
      </trkpt>
      <trkpt lat="44.78537" lon="-0.1413">
        <ele>74.2</ele>
        <time>2022-10-06T08:47:47Z</time>
      </trkpt>
      <trkpt lat="44.78538" lon="-0.1413">
        <ele>74.2</ele>
        <time>2022-10-06T08:47:48Z</time>
      </trkpt>
      <trkpt lat="44.78538" lon="-0.14129">
        <ele>74.3</ele>
        <time>2022-10-06T08:47:49Z</time>
      </trkpt>
      <trkpt lat="44.78539" lon="-0.14127">
        <ele>74.3</ele>
        <time>2022-10-06T08:47:50Z</time>
      </trkpt>
      <trkpt lat="44.7854" lon="-0.14126">
        <ele>74.3</ele>
        <time>2022-10-06T08:47:51Z</time>
      </trkpt>
      <trkpt lat="44.78541" lon="-0.14125">
        <ele>74.3</ele>
        <time>2022-10-06T08:47:52Z</time>
      </trkpt>
      <trkpt lat="44.78542" lon="-0.14124">
        <ele>74.4</ele>
        <time>2022-10-06T08:47:53Z</time>
      </trkpt>
      <trkpt lat="44.78543" lon="-0.14123">
        <ele>74.4</ele>
        <time>2022-10-06T08:47:54Z</time>
      </trkpt>
      <trkpt lat="44.78544" lon="-0.14122">
        <ele>74.4</ele>
        <time>2022-10-06T08:47:55Z</time>
      </trkpt>
      <trkpt lat="44.78544" lon="-0.14121">
        <ele>74.4</ele>
        <time>2022-10-06T08:47:56Z</time>
      </trkpt>
      <trkpt lat="44.78546" lon="-0.1412">
        <ele>74.5</ele>
        <time>2022-10-06T08:47:57Z</time>
      </trkpt>
      <trkpt lat="44.78547" lon="-0.14119">
        <ele>74.5</ele>
        <time>2022-10-06T08:47:58Z</time>
      </trkpt>
      <trkpt lat="44.78547" lon="-0.14119">
        <ele>74.5</ele>
        <time>2022-10-06T08:47:59Z</time>
      </trkpt>
      <trkpt lat="44.78549" lon="-0.14117">
        <ele>74.5</ele>
        <time>2022-10-06T08:48:00Z</time>
      </trkpt>
      <trkpt lat="44.7855" lon="-0.14117">
        <ele>74.5</ele>
        <time>2022-10-06T08:48:01Z</time>
      </trkpt>
      <trkpt lat="44.78551" lon="-0.14116">
        <ele>74.6</ele>
        <time>2022-10-06T08:48:02Z</time>
      </trkpt>
      <trkpt lat="44.78551" lon="-0.14116">
        <ele>74.6</ele>
        <time>2022-10-06T08:48:03Z</time>
      </trkpt>
      <trkpt lat="44.78552" lon="-0.14115">
        <ele>74.6</ele>
        <time>2022-10-06T08:48:04Z</time>
      </trkpt>
      <trkpt lat="44.78553" lon="-0.14113">
        <ele>74.6</ele>
        <time>2022-10-06T08:48:05Z</time>
      </trkpt>
      <trkpt lat="44.78554" lon="-0.14112">
        <ele>74.6</ele>
        <time>2022-10-06T08:48:06Z</time>
      </trkpt>
      <trkpt lat="44.78555" lon="-0.1411">
        <ele>74.6</ele>
        <time>2022-10-06T08:48:07Z</time>
      </trkpt>
      <trkpt lat="44.78556" lon="-0.14109">
        <ele>74.6</ele>
        <time>2022-10-06T08:48:08Z</time>
      </trkpt>
      <trkpt lat="44.78557" lon="-0.14108">
        <ele>74.7</ele>
        <time>2022-10-06T08:48:09Z</time>
      </trkpt>
      <trkpt lat="44.78558" lon="-0.14108">
        <ele>74.7</ele>
        <time>2022-10-06T08:48:10Z</time>
      </trkpt>
      <trkpt lat="44.78558" lon="-0.14107">
        <ele>74.7</ele>
        <time>2022-10-06T08:48:11Z</time>
      </trkpt>
      <trkpt lat="44.78559" lon="-0.14106">
        <ele>74.7</ele>
        <time>2022-10-06T08:48:12Z</time>
      </trkpt>
      <trkpt lat="44.7856" lon="-0.14105">
        <ele>74.7</ele>
        <time>2022-10-06T08:48:13Z</time>
      </trkpt>
      <trkpt lat="44.78561" lon="-0.14104">
        <ele>74.7</ele>
        <time>2022-10-06T08:48:14Z</time>
      </trkpt>
      <trkpt lat="44.78563" lon="-0.14103">
        <ele>74.7</ele>
        <time>2022-10-06T08:48:15Z</time>
      </trkpt>
      <trkpt lat="44.78564" lon="-0.14102">
        <ele>74.7</ele>
        <time>2022-10-06T08:48:16Z</time>
      </trkpt>
      <trkpt lat="44.78565" lon="-0.14101">
        <ele>74.7</ele>
        <time>2022-10-06T08:48:17Z</time>
      </trkpt>
      <trkpt lat="44.78565" lon="-0.141">
        <ele>74.7</ele>
        <time>2022-10-06T08:48:18Z</time>
      </trkpt>
      <trkpt lat="44.78566" lon="-0.141">
        <ele>74.7</ele>
        <time>2022-10-06T08:48:19Z</time>
      </trkpt>
      <trkpt lat="44.78567" lon="-0.14099">
        <ele>74.7</ele>
        <time>2022-10-06T08:48:20Z</time>
      </trkpt>
      <trkpt lat="44.78568" lon="-0.14098">
        <ele>74.7</ele>
        <time>2022-10-06T08:48:21Z</time>
      </trkpt>
      <trkpt lat="44.7857" lon="-0.14096">
        <ele>74.7</ele>
        <time>2022-10-06T08:48:22Z</time>
      </trkpt>
      <trkpt lat="44.7857" lon="-0.14096">
        <ele>74.7</ele>
        <time>2022-10-06T08:48:23Z</time>
      </trkpt>
      <trkpt lat="44.78571" lon="-0.14095">
        <ele>74.7</ele>
        <time>2022-10-06T08:48:24Z</time>
      </trkpt>
      <trkpt lat="44.78572" lon="-0.14094">
        <ele>74.7</ele>
        <time>2022-10-06T08:48:25Z</time>
      </trkpt>
      <trkpt lat="44.78574" lon="-0.14093">
        <ele>74.7</ele>
        <time>2022-10-06T08:48:26Z</time>
      </trkpt>
      <trkpt lat="44.78575" lon="-0.14092">
        <ele>74.7</ele>
        <time>2022-10-06T08:48:27Z</time>
      </trkpt>
      <trkpt lat="44.78576" lon="-0.14092">
        <ele>74.7</ele>
        <time>2022-10-06T08:48:28Z</time>
      </trkpt>
      <trkpt lat="44.78577" lon="-0.14091">
        <ele>74.7</ele>
        <time>2022-10-06T08:48:29Z</time>
      </trkpt>
      <trkpt lat="44.78578" lon="-0.14091">
        <ele>74.7</ele>
        <time>2022-10-06T08:48:30Z</time>
      </trkpt>
      <trkpt lat="44.78579" lon="-0.1409">
        <ele>74.6</ele>
        <time>2022-10-06T08:48:31Z</time>
      </trkpt>
      <trkpt lat="44.78581" lon="-0.14089">
        <ele>74.6</ele>
        <time>2022-10-06T08:48:32Z</time>
      </trkpt>
      <trkpt lat="44.78582" lon="-0.14088">
        <ele>74.6</ele>
        <time>2022-10-06T08:48:33Z</time>
      </trkpt>
      <trkpt lat="44.78583" lon="-0.14087">
        <ele>74.6</ele>
        <time>2022-10-06T08:48:34Z</time>
      </trkpt>
      <trkpt lat="44.78584" lon="-0.14087">
        <ele>74.6</ele>
        <time>2022-10-06T08:48:35Z</time>
      </trkpt>
      <trkpt lat="44.78585" lon="-0.14086">
        <ele>74.6</ele>
        <time>2022-10-06T08:48:36Z</time>
      </trkpt>
      <trkpt lat="44.78587" lon="-0.14085">
        <ele>74.5</ele>
        <time>2022-10-06T08:48:37Z</time>
      </trkpt>
      <trkpt lat="44.78588" lon="-0.14085">
        <ele>74.5</ele>
        <time>2022-10-06T08:48:38Z</time>
      </trkpt>
      <trkpt lat="44.78589" lon="-0.14085">
        <ele>74.5</ele>
        <time>2022-10-06T08:48:39Z</time>
      </trkpt>
      <trkpt lat="44.7859" lon="-0.14084">
        <ele>74.5</ele>
        <time>2022-10-06T08:48:40Z</time>
      </trkpt>
      <trkpt lat="44.78592" lon="-0.14083">
        <ele>74.5</ele>
        <time>2022-10-06T08:48:41Z</time>
      </trkpt>
      <trkpt lat="44.78593" lon="-0.14083">
        <ele>74.5</ele>
        <time>2022-10-06T08:48:42Z</time>
      </trkpt>
      <trkpt lat="44.78593" lon="-0.14082">
        <ele>74.5</ele>
        <time>2022-10-06T08:48:43Z</time>
      </trkpt>
      <trkpt lat="44.78596" lon="-0.1408">
        <ele>74.4</ele>
        <time>2022-10-06T08:48:44Z</time>
      </trkpt>
      <trkpt lat="44.78596" lon="-0.1408">
        <ele>74.4</ele>
        <time>2022-10-06T08:48:45Z</time>
      </trkpt>
      <trkpt lat="44.78596" lon="-0.14079">
        <ele>74.4</ele>
        <time>2022-10-06T08:48:46Z</time>
      </trkpt>
      <trkpt lat="44.78598" lon="-0.14078">
        <ele>74.4</ele>
        <time>2022-10-06T08:48:47Z</time>
      </trkpt>
      <trkpt lat="44.78599" lon="-0.14077">
        <ele>74.4</ele>
        <time>2022-10-06T08:48:48Z</time>
      </trkpt>
      <trkpt lat="44.786" lon="-0.14076">
        <ele>74.3</ele>
        <time>2022-10-06T08:48:49Z</time>
      </trkpt>
      <trkpt lat="44.78601" lon="-0.14076">
        <ele>74.3</ele>
        <time>2022-10-06T08:48:50Z</time>
      </trkpt>
      <trkpt lat="44.78604" lon="-0.14074">
        <ele>74.3</ele>
        <time>2022-10-06T08:48:51Z</time>
      </trkpt>
      <trkpt lat="44.78604" lon="-0.14074">
        <ele>74.3</ele>
        <time>2022-10-06T08:48:53Z</time>
      </trkpt>
      <trkpt lat="44.78605" lon="-0.14073">
        <ele>74.2</ele>
        <time>2022-10-06T08:48:54Z</time>
      </trkpt>
      <trkpt lat="44.78606" lon="-0.14072">
        <ele>74.2</ele>
        <time>2022-10-06T08:48:55Z</time>
      </trkpt>
      <trkpt lat="44.78607" lon="-0.14072">
        <ele>74.2</ele>
        <time>2022-10-06T08:48:56Z</time>
      </trkpt>
      <trkpt lat="44.7861" lon="-0.1407">
        <ele>74.1</ele>
        <time>2022-10-06T08:48:57Z</time>
      </trkpt>
      <trkpt lat="44.7861" lon="-0.1407">
        <ele>74.1</ele>
        <time>2022-10-06T08:48:58Z</time>
      </trkpt>
      <trkpt lat="44.78611" lon="-0.1407">
        <ele>74.1</ele>
        <time>2022-10-06T08:48:59Z</time>
      </trkpt>
      <trkpt lat="44.78613" lon="-0.14069">
        <ele>74.1</ele>
        <time>2022-10-06T08:49:00Z</time>
      </trkpt>
      <trkpt lat="44.78614" lon="-0.14068">
        <ele>74.1</ele>
        <time>2022-10-06T08:49:01Z</time>
      </trkpt>
      <trkpt lat="44.78615" lon="-0.14068">
        <ele>74</ele>
        <time>2022-10-06T08:49:02Z</time>
      </trkpt>
      <trkpt lat="44.78616" lon="-0.14067">
        <ele>74</ele>
        <time>2022-10-06T08:49:03Z</time>
      </trkpt>
      <trkpt lat="44.78616" lon="-0.14067">
        <ele>74</ele>
        <time>2022-10-06T08:49:04Z</time>
      </trkpt>
      <trkpt lat="44.78618" lon="-0.14066">
        <ele>74</ele>
        <time>2022-10-06T08:49:05Z</time>
      </trkpt>
      <trkpt lat="44.78621" lon="-0.14064">
        <ele>73.9</ele>
        <time>2022-10-06T08:49:06Z</time>
      </trkpt>
      <trkpt lat="44.78621" lon="-0.14064">
        <ele>73.9</ele>
        <time>2022-10-06T08:49:08Z</time>
      </trkpt>
      <trkpt lat="44.78622" lon="-0.14063">
        <ele>73.9</ele>
        <time>2022-10-06T08:49:09Z</time>
      </trkpt>
      <trkpt lat="44.78623" lon="-0.14062">
        <ele>73.8</ele>
        <time>2022-10-06T08:49:10Z</time>
      </trkpt>
      <trkpt lat="44.78625" lon="-0.14061">
        <ele>73.8</ele>
        <time>2022-10-06T08:49:11Z</time>
      </trkpt>
      <trkpt lat="44.78626" lon="-0.14061">
        <ele>73.8</ele>
        <time>2022-10-06T08:49:12Z</time>
      </trkpt>
      <trkpt lat="44.78627" lon="-0.1406">
        <ele>73.8</ele>
        <time>2022-10-06T08:49:13Z</time>
      </trkpt>
      <trkpt lat="44.78627" lon="-0.14059">
        <ele>73.7</ele>
        <time>2022-10-06T08:49:14Z</time>
      </trkpt>
      <trkpt lat="44.78629" lon="-0.14059">
        <ele>73.7</ele>
        <time>2022-10-06T08:49:15Z</time>
      </trkpt>
      <trkpt lat="44.7863" lon="-0.14058">
        <ele>73.7</ele>
        <time>2022-10-06T08:49:16Z</time>
      </trkpt>
      <trkpt lat="44.78632" lon="-0.14057">
        <ele>73.6</ele>
        <time>2022-10-06T08:49:17Z</time>
      </trkpt>
      <trkpt lat="44.78632" lon="-0.14056">
        <ele>73.6</ele>
        <time>2022-10-06T08:49:18Z</time>
      </trkpt>
      <trkpt lat="44.78633" lon="-0.14056">
        <ele>73.6</ele>
        <time>2022-10-06T08:49:19Z</time>
      </trkpt>
      <trkpt lat="44.78635" lon="-0.14054">
        <ele>73.5</ele>
        <time>2022-10-06T08:49:20Z</time>
      </trkpt>
      <trkpt lat="44.78636" lon="-0.14054">
        <ele>73.5</ele>
        <time>2022-10-06T08:49:21Z</time>
      </trkpt>
      <trkpt lat="44.78636" lon="-0.14053">
        <ele>73.5</ele>
        <time>2022-10-06T08:49:22Z</time>
      </trkpt>
      <trkpt lat="44.78638" lon="-0.14052">
        <ele>73.4</ele>
        <time>2022-10-06T08:49:23Z</time>
      </trkpt>
      <trkpt lat="44.78639" lon="-0.14051">
        <ele>73.4</ele>
        <time>2022-10-06T08:49:24Z</time>
      </trkpt>
      <trkpt lat="44.7864" lon="-0.14051">
        <ele>73.4</ele>
        <time>2022-10-06T08:49:25Z</time>
      </trkpt>
      <trkpt lat="44.78642" lon="-0.1405">
        <ele>73.4</ele>
        <time>2022-10-06T08:49:26Z</time>
      </trkpt>
      <trkpt lat="44.78643" lon="-0.1405">
        <ele>73.3</ele>
        <time>2022-10-06T08:49:27Z</time>
      </trkpt>
      <trkpt lat="44.78643" lon="-0.14049">
        <ele>73.3</ele>
        <time>2022-10-06T08:49:28Z</time>
      </trkpt>
      <trkpt lat="44.78644" lon="-0.14049">
        <ele>73.3</ele>
        <time>2022-10-06T08:49:29Z</time>
      </trkpt>
      <trkpt lat="44.78645" lon="-0.14048">
        <ele>73.3</ele>
        <time>2022-10-06T08:49:30Z</time>
      </trkpt>
      <trkpt lat="44.78646" lon="-0.14047">
        <ele>73.2</ele>
        <time>2022-10-06T08:49:31Z</time>
      </trkpt>
      <trkpt lat="44.78648" lon="-0.14047">
        <ele>73.2</ele>
        <time>2022-10-06T08:49:32Z</time>
      </trkpt>
      <trkpt lat="44.78649" lon="-0.14045">
        <ele>73.1</ele>
        <time>2022-10-06T08:49:33Z</time>
      </trkpt>
      <trkpt lat="44.78651" lon="-0.14044">
        <ele>73.1</ele>
        <time>2022-10-06T08:49:34Z</time>
      </trkpt>
      <trkpt lat="44.78651" lon="-0.14044">
        <ele>73.1</ele>
        <time>2022-10-06T08:49:35Z</time>
      </trkpt>
      <trkpt lat="44.78652" lon="-0.14043">
        <ele>73.1</ele>
        <time>2022-10-06T08:49:36Z</time>
      </trkpt>
      <trkpt lat="44.78653" lon="-0.14043">
        <ele>73</ele>
        <time>2022-10-06T08:49:37Z</time>
      </trkpt>
      <trkpt lat="44.78654" lon="-0.14042">
        <ele>73</ele>
        <time>2022-10-06T08:49:38Z</time>
      </trkpt>
      <trkpt lat="44.78655" lon="-0.14041">
        <ele>73</ele>
        <time>2022-10-06T08:49:39Z</time>
      </trkpt>
      <trkpt lat="44.78656" lon="-0.14041">
        <ele>72.9</ele>
        <time>2022-10-06T08:49:40Z</time>
      </trkpt>
      <trkpt lat="44.78658" lon="-0.1404">
        <ele>72.9</ele>
        <time>2022-10-06T08:49:41Z</time>
      </trkpt>
      <trkpt lat="44.78659" lon="-0.1404">
        <ele>72.9</ele>
        <time>2022-10-06T08:49:42Z</time>
      </trkpt>
      <trkpt lat="44.7866" lon="-0.1404">
        <ele>72.8</ele>
        <time>2022-10-06T08:49:43Z</time>
      </trkpt>
      <trkpt lat="44.78661" lon="-0.14039">
        <ele>72.8</ele>
        <time>2022-10-06T08:49:44Z</time>
      </trkpt>
      <trkpt lat="44.78662" lon="-0.14038">
        <ele>72.8</ele>
        <time>2022-10-06T08:49:45Z</time>
      </trkpt>
      <trkpt lat="44.78662" lon="-0.14038">
        <ele>72.8</ele>
        <time>2022-10-06T08:49:46Z</time>
      </trkpt>
      <trkpt lat="44.78664" lon="-0.14037">
        <ele>72.7</ele>
        <time>2022-10-06T08:49:47Z</time>
      </trkpt>
      <trkpt lat="44.78665" lon="-0.14036">
        <ele>72.7</ele>
        <time>2022-10-06T08:49:48Z</time>
      </trkpt>
      <trkpt lat="44.78666" lon="-0.14035">
        <ele>72.6</ele>
        <time>2022-10-06T08:49:49Z</time>
      </trkpt>
      <trkpt lat="44.78667" lon="-0.14035">
        <ele>72.6</ele>
        <time>2022-10-06T08:49:50Z</time>
      </trkpt>
      <trkpt lat="44.78668" lon="-0.14034">
        <ele>72.6</ele>
        <time>2022-10-06T08:49:51Z</time>
      </trkpt>
      <trkpt lat="44.78669" lon="-0.14034">
        <ele>72.5</ele>
        <time>2022-10-06T08:49:52Z</time>
      </trkpt>
      <trkpt lat="44.7867" lon="-0.14033">
        <ele>72.5</ele>
        <time>2022-10-06T08:49:53Z</time>
      </trkpt>
      <trkpt lat="44.78671" lon="-0.14033">
        <ele>72.4</ele>
        <time>2022-10-06T08:49:54Z</time>
      </trkpt>
      <trkpt lat="44.78672" lon="-0.14032">
        <ele>72.4</ele>
        <time>2022-10-06T08:49:55Z</time>
      </trkpt>
      <trkpt lat="44.78674" lon="-0.14031">
        <ele>72.3</ele>
        <time>2022-10-06T08:49:56Z</time>
      </trkpt>
      <trkpt lat="44.78675" lon="-0.1403">
        <ele>72.3</ele>
        <time>2022-10-06T08:49:57Z</time>
      </trkpt>
      <trkpt lat="44.78676" lon="-0.1403">
        <ele>72.2</ele>
        <time>2022-10-06T08:49:58Z</time>
      </trkpt>
      <trkpt lat="44.78676" lon="-0.14029">
        <ele>72.2</ele>
        <time>2022-10-06T08:49:59Z</time>
      </trkpt>
      <trkpt lat="44.78677" lon="-0.14028">
        <ele>72.2</ele>
        <time>2022-10-06T08:50:00Z</time>
      </trkpt>
      <trkpt lat="44.78678" lon="-0.14027">
        <ele>72.1</ele>
        <time>2022-10-06T08:50:01Z</time>
      </trkpt>
      <trkpt lat="44.78679" lon="-0.14026">
        <ele>72.1</ele>
        <time>2022-10-06T08:50:02Z</time>
      </trkpt>
      <trkpt lat="44.78681" lon="-0.14025">
        <ele>72</ele>
        <time>2022-10-06T08:50:03Z</time>
      </trkpt>
      <trkpt lat="44.78682" lon="-0.14024">
        <ele>72</ele>
        <time>2022-10-06T08:50:04Z</time>
      </trkpt>
      <trkpt lat="44.78683" lon="-0.14024">
        <ele>71.9</ele>
        <time>2022-10-06T08:50:05Z</time>
      </trkpt>
      <trkpt lat="44.78684" lon="-0.14023">
        <ele>71.9</ele>
        <time>2022-10-06T08:50:06Z</time>
      </trkpt>
      <trkpt lat="44.78685" lon="-0.14022">
        <ele>71.8</ele>
        <time>2022-10-06T08:50:07Z</time>
      </trkpt>
      <trkpt lat="44.78686" lon="-0.1402">
        <ele>71.8</ele>
        <time>2022-10-06T08:50:08Z</time>
      </trkpt>
      <trkpt lat="44.78687" lon="-0.1402">
        <ele>71.7</ele>
        <time>2022-10-06T08:50:09Z</time>
      </trkpt>
      <trkpt lat="44.78688" lon="-0.14019">
        <ele>71.7</ele>
        <time>2022-10-06T08:50:10Z</time>
      </trkpt>
      <trkpt lat="44.78689" lon="-0.14018">
        <ele>71.6</ele>
        <time>2022-10-06T08:50:11Z</time>
      </trkpt>
      <trkpt lat="44.7869" lon="-0.14018">
        <ele>71.6</ele>
        <time>2022-10-06T08:50:12Z</time>
      </trkpt>
      <trkpt lat="44.78692" lon="-0.14017">
        <ele>71.5</ele>
        <time>2022-10-06T08:50:13Z</time>
      </trkpt>
      <trkpt lat="44.78693" lon="-0.14016">
        <ele>71.5</ele>
        <time>2022-10-06T08:50:14Z</time>
      </trkpt>
      <trkpt lat="44.78694" lon="-0.14015">
        <ele>71.4</ele>
        <time>2022-10-06T08:50:15Z</time>
      </trkpt>
      <trkpt lat="44.78695" lon="-0.14015">
        <ele>71.4</ele>
        <time>2022-10-06T08:50:16Z</time>
      </trkpt>
      <trkpt lat="44.78696" lon="-0.14014">
        <ele>71.3</ele>
        <time>2022-10-06T08:50:17Z</time>
      </trkpt>
      <trkpt lat="44.78697" lon="-0.14013">
        <ele>71.3</ele>
        <time>2022-10-06T08:50:18Z</time>
      </trkpt>
      <trkpt lat="44.78698" lon="-0.14012">
        <ele>71.2</ele>
        <time>2022-10-06T08:50:19Z</time>
      </trkpt>
      <trkpt lat="44.78701" lon="-0.14011">
        <ele>71.1</ele>
        <time>2022-10-06T08:50:20Z</time>
      </trkpt>
      <trkpt lat="44.78702" lon="-0.1401">
        <ele>71.1</ele>
        <time>2022-10-06T08:50:21Z</time>
      </trkpt>
      <trkpt lat="44.78704" lon="-0.14009">
        <ele>71</ele>
        <time>2022-10-06T08:50:23Z</time>
      </trkpt>
      <trkpt lat="44.78704" lon="-0.14009">
        <ele>71</ele>
        <time>2022-10-06T08:50:24Z</time>
      </trkpt>
      <trkpt lat="44.78705" lon="-0.14008">
        <ele>70.9</ele>
        <time>2022-10-06T08:50:25Z</time>
      </trkpt>
      <trkpt lat="44.78706" lon="-0.14008">
        <ele>70.9</ele>
        <time>2022-10-06T08:50:26Z</time>
      </trkpt>
      <trkpt lat="44.78708" lon="-0.14007">
        <ele>70.9</ele>
        <time>2022-10-06T08:50:27Z</time>
      </trkpt>
      <trkpt lat="44.78709" lon="-0.14006">
        <ele>70.8</ele>
        <time>2022-10-06T08:50:28Z</time>
      </trkpt>
      <trkpt lat="44.7871" lon="-0.14005">
        <ele>70.8</ele>
        <time>2022-10-06T08:50:29Z</time>
      </trkpt>
      <trkpt lat="44.78711" lon="-0.14005">
        <ele>70.7</ele>
        <time>2022-10-06T08:50:30Z</time>
      </trkpt>
      <trkpt lat="44.78712" lon="-0.14004">
        <ele>70.7</ele>
        <time>2022-10-06T08:50:31Z</time>
      </trkpt>
      <trkpt lat="44.78713" lon="-0.14004">
        <ele>70.6</ele>
        <time>2022-10-06T08:50:32Z</time>
      </trkpt>
      <trkpt lat="44.78715" lon="-0.14003">
        <ele>70.6</ele>
        <time>2022-10-06T08:50:33Z</time>
      </trkpt>
      <trkpt lat="44.78715" lon="-0.14003">
        <ele>70.5</ele>
        <time>2022-10-06T08:50:34Z</time>
      </trkpt>
      <trkpt lat="44.78716" lon="-0.14002">
        <ele>70.5</ele>
        <time>2022-10-06T08:50:35Z</time>
      </trkpt>
      <trkpt lat="44.78718" lon="-0.14002">
        <ele>70.5</ele>
        <time>2022-10-06T08:50:36Z</time>
      </trkpt>
      <trkpt lat="44.78719" lon="-0.14001">
        <ele>70.4</ele>
        <time>2022-10-06T08:50:37Z</time>
      </trkpt>
      <trkpt lat="44.7872" lon="-0.14">
        <ele>70.4</ele>
        <time>2022-10-06T08:50:38Z</time>
      </trkpt>
      <trkpt lat="44.78721" lon="-0.13999">
        <ele>70.3</ele>
        <time>2022-10-06T08:50:39Z</time>
      </trkpt>
      <trkpt lat="44.78722" lon="-0.13999">
        <ele>70.3</ele>
        <time>2022-10-06T08:50:40Z</time>
      </trkpt>
      <trkpt lat="44.78723" lon="-0.13998">
        <ele>70.2</ele>
        <time>2022-10-06T08:50:41Z</time>
      </trkpt>
      <trkpt lat="44.78725" lon="-0.13997">
        <ele>70.1</ele>
        <time>2022-10-06T08:50:42Z</time>
      </trkpt>
      <trkpt lat="44.78725" lon="-0.13996">
        <ele>70.1</ele>
        <time>2022-10-06T08:50:43Z</time>
      </trkpt>
      <trkpt lat="44.78726" lon="-0.13996">
        <ele>70.1</ele>
        <time>2022-10-06T08:50:44Z</time>
      </trkpt>
      <trkpt lat="44.78727" lon="-0.13995">
        <ele>70</ele>
        <time>2022-10-06T08:50:45Z</time>
      </trkpt>
      <trkpt lat="44.78728" lon="-0.13995">
        <ele>70</ele>
        <time>2022-10-06T08:50:46Z</time>
      </trkpt>
      <trkpt lat="44.78729" lon="-0.13994">
        <ele>70</ele>
        <time>2022-10-06T08:50:47Z</time>
      </trkpt>
      <trkpt lat="44.78731" lon="-0.13992">
        <ele>69.9</ele>
        <time>2022-10-06T08:50:48Z</time>
      </trkpt>
      <trkpt lat="44.78732" lon="-0.13992">
        <ele>69.8</ele>
        <time>2022-10-06T08:50:49Z</time>
      </trkpt>
      <trkpt lat="44.78733" lon="-0.13991">
        <ele>69.8</ele>
        <time>2022-10-06T08:50:50Z</time>
      </trkpt>
      <trkpt lat="44.78735" lon="-0.1399">
        <ele>69.7</ele>
        <time>2022-10-06T08:50:51Z</time>
      </trkpt>
      <trkpt lat="44.78736" lon="-0.13989">
        <ele>69.7</ele>
        <time>2022-10-06T08:50:52Z</time>
      </trkpt>
      <trkpt lat="44.78737" lon="-0.13989">
        <ele>69.6</ele>
        <time>2022-10-06T08:50:53Z</time>
      </trkpt>
      <trkpt lat="44.78738" lon="-0.13988">
        <ele>69.6</ele>
        <time>2022-10-06T08:50:54Z</time>
      </trkpt>
      <trkpt lat="44.78739" lon="-0.13988">
        <ele>69.6</ele>
        <time>2022-10-06T08:50:55Z</time>
      </trkpt>
      <trkpt lat="44.7874" lon="-0.13987">
        <ele>69.5</ele>
        <time>2022-10-06T08:50:56Z</time>
      </trkpt>
      <trkpt lat="44.78741" lon="-0.13986">
        <ele>69.5</ele>
        <time>2022-10-06T08:50:57Z</time>
      </trkpt>
      <trkpt lat="44.78743" lon="-0.13985">
        <ele>69.4</ele>
        <time>2022-10-06T08:50:58Z</time>
      </trkpt>
      <trkpt lat="44.78744" lon="-0.13985">
        <ele>69.4</ele>
        <time>2022-10-06T08:50:59Z</time>
      </trkpt>
      <trkpt lat="44.78745" lon="-0.13985">
        <ele>69.4</ele>
        <time>2022-10-06T08:51:00Z</time>
      </trkpt>
      <trkpt lat="44.78746" lon="-0.13984">
        <ele>69.3</ele>
        <time>2022-10-06T08:51:01Z</time>
      </trkpt>
      <trkpt lat="44.78747" lon="-0.13982">
        <ele>69.3</ele>
        <time>2022-10-06T08:51:02Z</time>
      </trkpt>
      <trkpt lat="44.78748" lon="-0.13981">
        <ele>69.3</ele>
        <time>2022-10-06T08:51:03Z</time>
      </trkpt>
      <trkpt lat="44.78749" lon="-0.13981">
        <ele>69.2</ele>
        <time>2022-10-06T08:51:04Z</time>
      </trkpt>
      <trkpt lat="44.7875" lon="-0.1398">
        <ele>69.2</ele>
        <time>2022-10-06T08:51:05Z</time>
      </trkpt>
      <trkpt lat="44.78751" lon="-0.13979">
        <ele>69.2</ele>
        <time>2022-10-06T08:51:06Z</time>
      </trkpt>
      <trkpt lat="44.78752" lon="-0.13979">
        <ele>69.1</ele>
        <time>2022-10-06T08:51:07Z</time>
      </trkpt>
      <trkpt lat="44.78753" lon="-0.13979">
        <ele>69.1</ele>
        <time>2022-10-06T08:51:08Z</time>
      </trkpt>
      <trkpt lat="44.78754" lon="-0.13979">
        <ele>69.1</ele>
        <time>2022-10-06T08:51:09Z</time>
      </trkpt>
      <trkpt lat="44.78756" lon="-0.13978">
        <ele>69.1</ele>
        <time>2022-10-06T08:51:10Z</time>
      </trkpt>
      <trkpt lat="44.78756" lon="-0.13978">
        <ele>69.1</ele>
        <time>2022-10-06T08:51:11Z</time>
      </trkpt>
      <trkpt lat="44.78757" lon="-0.13978">
        <ele>69.1</ele>
        <time>2022-10-06T08:51:12Z</time>
      </trkpt>
      <trkpt lat="44.78758" lon="-0.13977">
        <ele>69</ele>
        <time>2022-10-06T08:51:13Z</time>
      </trkpt>
      <trkpt lat="44.78759" lon="-0.13976">
        <ele>69</ele>
        <time>2022-10-06T08:51:14Z</time>
      </trkpt>
      <trkpt lat="44.7876" lon="-0.13975">
        <ele>69</ele>
        <time>2022-10-06T08:51:15Z</time>
      </trkpt>
      <trkpt lat="44.78762" lon="-0.13974">
        <ele>69</ele>
        <time>2022-10-06T08:51:16Z</time>
      </trkpt>
      <trkpt lat="44.78763" lon="-0.13974">
        <ele>69</ele>
        <time>2022-10-06T08:51:17Z</time>
      </trkpt>
      <trkpt lat="44.78764" lon="-0.13973">
        <ele>69</ele>
        <time>2022-10-06T08:51:18Z</time>
      </trkpt>
      <trkpt lat="44.78765" lon="-0.13973">
        <ele>69</ele>
        <time>2022-10-06T08:51:19Z</time>
      </trkpt>
      <trkpt lat="44.78765" lon="-0.13972">
        <ele>69</ele>
        <time>2022-10-06T08:51:20Z</time>
      </trkpt>
      <trkpt lat="44.78767" lon="-0.13971">
        <ele>69</ele>
        <time>2022-10-06T08:51:21Z</time>
      </trkpt>
      <trkpt lat="44.78768" lon="-0.13971">
        <ele>69</ele>
        <time>2022-10-06T08:51:22Z</time>
      </trkpt>
      <trkpt lat="44.7877" lon="-0.1397">
        <ele>69</ele>
        <time>2022-10-06T08:51:23Z</time>
      </trkpt>
      <trkpt lat="44.78771" lon="-0.13969">
        <ele>69</ele>
        <time>2022-10-06T08:51:24Z</time>
      </trkpt>
      <trkpt lat="44.78772" lon="-0.13969">
        <ele>69</ele>
        <time>2022-10-06T08:51:25Z</time>
      </trkpt>
      <trkpt lat="44.78773" lon="-0.13968">
        <ele>69</ele>
        <time>2022-10-06T08:51:26Z</time>
      </trkpt>
      <trkpt lat="44.78773" lon="-0.13968">
        <ele>69</ele>
        <time>2022-10-06T08:51:27Z</time>
      </trkpt>
      <trkpt lat="44.78775" lon="-0.13967">
        <ele>69</ele>
        <time>2022-10-06T08:51:28Z</time>
      </trkpt>
      <trkpt lat="44.78776" lon="-0.13967">
        <ele>69</ele>
        <time>2022-10-06T08:51:29Z</time>
      </trkpt>
      <trkpt lat="44.78777" lon="-0.13966">
        <ele>69</ele>
        <time>2022-10-06T08:51:30Z</time>
      </trkpt>
      <trkpt lat="44.78778" lon="-0.13966">
        <ele>69</ele>
        <time>2022-10-06T08:51:31Z</time>
      </trkpt>
      <trkpt lat="44.78779" lon="-0.13965">
        <ele>69</ele>
        <time>2022-10-06T08:51:32Z</time>
      </trkpt>
      <trkpt lat="44.78779" lon="-0.13965">
        <ele>69</ele>
        <time>2022-10-06T08:51:33Z</time>
      </trkpt>
      <trkpt lat="44.7878" lon="-0.13964">
        <ele>69.1</ele>
        <time>2022-10-06T08:51:34Z</time>
      </trkpt>
      <trkpt lat="44.78781" lon="-0.13963">
        <ele>69.1</ele>
        <time>2022-10-06T08:51:35Z</time>
      </trkpt>
      <trkpt lat="44.78782" lon="-0.13963">
        <ele>69.1</ele>
        <time>2022-10-06T08:51:36Z</time>
      </trkpt>
      <trkpt lat="44.78782" lon="-0.13962">
        <ele>69.1</ele>
        <time>2022-10-06T08:51:37Z</time>
      </trkpt>
      <trkpt lat="44.78783" lon="-0.13961">
        <ele>69.1</ele>
        <time>2022-10-06T08:51:38Z</time>
      </trkpt>
      <trkpt lat="44.78784" lon="-0.1396">
        <ele>69.2</ele>
        <time>2022-10-06T08:51:39Z</time>
      </trkpt>
      <trkpt lat="44.78785" lon="-0.13959">
        <ele>69.2</ele>
        <time>2022-10-06T08:51:40Z</time>
      </trkpt>
      <trkpt lat="44.78786" lon="-0.13959">
        <ele>69.2</ele>
        <time>2022-10-06T08:51:41Z</time>
      </trkpt>
      <trkpt lat="44.78786" lon="-0.13958">
        <ele>69.2</ele>
        <time>2022-10-06T08:51:42Z</time>
      </trkpt>
      <trkpt lat="44.78788" lon="-0.13957">
        <ele>69.2</ele>
        <time>2022-10-06T08:51:43Z</time>
      </trkpt>
      <trkpt lat="44.78788" lon="-0.13957">
        <ele>69.3</ele>
        <time>2022-10-06T08:51:44Z</time>
      </trkpt>
      <trkpt lat="44.78789" lon="-0.13956">
        <ele>69.3</ele>
        <time>2022-10-06T08:51:45Z</time>
      </trkpt>
      <trkpt lat="44.7879" lon="-0.13956">
        <ele>69.3</ele>
        <time>2022-10-06T08:51:46Z</time>
      </trkpt>
      <trkpt lat="44.78791" lon="-0.13955">
        <ele>69.3</ele>
        <time>2022-10-06T08:51:47Z</time>
      </trkpt>
      <trkpt lat="44.78792" lon="-0.13955">
        <ele>69.4</ele>
        <time>2022-10-06T08:51:48Z</time>
      </trkpt>
      <trkpt lat="44.78793" lon="-0.13954">
        <ele>69.4</ele>
        <time>2022-10-06T08:51:49Z</time>
      </trkpt>
      <trkpt lat="44.78794" lon="-0.13953">
        <ele>69.4</ele>
        <time>2022-10-06T08:51:50Z</time>
      </trkpt>
      <trkpt lat="44.78795" lon="-0.13953">
        <ele>69.4</ele>
        <time>2022-10-06T08:51:51Z</time>
      </trkpt>
      <trkpt lat="44.78796" lon="-0.13952">
        <ele>69.5</ele>
        <time>2022-10-06T08:51:52Z</time>
      </trkpt>
      <trkpt lat="44.78797" lon="-0.13952">
        <ele>69.5</ele>
        <time>2022-10-06T08:51:53Z</time>
      </trkpt>
      <trkpt lat="44.78798" lon="-0.13951">
        <ele>69.5</ele>
        <time>2022-10-06T08:51:54Z</time>
      </trkpt>
      <trkpt lat="44.78799" lon="-0.1395">
        <ele>69.6</ele>
        <time>2022-10-06T08:51:55Z</time>
      </trkpt>
      <trkpt lat="44.78801" lon="-0.13949">
        <ele>69.6</ele>
        <time>2022-10-06T08:51:56Z</time>
      </trkpt>
      <trkpt lat="44.78802" lon="-0.13948">
        <ele>69.7</ele>
        <time>2022-10-06T08:51:57Z</time>
      </trkpt>
      <trkpt lat="44.78803" lon="-0.13948">
        <ele>69.7</ele>
        <time>2022-10-06T08:51:59Z</time>
      </trkpt>
      <trkpt lat="44.78804" lon="-0.13948">
        <ele>69.7</ele>
        <time>2022-10-06T08:52:00Z</time>
      </trkpt>
      <trkpt lat="44.78806" lon="-0.13947">
        <ele>69.8</ele>
        <time>2022-10-06T08:52:01Z</time>
      </trkpt>
      <trkpt lat="44.78807" lon="-0.13946">
        <ele>69.8</ele>
        <time>2022-10-06T08:52:02Z</time>
      </trkpt>
      <trkpt lat="44.78808" lon="-0.13946">
        <ele>69.9</ele>
        <time>2022-10-06T08:52:03Z</time>
      </trkpt>
      <trkpt lat="44.78808" lon="-0.13945">
        <ele>69.9</ele>
        <time>2022-10-06T08:52:04Z</time>
      </trkpt>
      <trkpt lat="44.78809" lon="-0.13945">
        <ele>69.9</ele>
        <time>2022-10-06T08:52:05Z</time>
      </trkpt>
      <trkpt lat="44.7881" lon="-0.13944">
        <ele>69.9</ele>
        <time>2022-10-06T08:52:06Z</time>
      </trkpt>
      <trkpt lat="44.78811" lon="-0.13943">
        <ele>70</ele>
        <time>2022-10-06T08:52:07Z</time>
      </trkpt>
      <trkpt lat="44.78812" lon="-0.13942">
        <ele>70</ele>
        <time>2022-10-06T08:52:08Z</time>
      </trkpt>
      <trkpt lat="44.78813" lon="-0.13941">
        <ele>70.1</ele>
        <time>2022-10-06T08:52:09Z</time>
      </trkpt>
      <trkpt lat="44.78813" lon="-0.13941">
        <ele>70.1</ele>
        <time>2022-10-06T08:52:10Z</time>
      </trkpt>
      <trkpt lat="44.78815" lon="-0.13939">
        <ele>70.2</ele>
        <time>2022-10-06T08:52:11Z</time>
      </trkpt>
      <trkpt lat="44.78816" lon="-0.13938">
        <ele>70.4</ele>
        <time>2022-10-06T08:52:12Z</time>
      </trkpt>
      <trkpt lat="44.78817" lon="-0.13937">
        <ele>70.5</ele>
        <time>2022-10-06T08:52:13Z</time>
      </trkpt>
      <trkpt lat="44.78817" lon="-0.13936">
        <ele>70.5</ele>
        <time>2022-10-06T08:52:14Z</time>
      </trkpt>
      <trkpt lat="44.78818" lon="-0.13935">
        <ele>70.5</ele>
        <time>2022-10-06T08:52:15Z</time>
      </trkpt>
      <trkpt lat="44.78819" lon="-0.13932">
        <ele>70.6</ele>
        <time>2022-10-06T08:52:16Z</time>
      </trkpt>
      <trkpt lat="44.7882" lon="-0.1393">
        <ele>70.7</ele>
        <time>2022-10-06T08:52:18Z</time>
      </trkpt>
      <trkpt lat="44.7882" lon="-0.13928">
        <ele>70.8</ele>
        <time>2022-10-06T08:52:19Z</time>
      </trkpt>
      <trkpt lat="44.7882" lon="-0.13927">
        <ele>70.8</ele>
        <time>2022-10-06T08:52:20Z</time>
      </trkpt>
      <trkpt lat="44.78821" lon="-0.13926">
        <ele>70.8</ele>
        <time>2022-10-06T08:52:21Z</time>
      </trkpt>
      <trkpt lat="44.78821" lon="-0.13925">
        <ele>70.9</ele>
        <time>2022-10-06T08:52:22Z</time>
      </trkpt>
      <trkpt lat="44.78822" lon="-0.13922">
        <ele>70.9</ele>
        <time>2022-10-06T08:52:23Z</time>
      </trkpt>
      <trkpt lat="44.78822" lon="-0.13922">
        <ele>70.9</ele>
        <time>2022-10-06T08:52:24Z</time>
      </trkpt>
      <trkpt lat="44.78822" lon="-0.1392">
        <ele>70.9</ele>
        <time>2022-10-06T08:52:25Z</time>
      </trkpt>
      <trkpt lat="44.78823" lon="-0.13919">
        <ele>70.9</ele>
        <time>2022-10-06T08:52:26Z</time>
      </trkpt>
      <trkpt lat="44.78823" lon="-0.13918">
        <ele>70.9</ele>
        <time>2022-10-06T08:52:27Z</time>
      </trkpt>
      <trkpt lat="44.78824" lon="-0.13917">
        <ele>70.9</ele>
        <time>2022-10-06T08:52:28Z</time>
      </trkpt>
      <trkpt lat="44.78824" lon="-0.13916">
        <ele>70.9</ele>
        <time>2022-10-06T08:52:29Z</time>
      </trkpt>
      <trkpt lat="44.78824" lon="-0.13916">
        <ele>71</ele>
        <time>2022-10-06T08:52:30Z</time>
      </trkpt>
      <trkpt lat="44.78823" lon="-0.13915">
        <ele>71</ele>
        <time>2022-10-06T08:52:31Z</time>
      </trkpt>
      <trkpt lat="44.78823" lon="-0.13915">
        <ele>71</ele>
        <time>2022-10-06T08:52:32Z</time>
      </trkpt>
      <trkpt lat="44.78822" lon="-0.13916">
        <ele>71</ele>
        <time>2022-10-06T08:52:33Z</time>
      </trkpt>
      <trkpt lat="44.78822" lon="-0.13916">
        <ele>71</ele>
        <time>2022-10-06T08:52:34Z</time>
      </trkpt>
      <trkpt lat="44.78822" lon="-0.13916">
        <ele>71</ele>
        <time>2022-10-06T08:52:35Z</time>
      </trkpt>
      <trkpt lat="44.78822" lon="-0.13916">
        <ele>71</ele>
        <time>2022-10-06T08:52:36Z</time>
      </trkpt>
      <trkpt lat="44.78822" lon="-0.13916">
        <ele>71</ele>
        <time>2022-10-06T08:52:37Z</time>
      </trkpt>
      <trkpt lat="44.78821" lon="-0.13916">
        <ele>71</ele>
        <time>2022-10-06T08:52:38Z</time>
      </trkpt>
      <trkpt lat="44.78821" lon="-0.13915">
        <ele>71</ele>
        <time>2022-10-06T08:52:39Z</time>
      </trkpt>
      <trkpt lat="44.78819" lon="-0.13915">
        <ele>71</ele>
        <time>2022-10-06T08:52:40Z</time>
      </trkpt>
      <trkpt lat="44.78819" lon="-0.13914">
        <ele>71</ele>
        <time>2022-10-06T08:52:41Z</time>
      </trkpt>
      <trkpt lat="44.78818" lon="-0.13914">
        <ele>71.1</ele>
        <time>2022-10-06T08:52:42Z</time>
      </trkpt>
      <trkpt lat="44.78817" lon="-0.13914">
        <ele>71.1</ele>
        <time>2022-10-06T08:52:43Z</time>
      </trkpt>
      <trkpt lat="44.78816" lon="-0.13913">
        <ele>71.1</ele>
        <time>2022-10-06T08:52:44Z</time>
      </trkpt>
      <trkpt lat="44.78815" lon="-0.13912">
        <ele>71.1</ele>
        <time>2022-10-06T08:52:45Z</time>
      </trkpt>
      <trkpt lat="44.78815" lon="-0.13911">
        <ele>71.1</ele>
        <time>2022-10-06T08:52:46Z</time>
      </trkpt>
      <trkpt lat="44.78814" lon="-0.1391">
        <ele>71.1</ele>
        <time>2022-10-06T08:52:47Z</time>
      </trkpt>
      <trkpt lat="44.78813" lon="-0.13909">
        <ele>71.1</ele>
        <time>2022-10-06T08:52:48Z</time>
      </trkpt>
      <trkpt lat="44.78813" lon="-0.13908">
        <ele>71.2</ele>
        <time>2022-10-06T08:52:49Z</time>
      </trkpt>
      <trkpt lat="44.78812" lon="-0.13907">
        <ele>71.2</ele>
        <time>2022-10-06T08:52:50Z</time>
      </trkpt>
      <trkpt lat="44.78812" lon="-0.13904">
        <ele>71.2</ele>
        <time>2022-10-06T08:52:51Z</time>
      </trkpt>
      <trkpt lat="44.78811" lon="-0.13902">
        <ele>71.2</ele>
        <time>2022-10-06T08:52:52Z</time>
      </trkpt>
      <trkpt lat="44.78811" lon="-0.13901">
        <ele>71.3</ele>
        <time>2022-10-06T08:52:54Z</time>
      </trkpt>
      <trkpt lat="44.78811" lon="-0.139">
        <ele>71.3</ele>
        <time>2022-10-06T08:52:55Z</time>
      </trkpt>
      <trkpt lat="44.78811" lon="-0.13899">
        <ele>71.3</ele>
        <time>2022-10-06T08:52:56Z</time>
      </trkpt>
      <trkpt lat="44.7881" lon="-0.13898">
        <ele>71.3</ele>
        <time>2022-10-06T08:52:57Z</time>
      </trkpt>
      <trkpt lat="44.7881" lon="-0.13895">
        <ele>71.3</ele>
        <time>2022-10-06T08:52:58Z</time>
      </trkpt>
      <trkpt lat="44.7881" lon="-0.13894">
        <ele>71.4</ele>
        <time>2022-10-06T08:52:59Z</time>
      </trkpt>
      <trkpt lat="44.78809" lon="-0.13893">
        <ele>71.4</ele>
        <time>2022-10-06T08:53:00Z</time>
      </trkpt>
      <trkpt lat="44.78809" lon="-0.1389">
        <ele>71.4</ele>
        <time>2022-10-06T08:53:01Z</time>
      </trkpt>
      <trkpt lat="44.78808" lon="-0.13889">
        <ele>71.4</ele>
        <time>2022-10-06T08:53:02Z</time>
      </trkpt>
      <trkpt lat="44.78808" lon="-0.13888">
        <ele>71.5</ele>
        <time>2022-10-06T08:53:03Z</time>
      </trkpt>
      <trkpt lat="44.78808" lon="-0.13887">
        <ele>71.5</ele>
        <time>2022-10-06T08:53:04Z</time>
      </trkpt>
      <trkpt lat="44.78808" lon="-0.13886">
        <ele>71.5</ele>
        <time>2022-10-06T08:53:05Z</time>
      </trkpt>
      <trkpt lat="44.78807" lon="-0.13885">
        <ele>71.5</ele>
        <time>2022-10-06T08:53:06Z</time>
      </trkpt>
      <trkpt lat="44.78807" lon="-0.13883">
        <ele>71.5</ele>
        <time>2022-10-06T08:53:07Z</time>
      </trkpt>
      <trkpt lat="44.78807" lon="-0.13881">
        <ele>71.6</ele>
        <time>2022-10-06T08:53:08Z</time>
      </trkpt>
      <trkpt lat="44.78807" lon="-0.1388">
        <ele>71.6</ele>
        <time>2022-10-06T08:53:09Z</time>
      </trkpt>
      <trkpt lat="44.78807" lon="-0.13879">
        <ele>71.6</ele>
        <time>2022-10-06T08:53:10Z</time>
      </trkpt>
      <trkpt lat="44.78806" lon="-0.13876">
        <ele>71.7</ele>
        <time>2022-10-06T08:53:11Z</time>
      </trkpt>
      <trkpt lat="44.78806" lon="-0.13874">
        <ele>71.7</ele>
        <time>2022-10-06T08:53:13Z</time>
      </trkpt>
      <trkpt lat="44.78806" lon="-0.13872">
        <ele>71.7</ele>
        <time>2022-10-06T08:53:14Z</time>
      </trkpt>
      <trkpt lat="44.78805" lon="-0.13869">
        <ele>71.8</ele>
        <time>2022-10-06T08:53:15Z</time>
      </trkpt>
      <trkpt lat="44.78805" lon="-0.13866">
        <ele>71.8</ele>
        <time>2022-10-06T08:53:17Z</time>
      </trkpt>
      <trkpt lat="44.78804" lon="-0.13865">
        <ele>71.8</ele>
        <time>2022-10-06T08:53:18Z</time>
      </trkpt>
      <trkpt lat="44.78804" lon="-0.13864">
        <ele>71.8</ele>
        <time>2022-10-06T08:53:19Z</time>
      </trkpt>
      <trkpt lat="44.78804" lon="-0.13862">
        <ele>71.9</ele>
        <time>2022-10-06T08:53:20Z</time>
      </trkpt>
      <trkpt lat="44.78804" lon="-0.13861">
        <ele>71.9</ele>
        <time>2022-10-06T08:53:21Z</time>
      </trkpt>
      <trkpt lat="44.78803" lon="-0.13857">
        <ele>71.9</ele>
        <time>2022-10-06T08:53:22Z</time>
      </trkpt>
      <trkpt lat="44.78803" lon="-0.13855">
        <ele>72</ele>
        <time>2022-10-06T08:53:24Z</time>
      </trkpt>
      <trkpt lat="44.78803" lon="-0.13854">
        <ele>72</ele>
        <time>2022-10-06T08:53:25Z</time>
      </trkpt>
      <trkpt lat="44.78803" lon="-0.13852">
        <ele>72</ele>
        <time>2022-10-06T08:53:26Z</time>
      </trkpt>
      <trkpt lat="44.78802" lon="-0.13851">
        <ele>72</ele>
        <time>2022-10-06T08:53:27Z</time>
      </trkpt>
      <trkpt lat="44.78802" lon="-0.13849">
        <ele>72.1</ele>
        <time>2022-10-06T08:53:28Z</time>
      </trkpt>
      <trkpt lat="44.78801" lon="-0.13847">
        <ele>72.1</ele>
        <time>2022-10-06T08:53:29Z</time>
      </trkpt>
      <trkpt lat="44.78801" lon="-0.13846">
        <ele>72.1</ele>
        <time>2022-10-06T08:53:30Z</time>
      </trkpt>
      <trkpt lat="44.788" lon="-0.13844">
        <ele>72.1</ele>
        <time>2022-10-06T08:53:31Z</time>
      </trkpt>
      <trkpt lat="44.788" lon="-0.13843">
        <ele>72.2</ele>
        <time>2022-10-06T08:53:32Z</time>
      </trkpt>
      <trkpt lat="44.78799" lon="-0.13841">
        <ele>72.2</ele>
        <time>2022-10-06T08:53:33Z</time>
      </trkpt>
      <trkpt lat="44.78799" lon="-0.13839">
        <ele>72.2</ele>
        <time>2022-10-06T08:53:34Z</time>
      </trkpt>
      <trkpt lat="44.78799" lon="-0.13837">
        <ele>72.2</ele>
        <time>2022-10-06T08:53:35Z</time>
      </trkpt>
      <trkpt lat="44.78798" lon="-0.13836">
        <ele>72.3</ele>
        <time>2022-10-06T08:53:36Z</time>
      </trkpt>
      <trkpt lat="44.78798" lon="-0.13835">
        <ele>72.3</ele>
        <time>2022-10-06T08:53:37Z</time>
      </trkpt>
      <trkpt lat="44.78797" lon="-0.13833">
        <ele>72.3</ele>
        <time>2022-10-06T08:53:38Z</time>
      </trkpt>
      <trkpt lat="44.78797" lon="-0.13831">
        <ele>72.3</ele>
        <time>2022-10-06T08:53:39Z</time>
      </trkpt>
      <trkpt lat="44.78797" lon="-0.1383">
        <ele>72.4</ele>
        <time>2022-10-06T08:53:40Z</time>
      </trkpt>
      <trkpt lat="44.78796" lon="-0.13828">
        <ele>72.4</ele>
        <time>2022-10-06T08:53:41Z</time>
      </trkpt>
      <trkpt lat="44.78796" lon="-0.13827">
        <ele>72.4</ele>
        <time>2022-10-06T08:53:42Z</time>
      </trkpt>
      <trkpt lat="44.78796" lon="-0.13825">
        <ele>72.4</ele>
        <time>2022-10-06T08:53:43Z</time>
      </trkpt>
      <trkpt lat="44.78795" lon="-0.13823">
        <ele>72.4</ele>
        <time>2022-10-06T08:53:44Z</time>
      </trkpt>
      <trkpt lat="44.78795" lon="-0.13822">
        <ele>72.5</ele>
        <time>2022-10-06T08:53:45Z</time>
      </trkpt>
      <trkpt lat="44.78794" lon="-0.13821">
        <ele>72.5</ele>
        <time>2022-10-06T08:53:46Z</time>
      </trkpt>
      <trkpt lat="44.78794" lon="-0.13819">
        <ele>72.5</ele>
        <time>2022-10-06T08:53:47Z</time>
      </trkpt>
      <trkpt lat="44.78793" lon="-0.13818">
        <ele>72.5</ele>
        <time>2022-10-06T08:53:48Z</time>
      </trkpt>
      <trkpt lat="44.78793" lon="-0.13816">
        <ele>72.6</ele>
        <time>2022-10-06T08:53:49Z</time>
      </trkpt>
      <trkpt lat="44.78792" lon="-0.13815">
        <ele>72.6</ele>
        <time>2022-10-06T08:53:50Z</time>
      </trkpt>
      <trkpt lat="44.78792" lon="-0.13813">
        <ele>72.6</ele>
        <time>2022-10-06T08:53:51Z</time>
      </trkpt>
      <trkpt lat="44.78791" lon="-0.13811">
        <ele>72.7</ele>
        <time>2022-10-06T08:53:52Z</time>
      </trkpt>
      <trkpt lat="44.78791" lon="-0.13809">
        <ele>72.7</ele>
        <time>2022-10-06T08:53:53Z</time>
      </trkpt>
      <trkpt lat="44.7879" lon="-0.13808">
        <ele>72.7</ele>
        <time>2022-10-06T08:53:54Z</time>
      </trkpt>
      <trkpt lat="44.7879" lon="-0.13807">
        <ele>72.8</ele>
        <time>2022-10-06T08:53:55Z</time>
      </trkpt>
      <trkpt lat="44.78789" lon="-0.13805">
        <ele>72.8</ele>
        <time>2022-10-06T08:53:56Z</time>
      </trkpt>
      <trkpt lat="44.78789" lon="-0.13804">
        <ele>72.8</ele>
        <time>2022-10-06T08:53:57Z</time>
      </trkpt>
      <trkpt lat="44.78788" lon="-0.13802">
        <ele>72.9</ele>
        <time>2022-10-06T08:53:58Z</time>
      </trkpt>
      <trkpt lat="44.78788" lon="-0.13801">
        <ele>72.9</ele>
        <time>2022-10-06T08:53:59Z</time>
      </trkpt>
      <trkpt lat="44.78787" lon="-0.13799">
        <ele>72.9</ele>
        <time>2022-10-06T08:54:00Z</time>
      </trkpt>
      <trkpt lat="44.78787" lon="-0.13797">
        <ele>73</ele>
        <time>2022-10-06T08:54:01Z</time>
      </trkpt>
      <trkpt lat="44.78786" lon="-0.13796">
        <ele>73</ele>
        <time>2022-10-06T08:54:02Z</time>
      </trkpt>
      <trkpt lat="44.78786" lon="-0.13795">
        <ele>73.1</ele>
        <time>2022-10-06T08:54:03Z</time>
      </trkpt>
      <trkpt lat="44.78785" lon="-0.13792">
        <ele>73.2</ele>
        <time>2022-10-06T08:54:04Z</time>
      </trkpt>
      <trkpt lat="44.78784" lon="-0.13791">
        <ele>73.2</ele>
        <time>2022-10-06T08:54:05Z</time>
      </trkpt>
      <trkpt lat="44.78784" lon="-0.1379">
        <ele>73.2</ele>
        <time>2022-10-06T08:54:06Z</time>
      </trkpt>
      <trkpt lat="44.78783" lon="-0.13788">
        <ele>73.3</ele>
        <time>2022-10-06T08:54:07Z</time>
      </trkpt>
      <trkpt lat="44.78783" lon="-0.13787">
        <ele>73.3</ele>
        <time>2022-10-06T08:54:08Z</time>
      </trkpt>
      <trkpt lat="44.78783" lon="-0.13785">
        <ele>73.3</ele>
        <time>2022-10-06T08:54:09Z</time>
      </trkpt>
      <trkpt lat="44.78782" lon="-0.13784">
        <ele>73.4</ele>
        <time>2022-10-06T08:54:10Z</time>
      </trkpt>
      <trkpt lat="44.78781" lon="-0.13781">
        <ele>73.5</ele>
        <time>2022-10-06T08:54:11Z</time>
      </trkpt>
      <trkpt lat="44.78781" lon="-0.1378">
        <ele>73.5</ele>
        <time>2022-10-06T08:54:13Z</time>
      </trkpt>
      <trkpt lat="44.7878" lon="-0.13777">
        <ele>73.6</ele>
        <time>2022-10-06T08:54:14Z</time>
      </trkpt>
      <trkpt lat="44.78779" lon="-0.13775">
        <ele>73.6</ele>
        <time>2022-10-06T08:54:15Z</time>
      </trkpt>
      <trkpt lat="44.78779" lon="-0.13774">
        <ele>73.7</ele>
        <time>2022-10-06T08:54:16Z</time>
      </trkpt>
      <trkpt lat="44.78778" lon="-0.13773">
        <ele>73.7</ele>
        <time>2022-10-06T08:54:17Z</time>
      </trkpt>
      <trkpt lat="44.78778" lon="-0.13772">
        <ele>73.7</ele>
        <time>2022-10-06T08:54:18Z</time>
      </trkpt>
      <trkpt lat="44.78777" lon="-0.13769">
        <ele>73.8</ele>
        <time>2022-10-06T08:54:19Z</time>
      </trkpt>
      <trkpt lat="44.78777" lon="-0.13769">
        <ele>73.8</ele>
        <time>2022-10-06T08:54:20Z</time>
      </trkpt>
      <trkpt lat="44.78776" lon="-0.13768">
        <ele>73.9</ele>
        <time>2022-10-06T08:54:21Z</time>
      </trkpt>
      <trkpt lat="44.78776" lon="-0.13767">
        <ele>73.9</ele>
        <time>2022-10-06T08:54:22Z</time>
      </trkpt>
      <trkpt lat="44.78775" lon="-0.13766">
        <ele>73.9</ele>
        <time>2022-10-06T08:54:23Z</time>
      </trkpt>
      <trkpt lat="44.78775" lon="-0.13764">
        <ele>74</ele>
        <time>2022-10-06T08:54:24Z</time>
      </trkpt>
      <trkpt lat="44.78774" lon="-0.13763">
        <ele>74</ele>
        <time>2022-10-06T08:54:25Z</time>
      </trkpt>
      <trkpt lat="44.78774" lon="-0.13762">
        <ele>74.1</ele>
        <time>2022-10-06T08:54:26Z</time>
      </trkpt>
      <trkpt lat="44.78773" lon="-0.1376">
        <ele>74.1</ele>
        <time>2022-10-06T08:54:27Z</time>
      </trkpt>
      <trkpt lat="44.78773" lon="-0.13759">
        <ele>74.1</ele>
        <time>2022-10-06T08:54:28Z</time>
      </trkpt>
      <trkpt lat="44.78772" lon="-0.13757">
        <ele>74.2</ele>
        <time>2022-10-06T08:54:29Z</time>
      </trkpt>
      <trkpt lat="44.78771" lon="-0.13756">
        <ele>74.2</ele>
        <time>2022-10-06T08:54:30Z</time>
      </trkpt>
      <trkpt lat="44.7877" lon="-0.13753">
        <ele>74.3</ele>
        <time>2022-10-06T08:54:31Z</time>
      </trkpt>
      <trkpt lat="44.7877" lon="-0.13752">
        <ele>74.3</ele>
        <time>2022-10-06T08:54:32Z</time>
      </trkpt>
      <trkpt lat="44.78769" lon="-0.13751">
        <ele>74.3</ele>
        <time>2022-10-06T08:54:33Z</time>
      </trkpt>
      <trkpt lat="44.78768" lon="-0.1375">
        <ele>74.4</ele>
        <time>2022-10-06T08:54:34Z</time>
      </trkpt>
      <trkpt lat="44.78768" lon="-0.13749">
        <ele>74.4</ele>
        <time>2022-10-06T08:54:35Z</time>
      </trkpt>
      <trkpt lat="44.78767" lon="-0.13748">
        <ele>74.4</ele>
        <time>2022-10-06T08:54:36Z</time>
      </trkpt>
      <trkpt lat="44.78766" lon="-0.13745">
        <ele>74.5</ele>
        <time>2022-10-06T08:54:37Z</time>
      </trkpt>
      <trkpt lat="44.78765" lon="-0.13744">
        <ele>74.5</ele>
        <time>2022-10-06T08:54:38Z</time>
      </trkpt>
      <trkpt lat="44.78765" lon="-0.13743">
        <ele>74.6</ele>
        <time>2022-10-06T08:54:39Z</time>
      </trkpt>
      <trkpt lat="44.78764" lon="-0.13742">
        <ele>74.6</ele>
        <time>2022-10-06T08:54:40Z</time>
      </trkpt>
      <trkpt lat="44.78764" lon="-0.13741">
        <ele>74.6</ele>
        <time>2022-10-06T08:54:41Z</time>
      </trkpt>
      <trkpt lat="44.78762" lon="-0.13739">
        <ele>74.7</ele>
        <time>2022-10-06T08:54:42Z</time>
      </trkpt>
      <trkpt lat="44.78761" lon="-0.13737">
        <ele>74.7</ele>
        <time>2022-10-06T08:54:44Z</time>
      </trkpt>
      <trkpt lat="44.7876" lon="-0.13736">
        <ele>74.7</ele>
        <time>2022-10-06T08:54:45Z</time>
      </trkpt>
      <trkpt lat="44.78759" lon="-0.13735">
        <ele>74.8</ele>
        <time>2022-10-06T08:54:46Z</time>
      </trkpt>
      <trkpt lat="44.78758" lon="-0.13734">
        <ele>74.8</ele>
        <time>2022-10-06T08:54:47Z</time>
      </trkpt>
      <trkpt lat="44.78758" lon="-0.13733">
        <ele>74.8</ele>
        <time>2022-10-06T08:54:48Z</time>
      </trkpt>
      <trkpt lat="44.78757" lon="-0.13731">
        <ele>74.9</ele>
        <time>2022-10-06T08:54:49Z</time>
      </trkpt>
      <trkpt lat="44.78756" lon="-0.1373">
        <ele>74.9</ele>
        <time>2022-10-06T08:54:50Z</time>
      </trkpt>
      <trkpt lat="44.78755" lon="-0.13729">
        <ele>74.9</ele>
        <time>2022-10-06T08:54:51Z</time>
      </trkpt>
      <trkpt lat="44.78754" lon="-0.13728">
        <ele>74.9</ele>
        <time>2022-10-06T08:54:52Z</time>
      </trkpt>
      <trkpt lat="44.78754" lon="-0.13726">
        <ele>75</ele>
        <time>2022-10-06T08:54:53Z</time>
      </trkpt>
      <trkpt lat="44.78752" lon="-0.13725">
        <ele>75</ele>
        <time>2022-10-06T08:54:54Z</time>
      </trkpt>
      <trkpt lat="44.78752" lon="-0.13723">
        <ele>75</ele>
        <time>2022-10-06T08:54:55Z</time>
      </trkpt>
      <trkpt lat="44.78751" lon="-0.13722">
        <ele>75.1</ele>
        <time>2022-10-06T08:54:56Z</time>
      </trkpt>
      <trkpt lat="44.7875" lon="-0.13721">
        <ele>75.1</ele>
        <time>2022-10-06T08:54:57Z</time>
      </trkpt>
      <trkpt lat="44.78748" lon="-0.13718">
        <ele>75.1</ele>
        <time>2022-10-06T08:54:58Z</time>
      </trkpt>
      <trkpt lat="44.78747" lon="-0.13717">
        <ele>75.2</ele>
        <time>2022-10-06T08:55:00Z</time>
      </trkpt>
      <trkpt lat="44.78747" lon="-0.13716">
        <ele>75.2</ele>
        <time>2022-10-06T08:55:01Z</time>
      </trkpt>
      <trkpt lat="44.78746" lon="-0.13715">
        <ele>75.2</ele>
        <time>2022-10-06T08:55:02Z</time>
      </trkpt>
      <trkpt lat="44.78745" lon="-0.13714">
        <ele>75.2</ele>
        <time>2022-10-06T08:55:03Z</time>
      </trkpt>
      <trkpt lat="44.78744" lon="-0.13712">
        <ele>75.3</ele>
        <time>2022-10-06T08:55:04Z</time>
      </trkpt>
      <trkpt lat="44.78743" lon="-0.13711">
        <ele>75.3</ele>
        <time>2022-10-06T08:55:05Z</time>
      </trkpt>
      <trkpt lat="44.78742" lon="-0.1371">
        <ele>75.3</ele>
        <time>2022-10-06T08:55:06Z</time>
      </trkpt>
      <trkpt lat="44.78741" lon="-0.13709">
        <ele>75.3</ele>
        <time>2022-10-06T08:55:07Z</time>
      </trkpt>
      <trkpt lat="44.78741" lon="-0.13709">
        <ele>75.3</ele>
        <time>2022-10-06T08:55:08Z</time>
      </trkpt>
      <trkpt lat="44.78739" lon="-0.13707">
        <ele>75.4</ele>
        <time>2022-10-06T08:55:09Z</time>
      </trkpt>
      <trkpt lat="44.78739" lon="-0.13706">
        <ele>75.4</ele>
        <time>2022-10-06T08:55:10Z</time>
      </trkpt>
      <trkpt lat="44.78737" lon="-0.13704">
        <ele>75.4</ele>
        <time>2022-10-06T08:55:11Z</time>
      </trkpt>
      <trkpt lat="44.78736" lon="-0.13703">
        <ele>75.5</ele>
        <time>2022-10-06T08:55:13Z</time>
      </trkpt>
      <trkpt lat="44.78735" lon="-0.13701">
        <ele>75.5</ele>
        <time>2022-10-06T08:55:14Z</time>
      </trkpt>
      <trkpt lat="44.78734" lon="-0.137">
        <ele>75.5</ele>
        <time>2022-10-06T08:55:15Z</time>
      </trkpt>
      <trkpt lat="44.78733" lon="-0.13699">
        <ele>75.5</ele>
        <time>2022-10-06T08:55:16Z</time>
      </trkpt>
      <trkpt lat="44.78732" lon="-0.13697">
        <ele>75.6</ele>
        <time>2022-10-06T08:55:17Z</time>
      </trkpt>
      <trkpt lat="44.78731" lon="-0.13696">
        <ele>75.6</ele>
        <time>2022-10-06T08:55:18Z</time>
      </trkpt>
      <trkpt lat="44.7873" lon="-0.13695">
        <ele>75.6</ele>
        <time>2022-10-06T08:55:19Z</time>
      </trkpt>
      <trkpt lat="44.78729" lon="-0.13694">
        <ele>75.7</ele>
        <time>2022-10-06T08:55:20Z</time>
      </trkpt>
      <trkpt lat="44.78728" lon="-0.13693">
        <ele>75.7</ele>
        <time>2022-10-06T08:55:21Z</time>
      </trkpt>
      <trkpt lat="44.78727" lon="-0.13692">
        <ele>75.7</ele>
        <time>2022-10-06T08:55:22Z</time>
      </trkpt>
      <trkpt lat="44.78727" lon="-0.13691">
        <ele>75.7</ele>
        <time>2022-10-06T08:55:23Z</time>
      </trkpt>
      <trkpt lat="44.78725" lon="-0.13689">
        <ele>75.8</ele>
        <time>2022-10-06T08:55:24Z</time>
      </trkpt>
      <trkpt lat="44.78725" lon="-0.13688">
        <ele>75.8</ele>
        <time>2022-10-06T08:55:25Z</time>
      </trkpt>
      <trkpt lat="44.78723" lon="-0.13686">
        <ele>75.8</ele>
        <time>2022-10-06T08:55:26Z</time>
      </trkpt>
      <trkpt lat="44.78723" lon="-0.13685">
        <ele>75.9</ele>
        <time>2022-10-06T08:55:27Z</time>
      </trkpt>
      <trkpt lat="44.78722" lon="-0.13684">
        <ele>75.9</ele>
        <time>2022-10-06T08:55:28Z</time>
      </trkpt>
      <trkpt lat="44.78721" lon="-0.13683">
        <ele>75.9</ele>
        <time>2022-10-06T08:55:29Z</time>
      </trkpt>
      <trkpt lat="44.7872" lon="-0.13682">
        <ele>75.9</ele>
        <time>2022-10-06T08:55:30Z</time>
      </trkpt>
      <trkpt lat="44.78719" lon="-0.13681">
        <ele>76</ele>
        <time>2022-10-06T08:55:31Z</time>
      </trkpt>
      <trkpt lat="44.78718" lon="-0.1368">
        <ele>76</ele>
        <time>2022-10-06T08:55:32Z</time>
      </trkpt>
      <trkpt lat="44.78717" lon="-0.13679">
        <ele>76</ele>
        <time>2022-10-06T08:55:33Z</time>
      </trkpt>
      <trkpt lat="44.78716" lon="-0.13676">
        <ele>76.1</ele>
        <time>2022-10-06T08:55:34Z</time>
      </trkpt>
      <trkpt lat="44.78715" lon="-0.13676">
        <ele>76.1</ele>
        <time>2022-10-06T08:55:35Z</time>
      </trkpt>
      <trkpt lat="44.78715" lon="-0.13675">
        <ele>76.1</ele>
        <time>2022-10-06T08:55:36Z</time>
      </trkpt>
      <trkpt lat="44.78713" lon="-0.13673">
        <ele>76.1</ele>
        <time>2022-10-06T08:55:37Z</time>
      </trkpt>
      <trkpt lat="44.78713" lon="-0.13672">
        <ele>76.2</ele>
        <time>2022-10-06T08:55:38Z</time>
      </trkpt>
      <trkpt lat="44.78712" lon="-0.13671">
        <ele>76.2</ele>
        <time>2022-10-06T08:55:39Z</time>
      </trkpt>
      <trkpt lat="44.78711" lon="-0.1367">
        <ele>76.2</ele>
        <time>2022-10-06T08:55:40Z</time>
      </trkpt>
      <trkpt lat="44.78711" lon="-0.13669">
        <ele>76.2</ele>
        <time>2022-10-06T08:55:41Z</time>
      </trkpt>
      <trkpt lat="44.7871" lon="-0.13669">
        <ele>76.2</ele>
        <time>2022-10-06T08:55:42Z</time>
      </trkpt>
      <trkpt lat="44.78709" lon="-0.13668">
        <ele>76.3</ele>
        <time>2022-10-06T08:55:43Z</time>
      </trkpt>
      <trkpt lat="44.78707" lon="-0.13666">
        <ele>76.3</ele>
        <time>2022-10-06T08:55:44Z</time>
      </trkpt>
      <trkpt lat="44.78707" lon="-0.13665">
        <ele>76.3</ele>
        <time>2022-10-06T08:55:45Z</time>
      </trkpt>
      <trkpt lat="44.78706" lon="-0.13664">
        <ele>76.3</ele>
        <time>2022-10-06T08:55:46Z</time>
      </trkpt>
      <trkpt lat="44.78705" lon="-0.13663">
        <ele>76.4</ele>
        <time>2022-10-06T08:55:47Z</time>
      </trkpt>
      <trkpt lat="44.78705" lon="-0.13662">
        <ele>76.4</ele>
        <time>2022-10-06T08:55:48Z</time>
      </trkpt>
      <trkpt lat="44.78703" lon="-0.1366">
        <ele>76.4</ele>
        <time>2022-10-06T08:55:49Z</time>
      </trkpt>
      <trkpt lat="44.78703" lon="-0.13659">
        <ele>76.4</ele>
        <time>2022-10-06T08:55:50Z</time>
      </trkpt>
      <trkpt lat="44.78702" lon="-0.13658">
        <ele>76.5</ele>
        <time>2022-10-06T08:55:51Z</time>
      </trkpt>
      <trkpt lat="44.78701" lon="-0.13657">
        <ele>76.5</ele>
        <time>2022-10-06T08:55:52Z</time>
      </trkpt>
      <trkpt lat="44.78701" lon="-0.13655">
        <ele>76.5</ele>
        <time>2022-10-06T08:55:53Z</time>
      </trkpt>
      <trkpt lat="44.78699" lon="-0.13654">
        <ele>76.6</ele>
        <time>2022-10-06T08:55:54Z</time>
      </trkpt>
      <trkpt lat="44.78699" lon="-0.13653">
        <ele>76.6</ele>
        <time>2022-10-06T08:55:55Z</time>
      </trkpt>
      <trkpt lat="44.78698" lon="-0.13652">
        <ele>76.6</ele>
        <time>2022-10-06T08:55:56Z</time>
      </trkpt>
      <trkpt lat="44.78697" lon="-0.1365">
        <ele>76.6</ele>
        <time>2022-10-06T08:55:57Z</time>
      </trkpt>
      <trkpt lat="44.78696" lon="-0.13649">
        <ele>76.6</ele>
        <time>2022-10-06T08:55:58Z</time>
      </trkpt>
      <trkpt lat="44.78695" lon="-0.13647">
        <ele>76.7</ele>
        <time>2022-10-06T08:55:59Z</time>
      </trkpt>
      <trkpt lat="44.78694" lon="-0.13646">
        <ele>76.7</ele>
        <time>2022-10-06T08:56:00Z</time>
      </trkpt>
      <trkpt lat="44.78693" lon="-0.13645">
        <ele>76.7</ele>
        <time>2022-10-06T08:56:01Z</time>
      </trkpt>
      <trkpt lat="44.78693" lon="-0.13644">
        <ele>76.8</ele>
        <time>2022-10-06T08:56:02Z</time>
      </trkpt>
      <trkpt lat="44.78692" lon="-0.13643">
        <ele>76.8</ele>
        <time>2022-10-06T08:56:03Z</time>
      </trkpt>
      <trkpt lat="44.78691" lon="-0.1364">
        <ele>76.8</ele>
        <time>2022-10-06T08:56:04Z</time>
      </trkpt>
      <trkpt lat="44.78691" lon="-0.1364">
        <ele>76.9</ele>
        <time>2022-10-06T08:56:05Z</time>
      </trkpt>
      <trkpt lat="44.7869" lon="-0.13639">
        <ele>76.9</ele>
        <time>2022-10-06T08:56:06Z</time>
      </trkpt>
      <trkpt lat="44.78689" lon="-0.13637">
        <ele>76.9</ele>
        <time>2022-10-06T08:56:07Z</time>
      </trkpt>
      <trkpt lat="44.78688" lon="-0.13636">
        <ele>77</ele>
        <time>2022-10-06T08:56:08Z</time>
      </trkpt>
      <trkpt lat="44.78688" lon="-0.13634">
        <ele>77</ele>
        <time>2022-10-06T08:56:09Z</time>
      </trkpt>
      <trkpt lat="44.78687" lon="-0.13632">
        <ele>77.1</ele>
        <time>2022-10-06T08:56:10Z</time>
      </trkpt>
      <trkpt lat="44.78686" lon="-0.13631">
        <ele>77.1</ele>
        <time>2022-10-06T08:56:11Z</time>
      </trkpt>
      <trkpt lat="44.78686" lon="-0.1363">
        <ele>77.1</ele>
        <time>2022-10-06T08:56:12Z</time>
      </trkpt>
      <trkpt lat="44.78685" lon="-0.13629">
        <ele>77.2</ele>
        <time>2022-10-06T08:56:13Z</time>
      </trkpt>
      <trkpt lat="44.78684" lon="-0.13626">
        <ele>77.2</ele>
        <time>2022-10-06T08:56:14Z</time>
      </trkpt>
      <trkpt lat="44.78684" lon="-0.13625">
        <ele>77.3</ele>
        <time>2022-10-06T08:56:15Z</time>
      </trkpt>
      <trkpt lat="44.78684" lon="-0.13624">
        <ele>77.3</ele>
        <time>2022-10-06T08:56:16Z</time>
      </trkpt>
      <trkpt lat="44.78683" lon="-0.13623">
        <ele>77.3</ele>
        <time>2022-10-06T08:56:17Z</time>
      </trkpt>
      <trkpt lat="44.78683" lon="-0.13621">
        <ele>77.4</ele>
        <time>2022-10-06T08:56:18Z</time>
      </trkpt>
      <trkpt lat="44.78682" lon="-0.1362">
        <ele>77.4</ele>
        <time>2022-10-06T08:56:19Z</time>
      </trkpt>
      <trkpt lat="44.78682" lon="-0.13619">
        <ele>77.5</ele>
        <time>2022-10-06T08:56:20Z</time>
      </trkpt>
      <trkpt lat="44.78681" lon="-0.13617">
        <ele>77.5</ele>
        <time>2022-10-06T08:56:21Z</time>
      </trkpt>
      <trkpt lat="44.78681" lon="-0.13615">
        <ele>77.6</ele>
        <time>2022-10-06T08:56:22Z</time>
      </trkpt>
      <trkpt lat="44.7868" lon="-0.13614">
        <ele>77.6</ele>
        <time>2022-10-06T08:56:23Z</time>
      </trkpt>
      <trkpt lat="44.7868" lon="-0.13612">
        <ele>77.7</ele>
        <time>2022-10-06T08:56:24Z</time>
      </trkpt>
      <trkpt lat="44.78679" lon="-0.13611">
        <ele>77.7</ele>
        <time>2022-10-06T08:56:25Z</time>
      </trkpt>
      <trkpt lat="44.78679" lon="-0.13609">
        <ele>77.8</ele>
        <time>2022-10-06T08:56:26Z</time>
      </trkpt>
      <trkpt lat="44.78679" lon="-0.13608">
        <ele>77.8</ele>
        <time>2022-10-06T08:56:27Z</time>
      </trkpt>
      <trkpt lat="44.78679" lon="-0.13607">
        <ele>77.8</ele>
        <time>2022-10-06T08:56:28Z</time>
      </trkpt>
      <trkpt lat="44.78678" lon="-0.13605">
        <ele>77.9</ele>
        <time>2022-10-06T08:56:29Z</time>
      </trkpt>
      <trkpt lat="44.78678" lon="-0.13604">
        <ele>77.9</ele>
        <time>2022-10-06T08:56:30Z</time>
      </trkpt>
      <trkpt lat="44.78678" lon="-0.13602">
        <ele>78</ele>
        <time>2022-10-06T08:56:31Z</time>
      </trkpt>
      <trkpt lat="44.78678" lon="-0.13601">
        <ele>78</ele>
        <time>2022-10-06T08:56:32Z</time>
      </trkpt>
      <trkpt lat="44.78678" lon="-0.136">
        <ele>78.1</ele>
        <time>2022-10-06T08:56:33Z</time>
      </trkpt>
      <trkpt lat="44.78677" lon="-0.13598">
        <ele>78.1</ele>
        <time>2022-10-06T08:56:34Z</time>
      </trkpt>
      <trkpt lat="44.78677" lon="-0.13596">
        <ele>78.2</ele>
        <time>2022-10-06T08:56:35Z</time>
      </trkpt>
      <trkpt lat="44.78677" lon="-0.13595">
        <ele>78.2</ele>
        <time>2022-10-06T08:56:36Z</time>
      </trkpt>
      <trkpt lat="44.78676" lon="-0.13593">
        <ele>78.2</ele>
        <time>2022-10-06T08:56:37Z</time>
      </trkpt>
      <trkpt lat="44.78676" lon="-0.13592">
        <ele>78.3</ele>
        <time>2022-10-06T08:56:38Z</time>
      </trkpt>
      <trkpt lat="44.78676" lon="-0.13589">
        <ele>78.4</ele>
        <time>2022-10-06T08:56:39Z</time>
      </trkpt>
      <trkpt lat="44.78676" lon="-0.13588">
        <ele>78.4</ele>
        <time>2022-10-06T08:56:40Z</time>
      </trkpt>
      <trkpt lat="44.78676" lon="-0.13587">
        <ele>78.4</ele>
        <time>2022-10-06T08:56:41Z</time>
      </trkpt>
      <trkpt lat="44.78675" lon="-0.13584">
        <ele>78.5</ele>
        <time>2022-10-06T08:56:42Z</time>
      </trkpt>
      <trkpt lat="44.78675" lon="-0.13583">
        <ele>78.5</ele>
        <time>2022-10-06T08:56:43Z</time>
      </trkpt>
      <trkpt lat="44.78675" lon="-0.13582">
        <ele>78.5</ele>
        <time>2022-10-06T08:56:44Z</time>
      </trkpt>
      <trkpt lat="44.78675" lon="-0.1358">
        <ele>78.6</ele>
        <time>2022-10-06T08:56:45Z</time>
      </trkpt>
      <trkpt lat="44.78674" lon="-0.13579">
        <ele>78.6</ele>
        <time>2022-10-06T08:56:46Z</time>
      </trkpt>
      <trkpt lat="44.78674" lon="-0.13577">
        <ele>78.6</ele>
        <time>2022-10-06T08:56:47Z</time>
      </trkpt>
      <trkpt lat="44.78674" lon="-0.13575">
        <ele>78.7</ele>
        <time>2022-10-06T08:56:48Z</time>
      </trkpt>
      <trkpt lat="44.78674" lon="-0.13573">
        <ele>78.7</ele>
        <time>2022-10-06T08:56:49Z</time>
      </trkpt>
      <trkpt lat="44.78673" lon="-0.13572">
        <ele>78.8</ele>
        <time>2022-10-06T08:56:50Z</time>
      </trkpt>
      <trkpt lat="44.78673" lon="-0.13571">
        <ele>78.8</ele>
        <time>2022-10-06T08:56:51Z</time>
      </trkpt>
      <trkpt lat="44.78673" lon="-0.13569">
        <ele>78.8</ele>
        <time>2022-10-06T08:56:52Z</time>
      </trkpt>
      <trkpt lat="44.78672" lon="-0.13567">
        <ele>78.8</ele>
        <time>2022-10-06T08:56:53Z</time>
      </trkpt>
      <trkpt lat="44.78672" lon="-0.13565">
        <ele>78.9</ele>
        <time>2022-10-06T08:56:54Z</time>
      </trkpt>
      <trkpt lat="44.78672" lon="-0.13564">
        <ele>78.9</ele>
        <time>2022-10-06T08:56:55Z</time>
      </trkpt>
      <trkpt lat="44.78672" lon="-0.13563">
        <ele>78.9</ele>
        <time>2022-10-06T08:56:56Z</time>
      </trkpt>
      <trkpt lat="44.78671" lon="-0.1356">
        <ele>79</ele>
        <time>2022-10-06T08:56:57Z</time>
      </trkpt>
      <trkpt lat="44.7867" lon="-0.13559">
        <ele>79</ele>
        <time>2022-10-06T08:56:58Z</time>
      </trkpt>
      <trkpt lat="44.7867" lon="-0.13557">
        <ele>79</ele>
        <time>2022-10-06T08:56:59Z</time>
      </trkpt>
      <trkpt lat="44.7867" lon="-0.13557">
        <ele>79</ele>
        <time>2022-10-06T08:57:00Z</time>
      </trkpt>
      <trkpt lat="44.78669" lon="-0.13556">
        <ele>79</ele>
        <time>2022-10-06T08:57:01Z</time>
      </trkpt>
      <trkpt lat="44.78669" lon="-0.13554">
        <ele>79</ele>
        <time>2022-10-06T08:57:02Z</time>
      </trkpt>
      <trkpt lat="44.78669" lon="-0.13553">
        <ele>79.1</ele>
        <time>2022-10-06T08:57:03Z</time>
      </trkpt>
      <trkpt lat="44.78668" lon="-0.13551">
        <ele>79.1</ele>
        <time>2022-10-06T08:57:04Z</time>
      </trkpt>
      <trkpt lat="44.78667" lon="-0.1355">
        <ele>79.1</ele>
        <time>2022-10-06T08:57:05Z</time>
      </trkpt>
      <trkpt lat="44.78667" lon="-0.13549">
        <ele>79.1</ele>
        <time>2022-10-06T08:57:06Z</time>
      </trkpt>
      <trkpt lat="44.78666" lon="-0.13546">
        <ele>79.2</ele>
        <time>2022-10-06T08:57:07Z</time>
      </trkpt>
      <trkpt lat="44.78666" lon="-0.13545">
        <ele>79.2</ele>
        <time>2022-10-06T08:57:08Z</time>
      </trkpt>
      <trkpt lat="44.78665" lon="-0.13544">
        <ele>79.2</ele>
        <time>2022-10-06T08:57:09Z</time>
      </trkpt>
      <trkpt lat="44.78665" lon="-0.13544">
        <ele>79.2</ele>
        <time>2022-10-06T08:57:10Z</time>
      </trkpt>
      <trkpt lat="44.78665" lon="-0.13542">
        <ele>79.3</ele>
        <time>2022-10-06T08:57:11Z</time>
      </trkpt>
      <trkpt lat="44.78664" lon="-0.13541">
        <ele>79.3</ele>
        <time>2022-10-06T08:57:12Z</time>
      </trkpt>
      <trkpt lat="44.78662" lon="-0.13538">
        <ele>79.4</ele>
        <time>2022-10-06T08:57:13Z</time>
      </trkpt>
      <trkpt lat="44.78662" lon="-0.13538">
        <ele>79.4</ele>
        <time>2022-10-06T08:57:15Z</time>
      </trkpt>
      <trkpt lat="44.78662" lon="-0.13536">
        <ele>79.4</ele>
        <time>2022-10-06T08:57:16Z</time>
      </trkpt>
      <trkpt lat="44.7866" lon="-0.13533">
        <ele>79.5</ele>
        <time>2022-10-06T08:57:17Z</time>
      </trkpt>
      <trkpt lat="44.7866" lon="-0.13532">
        <ele>79.5</ele>
        <time>2022-10-06T08:57:18Z</time>
      </trkpt>
      <trkpt lat="44.78659" lon="-0.13531">
        <ele>79.5</ele>
        <time>2022-10-06T08:57:20Z</time>
      </trkpt>
      <trkpt lat="44.78659" lon="-0.1353">
        <ele>79.5</ele>
        <time>2022-10-06T08:57:21Z</time>
      </trkpt>
      <trkpt lat="44.78658" lon="-0.13529">
        <ele>79.5</ele>
        <time>2022-10-06T08:57:22Z</time>
      </trkpt>
      <trkpt lat="44.78658" lon="-0.13527">
        <ele>79.6</ele>
        <time>2022-10-06T08:57:23Z</time>
      </trkpt>
      <trkpt lat="44.78657" lon="-0.13525">
        <ele>79.6</ele>
        <time>2022-10-06T08:57:24Z</time>
      </trkpt>
      <trkpt lat="44.78656" lon="-0.13525">
        <ele>79.6</ele>
        <time>2022-10-06T08:57:25Z</time>
      </trkpt>
      <trkpt lat="44.78656" lon="-0.13523">
        <ele>79.6</ele>
        <time>2022-10-06T08:57:26Z</time>
      </trkpt>
      <trkpt lat="44.78656" lon="-0.13522">
        <ele>79.7</ele>
        <time>2022-10-06T08:57:27Z</time>
      </trkpt>
      <trkpt lat="44.78655" lon="-0.1352">
        <ele>79.7</ele>
        <time>2022-10-06T08:57:28Z</time>
      </trkpt>
      <trkpt lat="44.78654" lon="-0.13519">
        <ele>79.7</ele>
        <time>2022-10-06T08:57:29Z</time>
      </trkpt>
      <trkpt lat="44.78653" lon="-0.13518">
        <ele>79.7</ele>
        <time>2022-10-06T08:57:30Z</time>
      </trkpt>
      <trkpt lat="44.78652" lon="-0.13516">
        <ele>79.7</ele>
        <time>2022-10-06T08:57:31Z</time>
      </trkpt>
      <trkpt lat="44.78652" lon="-0.13514">
        <ele>79.7</ele>
        <time>2022-10-06T08:57:32Z</time>
      </trkpt>
      <trkpt lat="44.78651" lon="-0.13513">
        <ele>79.7</ele>
        <time>2022-10-06T08:57:33Z</time>
      </trkpt>
      <trkpt lat="44.7865" lon="-0.13512">
        <ele>79.7</ele>
        <time>2022-10-06T08:57:34Z</time>
      </trkpt>
      <trkpt lat="44.78649" lon="-0.13509">
        <ele>79.7</ele>
        <time>2022-10-06T08:57:35Z</time>
      </trkpt>
      <trkpt lat="44.78649" lon="-0.13508">
        <ele>79.8</ele>
        <time>2022-10-06T08:57:36Z</time>
      </trkpt>
      <trkpt lat="44.78649" lon="-0.13507">
        <ele>79.8</ele>
        <time>2022-10-06T08:57:37Z</time>
      </trkpt>
      <trkpt lat="44.78647" lon="-0.13505">
        <ele>79.8</ele>
        <time>2022-10-06T08:57:38Z</time>
      </trkpt>
      <trkpt lat="44.78647" lon="-0.13504">
        <ele>79.8</ele>
        <time>2022-10-06T08:57:39Z</time>
      </trkpt>
      <trkpt lat="44.78646" lon="-0.13503">
        <ele>79.8</ele>
        <time>2022-10-06T08:57:40Z</time>
      </trkpt>
      <trkpt lat="44.78646" lon="-0.13501">
        <ele>79.8</ele>
        <time>2022-10-06T08:57:41Z</time>
      </trkpt>
      <trkpt lat="44.78645" lon="-0.135">
        <ele>79.8</ele>
        <time>2022-10-06T08:57:42Z</time>
      </trkpt>
      <trkpt lat="44.78644" lon="-0.13499">
        <ele>79.8</ele>
        <time>2022-10-06T08:57:43Z</time>
      </trkpt>
      <trkpt lat="44.78644" lon="-0.13497">
        <ele>79.8</ele>
        <time>2022-10-06T08:57:44Z</time>
      </trkpt>
      <trkpt lat="44.78643" lon="-0.13495">
        <ele>79.8</ele>
        <time>2022-10-06T08:57:45Z</time>
      </trkpt>
      <trkpt lat="44.78642" lon="-0.13494">
        <ele>79.8</ele>
        <time>2022-10-06T08:57:46Z</time>
      </trkpt>
      <trkpt lat="44.78641" lon="-0.13491">
        <ele>79.9</ele>
        <time>2022-10-06T08:57:47Z</time>
      </trkpt>
      <trkpt lat="44.7864" lon="-0.13489">
        <ele>79.9</ele>
        <time>2022-10-06T08:57:48Z</time>
      </trkpt>
      <trkpt lat="44.7864" lon="-0.13487">
        <ele>79.9</ele>
        <time>2022-10-06T08:57:50Z</time>
      </trkpt>
      <trkpt lat="44.78639" lon="-0.13486">
        <ele>79.9</ele>
        <time>2022-10-06T08:57:51Z</time>
      </trkpt>
      <trkpt lat="44.78638" lon="-0.13484">
        <ele>79.9</ele>
        <time>2022-10-06T08:57:52Z</time>
      </trkpt>
      <trkpt lat="44.78637" lon="-0.13482">
        <ele>79.9</ele>
        <time>2022-10-06T08:57:54Z</time>
      </trkpt>
      <trkpt lat="44.78636" lon="-0.1348">
        <ele>79.9</ele>
        <time>2022-10-06T08:57:55Z</time>
      </trkpt>
      <trkpt lat="44.78636" lon="-0.13479">
        <ele>79.9</ele>
        <time>2022-10-06T08:57:56Z</time>
      </trkpt>
      <trkpt lat="44.78635" lon="-0.13478">
        <ele>79.9</ele>
        <time>2022-10-06T08:57:57Z</time>
      </trkpt>
      <trkpt lat="44.78635" lon="-0.13476">
        <ele>79.9</ele>
        <time>2022-10-06T08:57:58Z</time>
      </trkpt>
      <trkpt lat="44.78634" lon="-0.13474">
        <ele>80</ele>
        <time>2022-10-06T08:57:59Z</time>
      </trkpt>
      <trkpt lat="44.78633" lon="-0.13473">
        <ele>80</ele>
        <time>2022-10-06T08:58:00Z</time>
      </trkpt>
      <trkpt lat="44.78633" lon="-0.13472">
        <ele>80</ele>
        <time>2022-10-06T08:58:01Z</time>
      </trkpt>
      <trkpt lat="44.78632" lon="-0.1347">
        <ele>80</ele>
        <time>2022-10-06T08:58:02Z</time>
      </trkpt>
      <trkpt lat="44.78631" lon="-0.13469">
        <ele>80</ele>
        <time>2022-10-06T08:58:03Z</time>
      </trkpt>
      <trkpt lat="44.78631" lon="-0.13468">
        <ele>80</ele>
        <time>2022-10-06T08:58:04Z</time>
      </trkpt>
      <trkpt lat="44.78629" lon="-0.13465">
        <ele>80</ele>
        <time>2022-10-06T08:58:05Z</time>
      </trkpt>
      <trkpt lat="44.78629" lon="-0.13465">
        <ele>80</ele>
        <time>2022-10-06T08:58:06Z</time>
      </trkpt>
      <trkpt lat="44.78628" lon="-0.13464">
        <ele>80</ele>
        <time>2022-10-06T08:58:07Z</time>
      </trkpt>
      <trkpt lat="44.78628" lon="-0.13463">
        <ele>80</ele>
        <time>2022-10-06T08:58:08Z</time>
      </trkpt>
      <trkpt lat="44.78627" lon="-0.13461">
        <ele>80</ele>
        <time>2022-10-06T08:58:09Z</time>
      </trkpt>
      <trkpt lat="44.78625" lon="-0.13459">
        <ele>80</ele>
        <time>2022-10-06T08:58:10Z</time>
      </trkpt>
      <trkpt lat="44.78625" lon="-0.13458">
        <ele>80</ele>
        <time>2022-10-06T08:58:11Z</time>
      </trkpt>
      <trkpt lat="44.78624" lon="-0.13457">
        <ele>80</ele>
        <time>2022-10-06T08:58:12Z</time>
      </trkpt>
      <trkpt lat="44.78623" lon="-0.13455">
        <ele>80.1</ele>
        <time>2022-10-06T08:58:13Z</time>
      </trkpt>
      <trkpt lat="44.78622" lon="-0.13454">
        <ele>80.1</ele>
        <time>2022-10-06T08:58:14Z</time>
      </trkpt>
      <trkpt lat="44.78622" lon="-0.13453">
        <ele>80.1</ele>
        <time>2022-10-06T08:58:15Z</time>
      </trkpt>
      <trkpt lat="44.78621" lon="-0.13452">
        <ele>80.1</ele>
        <time>2022-10-06T08:58:16Z</time>
      </trkpt>
      <trkpt lat="44.7862" lon="-0.13451">
        <ele>80.1</ele>
        <time>2022-10-06T08:58:17Z</time>
      </trkpt>
      <trkpt lat="44.78619" lon="-0.1345">
        <ele>80.1</ele>
        <time>2022-10-06T08:58:18Z</time>
      </trkpt>
      <trkpt lat="44.78618" lon="-0.13449">
        <ele>80.1</ele>
        <time>2022-10-06T08:58:19Z</time>
      </trkpt>
      <trkpt lat="44.78616" lon="-0.13447">
        <ele>80.1</ele>
        <time>2022-10-06T08:58:20Z</time>
      </trkpt>
      <trkpt lat="44.78616" lon="-0.13446">
        <ele>80.1</ele>
        <time>2022-10-06T08:58:21Z</time>
      </trkpt>
      <trkpt lat="44.78615" lon="-0.13445">
        <ele>80.1</ele>
        <time>2022-10-06T08:58:22Z</time>
      </trkpt>
      <trkpt lat="44.78613" lon="-0.13443">
        <ele>80.1</ele>
        <time>2022-10-06T08:58:23Z</time>
      </trkpt>
      <trkpt lat="44.78612" lon="-0.13441">
        <ele>80.2</ele>
        <time>2022-10-06T08:58:25Z</time>
      </trkpt>
      <trkpt lat="44.78611" lon="-0.13441">
        <ele>80.2</ele>
        <time>2022-10-06T08:58:26Z</time>
      </trkpt>
      <trkpt lat="44.7861" lon="-0.1344">
        <ele>80.2</ele>
        <time>2022-10-06T08:58:27Z</time>
      </trkpt>
      <trkpt lat="44.78609" lon="-0.13439">
        <ele>80.2</ele>
        <time>2022-10-06T08:58:28Z</time>
      </trkpt>
      <trkpt lat="44.78608" lon="-0.13437">
        <ele>80.2</ele>
        <time>2022-10-06T08:58:29Z</time>
      </trkpt>
      <trkpt lat="44.78607" lon="-0.13436">
        <ele>80.2</ele>
        <time>2022-10-06T08:58:30Z</time>
      </trkpt>
      <trkpt lat="44.78606" lon="-0.13436">
        <ele>80.2</ele>
        <time>2022-10-06T08:58:31Z</time>
      </trkpt>
      <trkpt lat="44.78605" lon="-0.13435">
        <ele>80.2</ele>
        <time>2022-10-06T08:58:32Z</time>
      </trkpt>
      <trkpt lat="44.78604" lon="-0.13434">
        <ele>80.2</ele>
        <time>2022-10-06T08:58:33Z</time>
      </trkpt>
      <trkpt lat="44.78603" lon="-0.13433">
        <ele>80.2</ele>
        <time>2022-10-06T08:58:34Z</time>
      </trkpt>
      <trkpt lat="44.78602" lon="-0.13432">
        <ele>80.2</ele>
        <time>2022-10-06T08:58:35Z</time>
      </trkpt>
      <trkpt lat="44.78601" lon="-0.13432">
        <ele>80.2</ele>
        <time>2022-10-06T08:58:36Z</time>
      </trkpt>
      <trkpt lat="44.786" lon="-0.13431">
        <ele>80.2</ele>
        <time>2022-10-06T08:58:37Z</time>
      </trkpt>
      <trkpt lat="44.78599" lon="-0.1343">
        <ele>80.2</ele>
        <time>2022-10-06T08:58:38Z</time>
      </trkpt>
      <trkpt lat="44.78598" lon="-0.13429">
        <ele>80.3</ele>
        <time>2022-10-06T08:58:39Z</time>
      </trkpt>
      <trkpt lat="44.78597" lon="-0.13427">
        <ele>80.3</ele>
        <time>2022-10-06T08:58:40Z</time>
      </trkpt>
      <trkpt lat="44.78597" lon="-0.13424">
        <ele>80.3</ele>
        <time>2022-10-06T08:58:41Z</time>
      </trkpt>
      <trkpt lat="44.78597" lon="-0.13422">
        <ele>80.3</ele>
        <time>2022-10-06T08:58:42Z</time>
      </trkpt>
      <trkpt lat="44.78596" lon="-0.13421">
        <ele>80.3</ele>
        <time>2022-10-06T08:58:44Z</time>
      </trkpt>
      <trkpt lat="44.78595" lon="-0.13421">
        <ele>80.3</ele>
        <time>2022-10-06T08:58:45Z</time>
      </trkpt>
      <trkpt lat="44.78594" lon="-0.1342">
        <ele>80.3</ele>
        <time>2022-10-06T08:58:46Z</time>
      </trkpt>
      <trkpt lat="44.78593" lon="-0.1342">
        <ele>80.3</ele>
        <time>2022-10-06T08:58:47Z</time>
      </trkpt>
      <trkpt lat="44.78592" lon="-0.13419">
        <ele>80.3</ele>
        <time>2022-10-06T08:58:48Z</time>
      </trkpt>
      <trkpt lat="44.78591" lon="-0.13418">
        <ele>80.3</ele>
        <time>2022-10-06T08:58:49Z</time>
      </trkpt>
      <trkpt lat="44.78591" lon="-0.13417">
        <ele>80.3</ele>
        <time>2022-10-06T08:58:50Z</time>
      </trkpt>
      <trkpt lat="44.78591" lon="-0.13415">
        <ele>80.3</ele>
        <time>2022-10-06T08:58:51Z</time>
      </trkpt>
      <trkpt lat="44.78593" lon="-0.13414">
        <ele>80.3</ele>
        <time>2022-10-06T08:58:52Z</time>
      </trkpt>
      <trkpt lat="44.78594" lon="-0.13413">
        <ele>80.4</ele>
        <time>2022-10-06T08:58:53Z</time>
      </trkpt>
      <trkpt lat="44.78595" lon="-0.13413">
        <ele>80.4</ele>
        <time>2022-10-06T08:58:54Z</time>
      </trkpt>
      <trkpt lat="44.78596" lon="-0.13411">
        <ele>80.4</ele>
        <time>2022-10-06T08:58:55Z</time>
      </trkpt>
      <trkpt lat="44.78596" lon="-0.1341">
        <ele>80.4</ele>
        <time>2022-10-06T08:58:56Z</time>
      </trkpt>
      <trkpt lat="44.78597" lon="-0.13409">
        <ele>80.4</ele>
        <time>2022-10-06T08:58:57Z</time>
      </trkpt>
      <trkpt lat="44.78597" lon="-0.13408">
        <ele>80.4</ele>
        <time>2022-10-06T08:58:58Z</time>
      </trkpt>
      <trkpt lat="44.78598" lon="-0.13407">
        <ele>80.4</ele>
        <time>2022-10-06T08:58:59Z</time>
      </trkpt>
      <trkpt lat="44.786" lon="-0.13404">
        <ele>80.4</ele>
        <time>2022-10-06T08:59:00Z</time>
      </trkpt>
      <trkpt lat="44.78601" lon="-0.13405">
        <ele>80.4</ele>
        <time>2022-10-06T08:59:01Z</time>
      </trkpt>
      <trkpt lat="44.78602" lon="-0.13405">
        <ele>80.4</ele>
        <time>2022-10-06T08:59:02Z</time>
      </trkpt>
      <trkpt lat="44.78604" lon="-0.13404">
        <ele>80.4</ele>
        <time>2022-10-06T08:59:03Z</time>
      </trkpt>
      <trkpt lat="44.78605" lon="-0.13404">
        <ele>80.4</ele>
        <time>2022-10-06T08:59:05Z</time>
      </trkpt>
      <trkpt lat="44.78606" lon="-0.13403">
        <ele>80.4</ele>
        <time>2022-10-06T08:59:06Z</time>
      </trkpt>
      <trkpt lat="44.78607" lon="-0.13401">
        <ele>80.4</ele>
        <time>2022-10-06T08:59:07Z</time>
      </trkpt>
      <trkpt lat="44.78609" lon="-0.134">
        <ele>80.4</ele>
        <time>2022-10-06T08:59:08Z</time>
      </trkpt>
      <trkpt lat="44.7861" lon="-0.13398">
        <ele>80.5</ele>
        <time>2022-10-06T08:59:10Z</time>
      </trkpt>
      <trkpt lat="44.78611" lon="-0.13397">
        <ele>80.5</ele>
        <time>2022-10-06T08:59:11Z</time>
      </trkpt>
      <trkpt lat="44.78611" lon="-0.13396">
        <ele>80.5</ele>
        <time>2022-10-06T08:59:12Z</time>
      </trkpt>
      <trkpt lat="44.78613" lon="-0.13394">
        <ele>80.5</ele>
        <time>2022-10-06T08:59:13Z</time>
      </trkpt>
      <trkpt lat="44.78614" lon="-0.13394">
        <ele>80.5</ele>
        <time>2022-10-06T08:59:14Z</time>
      </trkpt>
      <trkpt lat="44.78614" lon="-0.13393">
        <ele>80.5</ele>
        <time>2022-10-06T08:59:15Z</time>
      </trkpt>
      <trkpt lat="44.78615" lon="-0.13392">
        <ele>80.5</ele>
        <time>2022-10-06T08:59:16Z</time>
      </trkpt>
      <trkpt lat="44.78616" lon="-0.1339">
        <ele>80.5</ele>
        <time>2022-10-06T08:59:17Z</time>
      </trkpt>
      <trkpt lat="44.78616" lon="-0.13389">
        <ele>80.5</ele>
        <time>2022-10-06T08:59:18Z</time>
      </trkpt>
      <trkpt lat="44.78617" lon="-0.13388">
        <ele>80.5</ele>
        <time>2022-10-06T08:59:19Z</time>
      </trkpt>
      <trkpt lat="44.78618" lon="-0.13386">
        <ele>80.5</ele>
        <time>2022-10-06T08:59:20Z</time>
      </trkpt>
      <trkpt lat="44.78618" lon="-0.13385">
        <ele>80.5</ele>
        <time>2022-10-06T08:59:21Z</time>
      </trkpt>
      <trkpt lat="44.78619" lon="-0.13384">
        <ele>80.5</ele>
        <time>2022-10-06T08:59:22Z</time>
      </trkpt>
      <trkpt lat="44.7862" lon="-0.13384">
        <ele>80.5</ele>
        <time>2022-10-06T08:59:23Z</time>
      </trkpt>
      <trkpt lat="44.7862" lon="-0.13383">
        <ele>80.5</ele>
        <time>2022-10-06T08:59:24Z</time>
      </trkpt>
      <trkpt lat="44.78622" lon="-0.1338">
        <ele>80.5</ele>
        <time>2022-10-06T08:59:25Z</time>
      </trkpt>
      <trkpt lat="44.78623" lon="-0.13379">
        <ele>80.6</ele>
        <time>2022-10-06T08:59:26Z</time>
      </trkpt>
      <trkpt lat="44.78623" lon="-0.13378">
        <ele>80.6</ele>
        <time>2022-10-06T08:59:27Z</time>
      </trkpt>
      <trkpt lat="44.78625" lon="-0.13376">
        <ele>80.6</ele>
        <time>2022-10-06T08:59:28Z</time>
      </trkpt>
      <trkpt lat="44.78626" lon="-0.13375">
        <ele>80.6</ele>
        <time>2022-10-06T08:59:30Z</time>
      </trkpt>
      <trkpt lat="44.78626" lon="-0.13374">
        <ele>80.6</ele>
        <time>2022-10-06T08:59:31Z</time>
      </trkpt>
      <trkpt lat="44.78628" lon="-0.13372">
        <ele>80.6</ele>
        <time>2022-10-06T08:59:32Z</time>
      </trkpt>
      <trkpt lat="44.78628" lon="-0.13371">
        <ele>80.6</ele>
        <time>2022-10-06T08:59:33Z</time>
      </trkpt>
      <trkpt lat="44.78629" lon="-0.13369">
        <ele>80.6</ele>
        <time>2022-10-06T08:59:35Z</time>
      </trkpt>
      <trkpt lat="44.7863" lon="-0.13368">
        <ele>80.6</ele>
        <time>2022-10-06T08:59:36Z</time>
      </trkpt>
      <trkpt lat="44.7863" lon="-0.13366">
        <ele>80.6</ele>
        <time>2022-10-06T08:59:37Z</time>
      </trkpt>
      <trkpt lat="44.78631" lon="-0.13364">
        <ele>80.6</ele>
        <time>2022-10-06T08:59:38Z</time>
      </trkpt>
      <trkpt lat="44.78632" lon="-0.13362">
        <ele>80.6</ele>
        <time>2022-10-06T08:59:39Z</time>
      </trkpt>
      <trkpt lat="44.78633" lon="-0.1336">
        <ele>80.6</ele>
        <time>2022-10-06T08:59:40Z</time>
      </trkpt>
      <trkpt lat="44.78634" lon="-0.13357">
        <ele>80.7</ele>
        <time>2022-10-06T08:59:41Z</time>
      </trkpt>
      <trkpt lat="44.78634" lon="-0.13356">
        <ele>80.7</ele>
        <time>2022-10-06T08:59:42Z</time>
      </trkpt>
      <trkpt lat="44.78635" lon="-0.13355">
        <ele>80.7</ele>
        <time>2022-10-06T08:59:43Z</time>
      </trkpt>
      <trkpt lat="44.78635" lon="-0.13353">
        <ele>80.7</ele>
        <time>2022-10-06T08:59:44Z</time>
      </trkpt>
      <trkpt lat="44.78636" lon="-0.13351">
        <ele>80.7</ele>
        <time>2022-10-06T08:59:45Z</time>
      </trkpt>
      <trkpt lat="44.78636" lon="-0.1335">
        <ele>80.7</ele>
        <time>2022-10-06T08:59:46Z</time>
      </trkpt>
      <trkpt lat="44.78637" lon="-0.13348">
        <ele>80.7</ele>
        <time>2022-10-06T08:59:47Z</time>
      </trkpt>
      <trkpt lat="44.78637" lon="-0.13346">
        <ele>80.7</ele>
        <time>2022-10-06T08:59:49Z</time>
      </trkpt>
      <trkpt lat="44.78638" lon="-0.13344">
        <ele>80.7</ele>
        <time>2022-10-06T08:59:50Z</time>
      </trkpt>
      <trkpt lat="44.78638" lon="-0.13343">
        <ele>80.7</ele>
        <time>2022-10-06T08:59:51Z</time>
      </trkpt>
      <trkpt lat="44.78638" lon="-0.13342">
        <ele>80.7</ele>
        <time>2022-10-06T08:59:52Z</time>
      </trkpt>
      <trkpt lat="44.78637" lon="-0.13339">
        <ele>80.7</ele>
        <time>2022-10-06T08:59:53Z</time>
      </trkpt>
      <trkpt lat="44.78638" lon="-0.13337">
        <ele>80.7</ele>
        <time>2022-10-06T08:59:54Z</time>
      </trkpt>
      <trkpt lat="44.78638" lon="-0.13337">
        <ele>80.7</ele>
        <time>2022-10-06T08:59:56Z</time>
      </trkpt>
      <trkpt lat="44.78638" lon="-0.13337">
        <ele>80.7</ele>
        <time>2022-10-06T08:59:57Z</time>
      </trkpt>
      <trkpt lat="44.78639" lon="-0.13338">
        <ele>80.7</ele>
        <time>2022-10-06T08:59:58Z</time>
      </trkpt>
      <trkpt lat="44.78639" lon="-0.13338">
        <ele>80.8</ele>
        <time>2022-10-06T08:59:59Z</time>
      </trkpt>
      <trkpt lat="44.78639" lon="-0.13338">
        <ele>80.8</ele>
        <time>2022-10-06T09:00:00Z</time>
      </trkpt>
      <trkpt lat="44.7864" lon="-0.13339">
        <ele>80.8</ele>
        <time>2022-10-06T09:00:01Z</time>
      </trkpt>
      <trkpt lat="44.7864" lon="-0.13339">
        <ele>80.8</ele>
        <time>2022-10-06T09:00:02Z</time>
      </trkpt>
      <trkpt lat="44.7864" lon="-0.13339">
        <ele>80.8</ele>
        <time>2022-10-06T09:00:03Z</time>
      </trkpt>
      <trkpt lat="44.78641" lon="-0.1334">
        <ele>80.8</ele>
        <time>2022-10-06T09:00:04Z</time>
      </trkpt>
      <trkpt lat="44.78642" lon="-0.13345">
        <ele>80.8</ele>
        <time>2022-10-06T09:00:05Z</time>
      </trkpt>
      <trkpt lat="44.78642" lon="-0.13345">
        <ele>80.8</ele>
        <time>2022-10-06T09:00:06Z</time>
      </trkpt>
      <trkpt lat="44.78642" lon="-0.13347">
        <ele>80.8</ele>
        <time>2022-10-06T09:00:07Z</time>
      </trkpt>
      <trkpt lat="44.78642" lon="-0.13347">
        <ele>80.8</ele>
        <time>2022-10-06T09:00:08Z</time>
      </trkpt>
      <trkpt lat="44.78642" lon="-0.13346">
        <ele>80.8</ele>
        <time>2022-10-06T09:00:10Z</time>
      </trkpt>
      <trkpt lat="44.78641" lon="-0.13344">
        <ele>80.8</ele>
        <time>2022-10-06T09:00:11Z</time>
      </trkpt>
      <trkpt lat="44.78641" lon="-0.13344">
        <ele>80.8</ele>
        <time>2022-10-06T09:00:12Z</time>
      </trkpt>
      <trkpt lat="44.78641" lon="-0.13344">
        <ele>80.8</ele>
        <time>2022-10-06T09:00:13Z</time>
      </trkpt>
      <trkpt lat="44.78641" lon="-0.13344">
        <ele>80.8</ele>
        <time>2022-10-06T09:00:14Z</time>
      </trkpt>
      <trkpt lat="44.78642" lon="-0.13344">
        <ele>80.8</ele>
        <time>2022-10-06T09:00:15Z</time>
      </trkpt>
      <trkpt lat="44.78642" lon="-0.13345">
        <ele>80.8</ele>
        <time>2022-10-06T09:00:16Z</time>
      </trkpt>
      <trkpt lat="44.78642" lon="-0.13345">
        <ele>80.8</ele>
        <time>2022-10-06T09:00:17Z</time>
      </trkpt>
      <trkpt lat="44.78642" lon="-0.13345">
        <ele>80.8</ele>
        <time>2022-10-06T09:00:18Z</time>
      </trkpt>
      <trkpt lat="44.78642" lon="-0.13345">
        <ele>80.8</ele>
        <time>2022-10-06T09:00:19Z</time>
      </trkpt>
      <trkpt lat="44.78642" lon="-0.13345">
        <ele>80.8</ele>
        <time>2022-10-06T09:00:21Z</time>
      </trkpt>
      <trkpt lat="44.78642" lon="-0.13345">
        <ele>80.8</ele>
        <time>2022-10-06T09:00:22Z</time>
      </trkpt>
      <trkpt lat="44.78642" lon="-0.13345">
        <ele>80.8</ele>
        <time>2022-10-06T09:00:23Z</time>
      </trkpt>
      <trkpt lat="44.78642" lon="-0.13345">
        <ele>80.8</ele>
        <time>2022-10-06T09:00:24Z</time>
      </trkpt>
      <trkpt lat="44.78641" lon="-0.13345">
        <ele>80.8</ele>
        <time>2022-10-06T09:00:25Z</time>
      </trkpt>
      <trkpt lat="44.78641" lon="-0.13345">
        <ele>80.8</ele>
        <time>2022-10-06T09:00:26Z</time>
      </trkpt>
      <trkpt lat="44.78641" lon="-0.13345">
        <ele>80.8</ele>
        <time>2022-10-06T09:00:27Z</time>
      </trkpt>
      <trkpt lat="44.78641" lon="-0.13345">
        <ele>80.8</ele>
        <time>2022-10-06T09:00:28Z</time>
      </trkpt>
      <trkpt lat="44.78641" lon="-0.13345">
        <ele>80.8</ele>
        <time>2022-10-06T09:00:29Z</time>
      </trkpt>
      <trkpt lat="44.78641" lon="-0.13345">
        <ele>80.8</ele>
        <time>2022-10-06T09:00:31Z</time>
      </trkpt>
      <trkpt lat="44.78641" lon="-0.13345">
        <ele>80.8</ele>
        <time>2022-10-06T09:00:32Z</time>
      </trkpt>
      <trkpt lat="44.78641" lon="-0.13345">
        <ele>80.8</ele>
        <time>2022-10-06T09:00:34Z</time>
      </trkpt>
      <trkpt lat="44.78641" lon="-0.13345">
        <ele>80.8</ele>
        <time>2022-10-06T09:00:35Z</time>
      </trkpt>
      <trkpt lat="44.78641" lon="-0.13345">
        <ele>80.8</ele>
        <time>2022-10-06T09:00:36Z</time>
      </trkpt>
      <trkpt lat="44.78641" lon="-0.13345">
        <ele>80.8</ele>
        <time>2022-10-06T09:00:37Z</time>
      </trkpt>
      <trkpt lat="44.78641" lon="-0.13345">
        <ele>80.8</ele>
        <time>2022-10-06T09:00:38Z</time>
      </trkpt>
      <trkpt lat="44.78641" lon="-0.13345">
        <ele>80.8</ele>
        <time>2022-10-06T09:00:39Z</time>
      </trkpt>
      <trkpt lat="44.78641" lon="-0.13345">
        <ele>80.8</ele>
        <time>2022-10-06T09:00:40Z</time>
      </trkpt>
      <trkpt lat="44.78641" lon="-0.13345">
        <ele>80.8</ele>
        <time>2022-10-06T09:00:41Z</time>
      </trkpt>
      <trkpt lat="44.78641" lon="-0.13345">
        <ele>80.8</ele>
        <time>2022-10-06T09:00:42Z</time>
      </trkpt>
      <trkpt lat="44.78641" lon="-0.13345">
        <ele>80.8</ele>
        <time>2022-10-06T09:00:43Z</time>
      </trkpt>
      <trkpt lat="44.78641" lon="-0.13345">
        <ele>80.8</ele>
        <time>2022-10-06T09:00:44Z</time>
      </trkpt>
      <trkpt lat="44.78641" lon="-0.13345">
        <ele>80.8</ele>
        <time>2022-10-06T09:00:45Z</time>
      </trkpt>
      <trkpt lat="44.78641" lon="-0.13345">
        <ele>80.8</ele>
        <time>2022-10-06T09:00:46Z</time>
      </trkpt>
      <trkpt lat="44.78641" lon="-0.13345">
        <ele>80.8</ele>
        <time>2022-10-06T09:00:47Z</time>
      </trkpt>
      <trkpt lat="44.78641" lon="-0.13345">
        <ele>80.8</ele>
        <time>2022-10-06T09:00:48Z</time>
      </trkpt>
      <trkpt lat="44.78641" lon="-0.13345">
        <ele>80.8</ele>
        <time>2022-10-06T09:00:50Z</time>
      </trkpt>
      <trkpt lat="44.78641" lon="-0.13345">
        <ele>80.8</ele>
        <time>2022-10-06T09:00:51Z</time>
      </trkpt>
      <trkpt lat="44.78641" lon="-0.13345">
        <ele>80.8</ele>
        <time>2022-10-06T09:00:52Z</time>
      </trkpt>
      <trkpt lat="44.78641" lon="-0.13345">
        <ele>80.8</ele>
        <time>2022-10-06T09:00:53Z</time>
      </trkpt>
      <trkpt lat="44.78641" lon="-0.13345">
        <ele>80.8</ele>
        <time>2022-10-06T09:00:54Z</time>
      </trkpt>
      <trkpt lat="44.78641" lon="-0.13345">
        <ele>80.8</ele>
        <time>2022-10-06T09:00:56Z</time>
      </trkpt>
      <trkpt lat="44.78641" lon="-0.13345">
        <ele>80.8</ele>
        <time>2022-10-06T09:00:57Z</time>
      </trkpt>
      <trkpt lat="44.78639" lon="-0.13344">
        <ele>80.8</ele>
        <time>2022-10-06T09:00:59Z</time>
      </trkpt>
      <trkpt lat="44.78639" lon="-0.13344">
        <ele>80.8</ele>
        <time>2022-10-06T09:01:00Z</time>
      </trkpt>
      <trkpt lat="44.78638" lon="-0.13344">
        <ele>80.8</ele>
        <time>2022-10-06T09:01:02Z</time>
      </trkpt>
      <trkpt lat="44.78638" lon="-0.13344">
        <ele>80.8</ele>
        <time>2022-10-06T09:01:03Z</time>
      </trkpt>
      <trkpt lat="44.78638" lon="-0.13344">
        <ele>80.8</ele>
        <time>2022-10-06T09:01:04Z</time>
      </trkpt>
      <trkpt lat="44.78639" lon="-0.13344">
        <ele>80.9</ele>
        <time>2022-10-06T09:01:05Z</time>
      </trkpt>
      <trkpt lat="44.7864" lon="-0.13343">
        <ele>80.9</ele>
        <time>2022-10-06T09:01:06Z</time>
      </trkpt>
      <trkpt lat="44.78641" lon="-0.13342">
        <ele>80.9</ele>
        <time>2022-10-06T09:01:07Z</time>
      </trkpt>
      <trkpt lat="44.78642" lon="-0.1334">
        <ele>80.9</ele>
        <time>2022-10-06T09:01:09Z</time>
      </trkpt>
      <trkpt lat="44.78642" lon="-0.13339">
        <ele>80.9</ele>
        <time>2022-10-06T09:01:10Z</time>
      </trkpt>
      <trkpt lat="44.78643" lon="-0.13339">
        <ele>80.9</ele>
        <time>2022-10-06T09:01:11Z</time>
      </trkpt>
      <trkpt lat="44.78643" lon="-0.13339">
        <ele>80.9</ele>
        <time>2022-10-06T09:01:12Z</time>
      </trkpt>
      <trkpt lat="44.78643" lon="-0.13339">
        <ele>80.9</ele>
        <time>2022-10-06T09:01:13Z</time>
      </trkpt>
      <trkpt lat="44.78642" lon="-0.13339">
        <ele>80.9</ele>
        <time>2022-10-06T09:01:14Z</time>
      </trkpt>
      <trkpt lat="44.78642" lon="-0.13339">
        <ele>80.9</ele>
        <time>2022-10-06T09:01:15Z</time>
      </trkpt>
      <trkpt lat="44.78642" lon="-0.13338">
        <ele>80.9</ele>
        <time>2022-10-06T09:01:16Z</time>
      </trkpt>
      <trkpt lat="44.78641" lon="-0.13337">
        <ele>80.9</ele>
        <time>2022-10-06T09:01:17Z</time>
      </trkpt>
      <trkpt lat="44.78641" lon="-0.13337">
        <ele>80.9</ele>
        <time>2022-10-06T09:01:18Z</time>
      </trkpt>
      <trkpt lat="44.7864" lon="-0.13339">
        <ele>80.9</ele>
        <time>2022-10-06T09:01:19Z</time>
      </trkpt>
      <trkpt lat="44.7864" lon="-0.1334">
        <ele>80.9</ele>
        <time>2022-10-06T09:01:20Z</time>
      </trkpt>
      <trkpt lat="44.7864" lon="-0.1334">
        <ele>80.9</ele>
        <time>2022-10-06T09:01:21Z</time>
      </trkpt>
      <trkpt lat="44.7864" lon="-0.13339">
        <ele>80.9</ele>
        <time>2022-10-06T09:01:23Z</time>
      </trkpt>
      <trkpt lat="44.7864" lon="-0.13339">
        <ele>80.9</ele>
        <time>2022-10-06T09:01:24Z</time>
      </trkpt>
      <trkpt lat="44.7864" lon="-0.13339">
        <ele>80.9</ele>
        <time>2022-10-06T09:01:25Z</time>
      </trkpt>
      <trkpt lat="44.7864" lon="-0.13339">
        <ele>80.9</ele>
        <time>2022-10-06T09:01:27Z</time>
      </trkpt>
      <trkpt lat="44.7864" lon="-0.13339">
        <ele>80.9</ele>
        <time>2022-10-06T09:01:29Z</time>
      </trkpt>
      <trkpt lat="44.7864" lon="-0.13339">
        <ele>80.9</ele>
        <time>2022-10-06T09:01:30Z</time>
      </trkpt>
      <trkpt lat="44.7864" lon="-0.1334">
        <ele>80.9</ele>
        <time>2022-10-06T09:01:31Z</time>
      </trkpt>
      <trkpt lat="44.7864" lon="-0.1334">
        <ele>80.9</ele>
        <time>2022-10-06T09:01:32Z</time>
      </trkpt>
      <trkpt lat="44.7864" lon="-0.1334">
        <ele>80.9</ele>
        <time>2022-10-06T09:01:33Z</time>
      </trkpt>
      <trkpt lat="44.7864" lon="-0.1334">
        <ele>81</ele>
        <time>2022-10-06T09:01:34Z</time>
      </trkpt>
      <trkpt lat="44.78641" lon="-0.13341">
        <ele>81</ele>
        <time>2022-10-06T09:01:35Z</time>
      </trkpt>
      <trkpt lat="44.78643" lon="-0.13342">
        <ele>81</ele>
        <time>2022-10-06T09:01:36Z</time>
      </trkpt>
      <trkpt lat="44.78643" lon="-0.13342">
        <ele>81</ele>
        <time>2022-10-06T09:01:37Z</time>
      </trkpt>
      <trkpt lat="44.78643" lon="-0.13342">
        <ele>81</ele>
        <time>2022-10-06T09:01:38Z</time>
      </trkpt>
      <trkpt lat="44.78642" lon="-0.13342">
        <ele>81</ele>
        <time>2022-10-06T09:01:39Z</time>
      </trkpt>
      <trkpt lat="44.78641" lon="-0.13342">
        <ele>81</ele>
        <time>2022-10-06T09:01:40Z</time>
      </trkpt>
      <trkpt lat="44.7864" lon="-0.13342">
        <ele>81</ele>
        <time>2022-10-06T09:01:41Z</time>
      </trkpt>
      <trkpt lat="44.7864" lon="-0.13342">
        <ele>81</ele>
        <time>2022-10-06T09:01:42Z</time>
      </trkpt>
      <trkpt lat="44.7864" lon="-0.13341">
        <ele>81</ele>
        <time>2022-10-06T09:01:43Z</time>
      </trkpt>
      <trkpt lat="44.78639" lon="-0.13341">
        <ele>81</ele>
        <time>2022-10-06T09:01:44Z</time>
      </trkpt>
      <trkpt lat="44.78639" lon="-0.13341">
        <ele>81</ele>
        <time>2022-10-06T09:01:45Z</time>
      </trkpt>
      <trkpt lat="44.78639" lon="-0.13341">
        <ele>81</ele>
        <time>2022-10-06T09:01:46Z</time>
      </trkpt>
      <trkpt lat="44.7864" lon="-0.13341">
        <ele>81</ele>
        <time>2022-10-06T09:01:47Z</time>
      </trkpt>
      <trkpt lat="44.7864" lon="-0.13341">
        <ele>81</ele>
        <time>2022-10-06T09:01:49Z</time>
      </trkpt>
      <trkpt lat="44.7864" lon="-0.13341">
        <ele>81</ele>
        <time>2022-10-06T09:01:50Z</time>
      </trkpt>
      <trkpt lat="44.7864" lon="-0.13341">
        <ele>81</ele>
        <time>2022-10-06T09:01:51Z</time>
      </trkpt>
      <trkpt lat="44.7864" lon="-0.13341">
        <ele>81</ele>
        <time>2022-10-06T09:01:52Z</time>
      </trkpt>
      <trkpt lat="44.7864" lon="-0.13341">
        <ele>81</ele>
        <time>2022-10-06T09:01:53Z</time>
      </trkpt>
      <trkpt lat="44.7864" lon="-0.13341">
        <ele>81</ele>
        <time>2022-10-06T09:01:54Z</time>
      </trkpt>
      <trkpt lat="44.7864" lon="-0.13341">
        <ele>81</ele>
        <time>2022-10-06T09:01:55Z</time>
      </trkpt>
      <trkpt lat="44.7864" lon="-0.13341">
        <ele>81</ele>
        <time>2022-10-06T09:01:56Z</time>
      </trkpt>
      <trkpt lat="44.7864" lon="-0.13341">
        <ele>81</ele>
        <time>2022-10-06T09:01:57Z</time>
      </trkpt>
      <trkpt lat="44.7864" lon="-0.13341">
        <ele>81</ele>
        <time>2022-10-06T09:01:58Z</time>
      </trkpt>
      <trkpt lat="44.7864" lon="-0.13341">
        <ele>81</ele>
        <time>2022-10-06T09:01:59Z</time>
      </trkpt>
      <trkpt lat="44.7864" lon="-0.13341">
        <ele>81</ele>
        <time>2022-10-06T09:02:00Z</time>
      </trkpt>
      <trkpt lat="44.7864" lon="-0.13341">
        <ele>81</ele>
        <time>2022-10-06T09:02:01Z</time>
      </trkpt>
      <trkpt lat="44.7864" lon="-0.13341">
        <ele>81</ele>
        <time>2022-10-06T09:02:02Z</time>
      </trkpt>
      <trkpt lat="44.7864" lon="-0.13341">
        <ele>81</ele>
        <time>2022-10-06T09:02:03Z</time>
      </trkpt>
      <trkpt lat="44.7864" lon="-0.13341">
        <ele>81</ele>
        <time>2022-10-06T09:02:04Z</time>
      </trkpt>
      <trkpt lat="44.7864" lon="-0.13341">
        <ele>81</ele>
        <time>2022-10-06T09:02:05Z</time>
      </trkpt>
      <trkpt lat="44.7864" lon="-0.13341">
        <ele>81</ele>
        <time>2022-10-06T09:02:06Z</time>
      </trkpt>
      <trkpt lat="44.7864" lon="-0.13341">
        <ele>81</ele>
        <time>2022-10-06T09:02:07Z</time>
      </trkpt>
      <trkpt lat="44.7864" lon="-0.13341">
        <ele>81</ele>
        <time>2022-10-06T09:02:08Z</time>
      </trkpt>
      <trkpt lat="44.7864" lon="-0.13341">
        <ele>81</ele>
        <time>2022-10-06T09:02:09Z</time>
      </trkpt>
      <trkpt lat="44.7864" lon="-0.13341">
        <ele>81</ele>
        <time>2022-10-06T09:02:11Z</time>
      </trkpt>
      <trkpt lat="44.7864" lon="-0.13341">
        <ele>81</ele>
        <time>2022-10-06T09:02:12Z</time>
      </trkpt>
      <trkpt lat="44.7864" lon="-0.13341">
        <ele>81</ele>
        <time>2022-10-06T09:02:13Z</time>
      </trkpt>
      <trkpt lat="44.7864" lon="-0.13341">
        <ele>81</ele>
        <time>2022-10-06T09:02:14Z</time>
      </trkpt>
      <trkpt lat="44.7864" lon="-0.13341">
        <ele>81</ele>
        <time>2022-10-06T09:02:15Z</time>
      </trkpt>
      <trkpt lat="44.7864" lon="-0.13341">
        <ele>81</ele>
        <time>2022-10-06T09:02:16Z</time>
      </trkpt>
      <trkpt lat="44.7864" lon="-0.13341">
        <ele>81</ele>
        <time>2022-10-06T09:02:17Z</time>
      </trkpt>
      <trkpt lat="44.7864" lon="-0.13341">
        <ele>81</ele>
        <time>2022-10-06T09:02:18Z</time>
      </trkpt>
      <trkpt lat="44.7864" lon="-0.13341">
        <ele>81</ele>
        <time>2022-10-06T09:02:19Z</time>
      </trkpt>
      <trkpt lat="44.7864" lon="-0.13341">
        <ele>81</ele>
        <time>2022-10-06T09:02:21Z</time>
      </trkpt>
      <trkpt lat="44.7864" lon="-0.13341">
        <ele>81</ele>
        <time>2022-10-06T09:02:22Z</time>
      </trkpt>
      <trkpt lat="44.7864" lon="-0.13341">
        <ele>81</ele>
        <time>2022-10-06T09:02:23Z</time>
      </trkpt>
      <trkpt lat="44.7864" lon="-0.13341">
        <ele>81</ele>
        <time>2022-10-06T09:02:24Z</time>
      </trkpt>
      <trkpt lat="44.7864" lon="-0.13341">
        <ele>81</ele>
        <time>2022-10-06T09:02:26Z</time>
      </trkpt>
      <trkpt lat="44.7864" lon="-0.13341">
        <ele>81</ele>
        <time>2022-10-06T09:02:27Z</time>
      </trkpt>
      <trkpt lat="44.7864" lon="-0.13341">
        <ele>81</ele>
        <time>2022-10-06T09:02:28Z</time>
      </trkpt>
      <trkpt lat="44.78639" lon="-0.13341">
        <ele>81</ele>
        <time>2022-10-06T09:02:29Z</time>
      </trkpt>
      <trkpt lat="44.78639" lon="-0.13341">
        <ele>81</ele>
        <time>2022-10-06T09:02:30Z</time>
      </trkpt>
      <trkpt lat="44.78639" lon="-0.13341">
        <ele>81</ele>
        <time>2022-10-06T09:02:31Z</time>
      </trkpt>
      <trkpt lat="44.78639" lon="-0.13341">
        <ele>81</ele>
        <time>2022-10-06T09:02:32Z</time>
      </trkpt>
      <trkpt lat="44.78639" lon="-0.13341">
        <ele>81</ele>
        <time>2022-10-06T09:02:33Z</time>
      </trkpt>
      <trkpt lat="44.78639" lon="-0.13341">
        <ele>81</ele>
        <time>2022-10-06T09:02:34Z</time>
      </trkpt>
      <trkpt lat="44.78639" lon="-0.1334">
        <ele>81</ele>
        <time>2022-10-06T09:02:35Z</time>
      </trkpt>
      <trkpt lat="44.78639" lon="-0.1334">
        <ele>81</ele>
        <time>2022-10-06T09:02:36Z</time>
      </trkpt>
      <trkpt lat="44.78639" lon="-0.1334">
        <ele>81</ele>
        <time>2022-10-06T09:02:37Z</time>
      </trkpt>
      <trkpt lat="44.78639" lon="-0.1334">
        <ele>81</ele>
        <time>2022-10-06T09:02:38Z</time>
      </trkpt>
      <trkpt lat="44.78637" lon="-0.13341">
        <ele>81</ele>
        <time>2022-10-06T09:02:39Z</time>
      </trkpt>
      <trkpt lat="44.78636" lon="-0.13341">
        <ele>81.1</ele>
        <time>2022-10-06T09:02:40Z</time>
      </trkpt>
      <trkpt lat="44.78635" lon="-0.13341">
        <ele>81.1</ele>
        <time>2022-10-06T09:02:42Z</time>
      </trkpt>
      <trkpt lat="44.78635" lon="-0.13341">
        <ele>81.1</ele>
        <time>2022-10-06T09:02:43Z</time>
      </trkpt>
      <trkpt lat="44.78635" lon="-0.13342">
        <ele>81.1</ele>
        <time>2022-10-06T09:02:44Z</time>
      </trkpt>
      <trkpt lat="44.78634" lon="-0.13343">
        <ele>81.1</ele>
        <time>2022-10-06T09:02:45Z</time>
      </trkpt>
      <trkpt lat="44.78634" lon="-0.13343">
        <ele>81.1</ele>
        <time>2022-10-06T09:02:47Z</time>
      </trkpt>
      <trkpt lat="44.78634" lon="-0.13343">
        <ele>81.1</ele>
        <time>2022-10-06T09:02:48Z</time>
      </trkpt>
      <trkpt lat="44.78634" lon="-0.13343">
        <ele>81.1</ele>
        <time>2022-10-06T09:02:49Z</time>
      </trkpt>
      <trkpt lat="44.78634" lon="-0.13343">
        <ele>81.1</ele>
        <time>2022-10-06T09:02:50Z</time>
      </trkpt>
      <trkpt lat="44.78634" lon="-0.13344">
        <ele>81.1</ele>
        <time>2022-10-06T09:02:51Z</time>
      </trkpt>
      <trkpt lat="44.78634" lon="-0.13344">
        <ele>81.1</ele>
        <time>2022-10-06T09:02:52Z</time>
      </trkpt>
      <trkpt lat="44.78635" lon="-0.13345">
        <ele>81.1</ele>
        <time>2022-10-06T09:02:53Z</time>
      </trkpt>
      <trkpt lat="44.78635" lon="-0.13348">
        <ele>81.1</ele>
        <time>2022-10-06T09:02:54Z</time>
      </trkpt>
      <trkpt lat="44.78635" lon="-0.1335">
        <ele>81.1</ele>
        <time>2022-10-06T09:02:56Z</time>
      </trkpt>
      <trkpt lat="44.78635" lon="-0.13351">
        <ele>81.1</ele>
        <time>2022-10-06T09:02:57Z</time>
      </trkpt>
      <trkpt lat="44.78635" lon="-0.13352">
        <ele>81.1</ele>
        <time>2022-10-06T09:02:58Z</time>
      </trkpt>
      <trkpt lat="44.78635" lon="-0.13355">
        <ele>81.2</ele>
        <time>2022-10-06T09:02:59Z</time>
      </trkpt>
      <trkpt lat="44.78635" lon="-0.13357">
        <ele>81.2</ele>
        <time>2022-10-06T09:03:01Z</time>
      </trkpt>
      <trkpt lat="44.78635" lon="-0.13358">
        <ele>81.2</ele>
        <time>2022-10-06T09:03:02Z</time>
      </trkpt>
      <trkpt lat="44.78634" lon="-0.13359">
        <ele>81.2</ele>
        <time>2022-10-06T09:03:03Z</time>
      </trkpt>
      <trkpt lat="44.78634" lon="-0.13361">
        <ele>81.2</ele>
        <time>2022-10-06T09:03:04Z</time>
      </trkpt>
      <trkpt lat="44.78634" lon="-0.13362">
        <ele>81.2</ele>
        <time>2022-10-06T09:03:05Z</time>
      </trkpt>
      <trkpt lat="44.78633" lon="-0.13363">
        <ele>81.2</ele>
        <time>2022-10-06T09:03:06Z</time>
      </trkpt>
      <trkpt lat="44.78633" lon="-0.13364">
        <ele>81.2</ele>
        <time>2022-10-06T09:03:07Z</time>
      </trkpt>
      <trkpt lat="44.78633" lon="-0.13365">
        <ele>81.2</ele>
        <time>2022-10-06T09:03:08Z</time>
      </trkpt>
      <trkpt lat="44.78632" lon="-0.13366">
        <ele>81.2</ele>
        <time>2022-10-06T09:03:09Z</time>
      </trkpt>
      <trkpt lat="44.78632" lon="-0.13367">
        <ele>81.2</ele>
        <time>2022-10-06T09:03:10Z</time>
      </trkpt>
      <trkpt lat="44.78631" lon="-0.13367">
        <ele>81.2</ele>
        <time>2022-10-06T09:03:11Z</time>
      </trkpt>
      <trkpt lat="44.7863" lon="-0.13368">
        <ele>81.2</ele>
        <time>2022-10-06T09:03:12Z</time>
      </trkpt>
      <trkpt lat="44.78629" lon="-0.13368">
        <ele>81.3</ele>
        <time>2022-10-06T09:03:14Z</time>
      </trkpt>
      <trkpt lat="44.78628" lon="-0.13369">
        <ele>81.3</ele>
        <time>2022-10-06T09:03:15Z</time>
      </trkpt>
      <trkpt lat="44.78627" lon="-0.13369">
        <ele>81.3</ele>
        <time>2022-10-06T09:03:16Z</time>
      </trkpt>
      <trkpt lat="44.78627" lon="-0.1337">
        <ele>81.3</ele>
        <time>2022-10-06T09:03:17Z</time>
      </trkpt>
      <trkpt lat="44.78626" lon="-0.13371">
        <ele>81.3</ele>
        <time>2022-10-06T09:03:18Z</time>
      </trkpt>
      <trkpt lat="44.78626" lon="-0.13372">
        <ele>81.3</ele>
        <time>2022-10-06T09:03:19Z</time>
      </trkpt>
      <trkpt lat="44.78626" lon="-0.13373">
        <ele>81.3</ele>
        <time>2022-10-06T09:03:20Z</time>
      </trkpt>
      <trkpt lat="44.78625" lon="-0.13374">
        <ele>81.3</ele>
        <time>2022-10-06T09:03:21Z</time>
      </trkpt>
      <trkpt lat="44.78624" lon="-0.13376">
        <ele>81.3</ele>
        <time>2022-10-06T09:03:22Z</time>
      </trkpt>
      <trkpt lat="44.78624" lon="-0.13377">
        <ele>81.3</ele>
        <time>2022-10-06T09:03:23Z</time>
      </trkpt>
      <trkpt lat="44.78623" lon="-0.13378">
        <ele>81.3</ele>
        <time>2022-10-06T09:03:24Z</time>
      </trkpt>
      <trkpt lat="44.78623" lon="-0.13379">
        <ele>81.3</ele>
        <time>2022-10-06T09:03:25Z</time>
      </trkpt>
      <trkpt lat="44.78622" lon="-0.1338">
        <ele>81.3</ele>
        <time>2022-10-06T09:03:26Z</time>
      </trkpt>
      <trkpt lat="44.78622" lon="-0.13381">
        <ele>81.3</ele>
        <time>2022-10-06T09:03:27Z</time>
      </trkpt>
      <trkpt lat="44.78621" lon="-0.13382">
        <ele>81.4</ele>
        <time>2022-10-06T09:03:28Z</time>
      </trkpt>
      <trkpt lat="44.7862" lon="-0.13384">
        <ele>81.4</ele>
        <time>2022-10-06T09:03:29Z</time>
      </trkpt>
      <trkpt lat="44.7862" lon="-0.13385">
        <ele>81.4</ele>
        <time>2022-10-06T09:03:30Z</time>
      </trkpt>
      <trkpt lat="44.78619" lon="-0.13387">
        <ele>81.4</ele>
        <time>2022-10-06T09:03:32Z</time>
      </trkpt>
      <trkpt lat="44.78618" lon="-0.13387">
        <ele>81.4</ele>
        <time>2022-10-06T09:03:33Z</time>
      </trkpt>
      <trkpt lat="44.78618" lon="-0.13388">
        <ele>81.4</ele>
        <time>2022-10-06T09:03:34Z</time>
      </trkpt>
      <trkpt lat="44.78616" lon="-0.13391">
        <ele>81.4</ele>
        <time>2022-10-06T09:03:35Z</time>
      </trkpt>
      <trkpt lat="44.78616" lon="-0.13393">
        <ele>81.4</ele>
        <time>2022-10-06T09:03:36Z</time>
      </trkpt>
      <trkpt lat="44.78615" lon="-0.13394">
        <ele>81.4</ele>
        <time>2022-10-06T09:03:37Z</time>
      </trkpt>
      <trkpt lat="44.78614" lon="-0.13395">
        <ele>81.4</ele>
        <time>2022-10-06T09:03:39Z</time>
      </trkpt>
      <trkpt lat="44.78614" lon="-0.13397">
        <ele>81.4</ele>
        <time>2022-10-06T09:03:40Z</time>
      </trkpt>
      <trkpt lat="44.78613" lon="-0.13398">
        <ele>81.4</ele>
        <time>2022-10-06T09:03:41Z</time>
      </trkpt>
      <trkpt lat="44.78612" lon="-0.13399">
        <ele>81.5</ele>
        <time>2022-10-06T09:03:42Z</time>
      </trkpt>
      <trkpt lat="44.78611" lon="-0.134">
        <ele>81.5</ele>
        <time>2022-10-06T09:03:43Z</time>
      </trkpt>
      <trkpt lat="44.7861" lon="-0.134">
        <ele>81.5</ele>
        <time>2022-10-06T09:03:44Z</time>
      </trkpt>
      <trkpt lat="44.78609" lon="-0.13401">
        <ele>81.5</ele>
        <time>2022-10-06T09:03:45Z</time>
      </trkpt>
      <trkpt lat="44.78608" lon="-0.13401">
        <ele>81.5</ele>
        <time>2022-10-06T09:03:46Z</time>
      </trkpt>
      <trkpt lat="44.78606" lon="-0.13401">
        <ele>81.5</ele>
        <time>2022-10-06T09:03:47Z</time>
      </trkpt>
      <trkpt lat="44.78605" lon="-0.13401">
        <ele>81.5</ele>
        <time>2022-10-06T09:03:48Z</time>
      </trkpt>
      <trkpt lat="44.78604" lon="-0.13401">
        <ele>81.5</ele>
        <time>2022-10-06T09:03:49Z</time>
      </trkpt>
      <trkpt lat="44.78604" lon="-0.13401">
        <ele>81.5</ele>
        <time>2022-10-06T09:03:50Z</time>
      </trkpt>
      <trkpt lat="44.78603" lon="-0.13401">
        <ele>81.5</ele>
        <time>2022-10-06T09:03:51Z</time>
      </trkpt>
      <trkpt lat="44.78602" lon="-0.13402">
        <ele>81.5</ele>
        <time>2022-10-06T09:03:52Z</time>
      </trkpt>
      <trkpt lat="44.786" lon="-0.13403">
        <ele>81.5</ele>
        <time>2022-10-06T09:03:53Z</time>
      </trkpt>
      <trkpt lat="44.786" lon="-0.13403">
        <ele>81.5</ele>
        <time>2022-10-06T09:03:54Z</time>
      </trkpt>
      <trkpt lat="44.78599" lon="-0.13404">
        <ele>81.5</ele>
        <time>2022-10-06T09:03:55Z</time>
      </trkpt>
      <trkpt lat="44.78598" lon="-0.13404">
        <ele>81.5</ele>
        <time>2022-10-06T09:03:56Z</time>
      </trkpt>
      <trkpt lat="44.78596" lon="-0.13404">
        <ele>81.6</ele>
        <time>2022-10-06T09:03:57Z</time>
      </trkpt>
      <trkpt lat="44.78596" lon="-0.13404">
        <ele>81.6</ele>
        <time>2022-10-06T09:03:58Z</time>
      </trkpt>
      <trkpt lat="44.78594" lon="-0.13404">
        <ele>81.6</ele>
        <time>2022-10-06T09:03:59Z</time>
      </trkpt>
      <trkpt lat="44.78593" lon="-0.13405">
        <ele>81.6</ele>
        <time>2022-10-06T09:04:00Z</time>
      </trkpt>
      <trkpt lat="44.78592" lon="-0.13405">
        <ele>81.6</ele>
        <time>2022-10-06T09:04:01Z</time>
      </trkpt>
      <trkpt lat="44.78591" lon="-0.13406">
        <ele>81.6</ele>
        <time>2022-10-06T09:04:02Z</time>
      </trkpt>
      <trkpt lat="44.7859" lon="-0.13406">
        <ele>81.6</ele>
        <time>2022-10-06T09:04:03Z</time>
      </trkpt>
      <trkpt lat="44.78589" lon="-0.13406">
        <ele>81.6</ele>
        <time>2022-10-06T09:04:04Z</time>
      </trkpt>
      <trkpt lat="44.78587" lon="-0.13407">
        <ele>81.6</ele>
        <time>2022-10-06T09:04:05Z</time>
      </trkpt>
      <trkpt lat="44.78585" lon="-0.13407">
        <ele>81.6</ele>
        <time>2022-10-06T09:04:07Z</time>
      </trkpt>
      <trkpt lat="44.78584" lon="-0.13407">
        <ele>81.6</ele>
        <time>2022-10-06T09:04:08Z</time>
      </trkpt>
      <trkpt lat="44.78583" lon="-0.13407">
        <ele>81.6</ele>
        <time>2022-10-06T09:04:09Z</time>
      </trkpt>
      <trkpt lat="44.78582" lon="-0.13408">
        <ele>81.6</ele>
        <time>2022-10-06T09:04:10Z</time>
      </trkpt>
      <trkpt lat="44.78581" lon="-0.13408">
        <ele>81.7</ele>
        <time>2022-10-06T09:04:12Z</time>
      </trkpt>
      <trkpt lat="44.7858" lon="-0.13409">
        <ele>81.7</ele>
        <time>2022-10-06T09:04:13Z</time>
      </trkpt>
      <trkpt lat="44.78579" lon="-0.13409">
        <ele>81.7</ele>
        <time>2022-10-06T09:04:14Z</time>
      </trkpt>
      <trkpt lat="44.78577" lon="-0.1341">
        <ele>81.7</ele>
        <time>2022-10-06T09:04:15Z</time>
      </trkpt>
      <trkpt lat="44.78576" lon="-0.13411">
        <ele>81.7</ele>
        <time>2022-10-06T09:04:16Z</time>
      </trkpt>
      <trkpt lat="44.78575" lon="-0.13411">
        <ele>81.7</ele>
        <time>2022-10-06T09:04:17Z</time>
      </trkpt>
      <trkpt lat="44.78574" lon="-0.13411">
        <ele>81.7</ele>
        <time>2022-10-06T09:04:18Z</time>
      </trkpt>
      <trkpt lat="44.78573" lon="-0.13411">
        <ele>81.7</ele>
        <time>2022-10-06T09:04:19Z</time>
      </trkpt>
      <trkpt lat="44.78572" lon="-0.13411">
        <ele>81.7</ele>
        <time>2022-10-06T09:04:20Z</time>
      </trkpt>
      <trkpt lat="44.78571" lon="-0.13411">
        <ele>81.7</ele>
        <time>2022-10-06T09:04:21Z</time>
      </trkpt>
      <trkpt lat="44.78569" lon="-0.13411">
        <ele>81.7</ele>
        <time>2022-10-06T09:04:22Z</time>
      </trkpt>
      <trkpt lat="44.78568" lon="-0.13411">
        <ele>81.7</ele>
        <time>2022-10-06T09:04:23Z</time>
      </trkpt>
      <trkpt lat="44.78566" lon="-0.1341">
        <ele>81.7</ele>
        <time>2022-10-06T09:04:24Z</time>
      </trkpt>
      <trkpt lat="44.78565" lon="-0.1341">
        <ele>81.7</ele>
        <time>2022-10-06T09:04:26Z</time>
      </trkpt>
      <trkpt lat="44.78563" lon="-0.13409">
        <ele>81.7</ele>
        <time>2022-10-06T09:04:27Z</time>
      </trkpt>
      <trkpt lat="44.78562" lon="-0.13408">
        <ele>81.7</ele>
        <time>2022-10-06T09:04:28Z</time>
      </trkpt>
      <trkpt lat="44.7856" lon="-0.13407">
        <ele>81.7</ele>
        <time>2022-10-06T09:04:29Z</time>
      </trkpt>
      <trkpt lat="44.78559" lon="-0.13407">
        <ele>81.7</ele>
        <time>2022-10-06T09:04:31Z</time>
      </trkpt>
      <trkpt lat="44.78557" lon="-0.13406">
        <ele>81.8</ele>
        <time>2022-10-06T09:04:32Z</time>
      </trkpt>
      <trkpt lat="44.78557" lon="-0.13405">
        <ele>81.8</ele>
        <time>2022-10-06T09:04:33Z</time>
      </trkpt>
      <trkpt lat="44.78555" lon="-0.13404">
        <ele>81.8</ele>
        <time>2022-10-06T09:04:34Z</time>
      </trkpt>
      <trkpt lat="44.78554" lon="-0.13404">
        <ele>81.8</ele>
        <time>2022-10-06T09:04:35Z</time>
      </trkpt>
      <trkpt lat="44.78554" lon="-0.13403">
        <ele>81.8</ele>
        <time>2022-10-06T09:04:36Z</time>
      </trkpt>
      <trkpt lat="44.78552" lon="-0.13402">
        <ele>81.8</ele>
        <time>2022-10-06T09:04:37Z</time>
      </trkpt>
      <trkpt lat="44.7855" lon="-0.13401">
        <ele>81.8</ele>
        <time>2022-10-06T09:04:38Z</time>
      </trkpt>
      <trkpt lat="44.78549" lon="-0.13401">
        <ele>81.8</ele>
        <time>2022-10-06T09:04:39Z</time>
      </trkpt>
      <trkpt lat="44.78548" lon="-0.134">
        <ele>81.8</ele>
        <time>2022-10-06T09:04:40Z</time>
      </trkpt>
      <trkpt lat="44.78547" lon="-0.13399">
        <ele>81.8</ele>
        <time>2022-10-06T09:04:41Z</time>
      </trkpt>
      <trkpt lat="44.78545" lon="-0.13398">
        <ele>81.8</ele>
        <time>2022-10-06T09:04:42Z</time>
      </trkpt>
      <trkpt lat="44.78544" lon="-0.13398">
        <ele>81.8</ele>
        <time>2022-10-06T09:04:43Z</time>
      </trkpt>
      <trkpt lat="44.78543" lon="-0.13397">
        <ele>81.8</ele>
        <time>2022-10-06T09:04:44Z</time>
      </trkpt>
      <trkpt lat="44.78542" lon="-0.13397">
        <ele>81.8</ele>
        <time>2022-10-06T09:04:45Z</time>
      </trkpt>
      <trkpt lat="44.78541" lon="-0.13396">
        <ele>81.8</ele>
        <time>2022-10-06T09:04:46Z</time>
      </trkpt>
      <trkpt lat="44.78539" lon="-0.13395">
        <ele>81.8</ele>
        <time>2022-10-06T09:04:47Z</time>
      </trkpt>
      <trkpt lat="44.78539" lon="-0.13395">
        <ele>81.8</ele>
        <time>2022-10-06T09:04:48Z</time>
      </trkpt>
      <trkpt lat="44.78538" lon="-0.13394">
        <ele>81.8</ele>
        <time>2022-10-06T09:04:49Z</time>
      </trkpt>
      <trkpt lat="44.78537" lon="-0.13393">
        <ele>81.8</ele>
        <time>2022-10-06T09:04:50Z</time>
      </trkpt>
      <trkpt lat="44.78536" lon="-0.13392">
        <ele>81.8</ele>
        <time>2022-10-06T09:04:51Z</time>
      </trkpt>
      <trkpt lat="44.78534" lon="-0.13391">
        <ele>81.8</ele>
        <time>2022-10-06T09:04:52Z</time>
      </trkpt>
      <trkpt lat="44.78534" lon="-0.1339">
        <ele>81.8</ele>
        <time>2022-10-06T09:04:53Z</time>
      </trkpt>
      <trkpt lat="44.78533" lon="-0.1339">
        <ele>81.8</ele>
        <time>2022-10-06T09:04:54Z</time>
      </trkpt>
      <trkpt lat="44.78531" lon="-0.13388">
        <ele>81.8</ele>
        <time>2022-10-06T09:04:55Z</time>
      </trkpt>
      <trkpt lat="44.78529" lon="-0.13387">
        <ele>81.8</ele>
        <time>2022-10-06T09:04:56Z</time>
      </trkpt>
      <trkpt lat="44.78528" lon="-0.13386">
        <ele>81.8</ele>
        <time>2022-10-06T09:04:57Z</time>
      </trkpt>
      <trkpt lat="44.78527" lon="-0.13386">
        <ele>81.8</ele>
        <time>2022-10-06T09:04:59Z</time>
      </trkpt>
      <trkpt lat="44.78526" lon="-0.13385">
        <ele>81.8</ele>
        <time>2022-10-06T09:05:00Z</time>
      </trkpt>
      <trkpt lat="44.78525" lon="-0.13384">
        <ele>81.8</ele>
        <time>2022-10-06T09:05:01Z</time>
      </trkpt>
      <trkpt lat="44.78524" lon="-0.13383">
        <ele>81.8</ele>
        <time>2022-10-06T09:05:02Z</time>
      </trkpt>
      <trkpt lat="44.78523" lon="-0.13382">
        <ele>81.8</ele>
        <time>2022-10-06T09:05:03Z</time>
      </trkpt>
      <trkpt lat="44.78521" lon="-0.1338">
        <ele>81.8</ele>
        <time>2022-10-06T09:05:04Z</time>
      </trkpt>
      <trkpt lat="44.7852" lon="-0.13379">
        <ele>81.8</ele>
        <time>2022-10-06T09:05:06Z</time>
      </trkpt>
      <trkpt lat="44.78519" lon="-0.13378">
        <ele>81.8</ele>
        <time>2022-10-06T09:05:07Z</time>
      </trkpt>
      <trkpt lat="44.78518" lon="-0.13378">
        <ele>81.8</ele>
        <time>2022-10-06T09:05:08Z</time>
      </trkpt>
      <trkpt lat="44.78516" lon="-0.13376">
        <ele>81.8</ele>
        <time>2022-10-06T09:05:09Z</time>
      </trkpt>
      <trkpt lat="44.78515" lon="-0.13375">
        <ele>81.8</ele>
        <time>2022-10-06T09:05:10Z</time>
      </trkpt>
      <trkpt lat="44.78513" lon="-0.13373">
        <ele>81.8</ele>
        <time>2022-10-06T09:05:12Z</time>
      </trkpt>
      <trkpt lat="44.78512" lon="-0.13373">
        <ele>81.8</ele>
        <time>2022-10-06T09:05:13Z</time>
      </trkpt>
      <trkpt lat="44.78511" lon="-0.13372">
        <ele>81.7</ele>
        <time>2022-10-06T09:05:14Z</time>
      </trkpt>
      <trkpt lat="44.7851" lon="-0.13371">
        <ele>81.7</ele>
        <time>2022-10-06T09:05:15Z</time>
      </trkpt>
      <trkpt lat="44.78508" lon="-0.1337">
        <ele>81.7</ele>
        <time>2022-10-06T09:05:16Z</time>
      </trkpt>
      <trkpt lat="44.78507" lon="-0.13369">
        <ele>81.7</ele>
        <time>2022-10-06T09:05:17Z</time>
      </trkpt>
      <trkpt lat="44.78507" lon="-0.13368">
        <ele>81.7</ele>
        <time>2022-10-06T09:05:18Z</time>
      </trkpt>
      <trkpt lat="44.78506" lon="-0.13367">
        <ele>81.7</ele>
        <time>2022-10-06T09:05:19Z</time>
      </trkpt>
      <trkpt lat="44.78504" lon="-0.13365">
        <ele>81.7</ele>
        <time>2022-10-06T09:05:20Z</time>
      </trkpt>
      <trkpt lat="44.78502" lon="-0.13363">
        <ele>81.7</ele>
        <time>2022-10-06T09:05:22Z</time>
      </trkpt>
      <trkpt lat="44.785" lon="-0.13361">
        <ele>81.7</ele>
        <time>2022-10-06T09:05:24Z</time>
      </trkpt>
      <trkpt lat="44.78499" lon="-0.1336">
        <ele>81.7</ele>
        <time>2022-10-06T09:05:25Z</time>
      </trkpt>
      <trkpt lat="44.78497" lon="-0.13358">
        <ele>81.7</ele>
        <time>2022-10-06T09:05:26Z</time>
      </trkpt>
      <trkpt lat="44.78496" lon="-0.13358">
        <ele>81.7</ele>
        <time>2022-10-06T09:05:28Z</time>
      </trkpt>
      <trkpt lat="44.78495" lon="-0.13357">
        <ele>81.7</ele>
        <time>2022-10-06T09:05:29Z</time>
      </trkpt>
      <trkpt lat="44.78494" lon="-0.13356">
        <ele>81.7</ele>
        <time>2022-10-06T09:05:30Z</time>
      </trkpt>
      <trkpt lat="44.78493" lon="-0.13355">
        <ele>81.7</ele>
        <time>2022-10-06T09:05:31Z</time>
      </trkpt>
      <trkpt lat="44.78492" lon="-0.13354">
        <ele>81.7</ele>
        <time>2022-10-06T09:05:32Z</time>
      </trkpt>
      <trkpt lat="44.78491" lon="-0.13353">
        <ele>81.7</ele>
        <time>2022-10-06T09:05:33Z</time>
      </trkpt>
      <trkpt lat="44.7849" lon="-0.13352">
        <ele>81.7</ele>
        <time>2022-10-06T09:05:34Z</time>
      </trkpt>
      <trkpt lat="44.78489" lon="-0.13351">
        <ele>81.7</ele>
        <time>2022-10-06T09:05:35Z</time>
      </trkpt>
      <trkpt lat="44.78488" lon="-0.13349">
        <ele>81.7</ele>
        <time>2022-10-06T09:05:36Z</time>
      </trkpt>
      <trkpt lat="44.78487" lon="-0.13348">
        <ele>81.7</ele>
        <time>2022-10-06T09:05:37Z</time>
      </trkpt>
      <trkpt lat="44.78486" lon="-0.13348">
        <ele>81.7</ele>
        <time>2022-10-06T09:05:38Z</time>
      </trkpt>
      <trkpt lat="44.78485" lon="-0.13345">
        <ele>81.7</ele>
        <time>2022-10-06T09:05:39Z</time>
      </trkpt>
      <trkpt lat="44.78484" lon="-0.13345">
        <ele>81.7</ele>
        <time>2022-10-06T09:05:40Z</time>
      </trkpt>
      <trkpt lat="44.78484" lon="-0.13344">
        <ele>81.7</ele>
        <time>2022-10-06T09:05:41Z</time>
      </trkpt>
      <trkpt lat="44.78483" lon="-0.13342">
        <ele>81.7</ele>
        <time>2022-10-06T09:05:42Z</time>
      </trkpt>
      <trkpt lat="44.78482" lon="-0.13341">
        <ele>81.7</ele>
        <time>2022-10-06T09:05:43Z</time>
      </trkpt>
      <trkpt lat="44.78481" lon="-0.13338">
        <ele>81.7</ele>
        <time>2022-10-06T09:05:44Z</time>
      </trkpt>
      <trkpt lat="44.7848" lon="-0.13336">
        <ele>81.7</ele>
        <time>2022-10-06T09:05:46Z</time>
      </trkpt>
      <trkpt lat="44.78478" lon="-0.13334">
        <ele>81.7</ele>
        <time>2022-10-06T09:05:47Z</time>
      </trkpt>
      <trkpt lat="44.78478" lon="-0.13334">
        <ele>81.7</ele>
        <time>2022-10-06T09:05:48Z</time>
      </trkpt>
      <trkpt lat="44.78477" lon="-0.13333">
        <ele>81.7</ele>
        <time>2022-10-06T09:05:49Z</time>
      </trkpt>
      <trkpt lat="44.78476" lon="-0.13332">
        <ele>81.7</ele>
        <time>2022-10-06T09:05:50Z</time>
      </trkpt>
      <trkpt lat="44.78475" lon="-0.13331">
        <ele>81.7</ele>
        <time>2022-10-06T09:05:51Z</time>
      </trkpt>
      <trkpt lat="44.78473" lon="-0.1333">
        <ele>81.7</ele>
        <time>2022-10-06T09:05:52Z</time>
      </trkpt>
      <trkpt lat="44.78472" lon="-0.13329">
        <ele>81.7</ele>
        <time>2022-10-06T09:05:53Z</time>
      </trkpt>
      <trkpt lat="44.78471" lon="-0.13329">
        <ele>81.7</ele>
        <time>2022-10-06T09:05:54Z</time>
      </trkpt>
      <trkpt lat="44.78469" lon="-0.13328">
        <ele>81.7</ele>
        <time>2022-10-06T09:05:55Z</time>
      </trkpt>
      <trkpt lat="44.78468" lon="-0.13327">
        <ele>81.7</ele>
        <time>2022-10-06T09:05:56Z</time>
      </trkpt>
      <trkpt lat="44.78467" lon="-0.13327">
        <ele>81.7</ele>
        <time>2022-10-06T09:05:57Z</time>
      </trkpt>
      <trkpt lat="44.78466" lon="-0.13326">
        <ele>81.7</ele>
        <time>2022-10-06T09:05:58Z</time>
      </trkpt>
      <trkpt lat="44.78466" lon="-0.13326">
        <ele>81.7</ele>
        <time>2022-10-06T09:05:59Z</time>
      </trkpt>
      <trkpt lat="44.78464" lon="-0.13324">
        <ele>81.7</ele>
        <time>2022-10-06T09:06:00Z</time>
      </trkpt>
      <trkpt lat="44.78462" lon="-0.13323">
        <ele>81.7</ele>
        <time>2022-10-06T09:06:02Z</time>
      </trkpt>
      <trkpt lat="44.78461" lon="-0.13322">
        <ele>81.7</ele>
        <time>2022-10-06T09:06:03Z</time>
      </trkpt>
      <trkpt lat="44.78461" lon="-0.13321">
        <ele>81.7</ele>
        <time>2022-10-06T09:06:04Z</time>
      </trkpt>
      <trkpt lat="44.78458" lon="-0.13319">
        <ele>81.7</ele>
        <time>2022-10-06T09:06:05Z</time>
      </trkpt>
      <trkpt lat="44.78456" lon="-0.13317">
        <ele>81.7</ele>
        <time>2022-10-06T09:06:07Z</time>
      </trkpt>
      <trkpt lat="44.78456" lon="-0.13317">
        <ele>81.7</ele>
        <time>2022-10-06T09:06:08Z</time>
      </trkpt>
      <trkpt lat="44.78455" lon="-0.13316">
        <ele>81.7</ele>
        <time>2022-10-06T09:06:09Z</time>
      </trkpt>
      <trkpt lat="44.78454" lon="-0.13316">
        <ele>81.7</ele>
        <time>2022-10-06T09:06:10Z</time>
      </trkpt>
      <trkpt lat="44.78453" lon="-0.13315">
        <ele>81.7</ele>
        <time>2022-10-06T09:06:11Z</time>
      </trkpt>
      <trkpt lat="44.78451" lon="-0.13313">
        <ele>81.7</ele>
        <time>2022-10-06T09:06:12Z</time>
      </trkpt>
      <trkpt lat="44.7845" lon="-0.13312">
        <ele>81.7</ele>
        <time>2022-10-06T09:06:13Z</time>
      </trkpt>
      <trkpt lat="44.78449" lon="-0.13311">
        <ele>81.7</ele>
        <time>2022-10-06T09:06:14Z</time>
      </trkpt>
      <trkpt lat="44.78448" lon="-0.1331">
        <ele>81.7</ele>
        <time>2022-10-06T09:06:15Z</time>
      </trkpt>
      <trkpt lat="44.78447" lon="-0.13309">
        <ele>81.7</ele>
        <time>2022-10-06T09:06:16Z</time>
      </trkpt>
      <trkpt lat="44.78446" lon="-0.13308">
        <ele>81.7</ele>
        <time>2022-10-06T09:06:17Z</time>
      </trkpt>
      <trkpt lat="44.78444" lon="-0.13306">
        <ele>81.7</ele>
        <time>2022-10-06T09:06:18Z</time>
      </trkpt>
      <trkpt lat="44.78444" lon="-0.13306">
        <ele>81.7</ele>
        <time>2022-10-06T09:06:19Z</time>
      </trkpt>
      <trkpt lat="44.78443" lon="-0.13305">
        <ele>81.8</ele>
        <time>2022-10-06T09:06:20Z</time>
      </trkpt>
      <trkpt lat="44.78442" lon="-0.13304">
        <ele>81.8</ele>
        <time>2022-10-06T09:06:21Z</time>
      </trkpt>
      <trkpt lat="44.7844" lon="-0.13303">
        <ele>81.8</ele>
        <time>2022-10-06T09:06:22Z</time>
      </trkpt>
      <trkpt lat="44.78439" lon="-0.13302">
        <ele>81.8</ele>
        <time>2022-10-06T09:06:23Z</time>
      </trkpt>
      <trkpt lat="44.78439" lon="-0.13301">
        <ele>81.8</ele>
        <time>2022-10-06T09:06:24Z</time>
      </trkpt>
      <trkpt lat="44.78436" lon="-0.133">
        <ele>81.8</ele>
        <time>2022-10-06T09:06:25Z</time>
      </trkpt>
      <trkpt lat="44.78435" lon="-0.13298">
        <ele>81.8</ele>
        <time>2022-10-06T09:06:27Z</time>
      </trkpt>
      <trkpt lat="44.78434" lon="-0.13297">
        <ele>81.8</ele>
        <time>2022-10-06T09:06:28Z</time>
      </trkpt>
      <trkpt lat="44.78433" lon="-0.13296">
        <ele>81.8</ele>
        <time>2022-10-06T09:06:29Z</time>
      </trkpt>
      <trkpt lat="44.78432" lon="-0.13295">
        <ele>81.8</ele>
        <time>2022-10-06T09:06:30Z</time>
      </trkpt>
      <trkpt lat="44.78431" lon="-0.13294">
        <ele>81.8</ele>
        <time>2022-10-06T09:06:31Z</time>
      </trkpt>
      <trkpt lat="44.78429" lon="-0.13293">
        <ele>81.8</ele>
        <time>2022-10-06T09:06:32Z</time>
      </trkpt>
      <trkpt lat="44.78429" lon="-0.13292">
        <ele>81.9</ele>
        <time>2022-10-06T09:06:33Z</time>
      </trkpt>
      <trkpt lat="44.78428" lon="-0.13291">
        <ele>81.9</ele>
        <time>2022-10-06T09:06:34Z</time>
      </trkpt>
      <trkpt lat="44.78426" lon="-0.13289">
        <ele>81.9</ele>
        <time>2022-10-06T09:06:35Z</time>
      </trkpt>
      <trkpt lat="44.78425" lon="-0.13287">
        <ele>81.9</ele>
        <time>2022-10-06T09:06:37Z</time>
      </trkpt>
      <trkpt lat="44.78424" lon="-0.13286">
        <ele>81.9</ele>
        <time>2022-10-06T09:06:38Z</time>
      </trkpt>
      <trkpt lat="44.78423" lon="-0.13286">
        <ele>81.9</ele>
        <time>2022-10-06T09:06:39Z</time>
      </trkpt>
      <trkpt lat="44.78423" lon="-0.13284">
        <ele>81.9</ele>
        <time>2022-10-06T09:06:40Z</time>
      </trkpt>
      <trkpt lat="44.78422" lon="-0.13283">
        <ele>81.9</ele>
        <time>2022-10-06T09:06:41Z</time>
      </trkpt>
      <trkpt lat="44.7842" lon="-0.13282">
        <ele>81.9</ele>
        <time>2022-10-06T09:06:42Z</time>
      </trkpt>
      <trkpt lat="44.78419" lon="-0.13281">
        <ele>81.9</ele>
        <time>2022-10-06T09:06:43Z</time>
      </trkpt>
      <trkpt lat="44.78418" lon="-0.1328">
        <ele>81.9</ele>
        <time>2022-10-06T09:06:44Z</time>
      </trkpt>
      <trkpt lat="44.78417" lon="-0.1328">
        <ele>82</ele>
        <time>2022-10-06T09:06:45Z</time>
      </trkpt>
      <trkpt lat="44.78416" lon="-0.13279">
        <ele>82</ele>
        <time>2022-10-06T09:06:46Z</time>
      </trkpt>
      <trkpt lat="44.78414" lon="-0.13277">
        <ele>82</ele>
        <time>2022-10-06T09:06:47Z</time>
      </trkpt>
      <trkpt lat="44.78413" lon="-0.13276">
        <ele>82</ele>
        <time>2022-10-06T09:06:48Z</time>
      </trkpt>
      <trkpt lat="44.78413" lon="-0.13276">
        <ele>82</ele>
        <time>2022-10-06T09:06:49Z</time>
      </trkpt>
      <trkpt lat="44.7841" lon="-0.13274">
        <ele>82</ele>
        <time>2022-10-06T09:06:50Z</time>
      </trkpt>
      <trkpt lat="44.78409" lon="-0.13273">
        <ele>82</ele>
        <time>2022-10-06T09:06:51Z</time>
      </trkpt>
      <trkpt lat="44.78408" lon="-0.13272">
        <ele>82</ele>
        <time>2022-10-06T09:06:53Z</time>
      </trkpt>
      <trkpt lat="44.78407" lon="-0.13271">
        <ele>82</ele>
        <time>2022-10-06T09:06:54Z</time>
      </trkpt>
      <trkpt lat="44.78406" lon="-0.13269">
        <ele>82</ele>
        <time>2022-10-06T09:06:55Z</time>
      </trkpt>
      <trkpt lat="44.78404" lon="-0.13267">
        <ele>82</ele>
        <time>2022-10-06T09:06:56Z</time>
      </trkpt>
      <trkpt lat="44.78403" lon="-0.13266">
        <ele>82</ele>
        <time>2022-10-06T09:06:58Z</time>
      </trkpt>
      <trkpt lat="44.78402" lon="-0.13265">
        <ele>82</ele>
        <time>2022-10-06T09:06:59Z</time>
      </trkpt>
      <trkpt lat="44.78401" lon="-0.13264">
        <ele>82</ele>
        <time>2022-10-06T09:07:00Z</time>
      </trkpt>
      <trkpt lat="44.784" lon="-0.13262">
        <ele>82</ele>
        <time>2022-10-06T09:07:01Z</time>
      </trkpt>
      <trkpt lat="44.78399" lon="-0.13262">
        <ele>82</ele>
        <time>2022-10-06T09:07:02Z</time>
      </trkpt>
      <trkpt lat="44.78399" lon="-0.13261">
        <ele>82</ele>
        <time>2022-10-06T09:07:03Z</time>
      </trkpt>
      <trkpt lat="44.78398" lon="-0.1326">
        <ele>82</ele>
        <time>2022-10-06T09:07:04Z</time>
      </trkpt>
      <trkpt lat="44.78397" lon="-0.13259">
        <ele>82</ele>
        <time>2022-10-06T09:07:05Z</time>
      </trkpt>
      <trkpt lat="44.78396" lon="-0.13257">
        <ele>82</ele>
        <time>2022-10-06T09:07:06Z</time>
      </trkpt>
      <trkpt lat="44.78394" lon="-0.13255">
        <ele>82</ele>
        <time>2022-10-06T09:07:08Z</time>
      </trkpt>
      <trkpt lat="44.78394" lon="-0.13254">
        <ele>82</ele>
        <time>2022-10-06T09:07:09Z</time>
      </trkpt>
      <trkpt lat="44.78393" lon="-0.13253">
        <ele>82</ele>
        <time>2022-10-06T09:07:10Z</time>
      </trkpt>
      <trkpt lat="44.78392" lon="-0.13252">
        <ele>82</ele>
        <time>2022-10-06T09:07:11Z</time>
      </trkpt>
      <trkpt lat="44.78391" lon="-0.1325">
        <ele>82</ele>
        <time>2022-10-06T09:07:12Z</time>
      </trkpt>
      <trkpt lat="44.7839" lon="-0.13249">
        <ele>82</ele>
        <time>2022-10-06T09:07:13Z</time>
      </trkpt>
      <trkpt lat="44.78389" lon="-0.13248">
        <ele>82</ele>
        <time>2022-10-06T09:07:14Z</time>
      </trkpt>
      <trkpt lat="44.78388" lon="-0.13245">
        <ele>82</ele>
        <time>2022-10-06T09:07:15Z</time>
      </trkpt>
      <trkpt lat="44.78387" lon="-0.13244">
        <ele>82</ele>
        <time>2022-10-06T09:07:17Z</time>
      </trkpt>
      <trkpt lat="44.78386" lon="-0.13243">
        <ele>82</ele>
        <time>2022-10-06T09:07:18Z</time>
      </trkpt>
      <trkpt lat="44.78385" lon="-0.13242">
        <ele>81.9</ele>
        <time>2022-10-06T09:07:19Z</time>
      </trkpt>
      <trkpt lat="44.78384" lon="-0.13241">
        <ele>81.9</ele>
        <time>2022-10-06T09:07:20Z</time>
      </trkpt>
      <trkpt lat="44.78383" lon="-0.1324">
        <ele>81.9</ele>
        <time>2022-10-06T09:07:21Z</time>
      </trkpt>
      <trkpt lat="44.78382" lon="-0.13239">
        <ele>81.9</ele>
        <time>2022-10-06T09:07:22Z</time>
      </trkpt>
      <trkpt lat="44.78381" lon="-0.13238">
        <ele>81.9</ele>
        <time>2022-10-06T09:07:23Z</time>
      </trkpt>
      <trkpt lat="44.78381" lon="-0.13237">
        <ele>81.9</ele>
        <time>2022-10-06T09:07:24Z</time>
      </trkpt>
      <trkpt lat="44.78379" lon="-0.13236">
        <ele>81.9</ele>
        <time>2022-10-06T09:07:25Z</time>
      </trkpt>
      <trkpt lat="44.78379" lon="-0.13235">
        <ele>81.9</ele>
        <time>2022-10-06T09:07:26Z</time>
      </trkpt>
      <trkpt lat="44.78377" lon="-0.13233">
        <ele>81.8</ele>
        <time>2022-10-06T09:07:28Z</time>
      </trkpt>
      <trkpt lat="44.78377" lon="-0.13232">
        <ele>81.8</ele>
        <time>2022-10-06T09:07:29Z</time>
      </trkpt>
      <trkpt lat="44.78376" lon="-0.13231">
        <ele>81.8</ele>
        <time>2022-10-06T09:07:30Z</time>
      </trkpt>
      <trkpt lat="44.78376" lon="-0.1323">
        <ele>81.8</ele>
        <time>2022-10-06T09:07:31Z</time>
      </trkpt>
      <trkpt lat="44.78375" lon="-0.13229">
        <ele>81.8</ele>
        <time>2022-10-06T09:07:32Z</time>
      </trkpt>
      <trkpt lat="44.78374" lon="-0.13227">
        <ele>81.8</ele>
        <time>2022-10-06T09:07:33Z</time>
      </trkpt>
      <trkpt lat="44.78374" lon="-0.13226">
        <ele>81.7</ele>
        <time>2022-10-06T09:07:34Z</time>
      </trkpt>
      <trkpt lat="44.78373" lon="-0.13225">
        <ele>81.7</ele>
        <time>2022-10-06T09:07:35Z</time>
      </trkpt>
      <trkpt lat="44.78372" lon="-0.13224">
        <ele>81.7</ele>
        <time>2022-10-06T09:07:36Z</time>
      </trkpt>
      <trkpt lat="44.78371" lon="-0.13223">
        <ele>81.7</ele>
        <time>2022-10-06T09:07:38Z</time>
      </trkpt>
      <trkpt lat="44.78371" lon="-0.13221">
        <ele>81.6</ele>
        <time>2022-10-06T09:07:39Z</time>
      </trkpt>
      <trkpt lat="44.7837" lon="-0.13221">
        <ele>81.6</ele>
        <time>2022-10-06T09:07:40Z</time>
      </trkpt>
      <trkpt lat="44.78369" lon="-0.13219">
        <ele>81.6</ele>
        <time>2022-10-06T09:07:41Z</time>
      </trkpt>
      <trkpt lat="44.78368" lon="-0.13218">
        <ele>81.5</ele>
        <time>2022-10-06T09:07:43Z</time>
      </trkpt>
      <trkpt lat="44.78367" lon="-0.13217">
        <ele>81.5</ele>
        <time>2022-10-06T09:07:44Z</time>
      </trkpt>
      <trkpt lat="44.78367" lon="-0.13217">
        <ele>81.5</ele>
        <time>2022-10-06T09:07:45Z</time>
      </trkpt>
      <trkpt lat="44.78367" lon="-0.13216">
        <ele>81.4</ele>
        <time>2022-10-06T09:07:46Z</time>
      </trkpt>
      <trkpt lat="44.78366" lon="-0.13215">
        <ele>81.4</ele>
        <time>2022-10-06T09:07:47Z</time>
      </trkpt>
      <trkpt lat="44.78365" lon="-0.13214">
        <ele>81.4</ele>
        <time>2022-10-06T09:07:48Z</time>
      </trkpt>
      <trkpt lat="44.78363" lon="-0.13212">
        <ele>81.3</ele>
        <time>2022-10-06T09:07:49Z</time>
      </trkpt>
      <trkpt lat="44.78363" lon="-0.13212">
        <ele>81.3</ele>
        <time>2022-10-06T09:07:50Z</time>
      </trkpt>
      <trkpt lat="44.78362" lon="-0.13211">
        <ele>81.3</ele>
        <time>2022-10-06T09:07:51Z</time>
      </trkpt>
      <trkpt lat="44.78362" lon="-0.1321">
        <ele>81.2</ele>
        <time>2022-10-06T09:07:52Z</time>
      </trkpt>
      <trkpt lat="44.78361" lon="-0.13209">
        <ele>81.2</ele>
        <time>2022-10-06T09:07:53Z</time>
      </trkpt>
      <trkpt lat="44.7836" lon="-0.13208">
        <ele>81.2</ele>
        <time>2022-10-06T09:07:54Z</time>
      </trkpt>
      <trkpt lat="44.78359" lon="-0.13206">
        <ele>81.1</ele>
        <time>2022-10-06T09:07:55Z</time>
      </trkpt>
      <trkpt lat="44.78358" lon="-0.13205">
        <ele>81</ele>
        <time>2022-10-06T09:07:57Z</time>
      </trkpt>
      <trkpt lat="44.78357" lon="-0.13204">
        <ele>81</ele>
        <time>2022-10-06T09:07:58Z</time>
      </trkpt>
      <trkpt lat="44.78356" lon="-0.13203">
        <ele>80.9</ele>
        <time>2022-10-06T09:07:59Z</time>
      </trkpt>
      <trkpt lat="44.78354" lon="-0.13201">
        <ele>80.9</ele>
        <time>2022-10-06T09:08:00Z</time>
      </trkpt>
      <trkpt lat="44.78353" lon="-0.13201">
        <ele>80.8</ele>
        <time>2022-10-06T09:08:01Z</time>
      </trkpt>
      <trkpt lat="44.78352" lon="-0.13199">
        <ele>80.7</ele>
        <time>2022-10-06T09:08:03Z</time>
      </trkpt>
      <trkpt lat="44.78351" lon="-0.13198">
        <ele>80.7</ele>
        <time>2022-10-06T09:08:04Z</time>
      </trkpt>
      <trkpt lat="44.78351" lon="-0.13197">
        <ele>80.7</ele>
        <time>2022-10-06T09:08:05Z</time>
      </trkpt>
      <trkpt lat="44.7835" lon="-0.13195">
        <ele>80.6</ele>
        <time>2022-10-06T09:08:06Z</time>
      </trkpt>
      <trkpt lat="44.7835" lon="-0.13195">
        <ele>80.6</ele>
        <time>2022-10-06T09:08:07Z</time>
      </trkpt>
      <trkpt lat="44.78348" lon="-0.13194">
        <ele>80.6</ele>
        <time>2022-10-06T09:08:08Z</time>
      </trkpt>
      <trkpt lat="44.78348" lon="-0.13194">
        <ele>80.6</ele>
        <time>2022-10-06T09:08:09Z</time>
      </trkpt>
      <trkpt lat="44.78345" lon="-0.13193">
        <ele>80.5</ele>
        <time>2022-10-06T09:08:10Z</time>
      </trkpt>
      <trkpt lat="44.78344" lon="-0.13192">
        <ele>80.4</ele>
        <time>2022-10-06T09:08:12Z</time>
      </trkpt>
      <trkpt lat="44.78343" lon="-0.13191">
        <ele>80.4</ele>
        <time>2022-10-06T09:08:13Z</time>
      </trkpt>
      <trkpt lat="44.78342" lon="-0.13191">
        <ele>80.4</ele>
        <time>2022-10-06T09:08:14Z</time>
      </trkpt>
      <trkpt lat="44.78341" lon="-0.1319">
        <ele>80.3</ele>
        <time>2022-10-06T09:08:15Z</time>
      </trkpt>
      <trkpt lat="44.78341" lon="-0.1319">
        <ele>80.3</ele>
        <time>2022-10-06T09:08:16Z</time>
      </trkpt>
      <trkpt lat="44.7834" lon="-0.13189">
        <ele>80.3</ele>
        <time>2022-10-06T09:08:17Z</time>
      </trkpt>
      <trkpt lat="44.78338" lon="-0.13188">
        <ele>80.2</ele>
        <time>2022-10-06T09:08:18Z</time>
      </trkpt>
      <trkpt lat="44.78338" lon="-0.13187">
        <ele>80.2</ele>
        <time>2022-10-06T09:08:19Z</time>
      </trkpt>
      <trkpt lat="44.78337" lon="-0.13187">
        <ele>80.2</ele>
        <time>2022-10-06T09:08:20Z</time>
      </trkpt>
      <trkpt lat="44.78336" lon="-0.13186">
        <ele>80.1</ele>
        <time>2022-10-06T09:08:21Z</time>
      </trkpt>
      <trkpt lat="44.78335" lon="-0.13185">
        <ele>80.1</ele>
        <time>2022-10-06T09:08:22Z</time>
      </trkpt>
      <trkpt lat="44.78333" lon="-0.13184">
        <ele>80</ele>
        <time>2022-10-06T09:08:23Z</time>
      </trkpt>
      <trkpt lat="44.78333" lon="-0.13184">
        <ele>80</ele>
        <time>2022-10-06T09:08:24Z</time>
      </trkpt>
      <trkpt lat="44.78331" lon="-0.13183">
        <ele>80</ele>
        <time>2022-10-06T09:08:25Z</time>
      </trkpt>
      <trkpt lat="44.78329" lon="-0.13181">
        <ele>79.9</ele>
        <time>2022-10-06T09:08:26Z</time>
      </trkpt>
      <trkpt lat="44.78327" lon="-0.1318">
        <ele>79.8</ele>
        <time>2022-10-06T09:08:28Z</time>
      </trkpt>
      <trkpt lat="44.78324" lon="-0.13178">
        <ele>79.8</ele>
        <time>2022-10-06T09:08:30Z</time>
      </trkpt>
      <trkpt lat="44.78323" lon="-0.13177">
        <ele>79.7</ele>
        <time>2022-10-06T09:08:31Z</time>
      </trkpt>
      <trkpt lat="44.78322" lon="-0.13177">
        <ele>79.7</ele>
        <time>2022-10-06T09:08:33Z</time>
      </trkpt>
      <trkpt lat="44.78321" lon="-0.13176">
        <ele>79.7</ele>
        <time>2022-10-06T09:08:34Z</time>
      </trkpt>
      <trkpt lat="44.78319" lon="-0.13175">
        <ele>79.6</ele>
        <time>2022-10-06T09:08:35Z</time>
      </trkpt>
      <trkpt lat="44.78318" lon="-0.13175">
        <ele>79.6</ele>
        <time>2022-10-06T09:08:36Z</time>
      </trkpt>
      <trkpt lat="44.78316" lon="-0.13174">
        <ele>79.5</ele>
        <time>2022-10-06T09:08:38Z</time>
      </trkpt>
      <trkpt lat="44.78314" lon="-0.13173">
        <ele>79.5</ele>
        <time>2022-10-06T09:08:39Z</time>
      </trkpt>
      <trkpt lat="44.78313" lon="-0.13172">
        <ele>79.4</ele>
        <time>2022-10-06T09:08:41Z</time>
      </trkpt>
      <trkpt lat="44.78312" lon="-0.13171">
        <ele>79.4</ele>
        <time>2022-10-06T09:08:42Z</time>
      </trkpt>
      <trkpt lat="44.7831" lon="-0.1317">
        <ele>79.4</ele>
        <time>2022-10-06T09:08:43Z</time>
      </trkpt>
      <trkpt lat="44.78309" lon="-0.1317">
        <ele>79.3</ele>
        <time>2022-10-06T09:08:44Z</time>
      </trkpt>
      <trkpt lat="44.78308" lon="-0.1317">
        <ele>79.3</ele>
        <time>2022-10-06T09:08:45Z</time>
      </trkpt>
      <trkpt lat="44.78306" lon="-0.13169">
        <ele>79.2</ele>
        <time>2022-10-06T09:08:46Z</time>
      </trkpt>
      <trkpt lat="44.78305" lon="-0.13168">
        <ele>79.2</ele>
        <time>2022-10-06T09:08:47Z</time>
      </trkpt>
      <trkpt lat="44.78304" lon="-0.13168">
        <ele>79.2</ele>
        <time>2022-10-06T09:08:48Z</time>
      </trkpt>
      <trkpt lat="44.78302" lon="-0.13167">
        <ele>79.1</ele>
        <time>2022-10-06T09:08:49Z</time>
      </trkpt>
      <trkpt lat="44.78301" lon="-0.13166">
        <ele>79.1</ele>
        <time>2022-10-06T09:08:50Z</time>
      </trkpt>
      <trkpt lat="44.783" lon="-0.13165">
        <ele>79.1</ele>
        <time>2022-10-06T09:08:52Z</time>
      </trkpt>
      <trkpt lat="44.78299" lon="-0.13164">
        <ele>79</ele>
        <time>2022-10-06T09:08:53Z</time>
      </trkpt>
      <trkpt lat="44.78298" lon="-0.13164">
        <ele>79</ele>
        <time>2022-10-06T09:08:54Z</time>
      </trkpt>
      <trkpt lat="44.78297" lon="-0.13163">
        <ele>78.9</ele>
        <time>2022-10-06T09:08:55Z</time>
      </trkpt>
      <trkpt lat="44.78295" lon="-0.13163">
        <ele>78.9</ele>
        <time>2022-10-06T09:08:56Z</time>
      </trkpt>
      <trkpt lat="44.78294" lon="-0.13162">
        <ele>78.9</ele>
        <time>2022-10-06T09:08:57Z</time>
      </trkpt>
      <trkpt lat="44.78293" lon="-0.13161">
        <ele>78.8</ele>
        <time>2022-10-06T09:08:58Z</time>
      </trkpt>
      <trkpt lat="44.78292" lon="-0.13161">
        <ele>78.8</ele>
        <time>2022-10-06T09:08:59Z</time>
      </trkpt>
      <trkpt lat="44.78289" lon="-0.1316">
        <ele>78.7</ele>
        <time>2022-10-06T09:09:00Z</time>
      </trkpt>
      <trkpt lat="44.78288" lon="-0.1316">
        <ele>78.7</ele>
        <time>2022-10-06T09:09:01Z</time>
      </trkpt>
      <trkpt lat="44.78286" lon="-0.13159">
        <ele>78.6</ele>
        <time>2022-10-06T09:09:03Z</time>
      </trkpt>
      <trkpt lat="44.78285" lon="-0.13159">
        <ele>78.6</ele>
        <time>2022-10-06T09:09:04Z</time>
      </trkpt>
      <trkpt lat="44.78283" lon="-0.13158">
        <ele>78.5</ele>
        <time>2022-10-06T09:09:05Z</time>
      </trkpt>
      <trkpt lat="44.78282" lon="-0.13158">
        <ele>78.5</ele>
        <time>2022-10-06T09:09:06Z</time>
      </trkpt>
      <trkpt lat="44.78279" lon="-0.13157">
        <ele>78.5</ele>
        <time>2022-10-06T09:09:08Z</time>
      </trkpt>
      <trkpt lat="44.78278" lon="-0.13157">
        <ele>78.4</ele>
        <time>2022-10-06T09:09:09Z</time>
      </trkpt>
      <trkpt lat="44.78276" lon="-0.13156">
        <ele>78.4</ele>
        <time>2022-10-06T09:09:11Z</time>
      </trkpt>
      <trkpt lat="44.78275" lon="-0.13156">
        <ele>78.3</ele>
        <time>2022-10-06T09:09:12Z</time>
      </trkpt>
      <trkpt lat="44.78273" lon="-0.13155">
        <ele>78.3</ele>
        <time>2022-10-06T09:09:13Z</time>
      </trkpt>
      <trkpt lat="44.78271" lon="-0.13155">
        <ele>78.2</ele>
        <time>2022-10-06T09:09:14Z</time>
      </trkpt>
      <trkpt lat="44.7827" lon="-0.13154">
        <ele>78.2</ele>
        <time>2022-10-06T09:09:15Z</time>
      </trkpt>
      <trkpt lat="44.78268" lon="-0.13153">
        <ele>78.2</ele>
        <time>2022-10-06T09:09:16Z</time>
      </trkpt>
      <trkpt lat="44.78267" lon="-0.13153">
        <ele>78.1</ele>
        <time>2022-10-06T09:09:18Z</time>
      </trkpt>
      <trkpt lat="44.78265" lon="-0.13152">
        <ele>78.1</ele>
        <time>2022-10-06T09:09:19Z</time>
      </trkpt>
      <trkpt lat="44.78264" lon="-0.13152">
        <ele>78.1</ele>
        <time>2022-10-06T09:09:20Z</time>
      </trkpt>
      <trkpt lat="44.78263" lon="-0.13151">
        <ele>78</ele>
        <time>2022-10-06T09:09:22Z</time>
      </trkpt>
      <trkpt lat="44.78262" lon="-0.13151">
        <ele>78</ele>
        <time>2022-10-06T09:09:23Z</time>
      </trkpt>
      <trkpt lat="44.7826" lon="-0.13151">
        <ele>78</ele>
        <time>2022-10-06T09:09:24Z</time>
      </trkpt>
      <trkpt lat="44.78259" lon="-0.1315">
        <ele>77.9</ele>
        <time>2022-10-06T09:09:25Z</time>
      </trkpt>
      <trkpt lat="44.78256" lon="-0.1315">
        <ele>77.9</ele>
        <time>2022-10-06T09:09:27Z</time>
      </trkpt>
      <trkpt lat="44.78255" lon="-0.13149">
        <ele>77.8</ele>
        <time>2022-10-06T09:09:28Z</time>
      </trkpt>
      <trkpt lat="44.78253" lon="-0.13149">
        <ele>77.8</ele>
        <time>2022-10-06T09:09:30Z</time>
      </trkpt>
      <trkpt lat="44.78252" lon="-0.13148">
        <ele>77.7</ele>
        <time>2022-10-06T09:09:31Z</time>
      </trkpt>
      <trkpt lat="44.7825" lon="-0.13147">
        <ele>77.7</ele>
        <time>2022-10-06T09:09:32Z</time>
      </trkpt>
      <trkpt lat="44.78249" lon="-0.13147">
        <ele>77.7</ele>
        <time>2022-10-06T09:09:33Z</time>
      </trkpt>
      <trkpt lat="44.78248" lon="-0.13146">
        <ele>77.6</ele>
        <time>2022-10-06T09:09:34Z</time>
      </trkpt>
      <trkpt lat="44.78247" lon="-0.13146">
        <ele>77.6</ele>
        <time>2022-10-06T09:09:36Z</time>
      </trkpt>
      <trkpt lat="44.78246" lon="-0.13146">
        <ele>77.6</ele>
        <time>2022-10-06T09:09:37Z</time>
      </trkpt>
      <trkpt lat="44.78244" lon="-0.13145">
        <ele>77.5</ele>
        <time>2022-10-06T09:09:38Z</time>
      </trkpt>
      <trkpt lat="44.78243" lon="-0.13145">
        <ele>77.5</ele>
        <time>2022-10-06T09:09:39Z</time>
      </trkpt>
      <trkpt lat="44.78241" lon="-0.13144">
        <ele>77.5</ele>
        <time>2022-10-06T09:09:40Z</time>
      </trkpt>
      <trkpt lat="44.7824" lon="-0.13144">
        <ele>77.4</ele>
        <time>2022-10-06T09:09:42Z</time>
      </trkpt>
      <trkpt lat="44.78237" lon="-0.13143">
        <ele>77.4</ele>
        <time>2022-10-06T09:09:43Z</time>
      </trkpt>
      <trkpt lat="44.78235" lon="-0.13142">
        <ele>77.3</ele>
        <time>2022-10-06T09:09:45Z</time>
      </trkpt>
      <trkpt lat="44.78234" lon="-0.13141">
        <ele>77.3</ele>
        <time>2022-10-06T09:09:46Z</time>
      </trkpt>
      <trkpt lat="44.78232" lon="-0.1314">
        <ele>77.2</ele>
        <time>2022-10-06T09:09:47Z</time>
      </trkpt>
      <trkpt lat="44.7823" lon="-0.1314">
        <ele>77.2</ele>
        <time>2022-10-06T09:09:49Z</time>
      </trkpt>
      <trkpt lat="44.78229" lon="-0.13139">
        <ele>77.2</ele>
        <time>2022-10-06T09:09:50Z</time>
      </trkpt>
      <trkpt lat="44.78228" lon="-0.13138">
        <ele>77.1</ele>
        <time>2022-10-06T09:09:51Z</time>
      </trkpt>
      <trkpt lat="44.78225" lon="-0.13137">
        <ele>77</ele>
        <time>2022-10-06T09:09:53Z</time>
      </trkpt>
      <trkpt lat="44.78224" lon="-0.13137">
        <ele>77</ele>
        <time>2022-10-06T09:09:54Z</time>
      </trkpt>
      <trkpt lat="44.78222" lon="-0.13136">
        <ele>76.9</ele>
        <time>2022-10-06T09:09:56Z</time>
      </trkpt>
      <trkpt lat="44.7822" lon="-0.13135">
        <ele>76.9</ele>
        <time>2022-10-06T09:09:58Z</time>
      </trkpt>
      <trkpt lat="44.78219" lon="-0.13133">
        <ele>76.8</ele>
        <time>2022-10-06T09:09:59Z</time>
      </trkpt>
      <trkpt lat="44.78218" lon="-0.13133">
        <ele>76.8</ele>
        <time>2022-10-06T09:10:01Z</time>
      </trkpt>
      <trkpt lat="44.78217" lon="-0.13132">
        <ele>76.8</ele>
        <time>2022-10-06T09:10:02Z</time>
      </trkpt>
      <trkpt lat="44.78216" lon="-0.1313">
        <ele>76.7</ele>
        <time>2022-10-06T09:10:03Z</time>
      </trkpt>
      <trkpt lat="44.78214" lon="-0.13129">
        <ele>76.7</ele>
        <time>2022-10-06T09:10:04Z</time>
      </trkpt>
      <trkpt lat="44.78213" lon="-0.13128">
        <ele>76.6</ele>
        <time>2022-10-06T09:10:05Z</time>
      </trkpt>
      <trkpt lat="44.78212" lon="-0.13128">
        <ele>76.6</ele>
        <time>2022-10-06T09:10:06Z</time>
      </trkpt>
      <trkpt lat="44.78211" lon="-0.13128">
        <ele>76.6</ele>
        <time>2022-10-06T09:10:07Z</time>
      </trkpt>
      <trkpt lat="44.78209" lon="-0.13126">
        <ele>76.5</ele>
        <time>2022-10-06T09:10:09Z</time>
      </trkpt>
      <trkpt lat="44.78207" lon="-0.13125">
        <ele>76.5</ele>
        <time>2022-10-06T09:10:10Z</time>
      </trkpt>
      <trkpt lat="44.78206" lon="-0.13124">
        <ele>76.4</ele>
        <time>2022-10-06T09:10:11Z</time>
      </trkpt>
      <trkpt lat="44.78205" lon="-0.13123">
        <ele>76.4</ele>
        <time>2022-10-06T09:10:12Z</time>
      </trkpt>
      <trkpt lat="44.78203" lon="-0.13121">
        <ele>76.3</ele>
        <time>2022-10-06T09:10:14Z</time>
      </trkpt>
      <trkpt lat="44.78202" lon="-0.1312">
        <ele>76.3</ele>
        <time>2022-10-06T09:10:15Z</time>
      </trkpt>
      <trkpt lat="44.782" lon="-0.13118">
        <ele>76.2</ele>
        <time>2022-10-06T09:10:16Z</time>
      </trkpt>
      <trkpt lat="44.78199" lon="-0.13117">
        <ele>76.2</ele>
        <time>2022-10-06T09:10:18Z</time>
      </trkpt>
      <trkpt lat="44.78198" lon="-0.13116">
        <ele>76.1</ele>
        <time>2022-10-06T09:10:19Z</time>
      </trkpt>
      <trkpt lat="44.78196" lon="-0.13115">
        <ele>76.1</ele>
        <time>2022-10-06T09:10:21Z</time>
      </trkpt>
      <trkpt lat="44.78195" lon="-0.13114">
        <ele>76</ele>
        <time>2022-10-06T09:10:22Z</time>
      </trkpt>
      <trkpt lat="44.78194" lon="-0.13113">
        <ele>76</ele>
        <time>2022-10-06T09:10:23Z</time>
      </trkpt>
      <trkpt lat="44.78192" lon="-0.13111">
        <ele>75.9</ele>
        <time>2022-10-06T09:10:25Z</time>
      </trkpt>
      <trkpt lat="44.78191" lon="-0.13111">
        <ele>75.9</ele>
        <time>2022-10-06T09:10:26Z</time>
      </trkpt>
      <trkpt lat="44.78188" lon="-0.13109">
        <ele>75.8</ele>
        <time>2022-10-06T09:10:28Z</time>
      </trkpt>
      <trkpt lat="44.78187" lon="-0.13108">
        <ele>75.8</ele>
        <time>2022-10-06T09:10:29Z</time>
      </trkpt>
      <trkpt lat="44.78186" lon="-0.13107">
        <ele>75.7</ele>
        <time>2022-10-06T09:10:30Z</time>
      </trkpt>
      <trkpt lat="44.78184" lon="-0.13105">
        <ele>75.7</ele>
        <time>2022-10-06T09:10:31Z</time>
      </trkpt>
      <trkpt lat="44.78184" lon="-0.13104">
        <ele>75.7</ele>
        <time>2022-10-06T09:10:33Z</time>
      </trkpt>
      <trkpt lat="44.78183" lon="-0.13104">
        <ele>75.6</ele>
        <time>2022-10-06T09:10:34Z</time>
      </trkpt>
      <trkpt lat="44.78182" lon="-0.13102">
        <ele>75.6</ele>
        <time>2022-10-06T09:10:35Z</time>
      </trkpt>
      <trkpt lat="44.78181" lon="-0.13101">
        <ele>75.6</ele>
        <time>2022-10-06T09:10:36Z</time>
      </trkpt>
      <trkpt lat="44.78179" lon="-0.131">
        <ele>75.5</ele>
        <time>2022-10-06T09:10:38Z</time>
      </trkpt>
      <trkpt lat="44.78178" lon="-0.13099">
        <ele>75.5</ele>
        <time>2022-10-06T09:10:39Z</time>
      </trkpt>
      <trkpt lat="44.78176" lon="-0.13096">
        <ele>75.4</ele>
        <time>2022-10-06T09:10:41Z</time>
      </trkpt>
      <trkpt lat="44.78175" lon="-0.13095">
        <ele>75.4</ele>
        <time>2022-10-06T09:10:42Z</time>
      </trkpt>
      <trkpt lat="44.78174" lon="-0.13093">
        <ele>75.4</ele>
        <time>2022-10-06T09:10:44Z</time>
      </trkpt>
      <trkpt lat="44.78173" lon="-0.13092">
        <ele>75.3</ele>
        <time>2022-10-06T09:10:45Z</time>
      </trkpt>
      <trkpt lat="44.7817" lon="-0.13091">
        <ele>75.3</ele>
        <time>2022-10-06T09:10:47Z</time>
      </trkpt>
      <trkpt lat="44.78169" lon="-0.1309">
        <ele>75.3</ele>
        <time>2022-10-06T09:10:48Z</time>
      </trkpt>
      <trkpt lat="44.78168" lon="-0.1309">
        <ele>75.3</ele>
        <time>2022-10-06T09:10:50Z</time>
      </trkpt>
      <trkpt lat="44.78167" lon="-0.13089">
        <ele>75.3</ele>
        <time>2022-10-06T09:10:51Z</time>
      </trkpt>
      <trkpt lat="44.78166" lon="-0.13089">
        <ele>75.3</ele>
        <time>2022-10-06T09:10:52Z</time>
      </trkpt>
      <trkpt lat="44.78164" lon="-0.13088">
        <ele>75.3</ele>
        <time>2022-10-06T09:10:53Z</time>
      </trkpt>
      <trkpt lat="44.78164" lon="-0.13088">
        <ele>75.3</ele>
        <time>2022-10-06T09:10:54Z</time>
      </trkpt>
      <trkpt lat="44.78162" lon="-0.13086">
        <ele>75.3</ele>
        <time>2022-10-06T09:10:55Z</time>
      </trkpt>
      <trkpt lat="44.7816" lon="-0.13085">
        <ele>75.3</ele>
        <time>2022-10-06T09:10:57Z</time>
      </trkpt>
      <trkpt lat="44.7816" lon="-0.13084">
        <ele>75.3</ele>
        <time>2022-10-06T09:10:58Z</time>
      </trkpt>
      <trkpt lat="44.78159" lon="-0.13083">
        <ele>75.3</ele>
        <time>2022-10-06T09:10:59Z</time>
      </trkpt>
      <trkpt lat="44.78158" lon="-0.13082">
        <ele>75.3</ele>
        <time>2022-10-06T09:11:00Z</time>
      </trkpt>
      <trkpt lat="44.78158" lon="-0.1308">
        <ele>75.3</ele>
        <time>2022-10-06T09:11:01Z</time>
      </trkpt>
      <trkpt lat="44.78158" lon="-0.13079">
        <ele>75.3</ele>
        <time>2022-10-06T09:11:03Z</time>
      </trkpt>
      <trkpt lat="44.78158" lon="-0.13079">
        <ele>75.3</ele>
        <time>2022-10-06T09:11:04Z</time>
      </trkpt>
      <trkpt lat="44.78158" lon="-0.13079">
        <ele>75.3</ele>
        <time>2022-10-06T09:11:05Z</time>
      </trkpt>
      <trkpt lat="44.78158" lon="-0.13079">
        <ele>75.3</ele>
        <time>2022-10-06T09:11:06Z</time>
      </trkpt>
      <trkpt lat="44.78158" lon="-0.13079">
        <ele>75.3</ele>
        <time>2022-10-06T09:11:07Z</time>
      </trkpt>
      <trkpt lat="44.78158" lon="-0.13079">
        <ele>75.3</ele>
        <time>2022-10-06T09:11:08Z</time>
      </trkpt>
      <trkpt lat="44.78159" lon="-0.13079">
        <ele>75.3</ele>
        <time>2022-10-06T09:11:09Z</time>
      </trkpt>
      <trkpt lat="44.78159" lon="-0.13079">
        <ele>75.3</ele>
        <time>2022-10-06T09:11:10Z</time>
      </trkpt>
      <trkpt lat="44.78159" lon="-0.13078">
        <ele>75.3</ele>
        <time>2022-10-06T09:11:11Z</time>
      </trkpt>
      <trkpt lat="44.7816" lon="-0.13078">
        <ele>75.3</ele>
        <time>2022-10-06T09:11:12Z</time>
      </trkpt>
      <trkpt lat="44.78161" lon="-0.13078">
        <ele>75.3</ele>
        <time>2022-10-06T09:11:14Z</time>
      </trkpt>
      <trkpt lat="44.78161" lon="-0.13078">
        <ele>75.3</ele>
        <time>2022-10-06T09:11:15Z</time>
      </trkpt>
      <trkpt lat="44.78161" lon="-0.13079">
        <ele>75.3</ele>
        <time>2022-10-06T09:11:16Z</time>
      </trkpt>
      <trkpt lat="44.78161" lon="-0.13079">
        <ele>75.3</ele>
        <time>2022-10-06T09:11:17Z</time>
      </trkpt>
      <trkpt lat="44.78161" lon="-0.13079">
        <ele>75.3</ele>
        <time>2022-10-06T09:11:19Z</time>
      </trkpt>
      <trkpt lat="44.78161" lon="-0.13079">
        <ele>75.3</ele>
        <time>2022-10-06T09:11:21Z</time>
      </trkpt>
      <trkpt lat="44.78161" lon="-0.13079">
        <ele>75.3</ele>
        <time>2022-10-06T09:11:22Z</time>
      </trkpt>
      <trkpt lat="44.78161" lon="-0.13079">
        <ele>75.3</ele>
        <time>2022-10-06T09:11:23Z</time>
      </trkpt>
      <trkpt lat="44.78161" lon="-0.13079">
        <ele>75.3</ele>
        <time>2022-10-06T09:11:24Z</time>
      </trkpt>
      <trkpt lat="44.78161" lon="-0.13079">
        <ele>75.3</ele>
        <time>2022-10-06T09:11:25Z</time>
      </trkpt>
      <trkpt lat="44.78161" lon="-0.13079">
        <ele>75.3</ele>
        <time>2022-10-06T09:11:26Z</time>
      </trkpt>
      <trkpt lat="44.78161" lon="-0.1308">
        <ele>75.3</ele>
        <time>2022-10-06T09:11:27Z</time>
      </trkpt>
      <trkpt lat="44.7816" lon="-0.1308">
        <ele>75.3</ele>
        <time>2022-10-06T09:11:29Z</time>
      </trkpt>
      <trkpt lat="44.7816" lon="-0.1308">
        <ele>75.3</ele>
        <time>2022-10-06T09:11:30Z</time>
      </trkpt>
      <trkpt lat="44.78158" lon="-0.1308">
        <ele>75.3</ele>
        <time>2022-10-06T09:11:31Z</time>
      </trkpt>
      <trkpt lat="44.78157" lon="-0.1308">
        <ele>75.3</ele>
        <time>2022-10-06T09:11:33Z</time>
      </trkpt>
      <trkpt lat="44.78157" lon="-0.1308">
        <ele>75.3</ele>
        <time>2022-10-06T09:11:34Z</time>
      </trkpt>
      <trkpt lat="44.78154" lon="-0.1308">
        <ele>75.3</ele>
        <time>2022-10-06T09:11:35Z</time>
      </trkpt>
      <trkpt lat="44.78153" lon="-0.1308">
        <ele>75.3</ele>
        <time>2022-10-06T09:11:37Z</time>
      </trkpt>
      <trkpt lat="44.78151" lon="-0.1308">
        <ele>75.3</ele>
        <time>2022-10-06T09:11:38Z</time>
      </trkpt>
      <trkpt lat="44.7815" lon="-0.13079">
        <ele>75.3</ele>
        <time>2022-10-06T09:11:39Z</time>
      </trkpt>
      <trkpt lat="44.78148" lon="-0.1308">
        <ele>75.3</ele>
        <time>2022-10-06T09:11:40Z</time>
      </trkpt>
      <trkpt lat="44.78146" lon="-0.1308">
        <ele>75.2</ele>
        <time>2022-10-06T09:11:41Z</time>
      </trkpt>
      <trkpt lat="44.78145" lon="-0.13081">
        <ele>75.2</ele>
        <time>2022-10-06T09:11:42Z</time>
      </trkpt>
      <trkpt lat="44.78144" lon="-0.13082">
        <ele>75.2</ele>
        <time>2022-10-06T09:11:43Z</time>
      </trkpt>
      <trkpt lat="44.78144" lon="-0.13084">
        <ele>75.2</ele>
        <time>2022-10-06T09:11:45Z</time>
      </trkpt>
      <trkpt lat="44.78144" lon="-0.13084">
        <ele>75.2</ele>
        <time>2022-10-06T09:11:47Z</time>
      </trkpt>
      <trkpt lat="44.78144" lon="-0.13084">
        <ele>75.2</ele>
        <time>2022-10-06T09:11:48Z</time>
      </trkpt>
      <trkpt lat="44.78145" lon="-0.13084">
        <ele>75.2</ele>
        <time>2022-10-06T09:11:49Z</time>
      </trkpt>
      <trkpt lat="44.78145" lon="-0.13084">
        <ele>75.2</ele>
        <time>2022-10-06T09:11:50Z</time>
      </trkpt>
      <trkpt lat="44.78144" lon="-0.13083">
        <ele>75.2</ele>
        <time>2022-10-06T09:11:51Z</time>
      </trkpt>
      <trkpt lat="44.78142" lon="-0.13083">
        <ele>75.2</ele>
        <time>2022-10-06T09:11:52Z</time>
      </trkpt>
      <trkpt lat="44.78141" lon="-0.13083">
        <ele>75.2</ele>
        <time>2022-10-06T09:11:53Z</time>
      </trkpt>
      <trkpt lat="44.7814" lon="-0.13083">
        <ele>75.2</ele>
        <time>2022-10-06T09:11:54Z</time>
      </trkpt>
      <trkpt lat="44.78138" lon="-0.13082">
        <ele>75.2</ele>
        <time>2022-10-06T09:11:55Z</time>
      </trkpt>
      <trkpt lat="44.78137" lon="-0.13082">
        <ele>75.2</ele>
        <time>2022-10-06T09:11:57Z</time>
      </trkpt>
      <trkpt lat="44.78137" lon="-0.13082">
        <ele>75.2</ele>
        <time>2022-10-06T09:11:58Z</time>
      </trkpt>
      <trkpt lat="44.78134" lon="-0.13082">
        <ele>75.2</ele>
        <time>2022-10-06T09:11:59Z</time>
      </trkpt>
      <trkpt lat="44.78133" lon="-0.13082">
        <ele>75.2</ele>
        <time>2022-10-06T09:12:01Z</time>
      </trkpt>
      <trkpt lat="44.78132" lon="-0.13082">
        <ele>75.2</ele>
        <time>2022-10-06T09:12:02Z</time>
      </trkpt>
      <trkpt lat="44.7813" lon="-0.13082">
        <ele>75.2</ele>
        <time>2022-10-06T09:12:03Z</time>
      </trkpt>
      <trkpt lat="44.78129" lon="-0.13081">
        <ele>75.2</ele>
        <time>2022-10-06T09:12:04Z</time>
      </trkpt>
      <trkpt lat="44.78128" lon="-0.13081">
        <ele>75.1</ele>
        <time>2022-10-06T09:12:05Z</time>
      </trkpt>
      <trkpt lat="44.78127" lon="-0.13081">
        <ele>75.1</ele>
        <time>2022-10-06T09:12:06Z</time>
      </trkpt>
      <trkpt lat="44.78126" lon="-0.13081">
        <ele>75.1</ele>
        <time>2022-10-06T09:12:07Z</time>
      </trkpt>
      <trkpt lat="44.78123" lon="-0.13081">
        <ele>75</ele>
        <time>2022-10-06T09:12:08Z</time>
      </trkpt>
      <trkpt lat="44.78123" lon="-0.13082">
        <ele>75</ele>
        <time>2022-10-06T09:12:09Z</time>
      </trkpt>
      <trkpt lat="44.7812" lon="-0.13083">
        <ele>75</ele>
        <time>2022-10-06T09:12:10Z</time>
      </trkpt>
      <trkpt lat="44.78118" lon="-0.13084">
        <ele>74.9</ele>
        <time>2022-10-06T09:12:11Z</time>
      </trkpt>
      <trkpt lat="44.78117" lon="-0.13084">
        <ele>74.9</ele>
        <time>2022-10-06T09:12:13Z</time>
      </trkpt>
      <trkpt lat="44.78116" lon="-0.13084">
        <ele>74.9</ele>
        <time>2022-10-06T09:12:14Z</time>
      </trkpt>
      <trkpt lat="44.78114" lon="-0.13085">
        <ele>74.9</ele>
        <time>2022-10-06T09:12:15Z</time>
      </trkpt>
      <trkpt lat="44.78113" lon="-0.13085">
        <ele>74.9</ele>
        <time>2022-10-06T09:12:16Z</time>
      </trkpt>
      <trkpt lat="44.78112" lon="-0.13085">
        <ele>74.8</ele>
        <time>2022-10-06T09:12:18Z</time>
      </trkpt>
      <trkpt lat="44.78111" lon="-0.13086">
        <ele>74.8</ele>
        <time>2022-10-06T09:12:19Z</time>
      </trkpt>
      <trkpt lat="44.78109" lon="-0.13086">
        <ele>74.8</ele>
        <time>2022-10-06T09:12:20Z</time>
      </trkpt>
      <trkpt lat="44.78106" lon="-0.13086">
        <ele>74.7</ele>
        <time>2022-10-06T09:12:22Z</time>
      </trkpt>
      <trkpt lat="44.78105" lon="-0.13086">
        <ele>74.7</ele>
        <time>2022-10-06T09:12:23Z</time>
      </trkpt>
      <trkpt lat="44.78103" lon="-0.13086">
        <ele>74.7</ele>
        <time>2022-10-06T09:12:25Z</time>
      </trkpt>
      <trkpt lat="44.78102" lon="-0.13087">
        <ele>74.6</ele>
        <time>2022-10-06T09:12:27Z</time>
      </trkpt>
      <trkpt lat="44.78101" lon="-0.13087">
        <ele>74.6</ele>
        <time>2022-10-06T09:12:28Z</time>
      </trkpt>
      <trkpt lat="44.78099" lon="-0.13087">
        <ele>74.6</ele>
        <time>2022-10-06T09:12:29Z</time>
      </trkpt>
      <trkpt lat="44.78097" lon="-0.13088">
        <ele>74.5</ele>
        <time>2022-10-06T09:12:30Z</time>
      </trkpt>
      <trkpt lat="44.78096" lon="-0.13088">
        <ele>74.5</ele>
        <time>2022-10-06T09:12:31Z</time>
      </trkpt>
      <trkpt lat="44.78094" lon="-0.13089">
        <ele>74.4</ele>
        <time>2022-10-06T09:12:33Z</time>
      </trkpt>
      <trkpt lat="44.78093" lon="-0.13089">
        <ele>74.4</ele>
        <time>2022-10-06T09:12:34Z</time>
      </trkpt>
      <trkpt lat="44.78091" lon="-0.1309">
        <ele>74.4</ele>
        <time>2022-10-06T09:12:35Z</time>
      </trkpt>
      <trkpt lat="44.7809" lon="-0.1309">
        <ele>74.3</ele>
        <time>2022-10-06T09:12:36Z</time>
      </trkpt>
      <trkpt lat="44.78089" lon="-0.13091">
        <ele>74.3</ele>
        <time>2022-10-06T09:12:38Z</time>
      </trkpt>
      <trkpt lat="44.78088" lon="-0.13091">
        <ele>74.3</ele>
        <time>2022-10-06T09:12:39Z</time>
      </trkpt>
      <trkpt lat="44.78086" lon="-0.13092">
        <ele>74.2</ele>
        <time>2022-10-06T09:12:40Z</time>
      </trkpt>
      <trkpt lat="44.78085" lon="-0.13092">
        <ele>74.2</ele>
        <time>2022-10-06T09:12:42Z</time>
      </trkpt>
      <trkpt lat="44.78083" lon="-0.13092">
        <ele>74.1</ele>
        <time>2022-10-06T09:12:43Z</time>
      </trkpt>
      <trkpt lat="44.78083" lon="-0.13093">
        <ele>74.1</ele>
        <time>2022-10-06T09:12:44Z</time>
      </trkpt>
      <trkpt lat="44.78082" lon="-0.13093">
        <ele>74.1</ele>
        <time>2022-10-06T09:12:45Z</time>
      </trkpt>
      <trkpt lat="44.78079" lon="-0.13093">
        <ele>74</ele>
        <time>2022-10-06T09:12:46Z</time>
      </trkpt>
      <trkpt lat="44.78078" lon="-0.13094">
        <ele>74</ele>
        <time>2022-10-06T09:12:47Z</time>
      </trkpt>
      <trkpt lat="44.78077" lon="-0.13094">
        <ele>74</ele>
        <time>2022-10-06T09:12:48Z</time>
      </trkpt>
      <trkpt lat="44.78077" lon="-0.13094">
        <ele>73.9</ele>
        <time>2022-10-06T09:12:49Z</time>
      </trkpt>
      <trkpt lat="44.78076" lon="-0.13095">
        <ele>73.9</ele>
        <time>2022-10-06T09:12:50Z</time>
      </trkpt>
      <trkpt lat="44.78074" lon="-0.13095">
        <ele>73.8</ele>
        <time>2022-10-06T09:12:51Z</time>
      </trkpt>
      <trkpt lat="44.78072" lon="-0.13095">
        <ele>73.7</ele>
        <time>2022-10-06T09:12:53Z</time>
      </trkpt>
      <trkpt lat="44.78071" lon="-0.13095">
        <ele>73.7</ele>
        <time>2022-10-06T09:12:54Z</time>
      </trkpt>
      <trkpt lat="44.7807" lon="-0.13096">
        <ele>73.7</ele>
        <time>2022-10-06T09:12:55Z</time>
      </trkpt>
      <trkpt lat="44.78068" lon="-0.13096">
        <ele>73.6</ele>
        <time>2022-10-06T09:12:56Z</time>
      </trkpt>
      <trkpt lat="44.78066" lon="-0.13096">
        <ele>73.5</ele>
        <time>2022-10-06T09:12:58Z</time>
      </trkpt>
      <trkpt lat="44.78065" lon="-0.13096">
        <ele>73.5</ele>
        <time>2022-10-06T09:12:59Z</time>
      </trkpt>
      <trkpt lat="44.78064" lon="-0.13096">
        <ele>73.4</ele>
        <time>2022-10-06T09:13:00Z</time>
      </trkpt>
      <trkpt lat="44.78063" lon="-0.13095">
        <ele>73.4</ele>
        <time>2022-10-06T09:13:01Z</time>
      </trkpt>
      <trkpt lat="44.78062" lon="-0.13095">
        <ele>73.3</ele>
        <time>2022-10-06T09:13:02Z</time>
      </trkpt>
      <trkpt lat="44.78059" lon="-0.13094">
        <ele>73.2</ele>
        <time>2022-10-06T09:13:03Z</time>
      </trkpt>
      <trkpt lat="44.78059" lon="-0.13094">
        <ele>73.2</ele>
        <time>2022-10-06T09:13:04Z</time>
      </trkpt>
      <trkpt lat="44.78058" lon="-0.13094">
        <ele>73.1</ele>
        <time>2022-10-06T09:13:05Z</time>
      </trkpt>
      <trkpt lat="44.78056" lon="-0.13093">
        <ele>73</ele>
        <time>2022-10-06T09:13:06Z</time>
      </trkpt>
      <trkpt lat="44.78054" lon="-0.13093">
        <ele>72.9</ele>
        <time>2022-10-06T09:13:08Z</time>
      </trkpt>
      <trkpt lat="44.78052" lon="-0.13092">
        <ele>72.8</ele>
        <time>2022-10-06T09:13:09Z</time>
      </trkpt>
      <trkpt lat="44.78051" lon="-0.13092">
        <ele>72.7</ele>
        <time>2022-10-06T09:13:10Z</time>
      </trkpt>
      <trkpt lat="44.78049" lon="-0.13091">
        <ele>72.6</ele>
        <time>2022-10-06T09:13:11Z</time>
      </trkpt>
      <trkpt lat="44.78048" lon="-0.13091">
        <ele>72.5</ele>
        <time>2022-10-06T09:13:13Z</time>
      </trkpt>
      <trkpt lat="44.78047" lon="-0.1309">
        <ele>72.5</ele>
        <time>2022-10-06T09:13:14Z</time>
      </trkpt>
      <trkpt lat="44.78046" lon="-0.1309">
        <ele>72.4</ele>
        <time>2022-10-06T09:13:15Z</time>
      </trkpt>
      <trkpt lat="44.78043" lon="-0.13089">
        <ele>72.3</ele>
        <time>2022-10-06T09:13:16Z</time>
      </trkpt>
      <trkpt lat="44.78041" lon="-0.13089">
        <ele>72.1</ele>
        <time>2022-10-06T09:13:18Z</time>
      </trkpt>
      <trkpt lat="44.7804" lon="-0.13089">
        <ele>72.1</ele>
        <time>2022-10-06T09:13:19Z</time>
      </trkpt>
      <trkpt lat="44.78039" lon="-0.13089">
        <ele>72</ele>
        <time>2022-10-06T09:13:20Z</time>
      </trkpt>
      <trkpt lat="44.78038" lon="-0.13089">
        <ele>72</ele>
        <time>2022-10-06T09:13:21Z</time>
      </trkpt>
      <trkpt lat="44.78037" lon="-0.13089">
        <ele>71.9</ele>
        <time>2022-10-06T09:13:22Z</time>
      </trkpt>
      <trkpt lat="44.78035" lon="-0.13089">
        <ele>71.8</ele>
        <time>2022-10-06T09:13:23Z</time>
      </trkpt>
      <trkpt lat="44.78034" lon="-0.13088">
        <ele>71.7</ele>
        <time>2022-10-06T09:13:24Z</time>
      </trkpt>
      <trkpt lat="44.78033" lon="-0.13088">
        <ele>71.7</ele>
        <time>2022-10-06T09:13:25Z</time>
      </trkpt>
      <trkpt lat="44.78031" lon="-0.13088">
        <ele>71.6</ele>
        <time>2022-10-06T09:13:26Z</time>
      </trkpt>
      <trkpt lat="44.78029" lon="-0.13088">
        <ele>71.5</ele>
        <time>2022-10-06T09:13:27Z</time>
      </trkpt>
      <trkpt lat="44.78028" lon="-0.13088">
        <ele>71.4</ele>
        <time>2022-10-06T09:13:28Z</time>
      </trkpt>
      <trkpt lat="44.78027" lon="-0.13087">
        <ele>71.4</ele>
        <time>2022-10-06T09:13:29Z</time>
      </trkpt>
      <trkpt lat="44.78025" lon="-0.13086">
        <ele>71.2</ele>
        <time>2022-10-06T09:13:31Z</time>
      </trkpt>
      <trkpt lat="44.78024" lon="-0.13084">
        <ele>70.7</ele>
        <time>2022-10-06T09:13:32Z</time>
      </trkpt>
      <trkpt lat="44.78022" lon="-0.13082">
        <ele>70.6</ele>
        <time>2022-10-06T09:13:33Z</time>
      </trkpt>
      <trkpt lat="44.78022" lon="-0.13081">
        <ele>70.6</ele>
        <time>2022-10-06T09:13:34Z</time>
      </trkpt>
      <trkpt lat="44.78022" lon="-0.13079">
        <ele>70.5</ele>
        <time>2022-10-06T09:13:35Z</time>
      </trkpt>
      <trkpt lat="44.78021" lon="-0.13076">
        <ele>70.4</ele>
        <time>2022-10-06T09:13:36Z</time>
      </trkpt>
      <trkpt lat="44.78021" lon="-0.13075">
        <ele>70.4</ele>
        <time>2022-10-06T09:13:37Z</time>
      </trkpt>
      <trkpt lat="44.78021" lon="-0.13074">
        <ele>70.3</ele>
        <time>2022-10-06T09:13:38Z</time>
      </trkpt>
      <trkpt lat="44.7802" lon="-0.13071">
        <ele>70.2</ele>
        <time>2022-10-06T09:13:39Z</time>
      </trkpt>
      <trkpt lat="44.7802" lon="-0.1307">
        <ele>70.2</ele>
        <time>2022-10-06T09:13:40Z</time>
      </trkpt>
      <trkpt lat="44.7802" lon="-0.13069">
        <ele>70.1</ele>
        <time>2022-10-06T09:13:41Z</time>
      </trkpt>
      <trkpt lat="44.78019" lon="-0.13067">
        <ele>70.1</ele>
        <time>2022-10-06T09:13:42Z</time>
      </trkpt>
      <trkpt lat="44.78019" lon="-0.13065">
        <ele>70</ele>
        <time>2022-10-06T09:13:44Z</time>
      </trkpt>
      <trkpt lat="44.78018" lon="-0.13062">
        <ele>69.9</ele>
        <time>2022-10-06T09:13:45Z</time>
      </trkpt>
      <trkpt lat="44.78018" lon="-0.1306">
        <ele>69.8</ele>
        <time>2022-10-06T09:13:46Z</time>
      </trkpt>
      <trkpt lat="44.78017" lon="-0.13058">
        <ele>69.7</ele>
        <time>2022-10-06T09:13:47Z</time>
      </trkpt>
      <trkpt lat="44.78016" lon="-0.13057">
        <ele>69.7</ele>
        <time>2022-10-06T09:13:49Z</time>
      </trkpt>
      <trkpt lat="44.78016" lon="-0.13056">
        <ele>69.6</ele>
        <time>2022-10-06T09:13:50Z</time>
      </trkpt>
      <trkpt lat="44.78015" lon="-0.13054">
        <ele>69.6</ele>
        <time>2022-10-06T09:13:51Z</time>
      </trkpt>
      <trkpt lat="44.78014" lon="-0.13051">
        <ele>69.5</ele>
        <time>2022-10-06T09:13:52Z</time>
      </trkpt>
      <trkpt lat="44.78013" lon="-0.13048">
        <ele>69.4</ele>
        <time>2022-10-06T09:13:54Z</time>
      </trkpt>
      <trkpt lat="44.78013" lon="-0.13047">
        <ele>69.4</ele>
        <time>2022-10-06T09:13:55Z</time>
      </trkpt>
      <trkpt lat="44.78013" lon="-0.13046">
        <ele>69.3</ele>
        <time>2022-10-06T09:13:56Z</time>
      </trkpt>
      <trkpt lat="44.78012" lon="-0.13043">
        <ele>69.2</ele>
        <time>2022-10-06T09:13:57Z</time>
      </trkpt>
      <trkpt lat="44.78011" lon="-0.1304">
        <ele>69.1</ele>
        <time>2022-10-06T09:13:59Z</time>
      </trkpt>
      <trkpt lat="44.7801" lon="-0.13036">
        <ele>69</ele>
        <time>2022-10-06T09:14:01Z</time>
      </trkpt>
      <trkpt lat="44.78009" lon="-0.13035">
        <ele>69</ele>
        <time>2022-10-06T09:14:02Z</time>
      </trkpt>
      <trkpt lat="44.78008" lon="-0.13032">
        <ele>68.9</ele>
        <time>2022-10-06T09:14:04Z</time>
      </trkpt>
      <trkpt lat="44.78008" lon="-0.1303">
        <ele>68.9</ele>
        <time>2022-10-06T09:14:05Z</time>
      </trkpt>
      <trkpt lat="44.78007" lon="-0.13028">
        <ele>68.8</ele>
        <time>2022-10-06T09:14:06Z</time>
      </trkpt>
      <trkpt lat="44.78007" lon="-0.13027">
        <ele>68.8</ele>
        <time>2022-10-06T09:14:08Z</time>
      </trkpt>
      <trkpt lat="44.78007" lon="-0.13025">
        <ele>68.7</ele>
        <time>2022-10-06T09:14:09Z</time>
      </trkpt>
      <trkpt lat="44.78006" lon="-0.13022">
        <ele>68.7</ele>
        <time>2022-10-06T09:14:10Z</time>
      </trkpt>
      <trkpt lat="44.78006" lon="-0.1302">
        <ele>68.6</ele>
        <time>2022-10-06T09:14:11Z</time>
      </trkpt>
      <trkpt lat="44.78006" lon="-0.13019">
        <ele>68.6</ele>
        <time>2022-10-06T09:14:12Z</time>
      </trkpt>
      <trkpt lat="44.78005" lon="-0.13015">
        <ele>68.5</ele>
        <time>2022-10-06T09:14:14Z</time>
      </trkpt>
      <trkpt lat="44.78004" lon="-0.13014">
        <ele>68.5</ele>
        <time>2022-10-06T09:14:15Z</time>
      </trkpt>
      <trkpt lat="44.78004" lon="-0.13011">
        <ele>68.5</ele>
        <time>2022-10-06T09:14:16Z</time>
      </trkpt>
      <trkpt lat="44.78003" lon="-0.1301">
        <ele>68.4</ele>
        <time>2022-10-06T09:14:17Z</time>
      </trkpt>
      <trkpt lat="44.78003" lon="-0.13009">
        <ele>68.4</ele>
        <time>2022-10-06T09:14:18Z</time>
      </trkpt>
      <trkpt lat="44.78002" lon="-0.13006">
        <ele>68.4</ele>
        <time>2022-10-06T09:14:20Z</time>
      </trkpt>
      <trkpt lat="44.78002" lon="-0.13005">
        <ele>68.3</ele>
        <time>2022-10-06T09:14:21Z</time>
      </trkpt>
      <trkpt lat="44.78001" lon="-0.13002">
        <ele>68.3</ele>
        <time>2022-10-06T09:14:22Z</time>
      </trkpt>
      <trkpt lat="44.78001" lon="-0.13001">
        <ele>68.3</ele>
        <time>2022-10-06T09:14:23Z</time>
      </trkpt>
      <trkpt lat="44.78001" lon="-0.13">
        <ele>68.3</ele>
        <time>2022-10-06T09:14:24Z</time>
      </trkpt>
      <trkpt lat="44.78" lon="-0.12998">
        <ele>68.2</ele>
        <time>2022-10-06T09:14:25Z</time>
      </trkpt>
      <trkpt lat="44.78" lon="-0.12997">
        <ele>68.2</ele>
        <time>2022-10-06T09:14:26Z</time>
      </trkpt>
      <trkpt lat="44.77999" lon="-0.12996">
        <ele>68.2</ele>
        <time>2022-10-06T09:14:27Z</time>
      </trkpt>
      <trkpt lat="44.77999" lon="-0.12994">
        <ele>68.2</ele>
        <time>2022-10-06T09:14:29Z</time>
      </trkpt>
      <trkpt lat="44.77998" lon="-0.12993">
        <ele>68.1</ele>
        <time>2022-10-06T09:14:30Z</time>
      </trkpt>
      <trkpt lat="44.77997" lon="-0.1299">
        <ele>68.1</ele>
        <time>2022-10-06T09:14:31Z</time>
      </trkpt>
      <trkpt lat="44.77996" lon="-0.12988">
        <ele>68.1</ele>
        <time>2022-10-06T09:14:32Z</time>
      </trkpt>
      <trkpt lat="44.77995" lon="-0.12986">
        <ele>68</ele>
        <time>2022-10-06T09:14:34Z</time>
      </trkpt>
      <trkpt lat="44.77995" lon="-0.12985">
        <ele>68</ele>
        <time>2022-10-06T09:14:35Z</time>
      </trkpt>
      <trkpt lat="44.77994" lon="-0.12982">
        <ele>67.9</ele>
        <time>2022-10-06T09:14:36Z</time>
      </trkpt>
      <trkpt lat="44.77993" lon="-0.12981">
        <ele>67.9</ele>
        <time>2022-10-06T09:14:37Z</time>
      </trkpt>
      <trkpt lat="44.77993" lon="-0.12978">
        <ele>67.9</ele>
        <time>2022-10-06T09:14:38Z</time>
      </trkpt>
      <trkpt lat="44.77992" lon="-0.12977">
        <ele>67.9</ele>
        <time>2022-10-06T09:14:40Z</time>
      </trkpt>
      <trkpt lat="44.77992" lon="-0.12975">
        <ele>67.8</ele>
        <time>2022-10-06T09:14:41Z</time>
      </trkpt>
      <trkpt lat="44.7799" lon="-0.12972">
        <ele>67.8</ele>
        <time>2022-10-06T09:14:42Z</time>
      </trkpt>
      <trkpt lat="44.77988" lon="-0.12969">
        <ele>67.7</ele>
        <time>2022-10-06T09:14:44Z</time>
      </trkpt>
      <trkpt lat="44.77988" lon="-0.12968">
        <ele>67.7</ele>
        <time>2022-10-06T09:14:45Z</time>
      </trkpt>
      <trkpt lat="44.77987" lon="-0.12967">
        <ele>67.7</ele>
        <time>2022-10-06T09:14:46Z</time>
      </trkpt>
      <trkpt lat="44.77986" lon="-0.12966">
        <ele>67.7</ele>
        <time>2022-10-06T09:14:47Z</time>
      </trkpt>
      <trkpt lat="44.77985" lon="-0.12964">
        <ele>67.6</ele>
        <time>2022-10-06T09:14:49Z</time>
      </trkpt>
      <trkpt lat="44.77985" lon="-0.12963">
        <ele>67.6</ele>
        <time>2022-10-06T09:14:50Z</time>
      </trkpt>
      <trkpt lat="44.77984" lon="-0.12962">
        <ele>67.6</ele>
        <time>2022-10-06T09:14:51Z</time>
      </trkpt>
      <trkpt lat="44.77983" lon="-0.1296">
        <ele>67.5</ele>
        <time>2022-10-06T09:14:52Z</time>
      </trkpt>
      <trkpt lat="44.77982" lon="-0.12958">
        <ele>67.5</ele>
        <time>2022-10-06T09:14:53Z</time>
      </trkpt>
      <trkpt lat="44.77981" lon="-0.12957">
        <ele>67.5</ele>
        <time>2022-10-06T09:14:54Z</time>
      </trkpt>
      <trkpt lat="44.77981" lon="-0.12957">
        <ele>67.5</ele>
        <time>2022-10-06T09:14:55Z</time>
      </trkpt>
      <trkpt lat="44.7798" lon="-0.12955">
        <ele>67.5</ele>
        <time>2022-10-06T09:14:56Z</time>
      </trkpt>
      <trkpt lat="44.7798" lon="-0.12954">
        <ele>67.4</ele>
        <time>2022-10-06T09:14:57Z</time>
      </trkpt>
      <trkpt lat="44.7798" lon="-0.12952">
        <ele>67.4</ele>
        <time>2022-10-06T09:14:58Z</time>
      </trkpt>
      <trkpt lat="44.77979" lon="-0.1295">
        <ele>67.4</ele>
        <time>2022-10-06T09:14:59Z</time>
      </trkpt>
      <trkpt lat="44.77978" lon="-0.12949">
        <ele>67.4</ele>
        <time>2022-10-06T09:15:00Z</time>
      </trkpt>
      <trkpt lat="44.77977" lon="-0.12947">
        <ele>67.3</ele>
        <time>2022-10-06T09:15:01Z</time>
      </trkpt>
      <trkpt lat="44.77977" lon="-0.12945">
        <ele>67.3</ele>
        <time>2022-10-06T09:15:02Z</time>
      </trkpt>
      <trkpt lat="44.77976" lon="-0.12943">
        <ele>67.2</ele>
        <time>2022-10-06T09:15:04Z</time>
      </trkpt>
      <trkpt lat="44.77975" lon="-0.12942">
        <ele>67.2</ele>
        <time>2022-10-06T09:15:05Z</time>
      </trkpt>
      <trkpt lat="44.77975" lon="-0.12941">
        <ele>67.2</ele>
        <time>2022-10-06T09:15:06Z</time>
      </trkpt>
      <trkpt lat="44.77974" lon="-0.12938">
        <ele>67.1</ele>
        <time>2022-10-06T09:15:07Z</time>
      </trkpt>
      <trkpt lat="44.77973" lon="-0.12936">
        <ele>67.1</ele>
        <time>2022-10-06T09:15:09Z</time>
      </trkpt>
      <trkpt lat="44.77973" lon="-0.12935">
        <ele>67</ele>
        <time>2022-10-06T09:15:10Z</time>
      </trkpt>
      <trkpt lat="44.77972" lon="-0.12933">
        <ele>67</ele>
        <time>2022-10-06T09:15:11Z</time>
      </trkpt>
      <trkpt lat="44.7797" lon="-0.12931">
        <ele>66.9</ele>
        <time>2022-10-06T09:15:12Z</time>
      </trkpt>
      <trkpt lat="44.77969" lon="-0.12929">
        <ele>66.8</ele>
        <time>2022-10-06T09:15:14Z</time>
      </trkpt>
      <trkpt lat="44.77968" lon="-0.12927">
        <ele>66.7</ele>
        <time>2022-10-06T09:15:15Z</time>
      </trkpt>
      <trkpt lat="44.77967" lon="-0.12925">
        <ele>66.6</ele>
        <time>2022-10-06T09:15:17Z</time>
      </trkpt>
      <trkpt lat="44.77964" lon="-0.12924">
        <ele>66.5</ele>
        <time>2022-10-06T09:15:18Z</time>
      </trkpt>
      <trkpt lat="44.77962" lon="-0.12924">
        <ele>66.4</ele>
        <time>2022-10-06T09:15:20Z</time>
      </trkpt>
      <trkpt lat="44.77961" lon="-0.12923">
        <ele>66.4</ele>
        <time>2022-10-06T09:15:21Z</time>
      </trkpt>
      <trkpt lat="44.7796" lon="-0.12923">
        <ele>66.3</ele>
        <time>2022-10-06T09:15:22Z</time>
      </trkpt>
      <trkpt lat="44.77958" lon="-0.12922">
        <ele>66.2</ele>
        <time>2022-10-06T09:15:24Z</time>
      </trkpt>
      <trkpt lat="44.77958" lon="-0.12922">
        <ele>66.2</ele>
        <time>2022-10-06T09:15:25Z</time>
      </trkpt>
      <trkpt lat="44.77957" lon="-0.12922">
        <ele>66.1</ele>
        <time>2022-10-06T09:15:26Z</time>
      </trkpt>
      <trkpt lat="44.77955" lon="-0.12922">
        <ele>66</ele>
        <time>2022-10-06T09:15:27Z</time>
      </trkpt>
      <trkpt lat="44.77952" lon="-0.12921">
        <ele>65.8</ele>
        <time>2022-10-06T09:15:29Z</time>
      </trkpt>
      <trkpt lat="44.77951" lon="-0.1292">
        <ele>65.7</ele>
        <time>2022-10-06T09:15:30Z</time>
      </trkpt>
      <trkpt lat="44.77951" lon="-0.12919">
        <ele>65.7</ele>
        <time>2022-10-06T09:15:31Z</time>
      </trkpt>
      <trkpt lat="44.7795" lon="-0.12918">
        <ele>65.6</ele>
        <time>2022-10-06T09:15:32Z</time>
      </trkpt>
      <trkpt lat="44.7795" lon="-0.12917">
        <ele>65.6</ele>
        <time>2022-10-06T09:15:34Z</time>
      </trkpt>
      <trkpt lat="44.7795" lon="-0.12917">
        <ele>65.5</ele>
        <time>2022-10-06T09:15:35Z</time>
      </trkpt>
      <trkpt lat="44.77951" lon="-0.12916">
        <ele>65.5</ele>
        <time>2022-10-06T09:15:36Z</time>
      </trkpt>
      <trkpt lat="44.77951" lon="-0.12916">
        <ele>65.4</ele>
        <time>2022-10-06T09:15:37Z</time>
      </trkpt>
      <trkpt lat="44.77951" lon="-0.12915">
        <ele>65.4</ele>
        <time>2022-10-06T09:15:38Z</time>
      </trkpt>
      <trkpt lat="44.77951" lon="-0.12915">
        <ele>65.4</ele>
        <time>2022-10-06T09:15:39Z</time>
      </trkpt>
      <trkpt lat="44.77951" lon="-0.12915">
        <ele>65.3</ele>
        <time>2022-10-06T09:15:40Z</time>
      </trkpt>
      <trkpt lat="44.7795" lon="-0.12915">
        <ele>65.3</ele>
        <time>2022-10-06T09:15:41Z</time>
      </trkpt>
      <trkpt lat="44.7795" lon="-0.12915">
        <ele>65.2</ele>
        <time>2022-10-06T09:15:42Z</time>
      </trkpt>
      <trkpt lat="44.7795" lon="-0.12915">
        <ele>65.2</ele>
        <time>2022-10-06T09:15:44Z</time>
      </trkpt>
      <trkpt lat="44.7795" lon="-0.12915">
        <ele>65.2</ele>
        <time>2022-10-06T09:15:45Z</time>
      </trkpt>
      <trkpt lat="44.77951" lon="-0.12917">
        <ele>65.1</ele>
        <time>2022-10-06T09:15:46Z</time>
      </trkpt>
      <trkpt lat="44.77951" lon="-0.12918">
        <ele>65</ele>
        <time>2022-10-06T09:15:48Z</time>
      </trkpt>
      <trkpt lat="44.77952" lon="-0.12918">
        <ele>65</ele>
        <time>2022-10-06T09:15:49Z</time>
      </trkpt>
      <trkpt lat="44.77952" lon="-0.12918">
        <ele>65</ele>
        <time>2022-10-06T09:15:50Z</time>
      </trkpt>
      <trkpt lat="44.77953" lon="-0.12919">
        <ele>64.9</ele>
        <time>2022-10-06T09:15:51Z</time>
      </trkpt>
      <trkpt lat="44.77953" lon="-0.1292">
        <ele>64.8</ele>
        <time>2022-10-06T09:15:52Z</time>
      </trkpt>
      <trkpt lat="44.77954" lon="-0.12921">
        <ele>64.8</ele>
        <time>2022-10-06T09:15:53Z</time>
      </trkpt>
      <trkpt lat="44.77955" lon="-0.12922">
        <ele>64.7</ele>
        <time>2022-10-06T09:15:54Z</time>
      </trkpt>
      <trkpt lat="44.77955" lon="-0.12922">
        <ele>64.7</ele>
        <time>2022-10-06T09:15:55Z</time>
      </trkpt>
      <trkpt lat="44.77955" lon="-0.12922">
        <ele>64.7</ele>
        <time>2022-10-06T09:15:56Z</time>
      </trkpt>
      <trkpt lat="44.77955" lon="-0.12922">
        <ele>64.7</ele>
        <time>2022-10-06T09:15:58Z</time>
      </trkpt>
      <trkpt lat="44.77955" lon="-0.12922">
        <ele>64.7</ele>
        <time>2022-10-06T09:15:59Z</time>
      </trkpt>
      <trkpt lat="44.77956" lon="-0.12922">
        <ele>64.6</ele>
        <time>2022-10-06T09:16:00Z</time>
      </trkpt>
      <trkpt lat="44.77956" lon="-0.12923">
        <ele>64.5</ele>
        <time>2022-10-06T09:16:01Z</time>
      </trkpt>
      <trkpt lat="44.77956" lon="-0.12923">
        <ele>64.5</ele>
        <time>2022-10-06T09:16:02Z</time>
      </trkpt>
      <trkpt lat="44.77956" lon="-0.12923">
        <ele>64.5</ele>
        <time>2022-10-06T09:16:03Z</time>
      </trkpt>
      <trkpt lat="44.77956" lon="-0.12923">
        <ele>64.5</ele>
        <time>2022-10-06T09:16:04Z</time>
      </trkpt>
      <trkpt lat="44.77956" lon="-0.12923">
        <ele>64.5</ele>
        <time>2022-10-06T09:16:05Z</time>
      </trkpt>
      <trkpt lat="44.77955" lon="-0.12922">
        <ele>64.4</ele>
        <time>2022-10-06T09:16:06Z</time>
      </trkpt>
      <trkpt lat="44.77954" lon="-0.12921">
        <ele>64.3</ele>
        <time>2022-10-06T09:16:08Z</time>
      </trkpt>
      <trkpt lat="44.77953" lon="-0.12921">
        <ele>64.2</ele>
        <time>2022-10-06T09:16:09Z</time>
      </trkpt>
      <trkpt lat="44.77952" lon="-0.1292">
        <ele>64</ele>
        <time>2022-10-06T09:16:10Z</time>
      </trkpt>
      <trkpt lat="44.77949" lon="-0.12919">
        <ele>63.8</ele>
        <time>2022-10-06T09:16:12Z</time>
      </trkpt>
      <trkpt lat="44.77948" lon="-0.12919">
        <ele>63.7</ele>
        <time>2022-10-06T09:16:14Z</time>
      </trkpt>
      <trkpt lat="44.77947" lon="-0.12919">
        <ele>63.6</ele>
        <time>2022-10-06T09:16:15Z</time>
      </trkpt>
      <trkpt lat="44.77944" lon="-0.1292">
        <ele>63.3</ele>
        <time>2022-10-06T09:16:17Z</time>
      </trkpt>
      <trkpt lat="44.77943" lon="-0.12921">
        <ele>63.2</ele>
        <time>2022-10-06T09:16:18Z</time>
      </trkpt>
      <trkpt lat="44.77942" lon="-0.12921">
        <ele>63</ele>
        <time>2022-10-06T09:16:20Z</time>
      </trkpt>
      <trkpt lat="44.77941" lon="-0.1292">
        <ele>63</ele>
        <time>2022-10-06T09:16:21Z</time>
      </trkpt>
      <trkpt lat="44.77939" lon="-0.12919">
        <ele>62.8</ele>
        <time>2022-10-06T09:16:22Z</time>
      </trkpt>
      <trkpt lat="44.77938" lon="-0.12919">
        <ele>62.7</ele>
        <time>2022-10-06T09:16:23Z</time>
      </trkpt>
      <trkpt lat="44.77937" lon="-0.12919">
        <ele>62.6</ele>
        <time>2022-10-06T09:16:24Z</time>
      </trkpt>
      <trkpt lat="44.77937" lon="-0.12918">
        <ele>62.5</ele>
        <time>2022-10-06T09:16:25Z</time>
      </trkpt>
      <trkpt lat="44.77937" lon="-0.12918">
        <ele>62.5</ele>
        <time>2022-10-06T09:16:26Z</time>
      </trkpt>
      <trkpt lat="44.77937" lon="-0.12918">
        <ele>62.5</ele>
        <time>2022-10-06T09:16:27Z</time>
      </trkpt>
      <trkpt lat="44.77937" lon="-0.12917">
        <ele>62.4</ele>
        <time>2022-10-06T09:16:28Z</time>
      </trkpt>
      <trkpt lat="44.77937" lon="-0.12917">
        <ele>62.4</ele>
        <time>2022-10-06T09:16:29Z</time>
      </trkpt>
      <trkpt lat="44.77937" lon="-0.12917">
        <ele>62.4</ele>
        <time>2022-10-06T09:16:31Z</time>
      </trkpt>
      <trkpt lat="44.77938" lon="-0.12916">
        <ele>62.3</ele>
        <time>2022-10-06T09:16:32Z</time>
      </trkpt>
      <trkpt lat="44.77938" lon="-0.12916">
        <ele>62.3</ele>
        <time>2022-10-06T09:16:33Z</time>
      </trkpt>
      <trkpt lat="44.77938" lon="-0.12916">
        <ele>62.3</ele>
        <time>2022-10-06T09:16:34Z</time>
      </trkpt>
      <trkpt lat="44.77938" lon="-0.12915">
        <ele>62.2</ele>
        <time>2022-10-06T09:16:35Z</time>
      </trkpt>
      <trkpt lat="44.77939" lon="-0.12915">
        <ele>62.2</ele>
        <time>2022-10-06T09:16:36Z</time>
      </trkpt>
      <trkpt lat="44.77939" lon="-0.12914">
        <ele>62.1</ele>
        <time>2022-10-06T09:16:38Z</time>
      </trkpt>
      <trkpt lat="44.77939" lon="-0.12913">
        <ele>62.1</ele>
        <time>2022-10-06T09:16:39Z</time>
      </trkpt>
      <trkpt lat="44.77938" lon="-0.12912">
        <ele>62</ele>
        <time>2022-10-06T09:16:40Z</time>
      </trkpt>
      <trkpt lat="44.77938" lon="-0.12912">
        <ele>61.9</ele>
        <time>2022-10-06T09:16:41Z</time>
      </trkpt>
      <trkpt lat="44.77938" lon="-0.12911">
        <ele>61.9</ele>
        <time>2022-10-06T09:16:42Z</time>
      </trkpt>
      <trkpt lat="44.77938" lon="-0.12911">
        <ele>61.9</ele>
        <time>2022-10-06T09:16:43Z</time>
      </trkpt>
      <trkpt lat="44.77938" lon="-0.12912">
        <ele>61.9</ele>
        <time>2022-10-06T09:16:44Z</time>
      </trkpt>
      <trkpt lat="44.77938" lon="-0.12912">
        <ele>61.8</ele>
        <time>2022-10-06T09:16:45Z</time>
      </trkpt>
      <trkpt lat="44.77938" lon="-0.12912">
        <ele>61.8</ele>
        <time>2022-10-06T09:16:46Z</time>
      </trkpt>
      <trkpt lat="44.77938" lon="-0.12912">
        <ele>61.8</ele>
        <time>2022-10-06T09:16:47Z</time>
      </trkpt>
      <trkpt lat="44.77938" lon="-0.12912">
        <ele>61.8</ele>
        <time>2022-10-06T09:16:49Z</time>
      </trkpt>
      <trkpt lat="44.77938" lon="-0.12912">
        <ele>61.8</ele>
        <time>2022-10-06T09:16:50Z</time>
      </trkpt>
      <trkpt lat="44.77938" lon="-0.12912">
        <ele>61.8</ele>
        <time>2022-10-06T09:16:51Z</time>
      </trkpt>
      <trkpt lat="44.77938" lon="-0.12912">
        <ele>61.8</ele>
        <time>2022-10-06T09:16:52Z</time>
      </trkpt>
      <trkpt lat="44.77938" lon="-0.12912">
        <ele>61.8</ele>
        <time>2022-10-06T09:16:53Z</time>
      </trkpt>
      <trkpt lat="44.77938" lon="-0.12912">
        <ele>61.8</ele>
        <time>2022-10-06T09:16:54Z</time>
      </trkpt>
      <trkpt lat="44.77938" lon="-0.12912">
        <ele>61.8</ele>
        <time>2022-10-06T09:16:55Z</time>
      </trkpt>
      <trkpt lat="44.77938" lon="-0.12912">
        <ele>61.8</ele>
        <time>2022-10-06T09:16:57Z</time>
      </trkpt>
      <trkpt lat="44.77938" lon="-0.12912">
        <ele>61.8</ele>
        <time>2022-10-06T09:16:59Z</time>
      </trkpt>
      <trkpt lat="44.77938" lon="-0.12912">
        <ele>61.8</ele>
        <time>2022-10-06T09:17:00Z</time>
      </trkpt>
      <trkpt lat="44.77938" lon="-0.12912">
        <ele>61.8</ele>
        <time>2022-10-06T09:17:02Z</time>
      </trkpt>
      <trkpt lat="44.77938" lon="-0.12912">
        <ele>61.8</ele>
        <time>2022-10-06T09:17:03Z</time>
      </trkpt>
      <trkpt lat="44.77938" lon="-0.12912">
        <ele>61.8</ele>
        <time>2022-10-06T09:17:05Z</time>
      </trkpt>
      <trkpt lat="44.77938" lon="-0.12912">
        <ele>61.8</ele>
        <time>2022-10-06T09:17:07Z</time>
      </trkpt>
      <trkpt lat="44.77938" lon="-0.12912">
        <ele>61.7</ele>
        <time>2022-10-06T09:17:08Z</time>
      </trkpt>
      <trkpt lat="44.77938" lon="-0.12912">
        <ele>61.7</ele>
        <time>2022-10-06T09:17:09Z</time>
      </trkpt>
      <trkpt lat="44.77938" lon="-0.12912">
        <ele>61.7</ele>
        <time>2022-10-06T09:17:10Z</time>
      </trkpt>
      <trkpt lat="44.77938" lon="-0.12912">
        <ele>61.7</ele>
        <time>2022-10-06T09:17:11Z</time>
      </trkpt>
      <trkpt lat="44.77938" lon="-0.12912">
        <ele>61.7</ele>
        <time>2022-10-06T09:17:13Z</time>
      </trkpt>
      <trkpt lat="44.77938" lon="-0.12912">
        <ele>61.7</ele>
        <time>2022-10-06T09:17:14Z</time>
      </trkpt>
      <trkpt lat="44.77938" lon="-0.12912">
        <ele>61.7</ele>
        <time>2022-10-06T09:17:15Z</time>
      </trkpt>
      <trkpt lat="44.77938" lon="-0.12912">
        <ele>61.7</ele>
        <time>2022-10-06T09:17:16Z</time>
      </trkpt>
      <trkpt lat="44.77938" lon="-0.12912">
        <ele>61.7</ele>
        <time>2022-10-06T09:17:18Z</time>
      </trkpt>
      <trkpt lat="44.77938" lon="-0.12912">
        <ele>61.7</ele>
        <time>2022-10-06T09:17:20Z</time>
      </trkpt>
      <trkpt lat="44.77938" lon="-0.12912">
        <ele>61.7</ele>
        <time>2022-10-06T09:17:21Z</time>
      </trkpt>
      <trkpt lat="44.77938" lon="-0.12912">
        <ele>61.7</ele>
        <time>2022-10-06T09:17:22Z</time>
      </trkpt>
      <trkpt lat="44.77938" lon="-0.12912">
        <ele>61.7</ele>
        <time>2022-10-06T09:17:24Z</time>
      </trkpt>
      <trkpt lat="44.77938" lon="-0.12912">
        <ele>61.7</ele>
        <time>2022-10-06T09:17:25Z</time>
      </trkpt>
      <trkpt lat="44.77938" lon="-0.12912">
        <ele>61.7</ele>
        <time>2022-10-06T09:17:26Z</time>
      </trkpt>
      <trkpt lat="44.77938" lon="-0.12912">
        <ele>61.7</ele>
        <time>2022-10-06T09:17:28Z</time>
      </trkpt>
      <trkpt lat="44.77938" lon="-0.12912">
        <ele>61.7</ele>
        <time>2022-10-06T09:17:29Z</time>
      </trkpt>
      <trkpt lat="44.77938" lon="-0.12912">
        <ele>61.7</ele>
        <time>2022-10-06T09:17:31Z</time>
      </trkpt>
      <trkpt lat="44.77938" lon="-0.12912">
        <ele>61.7</ele>
        <time>2022-10-06T09:17:32Z</time>
      </trkpt>
      <trkpt lat="44.77938" lon="-0.12912">
        <ele>61.7</ele>
        <time>2022-10-06T09:17:34Z</time>
      </trkpt>
      <trkpt lat="44.77937" lon="-0.12912">
        <ele>61.6</ele>
        <time>2022-10-06T09:17:35Z</time>
      </trkpt>
      <trkpt lat="44.77937" lon="-0.12912">
        <ele>61.6</ele>
        <time>2022-10-06T09:17:36Z</time>
      </trkpt>
      <trkpt lat="44.77937" lon="-0.12911">
        <ele>61.5</ele>
        <time>2022-10-06T09:17:37Z</time>
      </trkpt>
      <trkpt lat="44.77936" lon="-0.12909">
        <ele>61.4</ele>
        <time>2022-10-06T09:17:38Z</time>
      </trkpt>
      <trkpt lat="44.77936" lon="-0.12908">
        <ele>61.3</ele>
        <time>2022-10-06T09:17:40Z</time>
      </trkpt>
      <trkpt lat="44.77936" lon="-0.12908">
        <ele>61.3</ele>
        <time>2022-10-06T09:17:41Z</time>
      </trkpt>
      <trkpt lat="44.77935" lon="-0.12907">
        <ele>61.2</ele>
        <time>2022-10-06T09:17:42Z</time>
      </trkpt>
      <trkpt lat="44.77935" lon="-0.12906">
        <ele>61.1</ele>
        <time>2022-10-06T09:17:43Z</time>
      </trkpt>
      <trkpt lat="44.77934" lon="-0.12905">
        <ele>61</ele>
        <time>2022-10-06T09:17:44Z</time>
      </trkpt>
      <trkpt lat="44.77933" lon="-0.12903">
        <ele>60.8</ele>
        <time>2022-10-06T09:17:45Z</time>
      </trkpt>
      <trkpt lat="44.77932" lon="-0.12902">
        <ele>60.8</ele>
        <time>2022-10-06T09:17:46Z</time>
      </trkpt>
      <trkpt lat="44.77931" lon="-0.129">
        <ele>60.6</ele>
        <time>2022-10-06T09:17:47Z</time>
      </trkpt>
      <trkpt lat="44.7793" lon="-0.12899">
        <ele>60.5</ele>
        <time>2022-10-06T09:17:49Z</time>
      </trkpt>
      <trkpt lat="44.77928" lon="-0.12898">
        <ele>60.3</ele>
        <time>2022-10-06T09:17:51Z</time>
      </trkpt>
      <trkpt lat="44.77927" lon="-0.12897">
        <ele>60.2</ele>
        <time>2022-10-06T09:17:53Z</time>
      </trkpt>
      <trkpt lat="44.77926" lon="-0.12896">
        <ele>60</ele>
        <time>2022-10-06T09:17:54Z</time>
      </trkpt>
      <trkpt lat="44.77925" lon="-0.12896">
        <ele>59.9</ele>
        <time>2022-10-06T09:17:55Z</time>
      </trkpt>
      <trkpt lat="44.77924" lon="-0.12895">
        <ele>59.6</ele>
        <time>2022-10-06T09:17:56Z</time>
      </trkpt>
      <trkpt lat="44.77923" lon="-0.12895">
        <ele>59.6</ele>
        <time>2022-10-06T09:17:58Z</time>
      </trkpt>
      <trkpt lat="44.77924" lon="-0.12895">
        <ele>59.6</ele>
        <time>2022-10-06T09:17:59Z</time>
      </trkpt>
      <trkpt lat="44.77924" lon="-0.12895">
        <ele>59.5</ele>
        <time>2022-10-06T09:18:00Z</time>
      </trkpt>
      <trkpt lat="44.77924" lon="-0.12895">
        <ele>59.5</ele>
        <time>2022-10-06T09:18:01Z</time>
      </trkpt>
      <trkpt lat="44.77924" lon="-0.12895">
        <ele>59.5</ele>
        <time>2022-10-06T09:18:02Z</time>
      </trkpt>
      <trkpt lat="44.77924" lon="-0.12895">
        <ele>59.5</ele>
        <time>2022-10-06T09:18:03Z</time>
      </trkpt>
      <trkpt lat="44.77924" lon="-0.12895">
        <ele>59.5</ele>
        <time>2022-10-06T09:18:04Z</time>
      </trkpt>
      <trkpt lat="44.77924" lon="-0.12895">
        <ele>59.5</ele>
        <time>2022-10-06T09:18:05Z</time>
      </trkpt>
      <trkpt lat="44.77924" lon="-0.12895">
        <ele>59.5</ele>
        <time>2022-10-06T09:18:06Z</time>
      </trkpt>
      <trkpt lat="44.77923" lon="-0.12895">
        <ele>59.4</ele>
        <time>2022-10-06T09:18:08Z</time>
      </trkpt>
      <trkpt lat="44.77923" lon="-0.12895">
        <ele>59.3</ele>
        <time>2022-10-06T09:18:09Z</time>
      </trkpt>
      <trkpt lat="44.77921" lon="-0.12896">
        <ele>59.1</ele>
        <time>2022-10-06T09:18:10Z</time>
      </trkpt>
      <trkpt lat="44.7792" lon="-0.12896">
        <ele>58.9</ele>
        <time>2022-10-06T09:18:11Z</time>
      </trkpt>
      <trkpt lat="44.77919" lon="-0.12897">
        <ele>58.8</ele>
        <time>2022-10-06T09:18:13Z</time>
      </trkpt>
      <trkpt lat="44.77918" lon="-0.12898">
        <ele>58.6</ele>
        <time>2022-10-06T09:18:14Z</time>
      </trkpt>
      <trkpt lat="44.77917" lon="-0.129">
        <ele>58.4</ele>
        <time>2022-10-06T09:18:15Z</time>
      </trkpt>
      <trkpt lat="44.77916" lon="-0.129">
        <ele>58.3</ele>
        <time>2022-10-06T09:18:16Z</time>
      </trkpt>
      <trkpt lat="44.77914" lon="-0.12901">
        <ele>58</ele>
        <time>2022-10-06T09:18:18Z</time>
      </trkpt>
      <trkpt lat="44.77914" lon="-0.12901">
        <ele>58</ele>
        <time>2022-10-06T09:18:19Z</time>
      </trkpt>
      <trkpt lat="44.77913" lon="-0.12901">
        <ele>57.8</ele>
        <time>2022-10-06T09:18:20Z</time>
      </trkpt>
      <trkpt lat="44.77912" lon="-0.12902">
        <ele>57.7</ele>
        <time>2022-10-06T09:18:21Z</time>
      </trkpt>
      <trkpt lat="44.77909" lon="-0.12902">
        <ele>57.3</ele>
        <time>2022-10-06T09:18:22Z</time>
      </trkpt>
      <trkpt lat="44.77908" lon="-0.12902">
        <ele>57.2</ele>
        <time>2022-10-06T09:18:24Z</time>
      </trkpt>
      <trkpt lat="44.77907" lon="-0.12903">
        <ele>57.1</ele>
        <time>2022-10-06T09:18:25Z</time>
      </trkpt>
      <trkpt lat="44.77906" lon="-0.12903">
        <ele>56.8</ele>
        <time>2022-10-06T09:18:26Z</time>
      </trkpt>
      <trkpt lat="44.77904" lon="-0.12903">
        <ele>56.6</ele>
        <time>2022-10-06T09:18:27Z</time>
      </trkpt>
      <trkpt lat="44.77904" lon="-0.12904">
        <ele>56.5</ele>
        <time>2022-10-06T09:18:28Z</time>
      </trkpt>
      <trkpt lat="44.77903" lon="-0.12904">
        <ele>56.4</ele>
        <time>2022-10-06T09:18:29Z</time>
      </trkpt>
      <trkpt lat="44.77901" lon="-0.12904">
        <ele>56.1</ele>
        <time>2022-10-06T09:18:31Z</time>
      </trkpt>
      <trkpt lat="44.77899" lon="-0.12904">
        <ele>55.8</ele>
        <time>2022-10-06T09:18:33Z</time>
      </trkpt>
      <trkpt lat="44.77898" lon="-0.12903">
        <ele>55.7</ele>
        <time>2022-10-06T09:18:34Z</time>
      </trkpt>
      <trkpt lat="44.77898" lon="-0.12903">
        <ele>55.5</ele>
        <time>2022-10-06T09:18:35Z</time>
      </trkpt>
      <trkpt lat="44.77897" lon="-0.12902">
        <ele>55.4</ele>
        <time>2022-10-06T09:18:36Z</time>
      </trkpt>
      <trkpt lat="44.77896" lon="-0.12899">
        <ele>55.1</ele>
        <time>2022-10-06T09:18:38Z</time>
      </trkpt>
      <trkpt lat="44.77896" lon="-0.12899">
        <ele>54.9</ele>
        <time>2022-10-06T09:18:39Z</time>
      </trkpt>
      <trkpt lat="44.77894" lon="-0.12897">
        <ele>54.8</ele>
        <time>2022-10-06T09:18:41Z</time>
      </trkpt>
      <trkpt lat="44.77894" lon="-0.12896">
        <ele>54.7</ele>
        <time>2022-10-06T09:18:43Z</time>
      </trkpt>
      <trkpt lat="44.77893" lon="-0.12894">
        <ele>54.6</ele>
        <time>2022-10-06T09:18:44Z</time>
      </trkpt>
      <trkpt lat="44.77893" lon="-0.12893">
        <ele>54.6</ele>
        <time>2022-10-06T09:18:45Z</time>
      </trkpt>
      <trkpt lat="44.77892" lon="-0.12891">
        <ele>54.5</ele>
        <time>2022-10-06T09:18:46Z</time>
      </trkpt>
      <trkpt lat="44.77891" lon="-0.12889">
        <ele>54.3</ele>
        <time>2022-10-06T09:18:48Z</time>
      </trkpt>
      <trkpt lat="44.7789" lon="-0.12888">
        <ele>54.3</ele>
        <time>2022-10-06T09:18:49Z</time>
      </trkpt>
      <trkpt lat="44.77889" lon="-0.12887">
        <ele>54.3</ele>
        <time>2022-10-06T09:18:50Z</time>
      </trkpt>
      <trkpt lat="44.77889" lon="-0.12886">
        <ele>54.2</ele>
        <time>2022-10-06T09:18:51Z</time>
      </trkpt>
      <trkpt lat="44.77888" lon="-0.12885">
        <ele>54.1</ele>
        <time>2022-10-06T09:18:52Z</time>
      </trkpt>
      <trkpt lat="44.77887" lon="-0.12884">
        <ele>54.1</ele>
        <time>2022-10-06T09:18:53Z</time>
      </trkpt>
      <trkpt lat="44.77886" lon="-0.12882">
        <ele>54</ele>
        <time>2022-10-06T09:18:54Z</time>
      </trkpt>
      <trkpt lat="44.77886" lon="-0.12881">
        <ele>54</ele>
        <time>2022-10-06T09:18:55Z</time>
      </trkpt>
      <trkpt lat="44.77884" lon="-0.12879">
        <ele>53.9</ele>
        <time>2022-10-06T09:18:56Z</time>
      </trkpt>
      <trkpt lat="44.77883" lon="-0.12877">
        <ele>53.8</ele>
        <time>2022-10-06T09:18:57Z</time>
      </trkpt>
      <trkpt lat="44.77882" lon="-0.12875">
        <ele>53.7</ele>
        <time>2022-10-06T09:18:58Z</time>
      </trkpt>
      <trkpt lat="44.77882" lon="-0.12874">
        <ele>53.7</ele>
        <time>2022-10-06T09:19:00Z</time>
      </trkpt>
      <trkpt lat="44.77881" lon="-0.12873">
        <ele>53.7</ele>
        <time>2022-10-06T09:19:01Z</time>
      </trkpt>
      <trkpt lat="44.7788" lon="-0.12871">
        <ele>53.6</ele>
        <time>2022-10-06T09:19:02Z</time>
      </trkpt>
      <trkpt lat="44.7788" lon="-0.1287">
        <ele>53.6</ele>
        <time>2022-10-06T09:19:03Z</time>
      </trkpt>
      <trkpt lat="44.77879" lon="-0.12869">
        <ele>53.5</ele>
        <time>2022-10-06T09:19:04Z</time>
      </trkpt>
      <trkpt lat="44.77878" lon="-0.12866">
        <ele>53.5</ele>
        <time>2022-10-06T09:19:05Z</time>
      </trkpt>
      <trkpt lat="44.77876" lon="-0.12864">
        <ele>53.4</ele>
        <time>2022-10-06T09:19:07Z</time>
      </trkpt>
      <trkpt lat="44.77875" lon="-0.12862">
        <ele>53.3</ele>
        <time>2022-10-06T09:19:09Z</time>
      </trkpt>
      <trkpt lat="44.77874" lon="-0.12858">
        <ele>53.3</ele>
        <time>2022-10-06T09:19:10Z</time>
      </trkpt>
      <trkpt lat="44.77873" lon="-0.12856">
        <ele>53.2</ele>
        <time>2022-10-06T09:19:12Z</time>
      </trkpt>
      <trkpt lat="44.77872" lon="-0.12854">
        <ele>53.2</ele>
        <time>2022-10-06T09:19:14Z</time>
      </trkpt>
      <trkpt lat="44.77871" lon="-0.12853">
        <ele>53.2</ele>
        <time>2022-10-06T09:19:15Z</time>
      </trkpt>
      <trkpt lat="44.77871" lon="-0.1285">
        <ele>53.1</ele>
        <time>2022-10-06T09:19:16Z</time>
      </trkpt>
      <trkpt lat="44.7787" lon="-0.12849">
        <ele>53.1</ele>
        <time>2022-10-06T09:19:17Z</time>
      </trkpt>
      <trkpt lat="44.77869" lon="-0.12847">
        <ele>53.1</ele>
        <time>2022-10-06T09:19:19Z</time>
      </trkpt>
      <trkpt lat="44.77869" lon="-0.12846">
        <ele>53.1</ele>
        <time>2022-10-06T09:19:20Z</time>
      </trkpt>
      <trkpt lat="44.77869" lon="-0.12846">
        <ele>53.1</ele>
        <time>2022-10-06T09:19:21Z</time>
      </trkpt>
      <trkpt lat="44.7787" lon="-0.12846">
        <ele>53.1</ele>
        <time>2022-10-06T09:19:22Z</time>
      </trkpt>
      <trkpt lat="44.7787" lon="-0.12846">
        <ele>53.1</ele>
        <time>2022-10-06T09:19:23Z</time>
      </trkpt>
      <trkpt lat="44.7787" lon="-0.12846">
        <ele>53.1</ele>
        <time>2022-10-06T09:19:24Z</time>
      </trkpt>
      <trkpt lat="44.7787" lon="-0.12846">
        <ele>53.1</ele>
        <time>2022-10-06T09:19:25Z</time>
      </trkpt>
      <trkpt lat="44.7787" lon="-0.12846">
        <ele>53.1</ele>
        <time>2022-10-06T09:19:26Z</time>
      </trkpt>
      <trkpt lat="44.77869" lon="-0.12844">
        <ele>53.1</ele>
        <time>2022-10-06T09:19:27Z</time>
      </trkpt>
      <trkpt lat="44.77869" lon="-0.12843">
        <ele>53.1</ele>
        <time>2022-10-06T09:19:29Z</time>
      </trkpt>
      <trkpt lat="44.77868" lon="-0.12841">
        <ele>53.1</ele>
        <time>2022-10-06T09:19:30Z</time>
      </trkpt>
      <trkpt lat="44.77866" lon="-0.12838">
        <ele>53.1</ele>
        <time>2022-10-06T09:19:31Z</time>
      </trkpt>
      <trkpt lat="44.77866" lon="-0.12837">
        <ele>53.1</ele>
        <time>2022-10-06T09:19:33Z</time>
      </trkpt>
      <trkpt lat="44.77866" lon="-0.12836">
        <ele>53.1</ele>
        <time>2022-10-06T09:19:34Z</time>
      </trkpt>
      <trkpt lat="44.77865" lon="-0.12834">
        <ele>53.2</ele>
        <time>2022-10-06T09:19:35Z</time>
      </trkpt>
      <trkpt lat="44.77865" lon="-0.12831">
        <ele>53.2</ele>
        <time>2022-10-06T09:19:36Z</time>
      </trkpt>
      <trkpt lat="44.77864" lon="-0.12829">
        <ele>53.2</ele>
        <time>2022-10-06T09:19:37Z</time>
      </trkpt>
      <trkpt lat="44.77863" lon="-0.12826">
        <ele>53.3</ele>
        <time>2022-10-06T09:19:39Z</time>
      </trkpt>
      <trkpt lat="44.77863" lon="-0.12824">
        <ele>53.4</ele>
        <time>2022-10-06T09:19:40Z</time>
      </trkpt>
      <trkpt lat="44.77862" lon="-0.12823">
        <ele>53.4</ele>
        <time>2022-10-06T09:19:41Z</time>
      </trkpt>
      <trkpt lat="44.77862" lon="-0.12821">
        <ele>53.5</ele>
        <time>2022-10-06T09:19:42Z</time>
      </trkpt>
      <trkpt lat="44.77861" lon="-0.1282">
        <ele>53.5</ele>
        <time>2022-10-06T09:19:44Z</time>
      </trkpt>
      <trkpt lat="44.77861" lon="-0.12817">
        <ele>53.6</ele>
        <time>2022-10-06T09:19:45Z</time>
      </trkpt>
      <trkpt lat="44.77861" lon="-0.12813">
        <ele>53.8</ele>
        <time>2022-10-06T09:19:47Z</time>
      </trkpt>
      <trkpt lat="44.77861" lon="-0.1281">
        <ele>53.9</ele>
        <time>2022-10-06T09:19:49Z</time>
      </trkpt>
      <trkpt lat="44.77861" lon="-0.12805">
        <ele>54.1</ele>
        <time>2022-10-06T09:19:51Z</time>
      </trkpt>
      <trkpt lat="44.77861" lon="-0.12804">
        <ele>54.1</ele>
        <time>2022-10-06T09:19:52Z</time>
      </trkpt>
      <trkpt lat="44.77861" lon="-0.12802">
        <ele>54.2</ele>
        <time>2022-10-06T09:19:53Z</time>
      </trkpt>
      <trkpt lat="44.77861" lon="-0.12801">
        <ele>54.3</ele>
        <time>2022-10-06T09:19:54Z</time>
      </trkpt>
      <trkpt lat="44.77861" lon="-0.12798">
        <ele>54.4</ele>
        <time>2022-10-06T09:19:56Z</time>
      </trkpt>
      <trkpt lat="44.77861" lon="-0.12796">
        <ele>54.5</ele>
        <time>2022-10-06T09:19:57Z</time>
      </trkpt>
      <trkpt lat="44.77862" lon="-0.12794">
        <ele>54.6</ele>
        <time>2022-10-06T09:19:59Z</time>
      </trkpt>
      <trkpt lat="44.77862" lon="-0.12793">
        <ele>54.7</ele>
        <time>2022-10-06T09:20:00Z</time>
      </trkpt>
      <trkpt lat="44.77863" lon="-0.1279">
        <ele>54.9</ele>
        <time>2022-10-06T09:20:01Z</time>
      </trkpt>
      <trkpt lat="44.77863" lon="-0.12788">
        <ele>55</ele>
        <time>2022-10-06T09:20:03Z</time>
      </trkpt>
      <trkpt lat="44.77864" lon="-0.12784">
        <ele>55.2</ele>
        <time>2022-10-06T09:20:04Z</time>
      </trkpt>
      <trkpt lat="44.77864" lon="-0.12782">
        <ele>55.3</ele>
        <time>2022-10-06T09:20:06Z</time>
      </trkpt>
      <trkpt lat="44.77864" lon="-0.1278">
        <ele>55.4</ele>
        <time>2022-10-06T09:20:07Z</time>
      </trkpt>
      <trkpt lat="44.77865" lon="-0.12777">
        <ele>55.6</ele>
        <time>2022-10-06T09:20:09Z</time>
      </trkpt>
      <trkpt lat="44.77866" lon="-0.12775">
        <ele>55.8</ele>
        <time>2022-10-06T09:20:11Z</time>
      </trkpt>
      <trkpt lat="44.77867" lon="-0.12774">
        <ele>55.8</ele>
        <time>2022-10-06T09:20:12Z</time>
      </trkpt>
      <trkpt lat="44.77868" lon="-0.12773">
        <ele>55.9</ele>
        <time>2022-10-06T09:20:14Z</time>
      </trkpt>
      <trkpt lat="44.77868" lon="-0.12773">
        <ele>56</ele>
        <time>2022-10-06T09:20:15Z</time>
      </trkpt>
      <trkpt lat="44.7787" lon="-0.12771">
        <ele>56.1</ele>
        <time>2022-10-06T09:20:16Z</time>
      </trkpt>
      <trkpt lat="44.7787" lon="-0.1277">
        <ele>56.2</ele>
        <time>2022-10-06T09:20:17Z</time>
      </trkpt>
      <trkpt lat="44.77871" lon="-0.12768">
        <ele>56.3</ele>
        <time>2022-10-06T09:20:19Z</time>
      </trkpt>
      <trkpt lat="44.77872" lon="-0.12768">
        <ele>56.3</ele>
        <time>2022-10-06T09:20:20Z</time>
      </trkpt>
      <trkpt lat="44.77873" lon="-0.12767">
        <ele>56.5</ele>
        <time>2022-10-06T09:20:21Z</time>
      </trkpt>
      <trkpt lat="44.77874" lon="-0.12767">
        <ele>56.5</ele>
        <time>2022-10-06T09:20:23Z</time>
      </trkpt>
      <trkpt lat="44.77875" lon="-0.12766">
        <ele>56.6</ele>
        <time>2022-10-06T09:20:24Z</time>
      </trkpt>
      <trkpt lat="44.77877" lon="-0.12764">
        <ele>56.8</ele>
        <time>2022-10-06T09:20:25Z</time>
      </trkpt>
      <trkpt lat="44.77878" lon="-0.12762">
        <ele>56.9</ele>
        <time>2022-10-06T09:20:27Z</time>
      </trkpt>
      <trkpt lat="44.77879" lon="-0.12761">
        <ele>57</ele>
        <time>2022-10-06T09:20:29Z</time>
      </trkpt>
      <trkpt lat="44.77881" lon="-0.12759">
        <ele>57.2</ele>
        <time>2022-10-06T09:20:30Z</time>
      </trkpt>
      <trkpt lat="44.77881" lon="-0.12757">
        <ele>57.3</ele>
        <time>2022-10-06T09:20:31Z</time>
      </trkpt>
      <trkpt lat="44.77882" lon="-0.12756">
        <ele>57.4</ele>
        <time>2022-10-06T09:20:33Z</time>
      </trkpt>
      <trkpt lat="44.77883" lon="-0.12754">
        <ele>57.4</ele>
        <time>2022-10-06T09:20:34Z</time>
      </trkpt>
      <trkpt lat="44.77884" lon="-0.12752">
        <ele>57.6</ele>
        <time>2022-10-06T09:20:35Z</time>
      </trkpt>
      <trkpt lat="44.77884" lon="-0.12751">
        <ele>57.6</ele>
        <time>2022-10-06T09:20:37Z</time>
      </trkpt>
      <trkpt lat="44.77884" lon="-0.12751">
        <ele>57.7</ele>
        <time>2022-10-06T09:20:39Z</time>
      </trkpt>
      <trkpt lat="44.77884" lon="-0.12751">
        <ele>57.7</ele>
        <time>2022-10-06T09:20:40Z</time>
      </trkpt>
      <trkpt lat="44.77884" lon="-0.12751">
        <ele>57.7</ele>
        <time>2022-10-06T09:20:41Z</time>
      </trkpt>
      <trkpt lat="44.77884" lon="-0.12751">
        <ele>57.7</ele>
        <time>2022-10-06T09:20:43Z</time>
      </trkpt>
      <trkpt lat="44.77884" lon="-0.12751">
        <ele>57.7</ele>
        <time>2022-10-06T09:20:44Z</time>
      </trkpt>
      <trkpt lat="44.77884" lon="-0.12751">
        <ele>57.7</ele>
        <time>2022-10-06T09:20:45Z</time>
      </trkpt>
      <trkpt lat="44.77885" lon="-0.1275">
        <ele>57.8</ele>
        <time>2022-10-06T09:20:46Z</time>
      </trkpt>
      <trkpt lat="44.77885" lon="-0.12749">
        <ele>57.8</ele>
        <time>2022-10-06T09:20:47Z</time>
      </trkpt>
      <trkpt lat="44.77887" lon="-0.12747">
        <ele>58</ele>
        <time>2022-10-06T09:20:49Z</time>
      </trkpt>
      <trkpt lat="44.77887" lon="-0.12747">
        <ele>58</ele>
        <time>2022-10-06T09:20:50Z</time>
      </trkpt>
      <trkpt lat="44.77888" lon="-0.12745">
        <ele>58.1</ele>
        <time>2022-10-06T09:20:51Z</time>
      </trkpt>
      <trkpt lat="44.77888" lon="-0.12744">
        <ele>58.1</ele>
        <time>2022-10-06T09:20:52Z</time>
      </trkpt>
      <trkpt lat="44.77889" lon="-0.12743">
        <ele>58.2</ele>
        <time>2022-10-06T09:20:54Z</time>
      </trkpt>
      <trkpt lat="44.7789" lon="-0.12742">
        <ele>58.3</ele>
        <time>2022-10-06T09:20:55Z</time>
      </trkpt>
      <trkpt lat="44.77891" lon="-0.12741">
        <ele>58.4</ele>
        <time>2022-10-06T09:20:56Z</time>
      </trkpt>
      <trkpt lat="44.77891" lon="-0.1274">
        <ele>58.5</ele>
        <time>2022-10-06T09:20:57Z</time>
      </trkpt>
      <trkpt lat="44.77892" lon="-0.12739">
        <ele>58.5</ele>
        <time>2022-10-06T09:20:58Z</time>
      </trkpt>
      <trkpt lat="44.77893" lon="-0.12737">
        <ele>58.7</ele>
        <time>2022-10-06T09:20:59Z</time>
      </trkpt>
      <trkpt lat="44.77894" lon="-0.12736">
        <ele>58.8</ele>
        <time>2022-10-06T09:21:00Z</time>
      </trkpt>
      <trkpt lat="44.77895" lon="-0.12735">
        <ele>58.8</ele>
        <time>2022-10-06T09:21:01Z</time>
      </trkpt>
      <trkpt lat="44.77897" lon="-0.12733">
        <ele>59</ele>
        <time>2022-10-06T09:21:02Z</time>
      </trkpt>
      <trkpt lat="44.77898" lon="-0.12732">
        <ele>59.1</ele>
        <time>2022-10-06T09:21:04Z</time>
      </trkpt>
      <trkpt lat="44.77899" lon="-0.12732">
        <ele>59.2</ele>
        <time>2022-10-06T09:21:05Z</time>
      </trkpt>
      <trkpt lat="44.779" lon="-0.12731">
        <ele>59.2</ele>
        <time>2022-10-06T09:21:06Z</time>
      </trkpt>
      <trkpt lat="44.77902" lon="-0.12729">
        <ele>59.4</ele>
        <time>2022-10-06T09:21:07Z</time>
      </trkpt>
      <trkpt lat="44.77905" lon="-0.12728">
        <ele>59.6</ele>
        <time>2022-10-06T09:21:09Z</time>
      </trkpt>
      <trkpt lat="44.77905" lon="-0.12727">
        <ele>59.7</ele>
        <time>2022-10-06T09:21:10Z</time>
      </trkpt>
      <trkpt lat="44.77906" lon="-0.12726">
        <ele>59.7</ele>
        <time>2022-10-06T09:21:11Z</time>
      </trkpt>
      <trkpt lat="44.77907" lon="-0.12725">
        <ele>59.8</ele>
        <time>2022-10-06T09:21:12Z</time>
      </trkpt>
      <trkpt lat="44.77909" lon="-0.12723">
        <ele>60</ele>
        <time>2022-10-06T09:21:14Z</time>
      </trkpt>
      <trkpt lat="44.77911" lon="-0.12721">
        <ele>60.1</ele>
        <time>2022-10-06T09:21:16Z</time>
      </trkpt>
      <trkpt lat="44.77912" lon="-0.1272">
        <ele>60.2</ele>
        <time>2022-10-06T09:21:17Z</time>
      </trkpt>
      <trkpt lat="44.77913" lon="-0.12719">
        <ele>60.3</ele>
        <time>2022-10-06T09:21:19Z</time>
      </trkpt>
      <trkpt lat="44.77914" lon="-0.12718">
        <ele>60.4</ele>
        <time>2022-10-06T09:21:20Z</time>
      </trkpt>
      <trkpt lat="44.77915" lon="-0.12717">
        <ele>60.5</ele>
        <time>2022-10-06T09:21:21Z</time>
      </trkpt>
      <trkpt lat="44.77917" lon="-0.12715">
        <ele>60.6</ele>
        <time>2022-10-06T09:21:22Z</time>
      </trkpt>
      <trkpt lat="44.77918" lon="-0.12713">
        <ele>60.7</ele>
        <time>2022-10-06T09:21:24Z</time>
      </trkpt>
      <trkpt lat="44.7792" lon="-0.12711">
        <ele>60.9</ele>
        <time>2022-10-06T09:21:25Z</time>
      </trkpt>
      <trkpt lat="44.77921" lon="-0.12709">
        <ele>60.9</ele>
        <time>2022-10-06T09:21:27Z</time>
      </trkpt>
      <trkpt lat="44.77922" lon="-0.12707">
        <ele>61.1</ele>
        <time>2022-10-06T09:21:29Z</time>
      </trkpt>
      <trkpt lat="44.77923" lon="-0.12706">
        <ele>61.1</ele>
        <time>2022-10-06T09:21:30Z</time>
      </trkpt>
      <trkpt lat="44.77924" lon="-0.12705">
        <ele>61.5</ele>
        <time>2022-10-06T09:21:31Z</time>
      </trkpt>
      <trkpt lat="44.77925" lon="-0.12704">
        <ele>61.5</ele>
        <time>2022-10-06T09:21:33Z</time>
      </trkpt>
      <trkpt lat="44.77925" lon="-0.12704">
        <ele>61.5</ele>
        <time>2022-10-06T09:21:34Z</time>
      </trkpt>
      <trkpt lat="44.77924" lon="-0.12704">
        <ele>61.5</ele>
        <time>2022-10-06T09:21:35Z</time>
      </trkpt>
      <trkpt lat="44.77924" lon="-0.12704">
        <ele>61.6</ele>
        <time>2022-10-06T09:21:36Z</time>
      </trkpt>
      <trkpt lat="44.77923" lon="-0.12703">
        <ele>61.7</ele>
        <time>2022-10-06T09:21:37Z</time>
      </trkpt>
      <trkpt lat="44.77922" lon="-0.12702">
        <ele>61.7</ele>
        <time>2022-10-06T09:21:38Z</time>
      </trkpt>
      <trkpt lat="44.77921" lon="-0.12702">
        <ele>61.9</ele>
        <time>2022-10-06T09:21:39Z</time>
      </trkpt>
      <trkpt lat="44.7792" lon="-0.12702">
        <ele>61.9</ele>
        <time>2022-10-06T09:21:40Z</time>
      </trkpt>
      <trkpt lat="44.77919" lon="-0.12701">
        <ele>62</ele>
        <time>2022-10-06T09:21:41Z</time>
      </trkpt>
      <trkpt lat="44.77917" lon="-0.127">
        <ele>62.2</ele>
        <time>2022-10-06T09:21:42Z</time>
      </trkpt>
      <trkpt lat="44.77915" lon="-0.12699">
        <ele>62.3</ele>
        <time>2022-10-06T09:21:44Z</time>
      </trkpt>
      <trkpt lat="44.77915" lon="-0.12699">
        <ele>62.4</ele>
        <time>2022-10-06T09:21:45Z</time>
      </trkpt>
      <trkpt lat="44.77914" lon="-0.12699">
        <ele>62.5</ele>
        <time>2022-10-06T09:21:46Z</time>
      </trkpt>
      <trkpt lat="44.77911" lon="-0.127">
        <ele>62.7</ele>
        <time>2022-10-06T09:21:47Z</time>
      </trkpt>
      <trkpt lat="44.77909" lon="-0.12699">
        <ele>62.8</ele>
        <time>2022-10-06T09:21:48Z</time>
      </trkpt>
      <trkpt lat="44.77908" lon="-0.127">
        <ele>62.9</ele>
        <time>2022-10-06T09:21:50Z</time>
      </trkpt>
      <trkpt lat="44.77907" lon="-0.127">
        <ele>63</ele>
        <time>2022-10-06T09:21:51Z</time>
      </trkpt>
      <trkpt lat="44.77905" lon="-0.12701">
        <ele>63.2</ele>
        <time>2022-10-06T09:21:52Z</time>
      </trkpt>
      <trkpt lat="44.77903" lon="-0.12702">
        <ele>63.3</ele>
        <time>2022-10-06T09:21:53Z</time>
      </trkpt>
      <trkpt lat="44.77902" lon="-0.12702">
        <ele>63.5</ele>
        <time>2022-10-06T09:21:55Z</time>
      </trkpt>
      <trkpt lat="44.77901" lon="-0.12702">
        <ele>63.5</ele>
        <time>2022-10-06T09:21:56Z</time>
      </trkpt>
      <trkpt lat="44.779" lon="-0.12702">
        <ele>63.6</ele>
        <time>2022-10-06T09:21:57Z</time>
      </trkpt>
      <trkpt lat="44.77898" lon="-0.12704">
        <ele>63.8</ele>
        <time>2022-10-06T09:21:59Z</time>
      </trkpt>
      <trkpt lat="44.77897" lon="-0.12705">
        <ele>63.9</ele>
        <time>2022-10-06T09:22:00Z</time>
      </trkpt>
      <trkpt lat="44.77897" lon="-0.12706">
        <ele>63.9</ele>
        <time>2022-10-06T09:22:01Z</time>
      </trkpt>
      <trkpt lat="44.77895" lon="-0.12707">
        <ele>64</ele>
        <time>2022-10-06T09:22:02Z</time>
      </trkpt>
      <trkpt lat="44.77895" lon="-0.12707">
        <ele>64.1</ele>
        <time>2022-10-06T09:22:04Z</time>
      </trkpt>
      <trkpt lat="44.77895" lon="-0.12707">
        <ele>64.1</ele>
        <time>2022-10-06T09:22:05Z</time>
      </trkpt>
      <trkpt lat="44.77895" lon="-0.12707">
        <ele>64.1</ele>
        <time>2022-10-06T09:22:06Z</time>
      </trkpt>
      <trkpt lat="44.77895" lon="-0.12707">
        <ele>64.1</ele>
        <time>2022-10-06T09:22:07Z</time>
      </trkpt>
      <trkpt lat="44.77895" lon="-0.12707">
        <ele>64.1</ele>
        <time>2022-10-06T09:22:09Z</time>
      </trkpt>
      <trkpt lat="44.77895" lon="-0.12707">
        <ele>64.1</ele>
        <time>2022-10-06T09:22:10Z</time>
      </trkpt>
      <trkpt lat="44.77895" lon="-0.12707">
        <ele>64.1</ele>
        <time>2022-10-06T09:22:11Z</time>
      </trkpt>
      <trkpt lat="44.77895" lon="-0.12707">
        <ele>64.1</ele>
        <time>2022-10-06T09:22:12Z</time>
      </trkpt>
      <trkpt lat="44.77893" lon="-0.12706">
        <ele>64.2</ele>
        <time>2022-10-06T09:22:14Z</time>
      </trkpt>
      <trkpt lat="44.77892" lon="-0.12706">
        <ele>64.3</ele>
        <time>2022-10-06T09:22:16Z</time>
      </trkpt>
      <trkpt lat="44.77889" lon="-0.12706">
        <ele>64.5</ele>
        <time>2022-10-06T09:22:17Z</time>
      </trkpt>
      <trkpt lat="44.77887" lon="-0.12706">
        <ele>64.6</ele>
        <time>2022-10-06T09:22:19Z</time>
      </trkpt>
      <trkpt lat="44.77885" lon="-0.12705">
        <ele>64.7</ele>
        <time>2022-10-06T09:22:20Z</time>
      </trkpt>
      <trkpt lat="44.77884" lon="-0.12704">
        <ele>64.8</ele>
        <time>2022-10-06T09:22:21Z</time>
      </trkpt>
      <trkpt lat="44.77883" lon="-0.12704">
        <ele>64.9</ele>
        <time>2022-10-06T09:22:22Z</time>
      </trkpt>
      <trkpt lat="44.77881" lon="-0.12703">
        <ele>65</ele>
        <time>2022-10-06T09:22:24Z</time>
      </trkpt>
      <trkpt lat="44.7788" lon="-0.12703">
        <ele>65</ele>
        <time>2022-10-06T09:22:25Z</time>
      </trkpt>
      <trkpt lat="44.77879" lon="-0.12703">
        <ele>65.1</ele>
        <time>2022-10-06T09:22:26Z</time>
      </trkpt>
      <trkpt lat="44.77877" lon="-0.12703">
        <ele>65.2</ele>
        <time>2022-10-06T09:22:27Z</time>
      </trkpt>
      <trkpt lat="44.77874" lon="-0.12702">
        <ele>65.4</ele>
        <time>2022-10-06T09:22:28Z</time>
      </trkpt>
      <trkpt lat="44.77873" lon="-0.12702">
        <ele>65.5</ele>
        <time>2022-10-06T09:22:30Z</time>
      </trkpt>
      <trkpt lat="44.7787" lon="-0.12702">
        <ele>65.6</ele>
        <time>2022-10-06T09:22:32Z</time>
      </trkpt>
      <trkpt lat="44.77868" lon="-0.12701">
        <ele>65.5</ele>
        <time>2022-10-06T09:22:33Z</time>
      </trkpt>
      <trkpt lat="44.77865" lon="-0.127">
        <ele>65.5</ele>
        <time>2022-10-06T09:22:35Z</time>
      </trkpt>
      <trkpt lat="44.77864" lon="-0.127">
        <ele>65.4</ele>
        <time>2022-10-06T09:22:37Z</time>
      </trkpt>
      <trkpt lat="44.77862" lon="-0.127">
        <ele>65.2</ele>
        <time>2022-10-06T09:22:39Z</time>
      </trkpt>
      <trkpt lat="44.77861" lon="-0.12699">
        <ele>65.1</ele>
        <time>2022-10-06T09:22:40Z</time>
      </trkpt>
      <trkpt lat="44.77858" lon="-0.12699">
        <ele>64.9</ele>
        <time>2022-10-06T09:22:42Z</time>
      </trkpt>
      <trkpt lat="44.77857" lon="-0.12699">
        <ele>64.8</ele>
        <time>2022-10-06T09:22:44Z</time>
      </trkpt>
      <trkpt lat="44.77856" lon="-0.12698">
        <ele>64.7</ele>
        <time>2022-10-06T09:22:45Z</time>
      </trkpt>
      <trkpt lat="44.77855" lon="-0.12698">
        <ele>64.6</ele>
        <time>2022-10-06T09:22:46Z</time>
      </trkpt>
      <trkpt lat="44.77852" lon="-0.12698">
        <ele>64.4</ele>
        <time>2022-10-06T09:22:47Z</time>
      </trkpt>
      <trkpt lat="44.77851" lon="-0.12698">
        <ele>64.3</ele>
        <time>2022-10-06T09:22:48Z</time>
      </trkpt>
      <trkpt lat="44.7785" lon="-0.12697">
        <ele>64.2</ele>
        <time>2022-10-06T09:22:50Z</time>
      </trkpt>
      <trkpt lat="44.77849" lon="-0.12697">
        <ele>64.1</ele>
        <time>2022-10-06T09:22:51Z</time>
      </trkpt>
      <trkpt lat="44.77848" lon="-0.12696">
        <ele>64</ele>
        <time>2022-10-06T09:22:52Z</time>
      </trkpt>
      <trkpt lat="44.77847" lon="-0.12695">
        <ele>63.9</ele>
        <time>2022-10-06T09:22:53Z</time>
      </trkpt>
      <trkpt lat="44.77845" lon="-0.12695">
        <ele>63.8</ele>
        <time>2022-10-06T09:22:54Z</time>
      </trkpt>
      <trkpt lat="44.77844" lon="-0.12695">
        <ele>63.6</ele>
        <time>2022-10-06T09:22:55Z</time>
      </trkpt>
      <trkpt lat="44.77843" lon="-0.12694">
        <ele>63.5</ele>
        <time>2022-10-06T09:22:56Z</time>
      </trkpt>
      <trkpt lat="44.77841" lon="-0.12692">
        <ele>63.3</ele>
        <time>2022-10-06T09:22:57Z</time>
      </trkpt>
      <trkpt lat="44.77839" lon="-0.12689">
        <ele>63.1</ele>
        <time>2022-10-06T09:22:58Z</time>
      </trkpt>
      <trkpt lat="44.77839" lon="-0.12687">
        <ele>62.8</ele>
        <time>2022-10-06T09:23:00Z</time>
      </trkpt>
      <trkpt lat="44.77838" lon="-0.12686">
        <ele>62.8</ele>
        <time>2022-10-06T09:23:01Z</time>
      </trkpt>
      <trkpt lat="44.77837" lon="-0.12684">
        <ele>62.8</ele>
        <time>2022-10-06T09:23:02Z</time>
      </trkpt>
      <trkpt lat="44.77837" lon="-0.12682">
        <ele>62.8</ele>
        <time>2022-10-06T09:23:03Z</time>
      </trkpt>
      <trkpt lat="44.77835" lon="-0.12679">
        <ele>62.8</ele>
        <time>2022-10-06T09:23:05Z</time>
      </trkpt>
      <trkpt lat="44.77835" lon="-0.12678">
        <ele>62.8</ele>
        <time>2022-10-06T09:23:06Z</time>
      </trkpt>
      <trkpt lat="44.77834" lon="-0.12676">
        <ele>62.8</ele>
        <time>2022-10-06T09:23:07Z</time>
      </trkpt>
      <trkpt lat="44.77833" lon="-0.12675">
        <ele>62.8</ele>
        <time>2022-10-06T09:23:08Z</time>
      </trkpt>
      <trkpt lat="44.77832" lon="-0.12672">
        <ele>62.8</ele>
        <time>2022-10-06T09:23:10Z</time>
      </trkpt>
      <trkpt lat="44.77832" lon="-0.12671">
        <ele>62.8</ele>
        <time>2022-10-06T09:23:11Z</time>
      </trkpt>
      <trkpt lat="44.7783" lon="-0.12669">
        <ele>62.9</ele>
        <time>2022-10-06T09:23:12Z</time>
      </trkpt>
      <trkpt lat="44.77829" lon="-0.12668">
        <ele>63</ele>
        <time>2022-10-06T09:23:13Z</time>
      </trkpt>
      <trkpt lat="44.77828" lon="-0.12666">
        <ele>63.1</ele>
        <time>2022-10-06T09:23:15Z</time>
      </trkpt>
      <trkpt lat="44.77827" lon="-0.12664">
        <ele>63.2</ele>
        <time>2022-10-06T09:23:16Z</time>
      </trkpt>
      <trkpt lat="44.77827" lon="-0.12662">
        <ele>63.3</ele>
        <time>2022-10-06T09:23:18Z</time>
      </trkpt>
      <trkpt lat="44.77826" lon="-0.12661">
        <ele>63.4</ele>
        <time>2022-10-06T09:23:19Z</time>
      </trkpt>
      <trkpt lat="44.77825" lon="-0.12658">
        <ele>63.5</ele>
        <time>2022-10-06T09:23:20Z</time>
      </trkpt>
      <trkpt lat="44.77825" lon="-0.12656">
        <ele>63.6</ele>
        <time>2022-10-06T09:23:21Z</time>
      </trkpt>
      <trkpt lat="44.77824" lon="-0.12655">
        <ele>63.7</ele>
        <time>2022-10-06T09:23:22Z</time>
      </trkpt>
      <trkpt lat="44.77823" lon="-0.12651">
        <ele>63.9</ele>
        <time>2022-10-06T09:23:24Z</time>
      </trkpt>
      <trkpt lat="44.77823" lon="-0.1265">
        <ele>63.9</ele>
        <time>2022-10-06T09:23:26Z</time>
      </trkpt>
      <trkpt lat="44.77821" lon="-0.12648">
        <ele>64.1</ele>
        <time>2022-10-06T09:23:27Z</time>
      </trkpt>
      <trkpt lat="44.77821" lon="-0.12646">
        <ele>64.2</ele>
        <time>2022-10-06T09:23:28Z</time>
      </trkpt>
      <trkpt lat="44.77819" lon="-0.12644">
        <ele>64.3</ele>
        <time>2022-10-06T09:23:30Z</time>
      </trkpt>
      <trkpt lat="44.77818" lon="-0.12642">
        <ele>64.5</ele>
        <time>2022-10-06T09:23:31Z</time>
      </trkpt>
      <trkpt lat="44.77817" lon="-0.12641">
        <ele>64.6</ele>
        <time>2022-10-06T09:23:32Z</time>
      </trkpt>
      <trkpt lat="44.77817" lon="-0.12639">
        <ele>64.6</ele>
        <time>2022-10-06T09:23:33Z</time>
      </trkpt>
      <trkpt lat="44.77816" lon="-0.12636">
        <ele>64.8</ele>
        <time>2022-10-06T09:23:35Z</time>
      </trkpt>
      <trkpt lat="44.77815" lon="-0.12633">
        <ele>65</ele>
        <time>2022-10-06T09:23:37Z</time>
      </trkpt>
      <trkpt lat="44.77815" lon="-0.12632">
        <ele>65.1</ele>
        <time>2022-10-06T09:23:38Z</time>
      </trkpt>
      <trkpt lat="44.77814" lon="-0.1263">
        <ele>65.2</ele>
        <time>2022-10-06T09:23:40Z</time>
      </trkpt>
      <trkpt lat="44.77814" lon="-0.12629">
        <ele>65.3</ele>
        <time>2022-10-06T09:23:41Z</time>
      </trkpt>
      <trkpt lat="44.77813" lon="-0.12626">
        <ele>65.5</ele>
        <time>2022-10-06T09:23:42Z</time>
      </trkpt>
      <trkpt lat="44.77812" lon="-0.12624">
        <ele>65.6</ele>
        <time>2022-10-06T09:23:43Z</time>
      </trkpt>
      <trkpt lat="44.77811" lon="-0.12622">
        <ele>65.7</ele>
        <time>2022-10-06T09:23:45Z</time>
      </trkpt>
      <trkpt lat="44.77811" lon="-0.12621">
        <ele>65.7</ele>
        <time>2022-10-06T09:23:46Z</time>
      </trkpt>
      <trkpt lat="44.77811" lon="-0.12618">
        <ele>65.8</ele>
        <time>2022-10-06T09:23:47Z</time>
      </trkpt>
      <trkpt lat="44.77809" lon="-0.12614">
        <ele>65.9</ele>
        <time>2022-10-06T09:23:49Z</time>
      </trkpt>
      <trkpt lat="44.77809" lon="-0.12613">
        <ele>65.9</ele>
        <time>2022-10-06T09:23:51Z</time>
      </trkpt>
      <trkpt lat="44.77809" lon="-0.12612">
        <ele>65.9</ele>
        <time>2022-10-06T09:23:52Z</time>
      </trkpt>
      <trkpt lat="44.77808" lon="-0.1261">
        <ele>65.9</ele>
        <time>2022-10-06T09:23:53Z</time>
      </trkpt>
      <trkpt lat="44.77808" lon="-0.12609">
        <ele>65.9</ele>
        <time>2022-10-06T09:23:54Z</time>
      </trkpt>
      <trkpt lat="44.77807" lon="-0.12605">
        <ele>66</ele>
        <time>2022-10-06T09:23:55Z</time>
      </trkpt>
      <trkpt lat="44.77806" lon="-0.12602">
        <ele>66.1</ele>
        <time>2022-10-06T09:23:57Z</time>
      </trkpt>
      <trkpt lat="44.77806" lon="-0.12601">
        <ele>66.1</ele>
        <time>2022-10-06T09:23:58Z</time>
      </trkpt>
      <trkpt lat="44.77805" lon="-0.12598">
        <ele>66.1</ele>
        <time>2022-10-06T09:24:00Z</time>
      </trkpt>
      <trkpt lat="44.77805" lon="-0.12597">
        <ele>66.1</ele>
        <time>2022-10-06T09:24:01Z</time>
      </trkpt>
      <trkpt lat="44.77803" lon="-0.12593">
        <ele>66.2</ele>
        <time>2022-10-06T09:24:02Z</time>
      </trkpt>
      <trkpt lat="44.77803" lon="-0.12592">
        <ele>66.2</ele>
        <time>2022-10-06T09:24:03Z</time>
      </trkpt>
      <trkpt lat="44.77802" lon="-0.1259">
        <ele>66.3</ele>
        <time>2022-10-06T09:24:05Z</time>
      </trkpt>
      <trkpt lat="44.77801" lon="-0.12589">
        <ele>66.3</ele>
        <time>2022-10-06T09:24:06Z</time>
      </trkpt>
      <trkpt lat="44.77799" lon="-0.12586">
        <ele>66.4</ele>
        <time>2022-10-06T09:24:07Z</time>
      </trkpt>
      <trkpt lat="44.77799" lon="-0.12585">
        <ele>66.4</ele>
        <time>2022-10-06T09:24:08Z</time>
      </trkpt>
      <trkpt lat="44.77798" lon="-0.12581">
        <ele>66.5</ele>
        <time>2022-10-06T09:24:10Z</time>
      </trkpt>
      <trkpt lat="44.77797" lon="-0.1258">
        <ele>66.5</ele>
        <time>2022-10-06T09:24:11Z</time>
      </trkpt>
      <trkpt lat="44.77797" lon="-0.12579">
        <ele>66.5</ele>
        <time>2022-10-06T09:24:12Z</time>
      </trkpt>
      <trkpt lat="44.77796" lon="-0.12577">
        <ele>66.6</ele>
        <time>2022-10-06T09:24:13Z</time>
      </trkpt>
      <trkpt lat="44.77795" lon="-0.12575">
        <ele>66.6</ele>
        <time>2022-10-06T09:24:15Z</time>
      </trkpt>
      <trkpt lat="44.77794" lon="-0.12572">
        <ele>66.7</ele>
        <time>2022-10-06T09:24:16Z</time>
      </trkpt>
      <trkpt lat="44.77793" lon="-0.1257">
        <ele>66.7</ele>
        <time>2022-10-06T09:24:17Z</time>
      </trkpt>
      <trkpt lat="44.77793" lon="-0.12568">
        <ele>66.7</ele>
        <time>2022-10-06T09:24:18Z</time>
      </trkpt>
      <trkpt lat="44.77792" lon="-0.12565">
        <ele>66.8</ele>
        <time>2022-10-06T09:24:20Z</time>
      </trkpt>
      <trkpt lat="44.77791" lon="-0.12564">
        <ele>66.9</ele>
        <time>2022-10-06T09:24:21Z</time>
      </trkpt>
      <trkpt lat="44.7779" lon="-0.12562">
        <ele>66.9</ele>
        <time>2022-10-06T09:24:22Z</time>
      </trkpt>
      <trkpt lat="44.7779" lon="-0.12561">
        <ele>66.9</ele>
        <time>2022-10-06T09:24:24Z</time>
      </trkpt>
      <trkpt lat="44.77789" lon="-0.12559">
        <ele>67</ele>
        <time>2022-10-06T09:24:25Z</time>
      </trkpt>
      <trkpt lat="44.77789" lon="-0.12558">
        <ele>67</ele>
        <time>2022-10-06T09:24:26Z</time>
      </trkpt>
      <trkpt lat="44.77787" lon="-0.12555">
        <ele>67.1</ele>
        <time>2022-10-06T09:24:27Z</time>
      </trkpt>
      <trkpt lat="44.77786" lon="-0.12554">
        <ele>67.1</ele>
        <time>2022-10-06T09:24:28Z</time>
      </trkpt>
      <trkpt lat="44.77785" lon="-0.12551">
        <ele>67.2</ele>
        <time>2022-10-06T09:24:29Z</time>
      </trkpt>
      <trkpt lat="44.77785" lon="-0.12551">
        <ele>67.2</ele>
        <time>2022-10-06T09:24:31Z</time>
      </trkpt>
      <trkpt lat="44.77783" lon="-0.12548">
        <ele>67.2</ele>
        <time>2022-10-06T09:24:32Z</time>
      </trkpt>
      <trkpt lat="44.77783" lon="-0.12546">
        <ele>67.3</ele>
        <time>2022-10-06T09:24:34Z</time>
      </trkpt>
      <trkpt lat="44.77782" lon="-0.12543">
        <ele>67.3</ele>
        <time>2022-10-06T09:24:35Z</time>
      </trkpt>
      <trkpt lat="44.77781" lon="-0.12541">
        <ele>67.4</ele>
        <time>2022-10-06T09:24:37Z</time>
      </trkpt>
      <trkpt lat="44.7778" lon="-0.12539">
        <ele>67.4</ele>
        <time>2022-10-06T09:24:38Z</time>
      </trkpt>
      <trkpt lat="44.7778" lon="-0.12537">
        <ele>67.5</ele>
        <time>2022-10-06T09:24:40Z</time>
      </trkpt>
      <trkpt lat="44.7778" lon="-0.12534">
        <ele>67.5</ele>
        <time>2022-10-06T09:24:41Z</time>
      </trkpt>
      <trkpt lat="44.7778" lon="-0.12533">
        <ele>67.6</ele>
        <time>2022-10-06T09:24:42Z</time>
      </trkpt>
      <trkpt lat="44.7778" lon="-0.12533">
        <ele>67.6</ele>
        <time>2022-10-06T09:24:43Z</time>
      </trkpt>
      <trkpt lat="44.7778" lon="-0.12532">
        <ele>67.6</ele>
        <time>2022-10-06T09:24:45Z</time>
      </trkpt>
      <trkpt lat="44.7778" lon="-0.12532">
        <ele>67.6</ele>
        <time>2022-10-06T09:24:46Z</time>
      </trkpt>
      <trkpt lat="44.7778" lon="-0.12532">
        <ele>67.6</ele>
        <time>2022-10-06T09:24:47Z</time>
      </trkpt>
      <trkpt lat="44.7778" lon="-0.12532">
        <ele>67.6</ele>
        <time>2022-10-06T09:24:48Z</time>
      </trkpt>
      <trkpt lat="44.7778" lon="-0.12532">
        <ele>67.6</ele>
        <time>2022-10-06T09:24:50Z</time>
      </trkpt>
      <trkpt lat="44.7778" lon="-0.12532">
        <ele>67.6</ele>
        <time>2022-10-06T09:24:51Z</time>
      </trkpt>
      <trkpt lat="44.7778" lon="-0.12532">
        <ele>67.6</ele>
        <time>2022-10-06T09:24:52Z</time>
      </trkpt>
      <trkpt lat="44.7778" lon="-0.12532">
        <ele>67.6</ele>
        <time>2022-10-06T09:24:53Z</time>
      </trkpt>
      <trkpt lat="44.7778" lon="-0.12532">
        <ele>67.6</ele>
        <time>2022-10-06T09:24:54Z</time>
      </trkpt>
      <trkpt lat="44.7778" lon="-0.12532">
        <ele>67.6</ele>
        <time>2022-10-06T09:24:56Z</time>
      </trkpt>
      <trkpt lat="44.7778" lon="-0.12532">
        <ele>67.6</ele>
        <time>2022-10-06T09:24:57Z</time>
      </trkpt>
      <trkpt lat="44.7778" lon="-0.12532">
        <ele>67.6</ele>
        <time>2022-10-06T09:24:58Z</time>
      </trkpt>
      <trkpt lat="44.7778" lon="-0.12532">
        <ele>67.6</ele>
        <time>2022-10-06T09:25:00Z</time>
      </trkpt>
      <trkpt lat="44.7778" lon="-0.12532">
        <ele>67.6</ele>
        <time>2022-10-06T09:25:01Z</time>
      </trkpt>
      <trkpt lat="44.7778" lon="-0.12532">
        <ele>67.6</ele>
        <time>2022-10-06T09:25:02Z</time>
      </trkpt>
      <trkpt lat="44.7778" lon="-0.12532">
        <ele>67.6</ele>
        <time>2022-10-06T09:25:03Z</time>
      </trkpt>
      <trkpt lat="44.7778" lon="-0.12532">
        <ele>67.6</ele>
        <time>2022-10-06T09:25:05Z</time>
      </trkpt>
      <trkpt lat="44.7778" lon="-0.12532">
        <ele>67.6</ele>
        <time>2022-10-06T09:25:07Z</time>
      </trkpt>
      <trkpt lat="44.7778" lon="-0.12532">
        <ele>67.6</ele>
        <time>2022-10-06T09:25:08Z</time>
      </trkpt>
      <trkpt lat="44.7778" lon="-0.12532">
        <ele>67.6</ele>
        <time>2022-10-06T09:25:10Z</time>
      </trkpt>
      <trkpt lat="44.7778" lon="-0.12532">
        <ele>67.6</ele>
        <time>2022-10-06T09:25:11Z</time>
      </trkpt>
      <trkpt lat="44.7778" lon="-0.12532">
        <ele>67.6</ele>
        <time>2022-10-06T09:25:12Z</time>
      </trkpt>
      <trkpt lat="44.7778" lon="-0.12533">
        <ele>67.6</ele>
        <time>2022-10-06T09:25:13Z</time>
      </trkpt>
      <trkpt lat="44.7778" lon="-0.12533">
        <ele>67.6</ele>
        <time>2022-10-06T09:25:15Z</time>
      </trkpt>
      <trkpt lat="44.7778" lon="-0.12533">
        <ele>67.6</ele>
        <time>2022-10-06T09:25:16Z</time>
      </trkpt>
      <trkpt lat="44.7778" lon="-0.12533">
        <ele>67.6</ele>
        <time>2022-10-06T09:25:18Z</time>
      </trkpt>
      <trkpt lat="44.7778" lon="-0.12533">
        <ele>67.6</ele>
        <time>2022-10-06T09:25:20Z</time>
      </trkpt>
      <trkpt lat="44.7778" lon="-0.12533">
        <ele>67.7</ele>
        <time>2022-10-06T09:25:21Z</time>
      </trkpt>
      <trkpt lat="44.7778" lon="-0.12533">
        <ele>67.7</ele>
        <time>2022-10-06T09:25:22Z</time>
      </trkpt>
      <trkpt lat="44.7778" lon="-0.12533">
        <ele>67.7</ele>
        <time>2022-10-06T09:25:23Z</time>
      </trkpt>
      <trkpt lat="44.7778" lon="-0.12533">
        <ele>67.7</ele>
        <time>2022-10-06T09:25:24Z</time>
      </trkpt>
      <trkpt lat="44.7778" lon="-0.12533">
        <ele>67.7</ele>
        <time>2022-10-06T09:25:26Z</time>
      </trkpt>
      <trkpt lat="44.7778" lon="-0.12533">
        <ele>67.7</ele>
        <time>2022-10-06T09:25:27Z</time>
      </trkpt>
      <trkpt lat="44.7778" lon="-0.12533">
        <ele>67.7</ele>
        <time>2022-10-06T09:25:28Z</time>
      </trkpt>
      <trkpt lat="44.7778" lon="-0.12533">
        <ele>67.7</ele>
        <time>2022-10-06T09:25:29Z</time>
      </trkpt>
      <trkpt lat="44.7778" lon="-0.12533">
        <ele>67.7</ele>
        <time>2022-10-06T09:25:31Z</time>
      </trkpt>
      <trkpt lat="44.7778" lon="-0.12533">
        <ele>67.7</ele>
        <time>2022-10-06T09:25:32Z</time>
      </trkpt>
      <trkpt lat="44.7778" lon="-0.12533">
        <ele>67.7</ele>
        <time>2022-10-06T09:25:33Z</time>
      </trkpt>
      <trkpt lat="44.7778" lon="-0.12533">
        <ele>67.7</ele>
        <time>2022-10-06T09:25:34Z</time>
      </trkpt>
      <trkpt lat="44.7778" lon="-0.12533">
        <ele>67.7</ele>
        <time>2022-10-06T09:25:36Z</time>
      </trkpt>
      <trkpt lat="44.7778" lon="-0.12533">
        <ele>67.7</ele>
        <time>2022-10-06T09:25:37Z</time>
      </trkpt>
      <trkpt lat="44.7778" lon="-0.12533">
        <ele>67.7</ele>
        <time>2022-10-06T09:25:38Z</time>
      </trkpt>
      <trkpt lat="44.7778" lon="-0.12533">
        <ele>67.7</ele>
        <time>2022-10-06T09:25:40Z</time>
      </trkpt>
      <trkpt lat="44.7778" lon="-0.12533">
        <ele>67.7</ele>
        <time>2022-10-06T09:25:41Z</time>
      </trkpt>
      <trkpt lat="44.7778" lon="-0.12533">
        <ele>67.7</ele>
        <time>2022-10-06T09:25:43Z</time>
      </trkpt>
      <trkpt lat="44.7778" lon="-0.12533">
        <ele>67.7</ele>
        <time>2022-10-06T09:25:44Z</time>
      </trkpt>
      <trkpt lat="44.77781" lon="-0.12532">
        <ele>67.7</ele>
        <time>2022-10-06T09:25:45Z</time>
      </trkpt>
      <trkpt lat="44.77782" lon="-0.12532">
        <ele>67.7</ele>
        <time>2022-10-06T09:25:46Z</time>
      </trkpt>
      <trkpt lat="44.77782" lon="-0.12529">
        <ele>67.8</ele>
        <time>2022-10-06T09:25:48Z</time>
      </trkpt>
      <trkpt lat="44.77784" lon="-0.12527">
        <ele>67.8</ele>
        <time>2022-10-06T09:25:49Z</time>
      </trkpt>
      <trkpt lat="44.77784" lon="-0.12526">
        <ele>67.8</ele>
        <time>2022-10-06T09:25:51Z</time>
      </trkpt>
      <trkpt lat="44.77785" lon="-0.12525">
        <ele>67.9</ele>
        <time>2022-10-06T09:25:52Z</time>
      </trkpt>
      <trkpt lat="44.77784" lon="-0.12522">
        <ele>67.9</ele>
        <time>2022-10-06T09:25:53Z</time>
      </trkpt>
      <trkpt lat="44.77783" lon="-0.12519">
        <ele>68</ele>
        <time>2022-10-06T09:25:55Z</time>
      </trkpt>
      <trkpt lat="44.77781" lon="-0.12517">
        <ele>68.1</ele>
        <time>2022-10-06T09:25:57Z</time>
      </trkpt>
      <trkpt lat="44.77779" lon="-0.12517">
        <ele>68.1</ele>
        <time>2022-10-06T09:25:58Z</time>
      </trkpt>
      <trkpt lat="44.77778" lon="-0.12517">
        <ele>68.1</ele>
        <time>2022-10-06T09:26:00Z</time>
      </trkpt>
      <trkpt lat="44.77777" lon="-0.12517">
        <ele>68.1</ele>
        <time>2022-10-06T09:26:01Z</time>
      </trkpt>
      <trkpt lat="44.77775" lon="-0.1252">
        <ele>68.1</ele>
        <time>2022-10-06T09:26:03Z</time>
      </trkpt>
      <trkpt lat="44.77773" lon="-0.12521">
        <ele>68.1</ele>
        <time>2022-10-06T09:26:05Z</time>
      </trkpt>
      <trkpt lat="44.77772" lon="-0.12521">
        <ele>68.2</ele>
        <time>2022-10-06T09:26:06Z</time>
      </trkpt>
      <trkpt lat="44.77771" lon="-0.12522">
        <ele>68.2</ele>
        <time>2022-10-06T09:26:08Z</time>
      </trkpt>
      <trkpt lat="44.7777" lon="-0.12522">
        <ele>68.2</ele>
        <time>2022-10-06T09:26:09Z</time>
      </trkpt>
      <trkpt lat="44.77769" lon="-0.12523">
        <ele>68.2</ele>
        <time>2022-10-06T09:26:10Z</time>
      </trkpt>
      <trkpt lat="44.77767" lon="-0.12521">
        <ele>68.2</ele>
        <time>2022-10-06T09:26:11Z</time>
      </trkpt>
      <trkpt lat="44.77766" lon="-0.12521">
        <ele>68.3</ele>
        <time>2022-10-06T09:26:13Z</time>
      </trkpt>
      <trkpt lat="44.77765" lon="-0.12519">
        <ele>68.3</ele>
        <time>2022-10-06T09:26:14Z</time>
      </trkpt>
      <trkpt lat="44.77764" lon="-0.12517">
        <ele>68.3</ele>
        <time>2022-10-06T09:26:15Z</time>
      </trkpt>
      <trkpt lat="44.77763" lon="-0.12516">
        <ele>68.3</ele>
        <time>2022-10-06T09:26:16Z</time>
      </trkpt>
      <trkpt lat="44.77762" lon="-0.12513">
        <ele>68.3</ele>
        <time>2022-10-06T09:26:17Z</time>
      </trkpt>
      <trkpt lat="44.77762" lon="-0.12511">
        <ele>68.4</ele>
        <time>2022-10-06T09:26:18Z</time>
      </trkpt>
      <trkpt lat="44.77762" lon="-0.12508">
        <ele>68.4</ele>
        <time>2022-10-06T09:26:20Z</time>
      </trkpt>
      <trkpt lat="44.77761" lon="-0.12507">
        <ele>68.4</ele>
        <time>2022-10-06T09:26:21Z</time>
      </trkpt>
      <trkpt lat="44.77761" lon="-0.12506">
        <ele>68.4</ele>
        <time>2022-10-06T09:26:22Z</time>
      </trkpt>
      <trkpt lat="44.7776" lon="-0.12503">
        <ele>68.5</ele>
        <time>2022-10-06T09:26:23Z</time>
      </trkpt>
      <trkpt lat="44.77759" lon="-0.125">
        <ele>68.5</ele>
        <time>2022-10-06T09:26:24Z</time>
      </trkpt>
      <trkpt lat="44.77759" lon="-0.12499">
        <ele>68.5</ele>
        <time>2022-10-06T09:26:25Z</time>
      </trkpt>
      <trkpt lat="44.77758" lon="-0.12496">
        <ele>68.6</ele>
        <time>2022-10-06T09:26:27Z</time>
      </trkpt>
      <trkpt lat="44.77757" lon="-0.12494">
        <ele>68.6</ele>
        <time>2022-10-06T09:26:28Z</time>
      </trkpt>
      <trkpt lat="44.77756" lon="-0.12492">
        <ele>68.7</ele>
        <time>2022-10-06T09:26:29Z</time>
      </trkpt>
      <trkpt lat="44.77756" lon="-0.12491">
        <ele>68.7</ele>
        <time>2022-10-06T09:26:31Z</time>
      </trkpt>
      <trkpt lat="44.77755" lon="-0.12489">
        <ele>68.7</ele>
        <time>2022-10-06T09:26:32Z</time>
      </trkpt>
      <trkpt lat="44.77755" lon="-0.12487">
        <ele>68.8</ele>
        <time>2022-10-06T09:26:33Z</time>
      </trkpt>
      <trkpt lat="44.77754" lon="-0.12486">
        <ele>68.8</ele>
        <time>2022-10-06T09:26:35Z</time>
      </trkpt>
      <trkpt lat="44.77753" lon="-0.12484">
        <ele>68.9</ele>
        <time>2022-10-06T09:26:36Z</time>
      </trkpt>
      <trkpt lat="44.77753" lon="-0.12482">
        <ele>68.9</ele>
        <time>2022-10-06T09:26:37Z</time>
      </trkpt>
      <trkpt lat="44.77751" lon="-0.12479">
        <ele>69</ele>
        <time>2022-10-06T09:26:38Z</time>
      </trkpt>
      <trkpt lat="44.77751" lon="-0.12478">
        <ele>69</ele>
        <time>2022-10-06T09:26:39Z</time>
      </trkpt>
      <trkpt lat="44.7775" lon="-0.12475">
        <ele>69.1</ele>
        <time>2022-10-06T09:26:41Z</time>
      </trkpt>
      <trkpt lat="44.77749" lon="-0.12473">
        <ele>69.2</ele>
        <time>2022-10-06T09:26:42Z</time>
      </trkpt>
      <trkpt lat="44.77749" lon="-0.12472">
        <ele>69.2</ele>
        <time>2022-10-06T09:26:43Z</time>
      </trkpt>
      <trkpt lat="44.77747" lon="-0.12469">
        <ele>69.4</ele>
        <time>2022-10-06T09:26:45Z</time>
      </trkpt>
      <trkpt lat="44.77746" lon="-0.12466">
        <ele>69.4</ele>
        <time>2022-10-06T09:26:47Z</time>
      </trkpt>
      <trkpt lat="44.77745" lon="-0.12465">
        <ele>69.5</ele>
        <time>2022-10-06T09:26:48Z</time>
      </trkpt>
      <trkpt lat="44.77744" lon="-0.12463">
        <ele>69.5</ele>
        <time>2022-10-06T09:26:49Z</time>
      </trkpt>
      <trkpt lat="44.77743" lon="-0.12462">
        <ele>69.5</ele>
        <time>2022-10-06T09:26:50Z</time>
      </trkpt>
      <trkpt lat="44.77743" lon="-0.12461">
        <ele>69.6</ele>
        <time>2022-10-06T09:26:52Z</time>
      </trkpt>
      <trkpt lat="44.77741" lon="-0.12458">
        <ele>69.6</ele>
        <time>2022-10-06T09:26:53Z</time>
      </trkpt>
      <trkpt lat="44.77739" lon="-0.12455">
        <ele>69.6</ele>
        <time>2022-10-06T09:26:54Z</time>
      </trkpt>
      <trkpt lat="44.77739" lon="-0.12453">
        <ele>69.7</ele>
        <time>2022-10-06T09:26:56Z</time>
      </trkpt>
      <trkpt lat="44.77738" lon="-0.12452">
        <ele>69.7</ele>
        <time>2022-10-06T09:26:57Z</time>
      </trkpt>
      <trkpt lat="44.77737" lon="-0.12451">
        <ele>69.7</ele>
        <time>2022-10-06T09:26:58Z</time>
      </trkpt>
      <trkpt lat="44.77736" lon="-0.12447">
        <ele>69.8</ele>
        <time>2022-10-06T09:27:00Z</time>
      </trkpt>
      <trkpt lat="44.77735" lon="-0.12446">
        <ele>69.8</ele>
        <time>2022-10-06T09:27:01Z</time>
      </trkpt>
      <trkpt lat="44.77734" lon="-0.12445">
        <ele>69.8</ele>
        <time>2022-10-06T09:27:02Z</time>
      </trkpt>
      <trkpt lat="44.77733" lon="-0.12444">
        <ele>69.8</ele>
        <time>2022-10-06T09:27:03Z</time>
      </trkpt>
      <trkpt lat="44.77733" lon="-0.12443">
        <ele>69.8</ele>
        <time>2022-10-06T09:27:05Z</time>
      </trkpt>
      <trkpt lat="44.77732" lon="-0.12441">
        <ele>69.8</ele>
        <time>2022-10-06T09:27:06Z</time>
      </trkpt>
      <trkpt lat="44.77731" lon="-0.1244">
        <ele>69.8</ele>
        <time>2022-10-06T09:27:07Z</time>
      </trkpt>
      <trkpt lat="44.7773" lon="-0.12438">
        <ele>69.9</ele>
        <time>2022-10-06T09:27:08Z</time>
      </trkpt>
      <trkpt lat="44.77729" lon="-0.12436">
        <ele>69.9</ele>
        <time>2022-10-06T09:27:09Z</time>
      </trkpt>
      <trkpt lat="44.77728" lon="-0.12434">
        <ele>69.9</ele>
        <time>2022-10-06T09:27:11Z</time>
      </trkpt>
      <trkpt lat="44.77727" lon="-0.12433">
        <ele>70</ele>
        <time>2022-10-06T09:27:12Z</time>
      </trkpt>
      <trkpt lat="44.77726" lon="-0.12431">
        <ele>70</ele>
        <time>2022-10-06T09:27:13Z</time>
      </trkpt>
      <trkpt lat="44.77726" lon="-0.1243">
        <ele>70</ele>
        <time>2022-10-06T09:27:14Z</time>
      </trkpt>
      <trkpt lat="44.77725" lon="-0.12428">
        <ele>70</ele>
        <time>2022-10-06T09:27:15Z</time>
      </trkpt>
      <trkpt lat="44.77725" lon="-0.12426">
        <ele>70.1</ele>
        <time>2022-10-06T09:27:16Z</time>
      </trkpt>
      <trkpt lat="44.77724" lon="-0.12423">
        <ele>70.1</ele>
        <time>2022-10-06T09:27:18Z</time>
      </trkpt>
      <trkpt lat="44.77724" lon="-0.12422">
        <ele>70.1</ele>
        <time>2022-10-06T09:27:19Z</time>
      </trkpt>
      <trkpt lat="44.77723" lon="-0.12418">
        <ele>70.2</ele>
        <time>2022-10-06T09:27:21Z</time>
      </trkpt>
      <trkpt lat="44.77721" lon="-0.12416">
        <ele>70.3</ele>
        <time>2022-10-06T09:27:23Z</time>
      </trkpt>
      <trkpt lat="44.7772" lon="-0.12414">
        <ele>70.3</ele>
        <time>2022-10-06T09:27:24Z</time>
      </trkpt>
      <trkpt lat="44.77719" lon="-0.12411">
        <ele>70.3</ele>
        <time>2022-10-06T09:27:26Z</time>
      </trkpt>
      <trkpt lat="44.77718" lon="-0.12409">
        <ele>70.4</ele>
        <time>2022-10-06T09:27:27Z</time>
      </trkpt>
      <trkpt lat="44.77717" lon="-0.12408">
        <ele>70.4</ele>
        <time>2022-10-06T09:27:28Z</time>
      </trkpt>
      <trkpt lat="44.77717" lon="-0.12408">
        <ele>70.4</ele>
        <time>2022-10-06T09:27:29Z</time>
      </trkpt>
      <trkpt lat="44.77715" lon="-0.12405">
        <ele>70.5</ele>
        <time>2022-10-06T09:27:31Z</time>
      </trkpt>
      <trkpt lat="44.77715" lon="-0.12403">
        <ele>70.5</ele>
        <time>2022-10-06T09:27:33Z</time>
      </trkpt>
      <trkpt lat="44.77714" lon="-0.124">
        <ele>70.6</ele>
        <time>2022-10-06T09:27:34Z</time>
      </trkpt>
      <trkpt lat="44.77712" lon="-0.12398">
        <ele>70.6</ele>
        <time>2022-10-06T09:27:36Z</time>
      </trkpt>
      <trkpt lat="44.77711" lon="-0.12395">
        <ele>70.7</ele>
        <time>2022-10-06T09:27:38Z</time>
      </trkpt>
      <trkpt lat="44.7771" lon="-0.12394">
        <ele>70.7</ele>
        <time>2022-10-06T09:27:39Z</time>
      </trkpt>
      <trkpt lat="44.7771" lon="-0.12392">
        <ele>70.7</ele>
        <time>2022-10-06T09:27:41Z</time>
      </trkpt>
      <trkpt lat="44.7771" lon="-0.1239">
        <ele>70.8</ele>
        <time>2022-10-06T09:27:42Z</time>
      </trkpt>
      <trkpt lat="44.7771" lon="-0.12386">
        <ele>70.9</ele>
        <time>2022-10-06T09:27:43Z</time>
      </trkpt>
      <trkpt lat="44.77709" lon="-0.12384">
        <ele>70.9</ele>
        <time>2022-10-06T09:27:45Z</time>
      </trkpt>
      <trkpt lat="44.77709" lon="-0.12382">
        <ele>70.9</ele>
        <time>2022-10-06T09:27:46Z</time>
      </trkpt>
      <trkpt lat="44.77708" lon="-0.12381">
        <ele>71</ele>
        <time>2022-10-06T09:27:47Z</time>
      </trkpt>
      <trkpt lat="44.77708" lon="-0.1238">
        <ele>71</ele>
        <time>2022-10-06T09:27:48Z</time>
      </trkpt>
      <trkpt lat="44.77707" lon="-0.12378">
        <ele>71</ele>
        <time>2022-10-06T09:27:49Z</time>
      </trkpt>
      <trkpt lat="44.77706" lon="-0.12377">
        <ele>71</ele>
        <time>2022-10-06T09:27:51Z</time>
      </trkpt>
      <trkpt lat="44.77705" lon="-0.12376">
        <ele>71.1</ele>
        <time>2022-10-06T09:27:52Z</time>
      </trkpt>
      <trkpt lat="44.77704" lon="-0.12374">
        <ele>71.1</ele>
        <time>2022-10-06T09:27:53Z</time>
      </trkpt>
      <trkpt lat="44.77703" lon="-0.12372">
        <ele>71.1</ele>
        <time>2022-10-06T09:27:54Z</time>
      </trkpt>
      <trkpt lat="44.77703" lon="-0.12371">
        <ele>71.2</ele>
        <time>2022-10-06T09:27:56Z</time>
      </trkpt>
      <trkpt lat="44.77702" lon="-0.1237">
        <ele>71.2</ele>
        <time>2022-10-06T09:27:57Z</time>
      </trkpt>
      <trkpt lat="44.77701" lon="-0.12367">
        <ele>71.3</ele>
        <time>2022-10-06T09:27:58Z</time>
      </trkpt>
      <trkpt lat="44.777" lon="-0.12366">
        <ele>71.3</ele>
        <time>2022-10-06T09:27:59Z</time>
      </trkpt>
      <trkpt lat="44.77699" lon="-0.12363">
        <ele>71.4</ele>
        <time>2022-10-06T09:28:00Z</time>
      </trkpt>
      <trkpt lat="44.77699" lon="-0.12363">
        <ele>71.4</ele>
        <time>2022-10-06T09:28:01Z</time>
      </trkpt>
      <trkpt lat="44.77697" lon="-0.1236">
        <ele>71.4</ele>
        <time>2022-10-06T09:28:03Z</time>
      </trkpt>
      <trkpt lat="44.77697" lon="-0.12358">
        <ele>71.5</ele>
        <time>2022-10-06T09:28:04Z</time>
      </trkpt>
      <trkpt lat="44.77695" lon="-0.12357">
        <ele>71.5</ele>
        <time>2022-10-06T09:28:06Z</time>
      </trkpt>
      <trkpt lat="44.77695" lon="-0.12354">
        <ele>71.6</ele>
        <time>2022-10-06T09:28:07Z</time>
      </trkpt>
      <trkpt lat="44.77694" lon="-0.12353">
        <ele>71.6</ele>
        <time>2022-10-06T09:28:08Z</time>
      </trkpt>
      <trkpt lat="44.77694" lon="-0.12351">
        <ele>71.7</ele>
        <time>2022-10-06T09:28:09Z</time>
      </trkpt>
      <trkpt lat="44.77693" lon="-0.12349">
        <ele>71.7</ele>
        <time>2022-10-06T09:28:10Z</time>
      </trkpt>
      <trkpt lat="44.77692" lon="-0.12348">
        <ele>71.8</ele>
        <time>2022-10-06T09:28:12Z</time>
      </trkpt>
      <trkpt lat="44.77691" lon="-0.12345">
        <ele>71.8</ele>
        <time>2022-10-06T09:28:13Z</time>
      </trkpt>
      <trkpt lat="44.7769" lon="-0.12343">
        <ele>71.9</ele>
        <time>2022-10-06T09:28:14Z</time>
      </trkpt>
      <trkpt lat="44.77689" lon="-0.12341">
        <ele>71.9</ele>
        <time>2022-10-06T09:28:15Z</time>
      </trkpt>
      <trkpt lat="44.77688" lon="-0.12339">
        <ele>72</ele>
        <time>2022-10-06T09:28:17Z</time>
      </trkpt>
      <trkpt lat="44.77687" lon="-0.12338">
        <ele>72</ele>
        <time>2022-10-06T09:28:18Z</time>
      </trkpt>
      <trkpt lat="44.77687" lon="-0.12336">
        <ele>72.1</ele>
        <time>2022-10-06T09:28:19Z</time>
      </trkpt>
      <trkpt lat="44.77685" lon="-0.12333">
        <ele>72.2</ele>
        <time>2022-10-06T09:28:21Z</time>
      </trkpt>
      <trkpt lat="44.77684" lon="-0.1233">
        <ele>72.2</ele>
        <time>2022-10-06T09:28:23Z</time>
      </trkpt>
      <trkpt lat="44.77683" lon="-0.12329">
        <ele>72.2</ele>
        <time>2022-10-06T09:28:24Z</time>
      </trkpt>
      <trkpt lat="44.77682" lon="-0.12327">
        <ele>72.3</ele>
        <time>2022-10-06T09:28:26Z</time>
      </trkpt>
      <trkpt lat="44.77682" lon="-0.12326">
        <ele>72.3</ele>
        <time>2022-10-06T09:28:27Z</time>
      </trkpt>
      <trkpt lat="44.7768" lon="-0.12324">
        <ele>72.3</ele>
        <time>2022-10-06T09:28:28Z</time>
      </trkpt>
      <trkpt lat="44.7768" lon="-0.12323">
        <ele>72.4</ele>
        <time>2022-10-06T09:28:29Z</time>
      </trkpt>
      <trkpt lat="44.77679" lon="-0.1232">
        <ele>72.4</ele>
        <time>2022-10-06T09:28:31Z</time>
      </trkpt>
      <trkpt lat="44.77678" lon="-0.12319">
        <ele>72.4</ele>
        <time>2022-10-06T09:28:32Z</time>
      </trkpt>
      <trkpt lat="44.77677" lon="-0.12316">
        <ele>72.4</ele>
        <time>2022-10-06T09:28:33Z</time>
      </trkpt>
      <trkpt lat="44.77677" lon="-0.12315">
        <ele>72.5</ele>
        <time>2022-10-06T09:28:34Z</time>
      </trkpt>
      <trkpt lat="44.77676" lon="-0.12313">
        <ele>72.5</ele>
        <time>2022-10-06T09:28:36Z</time>
      </trkpt>
      <trkpt lat="44.77675" lon="-0.12311">
        <ele>72.5</ele>
        <time>2022-10-06T09:28:37Z</time>
      </trkpt>
      <trkpt lat="44.77674" lon="-0.12308">
        <ele>72.6</ele>
        <time>2022-10-06T09:28:38Z</time>
      </trkpt>
      <trkpt lat="44.77674" lon="-0.12306">
        <ele>72.6</ele>
        <time>2022-10-06T09:28:39Z</time>
      </trkpt>
      <trkpt lat="44.77673" lon="-0.12303">
        <ele>72.7</ele>
        <time>2022-10-06T09:28:41Z</time>
      </trkpt>
      <trkpt lat="44.77671" lon="-0.123">
        <ele>72.8</ele>
        <time>2022-10-06T09:28:43Z</time>
      </trkpt>
      <trkpt lat="44.77671" lon="-0.12298">
        <ele>72.8</ele>
        <time>2022-10-06T09:28:45Z</time>
      </trkpt>
      <trkpt lat="44.7767" lon="-0.12296">
        <ele>72.9</ele>
        <time>2022-10-06T09:28:46Z</time>
      </trkpt>
      <trkpt lat="44.77669" lon="-0.12293">
        <ele>73</ele>
        <time>2022-10-06T09:28:47Z</time>
      </trkpt>
      <trkpt lat="44.77668" lon="-0.12291">
        <ele>73</ele>
        <time>2022-10-06T09:28:48Z</time>
      </trkpt>
      <trkpt lat="44.77667" lon="-0.1229">
        <ele>73.1</ele>
        <time>2022-10-06T09:28:49Z</time>
      </trkpt>
      <trkpt lat="44.77666" lon="-0.12287">
        <ele>73.2</ele>
        <time>2022-10-06T09:28:51Z</time>
      </trkpt>
      <trkpt lat="44.77665" lon="-0.12285">
        <ele>73.2</ele>
        <time>2022-10-06T09:28:52Z</time>
      </trkpt>
      <trkpt lat="44.77665" lon="-0.12284">
        <ele>73.3</ele>
        <time>2022-10-06T09:28:53Z</time>
      </trkpt>
      <trkpt lat="44.77664" lon="-0.12282">
        <ele>73.3</ele>
        <time>2022-10-06T09:28:54Z</time>
      </trkpt>
      <trkpt lat="44.77664" lon="-0.1228">
        <ele>73.4</ele>
        <time>2022-10-06T09:28:55Z</time>
      </trkpt>
      <trkpt lat="44.77663" lon="-0.12279">
        <ele>73.4</ele>
        <time>2022-10-06T09:28:57Z</time>
      </trkpt>
      <trkpt lat="44.77662" lon="-0.12275">
        <ele>73.5</ele>
        <time>2022-10-06T09:28:58Z</time>
      </trkpt>
      <trkpt lat="44.77662" lon="-0.12274">
        <ele>73.6</ele>
        <time>2022-10-06T09:28:59Z</time>
      </trkpt>
      <trkpt lat="44.77661" lon="-0.12271">
        <ele>73.7</ele>
        <time>2022-10-06T09:29:00Z</time>
      </trkpt>
      <trkpt lat="44.77661" lon="-0.1227">
        <ele>73.7</ele>
        <time>2022-10-06T09:29:01Z</time>
      </trkpt>
      <trkpt lat="44.7766" lon="-0.12266">
        <ele>73.8</ele>
        <time>2022-10-06T09:29:03Z</time>
      </trkpt>
      <trkpt lat="44.77658" lon="-0.12262">
        <ele>74</ele>
        <time>2022-10-06T09:29:05Z</time>
      </trkpt>
      <trkpt lat="44.77658" lon="-0.1226">
        <ele>74</ele>
        <time>2022-10-06T09:29:06Z</time>
      </trkpt>
      <trkpt lat="44.77658" lon="-0.1226">
        <ele>74</ele>
        <time>2022-10-06T09:29:07Z</time>
      </trkpt>
      <trkpt lat="44.77657" lon="-0.12258">
        <ele>74.1</ele>
        <time>2022-10-06T09:29:08Z</time>
      </trkpt>
      <trkpt lat="44.77657" lon="-0.12256">
        <ele>74.1</ele>
        <time>2022-10-06T09:29:09Z</time>
      </trkpt>
      <trkpt lat="44.77655" lon="-0.12253">
        <ele>74.2</ele>
        <time>2022-10-06T09:29:11Z</time>
      </trkpt>
      <trkpt lat="44.77655" lon="-0.12252">
        <ele>74.3</ele>
        <time>2022-10-06T09:29:12Z</time>
      </trkpt>
      <trkpt lat="44.77654" lon="-0.12251">
        <ele>74.3</ele>
        <time>2022-10-06T09:29:13Z</time>
      </trkpt>
      <trkpt lat="44.77654" lon="-0.12249">
        <ele>74.4</ele>
        <time>2022-10-06T09:29:14Z</time>
      </trkpt>
      <trkpt lat="44.77653" lon="-0.12248">
        <ele>74.4</ele>
        <time>2022-10-06T09:29:15Z</time>
      </trkpt>
      <trkpt lat="44.77653" lon="-0.12246">
        <ele>74.5</ele>
        <time>2022-10-06T09:29:16Z</time>
      </trkpt>
      <trkpt lat="44.77652" lon="-0.12244">
        <ele>74.6</ele>
        <time>2022-10-06T09:29:17Z</time>
      </trkpt>
      <trkpt lat="44.77652" lon="-0.12243">
        <ele>74.6</ele>
        <time>2022-10-06T09:29:19Z</time>
      </trkpt>
      <trkpt lat="44.77651" lon="-0.1224">
        <ele>74.7</ele>
        <time>2022-10-06T09:29:20Z</time>
      </trkpt>
      <trkpt lat="44.7765" lon="-0.12239">
        <ele>74.7</ele>
        <time>2022-10-06T09:29:21Z</time>
      </trkpt>
      <trkpt lat="44.77649" lon="-0.12237">
        <ele>74.8</ele>
        <time>2022-10-06T09:29:23Z</time>
      </trkpt>
      <trkpt lat="44.77648" lon="-0.12233">
        <ele>74.9</ele>
        <time>2022-10-06T09:29:24Z</time>
      </trkpt>
      <trkpt lat="44.77647" lon="-0.1223">
        <ele>75</ele>
        <time>2022-10-06T09:29:26Z</time>
      </trkpt>
      <trkpt lat="44.77646" lon="-0.12228">
        <ele>75.1</ele>
        <time>2022-10-06T09:29:27Z</time>
      </trkpt>
      <trkpt lat="44.77645" lon="-0.12227">
        <ele>75.2</ele>
        <time>2022-10-06T09:29:28Z</time>
      </trkpt>
      <trkpt lat="44.77645" lon="-0.12224">
        <ele>75.2</ele>
        <time>2022-10-06T09:29:29Z</time>
      </trkpt>
      <trkpt lat="44.77644" lon="-0.12223">
        <ele>75.3</ele>
        <time>2022-10-06T09:29:30Z</time>
      </trkpt>
      <trkpt lat="44.77644" lon="-0.12222">
        <ele>75.3</ele>
        <time>2022-10-06T09:29:31Z</time>
      </trkpt>
      <trkpt lat="44.77643" lon="-0.12221">
        <ele>75.4</ele>
        <time>2022-10-06T09:29:32Z</time>
      </trkpt>
      <trkpt lat="44.77642" lon="-0.12219">
        <ele>75.4</ele>
        <time>2022-10-06T09:29:33Z</time>
      </trkpt>
      <trkpt lat="44.77642" lon="-0.12216">
        <ele>75.5</ele>
        <time>2022-10-06T09:29:35Z</time>
      </trkpt>
      <trkpt lat="44.77642" lon="-0.12215">
        <ele>75.5</ele>
        <time>2022-10-06T09:29:36Z</time>
      </trkpt>
      <trkpt lat="44.77641" lon="-0.12213">
        <ele>75.6</ele>
        <time>2022-10-06T09:29:37Z</time>
      </trkpt>
      <trkpt lat="44.77641" lon="-0.12212">
        <ele>75.6</ele>
        <time>2022-10-06T09:29:38Z</time>
      </trkpt>
      <trkpt lat="44.77641" lon="-0.1221">
        <ele>75.7</ele>
        <time>2022-10-06T09:29:39Z</time>
      </trkpt>
      <trkpt lat="44.7764" lon="-0.12206">
        <ele>75.8</ele>
        <time>2022-10-06T09:29:41Z</time>
      </trkpt>
      <trkpt lat="44.77639" lon="-0.12205">
        <ele>75.8</ele>
        <time>2022-10-06T09:29:42Z</time>
      </trkpt>
      <trkpt lat="44.77639" lon="-0.12203">
        <ele>75.9</ele>
        <time>2022-10-06T09:29:43Z</time>
      </trkpt>
      <trkpt lat="44.77638" lon="-0.12199">
        <ele>76</ele>
        <time>2022-10-06T09:29:44Z</time>
      </trkpt>
      <trkpt lat="44.77638" lon="-0.12198">
        <ele>76</ele>
        <time>2022-10-06T09:29:46Z</time>
      </trkpt>
      <trkpt lat="44.77637" lon="-0.12196">
        <ele>76.1</ele>
        <time>2022-10-06T09:29:47Z</time>
      </trkpt>
      <trkpt lat="44.77637" lon="-0.12194">
        <ele>76.2</ele>
        <time>2022-10-06T09:29:49Z</time>
      </trkpt>
      <trkpt lat="44.77636" lon="-0.12191">
        <ele>76.3</ele>
        <time>2022-10-06T09:29:50Z</time>
      </trkpt>
      <trkpt lat="44.77635" lon="-0.12189">
        <ele>76.3</ele>
        <time>2022-10-06T09:29:51Z</time>
      </trkpt>
      <trkpt lat="44.77634" lon="-0.12188">
        <ele>76.4</ele>
        <time>2022-10-06T09:29:52Z</time>
      </trkpt>
      <trkpt lat="44.77633" lon="-0.12185">
        <ele>76.5</ele>
        <time>2022-10-06T09:29:53Z</time>
      </trkpt>
      <trkpt lat="44.77632" lon="-0.12183">
        <ele>76.6</ele>
        <time>2022-10-06T09:29:54Z</time>
      </trkpt>
      <trkpt lat="44.77631" lon="-0.12182">
        <ele>76.6</ele>
        <time>2022-10-06T09:29:55Z</time>
      </trkpt>
      <trkpt lat="44.77631" lon="-0.1218">
        <ele>76.6</ele>
        <time>2022-10-06T09:29:56Z</time>
      </trkpt>
      <trkpt lat="44.7763" lon="-0.12179">
        <ele>76.7</ele>
        <time>2022-10-06T09:29:57Z</time>
      </trkpt>
      <trkpt lat="44.77629" lon="-0.12177">
        <ele>76.7</ele>
        <time>2022-10-06T09:29:58Z</time>
      </trkpt>
      <trkpt lat="44.77629" lon="-0.12175">
        <ele>76.7</ele>
        <time>2022-10-06T09:29:59Z</time>
      </trkpt>
      <trkpt lat="44.77628" lon="-0.12174">
        <ele>76.7</ele>
        <time>2022-10-06T09:30:00Z</time>
      </trkpt>
      <trkpt lat="44.77627" lon="-0.12173">
        <ele>76.7</ele>
        <time>2022-10-06T09:30:01Z</time>
      </trkpt>
      <trkpt lat="44.77627" lon="-0.12171">
        <ele>76.7</ele>
        <time>2022-10-06T09:30:02Z</time>
      </trkpt>
      <trkpt lat="44.77626" lon="-0.12169">
        <ele>76.8</ele>
        <time>2022-10-06T09:30:03Z</time>
      </trkpt>
      <trkpt lat="44.77625" lon="-0.12168">
        <ele>76.8</ele>
        <time>2022-10-06T09:30:04Z</time>
      </trkpt>
      <trkpt lat="44.77625" lon="-0.12166">
        <ele>76.8</ele>
        <time>2022-10-06T09:30:05Z</time>
      </trkpt>
      <trkpt lat="44.77624" lon="-0.12164">
        <ele>76.8</ele>
        <time>2022-10-06T09:30:06Z</time>
      </trkpt>
      <trkpt lat="44.77624" lon="-0.12163">
        <ele>76.8</ele>
        <time>2022-10-06T09:30:07Z</time>
      </trkpt>
      <trkpt lat="44.77623" lon="-0.12161">
        <ele>76.8</ele>
        <time>2022-10-06T09:30:09Z</time>
      </trkpt>
      <trkpt lat="44.77623" lon="-0.12159">
        <ele>76.8</ele>
        <time>2022-10-06T09:30:10Z</time>
      </trkpt>
      <trkpt lat="44.77622" lon="-0.12156">
        <ele>76.8</ele>
        <time>2022-10-06T09:30:11Z</time>
      </trkpt>
      <trkpt lat="44.77621" lon="-0.12153">
        <ele>76.9</ele>
        <time>2022-10-06T09:30:13Z</time>
      </trkpt>
      <trkpt lat="44.7762" lon="-0.1215">
        <ele>76.9</ele>
        <time>2022-10-06T09:30:15Z</time>
      </trkpt>
      <trkpt lat="44.77619" lon="-0.12148">
        <ele>77</ele>
        <time>2022-10-06T09:30:16Z</time>
      </trkpt>
      <trkpt lat="44.77618" lon="-0.12146">
        <ele>77</ele>
        <time>2022-10-06T09:30:17Z</time>
      </trkpt>
      <trkpt lat="44.77618" lon="-0.12144">
        <ele>77</ele>
        <time>2022-10-06T09:30:18Z</time>
      </trkpt>
      <trkpt lat="44.77618" lon="-0.12143">
        <ele>77.1</ele>
        <time>2022-10-06T09:30:19Z</time>
      </trkpt>
      <trkpt lat="44.77617" lon="-0.12141">
        <ele>77.1</ele>
        <time>2022-10-06T09:30:21Z</time>
      </trkpt>
      <trkpt lat="44.77616" lon="-0.12138">
        <ele>77.2</ele>
        <time>2022-10-06T09:30:22Z</time>
      </trkpt>
      <trkpt lat="44.77615" lon="-0.12136">
        <ele>77.2</ele>
        <time>2022-10-06T09:30:23Z</time>
      </trkpt>
      <trkpt lat="44.77614" lon="-0.12133">
        <ele>77.3</ele>
        <time>2022-10-06T09:30:25Z</time>
      </trkpt>
      <trkpt lat="44.77613" lon="-0.1213">
        <ele>77.3</ele>
        <time>2022-10-06T09:30:27Z</time>
      </trkpt>
      <trkpt lat="44.77612" lon="-0.12128">
        <ele>77.3</ele>
        <time>2022-10-06T09:30:28Z</time>
      </trkpt>
      <trkpt lat="44.77612" lon="-0.12126">
        <ele>77.4</ele>
        <time>2022-10-06T09:30:30Z</time>
      </trkpt>
      <trkpt lat="44.77611" lon="-0.12123">
        <ele>77.4</ele>
        <time>2022-10-06T09:30:31Z</time>
      </trkpt>
      <trkpt lat="44.77611" lon="-0.12121">
        <ele>77.5</ele>
        <time>2022-10-06T09:30:32Z</time>
      </trkpt>
      <trkpt lat="44.7761" lon="-0.12119">
        <ele>77.5</ele>
        <time>2022-10-06T09:30:33Z</time>
      </trkpt>
      <trkpt lat="44.7761" lon="-0.12117">
        <ele>77.5</ele>
        <time>2022-10-06T09:30:35Z</time>
      </trkpt>
      <trkpt lat="44.7761" lon="-0.12115">
        <ele>77.6</ele>
        <time>2022-10-06T09:30:36Z</time>
      </trkpt>
      <trkpt lat="44.77609" lon="-0.12112">
        <ele>77.6</ele>
        <time>2022-10-06T09:30:37Z</time>
      </trkpt>
      <trkpt lat="44.77609" lon="-0.1211">
        <ele>77.6</ele>
        <time>2022-10-06T09:30:38Z</time>
      </trkpt>
      <trkpt lat="44.77608" lon="-0.12108">
        <ele>77.7</ele>
        <time>2022-10-06T09:30:39Z</time>
      </trkpt>
      <trkpt lat="44.77608" lon="-0.12105">
        <ele>77.7</ele>
        <time>2022-10-06T09:30:41Z</time>
      </trkpt>
      <trkpt lat="44.77607" lon="-0.12104">
        <ele>77.8</ele>
        <time>2022-10-06T09:30:42Z</time>
      </trkpt>
      <trkpt lat="44.77607" lon="-0.12102">
        <ele>77.8</ele>
        <time>2022-10-06T09:30:43Z</time>
      </trkpt>
      <trkpt lat="44.77607" lon="-0.12099">
        <ele>77.8</ele>
        <time>2022-10-06T09:30:44Z</time>
      </trkpt>
      <trkpt lat="44.77606" lon="-0.12097">
        <ele>77.9</ele>
        <time>2022-10-06T09:30:45Z</time>
      </trkpt>
      <trkpt lat="44.77606" lon="-0.12095">
        <ele>77.9</ele>
        <time>2022-10-06T09:30:46Z</time>
      </trkpt>
      <trkpt lat="44.77606" lon="-0.12094">
        <ele>77.9</ele>
        <time>2022-10-06T09:30:47Z</time>
      </trkpt>
      <trkpt lat="44.77606" lon="-0.12092">
        <ele>77.9</ele>
        <time>2022-10-06T09:30:48Z</time>
      </trkpt>
      <trkpt lat="44.77605" lon="-0.1209">
        <ele>78</ele>
        <time>2022-10-06T09:30:49Z</time>
      </trkpt>
      <trkpt lat="44.77605" lon="-0.12088">
        <ele>78</ele>
        <time>2022-10-06T09:30:50Z</time>
      </trkpt>
      <trkpt lat="44.77605" lon="-0.12087">
        <ele>78</ele>
        <time>2022-10-06T09:30:51Z</time>
      </trkpt>
      <trkpt lat="44.77605" lon="-0.12085">
        <ele>78.1</ele>
        <time>2022-10-06T09:30:52Z</time>
      </trkpt>
      <trkpt lat="44.77604" lon="-0.12083">
        <ele>78.1</ele>
        <time>2022-10-06T09:30:53Z</time>
      </trkpt>
      <trkpt lat="44.77604" lon="-0.12079">
        <ele>78.2</ele>
        <time>2022-10-06T09:30:55Z</time>
      </trkpt>
      <trkpt lat="44.77604" lon="-0.12078">
        <ele>78.2</ele>
        <time>2022-10-06T09:30:56Z</time>
      </trkpt>
      <trkpt lat="44.77604" lon="-0.12076">
        <ele>78.2</ele>
        <time>2022-10-06T09:30:57Z</time>
      </trkpt>
      <trkpt lat="44.77604" lon="-0.12074">
        <ele>78.3</ele>
        <time>2022-10-06T09:30:58Z</time>
      </trkpt>
      <trkpt lat="44.77603" lon="-0.12071">
        <ele>78.3</ele>
        <time>2022-10-06T09:30:59Z</time>
      </trkpt>
      <trkpt lat="44.77602" lon="-0.12068">
        <ele>78.4</ele>
        <time>2022-10-06T09:31:01Z</time>
      </trkpt>
      <trkpt lat="44.77602" lon="-0.12067">
        <ele>78.4</ele>
        <time>2022-10-06T09:31:02Z</time>
      </trkpt>
      <trkpt lat="44.77601" lon="-0.12064">
        <ele>78.5</ele>
        <time>2022-10-06T09:31:03Z</time>
      </trkpt>
      <trkpt lat="44.77601" lon="-0.12062">
        <ele>78.5</ele>
        <time>2022-10-06T09:31:04Z</time>
      </trkpt>
      <trkpt lat="44.77601" lon="-0.12061">
        <ele>78.6</ele>
        <time>2022-10-06T09:31:05Z</time>
      </trkpt>
      <trkpt lat="44.776" lon="-0.12059">
        <ele>78.6</ele>
        <time>2022-10-06T09:31:06Z</time>
      </trkpt>
      <trkpt lat="44.77599" lon="-0.12058">
        <ele>78.6</ele>
        <time>2022-10-06T09:31:07Z</time>
      </trkpt>
      <trkpt lat="44.77599" lon="-0.12056">
        <ele>78.7</ele>
        <time>2022-10-06T09:31:08Z</time>
      </trkpt>
      <trkpt lat="44.77599" lon="-0.12052">
        <ele>78.8</ele>
        <time>2022-10-06T09:31:10Z</time>
      </trkpt>
      <trkpt lat="44.77599" lon="-0.12051">
        <ele>78.8</ele>
        <time>2022-10-06T09:31:12Z</time>
      </trkpt>
      <trkpt lat="44.77598" lon="-0.12047">
        <ele>78.9</ele>
        <time>2022-10-06T09:31:13Z</time>
      </trkpt>
      <trkpt lat="44.77597" lon="-0.12045">
        <ele>78.9</ele>
        <time>2022-10-06T09:31:14Z</time>
      </trkpt>
      <trkpt lat="44.77597" lon="-0.12044">
        <ele>78.9</ele>
        <time>2022-10-06T09:31:16Z</time>
      </trkpt>
      <trkpt lat="44.77596" lon="-0.1204">
        <ele>79</ele>
        <time>2022-10-06T09:31:17Z</time>
      </trkpt>
      <trkpt lat="44.77596" lon="-0.12037">
        <ele>79.1</ele>
        <time>2022-10-06T09:31:19Z</time>
      </trkpt>
      <trkpt lat="44.77596" lon="-0.12035">
        <ele>79.1</ele>
        <time>2022-10-06T09:31:20Z</time>
      </trkpt>
      <trkpt lat="44.77595" lon="-0.12032">
        <ele>79.2</ele>
        <time>2022-10-06T09:31:21Z</time>
      </trkpt>
      <trkpt lat="44.77595" lon="-0.12031">
        <ele>79.2</ele>
        <time>2022-10-06T09:31:22Z</time>
      </trkpt>
      <trkpt lat="44.77595" lon="-0.12029">
        <ele>79.2</ele>
        <time>2022-10-06T09:31:23Z</time>
      </trkpt>
      <trkpt lat="44.77595" lon="-0.12026">
        <ele>79.3</ele>
        <time>2022-10-06T09:31:24Z</time>
      </trkpt>
      <trkpt lat="44.77595" lon="-0.12025">
        <ele>79.3</ele>
        <time>2022-10-06T09:31:26Z</time>
      </trkpt>
      <trkpt lat="44.77595" lon="-0.12023">
        <ele>79.3</ele>
        <time>2022-10-06T09:31:27Z</time>
      </trkpt>
      <trkpt lat="44.77595" lon="-0.12022">
        <ele>79.4</ele>
        <time>2022-10-06T09:31:28Z</time>
      </trkpt>
      <trkpt lat="44.77594" lon="-0.12019">
        <ele>79.4</ele>
        <time>2022-10-06T09:31:29Z</time>
      </trkpt>
      <trkpt lat="44.77594" lon="-0.12018">
        <ele>79.4</ele>
        <time>2022-10-06T09:31:30Z</time>
      </trkpt>
      <trkpt lat="44.77594" lon="-0.12017">
        <ele>79.5</ele>
        <time>2022-10-06T09:31:31Z</time>
      </trkpt>
      <trkpt lat="44.77593" lon="-0.12013">
        <ele>79.5</ele>
        <time>2022-10-06T09:31:33Z</time>
      </trkpt>
      <trkpt lat="44.77592" lon="-0.12011">
        <ele>79.6</ele>
        <time>2022-10-06T09:31:34Z</time>
      </trkpt>
      <trkpt lat="44.77591" lon="-0.12009">
        <ele>79.6</ele>
        <time>2022-10-06T09:31:35Z</time>
      </trkpt>
      <trkpt lat="44.77591" lon="-0.12007">
        <ele>79.6</ele>
        <time>2022-10-06T09:31:36Z</time>
      </trkpt>
      <trkpt lat="44.77591" lon="-0.12005">
        <ele>79.7</ele>
        <time>2022-10-06T09:31:37Z</time>
      </trkpt>
      <trkpt lat="44.7759" lon="-0.12001">
        <ele>79.7</ele>
        <time>2022-10-06T09:31:38Z</time>
      </trkpt>
      <trkpt lat="44.77589" lon="-0.11999">
        <ele>79.8</ele>
        <time>2022-10-06T09:31:39Z</time>
      </trkpt>
      <trkpt lat="44.77589" lon="-0.11999">
        <ele>79.8</ele>
        <time>2022-10-06T09:31:40Z</time>
      </trkpt>
      <trkpt lat="44.77588" lon="-0.11995">
        <ele>79.8</ele>
        <time>2022-10-06T09:31:42Z</time>
      </trkpt>
      <trkpt lat="44.77588" lon="-0.11993">
        <ele>79.9</ele>
        <time>2022-10-06T09:31:43Z</time>
      </trkpt>
      <trkpt lat="44.77587" lon="-0.11988">
        <ele>80</ele>
        <time>2022-10-06T09:31:45Z</time>
      </trkpt>
      <trkpt lat="44.77586" lon="-0.11987">
        <ele>80</ele>
        <time>2022-10-06T09:31:47Z</time>
      </trkpt>
      <trkpt lat="44.77585" lon="-0.11984">
        <ele>80</ele>
        <time>2022-10-06T09:31:48Z</time>
      </trkpt>
      <trkpt lat="44.77585" lon="-0.11981">
        <ele>80.1</ele>
        <time>2022-10-06T09:31:49Z</time>
      </trkpt>
      <trkpt lat="44.77584" lon="-0.11979">
        <ele>80.1</ele>
        <time>2022-10-06T09:31:50Z</time>
      </trkpt>
      <trkpt lat="44.77584" lon="-0.11976">
        <ele>80.2</ele>
        <time>2022-10-06T09:31:51Z</time>
      </trkpt>
      <trkpt lat="44.77583" lon="-0.11975">
        <ele>80.2</ele>
        <time>2022-10-06T09:31:52Z</time>
      </trkpt>
      <trkpt lat="44.77583" lon="-0.11974">
        <ele>80.2</ele>
        <time>2022-10-06T09:31:53Z</time>
      </trkpt>
      <trkpt lat="44.77581" lon="-0.11968">
        <ele>80.3</ele>
        <time>2022-10-06T09:31:55Z</time>
      </trkpt>
      <trkpt lat="44.7758" lon="-0.11967">
        <ele>80.3</ele>
        <time>2022-10-06T09:31:57Z</time>
      </trkpt>
      <trkpt lat="44.7758" lon="-0.11965">
        <ele>80.4</ele>
        <time>2022-10-06T09:31:58Z</time>
      </trkpt>
      <trkpt lat="44.77577" lon="-0.11961">
        <ele>80.4</ele>
        <time>2022-10-06T09:31:59Z</time>
      </trkpt>
      <trkpt lat="44.77576" lon="-0.1196">
        <ele>80.5</ele>
        <time>2022-10-06T09:32:01Z</time>
      </trkpt>
      <trkpt lat="44.77576" lon="-0.1196">
        <ele>80.5</ele>
        <time>2022-10-06T09:32:02Z</time>
      </trkpt>
      <trkpt lat="44.77575" lon="-0.11959">
        <ele>80.5</ele>
        <time>2022-10-06T09:32:03Z</time>
      </trkpt>
      <trkpt lat="44.77573" lon="-0.11957">
        <ele>80.5</ele>
        <time>2022-10-06T09:32:04Z</time>
      </trkpt>
      <trkpt lat="44.77572" lon="-0.11956">
        <ele>80.5</ele>
        <time>2022-10-06T09:32:05Z</time>
      </trkpt>
      <trkpt lat="44.7757" lon="-0.11954">
        <ele>80.6</ele>
        <time>2022-10-06T09:32:07Z</time>
      </trkpt>
      <trkpt lat="44.77568" lon="-0.11952">
        <ele>80.6</ele>
        <time>2022-10-06T09:32:09Z</time>
      </trkpt>
      <trkpt lat="44.77565" lon="-0.1195">
        <ele>80.7</ele>
        <time>2022-10-06T09:32:11Z</time>
      </trkpt>
      <trkpt lat="44.77564" lon="-0.11949">
        <ele>80.7</ele>
        <time>2022-10-06T09:32:12Z</time>
      </trkpt>
      <trkpt lat="44.77563" lon="-0.11948">
        <ele>80.7</ele>
        <time>2022-10-06T09:32:13Z</time>
      </trkpt>
      <trkpt lat="44.7756" lon="-0.11945">
        <ele>80.8</ele>
        <time>2022-10-06T09:32:15Z</time>
      </trkpt>
      <trkpt lat="44.77559" lon="-0.11944">
        <ele>80.8</ele>
        <time>2022-10-06T09:32:16Z</time>
      </trkpt>
      <trkpt lat="44.77558" lon="-0.11943">
        <ele>80.8</ele>
        <time>2022-10-06T09:32:17Z</time>
      </trkpt>
      <trkpt lat="44.77557" lon="-0.11942">
        <ele>80.8</ele>
        <time>2022-10-06T09:32:18Z</time>
      </trkpt>
      <trkpt lat="44.77555" lon="-0.1194">
        <ele>80.9</ele>
        <time>2022-10-06T09:32:19Z</time>
      </trkpt>
      <trkpt lat="44.77554" lon="-0.11939">
        <ele>80.9</ele>
        <time>2022-10-06T09:32:20Z</time>
      </trkpt>
      <trkpt lat="44.77553" lon="-0.11939">
        <ele>80.9</ele>
        <time>2022-10-06T09:32:22Z</time>
      </trkpt>
      <trkpt lat="44.77552" lon="-0.11937">
        <ele>80.9</ele>
        <time>2022-10-06T09:32:23Z</time>
      </trkpt>
      <trkpt lat="44.7755" lon="-0.11934">
        <ele>80.9</ele>
        <time>2022-10-06T09:32:25Z</time>
      </trkpt>
      <trkpt lat="44.77549" lon="-0.11933">
        <ele>81</ele>
        <time>2022-10-06T09:32:26Z</time>
      </trkpt>
      <trkpt lat="44.77547" lon="-0.1193">
        <ele>81</ele>
        <time>2022-10-06T09:32:28Z</time>
      </trkpt>
      <trkpt lat="44.77546" lon="-0.11929">
        <ele>81</ele>
        <time>2022-10-06T09:32:29Z</time>
      </trkpt>
      <trkpt lat="44.77544" lon="-0.11926">
        <ele>81</ele>
        <time>2022-10-06T09:32:31Z</time>
      </trkpt>
      <trkpt lat="44.77542" lon="-0.11923">
        <ele>81.1</ele>
        <time>2022-10-06T09:32:33Z</time>
      </trkpt>
      <trkpt lat="44.77541" lon="-0.11919">
        <ele>81.1</ele>
        <time>2022-10-06T09:32:34Z</time>
      </trkpt>
      <trkpt lat="44.7754" lon="-0.11917">
        <ele>81.1</ele>
        <time>2022-10-06T09:32:36Z</time>
      </trkpt>
      <trkpt lat="44.7754" lon="-0.11916">
        <ele>81.1</ele>
        <time>2022-10-06T09:32:37Z</time>
      </trkpt>
      <trkpt lat="44.77539" lon="-0.11914">
        <ele>81.1</ele>
        <time>2022-10-06T09:32:38Z</time>
      </trkpt>
      <trkpt lat="44.77538" lon="-0.1191">
        <ele>81.1</ele>
        <time>2022-10-06T09:32:39Z</time>
      </trkpt>
      <trkpt lat="44.77538" lon="-0.11908">
        <ele>81.1</ele>
        <time>2022-10-06T09:32:41Z</time>
      </trkpt>
      <trkpt lat="44.77537" lon="-0.11906">
        <ele>81.1</ele>
        <time>2022-10-06T09:32:42Z</time>
      </trkpt>
      <trkpt lat="44.77537" lon="-0.11904">
        <ele>81.1</ele>
        <time>2022-10-06T09:32:43Z</time>
      </trkpt>
      <trkpt lat="44.77536" lon="-0.119">
        <ele>81.1</ele>
        <time>2022-10-06T09:32:44Z</time>
      </trkpt>
      <trkpt lat="44.77536" lon="-0.11898">
        <ele>81.2</ele>
        <time>2022-10-06T09:32:46Z</time>
      </trkpt>
      <trkpt lat="44.77536" lon="-0.11896">
        <ele>81.2</ele>
        <time>2022-10-06T09:32:47Z</time>
      </trkpt>
      <trkpt lat="44.77536" lon="-0.11894">
        <ele>81.2</ele>
        <time>2022-10-06T09:32:48Z</time>
      </trkpt>
      <trkpt lat="44.77535" lon="-0.11892">
        <ele>81.2</ele>
        <time>2022-10-06T09:32:49Z</time>
      </trkpt>
      <trkpt lat="44.77535" lon="-0.11889">
        <ele>81.2</ele>
        <time>2022-10-06T09:32:51Z</time>
      </trkpt>
      <trkpt lat="44.77534" lon="-0.11886">
        <ele>81.2</ele>
        <time>2022-10-06T09:32:52Z</time>
      </trkpt>
      <trkpt lat="44.77533" lon="-0.11884">
        <ele>81.2</ele>
        <time>2022-10-06T09:32:53Z</time>
      </trkpt>
      <trkpt lat="44.77532" lon="-0.1188">
        <ele>81.2</ele>
        <time>2022-10-06T09:32:54Z</time>
      </trkpt>
      <trkpt lat="44.77531" lon="-0.11878">
        <ele>81.3</ele>
        <time>2022-10-06T09:32:56Z</time>
      </trkpt>
      <trkpt lat="44.77531" lon="-0.11877">
        <ele>81.3</ele>
        <time>2022-10-06T09:32:57Z</time>
      </trkpt>
      <trkpt lat="44.7753" lon="-0.11875">
        <ele>81.3</ele>
        <time>2022-10-06T09:32:58Z</time>
      </trkpt>
      <trkpt lat="44.7753" lon="-0.11873">
        <ele>81.3</ele>
        <time>2022-10-06T09:32:59Z</time>
      </trkpt>
      <trkpt lat="44.77529" lon="-0.1187">
        <ele>81.3</ele>
        <time>2022-10-06T09:33:00Z</time>
      </trkpt>
      <trkpt lat="44.77528" lon="-0.11867">
        <ele>81.4</ele>
        <time>2022-10-06T09:33:02Z</time>
      </trkpt>
      <trkpt lat="44.77528" lon="-0.11865">
        <ele>81.4</ele>
        <time>2022-10-06T09:33:03Z</time>
      </trkpt>
      <trkpt lat="44.77528" lon="-0.11864">
        <ele>81.4</ele>
        <time>2022-10-06T09:33:04Z</time>
      </trkpt>
      <trkpt lat="44.77527" lon="-0.11861">
        <ele>81.4</ele>
        <time>2022-10-06T09:33:06Z</time>
      </trkpt>
      <trkpt lat="44.77526" lon="-0.11859">
        <ele>81.4</ele>
        <time>2022-10-06T09:33:07Z</time>
      </trkpt>
      <trkpt lat="44.77525" lon="-0.11855">
        <ele>81.5</ele>
        <time>2022-10-06T09:33:08Z</time>
      </trkpt>
      <trkpt lat="44.77525" lon="-0.11853">
        <ele>81.5</ele>
        <time>2022-10-06T09:33:09Z</time>
      </trkpt>
      <trkpt lat="44.77524" lon="-0.11851">
        <ele>81.5</ele>
        <time>2022-10-06T09:33:11Z</time>
      </trkpt>
      <trkpt lat="44.77524" lon="-0.11848">
        <ele>81.5</ele>
        <time>2022-10-06T09:33:12Z</time>
      </trkpt>
      <trkpt lat="44.77524" lon="-0.11847">
        <ele>81.5</ele>
        <time>2022-10-06T09:33:13Z</time>
      </trkpt>
      <trkpt lat="44.77523" lon="-0.11845">
        <ele>81.5</ele>
        <time>2022-10-06T09:33:14Z</time>
      </trkpt>
      <trkpt lat="44.77523" lon="-0.11842">
        <ele>81.6</ele>
        <time>2022-10-06T09:33:16Z</time>
      </trkpt>
      <trkpt lat="44.77523" lon="-0.1184">
        <ele>81.6</ele>
        <time>2022-10-06T09:33:17Z</time>
      </trkpt>
      <trkpt lat="44.77522" lon="-0.11839">
        <ele>81.6</ele>
        <time>2022-10-06T09:33:18Z</time>
      </trkpt>
      <trkpt lat="44.77522" lon="-0.11838">
        <ele>81.6</ele>
        <time>2022-10-06T09:33:19Z</time>
      </trkpt>
      <trkpt lat="44.7752" lon="-0.11834">
        <ele>81.6</ele>
        <time>2022-10-06T09:33:21Z</time>
      </trkpt>
      <trkpt lat="44.77519" lon="-0.11833">
        <ele>81.7</ele>
        <time>2022-10-06T09:33:22Z</time>
      </trkpt>
      <trkpt lat="44.77519" lon="-0.11832">
        <ele>81.7</ele>
        <time>2022-10-06T09:33:23Z</time>
      </trkpt>
      <trkpt lat="44.77518" lon="-0.11831">
        <ele>81.7</ele>
        <time>2022-10-06T09:33:24Z</time>
      </trkpt>
      <trkpt lat="44.77517" lon="-0.11829">
        <ele>81.7</ele>
        <time>2022-10-06T09:33:26Z</time>
      </trkpt>
      <trkpt lat="44.77516" lon="-0.11828">
        <ele>81.7</ele>
        <time>2022-10-06T09:33:27Z</time>
      </trkpt>
      <trkpt lat="44.77515" lon="-0.11825">
        <ele>81.7</ele>
        <time>2022-10-06T09:33:28Z</time>
      </trkpt>
      <trkpt lat="44.77515" lon="-0.11823">
        <ele>81.8</ele>
        <time>2022-10-06T09:33:29Z</time>
      </trkpt>
      <trkpt lat="44.77514" lon="-0.11821">
        <ele>81.8</ele>
        <time>2022-10-06T09:33:31Z</time>
      </trkpt>
      <trkpt lat="44.77514" lon="-0.11819">
        <ele>81.8</ele>
        <time>2022-10-06T09:33:32Z</time>
      </trkpt>
      <trkpt lat="44.77513" lon="-0.11816">
        <ele>81.8</ele>
        <time>2022-10-06T09:33:33Z</time>
      </trkpt>
      <trkpt lat="44.77513" lon="-0.11815">
        <ele>81.8</ele>
        <time>2022-10-06T09:33:34Z</time>
      </trkpt>
      <trkpt lat="44.77512" lon="-0.11812">
        <ele>81.9</ele>
        <time>2022-10-06T09:33:36Z</time>
      </trkpt>
      <trkpt lat="44.77513" lon="-0.11809">
        <ele>81.9</ele>
        <time>2022-10-06T09:33:37Z</time>
      </trkpt>
      <trkpt lat="44.77514" lon="-0.11807">
        <ele>81.9</ele>
        <time>2022-10-06T09:33:38Z</time>
      </trkpt>
      <trkpt lat="44.77514" lon="-0.11806">
        <ele>81.9</ele>
        <time>2022-10-06T09:33:39Z</time>
      </trkpt>
      <trkpt lat="44.77514" lon="-0.11803">
        <ele>82</ele>
        <time>2022-10-06T09:33:41Z</time>
      </trkpt>
      <trkpt lat="44.77513" lon="-0.11802">
        <ele>82</ele>
        <time>2022-10-06T09:33:42Z</time>
      </trkpt>
      <trkpt lat="44.77513" lon="-0.118">
        <ele>82</ele>
        <time>2022-10-06T09:33:43Z</time>
      </trkpt>
      <trkpt lat="44.77511" lon="-0.11798">
        <ele>82</ele>
        <time>2022-10-06T09:33:44Z</time>
      </trkpt>
      <trkpt lat="44.7751" lon="-0.11796">
        <ele>82</ele>
        <time>2022-10-06T09:33:46Z</time>
      </trkpt>
      <trkpt lat="44.7751" lon="-0.11795">
        <ele>82.1</ele>
        <time>2022-10-06T09:33:47Z</time>
      </trkpt>
      <trkpt lat="44.77509" lon="-0.11793">
        <ele>82.1</ele>
        <time>2022-10-06T09:33:48Z</time>
      </trkpt>
      <trkpt lat="44.77508" lon="-0.11792">
        <ele>82.1</ele>
        <time>2022-10-06T09:33:49Z</time>
      </trkpt>
      <trkpt lat="44.77506" lon="-0.11788">
        <ele>82.1</ele>
        <time>2022-10-06T09:33:51Z</time>
      </trkpt>
      <trkpt lat="44.77506" lon="-0.11785">
        <ele>82.1</ele>
        <time>2022-10-06T09:33:53Z</time>
      </trkpt>
      <trkpt lat="44.77506" lon="-0.11783">
        <ele>82.2</ele>
        <time>2022-10-06T09:33:54Z</time>
      </trkpt>
      <trkpt lat="44.77508" lon="-0.11782">
        <ele>82.2</ele>
        <time>2022-10-06T09:33:55Z</time>
      </trkpt>
      <trkpt lat="44.7751" lon="-0.11782">
        <ele>82.2</ele>
        <time>2022-10-06T09:33:56Z</time>
      </trkpt>
      <trkpt lat="44.7751" lon="-0.11784">
        <ele>82.2</ele>
        <time>2022-10-06T09:33:57Z</time>
      </trkpt>
      <trkpt lat="44.7751" lon="-0.11786">
        <ele>82.2</ele>
        <time>2022-10-06T09:33:58Z</time>
      </trkpt>
      <trkpt lat="44.77508" lon="-0.11787">
        <ele>82.2</ele>
        <time>2022-10-06T09:33:59Z</time>
      </trkpt>
      <trkpt lat="44.77505" lon="-0.11786">
        <ele>82.3</ele>
        <time>2022-10-06T09:34:01Z</time>
      </trkpt>
      <trkpt lat="44.77504" lon="-0.11784">
        <ele>82.3</ele>
        <time>2022-10-06T09:34:02Z</time>
      </trkpt>
      <trkpt lat="44.77503" lon="-0.11783">
        <ele>82.3</ele>
        <time>2022-10-06T09:34:03Z</time>
      </trkpt>
      <trkpt lat="44.77501" lon="-0.11782">
        <ele>82.3</ele>
        <time>2022-10-06T09:34:04Z</time>
      </trkpt>
      <trkpt lat="44.775" lon="-0.11782">
        <ele>82.3</ele>
        <time>2022-10-06T09:34:05Z</time>
      </trkpt>
      <trkpt lat="44.77498" lon="-0.1178">
        <ele>82.3</ele>
        <time>2022-10-06T09:34:06Z</time>
      </trkpt>
      <trkpt lat="44.77497" lon="-0.11779">
        <ele>82.3</ele>
        <time>2022-10-06T09:34:07Z</time>
      </trkpt>
      <trkpt lat="44.77497" lon="-0.11779">
        <ele>82.3</ele>
        <time>2022-10-06T09:34:08Z</time>
      </trkpt>
      <trkpt lat="44.77496" lon="-0.11778">
        <ele>82.3</ele>
        <time>2022-10-06T09:34:09Z</time>
      </trkpt>
      <trkpt lat="44.77493" lon="-0.11776">
        <ele>82.3</ele>
        <time>2022-10-06T09:34:11Z</time>
      </trkpt>
      <trkpt lat="44.77492" lon="-0.11776">
        <ele>82.3</ele>
        <time>2022-10-06T09:34:12Z</time>
      </trkpt>
      <trkpt lat="44.77491" lon="-0.11775">
        <ele>82.2</ele>
        <time>2022-10-06T09:34:13Z</time>
      </trkpt>
      <trkpt lat="44.7749" lon="-0.11775">
        <ele>82.2</ele>
        <time>2022-10-06T09:34:14Z</time>
      </trkpt>
      <trkpt lat="44.77487" lon="-0.11775">
        <ele>82.2</ele>
        <time>2022-10-06T09:34:16Z</time>
      </trkpt>
      <trkpt lat="44.77486" lon="-0.11775">
        <ele>82.2</ele>
        <time>2022-10-06T09:34:17Z</time>
      </trkpt>
      <trkpt lat="44.77485" lon="-0.11774">
        <ele>82.2</ele>
        <time>2022-10-06T09:34:18Z</time>
      </trkpt>
      <trkpt lat="44.77484" lon="-0.11774">
        <ele>82.2</ele>
        <time>2022-10-06T09:34:19Z</time>
      </trkpt>
      <trkpt lat="44.77481" lon="-0.11774">
        <ele>82.2</ele>
        <time>2022-10-06T09:34:20Z</time>
      </trkpt>
      <trkpt lat="44.77481" lon="-0.11774">
        <ele>82.2</ele>
        <time>2022-10-06T09:34:21Z</time>
      </trkpt>
      <trkpt lat="44.7748" lon="-0.11774">
        <ele>82.2</ele>
        <time>2022-10-06T09:34:22Z</time>
      </trkpt>
      <trkpt lat="44.77478" lon="-0.11774">
        <ele>82.1</ele>
        <time>2022-10-06T09:34:23Z</time>
      </trkpt>
      <trkpt lat="44.77477" lon="-0.11774">
        <ele>82.1</ele>
        <time>2022-10-06T09:34:24Z</time>
      </trkpt>
      <trkpt lat="44.77475" lon="-0.11773">
        <ele>82.1</ele>
        <time>2022-10-06T09:34:25Z</time>
      </trkpt>
      <trkpt lat="44.77475" lon="-0.11773">
        <ele>82.1</ele>
        <time>2022-10-06T09:34:26Z</time>
      </trkpt>
      <trkpt lat="44.77472" lon="-0.11772">
        <ele>82.1</ele>
        <time>2022-10-06T09:34:28Z</time>
      </trkpt>
      <trkpt lat="44.77471" lon="-0.11772">
        <ele>82.1</ele>
        <time>2022-10-06T09:34:29Z</time>
      </trkpt>
      <trkpt lat="44.77469" lon="-0.11771">
        <ele>82.1</ele>
        <time>2022-10-06T09:34:30Z</time>
      </trkpt>
      <trkpt lat="44.77467" lon="-0.11771">
        <ele>82.1</ele>
        <time>2022-10-06T09:34:32Z</time>
      </trkpt>
      <trkpt lat="44.77466" lon="-0.1177">
        <ele>82</ele>
        <time>2022-10-06T09:34:33Z</time>
      </trkpt>
      <trkpt lat="44.77465" lon="-0.1177">
        <ele>82</ele>
        <time>2022-10-06T09:34:34Z</time>
      </trkpt>
      <trkpt lat="44.77463" lon="-0.11769">
        <ele>82</ele>
        <time>2022-10-06T09:34:35Z</time>
      </trkpt>
      <trkpt lat="44.77462" lon="-0.11769">
        <ele>82</ele>
        <time>2022-10-06T09:34:36Z</time>
      </trkpt>
      <trkpt lat="44.77461" lon="-0.11768">
        <ele>82</ele>
        <time>2022-10-06T09:34:37Z</time>
      </trkpt>
      <trkpt lat="44.7746" lon="-0.11768">
        <ele>82</ele>
        <time>2022-10-06T09:34:38Z</time>
      </trkpt>
      <trkpt lat="44.77458" lon="-0.11766">
        <ele>82</ele>
        <time>2022-10-06T09:34:39Z</time>
      </trkpt>
      <trkpt lat="44.77457" lon="-0.11766">
        <ele>82</ele>
        <time>2022-10-06T09:34:41Z</time>
      </trkpt>
      <trkpt lat="44.77455" lon="-0.11765">
        <ele>82</ele>
        <time>2022-10-06T09:34:42Z</time>
      </trkpt>
      <trkpt lat="44.77454" lon="-0.11764">
        <ele>82</ele>
        <time>2022-10-06T09:34:43Z</time>
      </trkpt>
      <trkpt lat="44.77453" lon="-0.11763">
        <ele>82</ele>
        <time>2022-10-06T09:34:44Z</time>
      </trkpt>
      <trkpt lat="44.77452" lon="-0.11762">
        <ele>82</ele>
        <time>2022-10-06T09:34:45Z</time>
      </trkpt>
      <trkpt lat="44.77451" lon="-0.11762">
        <ele>82</ele>
        <time>2022-10-06T09:34:46Z</time>
      </trkpt>
      <trkpt lat="44.7745" lon="-0.11761">
        <ele>82</ele>
        <time>2022-10-06T09:34:47Z</time>
      </trkpt>
      <trkpt lat="44.77449" lon="-0.1176">
        <ele>81.9</ele>
        <time>2022-10-06T09:34:48Z</time>
      </trkpt>
      <trkpt lat="44.77448" lon="-0.11759">
        <ele>81.9</ele>
        <time>2022-10-06T09:34:49Z</time>
      </trkpt>
      <trkpt lat="44.77447" lon="-0.11758">
        <ele>81.9</ele>
        <time>2022-10-06T09:34:50Z</time>
      </trkpt>
      <trkpt lat="44.77447" lon="-0.11757">
        <ele>81.9</ele>
        <time>2022-10-06T09:34:51Z</time>
      </trkpt>
      <trkpt lat="44.77446" lon="-0.11756">
        <ele>81.9</ele>
        <time>2022-10-06T09:34:52Z</time>
      </trkpt>
      <trkpt lat="44.77444" lon="-0.11755">
        <ele>81.9</ele>
        <time>2022-10-06T09:34:54Z</time>
      </trkpt>
      <trkpt lat="44.77442" lon="-0.11754">
        <ele>81.9</ele>
        <time>2022-10-06T09:34:55Z</time>
      </trkpt>
      <trkpt lat="44.77441" lon="-0.11754">
        <ele>81.9</ele>
        <time>2022-10-06T09:34:56Z</time>
      </trkpt>
      <trkpt lat="44.77439" lon="-0.11753">
        <ele>81.9</ele>
        <time>2022-10-06T09:34:58Z</time>
      </trkpt>
      <trkpt lat="44.77437" lon="-0.11752">
        <ele>81.9</ele>
        <time>2022-10-06T09:34:59Z</time>
      </trkpt>
      <trkpt lat="44.77436" lon="-0.11751">
        <ele>81.9</ele>
        <time>2022-10-06T09:35:00Z</time>
      </trkpt>
      <trkpt lat="44.77434" lon="-0.1175">
        <ele>81.9</ele>
        <time>2022-10-06T09:35:02Z</time>
      </trkpt>
      <trkpt lat="44.77433" lon="-0.1175">
        <ele>81.9</ele>
        <time>2022-10-06T09:35:03Z</time>
      </trkpt>
      <trkpt lat="44.77432" lon="-0.11749">
        <ele>81.9</ele>
        <time>2022-10-06T09:35:04Z</time>
      </trkpt>
      <trkpt lat="44.7743" lon="-0.11748">
        <ele>81.9</ele>
        <time>2022-10-06T09:35:05Z</time>
      </trkpt>
      <trkpt lat="44.77428" lon="-0.11747">
        <ele>81.9</ele>
        <time>2022-10-06T09:35:07Z</time>
      </trkpt>
      <trkpt lat="44.77427" lon="-0.11747">
        <ele>81.9</ele>
        <time>2022-10-06T09:35:08Z</time>
      </trkpt>
      <trkpt lat="44.77425" lon="-0.11746">
        <ele>81.9</ele>
        <time>2022-10-06T09:35:09Z</time>
      </trkpt>
      <trkpt lat="44.77424" lon="-0.11745">
        <ele>81.9</ele>
        <time>2022-10-06T09:35:10Z</time>
      </trkpt>
      <trkpt lat="44.77423" lon="-0.11745">
        <ele>81.9</ele>
        <time>2022-10-06T09:35:11Z</time>
      </trkpt>
      <trkpt lat="44.77422" lon="-0.11744">
        <ele>81.9</ele>
        <time>2022-10-06T09:35:12Z</time>
      </trkpt>
      <trkpt lat="44.77421" lon="-0.11743">
        <ele>81.9</ele>
        <time>2022-10-06T09:35:13Z</time>
      </trkpt>
      <trkpt lat="44.77418" lon="-0.11742">
        <ele>81.9</ele>
        <time>2022-10-06T09:35:14Z</time>
      </trkpt>
      <trkpt lat="44.77417" lon="-0.11741">
        <ele>81.9</ele>
        <time>2022-10-06T09:35:15Z</time>
      </trkpt>
      <trkpt lat="44.77416" lon="-0.11741">
        <ele>81.9</ele>
        <time>2022-10-06T09:35:16Z</time>
      </trkpt>
      <trkpt lat="44.77414" lon="-0.1174">
        <ele>81.9</ele>
        <time>2022-10-06T09:35:18Z</time>
      </trkpt>
      <trkpt lat="44.77413" lon="-0.1174">
        <ele>81.9</ele>
        <time>2022-10-06T09:35:19Z</time>
      </trkpt>
      <trkpt lat="44.77411" lon="-0.11739">
        <ele>81.9</ele>
        <time>2022-10-06T09:35:20Z</time>
      </trkpt>
      <trkpt lat="44.77409" lon="-0.11737">
        <ele>81.9</ele>
        <time>2022-10-06T09:35:22Z</time>
      </trkpt>
      <trkpt lat="44.77409" lon="-0.11736">
        <ele>81.9</ele>
        <time>2022-10-06T09:35:23Z</time>
      </trkpt>
      <trkpt lat="44.77408" lon="-0.11736">
        <ele>82</ele>
        <time>2022-10-06T09:35:24Z</time>
      </trkpt>
      <trkpt lat="44.77407" lon="-0.11734">
        <ele>82</ele>
        <time>2022-10-06T09:35:26Z</time>
      </trkpt>
      <trkpt lat="44.77405" lon="-0.11733">
        <ele>82</ele>
        <time>2022-10-06T09:35:27Z</time>
      </trkpt>
      <trkpt lat="44.77403" lon="-0.11733">
        <ele>82</ele>
        <time>2022-10-06T09:35:28Z</time>
      </trkpt>
      <trkpt lat="44.77402" lon="-0.11733">
        <ele>82</ele>
        <time>2022-10-06T09:35:29Z</time>
      </trkpt>
      <trkpt lat="44.774" lon="-0.11732">
        <ele>82</ele>
        <time>2022-10-06T09:35:31Z</time>
      </trkpt>
      <trkpt lat="44.77399" lon="-0.11731">
        <ele>82</ele>
        <time>2022-10-06T09:35:32Z</time>
      </trkpt>
      <trkpt lat="44.77396" lon="-0.1173">
        <ele>82</ele>
        <time>2022-10-06T09:35:33Z</time>
      </trkpt>
      <trkpt lat="44.77395" lon="-0.1173">
        <ele>82</ele>
        <time>2022-10-06T09:35:34Z</time>
      </trkpt>
      <trkpt lat="44.77394" lon="-0.11729">
        <ele>82</ele>
        <time>2022-10-06T09:35:35Z</time>
      </trkpt>
      <trkpt lat="44.77393" lon="-0.11729">
        <ele>82</ele>
        <time>2022-10-06T09:35:36Z</time>
      </trkpt>
      <trkpt lat="44.77392" lon="-0.11729">
        <ele>82</ele>
        <time>2022-10-06T09:35:37Z</time>
      </trkpt>
      <trkpt lat="44.7739" lon="-0.11729">
        <ele>82</ele>
        <time>2022-10-06T09:35:39Z</time>
      </trkpt>
      <trkpt lat="44.77388" lon="-0.1173">
        <ele>82</ele>
        <time>2022-10-06T09:35:40Z</time>
      </trkpt>
      <trkpt lat="44.77387" lon="-0.1173">
        <ele>82</ele>
        <time>2022-10-06T09:35:41Z</time>
      </trkpt>
      <trkpt lat="44.77386" lon="-0.1173">
        <ele>82.1</ele>
        <time>2022-10-06T09:35:42Z</time>
      </trkpt>
      <trkpt lat="44.77384" lon="-0.1173">
        <ele>82.1</ele>
        <time>2022-10-06T09:35:44Z</time>
      </trkpt>
      <trkpt lat="44.77382" lon="-0.1173">
        <ele>82.1</ele>
        <time>2022-10-06T09:35:45Z</time>
      </trkpt>
      <trkpt lat="44.77382" lon="-0.1173">
        <ele>82.1</ele>
        <time>2022-10-06T09:35:46Z</time>
      </trkpt>
      <trkpt lat="44.77381" lon="-0.1173">
        <ele>82.1</ele>
        <time>2022-10-06T09:35:47Z</time>
      </trkpt>
      <trkpt lat="44.7738" lon="-0.1173">
        <ele>82.1</ele>
        <time>2022-10-06T09:35:48Z</time>
      </trkpt>
      <trkpt lat="44.77379" lon="-0.11729">
        <ele>82.1</ele>
        <time>2022-10-06T09:35:49Z</time>
      </trkpt>
      <trkpt lat="44.77377" lon="-0.11729">
        <ele>82.1</ele>
        <time>2022-10-06T09:35:50Z</time>
      </trkpt>
      <trkpt lat="44.77376" lon="-0.11729">
        <ele>82.1</ele>
        <time>2022-10-06T09:35:51Z</time>
      </trkpt>
      <trkpt lat="44.77375" lon="-0.11728">
        <ele>82.1</ele>
        <time>2022-10-06T09:35:52Z</time>
      </trkpt>
      <trkpt lat="44.77373" lon="-0.11728">
        <ele>82.2</ele>
        <time>2022-10-06T09:35:53Z</time>
      </trkpt>
      <trkpt lat="44.77372" lon="-0.11728">
        <ele>82.2</ele>
        <time>2022-10-06T09:35:54Z</time>
      </trkpt>
      <trkpt lat="44.77371" lon="-0.11727">
        <ele>82.2</ele>
        <time>2022-10-06T09:35:55Z</time>
      </trkpt>
      <trkpt lat="44.77369" lon="-0.11729">
        <ele>82.2</ele>
        <time>2022-10-06T09:35:57Z</time>
      </trkpt>
      <trkpt lat="44.77369" lon="-0.11729">
        <ele>82.2</ele>
        <time>2022-10-06T09:35:58Z</time>
      </trkpt>
      <trkpt lat="44.77368" lon="-0.1173">
        <ele>82.2</ele>
        <time>2022-10-06T09:35:59Z</time>
      </trkpt>
      <trkpt lat="44.77366" lon="-0.11731">
        <ele>82.2</ele>
        <time>2022-10-06T09:36:00Z</time>
      </trkpt>
      <trkpt lat="44.77366" lon="-0.11731">
        <ele>82.2</ele>
        <time>2022-10-06T09:36:01Z</time>
      </trkpt>
      <trkpt lat="44.77365" lon="-0.11731">
        <ele>82.2</ele>
        <time>2022-10-06T09:36:02Z</time>
      </trkpt>
      <trkpt lat="44.77363" lon="-0.11731">
        <ele>82.2</ele>
        <time>2022-10-06T09:36:03Z</time>
      </trkpt>
      <trkpt lat="44.77361" lon="-0.11731">
        <ele>82.2</ele>
        <time>2022-10-06T09:36:05Z</time>
      </trkpt>
      <trkpt lat="44.7736" lon="-0.11731">
        <ele>82.3</ele>
        <time>2022-10-06T09:36:06Z</time>
      </trkpt>
      <trkpt lat="44.77359" lon="-0.11731">
        <ele>82.3</ele>
        <time>2022-10-06T09:36:07Z</time>
      </trkpt>
      <trkpt lat="44.77356" lon="-0.11731">
        <ele>82.3</ele>
        <time>2022-10-06T09:36:09Z</time>
      </trkpt>
      <trkpt lat="44.77355" lon="-0.11731">
        <ele>82.3</ele>
        <time>2022-10-06T09:36:10Z</time>
      </trkpt>
      <trkpt lat="44.77353" lon="-0.1173">
        <ele>82.3</ele>
        <time>2022-10-06T09:36:12Z</time>
      </trkpt>
      <trkpt lat="44.77352" lon="-0.11729">
        <ele>82.3</ele>
        <time>2022-10-06T09:36:14Z</time>
      </trkpt>
      <trkpt lat="44.77351" lon="-0.11728">
        <ele>82.3</ele>
        <time>2022-10-06T09:36:15Z</time>
      </trkpt>
      <trkpt lat="44.77349" lon="-0.11728">
        <ele>82.3</ele>
        <time>2022-10-06T09:36:17Z</time>
      </trkpt>
      <trkpt lat="44.77348" lon="-0.11728">
        <ele>82.3</ele>
        <time>2022-10-06T09:36:18Z</time>
      </trkpt>
      <trkpt lat="44.77346" lon="-0.11727">
        <ele>82.4</ele>
        <time>2022-10-06T09:36:19Z</time>
      </trkpt>
      <trkpt lat="44.77345" lon="-0.11727">
        <ele>82.4</ele>
        <time>2022-10-06T09:36:21Z</time>
      </trkpt>
      <trkpt lat="44.77343" lon="-0.11727">
        <ele>82.4</ele>
        <time>2022-10-06T09:36:22Z</time>
      </trkpt>
      <trkpt lat="44.7734" lon="-0.11728">
        <ele>82.4</ele>
        <time>2022-10-06T09:36:23Z</time>
      </trkpt>
      <trkpt lat="44.77339" lon="-0.11728">
        <ele>82.4</ele>
        <time>2022-10-06T09:36:25Z</time>
      </trkpt>
      <trkpt lat="44.77337" lon="-0.11728">
        <ele>82.4</ele>
        <time>2022-10-06T09:36:26Z</time>
      </trkpt>
      <trkpt lat="44.77336" lon="-0.11729">
        <ele>82.4</ele>
        <time>2022-10-06T09:36:27Z</time>
      </trkpt>
      <trkpt lat="44.77336" lon="-0.11729">
        <ele>82.4</ele>
        <time>2022-10-06T09:36:28Z</time>
      </trkpt>
      <trkpt lat="44.77333" lon="-0.11729">
        <ele>82.4</ele>
        <time>2022-10-06T09:36:29Z</time>
      </trkpt>
      <trkpt lat="44.77332" lon="-0.1173">
        <ele>82.4</ele>
        <time>2022-10-06T09:36:31Z</time>
      </trkpt>
      <trkpt lat="44.77331" lon="-0.1173">
        <ele>82.4</ele>
        <time>2022-10-06T09:36:32Z</time>
      </trkpt>
      <trkpt lat="44.7733" lon="-0.11731">
        <ele>82.4</ele>
        <time>2022-10-06T09:36:34Z</time>
      </trkpt>
      <trkpt lat="44.77327" lon="-0.11732">
        <ele>82.4</ele>
        <time>2022-10-06T09:36:35Z</time>
      </trkpt>
      <trkpt lat="44.77325" lon="-0.11732">
        <ele>82.4</ele>
        <time>2022-10-06T09:36:36Z</time>
      </trkpt>
      <trkpt lat="44.77324" lon="-0.11733">
        <ele>82.4</ele>
        <time>2022-10-06T09:36:38Z</time>
      </trkpt>
      <trkpt lat="44.77322" lon="-0.11733">
        <ele>82.4</ele>
        <time>2022-10-06T09:36:39Z</time>
      </trkpt>
      <trkpt lat="44.7732" lon="-0.11734">
        <ele>82.4</ele>
        <time>2022-10-06T09:36:40Z</time>
      </trkpt>
      <trkpt lat="44.7732" lon="-0.11734">
        <ele>82.4</ele>
        <time>2022-10-06T09:36:42Z</time>
      </trkpt>
      <trkpt lat="44.77319" lon="-0.11735">
        <ele>82.5</ele>
        <time>2022-10-06T09:36:43Z</time>
      </trkpt>
      <trkpt lat="44.77317" lon="-0.11736">
        <ele>82.5</ele>
        <time>2022-10-06T09:36:44Z</time>
      </trkpt>
      <trkpt lat="44.77316" lon="-0.11737">
        <ele>82.5</ele>
        <time>2022-10-06T09:36:45Z</time>
      </trkpt>
      <trkpt lat="44.77313" lon="-0.11738">
        <ele>82.5</ele>
        <time>2022-10-06T09:36:47Z</time>
      </trkpt>
      <trkpt lat="44.77312" lon="-0.11738">
        <ele>82.5</ele>
        <time>2022-10-06T09:36:48Z</time>
      </trkpt>
      <trkpt lat="44.77311" lon="-0.11739">
        <ele>82.5</ele>
        <time>2022-10-06T09:36:49Z</time>
      </trkpt>
      <trkpt lat="44.7731" lon="-0.11739">
        <ele>82.5</ele>
        <time>2022-10-06T09:36:50Z</time>
      </trkpt>
      <trkpt lat="44.77308" lon="-0.1174">
        <ele>82.5</ele>
        <time>2022-10-06T09:36:52Z</time>
      </trkpt>
      <trkpt lat="44.77306" lon="-0.1174">
        <ele>82.5</ele>
        <time>2022-10-06T09:36:53Z</time>
      </trkpt>
      <trkpt lat="44.77305" lon="-0.11741">
        <ele>82.5</ele>
        <time>2022-10-06T09:36:54Z</time>
      </trkpt>
      <trkpt lat="44.77304" lon="-0.11741">
        <ele>82.5</ele>
        <time>2022-10-06T09:36:55Z</time>
      </trkpt>
      <trkpt lat="44.77302" lon="-0.11742">
        <ele>82.5</ele>
        <time>2022-10-06T09:36:57Z</time>
      </trkpt>
      <trkpt lat="44.77301" lon="-0.11742">
        <ele>82.5</ele>
        <time>2022-10-06T09:36:58Z</time>
      </trkpt>
      <trkpt lat="44.773" lon="-0.11743">
        <ele>82.5</ele>
        <time>2022-10-06T09:36:59Z</time>
      </trkpt>
      <trkpt lat="44.77298" lon="-0.11744">
        <ele>82.5</ele>
        <time>2022-10-06T09:37:01Z</time>
      </trkpt>
      <trkpt lat="44.77296" lon="-0.11745">
        <ele>82.5</ele>
        <time>2022-10-06T09:37:02Z</time>
      </trkpt>
      <trkpt lat="44.77295" lon="-0.11746">
        <ele>82.5</ele>
        <time>2022-10-06T09:37:03Z</time>
      </trkpt>
      <trkpt lat="44.77294" lon="-0.11746">
        <ele>82.5</ele>
        <time>2022-10-06T09:37:04Z</time>
      </trkpt>
      <trkpt lat="44.77293" lon="-0.11747">
        <ele>82.5</ele>
        <time>2022-10-06T09:37:05Z</time>
      </trkpt>
      <trkpt lat="44.77291" lon="-0.11747">
        <ele>82.5</ele>
        <time>2022-10-06T09:37:07Z</time>
      </trkpt>
      <trkpt lat="44.7729" lon="-0.11748">
        <ele>82.5</ele>
        <time>2022-10-06T09:37:08Z</time>
      </trkpt>
      <trkpt lat="44.77289" lon="-0.11749">
        <ele>82.5</ele>
        <time>2022-10-06T09:37:09Z</time>
      </trkpt>
      <trkpt lat="44.77287" lon="-0.1175">
        <ele>82.5</ele>
        <time>2022-10-06T09:37:10Z</time>
      </trkpt>
      <trkpt lat="44.77286" lon="-0.11751">
        <ele>82.5</ele>
        <time>2022-10-06T09:37:11Z</time>
      </trkpt>
      <trkpt lat="44.77285" lon="-0.11752">
        <ele>82.5</ele>
        <time>2022-10-06T09:37:12Z</time>
      </trkpt>
      <trkpt lat="44.77283" lon="-0.11754">
        <ele>82.5</ele>
        <time>2022-10-06T09:37:14Z</time>
      </trkpt>
      <trkpt lat="44.77282" lon="-0.11754">
        <ele>82.5</ele>
        <time>2022-10-06T09:37:15Z</time>
      </trkpt>
      <trkpt lat="44.7728" lon="-0.11756">
        <ele>82.5</ele>
        <time>2022-10-06T09:37:17Z</time>
      </trkpt>
      <trkpt lat="44.77279" lon="-0.11756">
        <ele>82.5</ele>
        <time>2022-10-06T09:37:18Z</time>
      </trkpt>
      <trkpt lat="44.77278" lon="-0.11757">
        <ele>82.5</ele>
        <time>2022-10-06T09:37:19Z</time>
      </trkpt>
      <trkpt lat="44.77277" lon="-0.11757">
        <ele>82.5</ele>
        <time>2022-10-06T09:37:20Z</time>
      </trkpt>
      <trkpt lat="44.77275" lon="-0.11758">
        <ele>82.5</ele>
        <time>2022-10-06T09:37:22Z</time>
      </trkpt>
      <trkpt lat="44.77274" lon="-0.11759">
        <ele>82.5</ele>
        <time>2022-10-06T09:37:23Z</time>
      </trkpt>
      <trkpt lat="44.77273" lon="-0.1176">
        <ele>82.5</ele>
        <time>2022-10-06T09:37:24Z</time>
      </trkpt>
      <trkpt lat="44.77271" lon="-0.11761">
        <ele>82.5</ele>
        <time>2022-10-06T09:37:25Z</time>
      </trkpt>
      <trkpt lat="44.7727" lon="-0.11761">
        <ele>82.5</ele>
        <time>2022-10-06T09:37:26Z</time>
      </trkpt>
      <trkpt lat="44.77269" lon="-0.11762">
        <ele>82.5</ele>
        <time>2022-10-06T09:37:28Z</time>
      </trkpt>
      <trkpt lat="44.77267" lon="-0.11762">
        <ele>82.5</ele>
        <time>2022-10-06T09:37:29Z</time>
      </trkpt>
      <trkpt lat="44.77265" lon="-0.11763">
        <ele>82.5</ele>
        <time>2022-10-06T09:37:30Z</time>
      </trkpt>
      <trkpt lat="44.77264" lon="-0.11764">
        <ele>82.5</ele>
        <time>2022-10-06T09:37:31Z</time>
      </trkpt>
      <trkpt lat="44.77264" lon="-0.11765">
        <ele>82.5</ele>
        <time>2022-10-06T09:37:32Z</time>
      </trkpt>
      <trkpt lat="44.77262" lon="-0.11766">
        <ele>82.5</ele>
        <time>2022-10-06T09:37:34Z</time>
      </trkpt>
      <trkpt lat="44.77261" lon="-0.11766">
        <ele>82.5</ele>
        <time>2022-10-06T09:37:35Z</time>
      </trkpt>
      <trkpt lat="44.77259" lon="-0.11767">
        <ele>82.5</ele>
        <time>2022-10-06T09:37:36Z</time>
      </trkpt>
      <trkpt lat="44.77258" lon="-0.11768">
        <ele>82.5</ele>
        <time>2022-10-06T09:37:38Z</time>
      </trkpt>
      <trkpt lat="44.77256" lon="-0.11771">
        <ele>82.5</ele>
        <time>2022-10-06T09:37:39Z</time>
      </trkpt>
      <trkpt lat="44.77255" lon="-0.11771">
        <ele>82.5</ele>
        <time>2022-10-06T09:37:40Z</time>
      </trkpt>
      <trkpt lat="44.77253" lon="-0.11774">
        <ele>82.5</ele>
        <time>2022-10-06T09:37:42Z</time>
      </trkpt>
      <trkpt lat="44.77251" lon="-0.11775">
        <ele>82.5</ele>
        <time>2022-10-06T09:37:44Z</time>
      </trkpt>
      <trkpt lat="44.77249" lon="-0.11776">
        <ele>82.5</ele>
        <time>2022-10-06T09:37:45Z</time>
      </trkpt>
      <trkpt lat="44.77248" lon="-0.11776">
        <ele>82.5</ele>
        <time>2022-10-06T09:37:46Z</time>
      </trkpt>
      <trkpt lat="44.77248" lon="-0.11777">
        <ele>82.5</ele>
        <time>2022-10-06T09:37:47Z</time>
      </trkpt>
      <trkpt lat="44.77247" lon="-0.11777">
        <ele>82.5</ele>
        <time>2022-10-06T09:37:48Z</time>
      </trkpt>
      <trkpt lat="44.77246" lon="-0.11778">
        <ele>82.5</ele>
        <time>2022-10-06T09:37:49Z</time>
      </trkpt>
      <trkpt lat="44.77245" lon="-0.11779">
        <ele>82.5</ele>
        <time>2022-10-06T09:37:50Z</time>
      </trkpt>
      <trkpt lat="44.77243" lon="-0.1178">
        <ele>82.5</ele>
        <time>2022-10-06T09:37:52Z</time>
      </trkpt>
      <trkpt lat="44.77242" lon="-0.1178">
        <ele>82.5</ele>
        <time>2022-10-06T09:37:53Z</time>
      </trkpt>
      <trkpt lat="44.7724" lon="-0.11782">
        <ele>82.5</ele>
        <time>2022-10-06T09:37:54Z</time>
      </trkpt>
      <trkpt lat="44.77239" lon="-0.11782">
        <ele>82.5</ele>
        <time>2022-10-06T09:37:55Z</time>
      </trkpt>
      <trkpt lat="44.77237" lon="-0.11783">
        <ele>82.4</ele>
        <time>2022-10-06T09:37:57Z</time>
      </trkpt>
      <trkpt lat="44.77236" lon="-0.11784">
        <ele>82.4</ele>
        <time>2022-10-06T09:37:58Z</time>
      </trkpt>
      <trkpt lat="44.77235" lon="-0.11785">
        <ele>82.4</ele>
        <time>2022-10-06T09:37:59Z</time>
      </trkpt>
      <trkpt lat="44.77234" lon="-0.11785">
        <ele>82.4</ele>
        <time>2022-10-06T09:38:00Z</time>
      </trkpt>
      <trkpt lat="44.77232" lon="-0.11786">
        <ele>82.4</ele>
        <time>2022-10-06T09:38:01Z</time>
      </trkpt>
      <trkpt lat="44.77231" lon="-0.11786">
        <ele>82.4</ele>
        <time>2022-10-06T09:38:02Z</time>
      </trkpt>
      <trkpt lat="44.7723" lon="-0.11786">
        <ele>82.4</ele>
        <time>2022-10-06T09:38:03Z</time>
      </trkpt>
      <trkpt lat="44.77229" lon="-0.11786">
        <ele>82.4</ele>
        <time>2022-10-06T09:38:04Z</time>
      </trkpt>
      <trkpt lat="44.77226" lon="-0.11788">
        <ele>82.4</ele>
        <time>2022-10-06T09:38:05Z</time>
      </trkpt>
      <trkpt lat="44.77225" lon="-0.11788">
        <ele>82.4</ele>
        <time>2022-10-06T09:38:07Z</time>
      </trkpt>
      <trkpt lat="44.77224" lon="-0.11789">
        <ele>82.4</ele>
        <time>2022-10-06T09:38:08Z</time>
      </trkpt>
      <trkpt lat="44.77222" lon="-0.11789">
        <ele>82.4</ele>
        <time>2022-10-06T09:38:09Z</time>
      </trkpt>
      <trkpt lat="44.77221" lon="-0.1179">
        <ele>82.4</ele>
        <time>2022-10-06T09:38:10Z</time>
      </trkpt>
      <trkpt lat="44.7722" lon="-0.11791">
        <ele>82.4</ele>
        <time>2022-10-06T09:38:11Z</time>
      </trkpt>
      <trkpt lat="44.77219" lon="-0.11791">
        <ele>82.4</ele>
        <time>2022-10-06T09:38:12Z</time>
      </trkpt>
      <trkpt lat="44.77218" lon="-0.11792">
        <ele>82.4</ele>
        <time>2022-10-06T09:38:13Z</time>
      </trkpt>
      <trkpt lat="44.77217" lon="-0.11792">
        <ele>82.4</ele>
        <time>2022-10-06T09:38:14Z</time>
      </trkpt>
      <trkpt lat="44.77216" lon="-0.11793">
        <ele>82.4</ele>
        <time>2022-10-06T09:38:15Z</time>
      </trkpt>
      <trkpt lat="44.77214" lon="-0.11794">
        <ele>82.4</ele>
        <time>2022-10-06T09:38:17Z</time>
      </trkpt>
      <trkpt lat="44.77211" lon="-0.11796">
        <ele>82.4</ele>
        <time>2022-10-06T09:38:19Z</time>
      </trkpt>
      <trkpt lat="44.7721" lon="-0.11796">
        <ele>82.4</ele>
        <time>2022-10-06T09:38:20Z</time>
      </trkpt>
      <trkpt lat="44.77209" lon="-0.11797">
        <ele>82.4</ele>
        <time>2022-10-06T09:38:21Z</time>
      </trkpt>
      <trkpt lat="44.77207" lon="-0.11798">
        <ele>82.4</ele>
        <time>2022-10-06T09:38:23Z</time>
      </trkpt>
      <trkpt lat="44.77206" lon="-0.11798">
        <ele>82.4</ele>
        <time>2022-10-06T09:38:24Z</time>
      </trkpt>
      <trkpt lat="44.77205" lon="-0.11799">
        <ele>82.4</ele>
        <time>2022-10-06T09:38:25Z</time>
      </trkpt>
      <trkpt lat="44.77203" lon="-0.118">
        <ele>82.4</ele>
        <time>2022-10-06T09:38:26Z</time>
      </trkpt>
      <trkpt lat="44.77201" lon="-0.11802">
        <ele>82.3</ele>
        <time>2022-10-06T09:38:27Z</time>
      </trkpt>
      <trkpt lat="44.772" lon="-0.11802">
        <ele>82.3</ele>
        <time>2022-10-06T09:38:29Z</time>
      </trkpt>
      <trkpt lat="44.77199" lon="-0.11803">
        <ele>82.3</ele>
        <time>2022-10-06T09:38:30Z</time>
      </trkpt>
      <trkpt lat="44.77197" lon="-0.11803">
        <ele>82.3</ele>
        <time>2022-10-06T09:38:32Z</time>
      </trkpt>
      <trkpt lat="44.77196" lon="-0.11804">
        <ele>82.3</ele>
        <time>2022-10-06T09:38:33Z</time>
      </trkpt>
      <trkpt lat="44.77195" lon="-0.11805">
        <ele>82.3</ele>
        <time>2022-10-06T09:38:34Z</time>
      </trkpt>
      <trkpt lat="44.77194" lon="-0.11805">
        <ele>82.3</ele>
        <time>2022-10-06T09:38:35Z</time>
      </trkpt>
      <trkpt lat="44.77192" lon="-0.11806">
        <ele>82.3</ele>
        <time>2022-10-06T09:38:36Z</time>
      </trkpt>
      <trkpt lat="44.77191" lon="-0.11806">
        <ele>82.3</ele>
        <time>2022-10-06T09:38:37Z</time>
      </trkpt>
      <trkpt lat="44.7719" lon="-0.11807">
        <ele>82.3</ele>
        <time>2022-10-06T09:38:38Z</time>
      </trkpt>
      <trkpt lat="44.77189" lon="-0.11808">
        <ele>82.3</ele>
        <time>2022-10-06T09:38:39Z</time>
      </trkpt>
      <trkpt lat="44.77188" lon="-0.11808">
        <ele>82.3</ele>
        <time>2022-10-06T09:38:40Z</time>
      </trkpt>
      <trkpt lat="44.77185" lon="-0.1181">
        <ele>82.3</ele>
        <time>2022-10-06T09:38:42Z</time>
      </trkpt>
      <trkpt lat="44.77184" lon="-0.1181">
        <ele>82.3</ele>
        <time>2022-10-06T09:38:43Z</time>
      </trkpt>
      <trkpt lat="44.77181" lon="-0.11812">
        <ele>82.3</ele>
        <time>2022-10-06T09:38:45Z</time>
      </trkpt>
      <trkpt lat="44.7718" lon="-0.11812">
        <ele>82.3</ele>
        <time>2022-10-06T09:38:46Z</time>
      </trkpt>
      <trkpt lat="44.7718" lon="-0.11813">
        <ele>82.3</ele>
        <time>2022-10-06T09:38:47Z</time>
      </trkpt>
      <trkpt lat="44.77179" lon="-0.11814">
        <ele>82.3</ele>
        <time>2022-10-06T09:38:48Z</time>
      </trkpt>
      <trkpt lat="44.77177" lon="-0.11815">
        <ele>82.3</ele>
        <time>2022-10-06T09:38:49Z</time>
      </trkpt>
      <trkpt lat="44.77176" lon="-0.11816">
        <ele>82.3</ele>
        <time>2022-10-06T09:38:50Z</time>
      </trkpt>
      <trkpt lat="44.77175" lon="-0.11817">
        <ele>82.3</ele>
        <time>2022-10-06T09:38:51Z</time>
      </trkpt>
      <trkpt lat="44.77174" lon="-0.11817">
        <ele>82.3</ele>
        <time>2022-10-06T09:38:52Z</time>
      </trkpt>
      <trkpt lat="44.77172" lon="-0.11818">
        <ele>82.3</ele>
        <time>2022-10-06T09:38:54Z</time>
      </trkpt>
      <trkpt lat="44.77171" lon="-0.11819">
        <ele>82.3</ele>
        <time>2022-10-06T09:38:55Z</time>
      </trkpt>
      <trkpt lat="44.77169" lon="-0.1182">
        <ele>82.3</ele>
        <time>2022-10-06T09:38:56Z</time>
      </trkpt>
      <trkpt lat="44.77168" lon="-0.11822">
        <ele>82.3</ele>
        <time>2022-10-06T09:38:58Z</time>
      </trkpt>
      <trkpt lat="44.77167" lon="-0.11823">
        <ele>82.3</ele>
        <time>2022-10-06T09:38:59Z</time>
      </trkpt>
      <trkpt lat="44.77166" lon="-0.11824">
        <ele>82.3</ele>
        <time>2022-10-06T09:39:00Z</time>
      </trkpt>
      <trkpt lat="44.77166" lon="-0.11826">
        <ele>82.3</ele>
        <time>2022-10-06T09:39:01Z</time>
      </trkpt>
      <trkpt lat="44.77165" lon="-0.11827">
        <ele>82.3</ele>
        <time>2022-10-06T09:39:02Z</time>
      </trkpt>
      <trkpt lat="44.77165" lon="-0.11828">
        <ele>82.3</ele>
        <time>2022-10-06T09:39:03Z</time>
      </trkpt>
      <trkpt lat="44.77164" lon="-0.1183">
        <ele>82.3</ele>
        <time>2022-10-06T09:39:04Z</time>
      </trkpt>
      <trkpt lat="44.77164" lon="-0.1183">
        <ele>82.3</ele>
        <time>2022-10-06T09:39:05Z</time>
      </trkpt>
      <trkpt lat="44.77162" lon="-0.11831">
        <ele>82.2</ele>
        <time>2022-10-06T09:39:06Z</time>
      </trkpt>
      <trkpt lat="44.77161" lon="-0.1183">
        <ele>82.2</ele>
        <time>2022-10-06T09:39:07Z</time>
      </trkpt>
      <trkpt lat="44.7716" lon="-0.1183">
        <ele>82.2</ele>
        <time>2022-10-06T09:39:08Z</time>
      </trkpt>
      <trkpt lat="44.7716" lon="-0.11828">
        <ele>82.2</ele>
        <time>2022-10-06T09:39:09Z</time>
      </trkpt>
      <trkpt lat="44.77159" lon="-0.11827">
        <ele>82.2</ele>
        <time>2022-10-06T09:39:10Z</time>
      </trkpt>
      <trkpt lat="44.77158" lon="-0.11825">
        <ele>82.2</ele>
        <time>2022-10-06T09:39:11Z</time>
      </trkpt>
      <trkpt lat="44.77158" lon="-0.11823">
        <ele>82.2</ele>
        <time>2022-10-06T09:39:12Z</time>
      </trkpt>
      <trkpt lat="44.77157" lon="-0.11822">
        <ele>82.2</ele>
        <time>2022-10-06T09:39:13Z</time>
      </trkpt>
      <trkpt lat="44.77157" lon="-0.11822">
        <ele>82.2</ele>
        <time>2022-10-06T09:39:14Z</time>
      </trkpt>
      <trkpt lat="44.77156" lon="-0.11822">
        <ele>82.2</ele>
        <time>2022-10-06T09:39:15Z</time>
      </trkpt>
      <trkpt lat="44.77154" lon="-0.11822">
        <ele>82.2</ele>
        <time>2022-10-06T09:39:16Z</time>
      </trkpt>
      <trkpt lat="44.77153" lon="-0.11822">
        <ele>82.2</ele>
        <time>2022-10-06T09:39:17Z</time>
      </trkpt>
      <trkpt lat="44.77152" lon="-0.11823">
        <ele>82.2</ele>
        <time>2022-10-06T09:39:18Z</time>
      </trkpt>
      <trkpt lat="44.77151" lon="-0.11823">
        <ele>82.2</ele>
        <time>2022-10-06T09:39:19Z</time>
      </trkpt>
      <trkpt lat="44.7715" lon="-0.11823">
        <ele>82.2</ele>
        <time>2022-10-06T09:39:20Z</time>
      </trkpt>
      <trkpt lat="44.77148" lon="-0.11823">
        <ele>82.2</ele>
        <time>2022-10-06T09:39:21Z</time>
      </trkpt>
      <trkpt lat="44.77147" lon="-0.11823">
        <ele>82.2</ele>
        <time>2022-10-06T09:39:22Z</time>
      </trkpt>
      <trkpt lat="44.77146" lon="-0.11822">
        <ele>82.2</ele>
        <time>2022-10-06T09:39:24Z</time>
      </trkpt>
      <trkpt lat="44.77144" lon="-0.11822">
        <ele>82.2</ele>
        <time>2022-10-06T09:39:25Z</time>
      </trkpt>
      <trkpt lat="44.77142" lon="-0.11822">
        <ele>82.2</ele>
        <time>2022-10-06T09:39:27Z</time>
      </trkpt>
      <trkpt lat="44.7714" lon="-0.11821">
        <ele>82.2</ele>
        <time>2022-10-06T09:39:28Z</time>
      </trkpt>
      <trkpt lat="44.77139" lon="-0.11819">
        <ele>82.2</ele>
        <time>2022-10-06T09:39:29Z</time>
      </trkpt>
      <trkpt lat="44.77139" lon="-0.11818">
        <ele>82.2</ele>
        <time>2022-10-06T09:39:30Z</time>
      </trkpt>
      <trkpt lat="44.77136" lon="-0.11817">
        <ele>82.2</ele>
        <time>2022-10-06T09:39:32Z</time>
      </trkpt>
      <trkpt lat="44.77134" lon="-0.11817">
        <ele>82.2</ele>
        <time>2022-10-06T09:39:33Z</time>
      </trkpt>
      <trkpt lat="44.77134" lon="-0.11818">
        <ele>82.2</ele>
        <time>2022-10-06T09:39:34Z</time>
      </trkpt>
      <trkpt lat="44.77133" lon="-0.11819">
        <ele>82.2</ele>
        <time>2022-10-06T09:39:36Z</time>
      </trkpt>
      <trkpt lat="44.7713" lon="-0.11819">
        <ele>82.2</ele>
        <time>2022-10-06T09:39:38Z</time>
      </trkpt>
      <trkpt lat="44.77129" lon="-0.1182">
        <ele>82.2</ele>
        <time>2022-10-06T09:39:40Z</time>
      </trkpt>
      <trkpt lat="44.77126" lon="-0.11821">
        <ele>82.2</ele>
        <time>2022-10-06T09:39:42Z</time>
      </trkpt>
      <trkpt lat="44.77126" lon="-0.11821">
        <ele>82.2</ele>
        <time>2022-10-06T09:39:43Z</time>
      </trkpt>
      <trkpt lat="44.77124" lon="-0.1182">
        <ele>82.2</ele>
        <time>2022-10-06T09:39:44Z</time>
      </trkpt>
      <trkpt lat="44.77123" lon="-0.11821">
        <ele>82.2</ele>
        <time>2022-10-06T09:39:45Z</time>
      </trkpt>
      <trkpt lat="44.77121" lon="-0.11822">
        <ele>82.2</ele>
        <time>2022-10-06T09:39:46Z</time>
      </trkpt>
      <trkpt lat="44.7712" lon="-0.11822">
        <ele>82.2</ele>
        <time>2022-10-06T09:39:48Z</time>
      </trkpt>
      <trkpt lat="44.7712" lon="-0.11822">
        <ele>82.2</ele>
        <time>2022-10-06T09:39:49Z</time>
      </trkpt>
      <trkpt lat="44.77116" lon="-0.11822">
        <ele>82.2</ele>
        <time>2022-10-06T09:39:50Z</time>
      </trkpt>
      <trkpt lat="44.77116" lon="-0.11823">
        <ele>82.2</ele>
        <time>2022-10-06T09:39:51Z</time>
      </trkpt>
      <trkpt lat="44.77115" lon="-0.11823">
        <ele>82.2</ele>
        <time>2022-10-06T09:39:53Z</time>
      </trkpt>
      <trkpt lat="44.77114" lon="-0.11824">
        <ele>82.2</ele>
        <time>2022-10-06T09:39:54Z</time>
      </trkpt>
      <trkpt lat="44.77112" lon="-0.11825">
        <ele>82.2</ele>
        <time>2022-10-06T09:39:55Z</time>
      </trkpt>
      <trkpt lat="44.7711" lon="-0.11825">
        <ele>82.2</ele>
        <time>2022-10-06T09:39:56Z</time>
      </trkpt>
      <trkpt lat="44.77109" lon="-0.11826">
        <ele>82.2</ele>
        <time>2022-10-06T09:39:58Z</time>
      </trkpt>
      <trkpt lat="44.77108" lon="-0.11826">
        <ele>82.2</ele>
        <time>2022-10-06T09:39:59Z</time>
      </trkpt>
      <trkpt lat="44.77106" lon="-0.11828">
        <ele>82.2</ele>
        <time>2022-10-06T09:40:00Z</time>
      </trkpt>
      <trkpt lat="44.77103" lon="-0.11829">
        <ele>82.2</ele>
        <time>2022-10-06T09:40:02Z</time>
      </trkpt>
      <trkpt lat="44.77102" lon="-0.11829">
        <ele>82.2</ele>
        <time>2022-10-06T09:40:03Z</time>
      </trkpt>
      <trkpt lat="44.771" lon="-0.1183">
        <ele>82.2</ele>
        <time>2022-10-06T09:40:05Z</time>
      </trkpt>
      <trkpt lat="44.77099" lon="-0.1183">
        <ele>82.2</ele>
        <time>2022-10-06T09:40:06Z</time>
      </trkpt>
      <trkpt lat="44.77098" lon="-0.1183">
        <ele>82.2</ele>
        <time>2022-10-06T09:40:07Z</time>
      </trkpt>
      <trkpt lat="44.77097" lon="-0.11831">
        <ele>82.2</ele>
        <time>2022-10-06T09:40:08Z</time>
      </trkpt>
      <trkpt lat="44.77096" lon="-0.11831">
        <ele>82.2</ele>
        <time>2022-10-06T09:40:09Z</time>
      </trkpt>
      <trkpt lat="44.77094" lon="-0.11832">
        <ele>82.2</ele>
        <time>2022-10-06T09:40:10Z</time>
      </trkpt>
      <trkpt lat="44.77093" lon="-0.11832">
        <ele>82.2</ele>
        <time>2022-10-06T09:40:11Z</time>
      </trkpt>
      <trkpt lat="44.77091" lon="-0.11832">
        <ele>82.2</ele>
        <time>2022-10-06T09:40:13Z</time>
      </trkpt>
      <trkpt lat="44.77089" lon="-0.11833">
        <ele>82.2</ele>
        <time>2022-10-06T09:40:15Z</time>
      </trkpt>
      <trkpt lat="44.77087" lon="-0.11834">
        <ele>82.2</ele>
        <time>2022-10-06T09:40:16Z</time>
      </trkpt>
      <trkpt lat="44.77087" lon="-0.11834">
        <ele>82.2</ele>
        <time>2022-10-06T09:40:18Z</time>
      </trkpt>
      <trkpt lat="44.77084" lon="-0.11834">
        <ele>82.2</ele>
        <time>2022-10-06T09:40:19Z</time>
      </trkpt>
      <trkpt lat="44.77083" lon="-0.11835">
        <ele>82.2</ele>
        <time>2022-10-06T09:40:20Z</time>
      </trkpt>
      <trkpt lat="44.77082" lon="-0.11835">
        <ele>82.2</ele>
        <time>2022-10-06T09:40:22Z</time>
      </trkpt>
      <trkpt lat="44.7708" lon="-0.11836">
        <ele>82.2</ele>
        <time>2022-10-06T09:40:23Z</time>
      </trkpt>
      <trkpt lat="44.77079" lon="-0.11836">
        <ele>82.2</ele>
        <time>2022-10-06T09:40:24Z</time>
      </trkpt>
      <trkpt lat="44.77077" lon="-0.11836">
        <ele>82.2</ele>
        <time>2022-10-06T09:40:25Z</time>
      </trkpt>
      <trkpt lat="44.77075" lon="-0.11837">
        <ele>82.2</ele>
        <time>2022-10-06T09:40:26Z</time>
      </trkpt>
      <trkpt lat="44.77073" lon="-0.11837">
        <ele>82.2</ele>
        <time>2022-10-06T09:40:28Z</time>
      </trkpt>
      <trkpt lat="44.77071" lon="-0.11838">
        <ele>82.1</ele>
        <time>2022-10-06T09:40:30Z</time>
      </trkpt>
      <trkpt lat="44.77069" lon="-0.11838">
        <ele>82.1</ele>
        <time>2022-10-06T09:40:31Z</time>
      </trkpt>
      <trkpt lat="44.77068" lon="-0.11838">
        <ele>82.1</ele>
        <time>2022-10-06T09:40:32Z</time>
      </trkpt>
      <trkpt lat="44.77067" lon="-0.11839">
        <ele>82.1</ele>
        <time>2022-10-06T09:40:33Z</time>
      </trkpt>
      <trkpt lat="44.77066" lon="-0.11839">
        <ele>82.1</ele>
        <time>2022-10-06T09:40:34Z</time>
      </trkpt>
      <trkpt lat="44.77064" lon="-0.1184">
        <ele>82.1</ele>
        <time>2022-10-06T09:40:35Z</time>
      </trkpt>
      <trkpt lat="44.77063" lon="-0.1184">
        <ele>82.1</ele>
        <time>2022-10-06T09:40:36Z</time>
      </trkpt>
      <trkpt lat="44.77061" lon="-0.11841">
        <ele>82.1</ele>
        <time>2022-10-06T09:40:37Z</time>
      </trkpt>
      <trkpt lat="44.7706" lon="-0.11841">
        <ele>82.1</ele>
        <time>2022-10-06T09:40:38Z</time>
      </trkpt>
      <trkpt lat="44.77059" lon="-0.11841">
        <ele>82.1</ele>
        <time>2022-10-06T09:40:39Z</time>
      </trkpt>
      <trkpt lat="44.77058" lon="-0.11842">
        <ele>82.1</ele>
        <time>2022-10-06T09:40:40Z</time>
      </trkpt>
      <trkpt lat="44.77055" lon="-0.11842">
        <ele>82.1</ele>
        <time>2022-10-06T09:40:42Z</time>
      </trkpt>
      <trkpt lat="44.77055" lon="-0.11842">
        <ele>82.1</ele>
        <time>2022-10-06T09:40:43Z</time>
      </trkpt>
      <trkpt lat="44.77055" lon="-0.11842">
        <ele>82.1</ele>
        <time>2022-10-06T09:40:44Z</time>
      </trkpt>
      <trkpt lat="44.77055" lon="-0.11842">
        <ele>82.1</ele>
        <time>2022-10-06T09:40:45Z</time>
      </trkpt>
      <trkpt lat="44.77055" lon="-0.11842">
        <ele>82.1</ele>
        <time>2022-10-06T09:40:46Z</time>
      </trkpt>
      <trkpt lat="44.77055" lon="-0.11842">
        <ele>82.1</ele>
        <time>2022-10-06T09:40:48Z</time>
      </trkpt>
      <trkpt lat="44.77055" lon="-0.11842">
        <ele>82.1</ele>
        <time>2022-10-06T09:40:50Z</time>
      </trkpt>
      <trkpt lat="44.77055" lon="-0.11842">
        <ele>82.1</ele>
        <time>2022-10-06T09:40:51Z</time>
      </trkpt>
      <trkpt lat="44.77055" lon="-0.11842">
        <ele>82.1</ele>
        <time>2022-10-06T09:40:52Z</time>
      </trkpt>
      <trkpt lat="44.77055" lon="-0.11842">
        <ele>82.1</ele>
        <time>2022-10-06T09:40:53Z</time>
      </trkpt>
      <trkpt lat="44.77055" lon="-0.11842">
        <ele>82.1</ele>
        <time>2022-10-06T09:40:54Z</time>
      </trkpt>
      <trkpt lat="44.77055" lon="-0.11842">
        <ele>82.1</ele>
        <time>2022-10-06T09:40:55Z</time>
      </trkpt>
      <trkpt lat="44.77054" lon="-0.11842">
        <ele>82.1</ele>
        <time>2022-10-06T09:40:56Z</time>
      </trkpt>
      <trkpt lat="44.77053" lon="-0.11842">
        <ele>82.1</ele>
        <time>2022-10-06T09:40:57Z</time>
      </trkpt>
      <trkpt lat="44.77053" lon="-0.11842">
        <ele>82.1</ele>
        <time>2022-10-06T09:40:58Z</time>
      </trkpt>
      <trkpt lat="44.77052" lon="-0.11842">
        <ele>82.1</ele>
        <time>2022-10-06T09:40:59Z</time>
      </trkpt>
      <trkpt lat="44.77053" lon="-0.11842">
        <ele>82.1</ele>
        <time>2022-10-06T09:41:00Z</time>
      </trkpt>
      <trkpt lat="44.77052" lon="-0.11842">
        <ele>82.1</ele>
        <time>2022-10-06T09:41:01Z</time>
      </trkpt>
      <trkpt lat="44.77052" lon="-0.11842">
        <ele>82.1</ele>
        <time>2022-10-06T09:41:02Z</time>
      </trkpt>
      <trkpt lat="44.77053" lon="-0.11843">
        <ele>82.1</ele>
        <time>2022-10-06T09:41:03Z</time>
      </trkpt>
      <trkpt lat="44.77053" lon="-0.11844">
        <ele>82.1</ele>
        <time>2022-10-06T09:41:04Z</time>
      </trkpt>
      <trkpt lat="44.77052" lon="-0.11845">
        <ele>82</ele>
        <time>2022-10-06T09:41:05Z</time>
      </trkpt>
      <trkpt lat="44.77052" lon="-0.11845">
        <ele>82</ele>
        <time>2022-10-06T09:41:06Z</time>
      </trkpt>
      <trkpt lat="44.77051" lon="-0.11845">
        <ele>82</ele>
        <time>2022-10-06T09:41:07Z</time>
      </trkpt>
      <trkpt lat="44.7705" lon="-0.11846">
        <ele>82</ele>
        <time>2022-10-06T09:41:08Z</time>
      </trkpt>
      <trkpt lat="44.77049" lon="-0.11846">
        <ele>82</ele>
        <time>2022-10-06T09:41:09Z</time>
      </trkpt>
      <trkpt lat="44.77048" lon="-0.11846">
        <ele>82</ele>
        <time>2022-10-06T09:41:10Z</time>
      </trkpt>
      <trkpt lat="44.77047" lon="-0.11846">
        <ele>82</ele>
        <time>2022-10-06T09:41:11Z</time>
      </trkpt>
      <trkpt lat="44.77045" lon="-0.11847">
        <ele>82</ele>
        <time>2022-10-06T09:41:12Z</time>
      </trkpt>
      <trkpt lat="44.77044" lon="-0.11847">
        <ele>82</ele>
        <time>2022-10-06T09:41:13Z</time>
      </trkpt>
      <trkpt lat="44.77043" lon="-0.11847">
        <ele>82</ele>
        <time>2022-10-06T09:41:14Z</time>
      </trkpt>
      <trkpt lat="44.77042" lon="-0.11847">
        <ele>82</ele>
        <time>2022-10-06T09:41:15Z</time>
      </trkpt>
      <trkpt lat="44.77041" lon="-0.11848">
        <ele>82</ele>
        <time>2022-10-06T09:41:16Z</time>
      </trkpt>
      <trkpt lat="44.7704" lon="-0.11848">
        <ele>82</ele>
        <time>2022-10-06T09:41:17Z</time>
      </trkpt>
      <trkpt lat="44.77039" lon="-0.11849">
        <ele>81.9</ele>
        <time>2022-10-06T09:41:19Z</time>
      </trkpt>
      <trkpt lat="44.77037" lon="-0.1185">
        <ele>81.9</ele>
        <time>2022-10-06T09:41:20Z</time>
      </trkpt>
      <trkpt lat="44.77035" lon="-0.1185">
        <ele>81.9</ele>
        <time>2022-10-06T09:41:21Z</time>
      </trkpt>
      <trkpt lat="44.77034" lon="-0.11851">
        <ele>81.9</ele>
        <time>2022-10-06T09:41:22Z</time>
      </trkpt>
      <trkpt lat="44.77031" lon="-0.11852">
        <ele>81.9</ele>
        <time>2022-10-06T09:41:23Z</time>
      </trkpt>
      <trkpt lat="44.7703" lon="-0.11852">
        <ele>81.9</ele>
        <time>2022-10-06T09:41:25Z</time>
      </trkpt>
      <trkpt lat="44.77029" lon="-0.11853">
        <ele>81.9</ele>
        <time>2022-10-06T09:41:26Z</time>
      </trkpt>
      <trkpt lat="44.77027" lon="-0.11854">
        <ele>81.8</ele>
        <time>2022-10-06T09:41:28Z</time>
      </trkpt>
      <trkpt lat="44.77026" lon="-0.11854">
        <ele>81.8</ele>
        <time>2022-10-06T09:41:29Z</time>
      </trkpt>
      <trkpt lat="44.77024" lon="-0.11855">
        <ele>81.8</ele>
        <time>2022-10-06T09:41:30Z</time>
      </trkpt>
      <trkpt lat="44.77022" lon="-0.11855">
        <ele>81.8</ele>
        <time>2022-10-06T09:41:31Z</time>
      </trkpt>
      <trkpt lat="44.77021" lon="-0.11856">
        <ele>81.8</ele>
        <time>2022-10-06T09:41:33Z</time>
      </trkpt>
      <trkpt lat="44.7702" lon="-0.11856">
        <ele>81.8</ele>
        <time>2022-10-06T09:41:34Z</time>
      </trkpt>
      <trkpt lat="44.77019" lon="-0.11856">
        <ele>81.8</ele>
        <time>2022-10-06T09:41:35Z</time>
      </trkpt>
      <trkpt lat="44.77018" lon="-0.11856">
        <ele>81.8</ele>
        <time>2022-10-06T09:41:36Z</time>
      </trkpt>
      <trkpt lat="44.77017" lon="-0.11857">
        <ele>81.8</ele>
        <time>2022-10-06T09:41:37Z</time>
      </trkpt>
      <trkpt lat="44.77015" lon="-0.11857">
        <ele>81.7</ele>
        <time>2022-10-06T09:41:38Z</time>
      </trkpt>
      <trkpt lat="44.77014" lon="-0.11857">
        <ele>81.7</ele>
        <time>2022-10-06T09:41:39Z</time>
      </trkpt>
      <trkpt lat="44.77012" lon="-0.11858">
        <ele>81.7</ele>
        <time>2022-10-06T09:41:40Z</time>
      </trkpt>
      <trkpt lat="44.77011" lon="-0.11858">
        <ele>81.7</ele>
        <time>2022-10-06T09:41:41Z</time>
      </trkpt>
      <trkpt lat="44.7701" lon="-0.11858">
        <ele>81.7</ele>
        <time>2022-10-06T09:41:42Z</time>
      </trkpt>
      <trkpt lat="44.77008" lon="-0.11859">
        <ele>81.7</ele>
        <time>2022-10-06T09:41:44Z</time>
      </trkpt>
      <trkpt lat="44.77007" lon="-0.11859">
        <ele>81.7</ele>
        <time>2022-10-06T09:41:45Z</time>
      </trkpt>
      <trkpt lat="44.77006" lon="-0.11859">
        <ele>81.7</ele>
        <time>2022-10-06T09:41:46Z</time>
      </trkpt>
      <trkpt lat="44.77004" lon="-0.1186">
        <ele>81.6</ele>
        <time>2022-10-06T09:41:47Z</time>
      </trkpt>
      <trkpt lat="44.77002" lon="-0.11861">
        <ele>81.6</ele>
        <time>2022-10-06T09:41:48Z</time>
      </trkpt>
      <trkpt lat="44.77001" lon="-0.11862">
        <ele>81.6</ele>
        <time>2022-10-06T09:41:49Z</time>
      </trkpt>
      <trkpt lat="44.77" lon="-0.11862">
        <ele>81.6</ele>
        <time>2022-10-06T09:41:50Z</time>
      </trkpt>
      <trkpt lat="44.76999" lon="-0.11862">
        <ele>81.6</ele>
        <time>2022-10-06T09:41:51Z</time>
      </trkpt>
      <trkpt lat="44.76997" lon="-0.11863">
        <ele>81.6</ele>
        <time>2022-10-06T09:41:53Z</time>
      </trkpt>
      <trkpt lat="44.76995" lon="-0.11864">
        <ele>81.6</ele>
        <time>2022-10-06T09:41:54Z</time>
      </trkpt>
      <trkpt lat="44.76994" lon="-0.11864">
        <ele>81.6</ele>
        <time>2022-10-06T09:41:55Z</time>
      </trkpt>
      <trkpt lat="44.76993" lon="-0.11865">
        <ele>81.6</ele>
        <time>2022-10-06T09:41:56Z</time>
      </trkpt>
      <trkpt lat="44.76992" lon="-0.11866">
        <ele>81.5</ele>
        <time>2022-10-06T09:41:57Z</time>
      </trkpt>
      <trkpt lat="44.76991" lon="-0.11866">
        <ele>81.5</ele>
        <time>2022-10-06T09:41:58Z</time>
      </trkpt>
      <trkpt lat="44.76989" lon="-0.11867">
        <ele>81.5</ele>
        <time>2022-10-06T09:42:00Z</time>
      </trkpt>
      <trkpt lat="44.76988" lon="-0.11868">
        <ele>81.5</ele>
        <time>2022-10-06T09:42:01Z</time>
      </trkpt>
      <trkpt lat="44.76986" lon="-0.11868">
        <ele>81.5</ele>
        <time>2022-10-06T09:42:02Z</time>
      </trkpt>
      <trkpt lat="44.76985" lon="-0.11869">
        <ele>81.5</ele>
        <time>2022-10-06T09:42:03Z</time>
      </trkpt>
      <trkpt lat="44.76984" lon="-0.11871">
        <ele>81.5</ele>
        <time>2022-10-06T09:42:05Z</time>
      </trkpt>
      <trkpt lat="44.76983" lon="-0.11873">
        <ele>81.5</ele>
        <time>2022-10-06T09:42:06Z</time>
      </trkpt>
      <trkpt lat="44.76982" lon="-0.11874">
        <ele>81.4</ele>
        <time>2022-10-06T09:42:08Z</time>
      </trkpt>
      <trkpt lat="44.76981" lon="-0.11876">
        <ele>81.4</ele>
        <time>2022-10-06T09:42:09Z</time>
      </trkpt>
      <trkpt lat="44.76979" lon="-0.11877">
        <ele>81.4</ele>
        <time>2022-10-06T09:42:10Z</time>
      </trkpt>
      <trkpt lat="44.76978" lon="-0.11877">
        <ele>81.4</ele>
        <time>2022-10-06T09:42:11Z</time>
      </trkpt>
      <trkpt lat="44.76976" lon="-0.11878">
        <ele>81.4</ele>
        <time>2022-10-06T09:42:12Z</time>
      </trkpt>
      <trkpt lat="44.76975" lon="-0.11878">
        <ele>81.4</ele>
        <time>2022-10-06T09:42:13Z</time>
      </trkpt>
      <trkpt lat="44.76974" lon="-0.11879">
        <ele>81.4</ele>
        <time>2022-10-06T09:42:14Z</time>
      </trkpt>
      <trkpt lat="44.76973" lon="-0.11879">
        <ele>81.4</ele>
        <time>2022-10-06T09:42:15Z</time>
      </trkpt>
      <trkpt lat="44.76972" lon="-0.11879">
        <ele>81.4</ele>
        <time>2022-10-06T09:42:16Z</time>
      </trkpt>
      <trkpt lat="44.7697" lon="-0.1188">
        <ele>81.3</ele>
        <time>2022-10-06T09:42:17Z</time>
      </trkpt>
      <trkpt lat="44.76969" lon="-0.1188">
        <ele>81.3</ele>
        <time>2022-10-06T09:42:18Z</time>
      </trkpt>
      <trkpt lat="44.76968" lon="-0.11881">
        <ele>81.3</ele>
        <time>2022-10-06T09:42:19Z</time>
      </trkpt>
      <trkpt lat="44.76967" lon="-0.11881">
        <ele>81.3</ele>
        <time>2022-10-06T09:42:20Z</time>
      </trkpt>
      <trkpt lat="44.76965" lon="-0.11881">
        <ele>81.3</ele>
        <time>2022-10-06T09:42:21Z</time>
      </trkpt>
      <trkpt lat="44.76962" lon="-0.11881">
        <ele>81.3</ele>
        <time>2022-10-06T09:42:23Z</time>
      </trkpt>
      <trkpt lat="44.76961" lon="-0.11881">
        <ele>81.3</ele>
        <time>2022-10-06T09:42:24Z</time>
      </trkpt>
      <trkpt lat="44.7696" lon="-0.11882">
        <ele>81.3</ele>
        <time>2022-10-06T09:42:25Z</time>
      </trkpt>
      <trkpt lat="44.76959" lon="-0.11882">
        <ele>81.3</ele>
        <time>2022-10-06T09:42:26Z</time>
      </trkpt>
      <trkpt lat="44.76956" lon="-0.11884">
        <ele>81.3</ele>
        <time>2022-10-06T09:42:27Z</time>
      </trkpt>
      <trkpt lat="44.76955" lon="-0.11885">
        <ele>81.3</ele>
        <time>2022-10-06T09:42:29Z</time>
      </trkpt>
      <trkpt lat="44.76954" lon="-0.11886">
        <ele>81.3</ele>
        <time>2022-10-06T09:42:30Z</time>
      </trkpt>
      <trkpt lat="44.76953" lon="-0.11887">
        <ele>81.3</ele>
        <time>2022-10-06T09:42:31Z</time>
      </trkpt>
      <trkpt lat="44.76952" lon="-0.11887">
        <ele>81.3</ele>
        <time>2022-10-06T09:42:32Z</time>
      </trkpt>
      <trkpt lat="44.76951" lon="-0.11888">
        <ele>81.3</ele>
        <time>2022-10-06T09:42:33Z</time>
      </trkpt>
      <trkpt lat="44.76949" lon="-0.11888">
        <ele>81.3</ele>
        <time>2022-10-06T09:42:35Z</time>
      </trkpt>
      <trkpt lat="44.76948" lon="-0.11889">
        <ele>81.3</ele>
        <time>2022-10-06T09:42:36Z</time>
      </trkpt>
      <trkpt lat="44.76945" lon="-0.11889">
        <ele>81.3</ele>
        <time>2022-10-06T09:42:38Z</time>
      </trkpt>
      <trkpt lat="44.76944" lon="-0.11889">
        <ele>81.3</ele>
        <time>2022-10-06T09:42:39Z</time>
      </trkpt>
      <trkpt lat="44.76943" lon="-0.11889">
        <ele>81.3</ele>
        <time>2022-10-06T09:42:40Z</time>
      </trkpt>
      <trkpt lat="44.76942" lon="-0.11888">
        <ele>81.4</ele>
        <time>2022-10-06T09:42:41Z</time>
      </trkpt>
      <trkpt lat="44.7694" lon="-0.11887">
        <ele>81.4</ele>
        <time>2022-10-06T09:42:42Z</time>
      </trkpt>
      <trkpt lat="44.76938" lon="-0.11885">
        <ele>81.4</ele>
        <time>2022-10-06T09:42:43Z</time>
      </trkpt>
      <trkpt lat="44.76937" lon="-0.11884">
        <ele>81.4</ele>
        <time>2022-10-06T09:42:45Z</time>
      </trkpt>
      <trkpt lat="44.76936" lon="-0.11882">
        <ele>81.4</ele>
        <time>2022-10-06T09:42:46Z</time>
      </trkpt>
      <trkpt lat="44.76935" lon="-0.11881">
        <ele>81.4</ele>
        <time>2022-10-06T09:42:48Z</time>
      </trkpt>
      <trkpt lat="44.76934" lon="-0.11879">
        <ele>81.5</ele>
        <time>2022-10-06T09:42:49Z</time>
      </trkpt>
      <trkpt lat="44.76933" lon="-0.11878">
        <ele>81.5</ele>
        <time>2022-10-06T09:42:50Z</time>
      </trkpt>
      <trkpt lat="44.76932" lon="-0.11876">
        <ele>81.5</ele>
        <time>2022-10-06T09:42:51Z</time>
      </trkpt>
      <trkpt lat="44.76931" lon="-0.11874">
        <ele>81.5</ele>
        <time>2022-10-06T09:42:52Z</time>
      </trkpt>
      <trkpt lat="44.76929" lon="-0.11872">
        <ele>81.6</ele>
        <time>2022-10-06T09:42:53Z</time>
      </trkpt>
      <trkpt lat="44.76929" lon="-0.11871">
        <ele>81.6</ele>
        <time>2022-10-06T09:42:54Z</time>
      </trkpt>
      <trkpt lat="44.76928" lon="-0.11871">
        <ele>81.6</ele>
        <time>2022-10-06T09:42:55Z</time>
      </trkpt>
      <trkpt lat="44.76927" lon="-0.11869">
        <ele>81.6</ele>
        <time>2022-10-06T09:42:56Z</time>
      </trkpt>
      <trkpt lat="44.76926" lon="-0.11868">
        <ele>81.6</ele>
        <time>2022-10-06T09:42:57Z</time>
      </trkpt>
      <trkpt lat="44.76926" lon="-0.11867">
        <ele>81.6</ele>
        <time>2022-10-06T09:42:58Z</time>
      </trkpt>
      <trkpt lat="44.76925" lon="-0.11865">
        <ele>81.7</ele>
        <time>2022-10-06T09:42:59Z</time>
      </trkpt>
      <trkpt lat="44.76924" lon="-0.11864">
        <ele>81.7</ele>
        <time>2022-10-06T09:43:00Z</time>
      </trkpt>
      <trkpt lat="44.76923" lon="-0.11863">
        <ele>81.7</ele>
        <time>2022-10-06T09:43:01Z</time>
      </trkpt>
      <trkpt lat="44.76922" lon="-0.11861">
        <ele>81.7</ele>
        <time>2022-10-06T09:43:03Z</time>
      </trkpt>
      <trkpt lat="44.7692" lon="-0.11858">
        <ele>81.8</ele>
        <time>2022-10-06T09:43:04Z</time>
      </trkpt>
      <trkpt lat="44.76919" lon="-0.11856">
        <ele>81.8</ele>
        <time>2022-10-06T09:43:06Z</time>
      </trkpt>
      <trkpt lat="44.76918" lon="-0.11854">
        <ele>81.8</ele>
        <time>2022-10-06T09:43:07Z</time>
      </trkpt>
      <trkpt lat="44.76916" lon="-0.11851">
        <ele>81.9</ele>
        <time>2022-10-06T09:43:09Z</time>
      </trkpt>
      <trkpt lat="44.76914" lon="-0.11849">
        <ele>81.9</ele>
        <time>2022-10-06T09:43:11Z</time>
      </trkpt>
      <trkpt lat="44.76913" lon="-0.11847">
        <ele>81.9</ele>
        <time>2022-10-06T09:43:12Z</time>
      </trkpt>
      <trkpt lat="44.76911" lon="-0.11845">
        <ele>82</ele>
        <time>2022-10-06T09:43:13Z</time>
      </trkpt>
      <trkpt lat="44.76911" lon="-0.11845">
        <ele>82</ele>
        <time>2022-10-06T09:43:14Z</time>
      </trkpt>
      <trkpt lat="44.7691" lon="-0.11844">
        <ele>82</ele>
        <time>2022-10-06T09:43:15Z</time>
      </trkpt>
      <trkpt lat="44.76909" lon="-0.11843">
        <ele>82</ele>
        <time>2022-10-06T09:43:16Z</time>
      </trkpt>
      <trkpt lat="44.76908" lon="-0.11841">
        <ele>82.1</ele>
        <time>2022-10-06T09:43:18Z</time>
      </trkpt>
      <trkpt lat="44.76907" lon="-0.11839">
        <ele>82.1</ele>
        <time>2022-10-06T09:43:19Z</time>
      </trkpt>
      <trkpt lat="44.76906" lon="-0.11837">
        <ele>82.1</ele>
        <time>2022-10-06T09:43:20Z</time>
      </trkpt>
      <trkpt lat="44.76905" lon="-0.11836">
        <ele>82.2</ele>
        <time>2022-10-06T09:43:21Z</time>
      </trkpt>
      <trkpt lat="44.76904" lon="-0.11834">
        <ele>82.2</ele>
        <time>2022-10-06T09:43:22Z</time>
      </trkpt>
      <trkpt lat="44.76903" lon="-0.11832">
        <ele>82.2</ele>
        <time>2022-10-06T09:43:24Z</time>
      </trkpt>
      <trkpt lat="44.76902" lon="-0.11831">
        <ele>82.3</ele>
        <time>2022-10-06T09:43:25Z</time>
      </trkpt>
      <trkpt lat="44.76901" lon="-0.1183">
        <ele>82.3</ele>
        <time>2022-10-06T09:43:26Z</time>
      </trkpt>
      <trkpt lat="44.769" lon="-0.11828">
        <ele>82.3</ele>
        <time>2022-10-06T09:43:27Z</time>
      </trkpt>
      <trkpt lat="44.76898" lon="-0.11825">
        <ele>82.4</ele>
        <time>2022-10-06T09:43:29Z</time>
      </trkpt>
      <trkpt lat="44.76898" lon="-0.11824">
        <ele>82.4</ele>
        <time>2022-10-06T09:43:30Z</time>
      </trkpt>
      <trkpt lat="44.76897" lon="-0.11822">
        <ele>82.4</ele>
        <time>2022-10-06T09:43:31Z</time>
      </trkpt>
      <trkpt lat="44.76896" lon="-0.11821">
        <ele>82.5</ele>
        <time>2022-10-06T09:43:32Z</time>
      </trkpt>
      <trkpt lat="44.76894" lon="-0.11819">
        <ele>82.5</ele>
        <time>2022-10-06T09:43:34Z</time>
      </trkpt>
      <trkpt lat="44.76893" lon="-0.11818">
        <ele>82.5</ele>
        <time>2022-10-06T09:43:35Z</time>
      </trkpt>
      <trkpt lat="44.76893" lon="-0.11817">
        <ele>82.5</ele>
        <time>2022-10-06T09:43:36Z</time>
      </trkpt>
      <trkpt lat="44.76891" lon="-0.11816">
        <ele>82.6</ele>
        <time>2022-10-06T09:43:37Z</time>
      </trkpt>
      <trkpt lat="44.76889" lon="-0.11814">
        <ele>82.6</ele>
        <time>2022-10-06T09:43:38Z</time>
      </trkpt>
      <trkpt lat="44.76889" lon="-0.11813">
        <ele>82.6</ele>
        <time>2022-10-06T09:43:39Z</time>
      </trkpt>
      <trkpt lat="44.76888" lon="-0.11812">
        <ele>82.7</ele>
        <time>2022-10-06T09:43:40Z</time>
      </trkpt>
      <trkpt lat="44.76887" lon="-0.1181">
        <ele>82.7</ele>
        <time>2022-10-06T09:43:41Z</time>
      </trkpt>
      <trkpt lat="44.76885" lon="-0.11807">
        <ele>82.8</ele>
        <time>2022-10-06T09:43:43Z</time>
      </trkpt>
      <trkpt lat="44.76884" lon="-0.11806">
        <ele>82.8</ele>
        <time>2022-10-06T09:43:44Z</time>
      </trkpt>
      <trkpt lat="44.76883" lon="-0.11805">
        <ele>82.8</ele>
        <time>2022-10-06T09:43:45Z</time>
      </trkpt>
      <trkpt lat="44.76882" lon="-0.11804">
        <ele>82.8</ele>
        <time>2022-10-06T09:43:46Z</time>
      </trkpt>
      <trkpt lat="44.76881" lon="-0.11801">
        <ele>82.9</ele>
        <time>2022-10-06T09:43:47Z</time>
      </trkpt>
      <trkpt lat="44.7688" lon="-0.11799">
        <ele>82.9</ele>
        <time>2022-10-06T09:43:49Z</time>
      </trkpt>
      <trkpt lat="44.76879" lon="-0.11798">
        <ele>82.9</ele>
        <time>2022-10-06T09:43:50Z</time>
      </trkpt>
      <trkpt lat="44.76878" lon="-0.11797">
        <ele>83</ele>
        <time>2022-10-06T09:43:51Z</time>
      </trkpt>
      <trkpt lat="44.76877" lon="-0.11795">
        <ele>83</ele>
        <time>2022-10-06T09:43:52Z</time>
      </trkpt>
      <trkpt lat="44.76875" lon="-0.11793">
        <ele>83.1</ele>
        <time>2022-10-06T09:43:54Z</time>
      </trkpt>
      <trkpt lat="44.76875" lon="-0.11792">
        <ele>83.1</ele>
        <time>2022-10-06T09:43:55Z</time>
      </trkpt>
      <trkpt lat="44.76874" lon="-0.11791">
        <ele>83.1</ele>
        <time>2022-10-06T09:43:56Z</time>
      </trkpt>
      <trkpt lat="44.76873" lon="-0.11789">
        <ele>83.1</ele>
        <time>2022-10-06T09:43:57Z</time>
      </trkpt>
      <trkpt lat="44.76873" lon="-0.11788">
        <ele>83.1</ele>
        <time>2022-10-06T09:43:58Z</time>
      </trkpt>
      <trkpt lat="44.76872" lon="-0.11787">
        <ele>83.1</ele>
        <time>2022-10-06T09:43:59Z</time>
      </trkpt>
      <trkpt lat="44.7687" lon="-0.11783">
        <ele>83.2</ele>
        <time>2022-10-06T09:44:01Z</time>
      </trkpt>
      <trkpt lat="44.76869" lon="-0.11782">
        <ele>83.2</ele>
        <time>2022-10-06T09:44:02Z</time>
      </trkpt>
      <trkpt lat="44.76869" lon="-0.11782">
        <ele>83.2</ele>
        <time>2022-10-06T09:44:03Z</time>
      </trkpt>
      <trkpt lat="44.76868" lon="-0.11781">
        <ele>83.2</ele>
        <time>2022-10-06T09:44:04Z</time>
      </trkpt>
      <trkpt lat="44.76867" lon="-0.11779">
        <ele>83.2</ele>
        <time>2022-10-06T09:44:05Z</time>
      </trkpt>
      <trkpt lat="44.76869" lon="-0.11774">
        <ele>83.3</ele>
        <time>2022-10-06T09:44:07Z</time>
      </trkpt>
      <trkpt lat="44.7687" lon="-0.11773">
        <ele>83.3</ele>
        <time>2022-10-06T09:44:08Z</time>
      </trkpt>
      <trkpt lat="44.76871" lon="-0.11772">
        <ele>83.3</ele>
        <time>2022-10-06T09:44:09Z</time>
      </trkpt>
      <trkpt lat="44.7687" lon="-0.11769">
        <ele>83.4</ele>
        <time>2022-10-06T09:44:11Z</time>
      </trkpt>
      <trkpt lat="44.76868" lon="-0.11768">
        <ele>83.4</ele>
        <time>2022-10-06T09:44:12Z</time>
      </trkpt>
      <trkpt lat="44.76868" lon="-0.11768">
        <ele>83.4</ele>
        <time>2022-10-06T09:44:14Z</time>
      </trkpt>
      <trkpt lat="44.76867" lon="-0.11767">
        <ele>83.4</ele>
        <time>2022-10-06T09:44:15Z</time>
      </trkpt>
      <trkpt lat="44.76867" lon="-0.11765">
        <ele>83.4</ele>
        <time>2022-10-06T09:44:16Z</time>
      </trkpt>
      <trkpt lat="44.76867" lon="-0.11764">
        <ele>83.4</ele>
        <time>2022-10-06T09:44:17Z</time>
      </trkpt>
      <trkpt lat="44.76866" lon="-0.11763">
        <ele>83.5</ele>
        <time>2022-10-06T09:44:19Z</time>
      </trkpt>
      <trkpt lat="44.76866" lon="-0.11762">
        <ele>83.5</ele>
        <time>2022-10-06T09:44:20Z</time>
      </trkpt>
      <trkpt lat="44.76866" lon="-0.1176">
        <ele>83.5</ele>
        <time>2022-10-06T09:44:21Z</time>
      </trkpt>
      <trkpt lat="44.76867" lon="-0.11759">
        <ele>83.5</ele>
        <time>2022-10-06T09:44:22Z</time>
      </trkpt>
      <trkpt lat="44.76867" lon="-0.11757">
        <ele>83.5</ele>
        <time>2022-10-06T09:44:23Z</time>
      </trkpt>
      <trkpt lat="44.76866" lon="-0.11757">
        <ele>83.5</ele>
        <time>2022-10-06T09:44:24Z</time>
      </trkpt>
      <trkpt lat="44.76865" lon="-0.11757">
        <ele>83.5</ele>
        <time>2022-10-06T09:44:25Z</time>
      </trkpt>
      <trkpt lat="44.76865" lon="-0.11758">
        <ele>83.6</ele>
        <time>2022-10-06T09:44:26Z</time>
      </trkpt>
      <trkpt lat="44.76864" lon="-0.11758">
        <ele>83.6</ele>
        <time>2022-10-06T09:44:28Z</time>
      </trkpt>
      <trkpt lat="44.76864" lon="-0.11759">
        <ele>83.6</ele>
        <time>2022-10-06T09:44:29Z</time>
      </trkpt>
      <trkpt lat="44.76864" lon="-0.1176">
        <ele>83.6</ele>
        <time>2022-10-06T09:44:30Z</time>
      </trkpt>
      <trkpt lat="44.76863" lon="-0.11761">
        <ele>83.6</ele>
        <time>2022-10-06T09:44:31Z</time>
      </trkpt>
      <trkpt lat="44.76862" lon="-0.1176">
        <ele>83.6</ele>
        <time>2022-10-06T09:44:33Z</time>
      </trkpt>
      <trkpt lat="44.76861" lon="-0.1176">
        <ele>83.6</ele>
        <time>2022-10-06T09:44:34Z</time>
      </trkpt>
      <trkpt lat="44.76861" lon="-0.11759">
        <ele>83.7</ele>
        <time>2022-10-06T09:44:35Z</time>
      </trkpt>
      <trkpt lat="44.7686" lon="-0.11758">
        <ele>83.7</ele>
        <time>2022-10-06T09:44:36Z</time>
      </trkpt>
      <trkpt lat="44.7686" lon="-0.11757">
        <ele>83.7</ele>
        <time>2022-10-06T09:44:37Z</time>
      </trkpt>
      <trkpt lat="44.7686" lon="-0.11756">
        <ele>83.7</ele>
        <time>2022-10-06T09:44:39Z</time>
      </trkpt>
      <trkpt lat="44.76859" lon="-0.11755">
        <ele>83.7</ele>
        <time>2022-10-06T09:44:40Z</time>
      </trkpt>
      <trkpt lat="44.76858" lon="-0.11754">
        <ele>83.7</ele>
        <time>2022-10-06T09:44:41Z</time>
      </trkpt>
      <trkpt lat="44.76858" lon="-0.11753">
        <ele>83.8</ele>
        <time>2022-10-06T09:44:42Z</time>
      </trkpt>
      <trkpt lat="44.76857" lon="-0.11753">
        <ele>83.8</ele>
        <time>2022-10-06T09:44:43Z</time>
      </trkpt>
      <trkpt lat="44.76857" lon="-0.11752">
        <ele>83.8</ele>
        <time>2022-10-06T09:44:44Z</time>
      </trkpt>
      <trkpt lat="44.76857" lon="-0.11751">
        <ele>83.8</ele>
        <time>2022-10-06T09:44:45Z</time>
      </trkpt>
      <trkpt lat="44.76856" lon="-0.11751">
        <ele>83.8</ele>
        <time>2022-10-06T09:44:46Z</time>
      </trkpt>
      <trkpt lat="44.76856" lon="-0.11751">
        <ele>83.8</ele>
        <time>2022-10-06T09:44:47Z</time>
      </trkpt>
      <trkpt lat="44.76856" lon="-0.11751">
        <ele>83.8</ele>
        <time>2022-10-06T09:44:49Z</time>
      </trkpt>
      <trkpt lat="44.76856" lon="-0.11751">
        <ele>83.8</ele>
        <time>2022-10-06T09:44:51Z</time>
      </trkpt>
      <trkpt lat="44.76856" lon="-0.11751">
        <ele>83.8</ele>
        <time>2022-10-06T09:44:53Z</time>
      </trkpt>
      <trkpt lat="44.76856" lon="-0.11751">
        <ele>83.8</ele>
        <time>2022-10-06T09:44:54Z</time>
      </trkpt>
      <trkpt lat="44.76857" lon="-0.11752">
        <ele>83.8</ele>
        <time>2022-10-06T09:44:55Z</time>
      </trkpt>
      <trkpt lat="44.76857" lon="-0.11752">
        <ele>83.8</ele>
        <time>2022-10-06T09:44:56Z</time>
      </trkpt>
      <trkpt lat="44.76857" lon="-0.11753">
        <ele>83.8</ele>
        <time>2022-10-06T09:44:57Z</time>
      </trkpt>
      <trkpt lat="44.76857" lon="-0.11753">
        <ele>83.8</ele>
        <time>2022-10-06T09:44:59Z</time>
      </trkpt>
      <trkpt lat="44.76857" lon="-0.11753">
        <ele>83.8</ele>
        <time>2022-10-06T09:45:00Z</time>
      </trkpt>
      <trkpt lat="44.76857" lon="-0.11753">
        <ele>83.8</ele>
        <time>2022-10-06T09:45:01Z</time>
      </trkpt>
      <trkpt lat="44.76857" lon="-0.11753">
        <ele>83.8</ele>
        <time>2022-10-06T09:45:03Z</time>
      </trkpt>
      <trkpt lat="44.76857" lon="-0.11753">
        <ele>83.8</ele>
        <time>2022-10-06T09:45:04Z</time>
      </trkpt>
      <trkpt lat="44.76857" lon="-0.11753">
        <ele>83.8</ele>
        <time>2022-10-06T09:45:05Z</time>
      </trkpt>
      <trkpt lat="44.76857" lon="-0.11753">
        <ele>83.8</ele>
        <time>2022-10-06T09:45:06Z</time>
      </trkpt>
      <trkpt lat="44.76857" lon="-0.11753">
        <ele>83.8</ele>
        <time>2022-10-06T09:45:07Z</time>
      </trkpt>
      <trkpt lat="44.76857" lon="-0.11753">
        <ele>83.8</ele>
        <time>2022-10-06T09:45:08Z</time>
      </trkpt>
      <trkpt lat="44.76857" lon="-0.11753">
        <ele>83.8</ele>
        <time>2022-10-06T09:45:09Z</time>
      </trkpt>
      <trkpt lat="44.76857" lon="-0.11753">
        <ele>83.8</ele>
        <time>2022-10-06T09:45:10Z</time>
      </trkpt>
      <trkpt lat="44.76857" lon="-0.11753">
        <ele>83.8</ele>
        <time>2022-10-06T09:45:11Z</time>
      </trkpt>
      <trkpt lat="44.76857" lon="-0.11753">
        <ele>83.8</ele>
        <time>2022-10-06T09:45:12Z</time>
      </trkpt>
      <trkpt lat="44.76857" lon="-0.11753">
        <ele>83.8</ele>
        <time>2022-10-06T09:45:13Z</time>
      </trkpt>
      <trkpt lat="44.76857" lon="-0.11753">
        <ele>83.8</ele>
        <time>2022-10-06T09:45:14Z</time>
      </trkpt>
      <trkpt lat="44.76857" lon="-0.11753">
        <ele>83.8</ele>
        <time>2022-10-06T09:45:15Z</time>
      </trkpt>
      <trkpt lat="44.76856" lon="-0.11753">
        <ele>83.8</ele>
        <time>2022-10-06T09:45:16Z</time>
      </trkpt>
      <trkpt lat="44.76856" lon="-0.11753">
        <ele>83.9</ele>
        <time>2022-10-06T09:45:17Z</time>
      </trkpt>
      <trkpt lat="44.76856" lon="-0.11753">
        <ele>83.9</ele>
        <time>2022-10-06T09:45:18Z</time>
      </trkpt>
      <trkpt lat="44.76855" lon="-0.11752">
        <ele>83.9</ele>
        <time>2022-10-06T09:45:19Z</time>
      </trkpt>
      <trkpt lat="44.76855" lon="-0.11752">
        <ele>83.9</ele>
        <time>2022-10-06T09:45:20Z</time>
      </trkpt>
      <trkpt lat="44.76855" lon="-0.11751">
        <ele>83.9</ele>
        <time>2022-10-06T09:45:22Z</time>
      </trkpt>
      <trkpt lat="44.76855" lon="-0.11751">
        <ele>83.9</ele>
        <time>2022-10-06T09:45:23Z</time>
      </trkpt>
      <trkpt lat="44.76855" lon="-0.11751">
        <ele>83.9</ele>
        <time>2022-10-06T09:45:24Z</time>
      </trkpt>
      <trkpt lat="44.76855" lon="-0.11751">
        <ele>83.9</ele>
        <time>2022-10-06T09:45:25Z</time>
      </trkpt>
      <trkpt lat="44.76855" lon="-0.11751">
        <ele>83.9</ele>
        <time>2022-10-06T09:45:26Z</time>
      </trkpt>
      <trkpt lat="44.76855" lon="-0.11752">
        <ele>83.9</ele>
        <time>2022-10-06T09:45:27Z</time>
      </trkpt>
      <trkpt lat="44.76855" lon="-0.11752">
        <ele>83.9</ele>
        <time>2022-10-06T09:45:29Z</time>
      </trkpt>
      <trkpt lat="44.76855" lon="-0.11752">
        <ele>83.9</ele>
        <time>2022-10-06T09:45:30Z</time>
      </trkpt>
      <trkpt lat="44.76855" lon="-0.11752">
        <ele>83.9</ele>
        <time>2022-10-06T09:45:31Z</time>
      </trkpt>
      <trkpt lat="44.76856" lon="-0.11752">
        <ele>83.9</ele>
        <time>2022-10-06T09:45:32Z</time>
      </trkpt>
      <trkpt lat="44.76856" lon="-0.11753">
        <ele>83.9</ele>
        <time>2022-10-06T09:45:33Z</time>
      </trkpt>
      <trkpt lat="44.76857" lon="-0.11753">
        <ele>83.9</ele>
        <time>2022-10-06T09:45:34Z</time>
      </trkpt>
      <trkpt lat="44.76858" lon="-0.11751">
        <ele>84</ele>
        <time>2022-10-06T09:45:35Z</time>
      </trkpt>
      <trkpt lat="44.76858" lon="-0.1175">
        <ele>84</ele>
        <time>2022-10-06T09:45:36Z</time>
      </trkpt>
      <trkpt lat="44.76857" lon="-0.11747">
        <ele>84</ele>
        <time>2022-10-06T09:45:38Z</time>
      </trkpt>
      <trkpt lat="44.76856" lon="-0.11747">
        <ele>84</ele>
        <time>2022-10-06T09:45:40Z</time>
      </trkpt>
      <trkpt lat="44.76854" lon="-0.11746">
        <ele>84.1</ele>
        <time>2022-10-06T09:45:41Z</time>
      </trkpt>
      <trkpt lat="44.76854" lon="-0.11746">
        <ele>84.1</ele>
        <time>2022-10-06T09:45:42Z</time>
      </trkpt>
      <trkpt lat="44.76854" lon="-0.11747">
        <ele>84.1</ele>
        <time>2022-10-06T09:45:43Z</time>
      </trkpt>
      <trkpt lat="44.76854" lon="-0.11747">
        <ele>84.1</ele>
        <time>2022-10-06T09:45:44Z</time>
      </trkpt>
      <trkpt lat="44.76854" lon="-0.11747">
        <ele>84.1</ele>
        <time>2022-10-06T09:45:45Z</time>
      </trkpt>
      <trkpt lat="44.76853" lon="-0.11746">
        <ele>84.1</ele>
        <time>2022-10-06T09:45:46Z</time>
      </trkpt>
      <trkpt lat="44.76853" lon="-0.11745">
        <ele>84.1</ele>
        <time>2022-10-06T09:45:47Z</time>
      </trkpt>
      <trkpt lat="44.76851" lon="-0.11743">
        <ele>84.1</ele>
        <time>2022-10-06T09:45:48Z</time>
      </trkpt>
      <trkpt lat="44.76851" lon="-0.11743">
        <ele>84.2</ele>
        <time>2022-10-06T09:45:49Z</time>
      </trkpt>
      <trkpt lat="44.7685" lon="-0.11742">
        <ele>84.2</ele>
        <time>2022-10-06T09:45:50Z</time>
      </trkpt>
      <trkpt lat="44.76849" lon="-0.1174">
        <ele>84.2</ele>
        <time>2022-10-06T09:45:51Z</time>
      </trkpt>
      <trkpt lat="44.76849" lon="-0.1174">
        <ele>84.2</ele>
        <time>2022-10-06T09:45:52Z</time>
      </trkpt>
      <trkpt lat="44.76849" lon="-0.11738">
        <ele>84.2</ele>
        <time>2022-10-06T09:45:53Z</time>
      </trkpt>
      <trkpt lat="44.76849" lon="-0.11737">
        <ele>84.2</ele>
        <time>2022-10-06T09:45:54Z</time>
      </trkpt>
      <trkpt lat="44.76848" lon="-0.11736">
        <ele>84.2</ele>
        <time>2022-10-06T09:45:55Z</time>
      </trkpt>
      <trkpt lat="44.76848" lon="-0.11736">
        <ele>84.3</ele>
        <time>2022-10-06T09:45:56Z</time>
      </trkpt>
      <trkpt lat="44.76847" lon="-0.11735">
        <ele>84.3</ele>
        <time>2022-10-06T09:45:57Z</time>
      </trkpt>
      <trkpt lat="44.76846" lon="-0.11734">
        <ele>84.3</ele>
        <time>2022-10-06T09:45:58Z</time>
      </trkpt>
      <trkpt lat="44.76845" lon="-0.11733">
        <ele>84.3</ele>
        <time>2022-10-06T09:45:59Z</time>
      </trkpt>
      <trkpt lat="44.76844" lon="-0.11733">
        <ele>84.3</ele>
        <time>2022-10-06T09:46:00Z</time>
      </trkpt>
      <trkpt lat="44.76844" lon="-0.11732">
        <ele>84.3</ele>
        <time>2022-10-06T09:46:01Z</time>
      </trkpt>
      <trkpt lat="44.76843" lon="-0.11731">
        <ele>84.3</ele>
        <time>2022-10-06T09:46:02Z</time>
      </trkpt>
      <trkpt lat="44.76842" lon="-0.1173">
        <ele>84.3</ele>
        <time>2022-10-06T09:46:03Z</time>
      </trkpt>
      <trkpt lat="44.76842" lon="-0.11729">
        <ele>84.3</ele>
        <time>2022-10-06T09:46:04Z</time>
      </trkpt>
      <trkpt lat="44.76841" lon="-0.11729">
        <ele>84.3</ele>
        <time>2022-10-06T09:46:05Z</time>
      </trkpt>
      <trkpt lat="44.76841" lon="-0.11728">
        <ele>84.4</ele>
        <time>2022-10-06T09:46:06Z</time>
      </trkpt>
      <trkpt lat="44.7684" lon="-0.11727">
        <ele>84.4</ele>
        <time>2022-10-06T09:46:07Z</time>
      </trkpt>
      <trkpt lat="44.76839" lon="-0.11725">
        <ele>84.4</ele>
        <time>2022-10-06T09:46:09Z</time>
      </trkpt>
      <trkpt lat="44.76838" lon="-0.11724">
        <ele>84.4</ele>
        <time>2022-10-06T09:46:10Z</time>
      </trkpt>
      <trkpt lat="44.76837" lon="-0.11723">
        <ele>84.4</ele>
        <time>2022-10-06T09:46:11Z</time>
      </trkpt>
      <trkpt lat="44.76837" lon="-0.11722">
        <ele>84.4</ele>
        <time>2022-10-06T09:46:12Z</time>
      </trkpt>
      <trkpt lat="44.76836" lon="-0.11721">
        <ele>84.4</ele>
        <time>2022-10-06T09:46:13Z</time>
      </trkpt>
      <trkpt lat="44.76835" lon="-0.1172">
        <ele>84.4</ele>
        <time>2022-10-06T09:46:14Z</time>
      </trkpt>
      <trkpt lat="44.76834" lon="-0.11718">
        <ele>84.4</ele>
        <time>2022-10-06T09:46:16Z</time>
      </trkpt>
      <trkpt lat="44.76833" lon="-0.11717">
        <ele>84.5</ele>
        <time>2022-10-06T09:46:17Z</time>
      </trkpt>
      <trkpt lat="44.76832" lon="-0.11715">
        <ele>84.5</ele>
        <time>2022-10-06T09:46:19Z</time>
      </trkpt>
      <trkpt lat="44.7683" lon="-0.11713">
        <ele>84.5</ele>
        <time>2022-10-06T09:46:21Z</time>
      </trkpt>
      <trkpt lat="44.76829" lon="-0.11713">
        <ele>84.5</ele>
        <time>2022-10-06T09:46:22Z</time>
      </trkpt>
      <trkpt lat="44.76828" lon="-0.11711">
        <ele>84.5</ele>
        <time>2022-10-06T09:46:23Z</time>
      </trkpt>
      <trkpt lat="44.76828" lon="-0.11711">
        <ele>84.5</ele>
        <time>2022-10-06T09:46:24Z</time>
      </trkpt>
      <trkpt lat="44.76827" lon="-0.1171">
        <ele>84.5</ele>
        <time>2022-10-06T09:46:25Z</time>
      </trkpt>
      <trkpt lat="44.76825" lon="-0.11707">
        <ele>84.5</ele>
        <time>2022-10-06T09:46:27Z</time>
      </trkpt>
      <trkpt lat="44.76824" lon="-0.11706">
        <ele>84.5</ele>
        <time>2022-10-06T09:46:28Z</time>
      </trkpt>
      <trkpt lat="44.76824" lon="-0.11706">
        <ele>84.5</ele>
        <time>2022-10-06T09:46:29Z</time>
      </trkpt>
      <trkpt lat="44.76823" lon="-0.11704">
        <ele>84.5</ele>
        <time>2022-10-06T09:46:30Z</time>
      </trkpt>
      <trkpt lat="44.76822" lon="-0.11702">
        <ele>84.6</ele>
        <time>2022-10-06T09:46:32Z</time>
      </trkpt>
      <trkpt lat="44.76821" lon="-0.11701">
        <ele>84.6</ele>
        <time>2022-10-06T09:46:33Z</time>
      </trkpt>
      <trkpt lat="44.76821" lon="-0.117">
        <ele>84.6</ele>
        <time>2022-10-06T09:46:34Z</time>
      </trkpt>
      <trkpt lat="44.7682" lon="-0.11699">
        <ele>84.6</ele>
        <time>2022-10-06T09:46:35Z</time>
      </trkpt>
      <trkpt lat="44.76819" lon="-0.11698">
        <ele>84.6</ele>
        <time>2022-10-06T09:46:36Z</time>
      </trkpt>
      <trkpt lat="44.76819" lon="-0.11697">
        <ele>84.6</ele>
        <time>2022-10-06T09:46:37Z</time>
      </trkpt>
      <trkpt lat="44.76818" lon="-0.11695">
        <ele>84.6</ele>
        <time>2022-10-06T09:46:38Z</time>
      </trkpt>
      <trkpt lat="44.76817" lon="-0.11694">
        <ele>84.6</ele>
        <time>2022-10-06T09:46:39Z</time>
      </trkpt>
      <trkpt lat="44.76817" lon="-0.11694">
        <ele>84.6</ele>
        <time>2022-10-06T09:46:40Z</time>
      </trkpt>
      <trkpt lat="44.76815" lon="-0.11691">
        <ele>84.6</ele>
        <time>2022-10-06T09:46:42Z</time>
      </trkpt>
      <trkpt lat="44.76814" lon="-0.11689">
        <ele>84.6</ele>
        <time>2022-10-06T09:46:43Z</time>
      </trkpt>
      <trkpt lat="44.76813" lon="-0.11688">
        <ele>84.6</ele>
        <time>2022-10-06T09:46:44Z</time>
      </trkpt>
      <trkpt lat="44.76812" lon="-0.11687">
        <ele>84.7</ele>
        <time>2022-10-06T09:46:45Z</time>
      </trkpt>
      <trkpt lat="44.76812" lon="-0.11686">
        <ele>84.7</ele>
        <time>2022-10-06T09:46:46Z</time>
      </trkpt>
      <trkpt lat="44.76811" lon="-0.11685">
        <ele>84.7</ele>
        <time>2022-10-06T09:46:47Z</time>
      </trkpt>
      <trkpt lat="44.7681" lon="-0.11684">
        <ele>84.7</ele>
        <time>2022-10-06T09:46:48Z</time>
      </trkpt>
      <trkpt lat="44.7681" lon="-0.11683">
        <ele>84.7</ele>
        <time>2022-10-06T09:46:49Z</time>
      </trkpt>
      <trkpt lat="44.76809" lon="-0.11682">
        <ele>84.7</ele>
        <time>2022-10-06T09:46:51Z</time>
      </trkpt>
      <trkpt lat="44.76808" lon="-0.1168">
        <ele>84.7</ele>
        <time>2022-10-06T09:46:52Z</time>
      </trkpt>
      <trkpt lat="44.76807" lon="-0.11679">
        <ele>84.7</ele>
        <time>2022-10-06T09:46:53Z</time>
      </trkpt>
      <trkpt lat="44.76806" lon="-0.11678">
        <ele>84.7</ele>
        <time>2022-10-06T09:46:54Z</time>
      </trkpt>
      <trkpt lat="44.76805" lon="-0.11677">
        <ele>84.7</ele>
        <time>2022-10-06T09:46:55Z</time>
      </trkpt>
      <trkpt lat="44.76805" lon="-0.11675">
        <ele>84.7</ele>
        <time>2022-10-06T09:46:56Z</time>
      </trkpt>
      <trkpt lat="44.76804" lon="-0.11674">
        <ele>84.7</ele>
        <time>2022-10-06T09:46:57Z</time>
      </trkpt>
      <trkpt lat="44.76803" lon="-0.11672">
        <ele>84.7</ele>
        <time>2022-10-06T09:46:58Z</time>
      </trkpt>
      <trkpt lat="44.76803" lon="-0.11671">
        <ele>84.8</ele>
        <time>2022-10-06T09:46:59Z</time>
      </trkpt>
      <trkpt lat="44.76802" lon="-0.1167">
        <ele>84.8</ele>
        <time>2022-10-06T09:47:00Z</time>
      </trkpt>
      <trkpt lat="44.76801" lon="-0.11669">
        <ele>84.8</ele>
        <time>2022-10-06T09:47:01Z</time>
      </trkpt>
      <trkpt lat="44.76801" lon="-0.11668">
        <ele>84.8</ele>
        <time>2022-10-06T09:47:02Z</time>
      </trkpt>
      <trkpt lat="44.768" lon="-0.11667">
        <ele>84.8</ele>
        <time>2022-10-06T09:47:03Z</time>
      </trkpt>
      <trkpt lat="44.76799" lon="-0.11664">
        <ele>84.8</ele>
        <time>2022-10-06T09:47:05Z</time>
      </trkpt>
      <trkpt lat="44.76798" lon="-0.11663">
        <ele>84.8</ele>
        <time>2022-10-06T09:47:06Z</time>
      </trkpt>
      <trkpt lat="44.76798" lon="-0.11662">
        <ele>84.8</ele>
        <time>2022-10-06T09:47:07Z</time>
      </trkpt>
      <trkpt lat="44.76796" lon="-0.1166">
        <ele>84.8</ele>
        <time>2022-10-06T09:47:09Z</time>
      </trkpt>
      <trkpt lat="44.76795" lon="-0.11659">
        <ele>84.8</ele>
        <time>2022-10-06T09:47:11Z</time>
      </trkpt>
      <trkpt lat="44.76793" lon="-0.11656">
        <ele>84.9</ele>
        <time>2022-10-06T09:47:12Z</time>
      </trkpt>
      <trkpt lat="44.76792" lon="-0.11654">
        <ele>84.9</ele>
        <time>2022-10-06T09:47:13Z</time>
      </trkpt>
      <trkpt lat="44.76791" lon="-0.11654">
        <ele>84.9</ele>
        <time>2022-10-06T09:47:14Z</time>
      </trkpt>
      <trkpt lat="44.76791" lon="-0.11653">
        <ele>84.9</ele>
        <time>2022-10-06T09:47:15Z</time>
      </trkpt>
      <trkpt lat="44.76789" lon="-0.1165">
        <ele>84.9</ele>
        <time>2022-10-06T09:47:17Z</time>
      </trkpt>
      <trkpt lat="44.76788" lon="-0.11648">
        <ele>84.9</ele>
        <time>2022-10-06T09:47:18Z</time>
      </trkpt>
      <trkpt lat="44.76787" lon="-0.11646">
        <ele>84.9</ele>
        <time>2022-10-06T09:47:19Z</time>
      </trkpt>
      <trkpt lat="44.76786" lon="-0.11645">
        <ele>85</ele>
        <time>2022-10-06T09:47:21Z</time>
      </trkpt>
      <trkpt lat="44.76785" lon="-0.11644">
        <ele>85</ele>
        <time>2022-10-06T09:47:22Z</time>
      </trkpt>
      <trkpt lat="44.76783" lon="-0.11641">
        <ele>85</ele>
        <time>2022-10-06T09:47:24Z</time>
      </trkpt>
      <trkpt lat="44.76782" lon="-0.1164">
        <ele>85</ele>
        <time>2022-10-06T09:47:25Z</time>
      </trkpt>
      <trkpt lat="44.76781" lon="-0.11639">
        <ele>85</ele>
        <time>2022-10-06T09:47:26Z</time>
      </trkpt>
      <trkpt lat="44.76781" lon="-0.11638">
        <ele>85</ele>
        <time>2022-10-06T09:47:27Z</time>
      </trkpt>
      <trkpt lat="44.7678" lon="-0.11637">
        <ele>85.1</ele>
        <time>2022-10-06T09:47:28Z</time>
      </trkpt>
      <trkpt lat="44.76779" lon="-0.11636">
        <ele>85.1</ele>
        <time>2022-10-06T09:47:29Z</time>
      </trkpt>
      <trkpt lat="44.76778" lon="-0.11635">
        <ele>85.1</ele>
        <time>2022-10-06T09:47:30Z</time>
      </trkpt>
      <trkpt lat="44.76776" lon="-0.11632">
        <ele>85.1</ele>
        <time>2022-10-06T09:47:32Z</time>
      </trkpt>
      <trkpt lat="44.76775" lon="-0.11631">
        <ele>85.1</ele>
        <time>2022-10-06T09:47:33Z</time>
      </trkpt>
      <trkpt lat="44.76774" lon="-0.11629">
        <ele>85.2</ele>
        <time>2022-10-06T09:47:34Z</time>
      </trkpt>
      <trkpt lat="44.76773" lon="-0.11628">
        <ele>85.2</ele>
        <time>2022-10-06T09:47:35Z</time>
      </trkpt>
      <trkpt lat="44.76773" lon="-0.11627">
        <ele>85.2</ele>
        <time>2022-10-06T09:47:36Z</time>
      </trkpt>
      <trkpt lat="44.76772" lon="-0.11626">
        <ele>85.2</ele>
        <time>2022-10-06T09:47:37Z</time>
      </trkpt>
      <trkpt lat="44.76771" lon="-0.11625">
        <ele>85.2</ele>
        <time>2022-10-06T09:47:38Z</time>
      </trkpt>
      <trkpt lat="44.76771" lon="-0.11624">
        <ele>85.3</ele>
        <time>2022-10-06T09:47:39Z</time>
      </trkpt>
      <trkpt lat="44.7677" lon="-0.11623">
        <ele>85.3</ele>
        <time>2022-10-06T09:47:40Z</time>
      </trkpt>
      <trkpt lat="44.76769" lon="-0.11622">
        <ele>85.3</ele>
        <time>2022-10-06T09:47:41Z</time>
      </trkpt>
      <trkpt lat="44.76769" lon="-0.11621">
        <ele>85.4</ele>
        <time>2022-10-06T09:47:42Z</time>
      </trkpt>
      <trkpt lat="44.76768" lon="-0.11619">
        <ele>85.4</ele>
        <time>2022-10-06T09:47:43Z</time>
      </trkpt>
      <trkpt lat="44.76767" lon="-0.11616">
        <ele>85.4</ele>
        <time>2022-10-06T09:47:45Z</time>
      </trkpt>
      <trkpt lat="44.76766" lon="-0.11615">
        <ele>85.5</ele>
        <time>2022-10-06T09:47:46Z</time>
      </trkpt>
      <trkpt lat="44.76765" lon="-0.11614">
        <ele>85.5</ele>
        <time>2022-10-06T09:47:47Z</time>
      </trkpt>
      <trkpt lat="44.76765" lon="-0.11612">
        <ele>85.5</ele>
        <time>2022-10-06T09:47:48Z</time>
      </trkpt>
      <trkpt lat="44.76764" lon="-0.11609">
        <ele>85.6</ele>
        <time>2022-10-06T09:47:50Z</time>
      </trkpt>
      <trkpt lat="44.76762" lon="-0.11606">
        <ele>85.7</ele>
        <time>2022-10-06T09:47:52Z</time>
      </trkpt>
      <trkpt lat="44.76761" lon="-0.11604">
        <ele>85.8</ele>
        <time>2022-10-06T09:47:53Z</time>
      </trkpt>
      <trkpt lat="44.76761" lon="-0.11603">
        <ele>85.8</ele>
        <time>2022-10-06T09:47:54Z</time>
      </trkpt>
      <trkpt lat="44.7676" lon="-0.11602">
        <ele>85.8</ele>
        <time>2022-10-06T09:47:55Z</time>
      </trkpt>
      <trkpt lat="44.7676" lon="-0.11602">
        <ele>85.9</ele>
        <time>2022-10-06T09:47:56Z</time>
      </trkpt>
      <trkpt lat="44.76759" lon="-0.116">
        <ele>85.9</ele>
        <time>2022-10-06T09:47:57Z</time>
      </trkpt>
      <trkpt lat="44.76759" lon="-0.11599">
        <ele>86</ele>
        <time>2022-10-06T09:47:58Z</time>
      </trkpt>
      <trkpt lat="44.76758" lon="-0.11598">
        <ele>86</ele>
        <time>2022-10-06T09:47:59Z</time>
      </trkpt>
      <trkpt lat="44.76758" lon="-0.11596">
        <ele>86.1</ele>
        <time>2022-10-06T09:48:01Z</time>
      </trkpt>
      <trkpt lat="44.76758" lon="-0.11594">
        <ele>86.1</ele>
        <time>2022-10-06T09:48:02Z</time>
      </trkpt>
      <trkpt lat="44.76757" lon="-0.11592">
        <ele>86.2</ele>
        <time>2022-10-06T09:48:03Z</time>
      </trkpt>
      <trkpt lat="44.76757" lon="-0.1159">
        <ele>86.2</ele>
        <time>2022-10-06T09:48:04Z</time>
      </trkpt>
      <trkpt lat="44.76757" lon="-0.11589">
        <ele>86.3</ele>
        <time>2022-10-06T09:48:05Z</time>
      </trkpt>
      <trkpt lat="44.76757" lon="-0.11588">
        <ele>86.3</ele>
        <time>2022-10-06T09:48:06Z</time>
      </trkpt>
      <trkpt lat="44.76756" lon="-0.11585">
        <ele>86.4</ele>
        <time>2022-10-06T09:48:07Z</time>
      </trkpt>
      <trkpt lat="44.76756" lon="-0.11584">
        <ele>86.4</ele>
        <time>2022-10-06T09:48:08Z</time>
      </trkpt>
      <trkpt lat="44.76756" lon="-0.11583">
        <ele>86.5</ele>
        <time>2022-10-06T09:48:09Z</time>
      </trkpt>
      <trkpt lat="44.76756" lon="-0.11582">
        <ele>86.5</ele>
        <time>2022-10-06T09:48:10Z</time>
      </trkpt>
      <trkpt lat="44.76755" lon="-0.1158">
        <ele>86.6</ele>
        <time>2022-10-06T09:48:11Z</time>
      </trkpt>
      <trkpt lat="44.76755" lon="-0.11579">
        <ele>86.6</ele>
        <time>2022-10-06T09:48:12Z</time>
      </trkpt>
      <trkpt lat="44.76755" lon="-0.11578">
        <ele>86.7</ele>
        <time>2022-10-06T09:48:13Z</time>
      </trkpt>
      <trkpt lat="44.76754" lon="-0.11576">
        <ele>86.8</ele>
        <time>2022-10-06T09:48:14Z</time>
      </trkpt>
      <trkpt lat="44.76754" lon="-0.11575">
        <ele>86.8</ele>
        <time>2022-10-06T09:48:15Z</time>
      </trkpt>
      <trkpt lat="44.76754" lon="-0.11573">
        <ele>86.8</ele>
        <time>2022-10-06T09:48:16Z</time>
      </trkpt>
      <trkpt lat="44.76753" lon="-0.11572">
        <ele>86.9</ele>
        <time>2022-10-06T09:48:17Z</time>
      </trkpt>
      <trkpt lat="44.76753" lon="-0.1157">
        <ele>87</ele>
        <time>2022-10-06T09:48:18Z</time>
      </trkpt>
      <trkpt lat="44.76752" lon="-0.11568">
        <ele>87</ele>
        <time>2022-10-06T09:48:19Z</time>
      </trkpt>
      <trkpt lat="44.76752" lon="-0.11567">
        <ele>87.1</ele>
        <time>2022-10-06T09:48:20Z</time>
      </trkpt>
      <trkpt lat="44.76752" lon="-0.11566">
        <ele>87.1</ele>
        <time>2022-10-06T09:48:21Z</time>
      </trkpt>
      <trkpt lat="44.76751" lon="-0.11564">
        <ele>87.2</ele>
        <time>2022-10-06T09:48:22Z</time>
      </trkpt>
      <trkpt lat="44.76751" lon="-0.11562">
        <ele>87.3</ele>
        <time>2022-10-06T09:48:23Z</time>
      </trkpt>
      <trkpt lat="44.7675" lon="-0.1156">
        <ele>87.3</ele>
        <time>2022-10-06T09:48:24Z</time>
      </trkpt>
      <trkpt lat="44.7675" lon="-0.11559">
        <ele>87.4</ele>
        <time>2022-10-06T09:48:25Z</time>
      </trkpt>
      <trkpt lat="44.76749" lon="-0.11556">
        <ele>87.5</ele>
        <time>2022-10-06T09:48:27Z</time>
      </trkpt>
      <trkpt lat="44.76749" lon="-0.11555">
        <ele>87.5</ele>
        <time>2022-10-06T09:48:28Z</time>
      </trkpt>
      <trkpt lat="44.76749" lon="-0.11553">
        <ele>87.6</ele>
        <time>2022-10-06T09:48:29Z</time>
      </trkpt>
      <trkpt lat="44.76749" lon="-0.11551">
        <ele>87.7</ele>
        <time>2022-10-06T09:48:30Z</time>
      </trkpt>
      <trkpt lat="44.76748" lon="-0.1155">
        <ele>87.7</ele>
        <time>2022-10-06T09:48:31Z</time>
      </trkpt>
      <trkpt lat="44.76748" lon="-0.11548">
        <ele>87.8</ele>
        <time>2022-10-06T09:48:32Z</time>
      </trkpt>
      <trkpt lat="44.76747" lon="-0.11547">
        <ele>87.8</ele>
        <time>2022-10-06T09:48:33Z</time>
      </trkpt>
      <trkpt lat="44.76747" lon="-0.11545">
        <ele>87.9</ele>
        <time>2022-10-06T09:48:34Z</time>
      </trkpt>
      <trkpt lat="44.76746" lon="-0.11543">
        <ele>88</ele>
        <time>2022-10-06T09:48:36Z</time>
      </trkpt>
      <trkpt lat="44.76746" lon="-0.11541">
        <ele>88.1</ele>
        <time>2022-10-06T09:48:37Z</time>
      </trkpt>
      <trkpt lat="44.76745" lon="-0.11539">
        <ele>88.2</ele>
        <time>2022-10-06T09:48:38Z</time>
      </trkpt>
      <trkpt lat="44.76743" lon="-0.11537">
        <ele>88.3</ele>
        <time>2022-10-06T09:48:39Z</time>
      </trkpt>
      <trkpt lat="44.76743" lon="-0.11536">
        <ele>88.4</ele>
        <time>2022-10-06T09:48:41Z</time>
      </trkpt>
      <trkpt lat="44.76742" lon="-0.11536">
        <ele>88.4</ele>
        <time>2022-10-06T09:48:42Z</time>
      </trkpt>
      <trkpt lat="44.76741" lon="-0.11535">
        <ele>88.5</ele>
        <time>2022-10-06T09:48:43Z</time>
      </trkpt>
      <trkpt lat="44.7674" lon="-0.11535">
        <ele>88.5</ele>
        <time>2022-10-06T09:48:45Z</time>
      </trkpt>
      <trkpt lat="44.76739" lon="-0.11534">
        <ele>88.6</ele>
        <time>2022-10-06T09:48:46Z</time>
      </trkpt>
      <trkpt lat="44.76738" lon="-0.11534">
        <ele>88.6</ele>
        <time>2022-10-06T09:48:47Z</time>
      </trkpt>
      <trkpt lat="44.76736" lon="-0.11536">
        <ele>88.8</ele>
        <time>2022-10-06T09:48:48Z</time>
      </trkpt>
      <trkpt lat="44.76735" lon="-0.11537">
        <ele>88.8</ele>
        <time>2022-10-06T09:48:49Z</time>
      </trkpt>
      <trkpt lat="44.76733" lon="-0.11538">
        <ele>89</ele>
        <time>2022-10-06T09:48:50Z</time>
      </trkpt>
      <trkpt lat="44.76732" lon="-0.11538">
        <ele>89</ele>
        <time>2022-10-06T09:48:51Z</time>
      </trkpt>
      <trkpt lat="44.76731" lon="-0.11538">
        <ele>89.1</ele>
        <time>2022-10-06T09:48:52Z</time>
      </trkpt>
      <trkpt lat="44.7673" lon="-0.11534">
        <ele>89.2</ele>
        <time>2022-10-06T09:48:53Z</time>
      </trkpt>
      <trkpt lat="44.76729" lon="-0.11533">
        <ele>89.3</ele>
        <time>2022-10-06T09:48:54Z</time>
      </trkpt>
      <trkpt lat="44.7673" lon="-0.11531">
        <ele>89.4</ele>
        <time>2022-10-06T09:48:55Z</time>
      </trkpt>
      <trkpt lat="44.76731" lon="-0.11529">
        <ele>89.5</ele>
        <time>2022-10-06T09:48:56Z</time>
      </trkpt>
      <trkpt lat="44.76731" lon="-0.11527">
        <ele>89.6</ele>
        <time>2022-10-06T09:48:57Z</time>
      </trkpt>
      <trkpt lat="44.76732" lon="-0.11525">
        <ele>89.7</ele>
        <time>2022-10-06T09:48:58Z</time>
      </trkpt>
      <trkpt lat="44.76732" lon="-0.11523">
        <ele>89.8</ele>
        <time>2022-10-06T09:48:59Z</time>
      </trkpt>
      <trkpt lat="44.76733" lon="-0.11522">
        <ele>89.8</ele>
        <time>2022-10-06T09:49:00Z</time>
      </trkpt>
      <trkpt lat="44.76733" lon="-0.11521">
        <ele>89.9</ele>
        <time>2022-10-06T09:49:01Z</time>
      </trkpt>
      <trkpt lat="44.76733" lon="-0.1152">
        <ele>89.9</ele>
        <time>2022-10-06T09:49:02Z</time>
      </trkpt>
      <trkpt lat="44.76733" lon="-0.11518">
        <ele>90</ele>
        <time>2022-10-06T09:49:03Z</time>
      </trkpt>
      <trkpt lat="44.76733" lon="-0.11516">
        <ele>90.1</ele>
        <time>2022-10-06T09:49:05Z</time>
      </trkpt>
      <trkpt lat="44.76733" lon="-0.11514">
        <ele>90.2</ele>
        <time>2022-10-06T09:49:06Z</time>
      </trkpt>
      <trkpt lat="44.76733" lon="-0.11513">
        <ele>90.3</ele>
        <time>2022-10-06T09:49:07Z</time>
      </trkpt>
      <trkpt lat="44.76733" lon="-0.11511">
        <ele>90.3</ele>
        <time>2022-10-06T09:49:08Z</time>
      </trkpt>
      <trkpt lat="44.76732" lon="-0.11509">
        <ele>90.4</ele>
        <time>2022-10-06T09:49:09Z</time>
      </trkpt>
      <trkpt lat="44.76732" lon="-0.11508">
        <ele>90.5</ele>
        <time>2022-10-06T09:49:10Z</time>
      </trkpt>
      <trkpt lat="44.76732" lon="-0.11506">
        <ele>90.5</ele>
        <time>2022-10-06T09:49:11Z</time>
      </trkpt>
      <trkpt lat="44.76732" lon="-0.11505">
        <ele>90.6</ele>
        <time>2022-10-06T09:49:12Z</time>
      </trkpt>
      <trkpt lat="44.76732" lon="-0.11504">
        <ele>90.6</ele>
        <time>2022-10-06T09:49:13Z</time>
      </trkpt>
      <trkpt lat="44.76731" lon="-0.11503">
        <ele>90.7</ele>
        <time>2022-10-06T09:49:14Z</time>
      </trkpt>
      <trkpt lat="44.7673" lon="-0.11503">
        <ele>90.8</ele>
        <time>2022-10-06T09:49:16Z</time>
      </trkpt>
      <trkpt lat="44.76729" lon="-0.11504">
        <ele>90.9</ele>
        <time>2022-10-06T09:49:17Z</time>
      </trkpt>
      <trkpt lat="44.76729" lon="-0.11506">
        <ele>90.9</ele>
        <time>2022-10-06T09:49:18Z</time>
      </trkpt>
      <trkpt lat="44.76729" lon="-0.11507">
        <ele>91</ele>
        <time>2022-10-06T09:49:19Z</time>
      </trkpt>
      <trkpt lat="44.76729" lon="-0.11508">
        <ele>91</ele>
        <time>2022-10-06T09:49:21Z</time>
      </trkpt>
      <trkpt lat="44.76729" lon="-0.11507">
        <ele>91.1</ele>
        <time>2022-10-06T09:49:22Z</time>
      </trkpt>
      <trkpt lat="44.76728" lon="-0.11507">
        <ele>91.1</ele>
        <time>2022-10-06T09:49:23Z</time>
      </trkpt>
      <trkpt lat="44.76728" lon="-0.11507">
        <ele>91.1</ele>
        <time>2022-10-06T09:49:25Z</time>
      </trkpt>
      <trkpt lat="44.76728" lon="-0.11507">
        <ele>91.2</ele>
        <time>2022-10-06T09:49:26Z</time>
      </trkpt>
      <trkpt lat="44.76728" lon="-0.11505">
        <ele>91.2</ele>
        <time>2022-10-06T09:49:27Z</time>
      </trkpt>
      <trkpt lat="44.76728" lon="-0.11503">
        <ele>91.3</ele>
        <time>2022-10-06T09:49:28Z</time>
      </trkpt>
      <trkpt lat="44.76729" lon="-0.11501">
        <ele>91.4</ele>
        <time>2022-10-06T09:49:30Z</time>
      </trkpt>
      <trkpt lat="44.76729" lon="-0.115">
        <ele>91.5</ele>
        <time>2022-10-06T09:49:31Z</time>
      </trkpt>
      <trkpt lat="44.76729" lon="-0.11497">
        <ele>91.6</ele>
        <time>2022-10-06T09:49:32Z</time>
      </trkpt>
      <trkpt lat="44.76728" lon="-0.11495">
        <ele>91.7</ele>
        <time>2022-10-06T09:49:33Z</time>
      </trkpt>
      <trkpt lat="44.76728" lon="-0.11493">
        <ele>91.8</ele>
        <time>2022-10-06T09:49:34Z</time>
      </trkpt>
      <trkpt lat="44.76728" lon="-0.11492">
        <ele>91.8</ele>
        <time>2022-10-06T09:49:35Z</time>
      </trkpt>
      <trkpt lat="44.76728" lon="-0.11491">
        <ele>91.9</ele>
        <time>2022-10-06T09:49:36Z</time>
      </trkpt>
      <trkpt lat="44.76728" lon="-0.11489">
        <ele>92</ele>
        <time>2022-10-06T09:49:37Z</time>
      </trkpt>
      <trkpt lat="44.76728" lon="-0.11488">
        <ele>92</ele>
        <time>2022-10-06T09:49:38Z</time>
      </trkpt>
      <trkpt lat="44.76727" lon="-0.11484">
        <ele>92.2</ele>
        <time>2022-10-06T09:49:39Z</time>
      </trkpt>
      <trkpt lat="44.76727" lon="-0.11483">
        <ele>92.3</ele>
        <time>2022-10-06T09:49:40Z</time>
      </trkpt>
      <trkpt lat="44.76727" lon="-0.11481">
        <ele>92.3</ele>
        <time>2022-10-06T09:49:42Z</time>
      </trkpt>
      <trkpt lat="44.76726" lon="-0.11479">
        <ele>92.4</ele>
        <time>2022-10-06T09:49:43Z</time>
      </trkpt>
      <trkpt lat="44.76726" lon="-0.11478">
        <ele>92.5</ele>
        <time>2022-10-06T09:49:44Z</time>
      </trkpt>
      <trkpt lat="44.76726" lon="-0.11477">
        <ele>92.5</ele>
        <time>2022-10-06T09:49:45Z</time>
      </trkpt>
      <trkpt lat="44.76725" lon="-0.11475">
        <ele>92.6</ele>
        <time>2022-10-06T09:49:46Z</time>
      </trkpt>
      <trkpt lat="44.76725" lon="-0.11473">
        <ele>92.7</ele>
        <time>2022-10-06T09:49:47Z</time>
      </trkpt>
      <trkpt lat="44.76724" lon="-0.11472">
        <ele>92.7</ele>
        <time>2022-10-06T09:49:48Z</time>
      </trkpt>
      <trkpt lat="44.76724" lon="-0.1147">
        <ele>92.8</ele>
        <time>2022-10-06T09:49:49Z</time>
      </trkpt>
      <trkpt lat="44.76723" lon="-0.11469">
        <ele>92.9</ele>
        <time>2022-10-06T09:49:50Z</time>
      </trkpt>
      <trkpt lat="44.76723" lon="-0.11467">
        <ele>92.9</ele>
        <time>2022-10-06T09:49:51Z</time>
      </trkpt>
      <trkpt lat="44.76722" lon="-0.11464">
        <ele>93.1</ele>
        <time>2022-10-06T09:49:53Z</time>
      </trkpt>
      <trkpt lat="44.76721" lon="-0.11463">
        <ele>93.1</ele>
        <time>2022-10-06T09:49:54Z</time>
      </trkpt>
      <trkpt lat="44.76721" lon="-0.11461">
        <ele>93.2</ele>
        <time>2022-10-06T09:49:55Z</time>
      </trkpt>
      <trkpt lat="44.7672" lon="-0.1146">
        <ele>93.3</ele>
        <time>2022-10-06T09:49:56Z</time>
      </trkpt>
      <trkpt lat="44.7672" lon="-0.11459">
        <ele>93.3</ele>
        <time>2022-10-06T09:49:57Z</time>
      </trkpt>
      <trkpt lat="44.76719" lon="-0.11457">
        <ele>93.4</ele>
        <time>2022-10-06T09:49:58Z</time>
      </trkpt>
      <trkpt lat="44.76719" lon="-0.11455">
        <ele>93.5</ele>
        <time>2022-10-06T09:49:59Z</time>
      </trkpt>
      <trkpt lat="44.76718" lon="-0.11454">
        <ele>93.5</ele>
        <time>2022-10-06T09:50:00Z</time>
      </trkpt>
      <trkpt lat="44.76718" lon="-0.11452">
        <ele>93.6</ele>
        <time>2022-10-06T09:50:01Z</time>
      </trkpt>
      <trkpt lat="44.76717" lon="-0.11451">
        <ele>93.7</ele>
        <time>2022-10-06T09:50:02Z</time>
      </trkpt>
      <trkpt lat="44.76717" lon="-0.1145">
        <ele>93.7</ele>
        <time>2022-10-06T09:50:03Z</time>
      </trkpt>
      <trkpt lat="44.76716" lon="-0.11447">
        <ele>93.8</ele>
        <time>2022-10-06T09:50:04Z</time>
      </trkpt>
      <trkpt lat="44.76716" lon="-0.11447">
        <ele>93.8</ele>
        <time>2022-10-06T09:50:05Z</time>
      </trkpt>
      <trkpt lat="44.76716" lon="-0.11445">
        <ele>93.9</ele>
        <time>2022-10-06T09:50:06Z</time>
      </trkpt>
      <trkpt lat="44.76715" lon="-0.11443">
        <ele>94</ele>
        <time>2022-10-06T09:50:08Z</time>
      </trkpt>
      <trkpt lat="44.76714" lon="-0.11441">
        <ele>94</ele>
        <time>2022-10-06T09:50:09Z</time>
      </trkpt>
      <trkpt lat="44.76714" lon="-0.1144">
        <ele>94.1</ele>
        <time>2022-10-06T09:50:10Z</time>
      </trkpt>
      <trkpt lat="44.76713" lon="-0.11438">
        <ele>94.1</ele>
        <time>2022-10-06T09:50:11Z</time>
      </trkpt>
      <trkpt lat="44.76713" lon="-0.11437">
        <ele>94.2</ele>
        <time>2022-10-06T09:50:12Z</time>
      </trkpt>
      <trkpt lat="44.76712" lon="-0.11435">
        <ele>94.2</ele>
        <time>2022-10-06T09:50:13Z</time>
      </trkpt>
      <trkpt lat="44.76712" lon="-0.11433">
        <ele>94.3</ele>
        <time>2022-10-06T09:50:14Z</time>
      </trkpt>
      <trkpt lat="44.76711" lon="-0.11432">
        <ele>94.4</ele>
        <time>2022-10-06T09:50:15Z</time>
      </trkpt>
      <trkpt lat="44.7671" lon="-0.1143">
        <ele>94.4</ele>
        <time>2022-10-06T09:50:16Z</time>
      </trkpt>
      <trkpt lat="44.7671" lon="-0.11429">
        <ele>94.5</ele>
        <time>2022-10-06T09:50:17Z</time>
      </trkpt>
      <trkpt lat="44.76709" lon="-0.11428">
        <ele>94.5</ele>
        <time>2022-10-06T09:50:18Z</time>
      </trkpt>
      <trkpt lat="44.76708" lon="-0.11425">
        <ele>94.6</ele>
        <time>2022-10-06T09:50:19Z</time>
      </trkpt>
      <trkpt lat="44.76708" lon="-0.11425">
        <ele>94.6</ele>
        <time>2022-10-06T09:50:20Z</time>
      </trkpt>
      <trkpt lat="44.76707" lon="-0.11423">
        <ele>94.7</ele>
        <time>2022-10-06T09:50:21Z</time>
      </trkpt>
      <trkpt lat="44.76706" lon="-0.11422">
        <ele>94.7</ele>
        <time>2022-10-06T09:50:22Z</time>
      </trkpt>
      <trkpt lat="44.76706" lon="-0.11421">
        <ele>94.8</ele>
        <time>2022-10-06T09:50:23Z</time>
      </trkpt>
      <trkpt lat="44.76705" lon="-0.11418">
        <ele>94.9</ele>
        <time>2022-10-06T09:50:24Z</time>
      </trkpt>
      <trkpt lat="44.76705" lon="-0.11417">
        <ele>94.9</ele>
        <time>2022-10-06T09:50:25Z</time>
      </trkpt>
      <trkpt lat="44.76704" lon="-0.11416">
        <ele>94.9</ele>
        <time>2022-10-06T09:50:26Z</time>
      </trkpt>
      <trkpt lat="44.76703" lon="-0.11412">
        <ele>95</ele>
        <time>2022-10-06T09:50:28Z</time>
      </trkpt>
      <trkpt lat="44.76702" lon="-0.1141">
        <ele>95.1</ele>
        <time>2022-10-06T09:50:29Z</time>
      </trkpt>
      <trkpt lat="44.76701" lon="-0.11408">
        <ele>95.2</ele>
        <time>2022-10-06T09:50:31Z</time>
      </trkpt>
      <trkpt lat="44.76701" lon="-0.11406">
        <ele>95.3</ele>
        <time>2022-10-06T09:50:32Z</time>
      </trkpt>
      <trkpt lat="44.76701" lon="-0.11405">
        <ele>95.3</ele>
        <time>2022-10-06T09:50:33Z</time>
      </trkpt>
      <trkpt lat="44.76701" lon="-0.11402">
        <ele>95.4</ele>
        <time>2022-10-06T09:50:34Z</time>
      </trkpt>
      <trkpt lat="44.76701" lon="-0.11401">
        <ele>95.4</ele>
        <time>2022-10-06T09:50:35Z</time>
      </trkpt>
      <trkpt lat="44.76701" lon="-0.114">
        <ele>95.5</ele>
        <time>2022-10-06T09:50:36Z</time>
      </trkpt>
      <trkpt lat="44.76701" lon="-0.11398">
        <ele>95.5</ele>
        <time>2022-10-06T09:50:37Z</time>
      </trkpt>
      <trkpt lat="44.76701" lon="-0.11397">
        <ele>95.6</ele>
        <time>2022-10-06T09:50:38Z</time>
      </trkpt>
      <trkpt lat="44.76701" lon="-0.11395">
        <ele>95.7</ele>
        <time>2022-10-06T09:50:39Z</time>
      </trkpt>
      <trkpt lat="44.76701" lon="-0.11393">
        <ele>95.7</ele>
        <time>2022-10-06T09:50:40Z</time>
      </trkpt>
      <trkpt lat="44.76701" lon="-0.11392">
        <ele>95.8</ele>
        <time>2022-10-06T09:50:41Z</time>
      </trkpt>
      <trkpt lat="44.76701" lon="-0.11392">
        <ele>95.8</ele>
        <time>2022-10-06T09:50:42Z</time>
      </trkpt>
      <trkpt lat="44.76701" lon="-0.11391">
        <ele>95.8</ele>
        <time>2022-10-06T09:50:43Z</time>
      </trkpt>
      <trkpt lat="44.76701" lon="-0.11391">
        <ele>95.8</ele>
        <time>2022-10-06T09:50:44Z</time>
      </trkpt>
      <trkpt lat="44.76701" lon="-0.11391">
        <ele>95.8</ele>
        <time>2022-10-06T09:50:45Z</time>
      </trkpt>
      <trkpt lat="44.76701" lon="-0.11391">
        <ele>95.8</ele>
        <time>2022-10-06T09:50:46Z</time>
      </trkpt>
      <trkpt lat="44.76701" lon="-0.11391">
        <ele>95.8</ele>
        <time>2022-10-06T09:50:47Z</time>
      </trkpt>
      <trkpt lat="44.76701" lon="-0.11391">
        <ele>95.8</ele>
        <time>2022-10-06T09:50:48Z</time>
      </trkpt>
      <trkpt lat="44.76701" lon="-0.11391">
        <ele>95.8</ele>
        <time>2022-10-06T09:50:49Z</time>
      </trkpt>
      <trkpt lat="44.76701" lon="-0.11391">
        <ele>95.8</ele>
        <time>2022-10-06T09:50:50Z</time>
      </trkpt>
      <trkpt lat="44.76701" lon="-0.11391">
        <ele>95.8</ele>
        <time>2022-10-06T09:50:52Z</time>
      </trkpt>
      <trkpt lat="44.76702" lon="-0.11391">
        <ele>95.9</ele>
        <time>2022-10-06T09:50:53Z</time>
      </trkpt>
      <trkpt lat="44.76702" lon="-0.11391">
        <ele>95.9</ele>
        <time>2022-10-06T09:50:54Z</time>
      </trkpt>
      <trkpt lat="44.76702" lon="-0.11391">
        <ele>95.9</ele>
        <time>2022-10-06T09:50:55Z</time>
      </trkpt>
      <trkpt lat="44.76702" lon="-0.11391">
        <ele>95.9</ele>
        <time>2022-10-06T09:50:56Z</time>
      </trkpt>
      <trkpt lat="44.76702" lon="-0.11391">
        <ele>95.9</ele>
        <time>2022-10-06T09:50:57Z</time>
      </trkpt>
      <trkpt lat="44.76702" lon="-0.11391">
        <ele>95.9</ele>
        <time>2022-10-06T09:50:58Z</time>
      </trkpt>
      <trkpt lat="44.76702" lon="-0.11391">
        <ele>95.9</ele>
        <time>2022-10-06T09:50:59Z</time>
      </trkpt>
      <trkpt lat="44.76702" lon="-0.11391">
        <ele>95.9</ele>
        <time>2022-10-06T09:51:00Z</time>
      </trkpt>
      <trkpt lat="44.76702" lon="-0.11391">
        <ele>95.9</ele>
        <time>2022-10-06T09:51:01Z</time>
      </trkpt>
      <trkpt lat="44.76702" lon="-0.11391">
        <ele>95.9</ele>
        <time>2022-10-06T09:51:03Z</time>
      </trkpt>
      <trkpt lat="44.76703" lon="-0.11391">
        <ele>95.9</ele>
        <time>2022-10-06T09:51:05Z</time>
      </trkpt>
      <trkpt lat="44.76703" lon="-0.11391">
        <ele>95.9</ele>
        <time>2022-10-06T09:51:06Z</time>
      </trkpt>
      <trkpt lat="44.76703" lon="-0.11391">
        <ele>95.9</ele>
        <time>2022-10-06T09:51:07Z</time>
      </trkpt>
      <trkpt lat="44.76703" lon="-0.11391">
        <ele>96</ele>
        <time>2022-10-06T09:51:08Z</time>
      </trkpt>
      <trkpt lat="44.76703" lon="-0.11391">
        <ele>96</ele>
        <time>2022-10-06T09:51:09Z</time>
      </trkpt>
      <trkpt lat="44.76703" lon="-0.11392">
        <ele>96</ele>
        <time>2022-10-06T09:51:10Z</time>
      </trkpt>
      <trkpt lat="44.76703" lon="-0.11392">
        <ele>96</ele>
        <time>2022-10-06T09:51:11Z</time>
      </trkpt>
      <trkpt lat="44.76703" lon="-0.11392">
        <ele>96</ele>
        <time>2022-10-06T09:51:12Z</time>
      </trkpt>
      <trkpt lat="44.76703" lon="-0.11392">
        <ele>96</ele>
        <time>2022-10-06T09:51:13Z</time>
      </trkpt>
      <trkpt lat="44.76703" lon="-0.11392">
        <ele>96</ele>
        <time>2022-10-06T09:51:14Z</time>
      </trkpt>
      <trkpt lat="44.76703" lon="-0.11392">
        <ele>96</ele>
        <time>2022-10-06T09:51:15Z</time>
      </trkpt>
      <trkpt lat="44.76703" lon="-0.11392">
        <ele>96</ele>
        <time>2022-10-06T09:51:17Z</time>
      </trkpt>
      <trkpt lat="44.76703" lon="-0.11392">
        <ele>96</ele>
        <time>2022-10-06T09:51:18Z</time>
      </trkpt>
      <trkpt lat="44.76703" lon="-0.11392">
        <ele>96</ele>
        <time>2022-10-06T09:51:19Z</time>
      </trkpt>
      <trkpt lat="44.76703" lon="-0.11392">
        <ele>96</ele>
        <time>2022-10-06T09:51:20Z</time>
      </trkpt>
      <trkpt lat="44.76703" lon="-0.11392">
        <ele>96</ele>
        <time>2022-10-06T09:51:21Z</time>
      </trkpt>
      <trkpt lat="44.76703" lon="-0.11392">
        <ele>96</ele>
        <time>2022-10-06T09:51:22Z</time>
      </trkpt>
      <trkpt lat="44.76703" lon="-0.11392">
        <ele>96</ele>
        <time>2022-10-06T09:51:23Z</time>
      </trkpt>
      <trkpt lat="44.76703" lon="-0.11392">
        <ele>96</ele>
        <time>2022-10-06T09:51:24Z</time>
      </trkpt>
      <trkpt lat="44.76703" lon="-0.11392">
        <ele>96</ele>
        <time>2022-10-06T09:51:25Z</time>
      </trkpt>
      <trkpt lat="44.76703" lon="-0.11392">
        <ele>96</ele>
        <time>2022-10-06T09:51:26Z</time>
      </trkpt>
      <trkpt lat="44.76703" lon="-0.11391">
        <ele>96</ele>
        <time>2022-10-06T09:51:27Z</time>
      </trkpt>
      <trkpt lat="44.76703" lon="-0.1139">
        <ele>96</ele>
        <time>2022-10-06T09:51:28Z</time>
      </trkpt>
      <trkpt lat="44.76703" lon="-0.11389">
        <ele>96.1</ele>
        <time>2022-10-06T09:51:30Z</time>
      </trkpt>
      <trkpt lat="44.76706" lon="-0.11386">
        <ele>96.3</ele>
        <time>2022-10-06T09:51:31Z</time>
      </trkpt>
      <trkpt lat="44.76703" lon="-0.11384">
        <ele>96.8</ele>
        <time>2022-10-06T09:51:32Z</time>
      </trkpt>
      <trkpt lat="44.76702" lon="-0.11384">
        <ele>96.8</ele>
        <time>2022-10-06T09:51:33Z</time>
      </trkpt>
      <trkpt lat="44.767" lon="-0.11383">
        <ele>96.8</ele>
        <time>2022-10-06T09:51:34Z</time>
      </trkpt>
      <trkpt lat="44.76698" lon="-0.11382">
        <ele>96.8</ele>
        <time>2022-10-06T09:51:35Z</time>
      </trkpt>
      <trkpt lat="44.76697" lon="-0.11382">
        <ele>96.8</ele>
        <time>2022-10-06T09:51:36Z</time>
      </trkpt>
      <trkpt lat="44.76697" lon="-0.11382">
        <ele>96.8</ele>
        <time>2022-10-06T09:51:37Z</time>
      </trkpt>
      <trkpt lat="44.76696" lon="-0.11381">
        <ele>96.8</ele>
        <time>2022-10-06T09:51:38Z</time>
      </trkpt>
      <trkpt lat="44.76693" lon="-0.11377">
        <ele>96.8</ele>
        <time>2022-10-06T09:51:40Z</time>
      </trkpt>
      <trkpt lat="44.76693" lon="-0.11376">
        <ele>96.8</ele>
        <time>2022-10-06T09:51:41Z</time>
      </trkpt>
      <trkpt lat="44.76693" lon="-0.11375">
        <ele>96.8</ele>
        <time>2022-10-06T09:51:42Z</time>
      </trkpt>
      <trkpt lat="44.76692" lon="-0.11373">
        <ele>96.8</ele>
        <time>2022-10-06T09:51:43Z</time>
      </trkpt>
      <trkpt lat="44.76692" lon="-0.11371">
        <ele>96.8</ele>
        <time>2022-10-06T09:51:44Z</time>
      </trkpt>
      <trkpt lat="44.76693" lon="-0.11369">
        <ele>96.8</ele>
        <time>2022-10-06T09:51:46Z</time>
      </trkpt>
      <trkpt lat="44.76693" lon="-0.11367">
        <ele>96.8</ele>
        <time>2022-10-06T09:51:47Z</time>
      </trkpt>
      <trkpt lat="44.76694" lon="-0.11366">
        <ele>96.8</ele>
        <time>2022-10-06T09:51:48Z</time>
      </trkpt>
      <trkpt lat="44.76694" lon="-0.11365">
        <ele>96.8</ele>
        <time>2022-10-06T09:51:49Z</time>
      </trkpt>
      <trkpt lat="44.76693" lon="-0.11361">
        <ele>96.8</ele>
        <time>2022-10-06T09:51:51Z</time>
      </trkpt>
      <trkpt lat="44.76693" lon="-0.11358">
        <ele>96.8</ele>
        <time>2022-10-06T09:51:53Z</time>
      </trkpt>
      <trkpt lat="44.76693" lon="-0.11356">
        <ele>96.8</ele>
        <time>2022-10-06T09:51:54Z</time>
      </trkpt>
      <trkpt lat="44.76693" lon="-0.11354">
        <ele>96.8</ele>
        <time>2022-10-06T09:51:55Z</time>
      </trkpt>
      <trkpt lat="44.76693" lon="-0.11353">
        <ele>96.8</ele>
        <time>2022-10-06T09:51:56Z</time>
      </trkpt>
      <trkpt lat="44.76693" lon="-0.11352">
        <ele>96.8</ele>
        <time>2022-10-06T09:51:57Z</time>
      </trkpt>
      <trkpt lat="44.76693" lon="-0.1135">
        <ele>96.9</ele>
        <time>2022-10-06T09:51:58Z</time>
      </trkpt>
      <trkpt lat="44.76693" lon="-0.11349">
        <ele>96.9</ele>
        <time>2022-10-06T09:51:59Z</time>
      </trkpt>
      <trkpt lat="44.76693" lon="-0.11347">
        <ele>96.9</ele>
        <time>2022-10-06T09:52:00Z</time>
      </trkpt>
      <trkpt lat="44.76692" lon="-0.11344">
        <ele>96.9</ele>
        <time>2022-10-06T09:52:02Z</time>
      </trkpt>
      <trkpt lat="44.76692" lon="-0.11343">
        <ele>96.9</ele>
        <time>2022-10-06T09:52:03Z</time>
      </trkpt>
      <trkpt lat="44.76692" lon="-0.11341">
        <ele>96.9</ele>
        <time>2022-10-06T09:52:04Z</time>
      </trkpt>
      <trkpt lat="44.76692" lon="-0.11338">
        <ele>96.9</ele>
        <time>2022-10-06T09:52:06Z</time>
      </trkpt>
      <trkpt lat="44.76692" lon="-0.11337">
        <ele>96.9</ele>
        <time>2022-10-06T09:52:07Z</time>
      </trkpt>
      <trkpt lat="44.76692" lon="-0.11335">
        <ele>96.9</ele>
        <time>2022-10-06T09:52:08Z</time>
      </trkpt>
      <trkpt lat="44.76692" lon="-0.11334">
        <ele>96.9</ele>
        <time>2022-10-06T09:52:09Z</time>
      </trkpt>
      <trkpt lat="44.76692" lon="-0.11331">
        <ele>96.9</ele>
        <time>2022-10-06T09:52:11Z</time>
      </trkpt>
      <trkpt lat="44.76692" lon="-0.11329">
        <ele>96.9</ele>
        <time>2022-10-06T09:52:12Z</time>
      </trkpt>
      <trkpt lat="44.76692" lon="-0.11327">
        <ele>96.9</ele>
        <time>2022-10-06T09:52:13Z</time>
      </trkpt>
      <trkpt lat="44.76692" lon="-0.11326">
        <ele>96.9</ele>
        <time>2022-10-06T09:52:14Z</time>
      </trkpt>
      <trkpt lat="44.76692" lon="-0.11324">
        <ele>96.9</ele>
        <time>2022-10-06T09:52:15Z</time>
      </trkpt>
      <trkpt lat="44.76692" lon="-0.11323">
        <ele>96.9</ele>
        <time>2022-10-06T09:52:16Z</time>
      </trkpt>
      <trkpt lat="44.76692" lon="-0.11321">
        <ele>96.9</ele>
        <time>2022-10-06T09:52:17Z</time>
      </trkpt>
      <trkpt lat="44.76692" lon="-0.1132">
        <ele>96.9</ele>
        <time>2022-10-06T09:52:18Z</time>
      </trkpt>
      <trkpt lat="44.76692" lon="-0.11318">
        <ele>96.9</ele>
        <time>2022-10-06T09:52:19Z</time>
      </trkpt>
      <trkpt lat="44.76692" lon="-0.11315">
        <ele>96.9</ele>
        <time>2022-10-06T09:52:21Z</time>
      </trkpt>
      <trkpt lat="44.76692" lon="-0.11313">
        <ele>96.9</ele>
        <time>2022-10-06T09:52:22Z</time>
      </trkpt>
      <trkpt lat="44.76692" lon="-0.11312">
        <ele>96.9</ele>
        <time>2022-10-06T09:52:23Z</time>
      </trkpt>
      <trkpt lat="44.76692" lon="-0.11309">
        <ele>96.9</ele>
        <time>2022-10-06T09:52:24Z</time>
      </trkpt>
      <trkpt lat="44.76692" lon="-0.11308">
        <ele>96.9</ele>
        <time>2022-10-06T09:52:25Z</time>
      </trkpt>
      <trkpt lat="44.76692" lon="-0.11307">
        <ele>96.9</ele>
        <time>2022-10-06T09:52:26Z</time>
      </trkpt>
      <trkpt lat="44.76692" lon="-0.11305">
        <ele>96.9</ele>
        <time>2022-10-06T09:52:27Z</time>
      </trkpt>
      <trkpt lat="44.76691" lon="-0.11303">
        <ele>96.9</ele>
        <time>2022-10-06T09:52:28Z</time>
      </trkpt>
      <trkpt lat="44.76691" lon="-0.11302">
        <ele>96.9</ele>
        <time>2022-10-06T09:52:29Z</time>
      </trkpt>
      <trkpt lat="44.76691" lon="-0.11299">
        <ele>96.8</ele>
        <time>2022-10-06T09:52:30Z</time>
      </trkpt>
      <trkpt lat="44.76691" lon="-0.11298">
        <ele>96.8</ele>
        <time>2022-10-06T09:52:31Z</time>
      </trkpt>
      <trkpt lat="44.76691" lon="-0.11296">
        <ele>96.8</ele>
        <time>2022-10-06T09:52:32Z</time>
      </trkpt>
      <trkpt lat="44.76691" lon="-0.11293">
        <ele>96.8</ele>
        <time>2022-10-06T09:52:33Z</time>
      </trkpt>
      <trkpt lat="44.76691" lon="-0.11292">
        <ele>96.8</ele>
        <time>2022-10-06T09:52:34Z</time>
      </trkpt>
      <trkpt lat="44.76691" lon="-0.1129">
        <ele>96.8</ele>
        <time>2022-10-06T09:52:35Z</time>
      </trkpt>
      <trkpt lat="44.76691" lon="-0.11289">
        <ele>96.8</ele>
        <time>2022-10-06T09:52:36Z</time>
      </trkpt>
      <trkpt lat="44.76692" lon="-0.11288">
        <ele>96.8</ele>
        <time>2022-10-06T09:52:37Z</time>
      </trkpt>
      <trkpt lat="44.76692" lon="-0.11286">
        <ele>96.8</ele>
        <time>2022-10-06T09:52:38Z</time>
      </trkpt>
      <trkpt lat="44.76692" lon="-0.11283">
        <ele>96.7</ele>
        <time>2022-10-06T09:52:39Z</time>
      </trkpt>
      <trkpt lat="44.76692" lon="-0.11282">
        <ele>96.7</ele>
        <time>2022-10-06T09:52:40Z</time>
      </trkpt>
      <trkpt lat="44.76691" lon="-0.11281">
        <ele>96.7</ele>
        <time>2022-10-06T09:52:41Z</time>
      </trkpt>
      <trkpt lat="44.76691" lon="-0.11278">
        <ele>96.7</ele>
        <time>2022-10-06T09:52:42Z</time>
      </trkpt>
      <trkpt lat="44.76691" lon="-0.11277">
        <ele>96.7</ele>
        <time>2022-10-06T09:52:43Z</time>
      </trkpt>
      <trkpt lat="44.76691" lon="-0.11276">
        <ele>96.7</ele>
        <time>2022-10-06T09:52:44Z</time>
      </trkpt>
      <trkpt lat="44.76691" lon="-0.11273">
        <ele>96.6</ele>
        <time>2022-10-06T09:52:45Z</time>
      </trkpt>
      <trkpt lat="44.76691" lon="-0.11272">
        <ele>96.6</ele>
        <time>2022-10-06T09:52:46Z</time>
      </trkpt>
      <trkpt lat="44.76691" lon="-0.1127">
        <ele>96.6</ele>
        <time>2022-10-06T09:52:47Z</time>
      </trkpt>
      <trkpt lat="44.76691" lon="-0.11268">
        <ele>96.6</ele>
        <time>2022-10-06T09:52:48Z</time>
      </trkpt>
      <trkpt lat="44.76692" lon="-0.11267">
        <ele>96.6</ele>
        <time>2022-10-06T09:52:49Z</time>
      </trkpt>
      <trkpt lat="44.76692" lon="-0.11264">
        <ele>96.6</ele>
        <time>2022-10-06T09:52:50Z</time>
      </trkpt>
      <trkpt lat="44.76692" lon="-0.11263">
        <ele>96.6</ele>
        <time>2022-10-06T09:52:51Z</time>
      </trkpt>
      <trkpt lat="44.76692" lon="-0.11262">
        <ele>96.5</ele>
        <time>2022-10-06T09:52:52Z</time>
      </trkpt>
      <trkpt lat="44.76692" lon="-0.1126">
        <ele>96.5</ele>
        <time>2022-10-06T09:52:53Z</time>
      </trkpt>
      <trkpt lat="44.76693" lon="-0.11259">
        <ele>96.5</ele>
        <time>2022-10-06T09:52:54Z</time>
      </trkpt>
      <trkpt lat="44.76693" lon="-0.11255">
        <ele>96.5</ele>
        <time>2022-10-06T09:52:56Z</time>
      </trkpt>
      <trkpt lat="44.76693" lon="-0.11254">
        <ele>96.5</ele>
        <time>2022-10-06T09:52:57Z</time>
      </trkpt>
      <trkpt lat="44.76693" lon="-0.11252">
        <ele>96.5</ele>
        <time>2022-10-06T09:52:58Z</time>
      </trkpt>
      <trkpt lat="44.76693" lon="-0.11249">
        <ele>96.4</ele>
        <time>2022-10-06T09:52:59Z</time>
      </trkpt>
      <trkpt lat="44.76693" lon="-0.11248">
        <ele>96.4</ele>
        <time>2022-10-06T09:53:00Z</time>
      </trkpt>
      <trkpt lat="44.76694" lon="-0.11247">
        <ele>96.4</ele>
        <time>2022-10-06T09:53:01Z</time>
      </trkpt>
      <trkpt lat="44.76694" lon="-0.11246">
        <ele>96.4</ele>
        <time>2022-10-06T09:53:02Z</time>
      </trkpt>
      <trkpt lat="44.76694" lon="-0.11244">
        <ele>96.4</ele>
        <time>2022-10-06T09:53:03Z</time>
      </trkpt>
      <trkpt lat="44.76694" lon="-0.11242">
        <ele>96.4</ele>
        <time>2022-10-06T09:53:04Z</time>
      </trkpt>
      <trkpt lat="44.76694" lon="-0.11238">
        <ele>96.3</ele>
        <time>2022-10-06T09:53:05Z</time>
      </trkpt>
      <trkpt lat="44.76694" lon="-0.11236">
        <ele>96.3</ele>
        <time>2022-10-06T09:53:07Z</time>
      </trkpt>
      <trkpt lat="44.76694" lon="-0.11234">
        <ele>96.3</ele>
        <time>2022-10-06T09:53:08Z</time>
      </trkpt>
      <trkpt lat="44.76694" lon="-0.11233">
        <ele>96.2</ele>
        <time>2022-10-06T09:53:09Z</time>
      </trkpt>
      <trkpt lat="44.76694" lon="-0.11231">
        <ele>96.2</ele>
        <time>2022-10-06T09:53:10Z</time>
      </trkpt>
      <trkpt lat="44.76694" lon="-0.1123">
        <ele>96.2</ele>
        <time>2022-10-06T09:53:11Z</time>
      </trkpt>
      <trkpt lat="44.76694" lon="-0.11228">
        <ele>96.2</ele>
        <time>2022-10-06T09:53:12Z</time>
      </trkpt>
      <trkpt lat="44.76694" lon="-0.11226">
        <ele>96.2</ele>
        <time>2022-10-06T09:53:13Z</time>
      </trkpt>
      <trkpt lat="44.76694" lon="-0.11224">
        <ele>96.2</ele>
        <time>2022-10-06T09:53:14Z</time>
      </trkpt>
      <trkpt lat="44.76694" lon="-0.11222">
        <ele>96.1</ele>
        <time>2022-10-06T09:53:15Z</time>
      </trkpt>
      <trkpt lat="44.76694" lon="-0.11221">
        <ele>96.1</ele>
        <time>2022-10-06T09:53:16Z</time>
      </trkpt>
      <trkpt lat="44.76694" lon="-0.11219">
        <ele>96.1</ele>
        <time>2022-10-06T09:53:17Z</time>
      </trkpt>
      <trkpt lat="44.76694" lon="-0.11217">
        <ele>96.1</ele>
        <time>2022-10-06T09:53:18Z</time>
      </trkpt>
      <trkpt lat="44.76694" lon="-0.11216">
        <ele>96.1</ele>
        <time>2022-10-06T09:53:19Z</time>
      </trkpt>
      <trkpt lat="44.76694" lon="-0.11213">
        <ele>96.1</ele>
        <time>2022-10-06T09:53:20Z</time>
      </trkpt>
      <trkpt lat="44.76694" lon="-0.11212">
        <ele>96.1</ele>
        <time>2022-10-06T09:53:21Z</time>
      </trkpt>
      <trkpt lat="44.76694" lon="-0.11211">
        <ele>96.1</ele>
        <time>2022-10-06T09:53:22Z</time>
      </trkpt>
      <trkpt lat="44.76694" lon="-0.11209">
        <ele>96.1</ele>
        <time>2022-10-06T09:53:23Z</time>
      </trkpt>
      <trkpt lat="44.76694" lon="-0.11207">
        <ele>96.1</ele>
        <time>2022-10-06T09:53:24Z</time>
      </trkpt>
      <trkpt lat="44.76694" lon="-0.11205">
        <ele>96.1</ele>
        <time>2022-10-06T09:53:25Z</time>
      </trkpt>
      <trkpt lat="44.76694" lon="-0.11203">
        <ele>96.1</ele>
        <time>2022-10-06T09:53:26Z</time>
      </trkpt>
      <trkpt lat="44.76694" lon="-0.11201">
        <ele>96.1</ele>
        <time>2022-10-06T09:53:27Z</time>
      </trkpt>
      <trkpt lat="44.76694" lon="-0.112">
        <ele>96.1</ele>
        <time>2022-10-06T09:53:28Z</time>
      </trkpt>
      <trkpt lat="44.76694" lon="-0.11198">
        <ele>96.1</ele>
        <time>2022-10-06T09:53:29Z</time>
      </trkpt>
      <trkpt lat="44.76694" lon="-0.11196">
        <ele>96.1</ele>
        <time>2022-10-06T09:53:30Z</time>
      </trkpt>
      <trkpt lat="44.76694" lon="-0.11194">
        <ele>96.1</ele>
        <time>2022-10-06T09:53:31Z</time>
      </trkpt>
      <trkpt lat="44.76694" lon="-0.11193">
        <ele>96.1</ele>
        <time>2022-10-06T09:53:32Z</time>
      </trkpt>
      <trkpt lat="44.76694" lon="-0.11191">
        <ele>96.1</ele>
        <time>2022-10-06T09:53:33Z</time>
      </trkpt>
      <trkpt lat="44.76694" lon="-0.11189">
        <ele>96.1</ele>
        <time>2022-10-06T09:53:34Z</time>
      </trkpt>
      <trkpt lat="44.76694" lon="-0.11187">
        <ele>96.1</ele>
        <time>2022-10-06T09:53:36Z</time>
      </trkpt>
      <trkpt lat="44.76694" lon="-0.11186">
        <ele>96.1</ele>
        <time>2022-10-06T09:53:37Z</time>
      </trkpt>
      <trkpt lat="44.76695" lon="-0.11183">
        <ele>96.1</ele>
        <time>2022-10-06T09:53:38Z</time>
      </trkpt>
      <trkpt lat="44.76694" lon="-0.11181">
        <ele>96.1</ele>
        <time>2022-10-06T09:53:39Z</time>
      </trkpt>
      <trkpt lat="44.76694" lon="-0.11178">
        <ele>96.1</ele>
        <time>2022-10-06T09:53:40Z</time>
      </trkpt>
      <trkpt lat="44.76694" lon="-0.11177">
        <ele>96.2</ele>
        <time>2022-10-06T09:53:41Z</time>
      </trkpt>
      <trkpt lat="44.76695" lon="-0.11175">
        <ele>96.2</ele>
        <time>2022-10-06T09:53:42Z</time>
      </trkpt>
      <trkpt lat="44.76695" lon="-0.11174">
        <ele>96.2</ele>
        <time>2022-10-06T09:53:43Z</time>
      </trkpt>
      <trkpt lat="44.76694" lon="-0.11172">
        <ele>96.2</ele>
        <time>2022-10-06T09:53:44Z</time>
      </trkpt>
      <trkpt lat="44.76694" lon="-0.1117">
        <ele>96.2</ele>
        <time>2022-10-06T09:53:45Z</time>
      </trkpt>
      <trkpt lat="44.76694" lon="-0.11169">
        <ele>96.2</ele>
        <time>2022-10-06T09:53:46Z</time>
      </trkpt>
      <trkpt lat="44.76694" lon="-0.11167">
        <ele>96.2</ele>
        <time>2022-10-06T09:53:47Z</time>
      </trkpt>
      <trkpt lat="44.76694" lon="-0.11165">
        <ele>96.2</ele>
        <time>2022-10-06T09:53:48Z</time>
      </trkpt>
      <trkpt lat="44.76695" lon="-0.11163">
        <ele>96.3</ele>
        <time>2022-10-06T09:53:49Z</time>
      </trkpt>
      <trkpt lat="44.76695" lon="-0.11161">
        <ele>96.3</ele>
        <time>2022-10-06T09:53:50Z</time>
      </trkpt>
      <trkpt lat="44.76695" lon="-0.1116">
        <ele>96.3</ele>
        <time>2022-10-06T09:53:51Z</time>
      </trkpt>
      <trkpt lat="44.76695" lon="-0.11158">
        <ele>96.3</ele>
        <time>2022-10-06T09:53:52Z</time>
      </trkpt>
      <trkpt lat="44.76695" lon="-0.11156">
        <ele>96.4</ele>
        <time>2022-10-06T09:53:53Z</time>
      </trkpt>
      <trkpt lat="44.76695" lon="-0.11153">
        <ele>96.4</ele>
        <time>2022-10-06T09:53:54Z</time>
      </trkpt>
      <trkpt lat="44.76695" lon="-0.11151">
        <ele>96.4</ele>
        <time>2022-10-06T09:53:56Z</time>
      </trkpt>
      <trkpt lat="44.76695" lon="-0.11149">
        <ele>96.5</ele>
        <time>2022-10-06T09:53:57Z</time>
      </trkpt>
      <trkpt lat="44.76695" lon="-0.11147">
        <ele>96.5</ele>
        <time>2022-10-06T09:53:59Z</time>
      </trkpt>
      <trkpt lat="44.76695" lon="-0.11145">
        <ele>96.6</ele>
        <time>2022-10-06T09:54:00Z</time>
      </trkpt>
      <trkpt lat="44.76695" lon="-0.11143">
        <ele>96.6</ele>
        <time>2022-10-06T09:54:01Z</time>
      </trkpt>
      <trkpt lat="44.76695" lon="-0.11141">
        <ele>96.6</ele>
        <time>2022-10-06T09:54:02Z</time>
      </trkpt>
      <trkpt lat="44.76695" lon="-0.11139">
        <ele>96.7</ele>
        <time>2022-10-06T09:54:03Z</time>
      </trkpt>
      <trkpt lat="44.76695" lon="-0.11138">
        <ele>96.7</ele>
        <time>2022-10-06T09:54:04Z</time>
      </trkpt>
      <trkpt lat="44.76695" lon="-0.11135">
        <ele>96.7</ele>
        <time>2022-10-06T09:54:05Z</time>
      </trkpt>
      <trkpt lat="44.76695" lon="-0.11134">
        <ele>96.8</ele>
        <time>2022-10-06T09:54:06Z</time>
      </trkpt>
      <trkpt lat="44.76695" lon="-0.11133">
        <ele>96.8</ele>
        <time>2022-10-06T09:54:07Z</time>
      </trkpt>
      <trkpt lat="44.76695" lon="-0.11129">
        <ele>96.8</ele>
        <time>2022-10-06T09:54:08Z</time>
      </trkpt>
      <trkpt lat="44.76695" lon="-0.11128">
        <ele>96.9</ele>
        <time>2022-10-06T09:54:09Z</time>
      </trkpt>
      <trkpt lat="44.76695" lon="-0.11126">
        <ele>96.9</ele>
        <time>2022-10-06T09:54:10Z</time>
      </trkpt>
      <trkpt lat="44.76695" lon="-0.11124">
        <ele>96.9</ele>
        <time>2022-10-06T09:54:11Z</time>
      </trkpt>
      <trkpt lat="44.76695" lon="-0.11123">
        <ele>96.9</ele>
        <time>2022-10-06T09:54:12Z</time>
      </trkpt>
      <trkpt lat="44.76695" lon="-0.11122">
        <ele>96.9</ele>
        <time>2022-10-06T09:54:13Z</time>
      </trkpt>
      <trkpt lat="44.76695" lon="-0.11121">
        <ele>96.9</ele>
        <time>2022-10-06T09:54:14Z</time>
      </trkpt>
      <trkpt lat="44.76695" lon="-0.11117">
        <ele>96.9</ele>
        <time>2022-10-06T09:54:15Z</time>
      </trkpt>
      <trkpt lat="44.76695" lon="-0.11116">
        <ele>97</ele>
        <time>2022-10-06T09:54:16Z</time>
      </trkpt>
      <trkpt lat="44.76695" lon="-0.11115">
        <ele>97</ele>
        <time>2022-10-06T09:54:17Z</time>
      </trkpt>
      <trkpt lat="44.76695" lon="-0.11112">
        <ele>97</ele>
        <time>2022-10-06T09:54:18Z</time>
      </trkpt>
      <trkpt lat="44.76695" lon="-0.11111">
        <ele>97</ele>
        <time>2022-10-06T09:54:19Z</time>
      </trkpt>
      <trkpt lat="44.76695" lon="-0.1111">
        <ele>97</ele>
        <time>2022-10-06T09:54:20Z</time>
      </trkpt>
      <trkpt lat="44.76695" lon="-0.11108">
        <ele>97</ele>
        <time>2022-10-06T09:54:21Z</time>
      </trkpt>
      <trkpt lat="44.76695" lon="-0.11106">
        <ele>97</ele>
        <time>2022-10-06T09:54:22Z</time>
      </trkpt>
      <trkpt lat="44.76695" lon="-0.11105">
        <ele>97</ele>
        <time>2022-10-06T09:54:23Z</time>
      </trkpt>
      <trkpt lat="44.76695" lon="-0.11103">
        <ele>97</ele>
        <time>2022-10-06T09:54:24Z</time>
      </trkpt>
      <trkpt lat="44.76695" lon="-0.111">
        <ele>97</ele>
        <time>2022-10-06T09:54:25Z</time>
      </trkpt>
      <trkpt lat="44.76695" lon="-0.11099">
        <ele>97</ele>
        <time>2022-10-06T09:54:26Z</time>
      </trkpt>
      <trkpt lat="44.76695" lon="-0.11097">
        <ele>97</ele>
        <time>2022-10-06T09:54:27Z</time>
      </trkpt>
      <trkpt lat="44.76695" lon="-0.11095">
        <ele>97</ele>
        <time>2022-10-06T09:54:28Z</time>
      </trkpt>
      <trkpt lat="44.76695" lon="-0.11094">
        <ele>97</ele>
        <time>2022-10-06T09:54:29Z</time>
      </trkpt>
      <trkpt lat="44.76695" lon="-0.11091">
        <ele>97.1</ele>
        <time>2022-10-06T09:54:30Z</time>
      </trkpt>
      <trkpt lat="44.76695" lon="-0.1109">
        <ele>97.1</ele>
        <time>2022-10-06T09:54:31Z</time>
      </trkpt>
      <trkpt lat="44.76695" lon="-0.11088">
        <ele>97.1</ele>
        <time>2022-10-06T09:54:32Z</time>
      </trkpt>
      <trkpt lat="44.76694" lon="-0.11086">
        <ele>97.1</ele>
        <time>2022-10-06T09:54:33Z</time>
      </trkpt>
      <trkpt lat="44.76694" lon="-0.11085">
        <ele>97.1</ele>
        <time>2022-10-06T09:54:34Z</time>
      </trkpt>
      <trkpt lat="44.76694" lon="-0.11082">
        <ele>97.1</ele>
        <time>2022-10-06T09:54:35Z</time>
      </trkpt>
      <trkpt lat="44.76693" lon="-0.11079">
        <ele>97.1</ele>
        <time>2022-10-06T09:54:37Z</time>
      </trkpt>
      <trkpt lat="44.76693" lon="-0.11074">
        <ele>97.1</ele>
        <time>2022-10-06T09:54:39Z</time>
      </trkpt>
      <trkpt lat="44.76693" lon="-0.11071">
        <ele>97.1</ele>
        <time>2022-10-06T09:54:40Z</time>
      </trkpt>
      <trkpt lat="44.76693" lon="-0.11071">
        <ele>97.2</ele>
        <time>2022-10-06T09:54:41Z</time>
      </trkpt>
      <trkpt lat="44.76693" lon="-0.11069">
        <ele>97.2</ele>
        <time>2022-10-06T09:54:42Z</time>
      </trkpt>
      <trkpt lat="44.76693" lon="-0.11067">
        <ele>97.2</ele>
        <time>2022-10-06T09:54:43Z</time>
      </trkpt>
      <trkpt lat="44.76693" lon="-0.11066">
        <ele>97.2</ele>
        <time>2022-10-06T09:54:44Z</time>
      </trkpt>
      <trkpt lat="44.76693" lon="-0.11064">
        <ele>97.2</ele>
        <time>2022-10-06T09:54:45Z</time>
      </trkpt>
      <trkpt lat="44.76693" lon="-0.11062">
        <ele>97.2</ele>
        <time>2022-10-06T09:54:46Z</time>
      </trkpt>
      <trkpt lat="44.76693" lon="-0.11061">
        <ele>97.2</ele>
        <time>2022-10-06T09:54:47Z</time>
      </trkpt>
      <trkpt lat="44.76693" lon="-0.11059">
        <ele>97.2</ele>
        <time>2022-10-06T09:54:48Z</time>
      </trkpt>
      <trkpt lat="44.76693" lon="-0.11057">
        <ele>97.3</ele>
        <time>2022-10-06T09:54:49Z</time>
      </trkpt>
      <trkpt lat="44.76693" lon="-0.11054">
        <ele>97.3</ele>
        <time>2022-10-06T09:54:50Z</time>
      </trkpt>
      <trkpt lat="44.76693" lon="-0.11053">
        <ele>97.3</ele>
        <time>2022-10-06T09:54:51Z</time>
      </trkpt>
      <trkpt lat="44.76693" lon="-0.11051">
        <ele>97.3</ele>
        <time>2022-10-06T09:54:52Z</time>
      </trkpt>
      <trkpt lat="44.76693" lon="-0.11048">
        <ele>97.3</ele>
        <time>2022-10-06T09:54:54Z</time>
      </trkpt>
      <trkpt lat="44.76693" lon="-0.11045">
        <ele>97.3</ele>
        <time>2022-10-06T09:54:55Z</time>
      </trkpt>
      <trkpt lat="44.76693" lon="-0.11044">
        <ele>97.3</ele>
        <time>2022-10-06T09:54:56Z</time>
      </trkpt>
      <trkpt lat="44.76693" lon="-0.11042">
        <ele>97.3</ele>
        <time>2022-10-06T09:54:57Z</time>
      </trkpt>
      <trkpt lat="44.76693" lon="-0.11041">
        <ele>97.3</ele>
        <time>2022-10-06T09:54:58Z</time>
      </trkpt>
      <trkpt lat="44.76693" lon="-0.11039">
        <ele>97.4</ele>
        <time>2022-10-06T09:54:59Z</time>
      </trkpt>
      <trkpt lat="44.76693" lon="-0.11036">
        <ele>97.4</ele>
        <time>2022-10-06T09:55:00Z</time>
      </trkpt>
      <trkpt lat="44.76693" lon="-0.11033">
        <ele>97.4</ele>
        <time>2022-10-06T09:55:02Z</time>
      </trkpt>
      <trkpt lat="44.76693" lon="-0.11032">
        <ele>97.4</ele>
        <time>2022-10-06T09:55:03Z</time>
      </trkpt>
      <trkpt lat="44.76693" lon="-0.1103">
        <ele>97.4</ele>
        <time>2022-10-06T09:55:04Z</time>
      </trkpt>
      <trkpt lat="44.76693" lon="-0.11027">
        <ele>97.4</ele>
        <time>2022-10-06T09:55:05Z</time>
      </trkpt>
      <trkpt lat="44.76693" lon="-0.11025">
        <ele>97.4</ele>
        <time>2022-10-06T09:55:06Z</time>
      </trkpt>
      <trkpt lat="44.76693" lon="-0.11024">
        <ele>97.5</ele>
        <time>2022-10-06T09:55:07Z</time>
      </trkpt>
      <trkpt lat="44.76693" lon="-0.11023">
        <ele>97.5</ele>
        <time>2022-10-06T09:55:08Z</time>
      </trkpt>
      <trkpt lat="44.76693" lon="-0.11022">
        <ele>97.5</ele>
        <time>2022-10-06T09:55:09Z</time>
      </trkpt>
      <trkpt lat="44.76693" lon="-0.11019">
        <ele>97.5</ele>
        <time>2022-10-06T09:55:10Z</time>
      </trkpt>
      <trkpt lat="44.76693" lon="-0.11018">
        <ele>97.5</ele>
        <time>2022-10-06T09:55:11Z</time>
      </trkpt>
      <trkpt lat="44.76693" lon="-0.11016">
        <ele>97.5</ele>
        <time>2022-10-06T09:55:12Z</time>
      </trkpt>
      <trkpt lat="44.76693" lon="-0.11015">
        <ele>97.5</ele>
        <time>2022-10-06T09:55:13Z</time>
      </trkpt>
      <trkpt lat="44.76693" lon="-0.11013">
        <ele>97.6</ele>
        <time>2022-10-06T09:55:14Z</time>
      </trkpt>
      <trkpt lat="44.76693" lon="-0.11011">
        <ele>97.6</ele>
        <time>2022-10-06T09:55:15Z</time>
      </trkpt>
      <trkpt lat="44.76694" lon="-0.11009">
        <ele>97.6</ele>
        <time>2022-10-06T09:55:16Z</time>
      </trkpt>
      <trkpt lat="44.76694" lon="-0.11008">
        <ele>97.6</ele>
        <time>2022-10-06T09:55:17Z</time>
      </trkpt>
      <trkpt lat="44.76694" lon="-0.11005">
        <ele>97.6</ele>
        <time>2022-10-06T09:55:18Z</time>
      </trkpt>
      <trkpt lat="44.76694" lon="-0.11003">
        <ele>97.6</ele>
        <time>2022-10-06T09:55:19Z</time>
      </trkpt>
      <trkpt lat="44.76694" lon="-0.11001">
        <ele>97.6</ele>
        <time>2022-10-06T09:55:20Z</time>
      </trkpt>
      <trkpt lat="44.76694" lon="-0.11001">
        <ele>97.6</ele>
        <time>2022-10-06T09:55:21Z</time>
      </trkpt>
      <trkpt lat="44.76694" lon="-0.10999">
        <ele>97.7</ele>
        <time>2022-10-06T09:55:22Z</time>
      </trkpt>
      <trkpt lat="44.76694" lon="-0.10998">
        <ele>97.7</ele>
        <time>2022-10-06T09:55:23Z</time>
      </trkpt>
      <trkpt lat="44.76694" lon="-0.10996">
        <ele>97.7</ele>
        <time>2022-10-06T09:55:24Z</time>
      </trkpt>
      <trkpt lat="44.76695" lon="-0.10994">
        <ele>97.7</ele>
        <time>2022-10-06T09:55:25Z</time>
      </trkpt>
      <trkpt lat="44.76695" lon="-0.1099">
        <ele>97.7</ele>
        <time>2022-10-06T09:55:26Z</time>
      </trkpt>
      <trkpt lat="44.76695" lon="-0.1099">
        <ele>97.7</ele>
        <time>2022-10-06T09:55:27Z</time>
      </trkpt>
      <trkpt lat="44.76695" lon="-0.10988">
        <ele>97.7</ele>
        <time>2022-10-06T09:55:28Z</time>
      </trkpt>
      <trkpt lat="44.76694" lon="-0.10987">
        <ele>97.7</ele>
        <time>2022-10-06T09:55:29Z</time>
      </trkpt>
      <trkpt lat="44.76694" lon="-0.10985">
        <ele>97.7</ele>
        <time>2022-10-06T09:55:30Z</time>
      </trkpt>
      <trkpt lat="44.76694" lon="-0.10983">
        <ele>97.7</ele>
        <time>2022-10-06T09:55:32Z</time>
      </trkpt>
      <trkpt lat="44.76694" lon="-0.10981">
        <ele>97.7</ele>
        <time>2022-10-06T09:55:33Z</time>
      </trkpt>
      <trkpt lat="44.76694" lon="-0.10977">
        <ele>97.7</ele>
        <time>2022-10-06T09:55:34Z</time>
      </trkpt>
      <trkpt lat="44.76694" lon="-0.10976">
        <ele>97.7</ele>
        <time>2022-10-06T09:55:35Z</time>
      </trkpt>
      <trkpt lat="44.76693" lon="-0.10974">
        <ele>97.7</ele>
        <time>2022-10-06T09:55:36Z</time>
      </trkpt>
      <trkpt lat="44.76693" lon="-0.10972">
        <ele>97.7</ele>
        <time>2022-10-06T09:55:37Z</time>
      </trkpt>
      <trkpt lat="44.76693" lon="-0.10968">
        <ele>97.7</ele>
        <time>2022-10-06T09:55:39Z</time>
      </trkpt>
      <trkpt lat="44.76693" lon="-0.10967">
        <ele>97.7</ele>
        <time>2022-10-06T09:55:40Z</time>
      </trkpt>
      <trkpt lat="44.76693" lon="-0.10965">
        <ele>97.7</ele>
        <time>2022-10-06T09:55:41Z</time>
      </trkpt>
      <trkpt lat="44.76693" lon="-0.10963">
        <ele>97.8</ele>
        <time>2022-10-06T09:55:42Z</time>
      </trkpt>
      <trkpt lat="44.76693" lon="-0.1096">
        <ele>97.8</ele>
        <time>2022-10-06T09:55:43Z</time>
      </trkpt>
      <trkpt lat="44.76693" lon="-0.10959">
        <ele>97.8</ele>
        <time>2022-10-06T09:55:44Z</time>
      </trkpt>
      <trkpt lat="44.76693" lon="-0.10958">
        <ele>97.8</ele>
        <time>2022-10-06T09:55:45Z</time>
      </trkpt>
      <trkpt lat="44.76693" lon="-0.10955">
        <ele>97.8</ele>
        <time>2022-10-06T09:55:46Z</time>
      </trkpt>
      <trkpt lat="44.76693" lon="-0.10954">
        <ele>97.8</ele>
        <time>2022-10-06T09:55:47Z</time>
      </trkpt>
      <trkpt lat="44.76693" lon="-0.10952">
        <ele>97.8</ele>
        <time>2022-10-06T09:55:48Z</time>
      </trkpt>
      <trkpt lat="44.76693" lon="-0.10951">
        <ele>97.8</ele>
        <time>2022-10-06T09:55:49Z</time>
      </trkpt>
      <trkpt lat="44.76693" lon="-0.10949">
        <ele>97.9</ele>
        <time>2022-10-06T09:55:50Z</time>
      </trkpt>
      <trkpt lat="44.76693" lon="-0.10947">
        <ele>97.9</ele>
        <time>2022-10-06T09:55:51Z</time>
      </trkpt>
      <trkpt lat="44.76693" lon="-0.10944">
        <ele>98</ele>
        <time>2022-10-06T09:55:53Z</time>
      </trkpt>
      <trkpt lat="44.76693" lon="-0.10942">
        <ele>98</ele>
        <time>2022-10-06T09:55:54Z</time>
      </trkpt>
      <trkpt lat="44.76693" lon="-0.10941">
        <ele>98.1</ele>
        <time>2022-10-06T09:55:55Z</time>
      </trkpt>
      <trkpt lat="44.76694" lon="-0.10937">
        <ele>98.1</ele>
        <time>2022-10-06T09:55:57Z</time>
      </trkpt>
      <trkpt lat="44.76694" lon="-0.10933">
        <ele>98.2</ele>
        <time>2022-10-06T09:55:58Z</time>
      </trkpt>
      <trkpt lat="44.76694" lon="-0.10932">
        <ele>98.2</ele>
        <time>2022-10-06T09:55:59Z</time>
      </trkpt>
      <trkpt lat="44.76694" lon="-0.1093">
        <ele>98.3</ele>
        <time>2022-10-06T09:56:00Z</time>
      </trkpt>
      <trkpt lat="44.76694" lon="-0.10927">
        <ele>98.3</ele>
        <time>2022-10-06T09:56:01Z</time>
      </trkpt>
      <trkpt lat="44.76693" lon="-0.10926">
        <ele>98.4</ele>
        <time>2022-10-06T09:56:03Z</time>
      </trkpt>
      <trkpt lat="44.76693" lon="-0.10923">
        <ele>98.4</ele>
        <time>2022-10-06T09:56:04Z</time>
      </trkpt>
      <trkpt lat="44.76693" lon="-0.10921">
        <ele>98.5</ele>
        <time>2022-10-06T09:56:05Z</time>
      </trkpt>
      <trkpt lat="44.76693" lon="-0.1092">
        <ele>98.5</ele>
        <time>2022-10-06T09:56:06Z</time>
      </trkpt>
      <trkpt lat="44.76693" lon="-0.10918">
        <ele>98.5</ele>
        <time>2022-10-06T09:56:07Z</time>
      </trkpt>
      <trkpt lat="44.76694" lon="-0.10917">
        <ele>98.5</ele>
        <time>2022-10-06T09:56:08Z</time>
      </trkpt>
      <trkpt lat="44.76694" lon="-0.10916">
        <ele>98.6</ele>
        <time>2022-10-06T09:56:09Z</time>
      </trkpt>
      <trkpt lat="44.76694" lon="-0.10914">
        <ele>98.6</ele>
        <time>2022-10-06T09:56:10Z</time>
      </trkpt>
      <trkpt lat="44.76694" lon="-0.10912">
        <ele>98.7</ele>
        <time>2022-10-06T09:56:11Z</time>
      </trkpt>
      <trkpt lat="44.76694" lon="-0.10911">
        <ele>98.6</ele>
        <time>2022-10-06T09:56:12Z</time>
      </trkpt>
      <trkpt lat="44.76694" lon="-0.10908">
        <ele>98.7</ele>
        <time>2022-10-06T09:56:14Z</time>
      </trkpt>
      <trkpt lat="44.76694" lon="-0.10906">
        <ele>98.7</ele>
        <time>2022-10-06T09:56:15Z</time>
      </trkpt>
      <trkpt lat="44.76694" lon="-0.10905">
        <ele>98.7</ele>
        <time>2022-10-06T09:56:16Z</time>
      </trkpt>
      <trkpt lat="44.76694" lon="-0.10903">
        <ele>98.8</ele>
        <time>2022-10-06T09:56:17Z</time>
      </trkpt>
      <trkpt lat="44.76694" lon="-0.10901">
        <ele>98.8</ele>
        <time>2022-10-06T09:56:18Z</time>
      </trkpt>
      <trkpt lat="44.76694" lon="-0.109">
        <ele>98.9</ele>
        <time>2022-10-06T09:56:19Z</time>
      </trkpt>
      <trkpt lat="44.76694" lon="-0.10897">
        <ele>99</ele>
        <time>2022-10-06T09:56:20Z</time>
      </trkpt>
      <trkpt lat="44.76694" lon="-0.10896">
        <ele>99</ele>
        <time>2022-10-06T09:56:21Z</time>
      </trkpt>
      <trkpt lat="44.76693" lon="-0.10895">
        <ele>99</ele>
        <time>2022-10-06T09:56:22Z</time>
      </trkpt>
      <trkpt lat="44.76693" lon="-0.10894">
        <ele>99</ele>
        <time>2022-10-06T09:56:23Z</time>
      </trkpt>
      <trkpt lat="44.76693" lon="-0.10892">
        <ele>99.1</ele>
        <time>2022-10-06T09:56:24Z</time>
      </trkpt>
      <trkpt lat="44.76693" lon="-0.1089">
        <ele>99.1</ele>
        <time>2022-10-06T09:56:25Z</time>
      </trkpt>
      <trkpt lat="44.76694" lon="-0.10887">
        <ele>99.2</ele>
        <time>2022-10-06T09:56:26Z</time>
      </trkpt>
      <trkpt lat="44.76694" lon="-0.10886">
        <ele>99.2</ele>
        <time>2022-10-06T09:56:27Z</time>
      </trkpt>
      <trkpt lat="44.76694" lon="-0.10885">
        <ele>99.2</ele>
        <time>2022-10-06T09:56:28Z</time>
      </trkpt>
      <trkpt lat="44.76694" lon="-0.10884">
        <ele>99.3</ele>
        <time>2022-10-06T09:56:29Z</time>
      </trkpt>
      <trkpt lat="44.76695" lon="-0.10881">
        <ele>99.4</ele>
        <time>2022-10-06T09:56:30Z</time>
      </trkpt>
      <trkpt lat="44.76695" lon="-0.1088">
        <ele>99.4</ele>
        <time>2022-10-06T09:56:31Z</time>
      </trkpt>
      <trkpt lat="44.76695" lon="-0.10879">
        <ele>99.4</ele>
        <time>2022-10-06T09:56:32Z</time>
      </trkpt>
      <trkpt lat="44.76695" lon="-0.10877">
        <ele>99.4</ele>
        <time>2022-10-06T09:56:33Z</time>
      </trkpt>
      <trkpt lat="44.76695" lon="-0.10874">
        <ele>99.5</ele>
        <time>2022-10-06T09:56:34Z</time>
      </trkpt>
      <trkpt lat="44.76695" lon="-0.10873">
        <ele>99.6</ele>
        <time>2022-10-06T09:56:35Z</time>
      </trkpt>
      <trkpt lat="44.76695" lon="-0.10872">
        <ele>99.6</ele>
        <time>2022-10-06T09:56:36Z</time>
      </trkpt>
      <trkpt lat="44.76695" lon="-0.1087">
        <ele>99.7</ele>
        <time>2022-10-06T09:56:37Z</time>
      </trkpt>
      <trkpt lat="44.76695" lon="-0.10869">
        <ele>99.7</ele>
        <time>2022-10-06T09:56:38Z</time>
      </trkpt>
      <trkpt lat="44.76695" lon="-0.10867">
        <ele>99.7</ele>
        <time>2022-10-06T09:56:39Z</time>
      </trkpt>
      <trkpt lat="44.76696" lon="-0.10864">
        <ele>99.8</ele>
        <time>2022-10-06T09:56:40Z</time>
      </trkpt>
      <trkpt lat="44.76696" lon="-0.10863">
        <ele>99.9</ele>
        <time>2022-10-06T09:56:41Z</time>
      </trkpt>
      <trkpt lat="44.76696" lon="-0.10861">
        <ele>99.9</ele>
        <time>2022-10-06T09:56:42Z</time>
      </trkpt>
      <trkpt lat="44.76696" lon="-0.1086">
        <ele>99.9</ele>
        <time>2022-10-06T09:56:43Z</time>
      </trkpt>
      <trkpt lat="44.76696" lon="-0.10859">
        <ele>100</ele>
        <time>2022-10-06T09:56:44Z</time>
      </trkpt>
      <trkpt lat="44.76696" lon="-0.10858">
        <ele>100</ele>
        <time>2022-10-06T09:56:45Z</time>
      </trkpt>
      <trkpt lat="44.76696" lon="-0.10856">
        <ele>100.1</ele>
        <time>2022-10-06T09:56:46Z</time>
      </trkpt>
      <trkpt lat="44.76697" lon="-0.10855">
        <ele>100.1</ele>
        <time>2022-10-06T09:56:47Z</time>
      </trkpt>
      <trkpt lat="44.76697" lon="-0.10852">
        <ele>100.2</ele>
        <time>2022-10-06T09:56:49Z</time>
      </trkpt>
      <trkpt lat="44.76698" lon="-0.1085">
        <ele>100.3</ele>
        <time>2022-10-06T09:56:50Z</time>
      </trkpt>
      <trkpt lat="44.76698" lon="-0.10849">
        <ele>100.3</ele>
        <time>2022-10-06T09:56:51Z</time>
      </trkpt>
      <trkpt lat="44.76698" lon="-0.10847">
        <ele>100.3</ele>
        <time>2022-10-06T09:56:52Z</time>
      </trkpt>
      <trkpt lat="44.76699" lon="-0.10845">
        <ele>100.4</ele>
        <time>2022-10-06T09:56:53Z</time>
      </trkpt>
      <trkpt lat="44.76699" lon="-0.10844">
        <ele>100.4</ele>
        <time>2022-10-06T09:56:54Z</time>
      </trkpt>
      <trkpt lat="44.76699" lon="-0.10842">
        <ele>100.4</ele>
        <time>2022-10-06T09:56:55Z</time>
      </trkpt>
      <trkpt lat="44.767" lon="-0.10841">
        <ele>100.5</ele>
        <time>2022-10-06T09:56:56Z</time>
      </trkpt>
      <trkpt lat="44.767" lon="-0.1084">
        <ele>100.5</ele>
        <time>2022-10-06T09:56:57Z</time>
      </trkpt>
      <trkpt lat="44.767" lon="-0.10838">
        <ele>100.6</ele>
        <time>2022-10-06T09:56:58Z</time>
      </trkpt>
      <trkpt lat="44.767" lon="-0.10836">
        <ele>100.6</ele>
        <time>2022-10-06T09:56:59Z</time>
      </trkpt>
      <trkpt lat="44.76701" lon="-0.10834">
        <ele>100.7</ele>
        <time>2022-10-06T09:57:00Z</time>
      </trkpt>
      <trkpt lat="44.76701" lon="-0.10833">
        <ele>100.7</ele>
        <time>2022-10-06T09:57:01Z</time>
      </trkpt>
      <trkpt lat="44.76701" lon="-0.1083">
        <ele>100.8</ele>
        <time>2022-10-06T09:57:03Z</time>
      </trkpt>
      <trkpt lat="44.76702" lon="-0.10828">
        <ele>100.8</ele>
        <time>2022-10-06T09:57:04Z</time>
      </trkpt>
      <trkpt lat="44.76702" lon="-0.10827">
        <ele>100.8</ele>
        <time>2022-10-06T09:57:05Z</time>
      </trkpt>
      <trkpt lat="44.76702" lon="-0.10826">
        <ele>100.9</ele>
        <time>2022-10-06T09:57:06Z</time>
      </trkpt>
      <trkpt lat="44.76703" lon="-0.10824">
        <ele>100.9</ele>
        <time>2022-10-06T09:57:07Z</time>
      </trkpt>
      <trkpt lat="44.76703" lon="-0.10821">
        <ele>100.9</ele>
        <time>2022-10-06T09:57:08Z</time>
      </trkpt>
      <trkpt lat="44.76704" lon="-0.1082">
        <ele>101</ele>
        <time>2022-10-06T09:57:09Z</time>
      </trkpt>
      <trkpt lat="44.76704" lon="-0.10819">
        <ele>101</ele>
        <time>2022-10-06T09:57:10Z</time>
      </trkpt>
      <trkpt lat="44.76704" lon="-0.10818">
        <ele>101</ele>
        <time>2022-10-06T09:57:11Z</time>
      </trkpt>
      <trkpt lat="44.76704" lon="-0.10817">
        <ele>101</ele>
        <time>2022-10-06T09:57:12Z</time>
      </trkpt>
      <trkpt lat="44.76705" lon="-0.10815">
        <ele>101.1</ele>
        <time>2022-10-06T09:57:13Z</time>
      </trkpt>
      <trkpt lat="44.76705" lon="-0.10814">
        <ele>101.1</ele>
        <time>2022-10-06T09:57:14Z</time>
      </trkpt>
      <trkpt lat="44.76706" lon="-0.10811">
        <ele>101.1</ele>
        <time>2022-10-06T09:57:15Z</time>
      </trkpt>
      <trkpt lat="44.76706" lon="-0.1081">
        <ele>101.1</ele>
        <time>2022-10-06T09:57:16Z</time>
      </trkpt>
      <trkpt lat="44.76706" lon="-0.10808">
        <ele>101.1</ele>
        <time>2022-10-06T09:57:17Z</time>
      </trkpt>
      <trkpt lat="44.76707" lon="-0.10807">
        <ele>101.1</ele>
        <time>2022-10-06T09:57:18Z</time>
      </trkpt>
      <trkpt lat="44.76707" lon="-0.10805">
        <ele>101.2</ele>
        <time>2022-10-06T09:57:19Z</time>
      </trkpt>
      <trkpt lat="44.76708" lon="-0.10803">
        <ele>101.2</ele>
        <time>2022-10-06T09:57:20Z</time>
      </trkpt>
      <trkpt lat="44.76708" lon="-0.10802">
        <ele>101.2</ele>
        <time>2022-10-06T09:57:21Z</time>
      </trkpt>
      <trkpt lat="44.76709" lon="-0.10799">
        <ele>101.2</ele>
        <time>2022-10-06T09:57:22Z</time>
      </trkpt>
      <trkpt lat="44.76709" lon="-0.10799">
        <ele>101.2</ele>
        <time>2022-10-06T09:57:23Z</time>
      </trkpt>
      <trkpt lat="44.76709" lon="-0.10797">
        <ele>101.2</ele>
        <time>2022-10-06T09:57:24Z</time>
      </trkpt>
      <trkpt lat="44.76709" lon="-0.10796">
        <ele>101.2</ele>
        <time>2022-10-06T09:57:25Z</time>
      </trkpt>
      <trkpt lat="44.7671" lon="-0.10794">
        <ele>101.2</ele>
        <time>2022-10-06T09:57:26Z</time>
      </trkpt>
      <trkpt lat="44.7671" lon="-0.10791">
        <ele>101.2</ele>
        <time>2022-10-06T09:57:27Z</time>
      </trkpt>
      <trkpt lat="44.76711" lon="-0.1079">
        <ele>101.2</ele>
        <time>2022-10-06T09:57:28Z</time>
      </trkpt>
      <trkpt lat="44.76711" lon="-0.10789">
        <ele>101.2</ele>
        <time>2022-10-06T09:57:29Z</time>
      </trkpt>
      <trkpt lat="44.76712" lon="-0.10785">
        <ele>101.2</ele>
        <time>2022-10-06T09:57:30Z</time>
      </trkpt>
      <trkpt lat="44.76712" lon="-0.10785">
        <ele>101.2</ele>
        <time>2022-10-06T09:57:31Z</time>
      </trkpt>
      <trkpt lat="44.76712" lon="-0.10784">
        <ele>101.2</ele>
        <time>2022-10-06T09:57:32Z</time>
      </trkpt>
      <trkpt lat="44.76712" lon="-0.10781">
        <ele>101.2</ele>
        <time>2022-10-06T09:57:33Z</time>
      </trkpt>
      <trkpt lat="44.76713" lon="-0.1078">
        <ele>101.1</ele>
        <time>2022-10-06T09:57:34Z</time>
      </trkpt>
      <trkpt lat="44.76713" lon="-0.10779">
        <ele>101.1</ele>
        <time>2022-10-06T09:57:35Z</time>
      </trkpt>
      <trkpt lat="44.76713" lon="-0.10777">
        <ele>101.1</ele>
        <time>2022-10-06T09:57:36Z</time>
      </trkpt>
      <trkpt lat="44.76713" lon="-0.10775">
        <ele>101.1</ele>
        <time>2022-10-06T09:57:37Z</time>
      </trkpt>
      <trkpt lat="44.76714" lon="-0.10774">
        <ele>101</ele>
        <time>2022-10-06T09:57:38Z</time>
      </trkpt>
      <trkpt lat="44.76714" lon="-0.10772">
        <ele>101</ele>
        <time>2022-10-06T09:57:39Z</time>
      </trkpt>
      <trkpt lat="44.76715" lon="-0.10769">
        <ele>101</ele>
        <time>2022-10-06T09:57:40Z</time>
      </trkpt>
      <trkpt lat="44.76715" lon="-0.10768">
        <ele>100.9</ele>
        <time>2022-10-06T09:57:41Z</time>
      </trkpt>
      <trkpt lat="44.76715" lon="-0.10766">
        <ele>100.9</ele>
        <time>2022-10-06T09:57:42Z</time>
      </trkpt>
      <trkpt lat="44.76715" lon="-0.10765">
        <ele>100.9</ele>
        <time>2022-10-06T09:57:43Z</time>
      </trkpt>
      <trkpt lat="44.76715" lon="-0.10764">
        <ele>100.8</ele>
        <time>2022-10-06T09:57:44Z</time>
      </trkpt>
      <trkpt lat="44.76715" lon="-0.10762">
        <ele>100.8</ele>
        <time>2022-10-06T09:57:45Z</time>
      </trkpt>
      <trkpt lat="44.76715" lon="-0.10761">
        <ele>100.7</ele>
        <time>2022-10-06T09:57:46Z</time>
      </trkpt>
      <trkpt lat="44.76715" lon="-0.10757">
        <ele>100.6</ele>
        <time>2022-10-06T09:57:48Z</time>
      </trkpt>
      <trkpt lat="44.76715" lon="-0.10755">
        <ele>100.6</ele>
        <time>2022-10-06T09:57:49Z</time>
      </trkpt>
      <trkpt lat="44.76715" lon="-0.10753">
        <ele>100.5</ele>
        <time>2022-10-06T09:57:51Z</time>
      </trkpt>
      <trkpt lat="44.76715" lon="-0.1075">
        <ele>100.4</ele>
        <time>2022-10-06T09:57:52Z</time>
      </trkpt>
      <trkpt lat="44.76716" lon="-0.10747">
        <ele>100.3</ele>
        <time>2022-10-06T09:57:53Z</time>
      </trkpt>
      <trkpt lat="44.76716" lon="-0.10746">
        <ele>100.2</ele>
        <time>2022-10-06T09:57:54Z</time>
      </trkpt>
      <trkpt lat="44.76716" lon="-0.10744">
        <ele>100.2</ele>
        <time>2022-10-06T09:57:55Z</time>
      </trkpt>
      <trkpt lat="44.76716" lon="-0.10743">
        <ele>100.2</ele>
        <time>2022-10-06T09:57:56Z</time>
      </trkpt>
      <trkpt lat="44.76716" lon="-0.10742">
        <ele>100.1</ele>
        <time>2022-10-06T09:57:57Z</time>
      </trkpt>
      <trkpt lat="44.76716" lon="-0.10739">
        <ele>100</ele>
        <time>2022-10-06T09:57:59Z</time>
      </trkpt>
      <trkpt lat="44.76716" lon="-0.10736">
        <ele>99.9</ele>
        <time>2022-10-06T09:58:00Z</time>
      </trkpt>
      <trkpt lat="44.76716" lon="-0.10736">
        <ele>99.9</ele>
        <time>2022-10-06T09:58:01Z</time>
      </trkpt>
      <trkpt lat="44.76716" lon="-0.10733">
        <ele>99.8</ele>
        <time>2022-10-06T09:58:03Z</time>
      </trkpt>
      <trkpt lat="44.76716" lon="-0.10732">
        <ele>99.7</ele>
        <time>2022-10-06T09:58:04Z</time>
      </trkpt>
      <trkpt lat="44.76716" lon="-0.10728">
        <ele>99.6</ele>
        <time>2022-10-06T09:58:05Z</time>
      </trkpt>
      <trkpt lat="44.76716" lon="-0.10727">
        <ele>99.6</ele>
        <time>2022-10-06T09:58:06Z</time>
      </trkpt>
      <trkpt lat="44.76716" lon="-0.10727">
        <ele>99.6</ele>
        <time>2022-10-06T09:58:07Z</time>
      </trkpt>
      <trkpt lat="44.76716" lon="-0.10725">
        <ele>99.5</ele>
        <time>2022-10-06T09:58:08Z</time>
      </trkpt>
      <trkpt lat="44.76715" lon="-0.10723">
        <ele>99.5</ele>
        <time>2022-10-06T09:58:09Z</time>
      </trkpt>
      <trkpt lat="44.76715" lon="-0.1072">
        <ele>99.4</ele>
        <time>2022-10-06T09:58:11Z</time>
      </trkpt>
      <trkpt lat="44.76715" lon="-0.10719">
        <ele>99.3</ele>
        <time>2022-10-06T09:58:12Z</time>
      </trkpt>
      <trkpt lat="44.76714" lon="-0.10718">
        <ele>99.3</ele>
        <time>2022-10-06T09:58:13Z</time>
      </trkpt>
      <trkpt lat="44.76714" lon="-0.10716">
        <ele>99.2</ele>
        <time>2022-10-06T09:58:14Z</time>
      </trkpt>
      <trkpt lat="44.76714" lon="-0.10715">
        <ele>99.2</ele>
        <time>2022-10-06T09:58:15Z</time>
      </trkpt>
      <trkpt lat="44.76714" lon="-0.10714">
        <ele>99.2</ele>
        <time>2022-10-06T09:58:16Z</time>
      </trkpt>
      <trkpt lat="44.76713" lon="-0.10713">
        <ele>99.2</ele>
        <time>2022-10-06T09:58:17Z</time>
      </trkpt>
      <trkpt lat="44.76713" lon="-0.10712">
        <ele>99.1</ele>
        <time>2022-10-06T09:58:18Z</time>
      </trkpt>
      <trkpt lat="44.76712" lon="-0.1071">
        <ele>99.1</ele>
        <time>2022-10-06T09:58:19Z</time>
      </trkpt>
      <trkpt lat="44.76711" lon="-0.10709">
        <ele>99</ele>
        <time>2022-10-06T09:58:20Z</time>
      </trkpt>
      <trkpt lat="44.7671" lon="-0.10708">
        <ele>99</ele>
        <time>2022-10-06T09:58:21Z</time>
      </trkpt>
      <trkpt lat="44.7671" lon="-0.10707">
        <ele>98.9</ele>
        <time>2022-10-06T09:58:22Z</time>
      </trkpt>
      <trkpt lat="44.76709" lon="-0.10705">
        <ele>98.9</ele>
        <time>2022-10-06T09:58:23Z</time>
      </trkpt>
      <trkpt lat="44.76708" lon="-0.10703">
        <ele>98.8</ele>
        <time>2022-10-06T09:58:24Z</time>
      </trkpt>
      <trkpt lat="44.76708" lon="-0.10702">
        <ele>98.8</ele>
        <time>2022-10-06T09:58:25Z</time>
      </trkpt>
      <trkpt lat="44.76707" lon="-0.10702">
        <ele>98.7</ele>
        <time>2022-10-06T09:58:26Z</time>
      </trkpt>
      <trkpt lat="44.76705" lon="-0.107">
        <ele>98.7</ele>
        <time>2022-10-06T09:58:27Z</time>
      </trkpt>
      <trkpt lat="44.76705" lon="-0.10699">
        <ele>98.6</ele>
        <time>2022-10-06T09:58:28Z</time>
      </trkpt>
      <trkpt lat="44.76704" lon="-0.10698">
        <ele>98.6</ele>
        <time>2022-10-06T09:58:29Z</time>
      </trkpt>
      <trkpt lat="44.76703" lon="-0.10696">
        <ele>98.5</ele>
        <time>2022-10-06T09:58:30Z</time>
      </trkpt>
      <trkpt lat="44.76702" lon="-0.10695">
        <ele>98.5</ele>
        <time>2022-10-06T09:58:31Z</time>
      </trkpt>
      <trkpt lat="44.76701" lon="-0.10694">
        <ele>98.4</ele>
        <time>2022-10-06T09:58:32Z</time>
      </trkpt>
      <trkpt lat="44.76701" lon="-0.10693">
        <ele>98.4</ele>
        <time>2022-10-06T09:58:33Z</time>
      </trkpt>
      <trkpt lat="44.767" lon="-0.10692">
        <ele>98.3</ele>
        <time>2022-10-06T09:58:34Z</time>
      </trkpt>
      <trkpt lat="44.76699" lon="-0.10691">
        <ele>98.3</ele>
        <time>2022-10-06T09:58:35Z</time>
      </trkpt>
      <trkpt lat="44.76698" lon="-0.1069">
        <ele>98.2</ele>
        <time>2022-10-06T09:58:36Z</time>
      </trkpt>
      <trkpt lat="44.76697" lon="-0.10689">
        <ele>98.2</ele>
        <time>2022-10-06T09:58:37Z</time>
      </trkpt>
      <trkpt lat="44.76696" lon="-0.10688">
        <ele>98.2</ele>
        <time>2022-10-06T09:58:38Z</time>
      </trkpt>
      <trkpt lat="44.76695" lon="-0.10687">
        <ele>98.1</ele>
        <time>2022-10-06T09:58:39Z</time>
      </trkpt>
      <trkpt lat="44.76694" lon="-0.10686">
        <ele>98.1</ele>
        <time>2022-10-06T09:58:40Z</time>
      </trkpt>
      <trkpt lat="44.76693" lon="-0.10684">
        <ele>98</ele>
        <time>2022-10-06T09:58:42Z</time>
      </trkpt>
      <trkpt lat="44.76693" lon="-0.10683">
        <ele>97.9</ele>
        <time>2022-10-06T09:58:43Z</time>
      </trkpt>
      <trkpt lat="44.76692" lon="-0.10682">
        <ele>97.9</ele>
        <time>2022-10-06T09:58:44Z</time>
      </trkpt>
      <trkpt lat="44.76692" lon="-0.10681">
        <ele>97.9</ele>
        <time>2022-10-06T09:58:45Z</time>
      </trkpt>
      <trkpt lat="44.76691" lon="-0.1068">
        <ele>97.8</ele>
        <time>2022-10-06T09:58:46Z</time>
      </trkpt>
      <trkpt lat="44.7669" lon="-0.10679">
        <ele>97.8</ele>
        <time>2022-10-06T09:58:47Z</time>
      </trkpt>
      <trkpt lat="44.7669" lon="-0.10678">
        <ele>97.8</ele>
        <time>2022-10-06T09:58:48Z</time>
      </trkpt>
      <trkpt lat="44.76689" lon="-0.10677">
        <ele>97.7</ele>
        <time>2022-10-06T09:58:49Z</time>
      </trkpt>
      <trkpt lat="44.76688" lon="-0.10676">
        <ele>97.7</ele>
        <time>2022-10-06T09:58:50Z</time>
      </trkpt>
      <trkpt lat="44.76686" lon="-0.10674">
        <ele>97.6</ele>
        <time>2022-10-06T09:58:51Z</time>
      </trkpt>
      <trkpt lat="44.76686" lon="-0.10673">
        <ele>97.6</ele>
        <time>2022-10-06T09:58:52Z</time>
      </trkpt>
      <trkpt lat="44.76685" lon="-0.10673">
        <ele>97.5</ele>
        <time>2022-10-06T09:58:53Z</time>
      </trkpt>
      <trkpt lat="44.76684" lon="-0.10671">
        <ele>97.5</ele>
        <time>2022-10-06T09:58:54Z</time>
      </trkpt>
      <trkpt lat="44.76683" lon="-0.1067">
        <ele>97.4</ele>
        <time>2022-10-06T09:58:55Z</time>
      </trkpt>
      <trkpt lat="44.76682" lon="-0.10669">
        <ele>97.4</ele>
        <time>2022-10-06T09:58:56Z</time>
      </trkpt>
      <trkpt lat="44.76681" lon="-0.10668">
        <ele>97.3</ele>
        <time>2022-10-06T09:58:58Z</time>
      </trkpt>
      <trkpt lat="44.7668" lon="-0.10666">
        <ele>97.3</ele>
        <time>2022-10-06T09:58:59Z</time>
      </trkpt>
      <trkpt lat="44.76679" lon="-0.10665">
        <ele>97.2</ele>
        <time>2022-10-06T09:59:00Z</time>
      </trkpt>
      <trkpt lat="44.76678" lon="-0.10663">
        <ele>97.2</ele>
        <time>2022-10-06T09:59:02Z</time>
      </trkpt>
      <trkpt lat="44.76677" lon="-0.10662">
        <ele>97.1</ele>
        <time>2022-10-06T09:59:03Z</time>
      </trkpt>
      <trkpt lat="44.76676" lon="-0.10661">
        <ele>97.1</ele>
        <time>2022-10-06T09:59:04Z</time>
      </trkpt>
      <trkpt lat="44.76675" lon="-0.1066">
        <ele>97</ele>
        <time>2022-10-06T09:59:05Z</time>
      </trkpt>
      <trkpt lat="44.76674" lon="-0.10658">
        <ele>97</ele>
        <time>2022-10-06T09:59:06Z</time>
      </trkpt>
      <trkpt lat="44.76673" lon="-0.10657">
        <ele>97</ele>
        <time>2022-10-06T09:59:07Z</time>
      </trkpt>
      <trkpt lat="44.76672" lon="-0.10656">
        <ele>96.9</ele>
        <time>2022-10-06T09:59:08Z</time>
      </trkpt>
      <trkpt lat="44.76671" lon="-0.10654">
        <ele>96.9</ele>
        <time>2022-10-06T09:59:09Z</time>
      </trkpt>
      <trkpt lat="44.76671" lon="-0.10653">
        <ele>96.8</ele>
        <time>2022-10-06T09:59:10Z</time>
      </trkpt>
      <trkpt lat="44.7667" lon="-0.10652">
        <ele>96.8</ele>
        <time>2022-10-06T09:59:11Z</time>
      </trkpt>
      <trkpt lat="44.76669" lon="-0.10651">
        <ele>96.7</ele>
        <time>2022-10-06T09:59:12Z</time>
      </trkpt>
      <trkpt lat="44.76668" lon="-0.1065">
        <ele>96.7</ele>
        <time>2022-10-06T09:59:13Z</time>
      </trkpt>
      <trkpt lat="44.76667" lon="-0.10648">
        <ele>96.7</ele>
        <time>2022-10-06T09:59:14Z</time>
      </trkpt>
      <trkpt lat="44.76666" lon="-0.10647">
        <ele>96.6</ele>
        <time>2022-10-06T09:59:15Z</time>
      </trkpt>
      <trkpt lat="44.76665" lon="-0.10646">
        <ele>96.6</ele>
        <time>2022-10-06T09:59:16Z</time>
      </trkpt>
      <trkpt lat="44.76664" lon="-0.10645">
        <ele>96.5</ele>
        <time>2022-10-06T09:59:17Z</time>
      </trkpt>
      <trkpt lat="44.76663" lon="-0.10643">
        <ele>96.5</ele>
        <time>2022-10-06T09:59:18Z</time>
      </trkpt>
      <trkpt lat="44.76662" lon="-0.10642">
        <ele>96.4</ele>
        <time>2022-10-06T09:59:19Z</time>
      </trkpt>
      <trkpt lat="44.76661" lon="-0.10641">
        <ele>96.4</ele>
        <time>2022-10-06T09:59:20Z</time>
      </trkpt>
      <trkpt lat="44.7666" lon="-0.1064">
        <ele>96.3</ele>
        <time>2022-10-06T09:59:21Z</time>
      </trkpt>
      <trkpt lat="44.7666" lon="-0.10639">
        <ele>96.3</ele>
        <time>2022-10-06T09:59:22Z</time>
      </trkpt>
      <trkpt lat="44.76659" lon="-0.10638">
        <ele>96.3</ele>
        <time>2022-10-06T09:59:23Z</time>
      </trkpt>
      <trkpt lat="44.76658" lon="-0.10637">
        <ele>96.2</ele>
        <time>2022-10-06T09:59:24Z</time>
      </trkpt>
      <trkpt lat="44.76657" lon="-0.10635">
        <ele>96.2</ele>
        <time>2022-10-06T09:59:25Z</time>
      </trkpt>
      <trkpt lat="44.76656" lon="-0.10634">
        <ele>96.1</ele>
        <time>2022-10-06T09:59:26Z</time>
      </trkpt>
      <trkpt lat="44.76656" lon="-0.10633">
        <ele>96.1</ele>
        <time>2022-10-06T09:59:27Z</time>
      </trkpt>
      <trkpt lat="44.76655" lon="-0.10631">
        <ele>96</ele>
        <time>2022-10-06T09:59:28Z</time>
      </trkpt>
      <trkpt lat="44.76654" lon="-0.1063">
        <ele>96</ele>
        <time>2022-10-06T09:59:29Z</time>
      </trkpt>
      <trkpt lat="44.76653" lon="-0.10629">
        <ele>95.9</ele>
        <time>2022-10-06T09:59:30Z</time>
      </trkpt>
      <trkpt lat="44.76652" lon="-0.10627">
        <ele>95.9</ele>
        <time>2022-10-06T09:59:31Z</time>
      </trkpt>
      <trkpt lat="44.76651" lon="-0.10626">
        <ele>95.8</ele>
        <time>2022-10-06T09:59:32Z</time>
      </trkpt>
      <trkpt lat="44.76651" lon="-0.10625">
        <ele>95.8</ele>
        <time>2022-10-06T09:59:33Z</time>
      </trkpt>
      <trkpt lat="44.7665" lon="-0.10624">
        <ele>95.7</ele>
        <time>2022-10-06T09:59:34Z</time>
      </trkpt>
      <trkpt lat="44.76649" lon="-0.10623">
        <ele>95.7</ele>
        <time>2022-10-06T09:59:35Z</time>
      </trkpt>
      <trkpt lat="44.76648" lon="-0.10622">
        <ele>95.6</ele>
        <time>2022-10-06T09:59:36Z</time>
      </trkpt>
      <trkpt lat="44.76647" lon="-0.10621">
        <ele>95.6</ele>
        <time>2022-10-06T09:59:37Z</time>
      </trkpt>
      <trkpt lat="44.76645" lon="-0.10618">
        <ele>95.5</ele>
        <time>2022-10-06T09:59:38Z</time>
      </trkpt>
      <trkpt lat="44.76645" lon="-0.10618">
        <ele>95.5</ele>
        <time>2022-10-06T09:59:39Z</time>
      </trkpt>
      <trkpt lat="44.76644" lon="-0.10617">
        <ele>95.4</ele>
        <time>2022-10-06T09:59:40Z</time>
      </trkpt>
      <trkpt lat="44.76643" lon="-0.10615">
        <ele>95.3</ele>
        <time>2022-10-06T09:59:41Z</time>
      </trkpt>
      <trkpt lat="44.76642" lon="-0.10614">
        <ele>95.3</ele>
        <time>2022-10-06T09:59:42Z</time>
      </trkpt>
      <trkpt lat="44.76642" lon="-0.10613">
        <ele>95.3</ele>
        <time>2022-10-06T09:59:43Z</time>
      </trkpt>
      <trkpt lat="44.76641" lon="-0.10612">
        <ele>95.2</ele>
        <time>2022-10-06T09:59:44Z</time>
      </trkpt>
      <trkpt lat="44.7664" lon="-0.1061">
        <ele>95.2</ele>
        <time>2022-10-06T09:59:45Z</time>
      </trkpt>
      <trkpt lat="44.7664" lon="-0.10609">
        <ele>95.1</ele>
        <time>2022-10-06T09:59:46Z</time>
      </trkpt>
      <trkpt lat="44.76639" lon="-0.10606">
        <ele>95</ele>
        <time>2022-10-06T09:59:48Z</time>
      </trkpt>
      <trkpt lat="44.7664" lon="-0.10604">
        <ele>94.9</ele>
        <time>2022-10-06T09:59:49Z</time>
      </trkpt>
      <trkpt lat="44.76642" lon="-0.10603">
        <ele>94.9</ele>
        <time>2022-10-06T09:59:50Z</time>
      </trkpt>
      <trkpt lat="44.76643" lon="-0.10603">
        <ele>94.8</ele>
        <time>2022-10-06T09:59:51Z</time>
      </trkpt>
      <trkpt lat="44.76643" lon="-0.10604">
        <ele>94.8</ele>
        <time>2022-10-06T09:59:52Z</time>
      </trkpt>
      <trkpt lat="44.76643" lon="-0.10604">
        <ele>94.8</ele>
        <time>2022-10-06T09:59:53Z</time>
      </trkpt>
      <trkpt lat="44.76643" lon="-0.10604">
        <ele>94.8</ele>
        <time>2022-10-06T09:59:54Z</time>
      </trkpt>
      <trkpt lat="44.76644" lon="-0.10604">
        <ele>94.8</ele>
        <time>2022-10-06T09:59:55Z</time>
      </trkpt>
      <trkpt lat="44.76644" lon="-0.10604">
        <ele>94.8</ele>
        <time>2022-10-06T09:59:56Z</time>
      </trkpt>
      <trkpt lat="44.76644" lon="-0.10604">
        <ele>94.8</ele>
        <time>2022-10-06T09:59:58Z</time>
      </trkpt>
      <trkpt lat="44.76643" lon="-0.10604">
        <ele>94.8</ele>
        <time>2022-10-06T09:59:59Z</time>
      </trkpt>
      <trkpt lat="44.76643" lon="-0.10604">
        <ele>94.8</ele>
        <time>2022-10-06T10:00:00Z</time>
      </trkpt>
      <trkpt lat="44.76643" lon="-0.10604">
        <ele>94.7</ele>
        <time>2022-10-06T10:00:01Z</time>
      </trkpt>
      <trkpt lat="44.76642" lon="-0.10604">
        <ele>94.7</ele>
        <time>2022-10-06T10:00:02Z</time>
      </trkpt>
      <trkpt lat="44.7664" lon="-0.10605">
        <ele>94.6</ele>
        <time>2022-10-06T10:00:03Z</time>
      </trkpt>
      <trkpt lat="44.76638" lon="-0.10606">
        <ele>94.5</ele>
        <time>2022-10-06T10:00:04Z</time>
      </trkpt>
      <trkpt lat="44.76637" lon="-0.10605">
        <ele>94.5</ele>
        <time>2022-10-06T10:00:05Z</time>
      </trkpt>
      <trkpt lat="44.76635" lon="-0.10603">
        <ele>94.4</ele>
        <time>2022-10-06T10:00:06Z</time>
      </trkpt>
      <trkpt lat="44.76635" lon="-0.10603">
        <ele>94.3</ele>
        <time>2022-10-06T10:00:07Z</time>
      </trkpt>
      <trkpt lat="44.76634" lon="-0.10602">
        <ele>94.3</ele>
        <time>2022-10-06T10:00:08Z</time>
      </trkpt>
      <trkpt lat="44.76632" lon="-0.106">
        <ele>94.2</ele>
        <time>2022-10-06T10:00:09Z</time>
      </trkpt>
      <trkpt lat="44.76631" lon="-0.10599">
        <ele>94.1</ele>
        <time>2022-10-06T10:00:10Z</time>
      </trkpt>
      <trkpt lat="44.7663" lon="-0.10598">
        <ele>94.1</ele>
        <time>2022-10-06T10:00:11Z</time>
      </trkpt>
      <trkpt lat="44.76629" lon="-0.10597">
        <ele>94</ele>
        <time>2022-10-06T10:00:12Z</time>
      </trkpt>
      <trkpt lat="44.76628" lon="-0.10596">
        <ele>94</ele>
        <time>2022-10-06T10:00:13Z</time>
      </trkpt>
      <trkpt lat="44.76628" lon="-0.10595">
        <ele>93.9</ele>
        <time>2022-10-06T10:00:14Z</time>
      </trkpt>
      <trkpt lat="44.76627" lon="-0.10594">
        <ele>93.8</ele>
        <time>2022-10-06T10:00:15Z</time>
      </trkpt>
      <trkpt lat="44.76625" lon="-0.10591">
        <ele>93.7</ele>
        <time>2022-10-06T10:00:16Z</time>
      </trkpt>
      <trkpt lat="44.76625" lon="-0.10591">
        <ele>93.7</ele>
        <time>2022-10-06T10:00:17Z</time>
      </trkpt>
      <trkpt lat="44.76623" lon="-0.10589">
        <ele>93.6</ele>
        <time>2022-10-06T10:00:19Z</time>
      </trkpt>
      <trkpt lat="44.76622" lon="-0.10588">
        <ele>93.5</ele>
        <time>2022-10-06T10:00:20Z</time>
      </trkpt>
      <trkpt lat="44.7662" lon="-0.10586">
        <ele>93.4</ele>
        <time>2022-10-06T10:00:21Z</time>
      </trkpt>
      <trkpt lat="44.76619" lon="-0.10585">
        <ele>93.3</ele>
        <time>2022-10-06T10:00:22Z</time>
      </trkpt>
      <trkpt lat="44.76618" lon="-0.10585">
        <ele>93.2</ele>
        <time>2022-10-06T10:00:23Z</time>
      </trkpt>
      <trkpt lat="44.76618" lon="-0.10584">
        <ele>93.2</ele>
        <time>2022-10-06T10:00:24Z</time>
      </trkpt>
      <trkpt lat="44.76617" lon="-0.10583">
        <ele>93.1</ele>
        <time>2022-10-06T10:00:25Z</time>
      </trkpt>
      <trkpt lat="44.76615" lon="-0.10581">
        <ele>93</ele>
        <time>2022-10-06T10:00:26Z</time>
      </trkpt>
      <trkpt lat="44.76615" lon="-0.1058">
        <ele>93</ele>
        <time>2022-10-06T10:00:27Z</time>
      </trkpt>
      <trkpt lat="44.76614" lon="-0.10579">
        <ele>92.9</ele>
        <time>2022-10-06T10:00:28Z</time>
      </trkpt>
      <trkpt lat="44.76613" lon="-0.10578">
        <ele>92.8</ele>
        <time>2022-10-06T10:00:29Z</time>
      </trkpt>
      <trkpt lat="44.76613" lon="-0.10577">
        <ele>92.8</ele>
        <time>2022-10-06T10:00:30Z</time>
      </trkpt>
      <trkpt lat="44.76613" lon="-0.10574">
        <ele>92.7</ele>
        <time>2022-10-06T10:00:31Z</time>
      </trkpt>
      <trkpt lat="44.76614" lon="-0.10573">
        <ele>92.6</ele>
        <time>2022-10-06T10:00:32Z</time>
      </trkpt>
      <trkpt lat="44.76614" lon="-0.10571">
        <ele>92.5</ele>
        <time>2022-10-06T10:00:33Z</time>
      </trkpt>
      <trkpt lat="44.76614" lon="-0.1057">
        <ele>92.5</ele>
        <time>2022-10-06T10:00:34Z</time>
      </trkpt>
      <trkpt lat="44.76615" lon="-0.10569">
        <ele>92.4</ele>
        <time>2022-10-06T10:00:35Z</time>
      </trkpt>
      <trkpt lat="44.76614" lon="-0.10568">
        <ele>92.4</ele>
        <time>2022-10-06T10:00:36Z</time>
      </trkpt>
      <trkpt lat="44.76614" lon="-0.10568">
        <ele>92.4</ele>
        <time>2022-10-06T10:00:37Z</time>
      </trkpt>
      <trkpt lat="44.76614" lon="-0.10567">
        <ele>92.3</ele>
        <time>2022-10-06T10:00:38Z</time>
      </trkpt>
      <trkpt lat="44.76613" lon="-0.10568">
        <ele>92.2</ele>
        <time>2022-10-06T10:00:39Z</time>
      </trkpt>
      <trkpt lat="44.76611" lon="-0.10569">
        <ele>92.2</ele>
        <time>2022-10-06T10:00:40Z</time>
      </trkpt>
      <trkpt lat="44.7661" lon="-0.10571">
        <ele>92</ele>
        <time>2022-10-06T10:00:41Z</time>
      </trkpt>
      <trkpt lat="44.76609" lon="-0.10572">
        <ele>92</ele>
        <time>2022-10-06T10:00:42Z</time>
      </trkpt>
      <trkpt lat="44.76609" lon="-0.10572">
        <ele>92</ele>
        <time>2022-10-06T10:00:43Z</time>
      </trkpt>
      <trkpt lat="44.76608" lon="-0.10572">
        <ele>92</ele>
        <time>2022-10-06T10:00:44Z</time>
      </trkpt>
      <trkpt lat="44.76608" lon="-0.10572">
        <ele>91.9</ele>
        <time>2022-10-06T10:00:45Z</time>
      </trkpt>
      <trkpt lat="44.76607" lon="-0.10572">
        <ele>91.9</ele>
        <time>2022-10-06T10:00:46Z</time>
      </trkpt>
      <trkpt lat="44.76607" lon="-0.10571">
        <ele>91.8</ele>
        <time>2022-10-06T10:00:47Z</time>
      </trkpt>
      <trkpt lat="44.76607" lon="-0.1057">
        <ele>91.8</ele>
        <time>2022-10-06T10:00:48Z</time>
      </trkpt>
      <trkpt lat="44.76608" lon="-0.10569">
        <ele>91.7</ele>
        <time>2022-10-06T10:00:49Z</time>
      </trkpt>
      <trkpt lat="44.76608" lon="-0.10568">
        <ele>91.7</ele>
        <time>2022-10-06T10:00:50Z</time>
      </trkpt>
      <trkpt lat="44.76608" lon="-0.10567">
        <ele>91.7</ele>
        <time>2022-10-06T10:00:51Z</time>
      </trkpt>
      <trkpt lat="44.76608" lon="-0.10567">
        <ele>91.7</ele>
        <time>2022-10-06T10:00:52Z</time>
      </trkpt>
      <trkpt lat="44.76607" lon="-0.10566">
        <ele>91.6</ele>
        <time>2022-10-06T10:00:53Z</time>
      </trkpt>
      <trkpt lat="44.76607" lon="-0.10566">
        <ele>91.6</ele>
        <time>2022-10-06T10:00:54Z</time>
      </trkpt>
      <trkpt lat="44.76606" lon="-0.10565">
        <ele>91.5</ele>
        <time>2022-10-06T10:00:55Z</time>
      </trkpt>
      <trkpt lat="44.76604" lon="-0.10565">
        <ele>91.5</ele>
        <time>2022-10-06T10:00:56Z</time>
      </trkpt>
      <trkpt lat="44.76604" lon="-0.10565">
        <ele>91.4</ele>
        <time>2022-10-06T10:00:57Z</time>
      </trkpt>
      <trkpt lat="44.76603" lon="-0.10564">
        <ele>91.4</ele>
        <time>2022-10-06T10:00:58Z</time>
      </trkpt>
      <trkpt lat="44.76602" lon="-0.10564">
        <ele>91.3</ele>
        <time>2022-10-06T10:00:59Z</time>
      </trkpt>
      <trkpt lat="44.76601" lon="-0.10563">
        <ele>91.3</ele>
        <time>2022-10-06T10:01:00Z</time>
      </trkpt>
      <trkpt lat="44.766" lon="-0.10563">
        <ele>91.2</ele>
        <time>2022-10-06T10:01:01Z</time>
      </trkpt>
      <trkpt lat="44.766" lon="-0.10563">
        <ele>91.2</ele>
        <time>2022-10-06T10:01:02Z</time>
      </trkpt>
      <trkpt lat="44.76598" lon="-0.10562">
        <ele>91.1</ele>
        <time>2022-10-06T10:01:03Z</time>
      </trkpt>
      <trkpt lat="44.76598" lon="-0.10562">
        <ele>91</ele>
        <time>2022-10-06T10:01:04Z</time>
      </trkpt>
      <trkpt lat="44.76597" lon="-0.10561">
        <ele>91</ele>
        <time>2022-10-06T10:01:05Z</time>
      </trkpt>
      <trkpt lat="44.76595" lon="-0.10561">
        <ele>90.9</ele>
        <time>2022-10-06T10:01:06Z</time>
      </trkpt>
      <trkpt lat="44.76595" lon="-0.1056">
        <ele>90.9</ele>
        <time>2022-10-06T10:01:07Z</time>
      </trkpt>
      <trkpt lat="44.76594" lon="-0.10559">
        <ele>90.8</ele>
        <time>2022-10-06T10:01:08Z</time>
      </trkpt>
      <trkpt lat="44.76593" lon="-0.10559">
        <ele>90.8</ele>
        <time>2022-10-06T10:01:09Z</time>
      </trkpt>
      <trkpt lat="44.76592" lon="-0.10559">
        <ele>90.7</ele>
        <time>2022-10-06T10:01:10Z</time>
      </trkpt>
      <trkpt lat="44.7659" lon="-0.10558">
        <ele>90.6</ele>
        <time>2022-10-06T10:01:11Z</time>
      </trkpt>
      <trkpt lat="44.76589" lon="-0.10558">
        <ele>90.6</ele>
        <time>2022-10-06T10:01:12Z</time>
      </trkpt>
      <trkpt lat="44.76588" lon="-0.10557">
        <ele>90.6</ele>
        <time>2022-10-06T10:01:13Z</time>
      </trkpt>
      <trkpt lat="44.76587" lon="-0.10557">
        <ele>90.5</ele>
        <time>2022-10-06T10:01:14Z</time>
      </trkpt>
      <trkpt lat="44.76586" lon="-0.10556">
        <ele>90.5</ele>
        <time>2022-10-06T10:01:15Z</time>
      </trkpt>
      <trkpt lat="44.76584" lon="-0.10555">
        <ele>90.4</ele>
        <time>2022-10-06T10:01:16Z</time>
      </trkpt>
      <trkpt lat="44.76584" lon="-0.10555">
        <ele>90.4</ele>
        <time>2022-10-06T10:01:17Z</time>
      </trkpt>
      <trkpt lat="44.76583" lon="-0.10554">
        <ele>90.3</ele>
        <time>2022-10-06T10:01:18Z</time>
      </trkpt>
      <trkpt lat="44.76581" lon="-0.10553">
        <ele>90.2</ele>
        <time>2022-10-06T10:01:19Z</time>
      </trkpt>
      <trkpt lat="44.76579" lon="-0.10553">
        <ele>90.2</ele>
        <time>2022-10-06T10:01:20Z</time>
      </trkpt>
      <trkpt lat="44.76578" lon="-0.10552">
        <ele>90.1</ele>
        <time>2022-10-06T10:01:21Z</time>
      </trkpt>
      <trkpt lat="44.76577" lon="-0.10552">
        <ele>90.1</ele>
        <time>2022-10-06T10:01:22Z</time>
      </trkpt>
      <trkpt lat="44.76576" lon="-0.10552">
        <ele>90</ele>
        <time>2022-10-06T10:01:23Z</time>
      </trkpt>
      <trkpt lat="44.76575" lon="-0.10551">
        <ele>90</ele>
        <time>2022-10-06T10:01:24Z</time>
      </trkpt>
      <trkpt lat="44.76574" lon="-0.10551">
        <ele>89.9</ele>
        <time>2022-10-06T10:01:25Z</time>
      </trkpt>
      <trkpt lat="44.76572" lon="-0.1055">
        <ele>89.8</ele>
        <time>2022-10-06T10:01:26Z</time>
      </trkpt>
      <trkpt lat="44.76571" lon="-0.1055">
        <ele>89.8</ele>
        <time>2022-10-06T10:01:27Z</time>
      </trkpt>
      <trkpt lat="44.7657" lon="-0.10549">
        <ele>89.7</ele>
        <time>2022-10-06T10:01:28Z</time>
      </trkpt>
      <trkpt lat="44.76569" lon="-0.10549">
        <ele>89.7</ele>
        <time>2022-10-06T10:01:29Z</time>
      </trkpt>
      <trkpt lat="44.76568" lon="-0.10549">
        <ele>89.6</ele>
        <time>2022-10-06T10:01:30Z</time>
      </trkpt>
      <trkpt lat="44.76567" lon="-0.10548">
        <ele>89.5</ele>
        <time>2022-10-06T10:01:31Z</time>
      </trkpt>
      <trkpt lat="44.76565" lon="-0.10548">
        <ele>89.5</ele>
        <time>2022-10-06T10:01:32Z</time>
      </trkpt>
      <trkpt lat="44.76563" lon="-0.10547">
        <ele>89.4</ele>
        <time>2022-10-06T10:01:33Z</time>
      </trkpt>
      <trkpt lat="44.76562" lon="-0.10547">
        <ele>89.3</ele>
        <time>2022-10-06T10:01:34Z</time>
      </trkpt>
      <trkpt lat="44.76562" lon="-0.10547">
        <ele>89.3</ele>
        <time>2022-10-06T10:01:35Z</time>
      </trkpt>
      <trkpt lat="44.7656" lon="-0.10546">
        <ele>89.2</ele>
        <time>2022-10-06T10:01:36Z</time>
      </trkpt>
      <trkpt lat="44.76559" lon="-0.10546">
        <ele>89.2</ele>
        <time>2022-10-06T10:01:37Z</time>
      </trkpt>
      <trkpt lat="44.76558" lon="-0.10545">
        <ele>89.1</ele>
        <time>2022-10-06T10:01:38Z</time>
      </trkpt>
      <trkpt lat="44.76556" lon="-0.10545">
        <ele>89</ele>
        <time>2022-10-06T10:01:39Z</time>
      </trkpt>
      <trkpt lat="44.76555" lon="-0.10544">
        <ele>89</ele>
        <time>2022-10-06T10:01:40Z</time>
      </trkpt>
      <trkpt lat="44.76554" lon="-0.10544">
        <ele>88.9</ele>
        <time>2022-10-06T10:01:41Z</time>
      </trkpt>
      <trkpt lat="44.76554" lon="-0.10544">
        <ele>88.9</ele>
        <time>2022-10-06T10:01:42Z</time>
      </trkpt>
      <trkpt lat="44.76552" lon="-0.10543">
        <ele>88.8</ele>
        <time>2022-10-06T10:01:43Z</time>
      </trkpt>
      <trkpt lat="44.76551" lon="-0.10542">
        <ele>88.8</ele>
        <time>2022-10-06T10:01:44Z</time>
      </trkpt>
      <trkpt lat="44.7655" lon="-0.10542">
        <ele>88.7</ele>
        <time>2022-10-06T10:01:45Z</time>
      </trkpt>
      <trkpt lat="44.76548" lon="-0.10542">
        <ele>88.7</ele>
        <time>2022-10-06T10:01:46Z</time>
      </trkpt>
      <trkpt lat="44.76547" lon="-0.10541">
        <ele>88.6</ele>
        <time>2022-10-06T10:01:47Z</time>
      </trkpt>
      <trkpt lat="44.76546" lon="-0.10541">
        <ele>88.6</ele>
        <time>2022-10-06T10:01:48Z</time>
      </trkpt>
      <trkpt lat="44.76545" lon="-0.1054">
        <ele>88.5</ele>
        <time>2022-10-06T10:01:49Z</time>
      </trkpt>
      <trkpt lat="44.76544" lon="-0.1054">
        <ele>88.5</ele>
        <time>2022-10-06T10:01:50Z</time>
      </trkpt>
      <trkpt lat="44.76542" lon="-0.10539">
        <ele>88.4</ele>
        <time>2022-10-06T10:01:51Z</time>
      </trkpt>
      <trkpt lat="44.76542" lon="-0.10538">
        <ele>88.4</ele>
        <time>2022-10-06T10:01:52Z</time>
      </trkpt>
      <trkpt lat="44.76541" lon="-0.10538">
        <ele>88.3</ele>
        <time>2022-10-06T10:01:53Z</time>
      </trkpt>
      <trkpt lat="44.7654" lon="-0.10538">
        <ele>88.3</ele>
        <time>2022-10-06T10:01:54Z</time>
      </trkpt>
      <trkpt lat="44.76539" lon="-0.10537">
        <ele>88.2</ele>
        <time>2022-10-06T10:01:55Z</time>
      </trkpt>
      <trkpt lat="44.76537" lon="-0.10536">
        <ele>88.1</ele>
        <time>2022-10-06T10:01:56Z</time>
      </trkpt>
      <trkpt lat="44.76537" lon="-0.10535">
        <ele>88.1</ele>
        <time>2022-10-06T10:01:57Z</time>
      </trkpt>
      <trkpt lat="44.76536" lon="-0.10535">
        <ele>88.1</ele>
        <time>2022-10-06T10:01:58Z</time>
      </trkpt>
      <trkpt lat="44.76532" lon="-0.10534">
        <ele>87.9</ele>
        <time>2022-10-06T10:02:00Z</time>
      </trkpt>
      <trkpt lat="44.76532" lon="-0.10534">
        <ele>87.9</ele>
        <time>2022-10-06T10:02:01Z</time>
      </trkpt>
      <trkpt lat="44.7653" lon="-0.10533">
        <ele>87.8</ele>
        <time>2022-10-06T10:02:02Z</time>
      </trkpt>
      <trkpt lat="44.76529" lon="-0.10533">
        <ele>87.8</ele>
        <time>2022-10-06T10:02:03Z</time>
      </trkpt>
      <trkpt lat="44.76527" lon="-0.10533">
        <ele>87.7</ele>
        <time>2022-10-06T10:02:04Z</time>
      </trkpt>
      <trkpt lat="44.76526" lon="-0.10533">
        <ele>87.6</ele>
        <time>2022-10-06T10:02:05Z</time>
      </trkpt>
      <trkpt lat="44.76525" lon="-0.10533">
        <ele>87.6</ele>
        <time>2022-10-06T10:02:06Z</time>
      </trkpt>
      <trkpt lat="44.76523" lon="-0.10533">
        <ele>87.5</ele>
        <time>2022-10-06T10:02:07Z</time>
      </trkpt>
      <trkpt lat="44.76522" lon="-0.10533">
        <ele>87.4</ele>
        <time>2022-10-06T10:02:08Z</time>
      </trkpt>
      <trkpt lat="44.7652" lon="-0.10533">
        <ele>87.3</ele>
        <time>2022-10-06T10:02:09Z</time>
      </trkpt>
      <trkpt lat="44.76519" lon="-0.10533">
        <ele>87.3</ele>
        <time>2022-10-06T10:02:10Z</time>
      </trkpt>
      <trkpt lat="44.76518" lon="-0.10533">
        <ele>87.2</ele>
        <time>2022-10-06T10:02:11Z</time>
      </trkpt>
      <trkpt lat="44.76516" lon="-0.10533">
        <ele>87.1</ele>
        <time>2022-10-06T10:02:12Z</time>
      </trkpt>
      <trkpt lat="44.76515" lon="-0.10533">
        <ele>87.1</ele>
        <time>2022-10-06T10:02:13Z</time>
      </trkpt>
      <trkpt lat="44.76514" lon="-0.10533">
        <ele>87</ele>
        <time>2022-10-06T10:02:14Z</time>
      </trkpt>
      <trkpt lat="44.76513" lon="-0.10532">
        <ele>87</ele>
        <time>2022-10-06T10:02:15Z</time>
      </trkpt>
      <trkpt lat="44.76512" lon="-0.10532">
        <ele>86.9</ele>
        <time>2022-10-06T10:02:16Z</time>
      </trkpt>
      <trkpt lat="44.76509" lon="-0.10531">
        <ele>86.8</ele>
        <time>2022-10-06T10:02:17Z</time>
      </trkpt>
      <trkpt lat="44.76509" lon="-0.10531">
        <ele>86.7</ele>
        <time>2022-10-06T10:02:18Z</time>
      </trkpt>
      <trkpt lat="44.76508" lon="-0.10531">
        <ele>86.7</ele>
        <time>2022-10-06T10:02:19Z</time>
      </trkpt>
      <trkpt lat="44.76507" lon="-0.10531">
        <ele>86.6</ele>
        <time>2022-10-06T10:02:20Z</time>
      </trkpt>
      <trkpt lat="44.76505" lon="-0.10531">
        <ele>86.6</ele>
        <time>2022-10-06T10:02:21Z</time>
      </trkpt>
      <trkpt lat="44.76504" lon="-0.10531">
        <ele>86.5</ele>
        <time>2022-10-06T10:02:22Z</time>
      </trkpt>
      <trkpt lat="44.76503" lon="-0.10531">
        <ele>86.4</ele>
        <time>2022-10-06T10:02:23Z</time>
      </trkpt>
      <trkpt lat="44.765" lon="-0.10531">
        <ele>86.3</ele>
        <time>2022-10-06T10:02:25Z</time>
      </trkpt>
      <trkpt lat="44.76498" lon="-0.10531">
        <ele>86.2</ele>
        <time>2022-10-06T10:02:26Z</time>
      </trkpt>
      <trkpt lat="44.76497" lon="-0.10531">
        <ele>86.1</ele>
        <time>2022-10-06T10:02:27Z</time>
      </trkpt>
      <trkpt lat="44.76496" lon="-0.10532">
        <ele>86.1</ele>
        <time>2022-10-06T10:02:28Z</time>
      </trkpt>
      <trkpt lat="44.76495" lon="-0.10532">
        <ele>86</ele>
        <time>2022-10-06T10:02:29Z</time>
      </trkpt>
      <trkpt lat="44.76494" lon="-0.10533">
        <ele>85.9</ele>
        <time>2022-10-06T10:02:30Z</time>
      </trkpt>
      <trkpt lat="44.76492" lon="-0.10533">
        <ele>85.9</ele>
        <time>2022-10-06T10:02:31Z</time>
      </trkpt>
      <trkpt lat="44.76491" lon="-0.10534">
        <ele>85.8</ele>
        <time>2022-10-06T10:02:32Z</time>
      </trkpt>
      <trkpt lat="44.76489" lon="-0.10535">
        <ele>85.7</ele>
        <time>2022-10-06T10:02:34Z</time>
      </trkpt>
      <trkpt lat="44.76488" lon="-0.10535">
        <ele>85.6</ele>
        <time>2022-10-06T10:02:35Z</time>
      </trkpt>
      <trkpt lat="44.76487" lon="-0.10535">
        <ele>85.6</ele>
        <time>2022-10-06T10:02:36Z</time>
      </trkpt>
      <trkpt lat="44.76484" lon="-0.10536">
        <ele>85.4</ele>
        <time>2022-10-06T10:02:38Z</time>
      </trkpt>
      <trkpt lat="44.76483" lon="-0.10537">
        <ele>85.3</ele>
        <time>2022-10-06T10:02:39Z</time>
      </trkpt>
      <trkpt lat="44.76482" lon="-0.10537">
        <ele>85.3</ele>
        <time>2022-10-06T10:02:40Z</time>
      </trkpt>
      <trkpt lat="44.76481" lon="-0.10536">
        <ele>85.2</ele>
        <time>2022-10-06T10:02:41Z</time>
      </trkpt>
      <trkpt lat="44.76479" lon="-0.10535">
        <ele>85.1</ele>
        <time>2022-10-06T10:02:42Z</time>
      </trkpt>
      <trkpt lat="44.76477" lon="-0.10534">
        <ele>85</ele>
        <time>2022-10-06T10:02:43Z</time>
      </trkpt>
      <trkpt lat="44.76477" lon="-0.10533">
        <ele>85</ele>
        <time>2022-10-06T10:02:44Z</time>
      </trkpt>
      <trkpt lat="44.76476" lon="-0.10532">
        <ele>84.9</ele>
        <time>2022-10-06T10:02:45Z</time>
      </trkpt>
      <trkpt lat="44.76475" lon="-0.10531">
        <ele>84.9</ele>
        <time>2022-10-06T10:02:46Z</time>
      </trkpt>
      <trkpt lat="44.76473" lon="-0.1053">
        <ele>84.8</ele>
        <time>2022-10-06T10:02:47Z</time>
      </trkpt>
      <trkpt lat="44.76471" lon="-0.10528">
        <ele>84.7</ele>
        <time>2022-10-06T10:02:49Z</time>
      </trkpt>
      <trkpt lat="44.7647" lon="-0.10528">
        <ele>84.6</ele>
        <time>2022-10-06T10:02:50Z</time>
      </trkpt>
      <trkpt lat="44.76469" lon="-0.10527">
        <ele>84.6</ele>
        <time>2022-10-06T10:02:51Z</time>
      </trkpt>
      <trkpt lat="44.76467" lon="-0.10526">
        <ele>84.5</ele>
        <time>2022-10-06T10:02:52Z</time>
      </trkpt>
      <trkpt lat="44.76465" lon="-0.10524">
        <ele>84.4</ele>
        <time>2022-10-06T10:02:54Z</time>
      </trkpt>
      <trkpt lat="44.76464" lon="-0.10523">
        <ele>84.4</ele>
        <time>2022-10-06T10:02:55Z</time>
      </trkpt>
      <trkpt lat="44.76463" lon="-0.10522">
        <ele>84.3</ele>
        <time>2022-10-06T10:02:56Z</time>
      </trkpt>
      <trkpt lat="44.76461" lon="-0.10521">
        <ele>84.2</ele>
        <time>2022-10-06T10:02:57Z</time>
      </trkpt>
      <trkpt lat="44.76459" lon="-0.1052">
        <ele>84.2</ele>
        <time>2022-10-06T10:02:58Z</time>
      </trkpt>
      <trkpt lat="44.76459" lon="-0.1052">
        <ele>84.1</ele>
        <time>2022-10-06T10:02:59Z</time>
      </trkpt>
      <trkpt lat="44.76458" lon="-0.10519">
        <ele>84.1</ele>
        <time>2022-10-06T10:03:00Z</time>
      </trkpt>
      <trkpt lat="44.76457" lon="-0.10519">
        <ele>84.1</ele>
        <time>2022-10-06T10:03:01Z</time>
      </trkpt>
      <trkpt lat="44.76455" lon="-0.10518">
        <ele>84</ele>
        <time>2022-10-06T10:03:02Z</time>
      </trkpt>
      <trkpt lat="44.76454" lon="-0.10517">
        <ele>84</ele>
        <time>2022-10-06T10:03:03Z</time>
      </trkpt>
      <trkpt lat="44.76453" lon="-0.10516">
        <ele>83.9</ele>
        <time>2022-10-06T10:03:04Z</time>
      </trkpt>
      <trkpt lat="44.76452" lon="-0.10516">
        <ele>83.9</ele>
        <time>2022-10-06T10:03:05Z</time>
      </trkpt>
      <trkpt lat="44.76449" lon="-0.10515">
        <ele>83.8</ele>
        <time>2022-10-06T10:03:06Z</time>
      </trkpt>
      <trkpt lat="44.76448" lon="-0.10514">
        <ele>83.7</ele>
        <time>2022-10-06T10:03:07Z</time>
      </trkpt>
      <trkpt lat="44.76448" lon="-0.10514">
        <ele>83.7</ele>
        <time>2022-10-06T10:03:08Z</time>
      </trkpt>
      <trkpt lat="44.76446" lon="-0.10513">
        <ele>83.7</ele>
        <time>2022-10-06T10:03:09Z</time>
      </trkpt>
      <trkpt lat="44.76445" lon="-0.10513">
        <ele>83.6</ele>
        <time>2022-10-06T10:03:10Z</time>
      </trkpt>
      <trkpt lat="44.76444" lon="-0.10512">
        <ele>83.6</ele>
        <time>2022-10-06T10:03:11Z</time>
      </trkpt>
      <trkpt lat="44.76442" lon="-0.10511">
        <ele>83.5</ele>
        <time>2022-10-06T10:03:12Z</time>
      </trkpt>
      <trkpt lat="44.76441" lon="-0.10511">
        <ele>83.5</ele>
        <time>2022-10-06T10:03:13Z</time>
      </trkpt>
      <trkpt lat="44.7644" lon="-0.1051">
        <ele>83.4</ele>
        <time>2022-10-06T10:03:14Z</time>
      </trkpt>
      <trkpt lat="44.76439" lon="-0.10509">
        <ele>83.4</ele>
        <time>2022-10-06T10:03:15Z</time>
      </trkpt>
      <trkpt lat="44.76438" lon="-0.10508">
        <ele>83.3</ele>
        <time>2022-10-06T10:03:16Z</time>
      </trkpt>
      <trkpt lat="44.76435" lon="-0.10507">
        <ele>83.2</ele>
        <time>2022-10-06T10:03:18Z</time>
      </trkpt>
      <trkpt lat="44.76434" lon="-0.10506">
        <ele>83.2</ele>
        <time>2022-10-06T10:03:19Z</time>
      </trkpt>
      <trkpt lat="44.76433" lon="-0.10506">
        <ele>83.2</ele>
        <time>2022-10-06T10:03:20Z</time>
      </trkpt>
      <trkpt lat="44.76432" lon="-0.10505">
        <ele>83.1</ele>
        <time>2022-10-06T10:03:21Z</time>
      </trkpt>
      <trkpt lat="44.7643" lon="-0.10504">
        <ele>83.1</ele>
        <time>2022-10-06T10:03:22Z</time>
      </trkpt>
      <trkpt lat="44.76429" lon="-0.10503">
        <ele>83.1</ele>
        <time>2022-10-06T10:03:23Z</time>
      </trkpt>
      <trkpt lat="44.76428" lon="-0.10503">
        <ele>83</ele>
        <time>2022-10-06T10:03:24Z</time>
      </trkpt>
      <trkpt lat="44.76427" lon="-0.10502">
        <ele>83</ele>
        <time>2022-10-06T10:03:25Z</time>
      </trkpt>
      <trkpt lat="44.76425" lon="-0.105">
        <ele>82.9</ele>
        <time>2022-10-06T10:03:26Z</time>
      </trkpt>
      <trkpt lat="44.76424" lon="-0.105">
        <ele>82.9</ele>
        <time>2022-10-06T10:03:27Z</time>
      </trkpt>
      <trkpt lat="44.76423" lon="-0.105">
        <ele>82.9</ele>
        <time>2022-10-06T10:03:28Z</time>
      </trkpt>
      <trkpt lat="44.76422" lon="-0.10499">
        <ele>82.8</ele>
        <time>2022-10-06T10:03:29Z</time>
      </trkpt>
      <trkpt lat="44.76421" lon="-0.10498">
        <ele>82.8</ele>
        <time>2022-10-06T10:03:30Z</time>
      </trkpt>
      <trkpt lat="44.7642" lon="-0.10498">
        <ele>82.8</ele>
        <time>2022-10-06T10:03:31Z</time>
      </trkpt>
      <trkpt lat="44.76417" lon="-0.10496">
        <ele>82.7</ele>
        <time>2022-10-06T10:03:33Z</time>
      </trkpt>
      <trkpt lat="44.76416" lon="-0.10495">
        <ele>82.7</ele>
        <time>2022-10-06T10:03:34Z</time>
      </trkpt>
      <trkpt lat="44.76415" lon="-0.10494">
        <ele>82.7</ele>
        <time>2022-10-06T10:03:35Z</time>
      </trkpt>
      <trkpt lat="44.76414" lon="-0.10494">
        <ele>82.6</ele>
        <time>2022-10-06T10:03:36Z</time>
      </trkpt>
      <trkpt lat="44.76413" lon="-0.10493">
        <ele>82.6</ele>
        <time>2022-10-06T10:03:37Z</time>
      </trkpt>
      <trkpt lat="44.76412" lon="-0.10492">
        <ele>82.6</ele>
        <time>2022-10-06T10:03:38Z</time>
      </trkpt>
      <trkpt lat="44.76411" lon="-0.10491">
        <ele>82.6</ele>
        <time>2022-10-06T10:03:39Z</time>
      </trkpt>
      <trkpt lat="44.7641" lon="-0.10491">
        <ele>82.5</ele>
        <time>2022-10-06T10:03:40Z</time>
      </trkpt>
      <trkpt lat="44.76409" lon="-0.1049">
        <ele>82.5</ele>
        <time>2022-10-06T10:03:41Z</time>
      </trkpt>
      <trkpt lat="44.76407" lon="-0.10489">
        <ele>82.4</ele>
        <time>2022-10-06T10:03:42Z</time>
      </trkpt>
      <trkpt lat="44.76406" lon="-0.10488">
        <ele>82.4</ele>
        <time>2022-10-06T10:03:43Z</time>
      </trkpt>
      <trkpt lat="44.76406" lon="-0.10488">
        <ele>82.4</ele>
        <time>2022-10-06T10:03:44Z</time>
      </trkpt>
      <trkpt lat="44.76404" lon="-0.10487">
        <ele>82.4</ele>
        <time>2022-10-06T10:03:45Z</time>
      </trkpt>
      <trkpt lat="44.76403" lon="-0.10486">
        <ele>82.3</ele>
        <time>2022-10-06T10:03:46Z</time>
      </trkpt>
      <trkpt lat="44.76402" lon="-0.10486">
        <ele>82.3</ele>
        <time>2022-10-06T10:03:47Z</time>
      </trkpt>
      <trkpt lat="44.764" lon="-0.10485">
        <ele>82.3</ele>
        <time>2022-10-06T10:03:49Z</time>
      </trkpt>
      <trkpt lat="44.76399" lon="-0.10484">
        <ele>82.2</ele>
        <time>2022-10-06T10:03:50Z</time>
      </trkpt>
      <trkpt lat="44.76398" lon="-0.10483">
        <ele>82.2</ele>
        <time>2022-10-06T10:03:51Z</time>
      </trkpt>
      <trkpt lat="44.76396" lon="-0.10482">
        <ele>82.1</ele>
        <time>2022-10-06T10:03:52Z</time>
      </trkpt>
      <trkpt lat="44.76395" lon="-0.10482">
        <ele>82.1</ele>
        <time>2022-10-06T10:03:53Z</time>
      </trkpt>
      <trkpt lat="44.76394" lon="-0.10481">
        <ele>82</ele>
        <time>2022-10-06T10:03:54Z</time>
      </trkpt>
      <trkpt lat="44.76393" lon="-0.1048">
        <ele>82</ele>
        <time>2022-10-06T10:03:55Z</time>
      </trkpt>
      <trkpt lat="44.76392" lon="-0.10479">
        <ele>82</ele>
        <time>2022-10-06T10:03:56Z</time>
      </trkpt>
      <trkpt lat="44.76391" lon="-0.10479">
        <ele>81.9</ele>
        <time>2022-10-06T10:03:57Z</time>
      </trkpt>
      <trkpt lat="44.7639" lon="-0.10478">
        <ele>81.9</ele>
        <time>2022-10-06T10:03:58Z</time>
      </trkpt>
      <trkpt lat="44.76388" lon="-0.10477">
        <ele>81.8</ele>
        <time>2022-10-06T10:03:59Z</time>
      </trkpt>
      <trkpt lat="44.76387" lon="-0.10476">
        <ele>81.8</ele>
        <time>2022-10-06T10:04:00Z</time>
      </trkpt>
      <trkpt lat="44.76386" lon="-0.10476">
        <ele>81.7</ele>
        <time>2022-10-06T10:04:01Z</time>
      </trkpt>
      <trkpt lat="44.76385" lon="-0.10475">
        <ele>81.7</ele>
        <time>2022-10-06T10:04:02Z</time>
      </trkpt>
      <trkpt lat="44.76383" lon="-0.10473">
        <ele>81.6</ele>
        <time>2022-10-06T10:04:03Z</time>
      </trkpt>
      <trkpt lat="44.76382" lon="-0.10473">
        <ele>81.6</ele>
        <time>2022-10-06T10:04:04Z</time>
      </trkpt>
      <trkpt lat="44.76382" lon="-0.10472">
        <ele>81.5</ele>
        <time>2022-10-06T10:04:05Z</time>
      </trkpt>
      <trkpt lat="44.76381" lon="-0.10471">
        <ele>81.5</ele>
        <time>2022-10-06T10:04:06Z</time>
      </trkpt>
      <trkpt lat="44.76379" lon="-0.1047">
        <ele>81.4</ele>
        <time>2022-10-06T10:04:07Z</time>
      </trkpt>
      <trkpt lat="44.76378" lon="-0.1047">
        <ele>81.4</ele>
        <time>2022-10-06T10:04:08Z</time>
      </trkpt>
      <trkpt lat="44.76377" lon="-0.10469">
        <ele>81.3</ele>
        <time>2022-10-06T10:04:09Z</time>
      </trkpt>
      <trkpt lat="44.76376" lon="-0.10469">
        <ele>81.2</ele>
        <time>2022-10-06T10:04:10Z</time>
      </trkpt>
      <trkpt lat="44.76375" lon="-0.10468">
        <ele>81.2</ele>
        <time>2022-10-06T10:04:11Z</time>
      </trkpt>
      <trkpt lat="44.76374" lon="-0.10467">
        <ele>81.1</ele>
        <time>2022-10-06T10:04:12Z</time>
      </trkpt>
      <trkpt lat="44.76373" lon="-0.10467">
        <ele>81.1</ele>
        <time>2022-10-06T10:04:13Z</time>
      </trkpt>
      <trkpt lat="44.76372" lon="-0.10466">
        <ele>81</ele>
        <time>2022-10-06T10:04:14Z</time>
      </trkpt>
      <trkpt lat="44.76371" lon="-0.10466">
        <ele>81</ele>
        <time>2022-10-06T10:04:15Z</time>
      </trkpt>
      <trkpt lat="44.7637" lon="-0.10465">
        <ele>80.9</ele>
        <time>2022-10-06T10:04:16Z</time>
      </trkpt>
      <trkpt lat="44.76368" lon="-0.10463">
        <ele>80.9</ele>
        <time>2022-10-06T10:04:17Z</time>
      </trkpt>
      <trkpt lat="44.76368" lon="-0.10463">
        <ele>80.8</ele>
        <time>2022-10-06T10:04:18Z</time>
      </trkpt>
      <trkpt lat="44.76367" lon="-0.10463">
        <ele>80.8</ele>
        <time>2022-10-06T10:04:19Z</time>
      </trkpt>
      <trkpt lat="44.76365" lon="-0.10462">
        <ele>80.7</ele>
        <time>2022-10-06T10:04:20Z</time>
      </trkpt>
      <trkpt lat="44.76364" lon="-0.10461">
        <ele>80.7</ele>
        <time>2022-10-06T10:04:21Z</time>
      </trkpt>
      <trkpt lat="44.76362" lon="-0.10459">
        <ele>80.5</ele>
        <time>2022-10-06T10:04:23Z</time>
      </trkpt>
      <trkpt lat="44.76361" lon="-0.10458">
        <ele>80.5</ele>
        <time>2022-10-06T10:04:24Z</time>
      </trkpt>
      <trkpt lat="44.7636" lon="-0.10457">
        <ele>80.4</ele>
        <time>2022-10-06T10:04:25Z</time>
      </trkpt>
      <trkpt lat="44.76359" lon="-0.10456">
        <ele>80.4</ele>
        <time>2022-10-06T10:04:26Z</time>
      </trkpt>
      <trkpt lat="44.76358" lon="-0.10456">
        <ele>80.3</ele>
        <time>2022-10-06T10:04:27Z</time>
      </trkpt>
      <trkpt lat="44.76357" lon="-0.10455">
        <ele>80.2</ele>
        <time>2022-10-06T10:04:28Z</time>
      </trkpt>
      <trkpt lat="44.76355" lon="-0.10455">
        <ele>80.2</ele>
        <time>2022-10-06T10:04:29Z</time>
      </trkpt>
      <trkpt lat="44.76354" lon="-0.10454">
        <ele>80.1</ele>
        <time>2022-10-06T10:04:30Z</time>
      </trkpt>
      <trkpt lat="44.76353" lon="-0.10453">
        <ele>80.1</ele>
        <time>2022-10-06T10:04:31Z</time>
      </trkpt>
      <trkpt lat="44.76352" lon="-0.10452">
        <ele>80</ele>
        <time>2022-10-06T10:04:32Z</time>
      </trkpt>
      <trkpt lat="44.7635" lon="-0.10451">
        <ele>79.9</ele>
        <time>2022-10-06T10:04:34Z</time>
      </trkpt>
      <trkpt lat="44.76349" lon="-0.10451">
        <ele>79.9</ele>
        <time>2022-10-06T10:04:35Z</time>
      </trkpt>
      <trkpt lat="44.76348" lon="-0.1045">
        <ele>79.8</ele>
        <time>2022-10-06T10:04:36Z</time>
      </trkpt>
      <trkpt lat="44.76346" lon="-0.10449">
        <ele>79.7</ele>
        <time>2022-10-06T10:04:37Z</time>
      </trkpt>
      <trkpt lat="44.76345" lon="-0.10448">
        <ele>79.7</ele>
        <time>2022-10-06T10:04:38Z</time>
      </trkpt>
      <trkpt lat="44.76344" lon="-0.10448">
        <ele>79.6</ele>
        <time>2022-10-06T10:04:39Z</time>
      </trkpt>
      <trkpt lat="44.76343" lon="-0.10447">
        <ele>79.6</ele>
        <time>2022-10-06T10:04:40Z</time>
      </trkpt>
      <trkpt lat="44.76342" lon="-0.10446">
        <ele>79.5</ele>
        <time>2022-10-06T10:04:41Z</time>
      </trkpt>
      <trkpt lat="44.76341" lon="-0.10445">
        <ele>79.4</ele>
        <time>2022-10-06T10:04:42Z</time>
      </trkpt>
      <trkpt lat="44.7634" lon="-0.10445">
        <ele>79.4</ele>
        <time>2022-10-06T10:04:43Z</time>
      </trkpt>
      <trkpt lat="44.76339" lon="-0.10444">
        <ele>79.4</ele>
        <time>2022-10-06T10:04:44Z</time>
      </trkpt>
      <trkpt lat="44.76338" lon="-0.10443">
        <ele>79.3</ele>
        <time>2022-10-06T10:04:45Z</time>
      </trkpt>
      <trkpt lat="44.76337" lon="-0.10442">
        <ele>79.3</ele>
        <time>2022-10-06T10:04:46Z</time>
      </trkpt>
      <trkpt lat="44.76336" lon="-0.10441">
        <ele>79.2</ele>
        <time>2022-10-06T10:04:47Z</time>
      </trkpt>
      <trkpt lat="44.76335" lon="-0.10441">
        <ele>79.2</ele>
        <time>2022-10-06T10:04:48Z</time>
      </trkpt>
      <trkpt lat="44.76333" lon="-0.10439">
        <ele>79.1</ele>
        <time>2022-10-06T10:04:49Z</time>
      </trkpt>
      <trkpt lat="44.76332" lon="-0.10438">
        <ele>79</ele>
        <time>2022-10-06T10:04:51Z</time>
      </trkpt>
      <trkpt lat="44.76331" lon="-0.10438">
        <ele>79</ele>
        <time>2022-10-06T10:04:52Z</time>
      </trkpt>
      <trkpt lat="44.76329" lon="-0.10437">
        <ele>78.9</ele>
        <time>2022-10-06T10:04:53Z</time>
      </trkpt>
      <trkpt lat="44.76328" lon="-0.10436">
        <ele>78.9</ele>
        <time>2022-10-06T10:04:54Z</time>
      </trkpt>
      <trkpt lat="44.76326" lon="-0.10435">
        <ele>78.8</ele>
        <time>2022-10-06T10:04:55Z</time>
      </trkpt>
      <trkpt lat="44.76326" lon="-0.10434">
        <ele>78.8</ele>
        <time>2022-10-06T10:04:56Z</time>
      </trkpt>
      <trkpt lat="44.76325" lon="-0.10434">
        <ele>78.7</ele>
        <time>2022-10-06T10:04:57Z</time>
      </trkpt>
      <trkpt lat="44.76323" lon="-0.10433">
        <ele>78.7</ele>
        <time>2022-10-06T10:04:58Z</time>
      </trkpt>
      <trkpt lat="44.76322" lon="-0.10432">
        <ele>78.6</ele>
        <time>2022-10-06T10:04:59Z</time>
      </trkpt>
      <trkpt lat="44.76321" lon="-0.10432">
        <ele>78.6</ele>
        <time>2022-10-06T10:05:00Z</time>
      </trkpt>
      <trkpt lat="44.7632" lon="-0.10431">
        <ele>78.6</ele>
        <time>2022-10-06T10:05:01Z</time>
      </trkpt>
      <trkpt lat="44.76318" lon="-0.10429">
        <ele>78.5</ele>
        <time>2022-10-06T10:05:02Z</time>
      </trkpt>
      <trkpt lat="44.76316" lon="-0.10428">
        <ele>78.4</ele>
        <time>2022-10-06T10:05:04Z</time>
      </trkpt>
      <trkpt lat="44.76315" lon="-0.10427">
        <ele>78.4</ele>
        <time>2022-10-06T10:05:05Z</time>
      </trkpt>
      <trkpt lat="44.76314" lon="-0.10426">
        <ele>78.4</ele>
        <time>2022-10-06T10:05:06Z</time>
      </trkpt>
      <trkpt lat="44.76312" lon="-0.10426">
        <ele>78.3</ele>
        <time>2022-10-06T10:05:07Z</time>
      </trkpt>
      <trkpt lat="44.76312" lon="-0.10425">
        <ele>78.3</ele>
        <time>2022-10-06T10:05:08Z</time>
      </trkpt>
      <trkpt lat="44.76311" lon="-0.10425">
        <ele>78.3</ele>
        <time>2022-10-06T10:05:09Z</time>
      </trkpt>
      <trkpt lat="44.76309" lon="-0.10424">
        <ele>78.2</ele>
        <time>2022-10-06T10:05:10Z</time>
      </trkpt>
      <trkpt lat="44.76307" lon="-0.10423">
        <ele>78.1</ele>
        <time>2022-10-06T10:05:12Z</time>
      </trkpt>
      <trkpt lat="44.76306" lon="-0.10422">
        <ele>78.1</ele>
        <time>2022-10-06T10:05:13Z</time>
      </trkpt>
      <trkpt lat="44.76305" lon="-0.10421">
        <ele>78.1</ele>
        <time>2022-10-06T10:05:14Z</time>
      </trkpt>
      <trkpt lat="44.76304" lon="-0.1042">
        <ele>78</ele>
        <time>2022-10-06T10:05:15Z</time>
      </trkpt>
      <trkpt lat="44.76303" lon="-0.1042">
        <ele>78</ele>
        <time>2022-10-06T10:05:16Z</time>
      </trkpt>
      <trkpt lat="44.76301" lon="-0.10418">
        <ele>78</ele>
        <time>2022-10-06T10:05:17Z</time>
      </trkpt>
      <trkpt lat="44.76301" lon="-0.10418">
        <ele>77.9</ele>
        <time>2022-10-06T10:05:18Z</time>
      </trkpt>
      <trkpt lat="44.763" lon="-0.10417">
        <ele>77.9</ele>
        <time>2022-10-06T10:05:19Z</time>
      </trkpt>
      <trkpt lat="44.76299" lon="-0.10417">
        <ele>77.8</ele>
        <time>2022-10-06T10:05:20Z</time>
      </trkpt>
      <trkpt lat="44.76297" lon="-0.10416">
        <ele>77.8</ele>
        <time>2022-10-06T10:05:21Z</time>
      </trkpt>
      <trkpt lat="44.76296" lon="-0.10415">
        <ele>77.7</ele>
        <time>2022-10-06T10:05:22Z</time>
      </trkpt>
      <trkpt lat="44.76294" lon="-0.10414">
        <ele>77.7</ele>
        <time>2022-10-06T10:05:23Z</time>
      </trkpt>
      <trkpt lat="44.76293" lon="-0.10414">
        <ele>77.6</ele>
        <time>2022-10-06T10:05:24Z</time>
      </trkpt>
      <trkpt lat="44.76292" lon="-0.10413">
        <ele>77.6</ele>
        <time>2022-10-06T10:05:25Z</time>
      </trkpt>
      <trkpt lat="44.76291" lon="-0.10413">
        <ele>77.6</ele>
        <time>2022-10-06T10:05:26Z</time>
      </trkpt>
      <trkpt lat="44.76289" lon="-0.10411">
        <ele>77.5</ele>
        <time>2022-10-06T10:05:27Z</time>
      </trkpt>
      <trkpt lat="44.76287" lon="-0.1041">
        <ele>77.4</ele>
        <time>2022-10-06T10:05:28Z</time>
      </trkpt>
      <trkpt lat="44.76286" lon="-0.10409">
        <ele>77.4</ele>
        <time>2022-10-06T10:05:29Z</time>
      </trkpt>
      <trkpt lat="44.76285" lon="-0.10408">
        <ele>77.3</ele>
        <time>2022-10-06T10:05:31Z</time>
      </trkpt>
      <trkpt lat="44.76284" lon="-0.10407">
        <ele>77.3</ele>
        <time>2022-10-06T10:05:32Z</time>
      </trkpt>
      <trkpt lat="44.76283" lon="-0.10407">
        <ele>77.2</ele>
        <time>2022-10-06T10:05:33Z</time>
      </trkpt>
      <trkpt lat="44.76282" lon="-0.10406">
        <ele>77.2</ele>
        <time>2022-10-06T10:05:34Z</time>
      </trkpt>
      <trkpt lat="44.7628" lon="-0.10404">
        <ele>77.1</ele>
        <time>2022-10-06T10:05:35Z</time>
      </trkpt>
      <trkpt lat="44.76279" lon="-0.10403">
        <ele>77</ele>
        <time>2022-10-06T10:05:36Z</time>
      </trkpt>
      <trkpt lat="44.76278" lon="-0.10402">
        <ele>77</ele>
        <time>2022-10-06T10:05:37Z</time>
      </trkpt>
      <trkpt lat="44.76277" lon="-0.10402">
        <ele>76.9</ele>
        <time>2022-10-06T10:05:38Z</time>
      </trkpt>
      <trkpt lat="44.76276" lon="-0.10401">
        <ele>76.9</ele>
        <time>2022-10-06T10:05:39Z</time>
      </trkpt>
      <trkpt lat="44.76274" lon="-0.104">
        <ele>76.8</ele>
        <time>2022-10-06T10:05:40Z</time>
      </trkpt>
      <trkpt lat="44.76273" lon="-0.10399">
        <ele>76.7</ele>
        <time>2022-10-06T10:05:41Z</time>
      </trkpt>
      <trkpt lat="44.76272" lon="-0.10399">
        <ele>76.7</ele>
        <time>2022-10-06T10:05:42Z</time>
      </trkpt>
      <trkpt lat="44.7627" lon="-0.10398">
        <ele>76.6</ele>
        <time>2022-10-06T10:05:43Z</time>
      </trkpt>
      <trkpt lat="44.76269" lon="-0.10397">
        <ele>76.5</ele>
        <time>2022-10-06T10:05:44Z</time>
      </trkpt>
      <trkpt lat="44.76267" lon="-0.10396">
        <ele>76.5</ele>
        <time>2022-10-06T10:05:45Z</time>
      </trkpt>
      <trkpt lat="44.76266" lon="-0.10396">
        <ele>76.4</ele>
        <time>2022-10-06T10:05:46Z</time>
      </trkpt>
      <trkpt lat="44.76265" lon="-0.10395">
        <ele>76.4</ele>
        <time>2022-10-06T10:05:47Z</time>
      </trkpt>
      <trkpt lat="44.76264" lon="-0.10394">
        <ele>76.3</ele>
        <time>2022-10-06T10:05:48Z</time>
      </trkpt>
      <trkpt lat="44.76262" lon="-0.10393">
        <ele>76.3</ele>
        <time>2022-10-06T10:05:49Z</time>
      </trkpt>
      <trkpt lat="44.76261" lon="-0.10393">
        <ele>76.2</ele>
        <time>2022-10-06T10:05:50Z</time>
      </trkpt>
      <trkpt lat="44.76259" lon="-0.10393">
        <ele>76.1</ele>
        <time>2022-10-06T10:05:51Z</time>
      </trkpt>
      <trkpt lat="44.76257" lon="-0.10393">
        <ele>76.1</ele>
        <time>2022-10-06T10:05:52Z</time>
      </trkpt>
      <trkpt lat="44.76256" lon="-0.10393">
        <ele>76</ele>
        <time>2022-10-06T10:05:53Z</time>
      </trkpt>
      <trkpt lat="44.76255" lon="-0.10392">
        <ele>76</ele>
        <time>2022-10-06T10:05:54Z</time>
      </trkpt>
      <trkpt lat="44.76254" lon="-0.10391">
        <ele>76</ele>
        <time>2022-10-06T10:05:55Z</time>
      </trkpt>
      <trkpt lat="44.76252" lon="-0.1039">
        <ele>75.9</ele>
        <time>2022-10-06T10:05:57Z</time>
      </trkpt>
      <trkpt lat="44.76251" lon="-0.10389">
        <ele>75.8</ele>
        <time>2022-10-06T10:05:58Z</time>
      </trkpt>
      <trkpt lat="44.7625" lon="-0.10388">
        <ele>75.8</ele>
        <time>2022-10-06T10:05:59Z</time>
      </trkpt>
      <trkpt lat="44.76249" lon="-0.10387">
        <ele>75.7</ele>
        <time>2022-10-06T10:06:00Z</time>
      </trkpt>
      <trkpt lat="44.76248" lon="-0.10387">
        <ele>75.7</ele>
        <time>2022-10-06T10:06:01Z</time>
      </trkpt>
      <trkpt lat="44.76246" lon="-0.10386">
        <ele>75.6</ele>
        <time>2022-10-06T10:06:02Z</time>
      </trkpt>
      <trkpt lat="44.76245" lon="-0.10385">
        <ele>75.6</ele>
        <time>2022-10-06T10:06:03Z</time>
      </trkpt>
      <trkpt lat="44.76245" lon="-0.10385">
        <ele>75.5</ele>
        <time>2022-10-06T10:06:04Z</time>
      </trkpt>
      <trkpt lat="44.76243" lon="-0.10384">
        <ele>75.4</ele>
        <time>2022-10-06T10:06:05Z</time>
      </trkpt>
      <trkpt lat="44.76242" lon="-0.10384">
        <ele>75.4</ele>
        <time>2022-10-06T10:06:06Z</time>
      </trkpt>
      <trkpt lat="44.7624" lon="-0.10382">
        <ele>75.3</ele>
        <time>2022-10-06T10:06:08Z</time>
      </trkpt>
      <trkpt lat="44.76239" lon="-0.10381">
        <ele>75.3</ele>
        <time>2022-10-06T10:06:09Z</time>
      </trkpt>
      <trkpt lat="44.76238" lon="-0.10381">
        <ele>75.2</ele>
        <time>2022-10-06T10:06:10Z</time>
      </trkpt>
      <trkpt lat="44.76237" lon="-0.1038">
        <ele>75.1</ele>
        <time>2022-10-06T10:06:11Z</time>
      </trkpt>
      <trkpt lat="44.76236" lon="-0.10379">
        <ele>75.1</ele>
        <time>2022-10-06T10:06:12Z</time>
      </trkpt>
      <trkpt lat="44.76234" lon="-0.10378">
        <ele>75</ele>
        <time>2022-10-06T10:06:13Z</time>
      </trkpt>
      <trkpt lat="44.76233" lon="-0.10377">
        <ele>74.9</ele>
        <time>2022-10-06T10:06:14Z</time>
      </trkpt>
      <trkpt lat="44.76232" lon="-0.10377">
        <ele>74.9</ele>
        <time>2022-10-06T10:06:15Z</time>
      </trkpt>
      <trkpt lat="44.7623" lon="-0.10376">
        <ele>74.8</ele>
        <time>2022-10-06T10:06:16Z</time>
      </trkpt>
      <trkpt lat="44.7623" lon="-0.10376">
        <ele>74.8</ele>
        <time>2022-10-06T10:06:17Z</time>
      </trkpt>
      <trkpt lat="44.76229" lon="-0.10375">
        <ele>74.7</ele>
        <time>2022-10-06T10:06:18Z</time>
      </trkpt>
      <trkpt lat="44.76228" lon="-0.10374">
        <ele>74.7</ele>
        <time>2022-10-06T10:06:19Z</time>
      </trkpt>
      <trkpt lat="44.76227" lon="-0.10374">
        <ele>74.6</ele>
        <time>2022-10-06T10:06:20Z</time>
      </trkpt>
      <trkpt lat="44.76226" lon="-0.10373">
        <ele>74.5</ele>
        <time>2022-10-06T10:06:21Z</time>
      </trkpt>
      <trkpt lat="44.76225" lon="-0.10372">
        <ele>74.5</ele>
        <time>2022-10-06T10:06:22Z</time>
      </trkpt>
      <trkpt lat="44.76223" lon="-0.10371">
        <ele>74.4</ele>
        <time>2022-10-06T10:06:23Z</time>
      </trkpt>
      <trkpt lat="44.76221" lon="-0.1037">
        <ele>74.3</ele>
        <time>2022-10-06T10:06:24Z</time>
      </trkpt>
      <trkpt lat="44.7622" lon="-0.1037">
        <ele>74.2</ele>
        <time>2022-10-06T10:06:25Z</time>
      </trkpt>
      <trkpt lat="44.7622" lon="-0.10369">
        <ele>74.2</ele>
        <time>2022-10-06T10:06:26Z</time>
      </trkpt>
      <trkpt lat="44.76219" lon="-0.10369">
        <ele>74.1</ele>
        <time>2022-10-06T10:06:27Z</time>
      </trkpt>
      <trkpt lat="44.76217" lon="-0.10368">
        <ele>74</ele>
        <time>2022-10-06T10:06:28Z</time>
      </trkpt>
      <trkpt lat="44.76216" lon="-0.10367">
        <ele>74</ele>
        <time>2022-10-06T10:06:29Z</time>
      </trkpt>
      <trkpt lat="44.76215" lon="-0.10367">
        <ele>73.9</ele>
        <time>2022-10-06T10:06:30Z</time>
      </trkpt>
      <trkpt lat="44.76214" lon="-0.10367">
        <ele>73.8</ele>
        <time>2022-10-06T10:06:31Z</time>
      </trkpt>
      <trkpt lat="44.76213" lon="-0.10366">
        <ele>73.8</ele>
        <time>2022-10-06T10:06:32Z</time>
      </trkpt>
      <trkpt lat="44.76211" lon="-0.10365">
        <ele>73.7</ele>
        <time>2022-10-06T10:06:33Z</time>
      </trkpt>
      <trkpt lat="44.7621" lon="-0.10365">
        <ele>73.6</ele>
        <time>2022-10-06T10:06:34Z</time>
      </trkpt>
      <trkpt lat="44.76209" lon="-0.10365">
        <ele>73.6</ele>
        <time>2022-10-06T10:06:35Z</time>
      </trkpt>
      <trkpt lat="44.76208" lon="-0.10364">
        <ele>73.5</ele>
        <time>2022-10-06T10:06:36Z</time>
      </trkpt>
      <trkpt lat="44.76207" lon="-0.10364">
        <ele>73.5</ele>
        <time>2022-10-06T10:06:37Z</time>
      </trkpt>
      <trkpt lat="44.76205" lon="-0.10363">
        <ele>73.4</ele>
        <time>2022-10-06T10:06:38Z</time>
      </trkpt>
      <trkpt lat="44.76205" lon="-0.10362">
        <ele>73.3</ele>
        <time>2022-10-06T10:06:39Z</time>
      </trkpt>
      <trkpt lat="44.76204" lon="-0.10362">
        <ele>73.3</ele>
        <time>2022-10-06T10:06:40Z</time>
      </trkpt>
      <trkpt lat="44.76203" lon="-0.10361">
        <ele>73.2</ele>
        <time>2022-10-06T10:06:41Z</time>
      </trkpt>
      <trkpt lat="44.76202" lon="-0.1036">
        <ele>73.2</ele>
        <time>2022-10-06T10:06:42Z</time>
      </trkpt>
      <trkpt lat="44.762" lon="-0.10358">
        <ele>73</ele>
        <time>2022-10-06T10:06:43Z</time>
      </trkpt>
      <trkpt lat="44.76199" lon="-0.10357">
        <ele>73</ele>
        <time>2022-10-06T10:06:44Z</time>
      </trkpt>
      <trkpt lat="44.76198" lon="-0.10356">
        <ele>72.9</ele>
        <time>2022-10-06T10:06:45Z</time>
      </trkpt>
      <trkpt lat="44.76197" lon="-0.10354">
        <ele>72.9</ele>
        <time>2022-10-06T10:06:46Z</time>
      </trkpt>
      <trkpt lat="44.76196" lon="-0.10353">
        <ele>72.8</ele>
        <time>2022-10-06T10:06:47Z</time>
      </trkpt>
      <trkpt lat="44.76195" lon="-0.10352">
        <ele>72.8</ele>
        <time>2022-10-06T10:06:48Z</time>
      </trkpt>
      <trkpt lat="44.76193" lon="-0.10351">
        <ele>72.7</ele>
        <time>2022-10-06T10:06:49Z</time>
      </trkpt>
      <trkpt lat="44.76192" lon="-0.1035">
        <ele>72.6</ele>
        <time>2022-10-06T10:06:50Z</time>
      </trkpt>
      <trkpt lat="44.76191" lon="-0.1035">
        <ele>72.6</ele>
        <time>2022-10-06T10:06:51Z</time>
      </trkpt>
      <trkpt lat="44.7619" lon="-0.10349">
        <ele>72.5</ele>
        <time>2022-10-06T10:06:52Z</time>
      </trkpt>
      <trkpt lat="44.76189" lon="-0.10348">
        <ele>72.5</ele>
        <time>2022-10-06T10:06:53Z</time>
      </trkpt>
      <trkpt lat="44.76188" lon="-0.10347">
        <ele>72.4</ele>
        <time>2022-10-06T10:06:54Z</time>
      </trkpt>
      <trkpt lat="44.76188" lon="-0.10345">
        <ele>72.4</ele>
        <time>2022-10-06T10:06:55Z</time>
      </trkpt>
      <trkpt lat="44.76187" lon="-0.10344">
        <ele>72.3</ele>
        <time>2022-10-06T10:06:56Z</time>
      </trkpt>
      <trkpt lat="44.76186" lon="-0.1034">
        <ele>72.2</ele>
        <time>2022-10-06T10:06:57Z</time>
      </trkpt>
      <trkpt lat="44.76186" lon="-0.10338">
        <ele>72.1</ele>
        <time>2022-10-06T10:06:58Z</time>
      </trkpt>
      <trkpt lat="44.76187" lon="-0.10336">
        <ele>72.1</ele>
        <time>2022-10-06T10:06:59Z</time>
      </trkpt>
      <trkpt lat="44.76187" lon="-0.10335">
        <ele>72</ele>
        <time>2022-10-06T10:07:00Z</time>
      </trkpt>
      <trkpt lat="44.76187" lon="-0.10333">
        <ele>72</ele>
        <time>2022-10-06T10:07:01Z</time>
      </trkpt>
      <trkpt lat="44.76188" lon="-0.10333">
        <ele>71.9</ele>
        <time>2022-10-06T10:07:02Z</time>
      </trkpt>
      <trkpt lat="44.76187" lon="-0.10332">
        <ele>71.9</ele>
        <time>2022-10-06T10:07:03Z</time>
      </trkpt>
      <trkpt lat="44.76187" lon="-0.10332">
        <ele>71.9</ele>
        <time>2022-10-06T10:07:04Z</time>
      </trkpt>
      <trkpt lat="44.76188" lon="-0.10331">
        <ele>71.9</ele>
        <time>2022-10-06T10:07:05Z</time>
      </trkpt>
      <trkpt lat="44.76188" lon="-0.10331">
        <ele>71.9</ele>
        <time>2022-10-06T10:07:06Z</time>
      </trkpt>
      <trkpt lat="44.76189" lon="-0.1033">
        <ele>71.8</ele>
        <time>2022-10-06T10:07:07Z</time>
      </trkpt>
      <trkpt lat="44.7619" lon="-0.10329">
        <ele>71.7</ele>
        <time>2022-10-06T10:07:08Z</time>
      </trkpt>
      <trkpt lat="44.76191" lon="-0.10328">
        <ele>71.7</ele>
        <time>2022-10-06T10:07:09Z</time>
      </trkpt>
      <trkpt lat="44.76191" lon="-0.10327">
        <ele>71.8</ele>
        <time>2022-10-06T10:07:10Z</time>
      </trkpt>
      <trkpt lat="44.76192" lon="-0.10326">
        <ele>71.8</ele>
        <time>2022-10-06T10:07:11Z</time>
      </trkpt>
      <trkpt lat="44.76192" lon="-0.10325">
        <ele>71.8</ele>
        <time>2022-10-06T10:07:12Z</time>
      </trkpt>
      <trkpt lat="44.76192" lon="-0.10324">
        <ele>71.8</ele>
        <time>2022-10-06T10:07:13Z</time>
      </trkpt>
      <trkpt lat="44.76191" lon="-0.10324">
        <ele>71.8</ele>
        <time>2022-10-06T10:07:14Z</time>
      </trkpt>
      <trkpt lat="44.76191" lon="-0.10324">
        <ele>71.8</ele>
        <time>2022-10-06T10:07:15Z</time>
      </trkpt>
      <trkpt lat="44.76191" lon="-0.10324">
        <ele>71.8</ele>
        <time>2022-10-06T10:07:16Z</time>
      </trkpt>
      <trkpt lat="44.76191" lon="-0.10324">
        <ele>71.8</ele>
        <time>2022-10-06T10:07:17Z</time>
      </trkpt>
      <trkpt lat="44.7619" lon="-0.10325">
        <ele>71.8</ele>
        <time>2022-10-06T10:07:18Z</time>
      </trkpt>
      <trkpt lat="44.7619" lon="-0.10325">
        <ele>71.8</ele>
        <time>2022-10-06T10:07:19Z</time>
      </trkpt>
      <trkpt lat="44.7619" lon="-0.10325">
        <ele>71.8</ele>
        <time>2022-10-06T10:07:20Z</time>
      </trkpt>
      <trkpt lat="44.7619" lon="-0.10325">
        <ele>71.8</ele>
        <time>2022-10-06T10:07:21Z</time>
      </trkpt>
      <trkpt lat="44.7619" lon="-0.10325">
        <ele>71.8</ele>
        <time>2022-10-06T10:07:22Z</time>
      </trkpt>
      <trkpt lat="44.7619" lon="-0.10326">
        <ele>71.9</ele>
        <time>2022-10-06T10:07:23Z</time>
      </trkpt>
      <trkpt lat="44.7619" lon="-0.10326">
        <ele>71.9</ele>
        <time>2022-10-06T10:07:24Z</time>
      </trkpt>
      <trkpt lat="44.7619" lon="-0.10326">
        <ele>71.9</ele>
        <time>2022-10-06T10:07:25Z</time>
      </trkpt>
      <trkpt lat="44.7619" lon="-0.10327">
        <ele>71.9</ele>
        <time>2022-10-06T10:07:26Z</time>
      </trkpt>
      <trkpt lat="44.76189" lon="-0.10327">
        <ele>71.9</ele>
        <time>2022-10-06T10:07:27Z</time>
      </trkpt>
      <trkpt lat="44.76189" lon="-0.10327">
        <ele>71.9</ele>
        <time>2022-10-06T10:07:28Z</time>
      </trkpt>
      <trkpt lat="44.76189" lon="-0.10327">
        <ele>71.9</ele>
        <time>2022-10-06T10:07:29Z</time>
      </trkpt>
      <trkpt lat="44.76189" lon="-0.10327">
        <ele>71.9</ele>
        <time>2022-10-06T10:07:30Z</time>
      </trkpt>
      <trkpt lat="44.76189" lon="-0.10327">
        <ele>71.9</ele>
        <time>2022-10-06T10:07:31Z</time>
      </trkpt>
      <trkpt lat="44.76189" lon="-0.10327">
        <ele>71.9</ele>
        <time>2022-10-06T10:07:32Z</time>
      </trkpt>
      <trkpt lat="44.76189" lon="-0.10327">
        <ele>71.9</ele>
        <time>2022-10-06T10:07:33Z</time>
      </trkpt>
      <trkpt lat="44.76189" lon="-0.10327">
        <ele>71.9</ele>
        <time>2022-10-06T10:07:34Z</time>
      </trkpt>
      <trkpt lat="44.76189" lon="-0.10327">
        <ele>71.9</ele>
        <time>2022-10-06T10:07:35Z</time>
      </trkpt>
      <trkpt lat="44.76189" lon="-0.10327">
        <ele>71.9</ele>
        <time>2022-10-06T10:07:37Z</time>
      </trkpt>
      <trkpt lat="44.76189" lon="-0.10327">
        <ele>71.9</ele>
        <time>2022-10-06T10:07:39Z</time>
      </trkpt>
      <trkpt lat="44.76189" lon="-0.10327">
        <ele>71.9</ele>
        <time>2022-10-06T10:07:40Z</time>
      </trkpt>
      <trkpt lat="44.76189" lon="-0.10327">
        <ele>71.9</ele>
        <time>2022-10-06T10:07:41Z</time>
      </trkpt>
      <trkpt lat="44.76189" lon="-0.10327">
        <ele>71.9</ele>
        <time>2022-10-06T10:07:42Z</time>
      </trkpt>
      <trkpt lat="44.76189" lon="-0.10327">
        <ele>71.9</ele>
        <time>2022-10-06T10:07:43Z</time>
      </trkpt>
      <trkpt lat="44.76189" lon="-0.10327">
        <ele>71.9</ele>
        <time>2022-10-06T10:07:44Z</time>
      </trkpt>
      <trkpt lat="44.76189" lon="-0.10327">
        <ele>71.9</ele>
        <time>2022-10-06T10:07:45Z</time>
      </trkpt>
      <trkpt lat="44.76189" lon="-0.10327">
        <ele>71.9</ele>
        <time>2022-10-06T10:07:46Z</time>
      </trkpt>
      <trkpt lat="44.76189" lon="-0.10328">
        <ele>71.9</ele>
        <time>2022-10-06T10:07:47Z</time>
      </trkpt>
      <trkpt lat="44.76189" lon="-0.10328">
        <ele>71.9</ele>
        <time>2022-10-06T10:07:48Z</time>
      </trkpt>
      <trkpt lat="44.76189" lon="-0.10328">
        <ele>71.9</ele>
        <time>2022-10-06T10:07:49Z</time>
      </trkpt>
      <trkpt lat="44.76189" lon="-0.10328">
        <ele>71.9</ele>
        <time>2022-10-06T10:07:50Z</time>
      </trkpt>
      <trkpt lat="44.76189" lon="-0.10327">
        <ele>71.9</ele>
        <time>2022-10-06T10:07:51Z</time>
      </trkpt>
      <trkpt lat="44.76189" lon="-0.10328">
        <ele>71.9</ele>
        <time>2022-10-06T10:07:52Z</time>
      </trkpt>
      <trkpt lat="44.76189" lon="-0.10328">
        <ele>71.9</ele>
        <time>2022-10-06T10:07:53Z</time>
      </trkpt>
      <trkpt lat="44.76188" lon="-0.10328">
        <ele>71.9</ele>
        <time>2022-10-06T10:07:54Z</time>
      </trkpt>
      <trkpt lat="44.76188" lon="-0.10328">
        <ele>71.9</ele>
        <time>2022-10-06T10:07:55Z</time>
      </trkpt>
      <trkpt lat="44.76188" lon="-0.10329">
        <ele>71.9</ele>
        <time>2022-10-06T10:07:56Z</time>
      </trkpt>
      <trkpt lat="44.76188" lon="-0.10329">
        <ele>71.9</ele>
        <time>2022-10-06T10:07:57Z</time>
      </trkpt>
      <trkpt lat="44.76188" lon="-0.10329">
        <ele>71.9</ele>
        <time>2022-10-06T10:07:58Z</time>
      </trkpt>
      <trkpt lat="44.76188" lon="-0.1033">
        <ele>71.9</ele>
        <time>2022-10-06T10:07:59Z</time>
      </trkpt>
      <trkpt lat="44.76189" lon="-0.1033">
        <ele>71.9</ele>
        <time>2022-10-06T10:08:00Z</time>
      </trkpt>
      <trkpt lat="44.76189" lon="-0.1033">
        <ele>72</ele>
        <time>2022-10-06T10:08:01Z</time>
      </trkpt>
      <trkpt lat="44.7619" lon="-0.1033">
        <ele>72</ele>
        <time>2022-10-06T10:08:02Z</time>
      </trkpt>
      <trkpt lat="44.7619" lon="-0.1033">
        <ele>72</ele>
        <time>2022-10-06T10:08:03Z</time>
      </trkpt>
      <trkpt lat="44.7619" lon="-0.1033">
        <ele>72</ele>
        <time>2022-10-06T10:08:04Z</time>
      </trkpt>
      <trkpt lat="44.7619" lon="-0.10331">
        <ele>72</ele>
        <time>2022-10-06T10:08:05Z</time>
      </trkpt>
      <trkpt lat="44.7619" lon="-0.10331">
        <ele>72</ele>
        <time>2022-10-06T10:08:06Z</time>
      </trkpt>
      <trkpt lat="44.7619" lon="-0.10331">
        <ele>72</ele>
        <time>2022-10-06T10:08:07Z</time>
      </trkpt>
      <trkpt lat="44.7619" lon="-0.10332">
        <ele>72</ele>
        <time>2022-10-06T10:08:09Z</time>
      </trkpt>
      <trkpt lat="44.76189" lon="-0.10332">
        <ele>72</ele>
        <time>2022-10-06T10:08:10Z</time>
      </trkpt>
      <trkpt lat="44.76189" lon="-0.10332">
        <ele>72</ele>
        <time>2022-10-06T10:08:11Z</time>
      </trkpt>
      <trkpt lat="44.76188" lon="-0.10332">
        <ele>72</ele>
        <time>2022-10-06T10:08:12Z</time>
      </trkpt>
      <trkpt lat="44.76188" lon="-0.10332">
        <ele>72</ele>
        <time>2022-10-06T10:08:13Z</time>
      </trkpt>
      <trkpt lat="44.76188" lon="-0.10332">
        <ele>72</ele>
        <time>2022-10-06T10:08:14Z</time>
      </trkpt>
      <trkpt lat="44.76188" lon="-0.10332">
        <ele>72</ele>
        <time>2022-10-06T10:08:15Z</time>
      </trkpt>
      <trkpt lat="44.76188" lon="-0.10332">
        <ele>72</ele>
        <time>2022-10-06T10:08:16Z</time>
      </trkpt>
      <trkpt lat="44.76188" lon="-0.10332">
        <ele>72</ele>
        <time>2022-10-06T10:08:17Z</time>
      </trkpt>
      <trkpt lat="44.76188" lon="-0.10332">
        <ele>72</ele>
        <time>2022-10-06T10:08:18Z</time>
      </trkpt>
      <trkpt lat="44.76188" lon="-0.10332">
        <ele>72</ele>
        <time>2022-10-06T10:08:19Z</time>
      </trkpt>
      <trkpt lat="44.76188" lon="-0.10332">
        <ele>72</ele>
        <time>2022-10-06T10:08:20Z</time>
      </trkpt>
      <trkpt lat="44.76189" lon="-0.10332">
        <ele>72</ele>
        <time>2022-10-06T10:08:21Z</time>
      </trkpt>
      <trkpt lat="44.76189" lon="-0.10332">
        <ele>72</ele>
        <time>2022-10-06T10:08:22Z</time>
      </trkpt>
      <trkpt lat="44.76189" lon="-0.10332">
        <ele>72</ele>
        <time>2022-10-06T10:08:23Z</time>
      </trkpt>
      <trkpt lat="44.76188" lon="-0.10333">
        <ele>72</ele>
        <time>2022-10-06T10:08:24Z</time>
      </trkpt>
      <trkpt lat="44.76188" lon="-0.10333">
        <ele>72</ele>
        <time>2022-10-06T10:08:25Z</time>
      </trkpt>
      <trkpt lat="44.76188" lon="-0.10335">
        <ele>72.1</ele>
        <time>2022-10-06T10:08:26Z</time>
      </trkpt>
      <trkpt lat="44.76187" lon="-0.10337">
        <ele>72.1</ele>
        <time>2022-10-06T10:08:27Z</time>
      </trkpt>
      <trkpt lat="44.76187" lon="-0.10338">
        <ele>72.1</ele>
        <time>2022-10-06T10:08:28Z</time>
      </trkpt>
      <trkpt lat="44.76187" lon="-0.1034">
        <ele>72.1</ele>
        <time>2022-10-06T10:08:29Z</time>
      </trkpt>
      <trkpt lat="44.76187" lon="-0.10342">
        <ele>72.2</ele>
        <time>2022-10-06T10:08:30Z</time>
      </trkpt>
      <trkpt lat="44.76187" lon="-0.10344">
        <ele>72.2</ele>
        <time>2022-10-06T10:08:31Z</time>
      </trkpt>
      <trkpt lat="44.76188" lon="-0.10346">
        <ele>72.2</ele>
        <time>2022-10-06T10:08:32Z</time>
      </trkpt>
      <trkpt lat="44.76188" lon="-0.10347">
        <ele>72.2</ele>
        <time>2022-10-06T10:08:33Z</time>
      </trkpt>
      <trkpt lat="44.76188" lon="-0.10347">
        <ele>72.2</ele>
        <time>2022-10-06T10:08:34Z</time>
      </trkpt>
      <trkpt lat="44.76188" lon="-0.10348">
        <ele>72.2</ele>
        <time>2022-10-06T10:08:35Z</time>
      </trkpt>
      <trkpt lat="44.76188" lon="-0.10349">
        <ele>72.2</ele>
        <time>2022-10-06T10:08:36Z</time>
      </trkpt>
      <trkpt lat="44.76186" lon="-0.1035">
        <ele>72.3</ele>
        <time>2022-10-06T10:08:38Z</time>
      </trkpt>
      <trkpt lat="44.76185" lon="-0.10349">
        <ele>72.3</ele>
        <time>2022-10-06T10:08:39Z</time>
      </trkpt>
      <trkpt lat="44.76185" lon="-0.10349">
        <ele>72.3</ele>
        <time>2022-10-06T10:08:40Z</time>
      </trkpt>
      <trkpt lat="44.76184" lon="-0.10348">
        <ele>72.3</ele>
        <time>2022-10-06T10:08:41Z</time>
      </trkpt>
      <trkpt lat="44.76184" lon="-0.10347">
        <ele>72.3</ele>
        <time>2022-10-06T10:08:42Z</time>
      </trkpt>
      <trkpt lat="44.76184" lon="-0.10347">
        <ele>72.3</ele>
        <time>2022-10-06T10:08:43Z</time>
      </trkpt>
      <trkpt lat="44.76184" lon="-0.10347">
        <ele>72.3</ele>
        <time>2022-10-06T10:08:44Z</time>
      </trkpt>
      <trkpt lat="44.76184" lon="-0.10347">
        <ele>72.3</ele>
        <time>2022-10-06T10:08:45Z</time>
      </trkpt>
      <trkpt lat="44.76184" lon="-0.10347">
        <ele>72.3</ele>
        <time>2022-10-06T10:08:46Z</time>
      </trkpt>
      <trkpt lat="44.76184" lon="-0.10347">
        <ele>72.3</ele>
        <time>2022-10-06T10:08:47Z</time>
      </trkpt>
      <trkpt lat="44.76184" lon="-0.10347">
        <ele>72.3</ele>
        <time>2022-10-06T10:08:48Z</time>
      </trkpt>
      <trkpt lat="44.76184" lon="-0.10347">
        <ele>72.3</ele>
        <time>2022-10-06T10:08:49Z</time>
      </trkpt>
      <trkpt lat="44.76184" lon="-0.10347">
        <ele>72.3</ele>
        <time>2022-10-06T10:08:50Z</time>
      </trkpt>
      <trkpt lat="44.76184" lon="-0.10347">
        <ele>72.3</ele>
        <time>2022-10-06T10:08:51Z</time>
      </trkpt>
      <trkpt lat="44.76184" lon="-0.10347">
        <ele>72.3</ele>
        <time>2022-10-06T10:08:52Z</time>
      </trkpt>
      <trkpt lat="44.76184" lon="-0.10346">
        <ele>72.3</ele>
        <time>2022-10-06T10:08:53Z</time>
      </trkpt>
      <trkpt lat="44.76183" lon="-0.10346">
        <ele>72.3</ele>
        <time>2022-10-06T10:08:54Z</time>
      </trkpt>
      <trkpt lat="44.76183" lon="-0.10345">
        <ele>72.4</ele>
        <time>2022-10-06T10:08:55Z</time>
      </trkpt>
      <trkpt lat="44.76182" lon="-0.10345">
        <ele>72.4</ele>
        <time>2022-10-06T10:08:56Z</time>
      </trkpt>
      <trkpt lat="44.76181" lon="-0.10345">
        <ele>72.4</ele>
        <time>2022-10-06T10:08:57Z</time>
      </trkpt>
      <trkpt lat="44.76182" lon="-0.10345">
        <ele>72.4</ele>
        <time>2022-10-06T10:08:58Z</time>
      </trkpt>
      <trkpt lat="44.76182" lon="-0.10345">
        <ele>72.4</ele>
        <time>2022-10-06T10:08:59Z</time>
      </trkpt>
      <trkpt lat="44.76182" lon="-0.10345">
        <ele>72.4</ele>
        <time>2022-10-06T10:09:00Z</time>
      </trkpt>
      <trkpt lat="44.76182" lon="-0.10345">
        <ele>72.4</ele>
        <time>2022-10-06T10:09:01Z</time>
      </trkpt>
      <trkpt lat="44.76183" lon="-0.10345">
        <ele>72.4</ele>
        <time>2022-10-06T10:09:02Z</time>
      </trkpt>
      <trkpt lat="44.76183" lon="-0.10346">
        <ele>72.4</ele>
        <time>2022-10-06T10:09:03Z</time>
      </trkpt>
      <trkpt lat="44.76183" lon="-0.10346">
        <ele>72.4</ele>
        <time>2022-10-06T10:09:05Z</time>
      </trkpt>
      <trkpt lat="44.76183" lon="-0.10346">
        <ele>72.4</ele>
        <time>2022-10-06T10:09:06Z</time>
      </trkpt>
      <trkpt lat="44.76184" lon="-0.10346">
        <ele>72.4</ele>
        <time>2022-10-06T10:09:07Z</time>
      </trkpt>
      <trkpt lat="44.76184" lon="-0.10346">
        <ele>72.4</ele>
        <time>2022-10-06T10:09:08Z</time>
      </trkpt>
      <trkpt lat="44.76184" lon="-0.10346">
        <ele>72.4</ele>
        <time>2022-10-06T10:09:09Z</time>
      </trkpt>
      <trkpt lat="44.76184" lon="-0.10346">
        <ele>72.4</ele>
        <time>2022-10-06T10:09:10Z</time>
      </trkpt>
      <trkpt lat="44.76185" lon="-0.10347">
        <ele>72.4</ele>
        <time>2022-10-06T10:09:11Z</time>
      </trkpt>
      <trkpt lat="44.76185" lon="-0.10347">
        <ele>72.4</ele>
        <time>2022-10-06T10:09:12Z</time>
      </trkpt>
      <trkpt lat="44.76185" lon="-0.10347">
        <ele>72.4</ele>
        <time>2022-10-06T10:09:13Z</time>
      </trkpt>
      <trkpt lat="44.76185" lon="-0.10347">
        <ele>72.4</ele>
        <time>2022-10-06T10:09:14Z</time>
      </trkpt>
      <trkpt lat="44.76185" lon="-0.10347">
        <ele>72.4</ele>
        <time>2022-10-06T10:09:15Z</time>
      </trkpt>
      <trkpt lat="44.76187" lon="-0.10348">
        <ele>72.5</ele>
        <time>2022-10-06T10:09:16Z</time>
      </trkpt>
      <trkpt lat="44.76188" lon="-0.10348">
        <ele>72.5</ele>
        <time>2022-10-06T10:09:17Z</time>
      </trkpt>
      <trkpt lat="44.76188" lon="-0.10349">
        <ele>72.5</ele>
        <time>2022-10-06T10:09:18Z</time>
      </trkpt>
      <trkpt lat="44.76189" lon="-0.10349">
        <ele>72.5</ele>
        <time>2022-10-06T10:09:19Z</time>
      </trkpt>
      <trkpt lat="44.7619" lon="-0.1035">
        <ele>72.5</ele>
        <time>2022-10-06T10:09:20Z</time>
      </trkpt>
      <trkpt lat="44.76191" lon="-0.1035">
        <ele>72.6</ele>
        <time>2022-10-06T10:09:21Z</time>
      </trkpt>
      <trkpt lat="44.76193" lon="-0.1035">
        <ele>72.6</ele>
        <time>2022-10-06T10:09:22Z</time>
      </trkpt>
      <trkpt lat="44.76194" lon="-0.10351">
        <ele>72.6</ele>
        <time>2022-10-06T10:09:23Z</time>
      </trkpt>
      <trkpt lat="44.76196" lon="-0.10353">
        <ele>72.6</ele>
        <time>2022-10-06T10:09:24Z</time>
      </trkpt>
      <trkpt lat="44.76197" lon="-0.10353">
        <ele>72.7</ele>
        <time>2022-10-06T10:09:25Z</time>
      </trkpt>
      <trkpt lat="44.76197" lon="-0.10354">
        <ele>72.7</ele>
        <time>2022-10-06T10:09:26Z</time>
      </trkpt>
      <trkpt lat="44.762" lon="-0.10355">
        <ele>72.7</ele>
        <time>2022-10-06T10:09:27Z</time>
      </trkpt>
      <trkpt lat="44.762" lon="-0.10355">
        <ele>72.7</ele>
        <time>2022-10-06T10:09:28Z</time>
      </trkpt>
      <trkpt lat="44.76201" lon="-0.10355">
        <ele>72.7</ele>
        <time>2022-10-06T10:09:29Z</time>
      </trkpt>
      <trkpt lat="44.76203" lon="-0.10356">
        <ele>72.8</ele>
        <time>2022-10-06T10:09:30Z</time>
      </trkpt>
      <trkpt lat="44.76204" lon="-0.10356">
        <ele>72.8</ele>
        <time>2022-10-06T10:09:31Z</time>
      </trkpt>
      <trkpt lat="44.76205" lon="-0.10357">
        <ele>72.8</ele>
        <time>2022-10-06T10:09:32Z</time>
      </trkpt>
      <trkpt lat="44.76205" lon="-0.10358">
        <ele>72.8</ele>
        <time>2022-10-06T10:09:33Z</time>
      </trkpt>
      <trkpt lat="44.76206" lon="-0.10358">
        <ele>72.8</ele>
        <time>2022-10-06T10:09:34Z</time>
      </trkpt>
      <trkpt lat="44.76207" lon="-0.10358">
        <ele>72.9</ele>
        <time>2022-10-06T10:09:35Z</time>
      </trkpt>
      <trkpt lat="44.76209" lon="-0.10359">
        <ele>72.9</ele>
        <time>2022-10-06T10:09:36Z</time>
      </trkpt>
      <trkpt lat="44.7621" lon="-0.1036">
        <ele>72.9</ele>
        <time>2022-10-06T10:09:37Z</time>
      </trkpt>
      <trkpt lat="44.76212" lon="-0.10361">
        <ele>72.9</ele>
        <time>2022-10-06T10:09:38Z</time>
      </trkpt>
      <trkpt lat="44.76213" lon="-0.10361">
        <ele>73</ele>
        <time>2022-10-06T10:09:39Z</time>
      </trkpt>
      <trkpt lat="44.76214" lon="-0.10362">
        <ele>73</ele>
        <time>2022-10-06T10:09:40Z</time>
      </trkpt>
      <trkpt lat="44.76216" lon="-0.10363">
        <ele>73</ele>
        <time>2022-10-06T10:09:41Z</time>
      </trkpt>
      <trkpt lat="44.76217" lon="-0.10364">
        <ele>73</ele>
        <time>2022-10-06T10:09:42Z</time>
      </trkpt>
      <trkpt lat="44.76218" lon="-0.10364">
        <ele>73.1</ele>
        <time>2022-10-06T10:09:43Z</time>
      </trkpt>
      <trkpt lat="44.76219" lon="-0.10364">
        <ele>73.1</ele>
        <time>2022-10-06T10:09:44Z</time>
      </trkpt>
      <trkpt lat="44.76219" lon="-0.10364">
        <ele>73.1</ele>
        <time>2022-10-06T10:09:45Z</time>
      </trkpt>
      <trkpt lat="44.7622" lon="-0.10365">
        <ele>73.1</ele>
        <time>2022-10-06T10:09:46Z</time>
      </trkpt>
      <trkpt lat="44.76222" lon="-0.10366">
        <ele>73.1</ele>
        <time>2022-10-06T10:09:47Z</time>
      </trkpt>
      <trkpt lat="44.76223" lon="-0.10366">
        <ele>73.1</ele>
        <time>2022-10-06T10:09:48Z</time>
      </trkpt>
      <trkpt lat="44.76224" lon="-0.10366">
        <ele>73.2</ele>
        <time>2022-10-06T10:09:49Z</time>
      </trkpt>
      <trkpt lat="44.76225" lon="-0.10367">
        <ele>73.2</ele>
        <time>2022-10-06T10:09:50Z</time>
      </trkpt>
      <trkpt lat="44.76226" lon="-0.10367">
        <ele>73.2</ele>
        <time>2022-10-06T10:09:51Z</time>
      </trkpt>
      <trkpt lat="44.76228" lon="-0.10369">
        <ele>73.3</ele>
        <time>2022-10-06T10:09:53Z</time>
      </trkpt>
      <trkpt lat="44.76229" lon="-0.1037">
        <ele>73.3</ele>
        <time>2022-10-06T10:09:54Z</time>
      </trkpt>
      <trkpt lat="44.7623" lon="-0.1037">
        <ele>73.3</ele>
        <time>2022-10-06T10:09:55Z</time>
      </trkpt>
      <trkpt lat="44.76231" lon="-0.10371">
        <ele>73.3</ele>
        <time>2022-10-06T10:09:56Z</time>
      </trkpt>
      <trkpt lat="44.76232" lon="-0.10372">
        <ele>73.3</ele>
        <time>2022-10-06T10:09:57Z</time>
      </trkpt>
      <trkpt lat="44.76233" lon="-0.10372">
        <ele>73.4</ele>
        <time>2022-10-06T10:09:58Z</time>
      </trkpt>
      <trkpt lat="44.76234" lon="-0.10372">
        <ele>73.4</ele>
        <time>2022-10-06T10:09:59Z</time>
      </trkpt>
      <trkpt lat="44.76235" lon="-0.10373">
        <ele>73.4</ele>
        <time>2022-10-06T10:10:00Z</time>
      </trkpt>
      <trkpt lat="44.76236" lon="-0.10374">
        <ele>73.4</ele>
        <time>2022-10-06T10:10:01Z</time>
      </trkpt>
      <trkpt lat="44.76238" lon="-0.10375">
        <ele>73.5</ele>
        <time>2022-10-06T10:10:02Z</time>
      </trkpt>
      <trkpt lat="44.76239" lon="-0.10376">
        <ele>73.5</ele>
        <time>2022-10-06T10:10:03Z</time>
      </trkpt>
      <trkpt lat="44.7624" lon="-0.10376">
        <ele>73.5</ele>
        <time>2022-10-06T10:10:04Z</time>
      </trkpt>
      <trkpt lat="44.76241" lon="-0.10377">
        <ele>73.5</ele>
        <time>2022-10-06T10:10:05Z</time>
      </trkpt>
      <trkpt lat="44.76241" lon="-0.10377">
        <ele>73.5</ele>
        <time>2022-10-06T10:10:06Z</time>
      </trkpt>
      <trkpt lat="44.76243" lon="-0.10378">
        <ele>73.6</ele>
        <time>2022-10-06T10:10:07Z</time>
      </trkpt>
      <trkpt lat="44.76244" lon="-0.10379">
        <ele>73.6</ele>
        <time>2022-10-06T10:10:08Z</time>
      </trkpt>
      <trkpt lat="44.76246" lon="-0.1038">
        <ele>73.6</ele>
        <time>2022-10-06T10:10:09Z</time>
      </trkpt>
      <trkpt lat="44.76246" lon="-0.10381">
        <ele>73.6</ele>
        <time>2022-10-06T10:10:10Z</time>
      </trkpt>
      <trkpt lat="44.76247" lon="-0.10381">
        <ele>73.7</ele>
        <time>2022-10-06T10:10:11Z</time>
      </trkpt>
      <trkpt lat="44.76249" lon="-0.10382">
        <ele>73.7</ele>
        <time>2022-10-06T10:10:12Z</time>
      </trkpt>
      <trkpt lat="44.7625" lon="-0.10382">
        <ele>73.7</ele>
        <time>2022-10-06T10:10:13Z</time>
      </trkpt>
      <trkpt lat="44.7625" lon="-0.10383">
        <ele>73.7</ele>
        <time>2022-10-06T10:10:14Z</time>
      </trkpt>
      <trkpt lat="44.76252" lon="-0.10384">
        <ele>73.8</ele>
        <time>2022-10-06T10:10:15Z</time>
      </trkpt>
      <trkpt lat="44.76253" lon="-0.10384">
        <ele>73.8</ele>
        <time>2022-10-06T10:10:16Z</time>
      </trkpt>
      <trkpt lat="44.76255" lon="-0.10385">
        <ele>73.8</ele>
        <time>2022-10-06T10:10:17Z</time>
      </trkpt>
      <trkpt lat="44.76256" lon="-0.10386">
        <ele>73.9</ele>
        <time>2022-10-06T10:10:18Z</time>
      </trkpt>
      <trkpt lat="44.76256" lon="-0.10386">
        <ele>73.9</ele>
        <time>2022-10-06T10:10:19Z</time>
      </trkpt>
      <trkpt lat="44.76257" lon="-0.10385">
        <ele>73.9</ele>
        <time>2022-10-06T10:10:20Z</time>
      </trkpt>
      <trkpt lat="44.76256" lon="-0.10385">
        <ele>73.9</ele>
        <time>2022-10-06T10:10:21Z</time>
      </trkpt>
      <trkpt lat="44.76255" lon="-0.10384">
        <ele>73.9</ele>
        <time>2022-10-06T10:10:22Z</time>
      </trkpt>
      <trkpt lat="44.76255" lon="-0.10384">
        <ele>73.9</ele>
        <time>2022-10-06T10:10:23Z</time>
      </trkpt>
      <trkpt lat="44.76254" lon="-0.10383">
        <ele>73.9</ele>
        <time>2022-10-06T10:10:24Z</time>
      </trkpt>
      <trkpt lat="44.76254" lon="-0.10383">
        <ele>73.9</ele>
        <time>2022-10-06T10:10:25Z</time>
      </trkpt>
      <trkpt lat="44.76254" lon="-0.10382">
        <ele>74</ele>
        <time>2022-10-06T10:10:26Z</time>
      </trkpt>
      <trkpt lat="44.76255" lon="-0.10382">
        <ele>74</ele>
        <time>2022-10-06T10:10:27Z</time>
      </trkpt>
      <trkpt lat="44.76256" lon="-0.10384">
        <ele>74</ele>
        <time>2022-10-06T10:10:28Z</time>
      </trkpt>
      <trkpt lat="44.76256" lon="-0.10385">
        <ele>74</ele>
        <time>2022-10-06T10:10:29Z</time>
      </trkpt>
      <trkpt lat="44.76256" lon="-0.10385">
        <ele>74</ele>
        <time>2022-10-06T10:10:30Z</time>
      </trkpt>
      <trkpt lat="44.76257" lon="-0.10385">
        <ele>74</ele>
        <time>2022-10-06T10:10:31Z</time>
      </trkpt>
      <trkpt lat="44.76257" lon="-0.10386">
        <ele>74</ele>
        <time>2022-10-06T10:10:32Z</time>
      </trkpt>
      <trkpt lat="44.76258" lon="-0.10387">
        <ele>74</ele>
        <time>2022-10-06T10:10:33Z</time>
      </trkpt>
      <trkpt lat="44.76258" lon="-0.10388">
        <ele>74.1</ele>
        <time>2022-10-06T10:10:34Z</time>
      </trkpt>
      <trkpt lat="44.76259" lon="-0.10388">
        <ele>74.1</ele>
        <time>2022-10-06T10:10:35Z</time>
      </trkpt>
      <trkpt lat="44.76259" lon="-0.10389">
        <ele>74.1</ele>
        <time>2022-10-06T10:10:36Z</time>
      </trkpt>
      <trkpt lat="44.7626" lon="-0.10389">
        <ele>74.1</ele>
        <time>2022-10-06T10:10:37Z</time>
      </trkpt>
      <trkpt lat="44.7626" lon="-0.10389">
        <ele>74.1</ele>
        <time>2022-10-06T10:10:38Z</time>
      </trkpt>
      <trkpt lat="44.7626" lon="-0.10389">
        <ele>74.1</ele>
        <time>2022-10-06T10:10:39Z</time>
      </trkpt>
      <trkpt lat="44.76259" lon="-0.1039">
        <ele>74.1</ele>
        <time>2022-10-06T10:10:40Z</time>
      </trkpt>
      <trkpt lat="44.76259" lon="-0.1039">
        <ele>74.1</ele>
        <time>2022-10-06T10:10:41Z</time>
      </trkpt>
      <trkpt lat="44.76259" lon="-0.1039">
        <ele>74.1</ele>
        <time>2022-10-06T10:10:42Z</time>
      </trkpt>
      <trkpt lat="44.76259" lon="-0.10389">
        <ele>74.1</ele>
        <time>2022-10-06T10:10:43Z</time>
      </trkpt>
      <trkpt lat="44.76258" lon="-0.10389">
        <ele>74.1</ele>
        <time>2022-10-06T10:10:44Z</time>
      </trkpt>
      <trkpt lat="44.76258" lon="-0.10389">
        <ele>74.1</ele>
        <time>2022-10-06T10:10:45Z</time>
      </trkpt>
      <trkpt lat="44.76257" lon="-0.10389">
        <ele>74.2</ele>
        <time>2022-10-06T10:10:46Z</time>
      </trkpt>
      <trkpt lat="44.76257" lon="-0.10388">
        <ele>74.2</ele>
        <time>2022-10-06T10:10:47Z</time>
      </trkpt>
      <trkpt lat="44.76257" lon="-0.10388">
        <ele>74.2</ele>
        <time>2022-10-06T10:10:49Z</time>
      </trkpt>
      <trkpt lat="44.76257" lon="-0.10388">
        <ele>74.2</ele>
        <time>2022-10-06T10:10:50Z</time>
      </trkpt>
      <trkpt lat="44.76256" lon="-0.10387">
        <ele>74.2</ele>
        <time>2022-10-06T10:10:51Z</time>
      </trkpt>
      <trkpt lat="44.76254" lon="-0.10387">
        <ele>74.2</ele>
        <time>2022-10-06T10:10:52Z</time>
      </trkpt>
      <trkpt lat="44.76253" lon="-0.10386">
        <ele>74.3</ele>
        <time>2022-10-06T10:10:53Z</time>
      </trkpt>
      <trkpt lat="44.76253" lon="-0.10386">
        <ele>74.3</ele>
        <time>2022-10-06T10:10:54Z</time>
      </trkpt>
      <trkpt lat="44.76252" lon="-0.10386">
        <ele>74.3</ele>
        <time>2022-10-06T10:10:55Z</time>
      </trkpt>
      <trkpt lat="44.76251" lon="-0.10385">
        <ele>74.3</ele>
        <time>2022-10-06T10:10:56Z</time>
      </trkpt>
      <trkpt lat="44.7625" lon="-0.10385">
        <ele>74.3</ele>
        <time>2022-10-06T10:10:57Z</time>
      </trkpt>
      <trkpt lat="44.76249" lon="-0.10383">
        <ele>74.4</ele>
        <time>2022-10-06T10:10:59Z</time>
      </trkpt>
      <trkpt lat="44.76248" lon="-0.10383">
        <ele>74.4</ele>
        <time>2022-10-06T10:11:00Z</time>
      </trkpt>
      <trkpt lat="44.76247" lon="-0.10382">
        <ele>74.4</ele>
        <time>2022-10-06T10:11:01Z</time>
      </trkpt>
      <trkpt lat="44.76246" lon="-0.10381">
        <ele>74.4</ele>
        <time>2022-10-06T10:11:02Z</time>
      </trkpt>
      <trkpt lat="44.76245" lon="-0.1038">
        <ele>74.5</ele>
        <time>2022-10-06T10:11:03Z</time>
      </trkpt>
      <trkpt lat="44.76244" lon="-0.10379">
        <ele>74.5</ele>
        <time>2022-10-06T10:11:04Z</time>
      </trkpt>
      <trkpt lat="44.76243" lon="-0.10378">
        <ele>74.5</ele>
        <time>2022-10-06T10:11:05Z</time>
      </trkpt>
      <trkpt lat="44.76243" lon="-0.10377">
        <ele>74.5</ele>
        <time>2022-10-06T10:11:06Z</time>
      </trkpt>
      <trkpt lat="44.76242" lon="-0.10377">
        <ele>74.5</ele>
        <time>2022-10-06T10:11:07Z</time>
      </trkpt>
      <trkpt lat="44.76242" lon="-0.10377">
        <ele>74.5</ele>
        <time>2022-10-06T10:11:08Z</time>
      </trkpt>
      <trkpt lat="44.76242" lon="-0.10377">
        <ele>74.5</ele>
        <time>2022-10-06T10:11:09Z</time>
      </trkpt>
      <trkpt lat="44.76242" lon="-0.10377">
        <ele>74.5</ele>
        <time>2022-10-06T10:11:10Z</time>
      </trkpt>
      <trkpt lat="44.76242" lon="-0.10377">
        <ele>74.5</ele>
        <time>2022-10-06T10:11:11Z</time>
      </trkpt>
      <trkpt lat="44.76242" lon="-0.10377">
        <ele>74.5</ele>
        <time>2022-10-06T10:11:12Z</time>
      </trkpt>
      <trkpt lat="44.76242" lon="-0.10377">
        <ele>74.5</ele>
        <time>2022-10-06T10:11:13Z</time>
      </trkpt>
      <trkpt lat="44.76242" lon="-0.10377">
        <ele>74.6</ele>
        <time>2022-10-06T10:11:14Z</time>
      </trkpt>
      <trkpt lat="44.76242" lon="-0.10377">
        <ele>74.6</ele>
        <time>2022-10-06T10:11:15Z</time>
      </trkpt>
      <trkpt lat="44.76241" lon="-0.10377">
        <ele>74.6</ele>
        <time>2022-10-06T10:11:16Z</time>
      </trkpt>
      <trkpt lat="44.76239" lon="-0.10377">
        <ele>74.6</ele>
        <time>2022-10-06T10:11:18Z</time>
      </trkpt>
      <trkpt lat="44.76238" lon="-0.10376">
        <ele>74.6</ele>
        <time>2022-10-06T10:11:20Z</time>
      </trkpt>
      <trkpt lat="44.76237" lon="-0.10375">
        <ele>74.7</ele>
        <time>2022-10-06T10:11:21Z</time>
      </trkpt>
      <trkpt lat="44.76236" lon="-0.10374">
        <ele>74.7</ele>
        <time>2022-10-06T10:11:22Z</time>
      </trkpt>
      <trkpt lat="44.76235" lon="-0.10373">
        <ele>74.7</ele>
        <time>2022-10-06T10:11:23Z</time>
      </trkpt>
      <trkpt lat="44.76234" lon="-0.10373">
        <ele>74.7</ele>
        <time>2022-10-06T10:11:24Z</time>
      </trkpt>
      <trkpt lat="44.76233" lon="-0.10373">
        <ele>74.7</ele>
        <time>2022-10-06T10:11:25Z</time>
      </trkpt>
      <trkpt lat="44.76232" lon="-0.10374">
        <ele>74.8</ele>
        <time>2022-10-06T10:11:26Z</time>
      </trkpt>
      <trkpt lat="44.76231" lon="-0.10374">
        <ele>74.8</ele>
        <time>2022-10-06T10:11:27Z</time>
      </trkpt>
      <trkpt lat="44.7623" lon="-0.10374">
        <ele>74.8</ele>
        <time>2022-10-06T10:11:28Z</time>
      </trkpt>
      <trkpt lat="44.76229" lon="-0.10375">
        <ele>74.8</ele>
        <time>2022-10-06T10:11:29Z</time>
      </trkpt>
      <trkpt lat="44.76229" lon="-0.10375">
        <ele>74.8</ele>
        <time>2022-10-06T10:11:30Z</time>
      </trkpt>
      <trkpt lat="44.7623" lon="-0.10374">
        <ele>74.9</ele>
        <time>2022-10-06T10:11:31Z</time>
      </trkpt>
      <trkpt lat="44.76231" lon="-0.10373">
        <ele>74.9</ele>
        <time>2022-10-06T10:11:32Z</time>
      </trkpt>
      <trkpt lat="44.76232" lon="-0.10372">
        <ele>74.9</ele>
        <time>2022-10-06T10:11:33Z</time>
      </trkpt>
      <trkpt lat="44.76233" lon="-0.10372">
        <ele>74.9</ele>
        <time>2022-10-06T10:11:34Z</time>
      </trkpt>
      <trkpt lat="44.76233" lon="-0.10372">
        <ele>74.9</ele>
        <time>2022-10-06T10:11:35Z</time>
      </trkpt>
      <trkpt lat="44.76233" lon="-0.10372">
        <ele>74.9</ele>
        <time>2022-10-06T10:11:37Z</time>
      </trkpt>
      <trkpt lat="44.76233" lon="-0.10372">
        <ele>74.9</ele>
        <time>2022-10-06T10:11:38Z</time>
      </trkpt>
      <trkpt lat="44.76233" lon="-0.10372">
        <ele>74.9</ele>
        <time>2022-10-06T10:11:40Z</time>
      </trkpt>
      <trkpt lat="44.76233" lon="-0.10372">
        <ele>74.9</ele>
        <time>2022-10-06T10:11:41Z</time>
      </trkpt>
      <trkpt lat="44.76233" lon="-0.10372">
        <ele>74.9</ele>
        <time>2022-10-06T10:11:42Z</time>
      </trkpt>
      <trkpt lat="44.76234" lon="-0.10372">
        <ele>74.9</ele>
        <time>2022-10-06T10:11:43Z</time>
      </trkpt>
      <trkpt lat="44.76234" lon="-0.10372">
        <ele>75</ele>
        <time>2022-10-06T10:11:44Z</time>
      </trkpt>
      <trkpt lat="44.76234" lon="-0.10373">
        <ele>75</ele>
        <time>2022-10-06T10:11:45Z</time>
      </trkpt>
      <trkpt lat="44.76235" lon="-0.10373">
        <ele>75</ele>
        <time>2022-10-06T10:11:46Z</time>
      </trkpt>
      <trkpt lat="44.76237" lon="-0.10374">
        <ele>75</ele>
        <time>2022-10-06T10:11:47Z</time>
      </trkpt>
      <trkpt lat="44.76238" lon="-0.10374">
        <ele>75</ele>
        <time>2022-10-06T10:11:48Z</time>
      </trkpt>
      <trkpt lat="44.76239" lon="-0.10374">
        <ele>75.1</ele>
        <time>2022-10-06T10:11:49Z</time>
      </trkpt>
      <trkpt lat="44.7624" lon="-0.10375">
        <ele>75.1</ele>
        <time>2022-10-06T10:11:50Z</time>
      </trkpt>
      <trkpt lat="44.7624" lon="-0.10375">
        <ele>75.1</ele>
        <time>2022-10-06T10:11:51Z</time>
      </trkpt>
      <trkpt lat="44.76242" lon="-0.10375">
        <ele>75.1</ele>
        <time>2022-10-06T10:11:52Z</time>
      </trkpt>
      <trkpt lat="44.76244" lon="-0.10376">
        <ele>75.1</ele>
        <time>2022-10-06T10:11:53Z</time>
      </trkpt>
      <trkpt lat="44.76244" lon="-0.10376">
        <ele>75.2</ele>
        <time>2022-10-06T10:11:54Z</time>
      </trkpt>
      <trkpt lat="44.76245" lon="-0.10377">
        <ele>75.2</ele>
        <time>2022-10-06T10:11:55Z</time>
      </trkpt>
      <trkpt lat="44.76246" lon="-0.10378">
        <ele>75.2</ele>
        <time>2022-10-06T10:11:56Z</time>
      </trkpt>
      <trkpt lat="44.76247" lon="-0.10379">
        <ele>75.2</ele>
        <time>2022-10-06T10:11:57Z</time>
      </trkpt>
      <trkpt lat="44.76249" lon="-0.1038">
        <ele>75.3</ele>
        <time>2022-10-06T10:11:58Z</time>
      </trkpt>
      <trkpt lat="44.7625" lon="-0.1038">
        <ele>75.3</ele>
        <time>2022-10-06T10:11:59Z</time>
      </trkpt>
      <trkpt lat="44.76251" lon="-0.1038">
        <ele>75.3</ele>
        <time>2022-10-06T10:12:00Z</time>
      </trkpt>
      <trkpt lat="44.76252" lon="-0.1038">
        <ele>75.3</ele>
        <time>2022-10-06T10:12:01Z</time>
      </trkpt>
      <trkpt lat="44.76252" lon="-0.10379">
        <ele>75.4</ele>
        <time>2022-10-06T10:12:02Z</time>
      </trkpt>
      <trkpt lat="44.76253" lon="-0.10378">
        <ele>75.4</ele>
        <time>2022-10-06T10:12:03Z</time>
      </trkpt>
      <trkpt lat="44.76252" lon="-0.10378">
        <ele>75.4</ele>
        <time>2022-10-06T10:12:04Z</time>
      </trkpt>
      <trkpt lat="44.76251" lon="-0.10378">
        <ele>75.3</ele>
        <time>2022-10-06T10:12:05Z</time>
      </trkpt>
      <trkpt lat="44.7625" lon="-0.10377">
        <ele>75.3</ele>
        <time>2022-10-06T10:12:06Z</time>
      </trkpt>
      <trkpt lat="44.7625" lon="-0.10377">
        <ele>75.3</ele>
        <time>2022-10-06T10:12:07Z</time>
      </trkpt>
      <trkpt lat="44.7625" lon="-0.10377">
        <ele>75.3</ele>
        <time>2022-10-06T10:12:08Z</time>
      </trkpt>
      <trkpt lat="44.76249" lon="-0.10377">
        <ele>75.4</ele>
        <time>2022-10-06T10:12:09Z</time>
      </trkpt>
      <trkpt lat="44.76249" lon="-0.10377">
        <ele>75.4</ele>
        <time>2022-10-06T10:12:11Z</time>
      </trkpt>
      <trkpt lat="44.76249" lon="-0.10377">
        <ele>75.4</ele>
        <time>2022-10-06T10:12:12Z</time>
      </trkpt>
      <trkpt lat="44.7625" lon="-0.10377">
        <ele>75.4</ele>
        <time>2022-10-06T10:12:13Z</time>
      </trkpt>
      <trkpt lat="44.7625" lon="-0.10377">
        <ele>75.3</ele>
        <time>2022-10-06T10:12:14Z</time>
      </trkpt>
      <trkpt lat="44.7625" lon="-0.10377">
        <ele>75.3</ele>
        <time>2022-10-06T10:12:15Z</time>
      </trkpt>
      <trkpt lat="44.7625" lon="-0.10377">
        <ele>75.3</ele>
        <time>2022-10-06T10:12:16Z</time>
      </trkpt>
      <trkpt lat="44.76249" lon="-0.10377">
        <ele>75.3</ele>
        <time>2022-10-06T10:12:17Z</time>
      </trkpt>
      <trkpt lat="44.76249" lon="-0.10377">
        <ele>75.4</ele>
        <time>2022-10-06T10:12:18Z</time>
      </trkpt>
      <trkpt lat="44.7625" lon="-0.10375">
        <ele>75.4</ele>
        <time>2022-10-06T10:12:19Z</time>
      </trkpt>
      <trkpt lat="44.7625" lon="-0.10374">
        <ele>75.4</ele>
        <time>2022-10-06T10:12:20Z</time>
      </trkpt>
      <trkpt lat="44.7625" lon="-0.10372">
        <ele>75.5</ele>
        <time>2022-10-06T10:12:21Z</time>
      </trkpt>
      <trkpt lat="44.7625" lon="-0.10371">
        <ele>75.5</ele>
        <time>2022-10-06T10:12:22Z</time>
      </trkpt>
      <trkpt lat="44.7625" lon="-0.10369">
        <ele>75.5</ele>
        <time>2022-10-06T10:12:23Z</time>
      </trkpt>
      <trkpt lat="44.7625" lon="-0.10368">
        <ele>75.6</ele>
        <time>2022-10-06T10:12:24Z</time>
      </trkpt>
      <trkpt lat="44.7625" lon="-0.10366">
        <ele>75.6</ele>
        <time>2022-10-06T10:12:25Z</time>
      </trkpt>
      <trkpt lat="44.76251" lon="-0.10365">
        <ele>75.6</ele>
        <time>2022-10-06T10:12:26Z</time>
      </trkpt>
      <trkpt lat="44.76251" lon="-0.10364">
        <ele>75.7</ele>
        <time>2022-10-06T10:12:27Z</time>
      </trkpt>
      <trkpt lat="44.76252" lon="-0.10362">
        <ele>75.7</ele>
        <time>2022-10-06T10:12:28Z</time>
      </trkpt>
      <trkpt lat="44.76252" lon="-0.10361">
        <ele>75.7</ele>
        <time>2022-10-06T10:12:29Z</time>
      </trkpt>
      <trkpt lat="44.76252" lon="-0.1036">
        <ele>75.8</ele>
        <time>2022-10-06T10:12:30Z</time>
      </trkpt>
      <trkpt lat="44.76252" lon="-0.10358">
        <ele>75.8</ele>
        <time>2022-10-06T10:12:31Z</time>
      </trkpt>
      <trkpt lat="44.76253" lon="-0.10357">
        <ele>75.8</ele>
        <time>2022-10-06T10:12:32Z</time>
      </trkpt>
      <trkpt lat="44.76253" lon="-0.10355">
        <ele>75.9</ele>
        <time>2022-10-06T10:12:33Z</time>
      </trkpt>
      <trkpt lat="44.76254" lon="-0.10355">
        <ele>75.9</ele>
        <time>2022-10-06T10:12:34Z</time>
      </trkpt>
      <trkpt lat="44.76255" lon="-0.10353">
        <ele>75.9</ele>
        <time>2022-10-06T10:12:35Z</time>
      </trkpt>
      <trkpt lat="44.76255" lon="-0.10352">
        <ele>75.9</ele>
        <time>2022-10-06T10:12:36Z</time>
      </trkpt>
      <trkpt lat="44.76255" lon="-0.1035">
        <ele>76</ele>
        <time>2022-10-06T10:12:37Z</time>
      </trkpt>
      <trkpt lat="44.76255" lon="-0.10348">
        <ele>76</ele>
        <time>2022-10-06T10:12:38Z</time>
      </trkpt>
      <trkpt lat="44.76255" lon="-0.10347">
        <ele>76</ele>
        <time>2022-10-06T10:12:39Z</time>
      </trkpt>
      <trkpt lat="44.76255" lon="-0.10346">
        <ele>76.1</ele>
        <time>2022-10-06T10:12:40Z</time>
      </trkpt>
      <trkpt lat="44.76254" lon="-0.10345">
        <ele>76.1</ele>
        <time>2022-10-06T10:12:41Z</time>
      </trkpt>
      <trkpt lat="44.76254" lon="-0.10343">
        <ele>76.1</ele>
        <time>2022-10-06T10:12:42Z</time>
      </trkpt>
      <trkpt lat="44.76255" lon="-0.1034">
        <ele>76.2</ele>
        <time>2022-10-06T10:12:43Z</time>
      </trkpt>
      <trkpt lat="44.76255" lon="-0.10339">
        <ele>76.2</ele>
        <time>2022-10-06T10:12:44Z</time>
      </trkpt>
      <trkpt lat="44.76255" lon="-0.10338">
        <ele>76.2</ele>
        <time>2022-10-06T10:12:45Z</time>
      </trkpt>
      <trkpt lat="44.76255" lon="-0.10335">
        <ele>76.2</ele>
        <time>2022-10-06T10:12:46Z</time>
      </trkpt>
      <trkpt lat="44.76256" lon="-0.10334">
        <ele>76.2</ele>
        <time>2022-10-06T10:12:47Z</time>
      </trkpt>
      <trkpt lat="44.76256" lon="-0.10333">
        <ele>76.2</ele>
        <time>2022-10-06T10:12:48Z</time>
      </trkpt>
      <trkpt lat="44.76256" lon="-0.10332">
        <ele>76.2</ele>
        <time>2022-10-06T10:12:49Z</time>
      </trkpt>
      <trkpt lat="44.76257" lon="-0.10331">
        <ele>76.2</ele>
        <time>2022-10-06T10:12:50Z</time>
      </trkpt>
      <trkpt lat="44.76257" lon="-0.1033">
        <ele>76.2</ele>
        <time>2022-10-06T10:12:51Z</time>
      </trkpt>
      <trkpt lat="44.76257" lon="-0.10328">
        <ele>76.2</ele>
        <time>2022-10-06T10:12:52Z</time>
      </trkpt>
      <trkpt lat="44.76258" lon="-0.10327">
        <ele>76.2</ele>
        <time>2022-10-06T10:12:53Z</time>
      </trkpt>
      <trkpt lat="44.76259" lon="-0.10325">
        <ele>76.3</ele>
        <time>2022-10-06T10:12:54Z</time>
      </trkpt>
      <trkpt lat="44.76259" lon="-0.10324">
        <ele>76.3</ele>
        <time>2022-10-06T10:12:55Z</time>
      </trkpt>
      <trkpt lat="44.7626" lon="-0.10324">
        <ele>76.3</ele>
        <time>2022-10-06T10:12:56Z</time>
      </trkpt>
      <trkpt lat="44.76261" lon="-0.10323">
        <ele>76.3</ele>
        <time>2022-10-06T10:12:57Z</time>
      </trkpt>
      <trkpt lat="44.76262" lon="-0.10322">
        <ele>76.2</ele>
        <time>2022-10-06T10:12:58Z</time>
      </trkpt>
      <trkpt lat="44.76263" lon="-0.10321">
        <ele>76.2</ele>
        <time>2022-10-06T10:12:59Z</time>
      </trkpt>
      <trkpt lat="44.76264" lon="-0.10321">
        <ele>76.2</ele>
        <time>2022-10-06T10:13:00Z</time>
      </trkpt>
      <trkpt lat="44.76265" lon="-0.10321">
        <ele>76.2</ele>
        <time>2022-10-06T10:13:01Z</time>
      </trkpt>
      <trkpt lat="44.76266" lon="-0.10321">
        <ele>76.2</ele>
        <time>2022-10-06T10:13:02Z</time>
      </trkpt>
      <trkpt lat="44.76267" lon="-0.10321">
        <ele>76.1</ele>
        <time>2022-10-06T10:13:03Z</time>
      </trkpt>
      <trkpt lat="44.76268" lon="-0.1032">
        <ele>76.1</ele>
        <time>2022-10-06T10:13:04Z</time>
      </trkpt>
      <trkpt lat="44.7627" lon="-0.1032">
        <ele>76.1</ele>
        <time>2022-10-06T10:13:05Z</time>
      </trkpt>
      <trkpt lat="44.76271" lon="-0.1032">
        <ele>76</ele>
        <time>2022-10-06T10:13:06Z</time>
      </trkpt>
      <trkpt lat="44.76273" lon="-0.1032">
        <ele>75.9</ele>
        <time>2022-10-06T10:13:07Z</time>
      </trkpt>
      <trkpt lat="44.76274" lon="-0.10319">
        <ele>75.9</ele>
        <time>2022-10-06T10:13:08Z</time>
      </trkpt>
      <trkpt lat="44.76275" lon="-0.10319">
        <ele>75.9</ele>
        <time>2022-10-06T10:13:09Z</time>
      </trkpt>
      <trkpt lat="44.76276" lon="-0.10319">
        <ele>75.9</ele>
        <time>2022-10-06T10:13:10Z</time>
      </trkpt>
      <trkpt lat="44.76277" lon="-0.10318">
        <ele>75.8</ele>
        <time>2022-10-06T10:13:11Z</time>
      </trkpt>
      <trkpt lat="44.76278" lon="-0.10316">
        <ele>76</ele>
        <time>2022-10-06T10:13:12Z</time>
      </trkpt>
      <trkpt lat="44.76278" lon="-0.10315">
        <ele>76</ele>
        <time>2022-10-06T10:13:13Z</time>
      </trkpt>
      <trkpt lat="44.76279" lon="-0.10313">
        <ele>76</ele>
        <time>2022-10-06T10:13:14Z</time>
      </trkpt>
      <trkpt lat="44.7628" lon="-0.10312">
        <ele>75.9</ele>
        <time>2022-10-06T10:13:15Z</time>
      </trkpt>
      <trkpt lat="44.7628" lon="-0.10311">
        <ele>75.9</ele>
        <time>2022-10-06T10:13:16Z</time>
      </trkpt>
      <trkpt lat="44.76281" lon="-0.1031">
        <ele>75.9</ele>
        <time>2022-10-06T10:13:17Z</time>
      </trkpt>
      <trkpt lat="44.76282" lon="-0.1031">
        <ele>75.9</ele>
        <time>2022-10-06T10:13:18Z</time>
      </trkpt>
      <trkpt lat="44.76283" lon="-0.1031">
        <ele>75.8</ele>
        <time>2022-10-06T10:13:19Z</time>
      </trkpt>
      <trkpt lat="44.76284" lon="-0.1031">
        <ele>75.8</ele>
        <time>2022-10-06T10:13:20Z</time>
      </trkpt>
      <trkpt lat="44.76285" lon="-0.1031">
        <ele>75.8</ele>
        <time>2022-10-06T10:13:21Z</time>
      </trkpt>
      <trkpt lat="44.76287" lon="-0.1031">
        <ele>75.7</ele>
        <time>2022-10-06T10:13:22Z</time>
      </trkpt>
      <trkpt lat="44.76288" lon="-0.1031">
        <ele>75.7</ele>
        <time>2022-10-06T10:13:23Z</time>
      </trkpt>
      <trkpt lat="44.76289" lon="-0.1031">
        <ele>75.6</ele>
        <time>2022-10-06T10:13:24Z</time>
      </trkpt>
      <trkpt lat="44.76291" lon="-0.10309">
        <ele>75.6</ele>
        <time>2022-10-06T10:13:25Z</time>
      </trkpt>
      <trkpt lat="44.76291" lon="-0.10309">
        <ele>75.6</ele>
        <time>2022-10-06T10:13:26Z</time>
      </trkpt>
      <trkpt lat="44.76292" lon="-0.10309">
        <ele>75.4</ele>
        <time>2022-10-06T10:13:27Z</time>
      </trkpt>
      <trkpt lat="44.76293" lon="-0.10308">
        <ele>75.4</ele>
        <time>2022-10-06T10:13:28Z</time>
      </trkpt>
      <trkpt lat="44.76294" lon="-0.10308">
        <ele>75.5</ele>
        <time>2022-10-06T10:13:29Z</time>
      </trkpt>
      <trkpt lat="44.76295" lon="-0.10307">
        <ele>75.5</ele>
        <time>2022-10-06T10:13:30Z</time>
      </trkpt>
      <trkpt lat="44.76296" lon="-0.10307">
        <ele>75.4</ele>
        <time>2022-10-06T10:13:31Z</time>
      </trkpt>
      <trkpt lat="44.76297" lon="-0.10305">
        <ele>75.4</ele>
        <time>2022-10-06T10:13:32Z</time>
      </trkpt>
      <trkpt lat="44.76298" lon="-0.10305">
        <ele>75.3</ele>
        <time>2022-10-06T10:13:33Z</time>
      </trkpt>
      <trkpt lat="44.76299" lon="-0.10304">
        <ele>75.3</ele>
        <time>2022-10-06T10:13:34Z</time>
      </trkpt>
      <trkpt lat="44.76299" lon="-0.10303">
        <ele>75.2</ele>
        <time>2022-10-06T10:13:35Z</time>
      </trkpt>
      <trkpt lat="44.763" lon="-0.10303">
        <ele>75.2</ele>
        <time>2022-10-06T10:13:36Z</time>
      </trkpt>
      <trkpt lat="44.763" lon="-0.10302">
        <ele>75.2</ele>
        <time>2022-10-06T10:13:37Z</time>
      </trkpt>
      <trkpt lat="44.76301" lon="-0.10301">
        <ele>75.2</ele>
        <time>2022-10-06T10:13:38Z</time>
      </trkpt>
      <trkpt lat="44.76302" lon="-0.103">
        <ele>75.2</ele>
        <time>2022-10-06T10:13:39Z</time>
      </trkpt>
      <trkpt lat="44.76302" lon="-0.10299">
        <ele>75.1</ele>
        <time>2022-10-06T10:13:40Z</time>
      </trkpt>
      <trkpt lat="44.76302" lon="-0.10298">
        <ele>75.1</ele>
        <time>2022-10-06T10:13:41Z</time>
      </trkpt>
      <trkpt lat="44.76302" lon="-0.10297">
        <ele>75.1</ele>
        <time>2022-10-06T10:13:42Z</time>
      </trkpt>
      <trkpt lat="44.76302" lon="-0.10296">
        <ele>75.1</ele>
        <time>2022-10-06T10:13:43Z</time>
      </trkpt>
      <trkpt lat="44.76302" lon="-0.10295">
        <ele>74.9</ele>
        <time>2022-10-06T10:13:44Z</time>
      </trkpt>
      <trkpt lat="44.76302" lon="-0.10293">
        <ele>74.9</ele>
        <time>2022-10-06T10:13:45Z</time>
      </trkpt>
      <trkpt lat="44.76302" lon="-0.10292">
        <ele>74.9</ele>
        <time>2022-10-06T10:13:46Z</time>
      </trkpt>
      <trkpt lat="44.76301" lon="-0.1029">
        <ele>74.7</ele>
        <time>2022-10-06T10:13:47Z</time>
      </trkpt>
      <trkpt lat="44.76301" lon="-0.10289">
        <ele>74.7</ele>
        <time>2022-10-06T10:13:48Z</time>
      </trkpt>
      <trkpt lat="44.76301" lon="-0.10288">
        <ele>74.7</ele>
        <time>2022-10-06T10:13:49Z</time>
      </trkpt>
      <trkpt lat="44.76301" lon="-0.10288">
        <ele>74.8</ele>
        <time>2022-10-06T10:13:50Z</time>
      </trkpt>
      <trkpt lat="44.763" lon="-0.10286">
        <ele>74.4</ele>
        <time>2022-10-06T10:13:51Z</time>
      </trkpt>
      <trkpt lat="44.76299" lon="-0.10286">
        <ele>74.4</ele>
        <time>2022-10-06T10:13:52Z</time>
      </trkpt>
      <trkpt lat="44.76299" lon="-0.10285">
        <ele>74.4</ele>
        <time>2022-10-06T10:13:53Z</time>
      </trkpt>
      <trkpt lat="44.76298" lon="-0.10285">
        <ele>74.4</ele>
        <time>2022-10-06T10:13:54Z</time>
      </trkpt>
      <trkpt lat="44.76297" lon="-0.10285">
        <ele>74.5</ele>
        <time>2022-10-06T10:13:55Z</time>
      </trkpt>
      <trkpt lat="44.76296" lon="-0.10285">
        <ele>74.5</ele>
        <time>2022-10-06T10:13:56Z</time>
      </trkpt>
      <trkpt lat="44.76295" lon="-0.10284">
        <ele>74.6</ele>
        <time>2022-10-06T10:13:57Z</time>
      </trkpt>
      <trkpt lat="44.76294" lon="-0.10283">
        <ele>74.6</ele>
        <time>2022-10-06T10:13:58Z</time>
      </trkpt>
      <trkpt lat="44.76293" lon="-0.10283">
        <ele>74.6</ele>
        <time>2022-10-06T10:13:59Z</time>
      </trkpt>
      <trkpt lat="44.76292" lon="-0.10283">
        <ele>74.6</ele>
        <time>2022-10-06T10:14:00Z</time>
      </trkpt>
      <trkpt lat="44.76291" lon="-0.10282">
        <ele>74.1</ele>
        <time>2022-10-06T10:14:01Z</time>
      </trkpt>
      <trkpt lat="44.7629" lon="-0.10281">
        <ele>74.1</ele>
        <time>2022-10-06T10:14:02Z</time>
      </trkpt>
      <trkpt lat="44.7629" lon="-0.1028">
        <ele>74.1</ele>
        <time>2022-10-06T10:14:03Z</time>
      </trkpt>
      <trkpt lat="44.76289" lon="-0.10278">
        <ele>73.6</ele>
        <time>2022-10-06T10:14:04Z</time>
      </trkpt>
      <trkpt lat="44.76288" lon="-0.10277">
        <ele>73.6</ele>
        <time>2022-10-06T10:14:05Z</time>
      </trkpt>
      <trkpt lat="44.76288" lon="-0.10276">
        <ele>73.6</ele>
        <time>2022-10-06T10:14:06Z</time>
      </trkpt>
      <trkpt lat="44.76287" lon="-0.10275">
        <ele>73.6</ele>
        <time>2022-10-06T10:14:07Z</time>
      </trkpt>
      <trkpt lat="44.76286" lon="-0.10275">
        <ele>73.6</ele>
        <time>2022-10-06T10:14:08Z</time>
      </trkpt>
      <trkpt lat="44.76285" lon="-0.10273">
        <ele>73</ele>
        <time>2022-10-06T10:14:09Z</time>
      </trkpt>
      <trkpt lat="44.76284" lon="-0.10273">
        <ele>73</ele>
        <time>2022-10-06T10:14:10Z</time>
      </trkpt>
      <trkpt lat="44.76283" lon="-0.10272">
        <ele>73</ele>
        <time>2022-10-06T10:14:11Z</time>
      </trkpt>
      <trkpt lat="44.76281" lon="-0.10271">
        <ele>73</ele>
        <time>2022-10-06T10:14:12Z</time>
      </trkpt>
      <trkpt lat="44.7628" lon="-0.10271">
        <ele>73</ele>
        <time>2022-10-06T10:14:13Z</time>
      </trkpt>
      <trkpt lat="44.76279" lon="-0.10271">
        <ele>72.9</ele>
        <time>2022-10-06T10:14:14Z</time>
      </trkpt>
      <trkpt lat="44.76278" lon="-0.1027">
        <ele>72.9</ele>
        <time>2022-10-06T10:14:15Z</time>
      </trkpt>
      <trkpt lat="44.76277" lon="-0.10269">
        <ele>72.4</ele>
        <time>2022-10-06T10:14:16Z</time>
      </trkpt>
      <trkpt lat="44.76276" lon="-0.10268">
        <ele>72.4</ele>
        <time>2022-10-06T10:14:17Z</time>
      </trkpt>
      <trkpt lat="44.76276" lon="-0.10268">
        <ele>72.4</ele>
        <time>2022-10-06T10:14:18Z</time>
      </trkpt>
      <trkpt lat="44.76275" lon="-0.10267">
        <ele>72.4</ele>
        <time>2022-10-06T10:14:19Z</time>
      </trkpt>
      <trkpt lat="44.76274" lon="-0.10267">
        <ele>72.4</ele>
        <time>2022-10-06T10:14:20Z</time>
      </trkpt>
      <trkpt lat="44.76272" lon="-0.10266">
        <ele>72.4</ele>
        <time>2022-10-06T10:14:22Z</time>
      </trkpt>
      <trkpt lat="44.76271" lon="-0.10266">
        <ele>72.4</ele>
        <time>2022-10-06T10:14:23Z</time>
      </trkpt>
      <trkpt lat="44.76269" lon="-0.10266">
        <ele>72.5</ele>
        <time>2022-10-06T10:14:24Z</time>
      </trkpt>
      <trkpt lat="44.76268" lon="-0.10267">
        <ele>72.5</ele>
        <time>2022-10-06T10:14:25Z</time>
      </trkpt>
      <trkpt lat="44.76266" lon="-0.10267">
        <ele>72.7</ele>
        <time>2022-10-06T10:14:26Z</time>
      </trkpt>
      <trkpt lat="44.76265" lon="-0.10267">
        <ele>72.7</ele>
        <time>2022-10-06T10:14:27Z</time>
      </trkpt>
      <trkpt lat="44.76264" lon="-0.10267">
        <ele>72.7</ele>
        <time>2022-10-06T10:14:28Z</time>
      </trkpt>
      <trkpt lat="44.76263" lon="-0.10266">
        <ele>73</ele>
        <time>2022-10-06T10:14:29Z</time>
      </trkpt>
      <trkpt lat="44.76261" lon="-0.10266">
        <ele>73.4</ele>
        <time>2022-10-06T10:14:31Z</time>
      </trkpt>
      <trkpt lat="44.76258" lon="-0.10265">
        <ele>72.9</ele>
        <time>2022-10-06T10:14:33Z</time>
      </trkpt>
      <trkpt lat="44.76257" lon="-0.10265">
        <ele>73.3</ele>
        <time>2022-10-06T10:14:35Z</time>
      </trkpt>
      <trkpt lat="44.76257" lon="-0.10265">
        <ele>73.3</ele>
        <time>2022-10-06T10:14:36Z</time>
      </trkpt>
      <trkpt lat="44.76255" lon="-0.10264">
        <ele>73.9</ele>
        <time>2022-10-06T10:14:37Z</time>
      </trkpt>
      <trkpt lat="44.76255" lon="-0.10264">
        <ele>73.9</ele>
        <time>2022-10-06T10:14:38Z</time>
      </trkpt>
      <trkpt lat="44.76254" lon="-0.10264">
        <ele>73.9</ele>
        <time>2022-10-06T10:14:39Z</time>
      </trkpt>
      <trkpt lat="44.76254" lon="-0.10264">
        <ele>73.9</ele>
        <time>2022-10-06T10:14:41Z</time>
      </trkpt>
      <trkpt lat="44.76254" lon="-0.10264">
        <ele>73.9</ele>
        <time>2022-10-06T10:14:42Z</time>
      </trkpt>
      <trkpt lat="44.76254" lon="-0.10264">
        <ele>73.9</ele>
        <time>2022-10-06T10:14:43Z</time>
      </trkpt>
      <trkpt lat="44.76253" lon="-0.10264">
        <ele>73.9</ele>
        <time>2022-10-06T10:14:44Z</time>
      </trkpt>
      <trkpt lat="44.76253" lon="-0.10263">
        <ele>73.9</ele>
        <time>2022-10-06T10:14:45Z</time>
      </trkpt>
      <trkpt lat="44.7625" lon="-0.10263">
        <ele>74.4</ele>
        <time>2022-10-06T10:14:46Z</time>
      </trkpt>
      <trkpt lat="44.76249" lon="-0.10263">
        <ele>75</ele>
        <time>2022-10-06T10:14:48Z</time>
      </trkpt>
      <trkpt lat="44.76248" lon="-0.10262">
        <ele>75</ele>
        <time>2022-10-06T10:14:49Z</time>
      </trkpt>
      <trkpt lat="44.76247" lon="-0.10262">
        <ele>75</ele>
        <time>2022-10-06T10:14:50Z</time>
      </trkpt>
      <trkpt lat="44.76246" lon="-0.10262">
        <ele>75.5</ele>
        <time>2022-10-06T10:14:51Z</time>
      </trkpt>
      <trkpt lat="44.76245" lon="-0.10262">
        <ele>75.5</ele>
        <time>2022-10-06T10:14:52Z</time>
      </trkpt>
      <trkpt lat="44.76244" lon="-0.10262">
        <ele>75.5</ele>
        <time>2022-10-06T10:14:53Z</time>
      </trkpt>
      <trkpt lat="44.76243" lon="-0.10262">
        <ele>75.5</ele>
        <time>2022-10-06T10:14:54Z</time>
      </trkpt>
      <trkpt lat="44.76242" lon="-0.10262">
        <ele>76</ele>
        <time>2022-10-06T10:14:55Z</time>
      </trkpt>
      <trkpt lat="44.76241" lon="-0.10262">
        <ele>76</ele>
        <time>2022-10-06T10:14:56Z</time>
      </trkpt>
      <trkpt lat="44.7624" lon="-0.10262">
        <ele>76</ele>
        <time>2022-10-06T10:14:57Z</time>
      </trkpt>
      <trkpt lat="44.76237" lon="-0.10261">
        <ele>76.5</ele>
        <time>2022-10-06T10:14:58Z</time>
      </trkpt>
      <trkpt lat="44.76236" lon="-0.10261">
        <ele>76.3</ele>
        <time>2022-10-06T10:14:59Z</time>
      </trkpt>
      <trkpt lat="44.76236" lon="-0.10261">
        <ele>76.3</ele>
        <time>2022-10-06T10:15:00Z</time>
      </trkpt>
      <trkpt lat="44.76235" lon="-0.1026">
        <ele>76.3</ele>
        <time>2022-10-06T10:15:01Z</time>
      </trkpt>
      <trkpt lat="44.76234" lon="-0.1026">
        <ele>76.3</ele>
        <time>2022-10-06T10:15:02Z</time>
      </trkpt>
      <trkpt lat="44.76233" lon="-0.1026">
        <ele>76.7</ele>
        <time>2022-10-06T10:15:03Z</time>
      </trkpt>
      <trkpt lat="44.76233" lon="-0.10259">
        <ele>76.7</ele>
        <time>2022-10-06T10:15:04Z</time>
      </trkpt>
      <trkpt lat="44.76232" lon="-0.10259">
        <ele>76.7</ele>
        <time>2022-10-06T10:15:05Z</time>
      </trkpt>
      <trkpt lat="44.76231" lon="-0.10258">
        <ele>76.7</ele>
        <time>2022-10-06T10:15:06Z</time>
      </trkpt>
      <trkpt lat="44.7623" lon="-0.10256">
        <ele>76.3</ele>
        <time>2022-10-06T10:15:07Z</time>
      </trkpt>
      <trkpt lat="44.76229" lon="-0.10254">
        <ele>76.3</ele>
        <time>2022-10-06T10:15:08Z</time>
      </trkpt>
      <trkpt lat="44.76228" lon="-0.10253">
        <ele>76.3</ele>
        <time>2022-10-06T10:15:09Z</time>
      </trkpt>
      <trkpt lat="44.76227" lon="-0.10253">
        <ele>76.5</ele>
        <time>2022-10-06T10:15:10Z</time>
      </trkpt>
      <trkpt lat="44.76225" lon="-0.10251">
        <ele>75.9</ele>
        <time>2022-10-06T10:15:11Z</time>
      </trkpt>
      <trkpt lat="44.76224" lon="-0.1025">
        <ele>76.1</ele>
        <time>2022-10-06T10:15:12Z</time>
      </trkpt>
      <trkpt lat="44.76224" lon="-0.10249">
        <ele>76.1</ele>
        <time>2022-10-06T10:15:13Z</time>
      </trkpt>
      <trkpt lat="44.76223" lon="-0.10248">
        <ele>75.6</ele>
        <time>2022-10-06T10:15:14Z</time>
      </trkpt>
      <trkpt lat="44.76223" lon="-0.10245">
        <ele>75.6</ele>
        <time>2022-10-06T10:15:15Z</time>
      </trkpt>
      <trkpt lat="44.76222" lon="-0.10242">
        <ele>75.1</ele>
        <time>2022-10-06T10:15:16Z</time>
      </trkpt>
      <trkpt lat="44.76222" lon="-0.10241">
        <ele>75.1</ele>
        <time>2022-10-06T10:15:18Z</time>
      </trkpt>
      <trkpt lat="44.76221" lon="-0.10239">
        <ele>74.7</ele>
        <time>2022-10-06T10:15:19Z</time>
      </trkpt>
      <trkpt lat="44.76221" lon="-0.10237">
        <ele>75.2</ele>
        <time>2022-10-06T10:15:20Z</time>
      </trkpt>
      <trkpt lat="44.76221" lon="-0.10236">
        <ele>75.2</ele>
        <time>2022-10-06T10:15:21Z</time>
      </trkpt>
      <trkpt lat="44.76221" lon="-0.10234">
        <ele>74.9</ele>
        <time>2022-10-06T10:15:22Z</time>
      </trkpt>
      <trkpt lat="44.76221" lon="-0.10232">
        <ele>74.9</ele>
        <time>2022-10-06T10:15:23Z</time>
      </trkpt>
      <trkpt lat="44.76221" lon="-0.10229">
        <ele>74.2</ele>
        <time>2022-10-06T10:15:25Z</time>
      </trkpt>
      <trkpt lat="44.76222" lon="-0.10226">
        <ele>74.1</ele>
        <time>2022-10-06T10:15:26Z</time>
      </trkpt>
      <trkpt lat="44.76222" lon="-0.10225">
        <ele>74.1</ele>
        <time>2022-10-06T10:15:27Z</time>
      </trkpt>
      <trkpt lat="44.76223" lon="-0.10223">
        <ele>74.1</ele>
        <time>2022-10-06T10:15:28Z</time>
      </trkpt>
      <trkpt lat="44.76223" lon="-0.1022">
        <ele>74</ele>
        <time>2022-10-06T10:15:29Z</time>
      </trkpt>
      <trkpt lat="44.76224" lon="-0.10218">
        <ele>74</ele>
        <time>2022-10-06T10:15:30Z</time>
      </trkpt>
      <trkpt lat="44.76224" lon="-0.10216">
        <ele>74</ele>
        <time>2022-10-06T10:15:31Z</time>
      </trkpt>
      <trkpt lat="44.76224" lon="-0.10215">
        <ele>74</ele>
        <time>2022-10-06T10:15:32Z</time>
      </trkpt>
      <trkpt lat="44.76225" lon="-0.10213">
        <ele>73.5</ele>
        <time>2022-10-06T10:15:33Z</time>
      </trkpt>
      <trkpt lat="44.76226" lon="-0.10211">
        <ele>73.5</ele>
        <time>2022-10-06T10:15:34Z</time>
      </trkpt>
      <trkpt lat="44.76226" lon="-0.10208">
        <ele>73.6</ele>
        <time>2022-10-06T10:15:35Z</time>
      </trkpt>
      <trkpt lat="44.76227" lon="-0.10207">
        <ele>73.6</ele>
        <time>2022-10-06T10:15:36Z</time>
      </trkpt>
      <trkpt lat="44.76227" lon="-0.10206">
        <ele>73.6</ele>
        <time>2022-10-06T10:15:37Z</time>
      </trkpt>
      <trkpt lat="44.76228" lon="-0.10204">
        <ele>73.2</ele>
        <time>2022-10-06T10:15:38Z</time>
      </trkpt>
      <trkpt lat="44.76229" lon="-0.10202">
        <ele>73.2</ele>
        <time>2022-10-06T10:15:39Z</time>
      </trkpt>
      <trkpt lat="44.7623" lon="-0.10201">
        <ele>73.2</ele>
        <time>2022-10-06T10:15:40Z</time>
      </trkpt>
      <trkpt lat="44.7623" lon="-0.102">
        <ele>73.2</ele>
        <time>2022-10-06T10:15:41Z</time>
      </trkpt>
      <trkpt lat="44.76231" lon="-0.10199">
        <ele>72.9</ele>
        <time>2022-10-06T10:15:42Z</time>
      </trkpt>
      <trkpt lat="44.76232" lon="-0.10198">
        <ele>72.9</ele>
        <time>2022-10-06T10:15:43Z</time>
      </trkpt>
      <trkpt lat="44.76233" lon="-0.10196">
        <ele>72.9</ele>
        <time>2022-10-06T10:15:44Z</time>
      </trkpt>
      <trkpt lat="44.76234" lon="-0.10195">
        <ele>72.6</ele>
        <time>2022-10-06T10:15:45Z</time>
      </trkpt>
      <trkpt lat="44.76234" lon="-0.10194">
        <ele>72.6</ele>
        <time>2022-10-06T10:15:46Z</time>
      </trkpt>
      <trkpt lat="44.76235" lon="-0.10192">
        <ele>72.5</ele>
        <time>2022-10-06T10:15:47Z</time>
      </trkpt>
      <trkpt lat="44.76236" lon="-0.10189">
        <ele>72.5</ele>
        <time>2022-10-06T10:15:48Z</time>
      </trkpt>
      <trkpt lat="44.76236" lon="-0.10188">
        <ele>72.5</ele>
        <time>2022-10-06T10:15:49Z</time>
      </trkpt>
      <trkpt lat="44.76237" lon="-0.10187">
        <ele>72.5</ele>
        <time>2022-10-06T10:15:50Z</time>
      </trkpt>
      <trkpt lat="44.76238" lon="-0.10186">
        <ele>72.4</ele>
        <time>2022-10-06T10:15:51Z</time>
      </trkpt>
      <trkpt lat="44.7624" lon="-0.10184">
        <ele>72.3</ele>
        <time>2022-10-06T10:15:53Z</time>
      </trkpt>
      <trkpt lat="44.76242" lon="-0.10182">
        <ele>72.3</ele>
        <time>2022-10-06T10:15:54Z</time>
      </trkpt>
      <trkpt lat="44.76242" lon="-0.10181">
        <ele>72.3</ele>
        <time>2022-10-06T10:15:55Z</time>
      </trkpt>
      <trkpt lat="44.76243" lon="-0.10181">
        <ele>72.3</ele>
        <time>2022-10-06T10:15:56Z</time>
      </trkpt>
      <trkpt lat="44.76245" lon="-0.10179">
        <ele>72.4</ele>
        <time>2022-10-06T10:15:57Z</time>
      </trkpt>
      <trkpt lat="44.76245" lon="-0.10178">
        <ele>72.4</ele>
        <time>2022-10-06T10:15:58Z</time>
      </trkpt>
      <trkpt lat="44.76246" lon="-0.10177">
        <ele>72.3</ele>
        <time>2022-10-06T10:15:59Z</time>
      </trkpt>
      <trkpt lat="44.76246" lon="-0.10176">
        <ele>72.3</ele>
        <time>2022-10-06T10:16:00Z</time>
      </trkpt>
      <trkpt lat="44.76247" lon="-0.10175">
        <ele>72.4</ele>
        <time>2022-10-06T10:16:01Z</time>
      </trkpt>
      <trkpt lat="44.76248" lon="-0.10174">
        <ele>72.4</ele>
        <time>2022-10-06T10:16:02Z</time>
      </trkpt>
      <trkpt lat="44.76249" lon="-0.10173">
        <ele>72.4</ele>
        <time>2022-10-06T10:16:03Z</time>
      </trkpt>
      <trkpt lat="44.7625" lon="-0.10171">
        <ele>72.4</ele>
        <time>2022-10-06T10:16:04Z</time>
      </trkpt>
      <trkpt lat="44.76251" lon="-0.1017">
        <ele>72.5</ele>
        <time>2022-10-06T10:16:05Z</time>
      </trkpt>
      <trkpt lat="44.76252" lon="-0.10169">
        <ele>72.5</ele>
        <time>2022-10-06T10:16:06Z</time>
      </trkpt>
      <trkpt lat="44.76253" lon="-0.10168">
        <ele>72.5</ele>
        <time>2022-10-06T10:16:07Z</time>
      </trkpt>
      <trkpt lat="44.76254" lon="-0.10167">
        <ele>72.5</ele>
        <time>2022-10-06T10:16:08Z</time>
      </trkpt>
      <trkpt lat="44.76256" lon="-0.10165">
        <ele>72.5</ele>
        <time>2022-10-06T10:16:09Z</time>
      </trkpt>
      <trkpt lat="44.76256" lon="-0.10165">
        <ele>72.5</ele>
        <time>2022-10-06T10:16:10Z</time>
      </trkpt>
      <trkpt lat="44.76257" lon="-0.10164">
        <ele>72.5</ele>
        <time>2022-10-06T10:16:11Z</time>
      </trkpt>
      <trkpt lat="44.76258" lon="-0.10163">
        <ele>72.5</ele>
        <time>2022-10-06T10:16:12Z</time>
      </trkpt>
      <trkpt lat="44.76259" lon="-0.10163">
        <ele>72.5</ele>
        <time>2022-10-06T10:16:13Z</time>
      </trkpt>
      <trkpt lat="44.7626" lon="-0.10162">
        <ele>72.5</ele>
        <time>2022-10-06T10:16:14Z</time>
      </trkpt>
      <trkpt lat="44.76261" lon="-0.10161">
        <ele>72.5</ele>
        <time>2022-10-06T10:16:15Z</time>
      </trkpt>
      <trkpt lat="44.76262" lon="-0.10161">
        <ele>72.5</ele>
        <time>2022-10-06T10:16:16Z</time>
      </trkpt>
      <trkpt lat="44.76264" lon="-0.10159">
        <ele>72.5</ele>
        <time>2022-10-06T10:16:18Z</time>
      </trkpt>
      <trkpt lat="44.76266" lon="-0.10157">
        <ele>72.6</ele>
        <time>2022-10-06T10:16:19Z</time>
      </trkpt>
      <trkpt lat="44.76266" lon="-0.10156">
        <ele>72.6</ele>
        <time>2022-10-06T10:16:20Z</time>
      </trkpt>
      <trkpt lat="44.76268" lon="-0.10154">
        <ele>72.6</ele>
        <time>2022-10-06T10:16:21Z</time>
      </trkpt>
      <trkpt lat="44.76268" lon="-0.10153">
        <ele>72.6</ele>
        <time>2022-10-06T10:16:22Z</time>
      </trkpt>
      <trkpt lat="44.76269" lon="-0.10152">
        <ele>72.6</ele>
        <time>2022-10-06T10:16:23Z</time>
      </trkpt>
      <trkpt lat="44.76271" lon="-0.10151">
        <ele>72.6</ele>
        <time>2022-10-06T10:16:24Z</time>
      </trkpt>
      <trkpt lat="44.76272" lon="-0.10151">
        <ele>72.6</ele>
        <time>2022-10-06T10:16:25Z</time>
      </trkpt>
      <trkpt lat="44.76272" lon="-0.10151">
        <ele>72.6</ele>
        <time>2022-10-06T10:16:26Z</time>
      </trkpt>
      <trkpt lat="44.76274" lon="-0.10149">
        <ele>72.6</ele>
        <time>2022-10-06T10:16:27Z</time>
      </trkpt>
      <trkpt lat="44.76275" lon="-0.10149">
        <ele>72.6</ele>
        <time>2022-10-06T10:16:28Z</time>
      </trkpt>
      <trkpt lat="44.76276" lon="-0.10148">
        <ele>72.6</ele>
        <time>2022-10-06T10:16:29Z</time>
      </trkpt>
      <trkpt lat="44.76276" lon="-0.10147">
        <ele>72.6</ele>
        <time>2022-10-06T10:16:30Z</time>
      </trkpt>
      <trkpt lat="44.76277" lon="-0.10147">
        <ele>72.5</ele>
        <time>2022-10-06T10:16:31Z</time>
      </trkpt>
      <trkpt lat="44.76279" lon="-0.10146">
        <ele>72.5</ele>
        <time>2022-10-06T10:16:32Z</time>
      </trkpt>
      <trkpt lat="44.76279" lon="-0.10145">
        <ele>72.5</ele>
        <time>2022-10-06T10:16:33Z</time>
      </trkpt>
      <trkpt lat="44.76281" lon="-0.10144">
        <ele>72.5</ele>
        <time>2022-10-06T10:16:34Z</time>
      </trkpt>
      <trkpt lat="44.76282" lon="-0.10143">
        <ele>72.5</ele>
        <time>2022-10-06T10:16:35Z</time>
      </trkpt>
      <trkpt lat="44.76283" lon="-0.10143">
        <ele>72.5</ele>
        <time>2022-10-06T10:16:36Z</time>
      </trkpt>
      <trkpt lat="44.76284" lon="-0.10142">
        <ele>72.5</ele>
        <time>2022-10-06T10:16:37Z</time>
      </trkpt>
      <trkpt lat="44.76285" lon="-0.10141">
        <ele>72.5</ele>
        <time>2022-10-06T10:16:38Z</time>
      </trkpt>
      <trkpt lat="44.76287" lon="-0.10139">
        <ele>72.5</ele>
        <time>2022-10-06T10:16:39Z</time>
      </trkpt>
      <trkpt lat="44.76287" lon="-0.10139">
        <ele>72.5</ele>
        <time>2022-10-06T10:16:40Z</time>
      </trkpt>
      <trkpt lat="44.76288" lon="-0.10139">
        <ele>72.5</ele>
        <time>2022-10-06T10:16:41Z</time>
      </trkpt>
      <trkpt lat="44.7629" lon="-0.10139">
        <ele>72.5</ele>
        <time>2022-10-06T10:16:42Z</time>
      </trkpt>
      <trkpt lat="44.76291" lon="-0.10138">
        <ele>72.5</ele>
        <time>2022-10-06T10:16:43Z</time>
      </trkpt>
      <trkpt lat="44.76293" lon="-0.10137">
        <ele>72.5</ele>
        <time>2022-10-06T10:16:44Z</time>
      </trkpt>
      <trkpt lat="44.76294" lon="-0.10136">
        <ele>72.5</ele>
        <time>2022-10-06T10:16:45Z</time>
      </trkpt>
      <trkpt lat="44.76295" lon="-0.10136">
        <ele>72.6</ele>
        <time>2022-10-06T10:16:46Z</time>
      </trkpt>
      <trkpt lat="44.76296" lon="-0.10136">
        <ele>72.6</ele>
        <time>2022-10-06T10:16:47Z</time>
      </trkpt>
      <trkpt lat="44.76296" lon="-0.10136">
        <ele>72.6</ele>
        <time>2022-10-06T10:16:48Z</time>
      </trkpt>
      <trkpt lat="44.76298" lon="-0.10135">
        <ele>72.6</ele>
        <time>2022-10-06T10:16:49Z</time>
      </trkpt>
      <trkpt lat="44.76299" lon="-0.10134">
        <ele>72.6</ele>
        <time>2022-10-06T10:16:50Z</time>
      </trkpt>
      <trkpt lat="44.76301" lon="-0.10134">
        <ele>72.6</ele>
        <time>2022-10-06T10:16:51Z</time>
      </trkpt>
      <trkpt lat="44.76302" lon="-0.10133">
        <ele>72.6</ele>
        <time>2022-10-06T10:16:52Z</time>
      </trkpt>
      <trkpt lat="44.76303" lon="-0.10133">
        <ele>72.6</ele>
        <time>2022-10-06T10:16:53Z</time>
      </trkpt>
      <trkpt lat="44.76305" lon="-0.10132">
        <ele>72.7</ele>
        <time>2022-10-06T10:16:54Z</time>
      </trkpt>
      <trkpt lat="44.76306" lon="-0.10132">
        <ele>72.7</ele>
        <time>2022-10-06T10:16:55Z</time>
      </trkpt>
      <trkpt lat="44.76307" lon="-0.10131">
        <ele>72.7</ele>
        <time>2022-10-06T10:16:56Z</time>
      </trkpt>
      <trkpt lat="44.76308" lon="-0.10131">
        <ele>72.8</ele>
        <time>2022-10-06T10:16:57Z</time>
      </trkpt>
      <trkpt lat="44.76312" lon="-0.1013">
        <ele>72.8</ele>
        <time>2022-10-06T10:16:59Z</time>
      </trkpt>
      <trkpt lat="44.76312" lon="-0.10129">
        <ele>72.9</ele>
        <time>2022-10-06T10:17:00Z</time>
      </trkpt>
      <trkpt lat="44.76313" lon="-0.10129">
        <ele>73</ele>
        <time>2022-10-06T10:17:01Z</time>
      </trkpt>
      <trkpt lat="44.76315" lon="-0.10128">
        <ele>73</ele>
        <time>2022-10-06T10:17:03Z</time>
      </trkpt>
      <trkpt lat="44.76316" lon="-0.10128">
        <ele>73.2</ele>
        <time>2022-10-06T10:17:04Z</time>
      </trkpt>
      <trkpt lat="44.76318" lon="-0.10127">
        <ele>73.2</ele>
        <time>2022-10-06T10:17:06Z</time>
      </trkpt>
      <trkpt lat="44.76319" lon="-0.10126">
        <ele>73.2</ele>
        <time>2022-10-06T10:17:07Z</time>
      </trkpt>
      <trkpt lat="44.76319" lon="-0.10126">
        <ele>73.2</ele>
        <time>2022-10-06T10:17:08Z</time>
      </trkpt>
      <trkpt lat="44.7632" lon="-0.10127">
        <ele>73.2</ele>
        <time>2022-10-06T10:17:10Z</time>
      </trkpt>
      <trkpt lat="44.7632" lon="-0.10127">
        <ele>73.2</ele>
        <time>2022-10-06T10:17:11Z</time>
      </trkpt>
      <trkpt lat="44.7632" lon="-0.10127">
        <ele>73.3</ele>
        <time>2022-10-06T10:17:12Z</time>
      </trkpt>
      <trkpt lat="44.7632" lon="-0.10127">
        <ele>73.3</ele>
        <time>2022-10-06T10:17:13Z</time>
      </trkpt>
      <trkpt lat="44.7632" lon="-0.10127">
        <ele>73.3</ele>
        <time>2022-10-06T10:17:15Z</time>
      </trkpt>
      <trkpt lat="44.76322" lon="-0.10126">
        <ele>73.3</ele>
        <time>2022-10-06T10:17:16Z</time>
      </trkpt>
      <trkpt lat="44.76323" lon="-0.10126">
        <ele>73.4</ele>
        <time>2022-10-06T10:17:18Z</time>
      </trkpt>
      <trkpt lat="44.76325" lon="-0.10125">
        <ele>73.4</ele>
        <time>2022-10-06T10:17:19Z</time>
      </trkpt>
      <trkpt lat="44.76326" lon="-0.10124">
        <ele>73.6</ele>
        <time>2022-10-06T10:17:21Z</time>
      </trkpt>
      <trkpt lat="44.76327" lon="-0.10123">
        <ele>73.6</ele>
        <time>2022-10-06T10:17:22Z</time>
      </trkpt>
      <trkpt lat="44.76329" lon="-0.10122">
        <ele>73.7</ele>
        <time>2022-10-06T10:17:23Z</time>
      </trkpt>
      <trkpt lat="44.7633" lon="-0.10122">
        <ele>73.8</ele>
        <time>2022-10-06T10:17:24Z</time>
      </trkpt>
      <trkpt lat="44.76331" lon="-0.10122">
        <ele>73.8</ele>
        <time>2022-10-06T10:17:25Z</time>
      </trkpt>
      <trkpt lat="44.76332" lon="-0.10122">
        <ele>73.8</ele>
        <time>2022-10-06T10:17:26Z</time>
      </trkpt>
      <trkpt lat="44.76333" lon="-0.10122">
        <ele>73.8</ele>
        <time>2022-10-06T10:17:27Z</time>
      </trkpt>
      <trkpt lat="44.76334" lon="-0.10122">
        <ele>73.8</ele>
        <time>2022-10-06T10:17:28Z</time>
      </trkpt>
      <trkpt lat="44.76335" lon="-0.10122">
        <ele>73.9</ele>
        <time>2022-10-06T10:17:29Z</time>
      </trkpt>
      <trkpt lat="44.76336" lon="-0.10121">
        <ele>73.9</ele>
        <time>2022-10-06T10:17:30Z</time>
      </trkpt>
      <trkpt lat="44.76337" lon="-0.10121">
        <ele>74</ele>
        <time>2022-10-06T10:17:31Z</time>
      </trkpt>
      <trkpt lat="44.76338" lon="-0.10121">
        <ele>74</ele>
        <time>2022-10-06T10:17:32Z</time>
      </trkpt>
      <trkpt lat="44.7634" lon="-0.1012">
        <ele>74.1</ele>
        <time>2022-10-06T10:17:33Z</time>
      </trkpt>
      <trkpt lat="44.76341" lon="-0.1012">
        <ele>74.1</ele>
        <time>2022-10-06T10:17:34Z</time>
      </trkpt>
      <trkpt lat="44.76342" lon="-0.10119">
        <ele>74.3</ele>
        <time>2022-10-06T10:17:35Z</time>
      </trkpt>
      <trkpt lat="44.76344" lon="-0.10118">
        <ele>74.3</ele>
        <time>2022-10-06T10:17:36Z</time>
      </trkpt>
      <trkpt lat="44.76345" lon="-0.10118">
        <ele>74.3</ele>
        <time>2022-10-06T10:17:37Z</time>
      </trkpt>
      <trkpt lat="44.76346" lon="-0.10118">
        <ele>74.3</ele>
        <time>2022-10-06T10:17:38Z</time>
      </trkpt>
      <trkpt lat="44.76347" lon="-0.10118">
        <ele>74.4</ele>
        <time>2022-10-06T10:17:39Z</time>
      </trkpt>
      <trkpt lat="44.76349" lon="-0.10118">
        <ele>74.4</ele>
        <time>2022-10-06T10:17:40Z</time>
      </trkpt>
      <trkpt lat="44.76351" lon="-0.10118">
        <ele>74.5</ele>
        <time>2022-10-06T10:17:41Z</time>
      </trkpt>
      <trkpt lat="44.76352" lon="-0.10117">
        <ele>74.6</ele>
        <time>2022-10-06T10:17:42Z</time>
      </trkpt>
      <trkpt lat="44.76353" lon="-0.10117">
        <ele>74.6</ele>
        <time>2022-10-06T10:17:43Z</time>
      </trkpt>
      <trkpt lat="44.76354" lon="-0.10117">
        <ele>74.6</ele>
        <time>2022-10-06T10:17:44Z</time>
      </trkpt>
      <trkpt lat="44.76356" lon="-0.10116">
        <ele>74.7</ele>
        <time>2022-10-06T10:17:45Z</time>
      </trkpt>
      <trkpt lat="44.76357" lon="-0.10116">
        <ele>74.7</ele>
        <time>2022-10-06T10:17:46Z</time>
      </trkpt>
      <trkpt lat="44.76358" lon="-0.10115">
        <ele>74.8</ele>
        <time>2022-10-06T10:17:47Z</time>
      </trkpt>
      <trkpt lat="44.76359" lon="-0.10114">
        <ele>74.9</ele>
        <time>2022-10-06T10:17:48Z</time>
      </trkpt>
      <trkpt lat="44.7636" lon="-0.10114">
        <ele>74.9</ele>
        <time>2022-10-06T10:17:49Z</time>
      </trkpt>
      <trkpt lat="44.76362" lon="-0.10114">
        <ele>74.9</ele>
        <time>2022-10-06T10:17:50Z</time>
      </trkpt>
      <trkpt lat="44.76364" lon="-0.10114">
        <ele>75</ele>
        <time>2022-10-06T10:17:51Z</time>
      </trkpt>
      <trkpt lat="44.76365" lon="-0.10114">
        <ele>75</ele>
        <time>2022-10-06T10:17:52Z</time>
      </trkpt>
      <trkpt lat="44.76365" lon="-0.10114">
        <ele>75</ele>
        <time>2022-10-06T10:17:53Z</time>
      </trkpt>
      <trkpt lat="44.76368" lon="-0.10114">
        <ele>75.1</ele>
        <time>2022-10-06T10:17:55Z</time>
      </trkpt>
      <trkpt lat="44.76371" lon="-0.10115">
        <ele>75.1</ele>
        <time>2022-10-06T10:17:57Z</time>
      </trkpt>
      <trkpt lat="44.76372" lon="-0.10115">
        <ele>75.2</ele>
        <time>2022-10-06T10:17:58Z</time>
      </trkpt>
      <trkpt lat="44.76373" lon="-0.10115">
        <ele>75.2</ele>
        <time>2022-10-06T10:17:59Z</time>
      </trkpt>
      <trkpt lat="44.76374" lon="-0.10115">
        <ele>75.3</ele>
        <time>2022-10-06T10:18:00Z</time>
      </trkpt>
      <trkpt lat="44.76375" lon="-0.10115">
        <ele>75.3</ele>
        <time>2022-10-06T10:18:01Z</time>
      </trkpt>
      <trkpt lat="44.76376" lon="-0.10115">
        <ele>75.3</ele>
        <time>2022-10-06T10:18:02Z</time>
      </trkpt>
      <trkpt lat="44.76378" lon="-0.10115">
        <ele>75.4</ele>
        <time>2022-10-06T10:18:03Z</time>
      </trkpt>
      <trkpt lat="44.76379" lon="-0.10115">
        <ele>75.4</ele>
        <time>2022-10-06T10:18:04Z</time>
      </trkpt>
      <trkpt lat="44.76381" lon="-0.10115">
        <ele>75.5</ele>
        <time>2022-10-06T10:18:05Z</time>
      </trkpt>
      <trkpt lat="44.76382" lon="-0.10115">
        <ele>75.5</ele>
        <time>2022-10-06T10:18:06Z</time>
      </trkpt>
      <trkpt lat="44.76384" lon="-0.10115">
        <ele>75.6</ele>
        <time>2022-10-06T10:18:07Z</time>
      </trkpt>
      <trkpt lat="44.76385" lon="-0.10115">
        <ele>75.6</ele>
        <time>2022-10-06T10:18:08Z</time>
      </trkpt>
      <trkpt lat="44.76385" lon="-0.10115">
        <ele>75.5</ele>
        <time>2022-10-06T10:18:09Z</time>
      </trkpt>
      <trkpt lat="44.76388" lon="-0.10116">
        <ele>75.6</ele>
        <time>2022-10-06T10:18:10Z</time>
      </trkpt>
      <trkpt lat="44.76388" lon="-0.10116">
        <ele>75.6</ele>
        <time>2022-10-06T10:18:11Z</time>
      </trkpt>
      <trkpt lat="44.76389" lon="-0.10116">
        <ele>75.7</ele>
        <time>2022-10-06T10:18:12Z</time>
      </trkpt>
      <trkpt lat="44.7639" lon="-0.10116">
        <ele>75.8</ele>
        <time>2022-10-06T10:18:13Z</time>
      </trkpt>
      <trkpt lat="44.76391" lon="-0.10117">
        <ele>75.8</ele>
        <time>2022-10-06T10:18:14Z</time>
      </trkpt>
      <trkpt lat="44.76392" lon="-0.10116">
        <ele>75.9</ele>
        <time>2022-10-06T10:18:15Z</time>
      </trkpt>
      <trkpt lat="44.76393" lon="-0.10116">
        <ele>75.9</ele>
        <time>2022-10-06T10:18:16Z</time>
      </trkpt>
      <trkpt lat="44.76394" lon="-0.10116">
        <ele>75.9</ele>
        <time>2022-10-06T10:18:17Z</time>
      </trkpt>
      <trkpt lat="44.76396" lon="-0.10115">
        <ele>76</ele>
        <time>2022-10-06T10:18:18Z</time>
      </trkpt>
      <trkpt lat="44.76397" lon="-0.10115">
        <ele>76</ele>
        <time>2022-10-06T10:18:19Z</time>
      </trkpt>
      <trkpt lat="44.76398" lon="-0.10115">
        <ele>76.1</ele>
        <time>2022-10-06T10:18:20Z</time>
      </trkpt>
      <trkpt lat="44.764" lon="-0.10114">
        <ele>76.3</ele>
        <time>2022-10-06T10:18:21Z</time>
      </trkpt>
      <trkpt lat="44.76401" lon="-0.10114">
        <ele>76.3</ele>
        <time>2022-10-06T10:18:22Z</time>
      </trkpt>
      <trkpt lat="44.76402" lon="-0.10114">
        <ele>76.5</ele>
        <time>2022-10-06T10:18:23Z</time>
      </trkpt>
      <trkpt lat="44.76403" lon="-0.10113">
        <ele>76.5</ele>
        <time>2022-10-06T10:18:24Z</time>
      </trkpt>
      <trkpt lat="44.76404" lon="-0.10112">
        <ele>76.5</ele>
        <time>2022-10-06T10:18:25Z</time>
      </trkpt>
      <trkpt lat="44.76405" lon="-0.10112">
        <ele>76.6</ele>
        <time>2022-10-06T10:18:26Z</time>
      </trkpt>
      <trkpt lat="44.76407" lon="-0.10111">
        <ele>76.6</ele>
        <time>2022-10-06T10:18:27Z</time>
      </trkpt>
      <trkpt lat="44.76408" lon="-0.10111">
        <ele>76.7</ele>
        <time>2022-10-06T10:18:28Z</time>
      </trkpt>
      <trkpt lat="44.76408" lon="-0.10111">
        <ele>76.8</ele>
        <time>2022-10-06T10:18:29Z</time>
      </trkpt>
      <trkpt lat="44.7641" lon="-0.1011">
        <ele>76.8</ele>
        <time>2022-10-06T10:18:30Z</time>
      </trkpt>
      <trkpt lat="44.7641" lon="-0.10109">
        <ele>77</ele>
        <time>2022-10-06T10:18:31Z</time>
      </trkpt>
      <trkpt lat="44.76412" lon="-0.10109">
        <ele>77</ele>
        <time>2022-10-06T10:18:32Z</time>
      </trkpt>
      <trkpt lat="44.76414" lon="-0.10108">
        <ele>77.1</ele>
        <time>2022-10-06T10:18:33Z</time>
      </trkpt>
      <trkpt lat="44.76414" lon="-0.10108">
        <ele>77.1</ele>
        <time>2022-10-06T10:18:34Z</time>
      </trkpt>
      <trkpt lat="44.76415" lon="-0.10107">
        <ele>77.1</ele>
        <time>2022-10-06T10:18:35Z</time>
      </trkpt>
      <trkpt lat="44.76416" lon="-0.10106">
        <ele>77.2</ele>
        <time>2022-10-06T10:18:36Z</time>
      </trkpt>
      <trkpt lat="44.76417" lon="-0.10106">
        <ele>77.3</ele>
        <time>2022-10-06T10:18:37Z</time>
      </trkpt>
      <trkpt lat="44.76418" lon="-0.10106">
        <ele>77.3</ele>
        <time>2022-10-06T10:18:38Z</time>
      </trkpt>
      <trkpt lat="44.76419" lon="-0.10105">
        <ele>77.4</ele>
        <time>2022-10-06T10:18:39Z</time>
      </trkpt>
      <trkpt lat="44.76421" lon="-0.10105">
        <ele>77.6</ele>
        <time>2022-10-06T10:18:40Z</time>
      </trkpt>
      <trkpt lat="44.76422" lon="-0.10104">
        <ele>77.6</ele>
        <time>2022-10-06T10:18:41Z</time>
      </trkpt>
      <trkpt lat="44.76423" lon="-0.10104">
        <ele>77.7</ele>
        <time>2022-10-06T10:18:42Z</time>
      </trkpt>
      <trkpt lat="44.76424" lon="-0.10104">
        <ele>77.7</ele>
        <time>2022-10-06T10:18:43Z</time>
      </trkpt>
      <trkpt lat="44.76426" lon="-0.10103">
        <ele>77.7</ele>
        <time>2022-10-06T10:18:44Z</time>
      </trkpt>
      <trkpt lat="44.76427" lon="-0.10102">
        <ele>77.8</ele>
        <time>2022-10-06T10:18:45Z</time>
      </trkpt>
      <trkpt lat="44.76429" lon="-0.10102">
        <ele>78</ele>
        <time>2022-10-06T10:18:46Z</time>
      </trkpt>
      <trkpt lat="44.7643" lon="-0.10101">
        <ele>78</ele>
        <time>2022-10-06T10:18:47Z</time>
      </trkpt>
      <trkpt lat="44.76431" lon="-0.10101">
        <ele>78</ele>
        <time>2022-10-06T10:18:48Z</time>
      </trkpt>
      <trkpt lat="44.76432" lon="-0.101">
        <ele>78.1</ele>
        <time>2022-10-06T10:18:49Z</time>
      </trkpt>
      <trkpt lat="44.76434" lon="-0.10099">
        <ele>78.1</ele>
        <time>2022-10-06T10:18:50Z</time>
      </trkpt>
      <trkpt lat="44.76436" lon="-0.10099">
        <ele>78.3</ele>
        <time>2022-10-06T10:18:51Z</time>
      </trkpt>
      <trkpt lat="44.76436" lon="-0.10099">
        <ele>78.3</ele>
        <time>2022-10-06T10:18:52Z</time>
      </trkpt>
      <trkpt lat="44.76437" lon="-0.10099">
        <ele>78.3</ele>
        <time>2022-10-06T10:18:53Z</time>
      </trkpt>
      <trkpt lat="44.76438" lon="-0.10099">
        <ele>78.4</ele>
        <time>2022-10-06T10:18:54Z</time>
      </trkpt>
      <trkpt lat="44.7644" lon="-0.10098">
        <ele>78.5</ele>
        <time>2022-10-06T10:18:55Z</time>
      </trkpt>
      <trkpt lat="44.7644" lon="-0.10098">
        <ele>78.5</ele>
        <time>2022-10-06T10:18:56Z</time>
      </trkpt>
      <trkpt lat="44.76441" lon="-0.10097">
        <ele>78.6</ele>
        <time>2022-10-06T10:18:57Z</time>
      </trkpt>
      <trkpt lat="44.76442" lon="-0.10097">
        <ele>78.6</ele>
        <time>2022-10-06T10:18:58Z</time>
      </trkpt>
      <trkpt lat="44.76443" lon="-0.10096">
        <ele>78.6</ele>
        <time>2022-10-06T10:18:59Z</time>
      </trkpt>
      <trkpt lat="44.76444" lon="-0.10095">
        <ele>78.8</ele>
        <time>2022-10-06T10:19:00Z</time>
      </trkpt>
      <trkpt lat="44.76446" lon="-0.10095">
        <ele>78.8</ele>
        <time>2022-10-06T10:19:01Z</time>
      </trkpt>
      <trkpt lat="44.76447" lon="-0.10095">
        <ele>78.8</ele>
        <time>2022-10-06T10:19:02Z</time>
      </trkpt>
      <trkpt lat="44.76448" lon="-0.10095">
        <ele>78.9</ele>
        <time>2022-10-06T10:19:03Z</time>
      </trkpt>
      <trkpt lat="44.76449" lon="-0.10094">
        <ele>78.9</ele>
        <time>2022-10-06T10:19:04Z</time>
      </trkpt>
      <trkpt lat="44.7645" lon="-0.10094">
        <ele>79</ele>
        <time>2022-10-06T10:19:05Z</time>
      </trkpt>
      <trkpt lat="44.76452" lon="-0.10093">
        <ele>79.1</ele>
        <time>2022-10-06T10:19:06Z</time>
      </trkpt>
      <trkpt lat="44.76453" lon="-0.10092">
        <ele>79.1</ele>
        <time>2022-10-06T10:19:07Z</time>
      </trkpt>
      <trkpt lat="44.76454" lon="-0.10092">
        <ele>79.2</ele>
        <time>2022-10-06T10:19:08Z</time>
      </trkpt>
      <trkpt lat="44.76455" lon="-0.10091">
        <ele>79.2</ele>
        <time>2022-10-06T10:19:09Z</time>
      </trkpt>
      <trkpt lat="44.76458" lon="-0.1009">
        <ele>79.3</ele>
        <time>2022-10-06T10:19:10Z</time>
      </trkpt>
      <trkpt lat="44.76459" lon="-0.1009">
        <ele>79.3</ele>
        <time>2022-10-06T10:19:11Z</time>
      </trkpt>
      <trkpt lat="44.7646" lon="-0.1009">
        <ele>79.5</ele>
        <time>2022-10-06T10:19:12Z</time>
      </trkpt>
      <trkpt lat="44.76461" lon="-0.10089">
        <ele>79.5</ele>
        <time>2022-10-06T10:19:13Z</time>
      </trkpt>
      <trkpt lat="44.76462" lon="-0.10089">
        <ele>79.5</ele>
        <time>2022-10-06T10:19:14Z</time>
      </trkpt>
      <trkpt lat="44.76463" lon="-0.10088">
        <ele>79.6</ele>
        <time>2022-10-06T10:19:15Z</time>
      </trkpt>
      <trkpt lat="44.76464" lon="-0.10088">
        <ele>79.6</ele>
        <time>2022-10-06T10:19:16Z</time>
      </trkpt>
      <trkpt lat="44.76465" lon="-0.10087">
        <ele>79.8</ele>
        <time>2022-10-06T10:19:17Z</time>
      </trkpt>
      <trkpt lat="44.76466" lon="-0.10087">
        <ele>79.8</ele>
        <time>2022-10-06T10:19:18Z</time>
      </trkpt>
      <trkpt lat="44.76467" lon="-0.10086">
        <ele>79.8</ele>
        <time>2022-10-06T10:19:19Z</time>
      </trkpt>
      <trkpt lat="44.76469" lon="-0.10086">
        <ele>79.9</ele>
        <time>2022-10-06T10:19:20Z</time>
      </trkpt>
      <trkpt lat="44.76472" lon="-0.10085">
        <ele>80.1</ele>
        <time>2022-10-06T10:19:22Z</time>
      </trkpt>
      <trkpt lat="44.76473" lon="-0.10085">
        <ele>80.1</ele>
        <time>2022-10-06T10:19:23Z</time>
      </trkpt>
      <trkpt lat="44.76474" lon="-0.10084">
        <ele>80.1</ele>
        <time>2022-10-06T10:19:24Z</time>
      </trkpt>
      <trkpt lat="44.76475" lon="-0.10084">
        <ele>80.2</ele>
        <time>2022-10-06T10:19:25Z</time>
      </trkpt>
      <trkpt lat="44.76477" lon="-0.10083">
        <ele>80.2</ele>
        <time>2022-10-06T10:19:26Z</time>
      </trkpt>
      <trkpt lat="44.76478" lon="-0.10083">
        <ele>80.4</ele>
        <time>2022-10-06T10:19:27Z</time>
      </trkpt>
      <trkpt lat="44.76479" lon="-0.10083">
        <ele>80.4</ele>
        <time>2022-10-06T10:19:28Z</time>
      </trkpt>
      <trkpt lat="44.76481" lon="-0.10082">
        <ele>80.5</ele>
        <time>2022-10-06T10:19:29Z</time>
      </trkpt>
      <trkpt lat="44.76482" lon="-0.10081">
        <ele>80.5</ele>
        <time>2022-10-06T10:19:30Z</time>
      </trkpt>
      <trkpt lat="44.76483" lon="-0.10081">
        <ele>80.5</ele>
        <time>2022-10-06T10:19:31Z</time>
      </trkpt>
      <trkpt lat="44.76484" lon="-0.1008">
        <ele>80.7</ele>
        <time>2022-10-06T10:19:32Z</time>
      </trkpt>
      <trkpt lat="44.76485" lon="-0.1008">
        <ele>80.7</ele>
        <time>2022-10-06T10:19:33Z</time>
      </trkpt>
      <trkpt lat="44.76486" lon="-0.10079">
        <ele>80.7</ele>
        <time>2022-10-06T10:19:34Z</time>
      </trkpt>
      <trkpt lat="44.76487" lon="-0.10078">
        <ele>80.8</ele>
        <time>2022-10-06T10:19:35Z</time>
      </trkpt>
      <trkpt lat="44.76489" lon="-0.10077">
        <ele>80.8</ele>
        <time>2022-10-06T10:19:36Z</time>
      </trkpt>
      <trkpt lat="44.7649" lon="-0.10077">
        <ele>81</ele>
        <time>2022-10-06T10:19:37Z</time>
      </trkpt>
      <trkpt lat="44.76491" lon="-0.10076">
        <ele>81</ele>
        <time>2022-10-06T10:19:38Z</time>
      </trkpt>
      <trkpt lat="44.76492" lon="-0.10075">
        <ele>81</ele>
        <time>2022-10-06T10:19:39Z</time>
      </trkpt>
      <trkpt lat="44.76492" lon="-0.10074">
        <ele>81</ele>
        <time>2022-10-06T10:19:40Z</time>
      </trkpt>
      <trkpt lat="44.76493" lon="-0.10073">
        <ele>81.2</ele>
        <time>2022-10-06T10:19:41Z</time>
      </trkpt>
      <trkpt lat="44.76494" lon="-0.10073">
        <ele>81.2</ele>
        <time>2022-10-06T10:19:42Z</time>
      </trkpt>
      <trkpt lat="44.76496" lon="-0.10072">
        <ele>81.2</ele>
        <time>2022-10-06T10:19:43Z</time>
      </trkpt>
      <trkpt lat="44.76496" lon="-0.10071">
        <ele>81.4</ele>
        <time>2022-10-06T10:19:44Z</time>
      </trkpt>
      <trkpt lat="44.76497" lon="-0.10071">
        <ele>81.4</ele>
        <time>2022-10-06T10:19:45Z</time>
      </trkpt>
      <trkpt lat="44.76499" lon="-0.1007">
        <ele>81.5</ele>
        <time>2022-10-06T10:19:46Z</time>
      </trkpt>
      <trkpt lat="44.765" lon="-0.10069">
        <ele>81.5</ele>
        <time>2022-10-06T10:19:47Z</time>
      </trkpt>
      <trkpt lat="44.76501" lon="-0.10069">
        <ele>81.5</ele>
        <time>2022-10-06T10:19:48Z</time>
      </trkpt>
      <trkpt lat="44.76502" lon="-0.10068">
        <ele>81.6</ele>
        <time>2022-10-06T10:19:49Z</time>
      </trkpt>
      <trkpt lat="44.76503" lon="-0.10067">
        <ele>81.8</ele>
        <time>2022-10-06T10:19:50Z</time>
      </trkpt>
      <trkpt lat="44.76504" lon="-0.10066">
        <ele>81.8</ele>
        <time>2022-10-06T10:19:51Z</time>
      </trkpt>
      <trkpt lat="44.76504" lon="-0.10065">
        <ele>81.8</ele>
        <time>2022-10-06T10:19:52Z</time>
      </trkpt>
      <trkpt lat="44.76505" lon="-0.10064">
        <ele>82</ele>
        <time>2022-10-06T10:19:53Z</time>
      </trkpt>
      <trkpt lat="44.76506" lon="-0.10063">
        <ele>82</ele>
        <time>2022-10-06T10:19:54Z</time>
      </trkpt>
      <trkpt lat="44.76507" lon="-0.10062">
        <ele>82</ele>
        <time>2022-10-06T10:19:55Z</time>
      </trkpt>
      <trkpt lat="44.76509" lon="-0.10061">
        <ele>82.2</ele>
        <time>2022-10-06T10:19:56Z</time>
      </trkpt>
      <trkpt lat="44.76509" lon="-0.1006">
        <ele>82.2</ele>
        <time>2022-10-06T10:19:57Z</time>
      </trkpt>
      <trkpt lat="44.76511" lon="-0.10059">
        <ele>82.2</ele>
        <time>2022-10-06T10:19:58Z</time>
      </trkpt>
      <trkpt lat="44.76512" lon="-0.10058">
        <ele>82.4</ele>
        <time>2022-10-06T10:19:59Z</time>
      </trkpt>
      <trkpt lat="44.76513" lon="-0.10057">
        <ele>82.4</ele>
        <time>2022-10-06T10:20:00Z</time>
      </trkpt>
      <trkpt lat="44.76514" lon="-0.10056">
        <ele>82.6</ele>
        <time>2022-10-06T10:20:01Z</time>
      </trkpt>
      <trkpt lat="44.76515" lon="-0.10056">
        <ele>82.6</ele>
        <time>2022-10-06T10:20:02Z</time>
      </trkpt>
      <trkpt lat="44.76516" lon="-0.10055">
        <ele>82.7</ele>
        <time>2022-10-06T10:20:03Z</time>
      </trkpt>
      <trkpt lat="44.76516" lon="-0.10054">
        <ele>82.7</ele>
        <time>2022-10-06T10:20:04Z</time>
      </trkpt>
      <trkpt lat="44.76517" lon="-0.10053">
        <ele>82.9</ele>
        <time>2022-10-06T10:20:05Z</time>
      </trkpt>
      <trkpt lat="44.76519" lon="-0.10052">
        <ele>82.9</ele>
        <time>2022-10-06T10:20:06Z</time>
      </trkpt>
      <trkpt lat="44.7652" lon="-0.10052">
        <ele>82.9</ele>
        <time>2022-10-06T10:20:07Z</time>
      </trkpt>
      <trkpt lat="44.76521" lon="-0.10051">
        <ele>83.1</ele>
        <time>2022-10-06T10:20:08Z</time>
      </trkpt>
      <trkpt lat="44.76522" lon="-0.1005">
        <ele>83.1</ele>
        <time>2022-10-06T10:20:09Z</time>
      </trkpt>
      <trkpt lat="44.76523" lon="-0.10049">
        <ele>83.1</ele>
        <time>2022-10-06T10:20:10Z</time>
      </trkpt>
      <trkpt lat="44.76524" lon="-0.10048">
        <ele>83.3</ele>
        <time>2022-10-06T10:20:11Z</time>
      </trkpt>
      <trkpt lat="44.76525" lon="-0.10047">
        <ele>83.3</ele>
        <time>2022-10-06T10:20:12Z</time>
      </trkpt>
      <trkpt lat="44.76527" lon="-0.10046">
        <ele>83.6</ele>
        <time>2022-10-06T10:20:13Z</time>
      </trkpt>
      <trkpt lat="44.76528" lon="-0.10045">
        <ele>83.6</ele>
        <time>2022-10-06T10:20:14Z</time>
      </trkpt>
      <trkpt lat="44.76528" lon="-0.10044">
        <ele>83.6</ele>
        <time>2022-10-06T10:20:15Z</time>
      </trkpt>
      <trkpt lat="44.7653" lon="-0.10043">
        <ele>83.8</ele>
        <time>2022-10-06T10:20:16Z</time>
      </trkpt>
      <trkpt lat="44.76531" lon="-0.10042">
        <ele>83.9</ele>
        <time>2022-10-06T10:20:17Z</time>
      </trkpt>
      <trkpt lat="44.76532" lon="-0.1004">
        <ele>84.1</ele>
        <time>2022-10-06T10:20:18Z</time>
      </trkpt>
      <trkpt lat="44.76533" lon="-0.1004">
        <ele>84.1</ele>
        <time>2022-10-06T10:20:19Z</time>
      </trkpt>
      <trkpt lat="44.76534" lon="-0.10039">
        <ele>84.1</ele>
        <time>2022-10-06T10:20:20Z</time>
      </trkpt>
      <trkpt lat="44.76536" lon="-0.10037">
        <ele>84.4</ele>
        <time>2022-10-06T10:20:21Z</time>
      </trkpt>
      <trkpt lat="44.76536" lon="-0.10037">
        <ele>84.4</ele>
        <time>2022-10-06T10:20:22Z</time>
      </trkpt>
      <trkpt lat="44.76537" lon="-0.10036">
        <ele>84.4</ele>
        <time>2022-10-06T10:20:23Z</time>
      </trkpt>
      <trkpt lat="44.76539" lon="-0.10035">
        <ele>84.5</ele>
        <time>2022-10-06T10:20:24Z</time>
      </trkpt>
      <trkpt lat="44.7654" lon="-0.10034">
        <ele>84.5</ele>
        <time>2022-10-06T10:20:25Z</time>
      </trkpt>
      <trkpt lat="44.7654" lon="-0.10033">
        <ele>84.6</ele>
        <time>2022-10-06T10:20:26Z</time>
      </trkpt>
      <trkpt lat="44.76541" lon="-0.10033">
        <ele>84.6</ele>
        <time>2022-10-06T10:20:27Z</time>
      </trkpt>
      <trkpt lat="44.76542" lon="-0.10032">
        <ele>84.8</ele>
        <time>2022-10-06T10:20:28Z</time>
      </trkpt>
      <trkpt lat="44.76543" lon="-0.10031">
        <ele>84.8</ele>
        <time>2022-10-06T10:20:29Z</time>
      </trkpt>
      <trkpt lat="44.76544" lon="-0.1003">
        <ele>84.8</ele>
        <time>2022-10-06T10:20:30Z</time>
      </trkpt>
      <trkpt lat="44.76546" lon="-0.10029">
        <ele>85.1</ele>
        <time>2022-10-06T10:20:31Z</time>
      </trkpt>
      <trkpt lat="44.76546" lon="-0.10028">
        <ele>85.1</ele>
        <time>2022-10-06T10:20:32Z</time>
      </trkpt>
      <trkpt lat="44.76548" lon="-0.10027">
        <ele>85.3</ele>
        <time>2022-10-06T10:20:33Z</time>
      </trkpt>
      <trkpt lat="44.76549" lon="-0.10026">
        <ele>85.3</ele>
        <time>2022-10-06T10:20:34Z</time>
      </trkpt>
      <trkpt lat="44.7655" lon="-0.10026">
        <ele>85.3</ele>
        <time>2022-10-06T10:20:35Z</time>
      </trkpt>
      <trkpt lat="44.76551" lon="-0.10025">
        <ele>85.6</ele>
        <time>2022-10-06T10:20:36Z</time>
      </trkpt>
      <trkpt lat="44.76552" lon="-0.10024">
        <ele>85.6</ele>
        <time>2022-10-06T10:20:37Z</time>
      </trkpt>
      <trkpt lat="44.76553" lon="-0.10023">
        <ele>85.6</ele>
        <time>2022-10-06T10:20:38Z</time>
      </trkpt>
      <trkpt lat="44.76554" lon="-0.10023">
        <ele>85.8</ele>
        <time>2022-10-06T10:20:39Z</time>
      </trkpt>
      <trkpt lat="44.76555" lon="-0.10022">
        <ele>85.8</ele>
        <time>2022-10-06T10:20:40Z</time>
      </trkpt>
      <trkpt lat="44.76557" lon="-0.10021">
        <ele>85.9</ele>
        <time>2022-10-06T10:20:41Z</time>
      </trkpt>
      <trkpt lat="44.76558" lon="-0.1002">
        <ele>86.1</ele>
        <time>2022-10-06T10:20:42Z</time>
      </trkpt>
      <trkpt lat="44.76559" lon="-0.1002">
        <ele>86.1</ele>
        <time>2022-10-06T10:20:43Z</time>
      </trkpt>
      <trkpt lat="44.7656" lon="-0.10019">
        <ele>86.1</ele>
        <time>2022-10-06T10:20:44Z</time>
      </trkpt>
      <trkpt lat="44.76561" lon="-0.10019">
        <ele>86.3</ele>
        <time>2022-10-06T10:20:45Z</time>
      </trkpt>
      <trkpt lat="44.76562" lon="-0.10019">
        <ele>86.3</ele>
        <time>2022-10-06T10:20:46Z</time>
      </trkpt>
      <trkpt lat="44.76563" lon="-0.10019">
        <ele>86.5</ele>
        <time>2022-10-06T10:20:47Z</time>
      </trkpt>
      <trkpt lat="44.76564" lon="-0.10018">
        <ele>86.5</ele>
        <time>2022-10-06T10:20:48Z</time>
      </trkpt>
      <trkpt lat="44.76565" lon="-0.10017">
        <ele>86.5</ele>
        <time>2022-10-06T10:20:49Z</time>
      </trkpt>
      <trkpt lat="44.76567" lon="-0.10017">
        <ele>86.7</ele>
        <time>2022-10-06T10:20:50Z</time>
      </trkpt>
      <trkpt lat="44.76568" lon="-0.10016">
        <ele>86.8</ele>
        <time>2022-10-06T10:20:51Z</time>
      </trkpt>
      <trkpt lat="44.7657" lon="-0.10015">
        <ele>86.9</ele>
        <time>2022-10-06T10:20:52Z</time>
      </trkpt>
      <trkpt lat="44.76571" lon="-0.10015">
        <ele>86.9</ele>
        <time>2022-10-06T10:20:53Z</time>
      </trkpt>
      <trkpt lat="44.76572" lon="-0.10015">
        <ele>87.1</ele>
        <time>2022-10-06T10:20:54Z</time>
      </trkpt>
      <trkpt lat="44.76573" lon="-0.10015">
        <ele>87.1</ele>
        <time>2022-10-06T10:20:55Z</time>
      </trkpt>
      <trkpt lat="44.76575" lon="-0.10014">
        <ele>87.3</ele>
        <time>2022-10-06T10:20:56Z</time>
      </trkpt>
      <trkpt lat="44.76577" lon="-0.10013">
        <ele>87.3</ele>
        <time>2022-10-06T10:20:57Z</time>
      </trkpt>
      <trkpt lat="44.76578" lon="-0.10013">
        <ele>87.5</ele>
        <time>2022-10-06T10:20:58Z</time>
      </trkpt>
      <trkpt lat="44.76579" lon="-0.10013">
        <ele>87.5</ele>
        <time>2022-10-06T10:20:59Z</time>
      </trkpt>
      <trkpt lat="44.76581" lon="-0.10013">
        <ele>87.5</ele>
        <time>2022-10-06T10:21:00Z</time>
      </trkpt>
      <trkpt lat="44.76582" lon="-0.10013">
        <ele>87.7</ele>
        <time>2022-10-06T10:21:01Z</time>
      </trkpt>
      <trkpt lat="44.76582" lon="-0.10013">
        <ele>87.7</ele>
        <time>2022-10-06T10:21:02Z</time>
      </trkpt>
      <trkpt lat="44.76583" lon="-0.10013">
        <ele>87.7</ele>
        <time>2022-10-06T10:21:03Z</time>
      </trkpt>
      <trkpt lat="44.76584" lon="-0.10013">
        <ele>87.9</ele>
        <time>2022-10-06T10:21:04Z</time>
      </trkpt>
      <trkpt lat="44.76585" lon="-0.10013">
        <ele>87.9</ele>
        <time>2022-10-06T10:21:05Z</time>
      </trkpt>
      <trkpt lat="44.76587" lon="-0.10013">
        <ele>88.1</ele>
        <time>2022-10-06T10:21:06Z</time>
      </trkpt>
      <trkpt lat="44.76588" lon="-0.10012">
        <ele>88.1</ele>
        <time>2022-10-06T10:21:07Z</time>
      </trkpt>
      <trkpt lat="44.76588" lon="-0.10012">
        <ele>88.1</ele>
        <time>2022-10-06T10:21:08Z</time>
      </trkpt>
      <trkpt lat="44.76589" lon="-0.10012">
        <ele>88.1</ele>
        <time>2022-10-06T10:21:09Z</time>
      </trkpt>
      <trkpt lat="44.76591" lon="-0.10012">
        <ele>88.4</ele>
        <time>2022-10-06T10:21:10Z</time>
      </trkpt>
      <trkpt lat="44.76592" lon="-0.10012">
        <ele>88.4</ele>
        <time>2022-10-06T10:21:11Z</time>
      </trkpt>
      <trkpt lat="44.76593" lon="-0.10012">
        <ele>88.4</ele>
        <time>2022-10-06T10:21:12Z</time>
      </trkpt>
      <trkpt lat="44.76593" lon="-0.10011">
        <ele>88.6</ele>
        <time>2022-10-06T10:21:13Z</time>
      </trkpt>
      <trkpt lat="44.76594" lon="-0.10011">
        <ele>88.6</ele>
        <time>2022-10-06T10:21:14Z</time>
      </trkpt>
      <trkpt lat="44.76595" lon="-0.10011">
        <ele>88.6</ele>
        <time>2022-10-06T10:21:15Z</time>
      </trkpt>
      <trkpt lat="44.76597" lon="-0.1001">
        <ele>88.8</ele>
        <time>2022-10-06T10:21:16Z</time>
      </trkpt>
      <trkpt lat="44.76598" lon="-0.1001">
        <ele>88.8</ele>
        <time>2022-10-06T10:21:17Z</time>
      </trkpt>
      <trkpt lat="44.76598" lon="-0.10009">
        <ele>88.8</ele>
        <time>2022-10-06T10:21:18Z</time>
      </trkpt>
      <trkpt lat="44.76599" lon="-0.10009">
        <ele>88.8</ele>
        <time>2022-10-06T10:21:19Z</time>
      </trkpt>
      <trkpt lat="44.766" lon="-0.10008">
        <ele>88.9</ele>
        <time>2022-10-06T10:21:20Z</time>
      </trkpt>
      <trkpt lat="44.76602" lon="-0.10008">
        <ele>89</ele>
        <time>2022-10-06T10:21:21Z</time>
      </trkpt>
      <trkpt lat="44.76603" lon="-0.10007">
        <ele>89.2</ele>
        <time>2022-10-06T10:21:22Z</time>
      </trkpt>
      <trkpt lat="44.76604" lon="-0.10007">
        <ele>89.2</ele>
        <time>2022-10-06T10:21:23Z</time>
      </trkpt>
      <trkpt lat="44.76605" lon="-0.10007">
        <ele>89.2</ele>
        <time>2022-10-06T10:21:24Z</time>
      </trkpt>
      <trkpt lat="44.76606" lon="-0.10006">
        <ele>89.4</ele>
        <time>2022-10-06T10:21:25Z</time>
      </trkpt>
      <trkpt lat="44.76607" lon="-0.10006">
        <ele>89.4</ele>
        <time>2022-10-06T10:21:26Z</time>
      </trkpt>
      <trkpt lat="44.76608" lon="-0.10006">
        <ele>89.4</ele>
        <time>2022-10-06T10:21:27Z</time>
      </trkpt>
      <trkpt lat="44.76609" lon="-0.10005">
        <ele>89.6</ele>
        <time>2022-10-06T10:21:28Z</time>
      </trkpt>
      <trkpt lat="44.7661" lon="-0.10005">
        <ele>89.6</ele>
        <time>2022-10-06T10:21:29Z</time>
      </trkpt>
      <trkpt lat="44.76611" lon="-0.10005">
        <ele>89.6</ele>
        <time>2022-10-06T10:21:30Z</time>
      </trkpt>
      <trkpt lat="44.76613" lon="-0.10004">
        <ele>89.8</ele>
        <time>2022-10-06T10:21:31Z</time>
      </trkpt>
      <trkpt lat="44.76614" lon="-0.10004">
        <ele>89.8</ele>
        <time>2022-10-06T10:21:32Z</time>
      </trkpt>
      <trkpt lat="44.76614" lon="-0.10004">
        <ele>89.8</ele>
        <time>2022-10-06T10:21:33Z</time>
      </trkpt>
      <trkpt lat="44.76617" lon="-0.10003">
        <ele>90.1</ele>
        <time>2022-10-06T10:21:34Z</time>
      </trkpt>
      <trkpt lat="44.76618" lon="-0.10003">
        <ele>90.3</ele>
        <time>2022-10-06T10:21:35Z</time>
      </trkpt>
      <trkpt lat="44.76619" lon="-0.10002">
        <ele>90.3</ele>
        <time>2022-10-06T10:21:36Z</time>
      </trkpt>
      <trkpt lat="44.7662" lon="-0.10001">
        <ele>90.3</ele>
        <time>2022-10-06T10:21:37Z</time>
      </trkpt>
      <trkpt lat="44.76621" lon="-0.10001">
        <ele>90.4</ele>
        <time>2022-10-06T10:21:38Z</time>
      </trkpt>
      <trkpt lat="44.76622" lon="-0.10001">
        <ele>90.4</ele>
        <time>2022-10-06T10:21:39Z</time>
      </trkpt>
      <trkpt lat="44.76622" lon="-0.10001">
        <ele>90.4</ele>
        <time>2022-10-06T10:21:40Z</time>
      </trkpt>
      <trkpt lat="44.76624" lon="-0.1">
        <ele>90.6</ele>
        <time>2022-10-06T10:21:41Z</time>
      </trkpt>
      <trkpt lat="44.76624" lon="-0.1">
        <ele>90.6</ele>
        <time>2022-10-06T10:21:42Z</time>
      </trkpt>
      <trkpt lat="44.76626" lon="-0.1">
        <ele>90.6</ele>
        <time>2022-10-06T10:21:43Z</time>
      </trkpt>
      <trkpt lat="44.76627" lon="-0.09999">
        <ele>90.7</ele>
        <time>2022-10-06T10:21:44Z</time>
      </trkpt>
      <trkpt lat="44.76628" lon="-0.09998">
        <ele>90.8</ele>
        <time>2022-10-06T10:21:45Z</time>
      </trkpt>
      <trkpt lat="44.76629" lon="-0.09998">
        <ele>90.8</ele>
        <time>2022-10-06T10:21:46Z</time>
      </trkpt>
      <trkpt lat="44.7663" lon="-0.09998">
        <ele>90.8</ele>
        <time>2022-10-06T10:21:47Z</time>
      </trkpt>
      <trkpt lat="44.76631" lon="-0.09997">
        <ele>91</ele>
        <time>2022-10-06T10:21:48Z</time>
      </trkpt>
      <trkpt lat="44.76632" lon="-0.09997">
        <ele>91</ele>
        <time>2022-10-06T10:21:49Z</time>
      </trkpt>
      <trkpt lat="44.76633" lon="-0.09997">
        <ele>91.2</ele>
        <time>2022-10-06T10:21:50Z</time>
      </trkpt>
      <trkpt lat="44.76634" lon="-0.09997">
        <ele>91.2</ele>
        <time>2022-10-06T10:21:51Z</time>
      </trkpt>
      <trkpt lat="44.76635" lon="-0.09996">
        <ele>91.2</ele>
        <time>2022-10-06T10:21:52Z</time>
      </trkpt>
      <trkpt lat="44.76637" lon="-0.09996">
        <ele>91.5</ele>
        <time>2022-10-06T10:21:53Z</time>
      </trkpt>
      <trkpt lat="44.76638" lon="-0.09996">
        <ele>91.5</ele>
        <time>2022-10-06T10:21:54Z</time>
      </trkpt>
      <trkpt lat="44.76639" lon="-0.09995">
        <ele>91.5</ele>
        <time>2022-10-06T10:21:55Z</time>
      </trkpt>
      <trkpt lat="44.76641" lon="-0.09994">
        <ele>91.7</ele>
        <time>2022-10-06T10:21:56Z</time>
      </trkpt>
      <trkpt lat="44.76642" lon="-0.09994">
        <ele>91.7</ele>
        <time>2022-10-06T10:21:57Z</time>
      </trkpt>
      <trkpt lat="44.76642" lon="-0.09994">
        <ele>91.9</ele>
        <time>2022-10-06T10:21:58Z</time>
      </trkpt>
      <trkpt lat="44.76643" lon="-0.09993">
        <ele>91.9</ele>
        <time>2022-10-06T10:21:59Z</time>
      </trkpt>
      <trkpt lat="44.76644" lon="-0.09992">
        <ele>91.9</ele>
        <time>2022-10-06T10:22:00Z</time>
      </trkpt>
      <trkpt lat="44.76645" lon="-0.09991">
        <ele>92.1</ele>
        <time>2022-10-06T10:22:01Z</time>
      </trkpt>
      <trkpt lat="44.76646" lon="-0.09991">
        <ele>92.1</ele>
        <time>2022-10-06T10:22:02Z</time>
      </trkpt>
      <trkpt lat="44.76647" lon="-0.0999">
        <ele>92.2</ele>
        <time>2022-10-06T10:22:03Z</time>
      </trkpt>
      <trkpt lat="44.76648" lon="-0.0999">
        <ele>92.4</ele>
        <time>2022-10-06T10:22:04Z</time>
      </trkpt>
      <trkpt lat="44.76649" lon="-0.0999">
        <ele>92.4</ele>
        <time>2022-10-06T10:22:05Z</time>
      </trkpt>
      <trkpt lat="44.76651" lon="-0.09989">
        <ele>92.4</ele>
        <time>2022-10-06T10:22:06Z</time>
      </trkpt>
      <trkpt lat="44.76651" lon="-0.09989">
        <ele>92.4</ele>
        <time>2022-10-06T10:22:07Z</time>
      </trkpt>
      <trkpt lat="44.76652" lon="-0.09987">
        <ele>92.6</ele>
        <time>2022-10-06T10:22:08Z</time>
      </trkpt>
      <trkpt lat="44.76653" lon="-0.09986">
        <ele>92.6</ele>
        <time>2022-10-06T10:22:09Z</time>
      </trkpt>
      <trkpt lat="44.76653" lon="-0.09986">
        <ele>92.6</ele>
        <time>2022-10-06T10:22:10Z</time>
      </trkpt>
      <trkpt lat="44.76654" lon="-0.09985">
        <ele>92.6</ele>
        <time>2022-10-06T10:22:11Z</time>
      </trkpt>
      <trkpt lat="44.76655" lon="-0.09984">
        <ele>92.8</ele>
        <time>2022-10-06T10:22:12Z</time>
      </trkpt>
      <trkpt lat="44.76655" lon="-0.09983">
        <ele>92.8</ele>
        <time>2022-10-06T10:22:13Z</time>
      </trkpt>
      <trkpt lat="44.76656" lon="-0.09982">
        <ele>92.8</ele>
        <time>2022-10-06T10:22:14Z</time>
      </trkpt>
      <trkpt lat="44.76657" lon="-0.09981">
        <ele>92.8</ele>
        <time>2022-10-06T10:22:15Z</time>
      </trkpt>
      <trkpt lat="44.76658" lon="-0.0998">
        <ele>93.1</ele>
        <time>2022-10-06T10:22:16Z</time>
      </trkpt>
      <trkpt lat="44.76659" lon="-0.0998">
        <ele>93.1</ele>
        <time>2022-10-06T10:22:17Z</time>
      </trkpt>
      <trkpt lat="44.7666" lon="-0.0998">
        <ele>93.1</ele>
        <time>2022-10-06T10:22:18Z</time>
      </trkpt>
      <trkpt lat="44.76661" lon="-0.09979">
        <ele>93.3</ele>
        <time>2022-10-06T10:22:19Z</time>
      </trkpt>
      <trkpt lat="44.76662" lon="-0.09978">
        <ele>93.3</ele>
        <time>2022-10-06T10:22:20Z</time>
      </trkpt>
      <trkpt lat="44.76663" lon="-0.09976">
        <ele>93.3</ele>
        <time>2022-10-06T10:22:21Z</time>
      </trkpt>
      <trkpt lat="44.76664" lon="-0.09976">
        <ele>93.6</ele>
        <time>2022-10-06T10:22:22Z</time>
      </trkpt>
      <trkpt lat="44.76665" lon="-0.09975">
        <ele>93.6</ele>
        <time>2022-10-06T10:22:23Z</time>
      </trkpt>
      <trkpt lat="44.76667" lon="-0.09974">
        <ele>93.8</ele>
        <time>2022-10-06T10:22:24Z</time>
      </trkpt>
      <trkpt lat="44.76668" lon="-0.09973">
        <ele>93.8</ele>
        <time>2022-10-06T10:22:25Z</time>
      </trkpt>
      <trkpt lat="44.76669" lon="-0.09972">
        <ele>93.8</ele>
        <time>2022-10-06T10:22:26Z</time>
      </trkpt>
      <trkpt lat="44.76669" lon="-0.09972">
        <ele>93.8</ele>
        <time>2022-10-06T10:22:27Z</time>
      </trkpt>
      <trkpt lat="44.7667" lon="-0.09971">
        <ele>94.1</ele>
        <time>2022-10-06T10:22:28Z</time>
      </trkpt>
      <trkpt lat="44.76671" lon="-0.09971">
        <ele>94.1</ele>
        <time>2022-10-06T10:22:29Z</time>
      </trkpt>
      <trkpt lat="44.76672" lon="-0.0997">
        <ele>94.1</ele>
        <time>2022-10-06T10:22:30Z</time>
      </trkpt>
      <trkpt lat="44.76673" lon="-0.0997">
        <ele>94.3</ele>
        <time>2022-10-06T10:22:31Z</time>
      </trkpt>
      <trkpt lat="44.76674" lon="-0.09969">
        <ele>94.3</ele>
        <time>2022-10-06T10:22:33Z</time>
      </trkpt>
      <trkpt lat="44.76675" lon="-0.09969">
        <ele>94.4</ele>
        <time>2022-10-06T10:22:34Z</time>
      </trkpt>
      <trkpt lat="44.76676" lon="-0.09968">
        <ele>94.6</ele>
        <time>2022-10-06T10:22:35Z</time>
      </trkpt>
      <trkpt lat="44.76677" lon="-0.09966">
        <ele>94.6</ele>
        <time>2022-10-06T10:22:36Z</time>
      </trkpt>
      <trkpt lat="44.76677" lon="-0.09966">
        <ele>94.6</ele>
        <time>2022-10-06T10:22:37Z</time>
      </trkpt>
      <trkpt lat="44.76677" lon="-0.09965">
        <ele>94.6</ele>
        <time>2022-10-06T10:22:38Z</time>
      </trkpt>
      <trkpt lat="44.76678" lon="-0.09964">
        <ele>94.6</ele>
        <time>2022-10-06T10:22:39Z</time>
      </trkpt>
      <trkpt lat="44.76679" lon="-0.09963">
        <ele>94.9</ele>
        <time>2022-10-06T10:22:40Z</time>
      </trkpt>
      <trkpt lat="44.76679" lon="-0.09962">
        <ele>94.9</ele>
        <time>2022-10-06T10:22:41Z</time>
      </trkpt>
      <trkpt lat="44.7668" lon="-0.09961">
        <ele>94.9</ele>
        <time>2022-10-06T10:22:42Z</time>
      </trkpt>
      <trkpt lat="44.76681" lon="-0.0996">
        <ele>94.9</ele>
        <time>2022-10-06T10:22:43Z</time>
      </trkpt>
      <trkpt lat="44.76682" lon="-0.09959">
        <ele>95.1</ele>
        <time>2022-10-06T10:22:44Z</time>
      </trkpt>
      <trkpt lat="44.76682" lon="-0.09958">
        <ele>95.1</ele>
        <time>2022-10-06T10:22:45Z</time>
      </trkpt>
      <trkpt lat="44.76683" lon="-0.09957">
        <ele>95.1</ele>
        <time>2022-10-06T10:22:46Z</time>
      </trkpt>
      <trkpt lat="44.76683" lon="-0.09956">
        <ele>95.1</ele>
        <time>2022-10-06T10:22:47Z</time>
      </trkpt>
      <trkpt lat="44.76684" lon="-0.09954">
        <ele>95.1</ele>
        <time>2022-10-06T10:22:48Z</time>
      </trkpt>
      <trkpt lat="44.76683" lon="-0.09954">
        <ele>95.1</ele>
        <time>2022-10-06T10:22:49Z</time>
      </trkpt>
      <trkpt lat="44.76683" lon="-0.09954">
        <ele>95.1</ele>
        <time>2022-10-06T10:22:50Z</time>
      </trkpt>
      <trkpt lat="44.76683" lon="-0.09953">
        <ele>95.1</ele>
        <time>2022-10-06T10:22:51Z</time>
      </trkpt>
      <trkpt lat="44.76683" lon="-0.09953">
        <ele>95.1</ele>
        <time>2022-10-06T10:22:52Z</time>
      </trkpt>
      <trkpt lat="44.76683" lon="-0.09953">
        <ele>95.1</ele>
        <time>2022-10-06T10:22:53Z</time>
      </trkpt>
      <trkpt lat="44.76683" lon="-0.09953">
        <ele>95.1</ele>
        <time>2022-10-06T10:22:54Z</time>
      </trkpt>
      <trkpt lat="44.76683" lon="-0.09952">
        <ele>95.1</ele>
        <time>2022-10-06T10:22:55Z</time>
      </trkpt>
      <trkpt lat="44.76683" lon="-0.09952">
        <ele>95.1</ele>
        <time>2022-10-06T10:22:56Z</time>
      </trkpt>
      <trkpt lat="44.76683" lon="-0.09951">
        <ele>95.1</ele>
        <time>2022-10-06T10:22:57Z</time>
      </trkpt>
      <trkpt lat="44.76683" lon="-0.09951">
        <ele>95.1</ele>
        <time>2022-10-06T10:22:58Z</time>
      </trkpt>
      <trkpt lat="44.76682" lon="-0.09951">
        <ele>95.1</ele>
        <time>2022-10-06T10:22:59Z</time>
      </trkpt>
      <trkpt lat="44.76682" lon="-0.09951">
        <ele>95.1</ele>
        <time>2022-10-06T10:23:00Z</time>
      </trkpt>
      <trkpt lat="44.76682" lon="-0.0995">
        <ele>95.1</ele>
        <time>2022-10-06T10:23:01Z</time>
      </trkpt>
      <trkpt lat="44.76681" lon="-0.09948">
        <ele>94.9</ele>
        <time>2022-10-06T10:23:02Z</time>
      </trkpt>
      <trkpt lat="44.76682" lon="-0.09945">
        <ele>94.9</ele>
        <time>2022-10-06T10:23:04Z</time>
      </trkpt>
      <trkpt lat="44.76682" lon="-0.09944">
        <ele>95.1</ele>
        <time>2022-10-06T10:23:05Z</time>
      </trkpt>
      <trkpt lat="44.76683" lon="-0.09943">
        <ele>95.1</ele>
        <time>2022-10-06T10:23:06Z</time>
      </trkpt>
      <trkpt lat="44.76684" lon="-0.09942">
        <ele>95.1</ele>
        <time>2022-10-06T10:23:07Z</time>
      </trkpt>
      <trkpt lat="44.76685" lon="-0.09941">
        <ele>95.1</ele>
        <time>2022-10-06T10:23:08Z</time>
      </trkpt>
      <trkpt lat="44.76685" lon="-0.09941">
        <ele>95.3</ele>
        <time>2022-10-06T10:23:09Z</time>
      </trkpt>
      <trkpt lat="44.76685" lon="-0.09939">
        <ele>95.3</ele>
        <time>2022-10-06T10:23:10Z</time>
      </trkpt>
      <trkpt lat="44.76685" lon="-0.09938">
        <ele>95.3</ele>
        <time>2022-10-06T10:23:11Z</time>
      </trkpt>
      <trkpt lat="44.76685" lon="-0.09937">
        <ele>95.3</ele>
        <time>2022-10-06T10:23:12Z</time>
      </trkpt>
      <trkpt lat="44.76686" lon="-0.09936">
        <ele>95.3</ele>
        <time>2022-10-06T10:23:13Z</time>
      </trkpt>
      <trkpt lat="44.76686" lon="-0.09935">
        <ele>95.3</ele>
        <time>2022-10-06T10:23:14Z</time>
      </trkpt>
      <trkpt lat="44.76686" lon="-0.09934">
        <ele>95.3</ele>
        <time>2022-10-06T10:23:15Z</time>
      </trkpt>
      <trkpt lat="44.76687" lon="-0.09934">
        <ele>95.3</ele>
        <time>2022-10-06T10:23:16Z</time>
      </trkpt>
      <trkpt lat="44.76687" lon="-0.09934">
        <ele>95.3</ele>
        <time>2022-10-06T10:23:17Z</time>
      </trkpt>
      <trkpt lat="44.76688" lon="-0.09934">
        <ele>95.3</ele>
        <time>2022-10-06T10:23:18Z</time>
      </trkpt>
      <trkpt lat="44.76688" lon="-0.09935">
        <ele>95.6</ele>
        <time>2022-10-06T10:23:19Z</time>
      </trkpt>
      <trkpt lat="44.7669" lon="-0.09935">
        <ele>95.6</ele>
        <time>2022-10-06T10:23:20Z</time>
      </trkpt>
      <trkpt lat="44.76692" lon="-0.09935">
        <ele>95.8</ele>
        <time>2022-10-06T10:23:21Z</time>
      </trkpt>
      <trkpt lat="44.76694" lon="-0.09937">
        <ele>96.1</ele>
        <time>2022-10-06T10:23:22Z</time>
      </trkpt>
      <trkpt lat="44.76694" lon="-0.09939">
        <ele>96.1</ele>
        <time>2022-10-06T10:23:23Z</time>
      </trkpt>
      <trkpt lat="44.76695" lon="-0.09943">
        <ele>96.1</ele>
        <time>2022-10-06T10:23:24Z</time>
      </trkpt>
      <trkpt lat="44.76695" lon="-0.09946">
        <ele>96.1</ele>
        <time>2022-10-06T10:23:25Z</time>
      </trkpt>
      <trkpt lat="44.76695" lon="-0.0995">
        <ele>96.1</ele>
        <time>2022-10-06T10:23:26Z</time>
      </trkpt>
      <trkpt lat="44.76696" lon="-0.09954">
        <ele>96.1</ele>
        <time>2022-10-06T10:23:27Z</time>
      </trkpt>
      <trkpt lat="44.76697" lon="-0.09955">
        <ele>96.4</ele>
        <time>2022-10-06T10:23:28Z</time>
      </trkpt>
      <trkpt lat="44.76699" lon="-0.09957">
        <ele>96.4</ele>
        <time>2022-10-06T10:23:29Z</time>
      </trkpt>
      <trkpt lat="44.767" lon="-0.09958">
        <ele>96.4</ele>
        <time>2022-10-06T10:23:30Z</time>
      </trkpt>
      <trkpt lat="44.76701" lon="-0.0996">
        <ele>96.7</ele>
        <time>2022-10-06T10:23:31Z</time>
      </trkpt>
      <trkpt lat="44.76701" lon="-0.09961">
        <ele>96.7</ele>
        <time>2022-10-06T10:23:32Z</time>
      </trkpt>
      <trkpt lat="44.76702" lon="-0.09962">
        <ele>96.7</ele>
        <time>2022-10-06T10:23:33Z</time>
      </trkpt>
      <trkpt lat="44.76703" lon="-0.09963">
        <ele>96.7</ele>
        <time>2022-10-06T10:23:34Z</time>
      </trkpt>
      <trkpt lat="44.76703" lon="-0.09964">
        <ele>96.9</ele>
        <time>2022-10-06T10:23:35Z</time>
      </trkpt>
      <trkpt lat="44.76704" lon="-0.09965">
        <ele>96.9</ele>
        <time>2022-10-06T10:23:36Z</time>
      </trkpt>
      <trkpt lat="44.76705" lon="-0.09967">
        <ele>96.9</ele>
        <time>2022-10-06T10:23:37Z</time>
      </trkpt>
      <trkpt lat="44.76706" lon="-0.09968">
        <ele>96.9</ele>
        <time>2022-10-06T10:23:38Z</time>
      </trkpt>
      <trkpt lat="44.76706" lon="-0.0997">
        <ele>97.1</ele>
        <time>2022-10-06T10:23:39Z</time>
      </trkpt>
      <trkpt lat="44.76707" lon="-0.09971">
        <ele>97.1</ele>
        <time>2022-10-06T10:23:40Z</time>
      </trkpt>
      <trkpt lat="44.76708" lon="-0.09972">
        <ele>97.1</ele>
        <time>2022-10-06T10:23:41Z</time>
      </trkpt>
      <trkpt lat="44.7671" lon="-0.09974">
        <ele>97.3</ele>
        <time>2022-10-06T10:23:42Z</time>
      </trkpt>
      <trkpt lat="44.7671" lon="-0.09975">
        <ele>97.3</ele>
        <time>2022-10-06T10:23:43Z</time>
      </trkpt>
      <trkpt lat="44.76712" lon="-0.09976">
        <ele>97.3</ele>
        <time>2022-10-06T10:23:44Z</time>
      </trkpt>
      <trkpt lat="44.76713" lon="-0.09977">
        <ele>97.5</ele>
        <time>2022-10-06T10:23:45Z</time>
      </trkpt>
      <trkpt lat="44.76713" lon="-0.09978">
        <ele>97.5</ele>
        <time>2022-10-06T10:23:46Z</time>
      </trkpt>
      <trkpt lat="44.76715" lon="-0.0998">
        <ele>97.7</ele>
        <time>2022-10-06T10:23:47Z</time>
      </trkpt>
      <trkpt lat="44.76716" lon="-0.09981">
        <ele>97.7</ele>
        <time>2022-10-06T10:23:48Z</time>
      </trkpt>
      <trkpt lat="44.76716" lon="-0.09981">
        <ele>97.7</ele>
        <time>2022-10-06T10:23:49Z</time>
      </trkpt>
      <trkpt lat="44.76717" lon="-0.09984">
        <ele>97.7</ele>
        <time>2022-10-06T10:23:50Z</time>
      </trkpt>
      <trkpt lat="44.76718" lon="-0.09985">
        <ele>97.7</ele>
        <time>2022-10-06T10:23:51Z</time>
      </trkpt>
      <trkpt lat="44.76718" lon="-0.09986">
        <ele>97.9</ele>
        <time>2022-10-06T10:23:52Z</time>
      </trkpt>
      <trkpt lat="44.76719" lon="-0.09987">
        <ele>97.9</ele>
        <time>2022-10-06T10:23:53Z</time>
      </trkpt>
      <trkpt lat="44.7672" lon="-0.09988">
        <ele>97.9</ele>
        <time>2022-10-06T10:23:54Z</time>
      </trkpt>
      <trkpt lat="44.7672" lon="-0.09988">
        <ele>97.9</ele>
        <time>2022-10-06T10:23:55Z</time>
      </trkpt>
      <trkpt lat="44.76721" lon="-0.09989">
        <ele>97.9</ele>
        <time>2022-10-06T10:23:56Z</time>
      </trkpt>
      <trkpt lat="44.76722" lon="-0.0999">
        <ele>98.1</ele>
        <time>2022-10-06T10:23:57Z</time>
      </trkpt>
      <trkpt lat="44.76722" lon="-0.09991">
        <ele>98.1</ele>
        <time>2022-10-06T10:23:58Z</time>
      </trkpt>
      <trkpt lat="44.76723" lon="-0.09992">
        <ele>98.1</ele>
        <time>2022-10-06T10:23:59Z</time>
      </trkpt>
      <trkpt lat="44.76723" lon="-0.09992">
        <ele>98.1</ele>
        <time>2022-10-06T10:24:00Z</time>
      </trkpt>
      <trkpt lat="44.76724" lon="-0.09991">
        <ele>98.1</ele>
        <time>2022-10-06T10:24:01Z</time>
      </trkpt>
      <trkpt lat="44.76725" lon="-0.09991">
        <ele>98.3</ele>
        <time>2022-10-06T10:24:02Z</time>
      </trkpt>
      <trkpt lat="44.76726" lon="-0.0999">
        <ele>98.4</ele>
        <time>2022-10-06T10:24:03Z</time>
      </trkpt>
      <trkpt lat="44.76728" lon="-0.0999">
        <ele>98.7</ele>
        <time>2022-10-06T10:24:05Z</time>
      </trkpt>
      <trkpt lat="44.76729" lon="-0.09989">
        <ele>98.7</ele>
        <time>2022-10-06T10:24:06Z</time>
      </trkpt>
      <trkpt lat="44.76729" lon="-0.09989">
        <ele>98.7</ele>
        <time>2022-10-06T10:24:07Z</time>
      </trkpt>
      <trkpt lat="44.7673" lon="-0.09988">
        <ele>98.7</ele>
        <time>2022-10-06T10:24:08Z</time>
      </trkpt>
      <trkpt lat="44.76731" lon="-0.09987">
        <ele>98.9</ele>
        <time>2022-10-06T10:24:09Z</time>
      </trkpt>
      <trkpt lat="44.76731" lon="-0.09986">
        <ele>99</ele>
        <time>2022-10-06T10:24:10Z</time>
      </trkpt>
      <trkpt lat="44.76732" lon="-0.09985">
        <ele>99</ele>
        <time>2022-10-06T10:24:11Z</time>
      </trkpt>
      <trkpt lat="44.76733" lon="-0.09984">
        <ele>99</ele>
        <time>2022-10-06T10:24:12Z</time>
      </trkpt>
      <trkpt lat="44.76733" lon="-0.09983">
        <ele>99.2</ele>
        <time>2022-10-06T10:24:13Z</time>
      </trkpt>
      <trkpt lat="44.76734" lon="-0.09983">
        <ele>99.2</ele>
        <time>2022-10-06T10:24:14Z</time>
      </trkpt>
      <trkpt lat="44.76735" lon="-0.09982">
        <ele>99.3</ele>
        <time>2022-10-06T10:24:15Z</time>
      </trkpt>
      <trkpt lat="44.76735" lon="-0.09982">
        <ele>99.3</ele>
        <time>2022-10-06T10:24:16Z</time>
      </trkpt>
      <trkpt lat="44.76736" lon="-0.09981">
        <ele>99.3</ele>
        <time>2022-10-06T10:24:17Z</time>
      </trkpt>
      <trkpt lat="44.76737" lon="-0.0998">
        <ele>99.5</ele>
        <time>2022-10-06T10:24:18Z</time>
      </trkpt>
      <trkpt lat="44.76737" lon="-0.0998">
        <ele>99.5</ele>
        <time>2022-10-06T10:24:19Z</time>
      </trkpt>
      <trkpt lat="44.76738" lon="-0.09979">
        <ele>99.5</ele>
        <time>2022-10-06T10:24:20Z</time>
      </trkpt>
      <trkpt lat="44.76739" lon="-0.09978">
        <ele>99.5</ele>
        <time>2022-10-06T10:24:21Z</time>
      </trkpt>
      <trkpt lat="44.7674" lon="-0.09977">
        <ele>99.8</ele>
        <time>2022-10-06T10:24:22Z</time>
      </trkpt>
      <trkpt lat="44.7674" lon="-0.09977">
        <ele>99.8</ele>
        <time>2022-10-06T10:24:23Z</time>
      </trkpt>
      <trkpt lat="44.76741" lon="-0.09976">
        <ele>99.8</ele>
        <time>2022-10-06T10:24:24Z</time>
      </trkpt>
      <trkpt lat="44.76742" lon="-0.09976">
        <ele>99.8</ele>
        <time>2022-10-06T10:24:25Z</time>
      </trkpt>
      <trkpt lat="44.76742" lon="-0.09976">
        <ele>99.8</ele>
        <time>2022-10-06T10:24:26Z</time>
      </trkpt>
      <trkpt lat="44.76743" lon="-0.09975">
        <ele>100</ele>
        <time>2022-10-06T10:24:27Z</time>
      </trkpt>
      <trkpt lat="44.76744" lon="-0.09975">
        <ele>100</ele>
        <time>2022-10-06T10:24:28Z</time>
      </trkpt>
      <trkpt lat="44.76745" lon="-0.09974">
        <ele>100</ele>
        <time>2022-10-06T10:24:29Z</time>
      </trkpt>
      <trkpt lat="44.76746" lon="-0.09974">
        <ele>100.3</ele>
        <time>2022-10-06T10:24:30Z</time>
      </trkpt>
      <trkpt lat="44.76747" lon="-0.09973">
        <ele>100.4</ele>
        <time>2022-10-06T10:24:31Z</time>
      </trkpt>
      <trkpt lat="44.76748" lon="-0.09972">
        <ele>100.4</ele>
        <time>2022-10-06T10:24:32Z</time>
      </trkpt>
      <trkpt lat="44.76749" lon="-0.09972">
        <ele>100.6</ele>
        <time>2022-10-06T10:24:33Z</time>
      </trkpt>
      <trkpt lat="44.7675" lon="-0.09971">
        <ele>100.6</ele>
        <time>2022-10-06T10:24:34Z</time>
      </trkpt>
      <trkpt lat="44.76752" lon="-0.0997">
        <ele>100.6</ele>
        <time>2022-10-06T10:24:35Z</time>
      </trkpt>
      <trkpt lat="44.76752" lon="-0.0997">
        <ele>100.9</ele>
        <time>2022-10-06T10:24:36Z</time>
      </trkpt>
      <trkpt lat="44.76753" lon="-0.09969">
        <ele>100.9</ele>
        <time>2022-10-06T10:24:37Z</time>
      </trkpt>
      <trkpt lat="44.76754" lon="-0.09969">
        <ele>100.9</ele>
        <time>2022-10-06T10:24:38Z</time>
      </trkpt>
      <trkpt lat="44.76755" lon="-0.09968">
        <ele>101.2</ele>
        <time>2022-10-06T10:24:39Z</time>
      </trkpt>
      <trkpt lat="44.76756" lon="-0.09967">
        <ele>101.2</ele>
        <time>2022-10-06T10:24:40Z</time>
      </trkpt>
      <trkpt lat="44.76757" lon="-0.09967">
        <ele>101.2</ele>
        <time>2022-10-06T10:24:41Z</time>
      </trkpt>
      <trkpt lat="44.76758" lon="-0.09966">
        <ele>101.4</ele>
        <time>2022-10-06T10:24:42Z</time>
      </trkpt>
      <trkpt lat="44.76759" lon="-0.09965">
        <ele>101.4</ele>
        <time>2022-10-06T10:24:43Z</time>
      </trkpt>
      <trkpt lat="44.7676" lon="-0.09965">
        <ele>101.5</ele>
        <time>2022-10-06T10:24:44Z</time>
      </trkpt>
      <trkpt lat="44.76761" lon="-0.09964">
        <ele>101.7</ele>
        <time>2022-10-06T10:24:45Z</time>
      </trkpt>
      <trkpt lat="44.76762" lon="-0.09963">
        <ele>101.7</ele>
        <time>2022-10-06T10:24:46Z</time>
      </trkpt>
      <trkpt lat="44.76763" lon="-0.09962">
        <ele>101.7</ele>
        <time>2022-10-06T10:24:47Z</time>
      </trkpt>
      <trkpt lat="44.76764" lon="-0.09961">
        <ele>102</ele>
        <time>2022-10-06T10:24:48Z</time>
      </trkpt>
      <trkpt lat="44.76765" lon="-0.09961">
        <ele>102</ele>
        <time>2022-10-06T10:24:49Z</time>
      </trkpt>
      <trkpt lat="44.76767" lon="-0.0996">
        <ele>102.3</ele>
        <time>2022-10-06T10:24:50Z</time>
      </trkpt>
      <trkpt lat="44.76768" lon="-0.09959">
        <ele>102.3</ele>
        <time>2022-10-06T10:24:51Z</time>
      </trkpt>
      <trkpt lat="44.76768" lon="-0.09959">
        <ele>102.3</ele>
        <time>2022-10-06T10:24:52Z</time>
      </trkpt>
      <trkpt lat="44.76769" lon="-0.09958">
        <ele>102.3</ele>
        <time>2022-10-06T10:24:53Z</time>
      </trkpt>
      <trkpt lat="44.7677" lon="-0.09957">
        <ele>102.5</ele>
        <time>2022-10-06T10:24:54Z</time>
      </trkpt>
      <trkpt lat="44.76771" lon="-0.09957">
        <ele>102.5</ele>
        <time>2022-10-06T10:24:55Z</time>
      </trkpt>
      <trkpt lat="44.76772" lon="-0.09956">
        <ele>102.5</ele>
        <time>2022-10-06T10:24:56Z</time>
      </trkpt>
      <trkpt lat="44.76774" lon="-0.09955">
        <ele>102.8</ele>
        <time>2022-10-06T10:24:57Z</time>
      </trkpt>
      <trkpt lat="44.76774" lon="-0.09955">
        <ele>102.8</ele>
        <time>2022-10-06T10:24:58Z</time>
      </trkpt>
      <trkpt lat="44.76775" lon="-0.09954">
        <ele>102.8</ele>
        <time>2022-10-06T10:24:59Z</time>
      </trkpt>
      <trkpt lat="44.76776" lon="-0.09954">
        <ele>103.1</ele>
        <time>2022-10-06T10:25:00Z</time>
      </trkpt>
      <trkpt lat="44.76777" lon="-0.09953">
        <ele>103.1</ele>
        <time>2022-10-06T10:25:01Z</time>
      </trkpt>
      <trkpt lat="44.76779" lon="-0.09953">
        <ele>103.1</ele>
        <time>2022-10-06T10:25:02Z</time>
      </trkpt>
      <trkpt lat="44.76779" lon="-0.09952">
        <ele>103.3</ele>
        <time>2022-10-06T10:25:03Z</time>
      </trkpt>
      <trkpt lat="44.7678" lon="-0.09951">
        <ele>103.3</ele>
        <time>2022-10-06T10:25:04Z</time>
      </trkpt>
      <trkpt lat="44.76781" lon="-0.09951">
        <ele>103.3</ele>
        <time>2022-10-06T10:25:05Z</time>
      </trkpt>
      <trkpt lat="44.76782" lon="-0.0995">
        <ele>103.3</ele>
        <time>2022-10-06T10:25:06Z</time>
      </trkpt>
      <trkpt lat="44.76783" lon="-0.09949">
        <ele>103.6</ele>
        <time>2022-10-06T10:25:07Z</time>
      </trkpt>
      <trkpt lat="44.76783" lon="-0.09948">
        <ele>103.6</ele>
        <time>2022-10-06T10:25:08Z</time>
      </trkpt>
      <trkpt lat="44.76784" lon="-0.09947">
        <ele>103.6</ele>
        <time>2022-10-06T10:25:09Z</time>
      </trkpt>
      <trkpt lat="44.76786" lon="-0.09945">
        <ele>103.9</ele>
        <time>2022-10-06T10:25:10Z</time>
      </trkpt>
      <trkpt lat="44.76786" lon="-0.09944">
        <ele>103.9</ele>
        <time>2022-10-06T10:25:11Z</time>
      </trkpt>
      <trkpt lat="44.76787" lon="-0.09944">
        <ele>103.9</ele>
        <time>2022-10-06T10:25:12Z</time>
      </trkpt>
      <trkpt lat="44.76788" lon="-0.09943">
        <ele>103.9</ele>
        <time>2022-10-06T10:25:13Z</time>
      </trkpt>
      <trkpt lat="44.76788" lon="-0.09942">
        <ele>104.1</ele>
        <time>2022-10-06T10:25:14Z</time>
      </trkpt>
      <trkpt lat="44.76789" lon="-0.09941">
        <ele>104.1</ele>
        <time>2022-10-06T10:25:15Z</time>
      </trkpt>
      <trkpt lat="44.7679" lon="-0.0994">
        <ele>104.1</ele>
        <time>2022-10-06T10:25:16Z</time>
      </trkpt>
      <trkpt lat="44.76791" lon="-0.09939">
        <ele>104.3</ele>
        <time>2022-10-06T10:25:17Z</time>
      </trkpt>
      <trkpt lat="44.76792" lon="-0.09938">
        <ele>104.3</ele>
        <time>2022-10-06T10:25:18Z</time>
      </trkpt>
      <trkpt lat="44.76793" lon="-0.09937">
        <ele>104.3</ele>
        <time>2022-10-06T10:25:19Z</time>
      </trkpt>
      <trkpt lat="44.76794" lon="-0.09936">
        <ele>104.3</ele>
        <time>2022-10-06T10:25:20Z</time>
      </trkpt>
      <trkpt lat="44.76794" lon="-0.09935">
        <ele>104.5</ele>
        <time>2022-10-06T10:25:21Z</time>
      </trkpt>
      <trkpt lat="44.76795" lon="-0.09934">
        <ele>104.5</ele>
        <time>2022-10-06T10:25:22Z</time>
      </trkpt>
      <trkpt lat="44.76796" lon="-0.09933">
        <ele>104.5</ele>
        <time>2022-10-06T10:25:23Z</time>
      </trkpt>
      <trkpt lat="44.76797" lon="-0.09932">
        <ele>104.5</ele>
        <time>2022-10-06T10:25:24Z</time>
      </trkpt>
      <trkpt lat="44.76798" lon="-0.09932">
        <ele>104.7</ele>
        <time>2022-10-06T10:25:25Z</time>
      </trkpt>
      <trkpt lat="44.76799" lon="-0.09931">
        <ele>104.7</ele>
        <time>2022-10-06T10:25:26Z</time>
      </trkpt>
      <trkpt lat="44.768" lon="-0.0993">
        <ele>104.7</ele>
        <time>2022-10-06T10:25:27Z</time>
      </trkpt>
      <trkpt lat="44.768" lon="-0.09929">
        <ele>104.7</ele>
        <time>2022-10-06T10:25:28Z</time>
      </trkpt>
      <trkpt lat="44.76801" lon="-0.09928">
        <ele>104.9</ele>
        <time>2022-10-06T10:25:29Z</time>
      </trkpt>
      <trkpt lat="44.76802" lon="-0.09928">
        <ele>104.9</ele>
        <time>2022-10-06T10:25:30Z</time>
      </trkpt>
      <trkpt lat="44.76803" lon="-0.09927">
        <ele>104.9</ele>
        <time>2022-10-06T10:25:31Z</time>
      </trkpt>
      <trkpt lat="44.76804" lon="-0.09925">
        <ele>105.1</ele>
        <time>2022-10-06T10:25:32Z</time>
      </trkpt>
      <trkpt lat="44.76805" lon="-0.09924">
        <ele>105.1</ele>
        <time>2022-10-06T10:25:33Z</time>
      </trkpt>
      <trkpt lat="44.76806" lon="-0.09924">
        <ele>105.1</ele>
        <time>2022-10-06T10:25:34Z</time>
      </trkpt>
      <trkpt lat="44.76807" lon="-0.09923">
        <ele>105.3</ele>
        <time>2022-10-06T10:25:35Z</time>
      </trkpt>
      <trkpt lat="44.76808" lon="-0.09922">
        <ele>105.3</ele>
        <time>2022-10-06T10:25:36Z</time>
      </trkpt>
      <trkpt lat="44.7681" lon="-0.09921">
        <ele>105.4</ele>
        <time>2022-10-06T10:25:37Z</time>
      </trkpt>
      <trkpt lat="44.76811" lon="-0.0992">
        <ele>105.4</ele>
        <time>2022-10-06T10:25:38Z</time>
      </trkpt>
      <trkpt lat="44.76811" lon="-0.0992">
        <ele>105.4</ele>
        <time>2022-10-06T10:25:39Z</time>
      </trkpt>
      <trkpt lat="44.76812" lon="-0.09919">
        <ele>105.4</ele>
        <time>2022-10-06T10:25:40Z</time>
      </trkpt>
      <trkpt lat="44.76813" lon="-0.09918">
        <ele>105.5</ele>
        <time>2022-10-06T10:25:41Z</time>
      </trkpt>
      <trkpt lat="44.76814" lon="-0.09916">
        <ele>105.5</ele>
        <time>2022-10-06T10:25:42Z</time>
      </trkpt>
      <trkpt lat="44.76815" lon="-0.09915">
        <ele>105.5</ele>
        <time>2022-10-06T10:25:43Z</time>
      </trkpt>
      <trkpt lat="44.76815" lon="-0.09915">
        <ele>105.5</ele>
        <time>2022-10-06T10:25:44Z</time>
      </trkpt>
      <trkpt lat="44.76816" lon="-0.09914">
        <ele>105.7</ele>
        <time>2022-10-06T10:25:45Z</time>
      </trkpt>
      <trkpt lat="44.76817" lon="-0.09913">
        <ele>105.6</ele>
        <time>2022-10-06T10:25:46Z</time>
      </trkpt>
      <trkpt lat="44.76818" lon="-0.09912">
        <ele>105.6</ele>
        <time>2022-10-06T10:25:47Z</time>
      </trkpt>
      <trkpt lat="44.76819" lon="-0.09911">
        <ele>105.7</ele>
        <time>2022-10-06T10:25:48Z</time>
      </trkpt>
      <trkpt lat="44.7682" lon="-0.09911">
        <ele>105.7</ele>
        <time>2022-10-06T10:25:49Z</time>
      </trkpt>
      <trkpt lat="44.76821" lon="-0.0991">
        <ele>105.7</ele>
        <time>2022-10-06T10:25:50Z</time>
      </trkpt>
      <trkpt lat="44.76822" lon="-0.09909">
        <ele>105.7</ele>
        <time>2022-10-06T10:25:51Z</time>
      </trkpt>
      <trkpt lat="44.76823" lon="-0.09907">
        <ele>105.7</ele>
        <time>2022-10-06T10:25:52Z</time>
      </trkpt>
      <trkpt lat="44.76824" lon="-0.09906">
        <ele>105.7</ele>
        <time>2022-10-06T10:25:53Z</time>
      </trkpt>
      <trkpt lat="44.76824" lon="-0.09905">
        <ele>105.7</ele>
        <time>2022-10-06T10:25:54Z</time>
      </trkpt>
      <trkpt lat="44.76825" lon="-0.09904">
        <ele>105.7</ele>
        <time>2022-10-06T10:25:55Z</time>
      </trkpt>
      <trkpt lat="44.76826" lon="-0.09904">
        <ele>105.7</ele>
        <time>2022-10-06T10:25:56Z</time>
      </trkpt>
      <trkpt lat="44.76828" lon="-0.09902">
        <ele>105.8</ele>
        <time>2022-10-06T10:25:57Z</time>
      </trkpt>
      <trkpt lat="44.76829" lon="-0.09902">
        <ele>105.8</ele>
        <time>2022-10-06T10:25:58Z</time>
      </trkpt>
      <trkpt lat="44.7683" lon="-0.09901">
        <ele>105.8</ele>
        <time>2022-10-06T10:25:59Z</time>
      </trkpt>
      <trkpt lat="44.76831" lon="-0.099">
        <ele>105.8</ele>
        <time>2022-10-06T10:26:00Z</time>
      </trkpt>
      <trkpt lat="44.76832" lon="-0.09898">
        <ele>105.8</ele>
        <time>2022-10-06T10:26:01Z</time>
      </trkpt>
      <trkpt lat="44.76834" lon="-0.09897">
        <ele>105.8</ele>
        <time>2022-10-06T10:26:02Z</time>
      </trkpt>
      <trkpt lat="44.76834" lon="-0.09896">
        <ele>105.8</ele>
        <time>2022-10-06T10:26:03Z</time>
      </trkpt>
      <trkpt lat="44.76836" lon="-0.09895">
        <ele>105.7</ele>
        <time>2022-10-06T10:26:04Z</time>
      </trkpt>
      <trkpt lat="44.76837" lon="-0.09895">
        <ele>105.7</ele>
        <time>2022-10-06T10:26:05Z</time>
      </trkpt>
      <trkpt lat="44.76838" lon="-0.09894">
        <ele>105.8</ele>
        <time>2022-10-06T10:26:06Z</time>
      </trkpt>
      <trkpt lat="44.76839" lon="-0.09893">
        <ele>105.8</ele>
        <time>2022-10-06T10:26:07Z</time>
      </trkpt>
      <trkpt lat="44.7684" lon="-0.09892">
        <ele>105.6</ele>
        <time>2022-10-06T10:26:08Z</time>
      </trkpt>
      <trkpt lat="44.76841" lon="-0.09891">
        <ele>105.6</ele>
        <time>2022-10-06T10:26:09Z</time>
      </trkpt>
      <trkpt lat="44.76842" lon="-0.0989">
        <ele>105.6</ele>
        <time>2022-10-06T10:26:10Z</time>
      </trkpt>
      <trkpt lat="44.76843" lon="-0.0989">
        <ele>105.7</ele>
        <time>2022-10-06T10:26:11Z</time>
      </trkpt>
      <trkpt lat="44.76845" lon="-0.09889">
        <ele>105.7</ele>
        <time>2022-10-06T10:26:12Z</time>
      </trkpt>
      <trkpt lat="44.76846" lon="-0.09888">
        <ele>105.7</ele>
        <time>2022-10-06T10:26:13Z</time>
      </trkpt>
      <trkpt lat="44.76847" lon="-0.09888">
        <ele>105.7</ele>
        <time>2022-10-06T10:26:14Z</time>
      </trkpt>
      <trkpt lat="44.76848" lon="-0.09888">
        <ele>105.7</ele>
        <time>2022-10-06T10:26:15Z</time>
      </trkpt>
      <trkpt lat="44.76849" lon="-0.09888">
        <ele>105.4</ele>
        <time>2022-10-06T10:26:16Z</time>
      </trkpt>
      <trkpt lat="44.7685" lon="-0.09887">
        <ele>105.4</ele>
        <time>2022-10-06T10:26:17Z</time>
      </trkpt>
      <trkpt lat="44.76851" lon="-0.09887">
        <ele>105.4</ele>
        <time>2022-10-06T10:26:18Z</time>
      </trkpt>
      <trkpt lat="44.76852" lon="-0.09886">
        <ele>105.4</ele>
        <time>2022-10-06T10:26:19Z</time>
      </trkpt>
      <trkpt lat="44.76854" lon="-0.09885">
        <ele>105.4</ele>
        <time>2022-10-06T10:26:20Z</time>
      </trkpt>
      <trkpt lat="44.76855" lon="-0.09885">
        <ele>105.4</ele>
        <time>2022-10-06T10:26:21Z</time>
      </trkpt>
      <trkpt lat="44.76856" lon="-0.09885">
        <ele>105.4</ele>
        <time>2022-10-06T10:26:22Z</time>
      </trkpt>
      <trkpt lat="44.76857" lon="-0.09884">
        <ele>105.4</ele>
        <time>2022-10-06T10:26:23Z</time>
      </trkpt>
      <trkpt lat="44.76857" lon="-0.09883">
        <ele>105.3</ele>
        <time>2022-10-06T10:26:24Z</time>
      </trkpt>
      <trkpt lat="44.76859" lon="-0.09883">
        <ele>105.3</ele>
        <time>2022-10-06T10:26:25Z</time>
      </trkpt>
      <trkpt lat="44.7686" lon="-0.09882">
        <ele>105.3</ele>
        <time>2022-10-06T10:26:26Z</time>
      </trkpt>
      <trkpt lat="44.76861" lon="-0.09881">
        <ele>105.3</ele>
        <time>2022-10-06T10:26:27Z</time>
      </trkpt>
      <trkpt lat="44.76862" lon="-0.09881">
        <ele>105.2</ele>
        <time>2022-10-06T10:26:28Z</time>
      </trkpt>
      <trkpt lat="44.76863" lon="-0.09881">
        <ele>105.2</ele>
        <time>2022-10-06T10:26:29Z</time>
      </trkpt>
      <trkpt lat="44.76865" lon="-0.09881">
        <ele>105.2</ele>
        <time>2022-10-06T10:26:31Z</time>
      </trkpt>
      <trkpt lat="44.76866" lon="-0.0988">
        <ele>105.2</ele>
        <time>2022-10-06T10:26:32Z</time>
      </trkpt>
      <trkpt lat="44.76867" lon="-0.0988">
        <ele>105.2</ele>
        <time>2022-10-06T10:26:33Z</time>
      </trkpt>
      <trkpt lat="44.76869" lon="-0.09879">
        <ele>105.1</ele>
        <time>2022-10-06T10:26:34Z</time>
      </trkpt>
      <trkpt lat="44.7687" lon="-0.09878">
        <ele>105.1</ele>
        <time>2022-10-06T10:26:35Z</time>
      </trkpt>
      <trkpt lat="44.76871" lon="-0.09878">
        <ele>105</ele>
        <time>2022-10-06T10:26:36Z</time>
      </trkpt>
      <trkpt lat="44.76873" lon="-0.09876">
        <ele>105</ele>
        <time>2022-10-06T10:26:37Z</time>
      </trkpt>
      <trkpt lat="44.76874" lon="-0.09876">
        <ele>105</ele>
        <time>2022-10-06T10:26:38Z</time>
      </trkpt>
      <trkpt lat="44.76874" lon="-0.09876">
        <ele>105</ele>
        <time>2022-10-06T10:26:39Z</time>
      </trkpt>
      <trkpt lat="44.76876" lon="-0.09875">
        <ele>104.9</ele>
        <time>2022-10-06T10:26:40Z</time>
      </trkpt>
      <trkpt lat="44.76877" lon="-0.09874">
        <ele>104.9</ele>
        <time>2022-10-06T10:26:41Z</time>
      </trkpt>
      <trkpt lat="44.76878" lon="-0.09874">
        <ele>104.9</ele>
        <time>2022-10-06T10:26:42Z</time>
      </trkpt>
      <trkpt lat="44.76879" lon="-0.09874">
        <ele>104.9</ele>
        <time>2022-10-06T10:26:43Z</time>
      </trkpt>
      <trkpt lat="44.7688" lon="-0.09873">
        <ele>104.8</ele>
        <time>2022-10-06T10:26:44Z</time>
      </trkpt>
      <trkpt lat="44.76881" lon="-0.09872">
        <ele>104.8</ele>
        <time>2022-10-06T10:26:45Z</time>
      </trkpt>
      <trkpt lat="44.76882" lon="-0.09872">
        <ele>104.8</ele>
        <time>2022-10-06T10:26:46Z</time>
      </trkpt>
      <trkpt lat="44.76884" lon="-0.09872">
        <ele>104.8</ele>
        <time>2022-10-06T10:26:47Z</time>
      </trkpt>
      <trkpt lat="44.76884" lon="-0.09871">
        <ele>104.8</ele>
        <time>2022-10-06T10:26:48Z</time>
      </trkpt>
      <trkpt lat="44.76885" lon="-0.09871">
        <ele>104.8</ele>
        <time>2022-10-06T10:26:49Z</time>
      </trkpt>
      <trkpt lat="44.76887" lon="-0.0987">
        <ele>104.6</ele>
        <time>2022-10-06T10:26:50Z</time>
      </trkpt>
      <trkpt lat="44.76888" lon="-0.09869">
        <ele>104.6</ele>
        <time>2022-10-06T10:26:51Z</time>
      </trkpt>
      <trkpt lat="44.76889" lon="-0.09868">
        <ele>104.6</ele>
        <time>2022-10-06T10:26:52Z</time>
      </trkpt>
      <trkpt lat="44.7689" lon="-0.09868">
        <ele>104.6</ele>
        <time>2022-10-06T10:26:53Z</time>
      </trkpt>
      <trkpt lat="44.7689" lon="-0.09867">
        <ele>104.6</ele>
        <time>2022-10-06T10:26:54Z</time>
      </trkpt>
      <trkpt lat="44.76891" lon="-0.09867">
        <ele>104.6</ele>
        <time>2022-10-06T10:26:55Z</time>
      </trkpt>
      <trkpt lat="44.76892" lon="-0.09867">
        <ele>104.6</ele>
        <time>2022-10-06T10:26:56Z</time>
      </trkpt>
      <trkpt lat="44.76892" lon="-0.09867">
        <ele>104.5</ele>
        <time>2022-10-06T10:26:57Z</time>
      </trkpt>
      <trkpt lat="44.76892" lon="-0.09867">
        <ele>104.5</ele>
        <time>2022-10-06T10:26:58Z</time>
      </trkpt>
      <trkpt lat="44.76892" lon="-0.09867">
        <ele>104.5</ele>
        <time>2022-10-06T10:26:59Z</time>
      </trkpt>
      <trkpt lat="44.76892" lon="-0.09865">
        <ele>104.4</ele>
        <time>2022-10-06T10:27:01Z</time>
      </trkpt>
      <trkpt lat="44.76892" lon="-0.09863">
        <ele>104.4</ele>
        <time>2022-10-06T10:27:02Z</time>
      </trkpt>
      <trkpt lat="44.76892" lon="-0.09861">
        <ele>104.3</ele>
        <time>2022-10-06T10:27:03Z</time>
      </trkpt>
      <trkpt lat="44.76892" lon="-0.09859">
        <ele>104.3</ele>
        <time>2022-10-06T10:27:04Z</time>
      </trkpt>
      <trkpt lat="44.76892" lon="-0.09858">
        <ele>104.3</ele>
        <time>2022-10-06T10:27:05Z</time>
      </trkpt>
      <trkpt lat="44.76892" lon="-0.09857">
        <ele>104.2</ele>
        <time>2022-10-06T10:27:06Z</time>
      </trkpt>
      <trkpt lat="44.76892" lon="-0.09856">
        <ele>104.2</ele>
        <time>2022-10-06T10:27:07Z</time>
      </trkpt>
      <trkpt lat="44.76892" lon="-0.09856">
        <ele>104.2</ele>
        <time>2022-10-06T10:27:08Z</time>
      </trkpt>
      <trkpt lat="44.76892" lon="-0.09855">
        <ele>104.2</ele>
        <time>2022-10-06T10:27:09Z</time>
      </trkpt>
      <trkpt lat="44.76892" lon="-0.09855">
        <ele>104.2</ele>
        <time>2022-10-06T10:27:10Z</time>
      </trkpt>
      <trkpt lat="44.76892" lon="-0.09855">
        <ele>104.2</ele>
        <time>2022-10-06T10:27:11Z</time>
      </trkpt>
      <trkpt lat="44.76892" lon="-0.09855">
        <ele>104.2</ele>
        <time>2022-10-06T10:27:12Z</time>
      </trkpt>
      <trkpt lat="44.76892" lon="-0.09855">
        <ele>104.2</ele>
        <time>2022-10-06T10:27:13Z</time>
      </trkpt>
      <trkpt lat="44.76892" lon="-0.09855">
        <ele>104.2</ele>
        <time>2022-10-06T10:27:14Z</time>
      </trkpt>
      <trkpt lat="44.76892" lon="-0.09855">
        <ele>104.2</ele>
        <time>2022-10-06T10:27:15Z</time>
      </trkpt>
      <trkpt lat="44.76892" lon="-0.09856">
        <ele>104.2</ele>
        <time>2022-10-06T10:27:16Z</time>
      </trkpt>
      <trkpt lat="44.76892" lon="-0.09856">
        <ele>104.2</ele>
        <time>2022-10-06T10:27:17Z</time>
      </trkpt>
      <trkpt lat="44.76892" lon="-0.09855">
        <ele>104.2</ele>
        <time>2022-10-06T10:27:18Z</time>
      </trkpt>
      <trkpt lat="44.76892" lon="-0.09856">
        <ele>104.2</ele>
        <time>2022-10-06T10:27:19Z</time>
      </trkpt>
      <trkpt lat="44.76892" lon="-0.09856">
        <ele>104.2</ele>
        <time>2022-10-06T10:27:20Z</time>
      </trkpt>
      <trkpt lat="44.76892" lon="-0.09856">
        <ele>104.2</ele>
        <time>2022-10-06T10:27:21Z</time>
      </trkpt>
      <trkpt lat="44.76892" lon="-0.09856">
        <ele>104.2</ele>
        <time>2022-10-06T10:27:22Z</time>
      </trkpt>
      <trkpt lat="44.76892" lon="-0.09856">
        <ele>104.2</ele>
        <time>2022-10-06T10:27:23Z</time>
      </trkpt>
      <trkpt lat="44.76892" lon="-0.09856">
        <ele>104.2</ele>
        <time>2022-10-06T10:27:24Z</time>
      </trkpt>
      <trkpt lat="44.76892" lon="-0.09856">
        <ele>104.2</ele>
        <time>2022-10-06T10:27:25Z</time>
      </trkpt>
      <trkpt lat="44.76892" lon="-0.09856">
        <ele>104.2</ele>
        <time>2022-10-06T10:27:26Z</time>
      </trkpt>
      <trkpt lat="44.76892" lon="-0.09856">
        <ele>104.2</ele>
        <time>2022-10-06T10:27:27Z</time>
      </trkpt>
      <trkpt lat="44.76892" lon="-0.09856">
        <ele>104.2</ele>
        <time>2022-10-06T10:27:28Z</time>
      </trkpt>
      <trkpt lat="44.76892" lon="-0.09856">
        <ele>104.2</ele>
        <time>2022-10-06T10:27:29Z</time>
      </trkpt>
      <trkpt lat="44.76892" lon="-0.09856">
        <ele>104.2</ele>
        <time>2022-10-06T10:27:30Z</time>
      </trkpt>
      <trkpt lat="44.76892" lon="-0.09856">
        <ele>104.2</ele>
        <time>2022-10-06T10:27:31Z</time>
      </trkpt>
      <trkpt lat="44.76892" lon="-0.09857">
        <ele>104.2</ele>
        <time>2022-10-06T10:27:32Z</time>
      </trkpt>
      <trkpt lat="44.76892" lon="-0.09857">
        <ele>104.2</ele>
        <time>2022-10-06T10:27:33Z</time>
      </trkpt>
      <trkpt lat="44.76892" lon="-0.09857">
        <ele>104.2</ele>
        <time>2022-10-06T10:27:34Z</time>
      </trkpt>
      <trkpt lat="44.76892" lon="-0.09857">
        <ele>104.2</ele>
        <time>2022-10-06T10:27:35Z</time>
      </trkpt>
      <trkpt lat="44.76892" lon="-0.09857">
        <ele>104.2</ele>
        <time>2022-10-06T10:27:36Z</time>
      </trkpt>
      <trkpt lat="44.76892" lon="-0.09857">
        <ele>104.2</ele>
        <time>2022-10-06T10:27:37Z</time>
      </trkpt>
      <trkpt lat="44.76892" lon="-0.09857">
        <ele>104.2</ele>
        <time>2022-10-06T10:27:38Z</time>
      </trkpt>
      <trkpt lat="44.76892" lon="-0.09857">
        <ele>104.2</ele>
        <time>2022-10-06T10:27:39Z</time>
      </trkpt>
      <trkpt lat="44.76892" lon="-0.09857">
        <ele>104.2</ele>
        <time>2022-10-06T10:27:40Z</time>
      </trkpt>
      <trkpt lat="44.76892" lon="-0.09857">
        <ele>104.2</ele>
        <time>2022-10-06T10:27:41Z</time>
      </trkpt>
      <trkpt lat="44.76892" lon="-0.09857">
        <ele>104.2</ele>
        <time>2022-10-06T10:27:42Z</time>
      </trkpt>
      <trkpt lat="44.76892" lon="-0.09857">
        <ele>104.2</ele>
        <time>2022-10-06T10:27:43Z</time>
      </trkpt>
      <trkpt lat="44.76892" lon="-0.09857">
        <ele>104.2</ele>
        <time>2022-10-06T10:27:44Z</time>
      </trkpt>
      <trkpt lat="44.76892" lon="-0.09857">
        <ele>104.2</ele>
        <time>2022-10-06T10:27:45Z</time>
      </trkpt>
      <trkpt lat="44.76892" lon="-0.09857">
        <ele>104.2</ele>
        <time>2022-10-06T10:27:46Z</time>
      </trkpt>
      <trkpt lat="44.76892" lon="-0.09857">
        <ele>104.2</ele>
        <time>2022-10-06T10:27:47Z</time>
      </trkpt>
      <trkpt lat="44.76892" lon="-0.09857">
        <ele>104.2</ele>
        <time>2022-10-06T10:27:48Z</time>
      </trkpt>
      <trkpt lat="44.76892" lon="-0.09857">
        <ele>104.2</ele>
        <time>2022-10-06T10:27:49Z</time>
      </trkpt>
      <trkpt lat="44.76892" lon="-0.09857">
        <ele>104.2</ele>
        <time>2022-10-06T10:27:50Z</time>
      </trkpt>
      <trkpt lat="44.76892" lon="-0.09857">
        <ele>104.2</ele>
        <time>2022-10-06T10:27:51Z</time>
      </trkpt>
      <trkpt lat="44.76892" lon="-0.09857">
        <ele>104.2</ele>
        <time>2022-10-06T10:27:52Z</time>
      </trkpt>
      <trkpt lat="44.76892" lon="-0.09857">
        <ele>104.2</ele>
        <time>2022-10-06T10:27:53Z</time>
      </trkpt>
      <trkpt lat="44.76892" lon="-0.09857">
        <ele>104.2</ele>
        <time>2022-10-06T10:27:54Z</time>
      </trkpt>
      <trkpt lat="44.76892" lon="-0.09857">
        <ele>104.2</ele>
        <time>2022-10-06T10:27:55Z</time>
      </trkpt>
      <trkpt lat="44.76892" lon="-0.09857">
        <ele>104.2</ele>
        <time>2022-10-06T10:27:56Z</time>
      </trkpt>
      <trkpt lat="44.76892" lon="-0.09857">
        <ele>104.2</ele>
        <time>2022-10-06T10:27:57Z</time>
      </trkpt>
      <trkpt lat="44.76892" lon="-0.09857">
        <ele>104.2</ele>
        <time>2022-10-06T10:27:58Z</time>
      </trkpt>
      <trkpt lat="44.76892" lon="-0.09857">
        <ele>104.2</ele>
        <time>2022-10-06T10:27:59Z</time>
      </trkpt>
      <trkpt lat="44.76892" lon="-0.09857">
        <ele>104.2</ele>
        <time>2022-10-06T10:28:00Z</time>
      </trkpt>
      <trkpt lat="44.76892" lon="-0.09857">
        <ele>104.2</ele>
        <time>2022-10-06T10:28:01Z</time>
      </trkpt>
      <trkpt lat="44.76892" lon="-0.09857">
        <ele>104.2</ele>
        <time>2022-10-06T10:28:02Z</time>
      </trkpt>
      <trkpt lat="44.76892" lon="-0.09857">
        <ele>104.2</ele>
        <time>2022-10-06T10:28:03Z</time>
      </trkpt>
      <trkpt lat="44.76892" lon="-0.09857">
        <ele>104.2</ele>
        <time>2022-10-06T10:28:04Z</time>
      </trkpt>
      <trkpt lat="44.76892" lon="-0.09857">
        <ele>104.2</ele>
        <time>2022-10-06T10:28:05Z</time>
      </trkpt>
      <trkpt lat="44.76892" lon="-0.09857">
        <ele>104.2</ele>
        <time>2022-10-06T10:28:06Z</time>
      </trkpt>
      <trkpt lat="44.76892" lon="-0.09857">
        <ele>104.2</ele>
        <time>2022-10-06T10:28:07Z</time>
      </trkpt>
      <trkpt lat="44.76892" lon="-0.09857">
        <ele>104.2</ele>
        <time>2022-10-06T10:28:08Z</time>
      </trkpt>
      <trkpt lat="44.76892" lon="-0.09857">
        <ele>104.2</ele>
        <time>2022-10-06T10:28:09Z</time>
      </trkpt>
      <trkpt lat="44.76892" lon="-0.09857">
        <ele>104.2</ele>
        <time>2022-10-06T10:28:10Z</time>
      </trkpt>
      <trkpt lat="44.76892" lon="-0.09857">
        <ele>104.2</ele>
        <time>2022-10-06T10:28:11Z</time>
      </trkpt>
      <trkpt lat="44.76892" lon="-0.09857">
        <ele>104.2</ele>
        <time>2022-10-06T10:28:12Z</time>
      </trkpt>
      <trkpt lat="44.76892" lon="-0.09857">
        <ele>104.2</ele>
        <time>2022-10-06T10:28:13Z</time>
      </trkpt>
      <trkpt lat="44.76892" lon="-0.09857">
        <ele>104.2</ele>
        <time>2022-10-06T10:28:14Z</time>
      </trkpt>
      <trkpt lat="44.76892" lon="-0.09857">
        <ele>104.2</ele>
        <time>2022-10-06T10:28:15Z</time>
      </trkpt>
      <trkpt lat="44.76892" lon="-0.09857">
        <ele>104.2</ele>
        <time>2022-10-06T10:28:16Z</time>
      </trkpt>
      <trkpt lat="44.76892" lon="-0.09857">
        <ele>104.2</ele>
        <time>2022-10-06T10:28:17Z</time>
      </trkpt>
      <trkpt lat="44.76892" lon="-0.09857">
        <ele>104.2</ele>
        <time>2022-10-06T10:28:18Z</time>
      </trkpt>
      <trkpt lat="44.76892" lon="-0.09857">
        <ele>104.2</ele>
        <time>2022-10-06T10:28:19Z</time>
      </trkpt>
      <trkpt lat="44.76892" lon="-0.09857">
        <ele>104.2</ele>
        <time>2022-10-06T10:28:20Z</time>
      </trkpt>
      <trkpt lat="44.76892" lon="-0.09857">
        <ele>104.2</ele>
        <time>2022-10-06T10:28:21Z</time>
      </trkpt>
      <trkpt lat="44.76892" lon="-0.09857">
        <ele>104.2</ele>
        <time>2022-10-06T10:28:22Z</time>
      </trkpt>
      <trkpt lat="44.76892" lon="-0.09857">
        <ele>104.2</ele>
        <time>2022-10-06T10:28:23Z</time>
      </trkpt>
      <trkpt lat="44.76892" lon="-0.09857">
        <ele>104.2</ele>
        <time>2022-10-06T10:28:24Z</time>
      </trkpt>
      <trkpt lat="44.76892" lon="-0.09857">
        <ele>104.2</ele>
        <time>2022-10-06T10:28:25Z</time>
      </trkpt>
      <trkpt lat="44.76892" lon="-0.09857">
        <ele>104.2</ele>
        <time>2022-10-06T10:28:26Z</time>
      </trkpt>
      <trkpt lat="44.76892" lon="-0.09857">
        <ele>104.2</ele>
        <time>2022-10-06T10:28:27Z</time>
      </trkpt>
      <trkpt lat="44.76892" lon="-0.09857">
        <ele>104.2</ele>
        <time>2022-10-06T10:28:28Z</time>
      </trkpt>
      <trkpt lat="44.76892" lon="-0.09857">
        <ele>104.2</ele>
        <time>2022-10-06T10:28:29Z</time>
      </trkpt>
      <trkpt lat="44.76892" lon="-0.09857">
        <ele>104.2</ele>
        <time>2022-10-06T10:28:30Z</time>
      </trkpt>
      <trkpt lat="44.76892" lon="-0.09857">
        <ele>104.2</ele>
        <time>2022-10-06T10:28:31Z</time>
      </trkpt>
      <trkpt lat="44.76892" lon="-0.09857">
        <ele>104.2</ele>
        <time>2022-10-06T10:28:32Z</time>
      </trkpt>
      <trkpt lat="44.76892" lon="-0.09857">
        <ele>104.2</ele>
        <time>2022-10-06T10:28:33Z</time>
      </trkpt>
      <trkpt lat="44.76892" lon="-0.09857">
        <ele>104.2</ele>
        <time>2022-10-06T10:28:34Z</time>
      </trkpt>
      <trkpt lat="44.76892" lon="-0.09857">
        <ele>104.2</ele>
        <time>2022-10-06T10:28:35Z</time>
      </trkpt>
      <trkpt lat="44.76892" lon="-0.09857">
        <ele>104.2</ele>
        <time>2022-10-06T10:28:36Z</time>
      </trkpt>
      <trkpt lat="44.76892" lon="-0.09857">
        <ele>104.2</ele>
        <time>2022-10-06T10:28:37Z</time>
      </trkpt>
      <trkpt lat="44.76892" lon="-0.09857">
        <ele>104.2</ele>
        <time>2022-10-06T10:28:38Z</time>
      </trkpt>
      <trkpt lat="44.76892" lon="-0.09857">
        <ele>104.2</ele>
        <time>2022-10-06T10:28:39Z</time>
      </trkpt>
      <trkpt lat="44.76892" lon="-0.09857">
        <ele>104.2</ele>
        <time>2022-10-06T10:28:40Z</time>
      </trkpt>
      <trkpt lat="44.76892" lon="-0.09857">
        <ele>104.2</ele>
        <time>2022-10-06T10:28:41Z</time>
      </trkpt>
      <trkpt lat="44.76892" lon="-0.09857">
        <ele>104.2</ele>
        <time>2022-10-06T10:28:42Z</time>
      </trkpt>
      <trkpt lat="44.76892" lon="-0.09857">
        <ele>104.2</ele>
        <time>2022-10-06T10:28:43Z</time>
      </trkpt>
      <trkpt lat="44.76892" lon="-0.09857">
        <ele>104.2</ele>
        <time>2022-10-06T10:28:44Z</time>
      </trkpt>
      <trkpt lat="44.76892" lon="-0.09857">
        <ele>104.2</ele>
        <time>2022-10-06T10:28:45Z</time>
      </trkpt>
      <trkpt lat="44.76892" lon="-0.09857">
        <ele>104.2</ele>
        <time>2022-10-06T10:28:46Z</time>
      </trkpt>
      <trkpt lat="44.76892" lon="-0.09857">
        <ele>104.2</ele>
        <time>2022-10-06T10:28:47Z</time>
      </trkpt>
      <trkpt lat="44.76892" lon="-0.09857">
        <ele>104.2</ele>
        <time>2022-10-06T10:28:48Z</time>
      </trkpt>
      <trkpt lat="44.76892" lon="-0.09857">
        <ele>104.2</ele>
        <time>2022-10-06T10:28:49Z</time>
      </trkpt>
      <trkpt lat="44.76892" lon="-0.09857">
        <ele>104.2</ele>
        <time>2022-10-06T10:28:50Z</time>
      </trkpt>
      <trkpt lat="44.76892" lon="-0.09857">
        <ele>104.2</ele>
        <time>2022-10-06T10:28:51Z</time>
      </trkpt>
      <trkpt lat="44.76892" lon="-0.09857">
        <ele>104.2</ele>
        <time>2022-10-06T10:28:52Z</time>
      </trkpt>
      <trkpt lat="44.76892" lon="-0.09857">
        <ele>104.2</ele>
        <time>2022-10-06T10:28:53Z</time>
      </trkpt>
      <trkpt lat="44.76892" lon="-0.09857">
        <ele>104.2</ele>
        <time>2022-10-06T10:28:54Z</time>
      </trkpt>
      <trkpt lat="44.76892" lon="-0.09857">
        <ele>104.2</ele>
        <time>2022-10-06T10:28:55Z</time>
      </trkpt>
      <trkpt lat="44.76892" lon="-0.09857">
        <ele>104.2</ele>
        <time>2022-10-06T10:28:56Z</time>
      </trkpt>
      <trkpt lat="44.76892" lon="-0.09857">
        <ele>104.2</ele>
        <time>2022-10-06T10:28:57Z</time>
      </trkpt>
      <trkpt lat="44.76892" lon="-0.09857">
        <ele>104.2</ele>
        <time>2022-10-06T10:28:58Z</time>
      </trkpt>
      <trkpt lat="44.76892" lon="-0.09857">
        <ele>104.2</ele>
        <time>2022-10-06T10:28:59Z</time>
      </trkpt>
      <trkpt lat="44.76892" lon="-0.09857">
        <ele>104.2</ele>
        <time>2022-10-06T10:29:00Z</time>
      </trkpt>
      <trkpt lat="44.76892" lon="-0.09857">
        <ele>104.2</ele>
        <time>2022-10-06T10:29:01Z</time>
      </trkpt>
      <trkpt lat="44.76892" lon="-0.09857">
        <ele>104.2</ele>
        <time>2022-10-06T10:29:02Z</time>
      </trkpt>
      <trkpt lat="44.76892" lon="-0.09857">
        <ele>104.2</ele>
        <time>2022-10-06T10:29:03Z</time>
      </trkpt>
      <trkpt lat="44.76892" lon="-0.09857">
        <ele>104.2</ele>
        <time>2022-10-06T10:29:04Z</time>
      </trkpt>
      <trkpt lat="44.76892" lon="-0.09857">
        <ele>104.2</ele>
        <time>2022-10-06T10:29:05Z</time>
      </trkpt>
      <trkpt lat="44.76892" lon="-0.09857">
        <ele>104.2</ele>
        <time>2022-10-06T10:29:06Z</time>
      </trkpt>
      <trkpt lat="44.76892" lon="-0.09857">
        <ele>104.2</ele>
        <time>2022-10-06T10:29:07Z</time>
      </trkpt>
      <trkpt lat="44.76891" lon="-0.09857">
        <ele>104.2</ele>
        <time>2022-10-06T10:29:08Z</time>
      </trkpt>
      <trkpt lat="44.76891" lon="-0.09857">
        <ele>104.2</ele>
        <time>2022-10-06T10:29:09Z</time>
      </trkpt>
      <trkpt lat="44.76891" lon="-0.09857">
        <ele>104.2</ele>
        <time>2022-10-06T10:29:10Z</time>
      </trkpt>
      <trkpt lat="44.76891" lon="-0.09857">
        <ele>104.2</ele>
        <time>2022-10-06T10:29:11Z</time>
      </trkpt>
      <trkpt lat="44.7689" lon="-0.09857">
        <ele>104.2</ele>
        <time>2022-10-06T10:29:12Z</time>
      </trkpt>
      <trkpt lat="44.7689" lon="-0.09857">
        <ele>104.2</ele>
        <time>2022-10-06T10:29:13Z</time>
      </trkpt>
      <trkpt lat="44.76891" lon="-0.09857">
        <ele>104.2</ele>
        <time>2022-10-06T10:29:14Z</time>
      </trkpt>
      <trkpt lat="44.76891" lon="-0.09857">
        <ele>104.2</ele>
        <time>2022-10-06T10:29:15Z</time>
      </trkpt>
      <trkpt lat="44.76891" lon="-0.09857">
        <ele>104.2</ele>
        <time>2022-10-06T10:29:16Z</time>
      </trkpt>
      <trkpt lat="44.76891" lon="-0.09857">
        <ele>104.2</ele>
        <time>2022-10-06T10:29:17Z</time>
      </trkpt>
      <trkpt lat="44.76891" lon="-0.09857">
        <ele>104.2</ele>
        <time>2022-10-06T10:29:18Z</time>
      </trkpt>
      <trkpt lat="44.7689" lon="-0.09857">
        <ele>104.2</ele>
        <time>2022-10-06T10:29:19Z</time>
      </trkpt>
      <trkpt lat="44.7689" lon="-0.09857">
        <ele>104.2</ele>
        <time>2022-10-06T10:29:20Z</time>
      </trkpt>
      <trkpt lat="44.7689" lon="-0.09857">
        <ele>104.2</ele>
        <time>2022-10-06T10:29:21Z</time>
      </trkpt>
      <trkpt lat="44.7689" lon="-0.09857">
        <ele>104.2</ele>
        <time>2022-10-06T10:29:22Z</time>
      </trkpt>
      <trkpt lat="44.7689" lon="-0.09857">
        <ele>104.2</ele>
        <time>2022-10-06T10:29:23Z</time>
      </trkpt>
      <trkpt lat="44.7689" lon="-0.09857">
        <ele>104.2</ele>
        <time>2022-10-06T10:29:24Z</time>
      </trkpt>
      <trkpt lat="44.7689" lon="-0.09857">
        <ele>104.2</ele>
        <time>2022-10-06T10:29:25Z</time>
      </trkpt>
      <trkpt lat="44.7689" lon="-0.09857">
        <ele>104.2</ele>
        <time>2022-10-06T10:29:26Z</time>
      </trkpt>
      <trkpt lat="44.7689" lon="-0.09857">
        <ele>104.2</ele>
        <time>2022-10-06T10:29:27Z</time>
      </trkpt>
      <trkpt lat="44.7689" lon="-0.09857">
        <ele>104.2</ele>
        <time>2022-10-06T10:29:28Z</time>
      </trkpt>
      <trkpt lat="44.7689" lon="-0.09857">
        <ele>104.2</ele>
        <time>2022-10-06T10:29:29Z</time>
      </trkpt>
      <trkpt lat="44.7689" lon="-0.09857">
        <ele>104.2</ele>
        <time>2022-10-06T10:29:30Z</time>
      </trkpt>
      <trkpt lat="44.7689" lon="-0.09857">
        <ele>104.2</ele>
        <time>2022-10-06T10:29:31Z</time>
      </trkpt>
      <trkpt lat="44.7689" lon="-0.09857">
        <ele>104.2</ele>
        <time>2022-10-06T10:29:32Z</time>
      </trkpt>
      <trkpt lat="44.7689" lon="-0.09857">
        <ele>104.2</ele>
        <time>2022-10-06T10:29:33Z</time>
      </trkpt>
      <trkpt lat="44.7689" lon="-0.09857">
        <ele>104.2</ele>
        <time>2022-10-06T10:29:34Z</time>
      </trkpt>
      <trkpt lat="44.7689" lon="-0.09857">
        <ele>104.2</ele>
        <time>2022-10-06T10:29:35Z</time>
      </trkpt>
      <trkpt lat="44.7689" lon="-0.09857">
        <ele>104.2</ele>
        <time>2022-10-06T10:29:36Z</time>
      </trkpt>
      <trkpt lat="44.7689" lon="-0.09857">
        <ele>104.2</ele>
        <time>2022-10-06T10:29:37Z</time>
      </trkpt>
      <trkpt lat="44.7689" lon="-0.09857">
        <ele>104.2</ele>
        <time>2022-10-06T10:29:38Z</time>
      </trkpt>
      <trkpt lat="44.7689" lon="-0.09857">
        <ele>104.2</ele>
        <time>2022-10-06T10:29:39Z</time>
      </trkpt>
      <trkpt lat="44.7689" lon="-0.09857">
        <ele>104.2</ele>
        <time>2022-10-06T10:29:40Z</time>
      </trkpt>
      <trkpt lat="44.7689" lon="-0.09857">
        <ele>104.2</ele>
        <time>2022-10-06T10:29:41Z</time>
      </trkpt>
      <trkpt lat="44.7689" lon="-0.09857">
        <ele>104.2</ele>
        <time>2022-10-06T10:29:42Z</time>
      </trkpt>
      <trkpt lat="44.7689" lon="-0.09857">
        <ele>104.2</ele>
        <time>2022-10-06T10:29:43Z</time>
      </trkpt>
      <trkpt lat="44.7689" lon="-0.09857">
        <ele>104.2</ele>
        <time>2022-10-06T10:29:44Z</time>
      </trkpt>
      <trkpt lat="44.7689" lon="-0.09857">
        <ele>104.2</ele>
        <time>2022-10-06T10:29:45Z</time>
      </trkpt>
      <trkpt lat="44.7689" lon="-0.09857">
        <ele>104.2</ele>
        <time>2022-10-06T10:29:46Z</time>
      </trkpt>
      <trkpt lat="44.7689" lon="-0.09857">
        <ele>104.2</ele>
        <time>2022-10-06T10:29:47Z</time>
      </trkpt>
      <trkpt lat="44.7689" lon="-0.09857">
        <ele>104.2</ele>
        <time>2022-10-06T10:29:48Z</time>
      </trkpt>
      <trkpt lat="44.7689" lon="-0.09857">
        <ele>104.2</ele>
        <time>2022-10-06T10:29:49Z</time>
      </trkpt>
      <trkpt lat="44.7689" lon="-0.09857">
        <ele>104.2</ele>
        <time>2022-10-06T10:29:50Z</time>
      </trkpt>
      <trkpt lat="44.7689" lon="-0.09857">
        <ele>104.2</ele>
        <time>2022-10-06T10:29:51Z</time>
      </trkpt>
      <trkpt lat="44.7689" lon="-0.09857">
        <ele>104.2</ele>
        <time>2022-10-06T10:29:52Z</time>
      </trkpt>
      <trkpt lat="44.7689" lon="-0.09857">
        <ele>104.2</ele>
        <time>2022-10-06T10:29:53Z</time>
      </trkpt>
      <trkpt lat="44.7689" lon="-0.09857">
        <ele>104.2</ele>
        <time>2022-10-06T10:29:54Z</time>
      </trkpt>
      <trkpt lat="44.7689" lon="-0.09857">
        <ele>104.2</ele>
        <time>2022-10-06T10:29:55Z</time>
      </trkpt>
      <trkpt lat="44.7689" lon="-0.09857">
        <ele>104.2</ele>
        <time>2022-10-06T10:29:56Z</time>
      </trkpt>
      <trkpt lat="44.7689" lon="-0.09857">
        <ele>104.2</ele>
        <time>2022-10-06T10:29:57Z</time>
      </trkpt>
      <trkpt lat="44.7689" lon="-0.09857">
        <ele>104.2</ele>
        <time>2022-10-06T10:29:58Z</time>
      </trkpt>
      <trkpt lat="44.7689" lon="-0.09857">
        <ele>104.2</ele>
        <time>2022-10-06T10:29:59Z</time>
      </trkpt>
      <trkpt lat="44.7689" lon="-0.09857">
        <ele>104.2</ele>
        <time>2022-10-06T10:30:00Z</time>
      </trkpt>
      <trkpt lat="44.7689" lon="-0.09857">
        <ele>104.2</ele>
        <time>2022-10-06T10:30:01Z</time>
      </trkpt>
      <trkpt lat="44.7689" lon="-0.09857">
        <ele>104.2</ele>
        <time>2022-10-06T10:30:02Z</time>
      </trkpt>
      <trkpt lat="44.7689" lon="-0.09857">
        <ele>104.2</ele>
        <time>2022-10-06T10:30:03Z</time>
      </trkpt>
      <trkpt lat="44.7689" lon="-0.09857">
        <ele>104.2</ele>
        <time>2022-10-06T10:30:04Z</time>
      </trkpt>
      <trkpt lat="44.7689" lon="-0.09857">
        <ele>104.2</ele>
        <time>2022-10-06T10:30:05Z</time>
      </trkpt>
      <trkpt lat="44.7689" lon="-0.09857">
        <ele>104.2</ele>
        <time>2022-10-06T10:30:06Z</time>
      </trkpt>
      <trkpt lat="44.7689" lon="-0.09857">
        <ele>104.2</ele>
        <time>2022-10-06T10:30:07Z</time>
      </trkpt>
      <trkpt lat="44.7689" lon="-0.09857">
        <ele>104.2</ele>
        <time>2022-10-06T10:30:08Z</time>
      </trkpt>
      <trkpt lat="44.7689" lon="-0.09857">
        <ele>104.2</ele>
        <time>2022-10-06T10:30:09Z</time>
      </trkpt>
      <trkpt lat="44.7689" lon="-0.09857">
        <ele>104.2</ele>
        <time>2022-10-06T10:30:10Z</time>
      </trkpt>
      <trkpt lat="44.7689" lon="-0.09857">
        <ele>104.2</ele>
        <time>2022-10-06T10:30:11Z</time>
      </trkpt>
      <trkpt lat="44.7689" lon="-0.09857">
        <ele>104.2</ele>
        <time>2022-10-06T10:30:12Z</time>
      </trkpt>
      <trkpt lat="44.7689" lon="-0.09857">
        <ele>104.2</ele>
        <time>2022-10-06T10:30:13Z</time>
      </trkpt>
      <trkpt lat="44.7689" lon="-0.09857">
        <ele>104.2</ele>
        <time>2022-10-06T10:30:14Z</time>
      </trkpt>
      <trkpt lat="44.7689" lon="-0.09857">
        <ele>104.2</ele>
        <time>2022-10-06T10:30:15Z</time>
      </trkpt>
      <trkpt lat="44.7689" lon="-0.09857">
        <ele>104.2</ele>
        <time>2022-10-06T10:30:16Z</time>
      </trkpt>
      <trkpt lat="44.7689" lon="-0.09857">
        <ele>104.2</ele>
        <time>2022-10-06T10:30:17Z</time>
      </trkpt>
      <trkpt lat="44.7689" lon="-0.09857">
        <ele>104.2</ele>
        <time>2022-10-06T10:30:18Z</time>
      </trkpt>
      <trkpt lat="44.7689" lon="-0.09857">
        <ele>104.2</ele>
        <time>2022-10-06T10:30:19Z</time>
      </trkpt>
      <trkpt lat="44.7689" lon="-0.09857">
        <ele>104.2</ele>
        <time>2022-10-06T10:30:20Z</time>
      </trkpt>
      <trkpt lat="44.7689" lon="-0.09857">
        <ele>104.2</ele>
        <time>2022-10-06T10:30:21Z</time>
      </trkpt>
      <trkpt lat="44.7689" lon="-0.09857">
        <ele>104.2</ele>
        <time>2022-10-06T10:30:22Z</time>
      </trkpt>
      <trkpt lat="44.7689" lon="-0.09857">
        <ele>104.2</ele>
        <time>2022-10-06T10:30:23Z</time>
      </trkpt>
      <trkpt lat="44.7689" lon="-0.09857">
        <ele>104.2</ele>
        <time>2022-10-06T10:30:24Z</time>
      </trkpt>
      <trkpt lat="44.7689" lon="-0.09857">
        <ele>104.2</ele>
        <time>2022-10-06T10:30:25Z</time>
      </trkpt>
      <trkpt lat="44.7689" lon="-0.09857">
        <ele>104.2</ele>
        <time>2022-10-06T10:30:26Z</time>
      </trkpt>
      <trkpt lat="44.7689" lon="-0.09857">
        <ele>104.2</ele>
        <time>2022-10-06T10:30:27Z</time>
      </trkpt>
      <trkpt lat="44.7689" lon="-0.09857">
        <ele>104.2</ele>
        <time>2022-10-06T10:30:28Z</time>
      </trkpt>
      <trkpt lat="44.7689" lon="-0.09857">
        <ele>104.2</ele>
        <time>2022-10-06T10:30:29Z</time>
      </trkpt>
      <trkpt lat="44.7689" lon="-0.09857">
        <ele>104.2</ele>
        <time>2022-10-06T10:30:30Z</time>
      </trkpt>
      <trkpt lat="44.7689" lon="-0.09857">
        <ele>104.2</ele>
        <time>2022-10-06T10:30:31Z</time>
      </trkpt>
      <trkpt lat="44.7689" lon="-0.09857">
        <ele>104.2</ele>
        <time>2022-10-06T10:30:32Z</time>
      </trkpt>
      <trkpt lat="44.7689" lon="-0.09857">
        <ele>104.2</ele>
        <time>2022-10-06T10:30:33Z</time>
      </trkpt>
      <trkpt lat="44.7689" lon="-0.09857">
        <ele>104.2</ele>
        <time>2022-10-06T10:30:34Z</time>
      </trkpt>
      <trkpt lat="44.7689" lon="-0.09857">
        <ele>104.2</ele>
        <time>2022-10-06T10:30:35Z</time>
      </trkpt>
      <trkpt lat="44.7689" lon="-0.09857">
        <ele>104.2</ele>
        <time>2022-10-06T10:30:36Z</time>
      </trkpt>
      <trkpt lat="44.7689" lon="-0.09857">
        <ele>104.2</ele>
        <time>2022-10-06T10:30:37Z</time>
      </trkpt>
      <trkpt lat="44.7689" lon="-0.09857">
        <ele>104.2</ele>
        <time>2022-10-06T10:30:38Z</time>
      </trkpt>
      <trkpt lat="44.7689" lon="-0.09857">
        <ele>104.2</ele>
        <time>2022-10-06T10:30:39Z</time>
      </trkpt>
      <trkpt lat="44.7689" lon="-0.09857">
        <ele>104.2</ele>
        <time>2022-10-06T10:30:40Z</time>
      </trkpt>
      <trkpt lat="44.7689" lon="-0.09857">
        <ele>104.2</ele>
        <time>2022-10-06T10:30:41Z</time>
      </trkpt>
      <trkpt lat="44.7689" lon="-0.09857">
        <ele>104.2</ele>
        <time>2022-10-06T10:30:42Z</time>
      </trkpt>
      <trkpt lat="44.7689" lon="-0.09857">
        <ele>104.2</ele>
        <time>2022-10-06T10:30:43Z</time>
      </trkpt>
      <trkpt lat="44.7689" lon="-0.09857">
        <ele>104.2</ele>
        <time>2022-10-06T10:30:44Z</time>
      </trkpt>
      <trkpt lat="44.7689" lon="-0.09857">
        <ele>104.2</ele>
        <time>2022-10-06T10:30:45Z</time>
      </trkpt>
      <trkpt lat="44.7689" lon="-0.09857">
        <ele>104.2</ele>
        <time>2022-10-06T10:30:46Z</time>
      </trkpt>
      <trkpt lat="44.7689" lon="-0.09857">
        <ele>104.2</ele>
        <time>2022-10-06T10:30:47Z</time>
      </trkpt>
      <trkpt lat="44.7689" lon="-0.09857">
        <ele>104.2</ele>
        <time>2022-10-06T10:30:48Z</time>
      </trkpt>
      <trkpt lat="44.7689" lon="-0.09857">
        <ele>104.2</ele>
        <time>2022-10-06T10:30:49Z</time>
      </trkpt>
      <trkpt lat="44.7689" lon="-0.09857">
        <ele>104.2</ele>
        <time>2022-10-06T10:30:50Z</time>
      </trkpt>
      <trkpt lat="44.7689" lon="-0.09857">
        <ele>104.2</ele>
        <time>2022-10-06T10:30:51Z</time>
      </trkpt>
      <trkpt lat="44.7689" lon="-0.09857">
        <ele>104.2</ele>
        <time>2022-10-06T10:30:52Z</time>
      </trkpt>
      <trkpt lat="44.7689" lon="-0.09857">
        <ele>104.2</ele>
        <time>2022-10-06T10:30:53Z</time>
      </trkpt>
      <trkpt lat="44.7689" lon="-0.09857">
        <ele>104.2</ele>
        <time>2022-10-06T10:30:54Z</time>
      </trkpt>
      <trkpt lat="44.7689" lon="-0.09857">
        <ele>104.2</ele>
        <time>2022-10-06T10:30:55Z</time>
      </trkpt>
      <trkpt lat="44.7689" lon="-0.09857">
        <ele>104.2</ele>
        <time>2022-10-06T10:30:56Z</time>
      </trkpt>
      <trkpt lat="44.7689" lon="-0.09857">
        <ele>104.2</ele>
        <time>2022-10-06T10:30:57Z</time>
      </trkpt>
      <trkpt lat="44.7689" lon="-0.09857">
        <ele>104.2</ele>
        <time>2022-10-06T10:30:58Z</time>
      </trkpt>
      <trkpt lat="44.7689" lon="-0.09857">
        <ele>104.2</ele>
        <time>2022-10-06T10:30:59Z</time>
      </trkpt>
      <trkpt lat="44.7689" lon="-0.09857">
        <ele>104.2</ele>
        <time>2022-10-06T10:31:00Z</time>
      </trkpt>
      <trkpt lat="44.7689" lon="-0.09857">
        <ele>104.2</ele>
        <time>2022-10-06T10:31:01Z</time>
      </trkpt>
      <trkpt lat="44.7689" lon="-0.09857">
        <ele>104.2</ele>
        <time>2022-10-06T10:31:02Z</time>
      </trkpt>
      <trkpt lat="44.7689" lon="-0.09857">
        <ele>104.2</ele>
        <time>2022-10-06T10:31:03Z</time>
      </trkpt>
      <trkpt lat="44.7689" lon="-0.09857">
        <ele>104.2</ele>
        <time>2022-10-06T10:31:04Z</time>
      </trkpt>
      <trkpt lat="44.7689" lon="-0.09857">
        <ele>104.2</ele>
        <time>2022-10-06T10:31:05Z</time>
      </trkpt>
      <trkpt lat="44.7689" lon="-0.09857">
        <ele>104.2</ele>
        <time>2022-10-06T10:31:06Z</time>
      </trkpt>
      <trkpt lat="44.7689" lon="-0.09857">
        <ele>104.2</ele>
        <time>2022-10-06T10:31:07Z</time>
      </trkpt>
      <trkpt lat="44.7689" lon="-0.09857">
        <ele>104.2</ele>
        <time>2022-10-06T10:31:09Z</time>
      </trkpt>
      <trkpt lat="44.7689" lon="-0.09857">
        <ele>104.2</ele>
        <time>2022-10-06T10:31:10Z</time>
      </trkpt>
      <trkpt lat="44.7689" lon="-0.09857">
        <ele>104.2</ele>
        <time>2022-10-06T10:31:11Z</time>
      </trkpt>
      <trkpt lat="44.7689" lon="-0.09857">
        <ele>104.2</ele>
        <time>2022-10-06T10:31:12Z</time>
      </trkpt>
      <trkpt lat="44.7689" lon="-0.09857">
        <ele>104.2</ele>
        <time>2022-10-06T10:31:13Z</time>
      </trkpt>
      <trkpt lat="44.7689" lon="-0.09857">
        <ele>104.2</ele>
        <time>2022-10-06T10:31:14Z</time>
      </trkpt>
      <trkpt lat="44.7689" lon="-0.09857">
        <ele>104.2</ele>
        <time>2022-10-06T10:31:15Z</time>
      </trkpt>
      <trkpt lat="44.7689" lon="-0.09857">
        <ele>104.2</ele>
        <time>2022-10-06T10:31:16Z</time>
      </trkpt>
      <trkpt lat="44.7689" lon="-0.09857">
        <ele>104.2</ele>
        <time>2022-10-06T10:31:17Z</time>
      </trkpt>
      <trkpt lat="44.7689" lon="-0.09857">
        <ele>104.2</ele>
        <time>2022-10-06T10:31:18Z</time>
      </trkpt>
      <trkpt lat="44.7689" lon="-0.09857">
        <ele>104.2</ele>
        <time>2022-10-06T10:31:19Z</time>
      </trkpt>
      <trkpt lat="44.7689" lon="-0.09857">
        <ele>104.2</ele>
        <time>2022-10-06T10:31:20Z</time>
      </trkpt>
      <trkpt lat="44.7689" lon="-0.09857">
        <ele>104.2</ele>
        <time>2022-10-06T10:31:21Z</time>
      </trkpt>
      <trkpt lat="44.7689" lon="-0.09857">
        <ele>104.2</ele>
        <time>2022-10-06T10:31:22Z</time>
      </trkpt>
      <trkpt lat="44.7689" lon="-0.09857">
        <ele>104.2</ele>
        <time>2022-10-06T10:31:23Z</time>
      </trkpt>
      <trkpt lat="44.7689" lon="-0.09857">
        <ele>104.2</ele>
        <time>2022-10-06T10:31:24Z</time>
      </trkpt>
      <trkpt lat="44.7689" lon="-0.09857">
        <ele>104.2</ele>
        <time>2022-10-06T10:31:25Z</time>
      </trkpt>
      <trkpt lat="44.7689" lon="-0.09857">
        <ele>104.2</ele>
        <time>2022-10-06T10:31:26Z</time>
      </trkpt>
      <trkpt lat="44.7689" lon="-0.09857">
        <ele>104.2</ele>
        <time>2022-10-06T10:31:27Z</time>
      </trkpt>
      <trkpt lat="44.7689" lon="-0.09857">
        <ele>104.2</ele>
        <time>2022-10-06T10:31:28Z</time>
      </trkpt>
      <trkpt lat="44.7689" lon="-0.09857">
        <ele>104.2</ele>
        <time>2022-10-06T10:31:29Z</time>
      </trkpt>
      <trkpt lat="44.7689" lon="-0.09857">
        <ele>104.2</ele>
        <time>2022-10-06T10:31:30Z</time>
      </trkpt>
      <trkpt lat="44.7689" lon="-0.09857">
        <ele>104.2</ele>
        <time>2022-10-06T10:31:31Z</time>
      </trkpt>
      <trkpt lat="44.7689" lon="-0.09857">
        <ele>104.2</ele>
        <time>2022-10-06T10:31:32Z</time>
      </trkpt>
      <trkpt lat="44.7689" lon="-0.09857">
        <ele>104.2</ele>
        <time>2022-10-06T10:31:33Z</time>
      </trkpt>
      <trkpt lat="44.7689" lon="-0.09857">
        <ele>104.2</ele>
        <time>2022-10-06T10:31:34Z</time>
      </trkpt>
      <trkpt lat="44.7689" lon="-0.09857">
        <ele>104.2</ele>
        <time>2022-10-06T10:31:35Z</time>
      </trkpt>
      <trkpt lat="44.7689" lon="-0.09857">
        <ele>104.2</ele>
        <time>2022-10-06T10:31:36Z</time>
      </trkpt>
      <trkpt lat="44.7689" lon="-0.09857">
        <ele>104.2</ele>
        <time>2022-10-06T10:31:37Z</time>
      </trkpt>
      <trkpt lat="44.7689" lon="-0.09857">
        <ele>104.2</ele>
        <time>2022-10-06T10:31:38Z</time>
      </trkpt>
      <trkpt lat="44.7689" lon="-0.09857">
        <ele>104.2</ele>
        <time>2022-10-06T10:31:39Z</time>
      </trkpt>
      <trkpt lat="44.7689" lon="-0.09857">
        <ele>104.2</ele>
        <time>2022-10-06T10:31:40Z</time>
      </trkpt>
      <trkpt lat="44.7689" lon="-0.09857">
        <ele>104.2</ele>
        <time>2022-10-06T10:31:41Z</time>
      </trkpt>
      <trkpt lat="44.7689" lon="-0.09857">
        <ele>104.2</ele>
        <time>2022-10-06T10:31:42Z</time>
      </trkpt>
      <trkpt lat="44.7689" lon="-0.09857">
        <ele>104.2</ele>
        <time>2022-10-06T10:31:43Z</time>
      </trkpt>
      <trkpt lat="44.7689" lon="-0.09857">
        <ele>104.2</ele>
        <time>2022-10-06T10:31:44Z</time>
      </trkpt>
      <trkpt lat="44.7689" lon="-0.09857">
        <ele>104.2</ele>
        <time>2022-10-06T10:31:45Z</time>
      </trkpt>
      <trkpt lat="44.7689" lon="-0.09857">
        <ele>104.2</ele>
        <time>2022-10-06T10:31:46Z</time>
      </trkpt>
      <trkpt lat="44.7689" lon="-0.09857">
        <ele>104.2</ele>
        <time>2022-10-06T10:31:47Z</time>
      </trkpt>
      <trkpt lat="44.7689" lon="-0.09857">
        <ele>104.2</ele>
        <time>2022-10-06T10:31:48Z</time>
      </trkpt>
      <trkpt lat="44.7689" lon="-0.09857">
        <ele>104.2</ele>
        <time>2022-10-06T10:31:49Z</time>
      </trkpt>
      <trkpt lat="44.7689" lon="-0.09857">
        <ele>104.2</ele>
        <time>2022-10-06T10:31:50Z</time>
      </trkpt>
      <trkpt lat="44.7689" lon="-0.09857">
        <ele>104.2</ele>
        <time>2022-10-06T10:31:51Z</time>
      </trkpt>
      <trkpt lat="44.7689" lon="-0.09857">
        <ele>104.2</ele>
        <time>2022-10-06T10:31:52Z</time>
      </trkpt>
      <trkpt lat="44.7689" lon="-0.09857">
        <ele>104.2</ele>
        <time>2022-10-06T10:31:53Z</time>
      </trkpt>
      <trkpt lat="44.7689" lon="-0.09857">
        <ele>104.2</ele>
        <time>2022-10-06T10:31:54Z</time>
      </trkpt>
      <trkpt lat="44.7689" lon="-0.09857">
        <ele>104.2</ele>
        <time>2022-10-06T10:31:55Z</time>
      </trkpt>
      <trkpt lat="44.7689" lon="-0.09857">
        <ele>104.2</ele>
        <time>2022-10-06T10:31:56Z</time>
      </trkpt>
      <trkpt lat="44.7689" lon="-0.09857">
        <ele>104.2</ele>
        <time>2022-10-06T10:31:57Z</time>
      </trkpt>
      <trkpt lat="44.7689" lon="-0.09857">
        <ele>104.2</ele>
        <time>2022-10-06T10:31:58Z</time>
      </trkpt>
      <trkpt lat="44.7689" lon="-0.09857">
        <ele>104.2</ele>
        <time>2022-10-06T10:31:59Z</time>
      </trkpt>
      <trkpt lat="44.7689" lon="-0.09857">
        <ele>104.2</ele>
        <time>2022-10-06T10:32:00Z</time>
      </trkpt>
      <trkpt lat="44.7689" lon="-0.09857">
        <ele>104.2</ele>
        <time>2022-10-06T10:32:02Z</time>
      </trkpt>
      <trkpt lat="44.7689" lon="-0.09857">
        <ele>104.2</ele>
        <time>2022-10-06T10:32:03Z</time>
      </trkpt>
      <trkpt lat="44.7689" lon="-0.09857">
        <ele>104.2</ele>
        <time>2022-10-06T10:32:04Z</time>
      </trkpt>
      <trkpt lat="44.7689" lon="-0.09857">
        <ele>104.2</ele>
        <time>2022-10-06T10:32:05Z</time>
      </trkpt>
      <trkpt lat="44.7689" lon="-0.09857">
        <ele>104.2</ele>
        <time>2022-10-06T10:32:06Z</time>
      </trkpt>
      <trkpt lat="44.7689" lon="-0.09857">
        <ele>104.2</ele>
        <time>2022-10-06T10:32:07Z</time>
      </trkpt>
      <trkpt lat="44.7689" lon="-0.09857">
        <ele>104.2</ele>
        <time>2022-10-06T10:32:08Z</time>
      </trkpt>
      <trkpt lat="44.7689" lon="-0.09857">
        <ele>104.2</ele>
        <time>2022-10-06T10:32:09Z</time>
      </trkpt>
      <trkpt lat="44.7689" lon="-0.09857">
        <ele>104.2</ele>
        <time>2022-10-06T10:32:10Z</time>
      </trkpt>
      <trkpt lat="44.7689" lon="-0.09857">
        <ele>104.2</ele>
        <time>2022-10-06T10:32:11Z</time>
      </trkpt>
      <trkpt lat="44.7689" lon="-0.09857">
        <ele>104.2</ele>
        <time>2022-10-06T10:32:12Z</time>
      </trkpt>
      <trkpt lat="44.7689" lon="-0.09857">
        <ele>104.2</ele>
        <time>2022-10-06T10:32:13Z</time>
      </trkpt>
      <trkpt lat="44.7689" lon="-0.09857">
        <ele>104.2</ele>
        <time>2022-10-06T10:32:14Z</time>
      </trkpt>
      <trkpt lat="44.7689" lon="-0.09857">
        <ele>104.2</ele>
        <time>2022-10-06T10:32:15Z</time>
      </trkpt>
      <trkpt lat="44.7689" lon="-0.09857">
        <ele>104.2</ele>
        <time>2022-10-06T10:32:16Z</time>
      </trkpt>
      <trkpt lat="44.7689" lon="-0.09857">
        <ele>104.2</ele>
        <time>2022-10-06T10:32:17Z</time>
      </trkpt>
      <trkpt lat="44.7689" lon="-0.09857">
        <ele>104.2</ele>
        <time>2022-10-06T10:32:19Z</time>
      </trkpt>
      <trkpt lat="44.7689" lon="-0.09857">
        <ele>104.2</ele>
        <time>2022-10-06T10:32:20Z</time>
      </trkpt>
      <trkpt lat="44.7689" lon="-0.09857">
        <ele>104.2</ele>
        <time>2022-10-06T10:32:21Z</time>
      </trkpt>
      <trkpt lat="44.7689" lon="-0.09857">
        <ele>104.2</ele>
        <time>2022-10-06T10:32:22Z</time>
      </trkpt>
      <trkpt lat="44.7689" lon="-0.09857">
        <ele>104.2</ele>
        <time>2022-10-06T10:32:23Z</time>
      </trkpt>
      <trkpt lat="44.7689" lon="-0.09857">
        <ele>104.2</ele>
        <time>2022-10-06T10:32:24Z</time>
      </trkpt>
      <trkpt lat="44.7689" lon="-0.09857">
        <ele>104.2</ele>
        <time>2022-10-06T10:32:25Z</time>
      </trkpt>
      <trkpt lat="44.7689" lon="-0.09857">
        <ele>104.2</ele>
        <time>2022-10-06T10:32:26Z</time>
      </trkpt>
      <trkpt lat="44.7689" lon="-0.09857">
        <ele>104.2</ele>
        <time>2022-10-06T10:32:27Z</time>
      </trkpt>
      <trkpt lat="44.7689" lon="-0.09857">
        <ele>104.2</ele>
        <time>2022-10-06T10:32:28Z</time>
      </trkpt>
      <trkpt lat="44.7689" lon="-0.09857">
        <ele>104.2</ele>
        <time>2022-10-06T10:32:29Z</time>
      </trkpt>
      <trkpt lat="44.7689" lon="-0.09857">
        <ele>104.2</ele>
        <time>2022-10-06T10:32:30Z</time>
      </trkpt>
      <trkpt lat="44.7689" lon="-0.09857">
        <ele>104.2</ele>
        <time>2022-10-06T10:32:31Z</time>
      </trkpt>
      <trkpt lat="44.7689" lon="-0.09857">
        <ele>104.2</ele>
        <time>2022-10-06T10:32:32Z</time>
      </trkpt>
      <trkpt lat="44.7689" lon="-0.09857">
        <ele>104.2</ele>
        <time>2022-10-06T10:32:33Z</time>
      </trkpt>
      <trkpt lat="44.7689" lon="-0.09857">
        <ele>104.2</ele>
        <time>2022-10-06T10:32:34Z</time>
      </trkpt>
      <trkpt lat="44.7689" lon="-0.09857">
        <ele>104.2</ele>
        <time>2022-10-06T10:32:35Z</time>
      </trkpt>
      <trkpt lat="44.7689" lon="-0.09857">
        <ele>104.2</ele>
        <time>2022-10-06T10:32:36Z</time>
      </trkpt>
      <trkpt lat="44.7689" lon="-0.09857">
        <ele>104.2</ele>
        <time>2022-10-06T10:32:37Z</time>
      </trkpt>
      <trkpt lat="44.7689" lon="-0.09857">
        <ele>104.2</ele>
        <time>2022-10-06T10:32:38Z</time>
      </trkpt>
      <trkpt lat="44.7689" lon="-0.09857">
        <ele>104.2</ele>
        <time>2022-10-06T10:32:39Z</time>
      </trkpt>
      <trkpt lat="44.7689" lon="-0.09857">
        <ele>104.2</ele>
        <time>2022-10-06T10:32:40Z</time>
      </trkpt>
      <trkpt lat="44.7689" lon="-0.09857">
        <ele>104.2</ele>
        <time>2022-10-06T10:32:41Z</time>
      </trkpt>
      <trkpt lat="44.76889" lon="-0.09857">
        <ele>104.2</ele>
        <time>2022-10-06T10:32:42Z</time>
      </trkpt>
      <trkpt lat="44.7689" lon="-0.09857">
        <ele>104.2</ele>
        <time>2022-10-06T10:32:43Z</time>
      </trkpt>
      <trkpt lat="44.7689" lon="-0.09857">
        <ele>104.2</ele>
        <time>2022-10-06T10:32:45Z</time>
      </trkpt>
      <trkpt lat="44.7689" lon="-0.09857">
        <ele>104.2</ele>
        <time>2022-10-06T10:32:46Z</time>
      </trkpt>
      <trkpt lat="44.7689" lon="-0.09857">
        <ele>104.2</ele>
        <time>2022-10-06T10:32:47Z</time>
      </trkpt>
      <trkpt lat="44.7689" lon="-0.09857">
        <ele>104.2</ele>
        <time>2022-10-06T10:32:48Z</time>
      </trkpt>
      <trkpt lat="44.7689" lon="-0.09857">
        <ele>104.2</ele>
        <time>2022-10-06T10:32:49Z</time>
      </trkpt>
      <trkpt lat="44.7689" lon="-0.09857">
        <ele>104.2</ele>
        <time>2022-10-06T10:32:50Z</time>
      </trkpt>
      <trkpt lat="44.7689" lon="-0.09857">
        <ele>104.2</ele>
        <time>2022-10-06T10:32:51Z</time>
      </trkpt>
      <trkpt lat="44.7689" lon="-0.09857">
        <ele>104.2</ele>
        <time>2022-10-06T10:32:52Z</time>
      </trkpt>
      <trkpt lat="44.7689" lon="-0.09857">
        <ele>104.2</ele>
        <time>2022-10-06T10:32:53Z</time>
      </trkpt>
      <trkpt lat="44.7689" lon="-0.09857">
        <ele>104.2</ele>
        <time>2022-10-06T10:32:54Z</time>
      </trkpt>
      <trkpt lat="44.7689" lon="-0.09857">
        <ele>104.2</ele>
        <time>2022-10-06T10:32:55Z</time>
      </trkpt>
      <trkpt lat="44.7689" lon="-0.09857">
        <ele>104.2</ele>
        <time>2022-10-06T10:32:56Z</time>
      </trkpt>
      <trkpt lat="44.7689" lon="-0.09857">
        <ele>104.2</ele>
        <time>2022-10-06T10:32:57Z</time>
      </trkpt>
      <trkpt lat="44.7689" lon="-0.09857">
        <ele>104.2</ele>
        <time>2022-10-06T10:32:58Z</time>
      </trkpt>
      <trkpt lat="44.7689" lon="-0.09857">
        <ele>104.2</ele>
        <time>2022-10-06T10:32:59Z</time>
      </trkpt>
      <trkpt lat="44.7689" lon="-0.09857">
        <ele>104.2</ele>
        <time>2022-10-06T10:33:00Z</time>
      </trkpt>
      <trkpt lat="44.7689" lon="-0.09857">
        <ele>104.2</ele>
        <time>2022-10-06T10:33:02Z</time>
      </trkpt>
      <trkpt lat="44.7689" lon="-0.09857">
        <ele>104.2</ele>
        <time>2022-10-06T10:33:03Z</time>
      </trkpt>
      <trkpt lat="44.7689" lon="-0.09857">
        <ele>104.2</ele>
        <time>2022-10-06T10:33:04Z</time>
      </trkpt>
      <trkpt lat="44.7689" lon="-0.09857">
        <ele>104.2</ele>
        <time>2022-10-06T10:33:05Z</time>
      </trkpt>
      <trkpt lat="44.7689" lon="-0.09857">
        <ele>104.2</ele>
        <time>2022-10-06T10:33:06Z</time>
      </trkpt>
      <trkpt lat="44.7689" lon="-0.09857">
        <ele>104.2</ele>
        <time>2022-10-06T10:33:07Z</time>
      </trkpt>
      <trkpt lat="44.7689" lon="-0.09857">
        <ele>104.2</ele>
        <time>2022-10-06T10:33:08Z</time>
      </trkpt>
      <trkpt lat="44.7689" lon="-0.09857">
        <ele>104.2</ele>
        <time>2022-10-06T10:33:09Z</time>
      </trkpt>
      <trkpt lat="44.7689" lon="-0.09857">
        <ele>104.2</ele>
        <time>2022-10-06T10:33:10Z</time>
      </trkpt>
      <trkpt lat="44.7689" lon="-0.09857">
        <ele>104.2</ele>
        <time>2022-10-06T10:33:11Z</time>
      </trkpt>
      <trkpt lat="44.76889" lon="-0.09857">
        <ele>104.2</ele>
        <time>2022-10-06T10:33:12Z</time>
      </trkpt>
      <trkpt lat="44.76889" lon="-0.09857">
        <ele>104.2</ele>
        <time>2022-10-06T10:33:13Z</time>
      </trkpt>
      <trkpt lat="44.76889" lon="-0.09857">
        <ele>104.2</ele>
        <time>2022-10-06T10:33:14Z</time>
      </trkpt>
      <trkpt lat="44.76889" lon="-0.09857">
        <ele>104.2</ele>
        <time>2022-10-06T10:33:15Z</time>
      </trkpt>
      <trkpt lat="44.76889" lon="-0.09857">
        <ele>104.2</ele>
        <time>2022-10-06T10:33:16Z</time>
      </trkpt>
      <trkpt lat="44.76889" lon="-0.09857">
        <ele>104.2</ele>
        <time>2022-10-06T10:33:17Z</time>
      </trkpt>
      <trkpt lat="44.76889" lon="-0.09857">
        <ele>104.2</ele>
        <time>2022-10-06T10:33:18Z</time>
      </trkpt>
      <trkpt lat="44.76889" lon="-0.09857">
        <ele>104.2</ele>
        <time>2022-10-06T10:33:19Z</time>
      </trkpt>
      <trkpt lat="44.76889" lon="-0.09857">
        <ele>104.2</ele>
        <time>2022-10-06T10:33:20Z</time>
      </trkpt>
      <trkpt lat="44.76889" lon="-0.09857">
        <ele>104.2</ele>
        <time>2022-10-06T10:33:21Z</time>
      </trkpt>
      <trkpt lat="44.76889" lon="-0.09857">
        <ele>104.2</ele>
        <time>2022-10-06T10:33:22Z</time>
      </trkpt>
      <trkpt lat="44.76889" lon="-0.09857">
        <ele>104.2</ele>
        <time>2022-10-06T10:33:23Z</time>
      </trkpt>
      <trkpt lat="44.76889" lon="-0.09857">
        <ele>104.2</ele>
        <time>2022-10-06T10:33:24Z</time>
      </trkpt>
      <trkpt lat="44.76889" lon="-0.09857">
        <ele>104.2</ele>
        <time>2022-10-06T10:33:25Z</time>
      </trkpt>
      <trkpt lat="44.76889" lon="-0.09857">
        <ele>104.2</ele>
        <time>2022-10-06T10:33:26Z</time>
      </trkpt>
      <trkpt lat="44.76889" lon="-0.09857">
        <ele>104.2</ele>
        <time>2022-10-06T10:33:27Z</time>
      </trkpt>
      <trkpt lat="44.76889" lon="-0.09857">
        <ele>104.2</ele>
        <time>2022-10-06T10:33:28Z</time>
      </trkpt>
      <trkpt lat="44.76889" lon="-0.09857">
        <ele>104.2</ele>
        <time>2022-10-06T10:33:29Z</time>
      </trkpt>
      <trkpt lat="44.76889" lon="-0.09857">
        <ele>104.2</ele>
        <time>2022-10-06T10:33:30Z</time>
      </trkpt>
      <trkpt lat="44.76889" lon="-0.09857">
        <ele>104.2</ele>
        <time>2022-10-06T10:33:31Z</time>
      </trkpt>
      <trkpt lat="44.76889" lon="-0.09857">
        <ele>104.2</ele>
        <time>2022-10-06T10:33:32Z</time>
      </trkpt>
      <trkpt lat="44.76889" lon="-0.09857">
        <ele>104.2</ele>
        <time>2022-10-06T10:33:33Z</time>
      </trkpt>
      <trkpt lat="44.76889" lon="-0.09857">
        <ele>104.2</ele>
        <time>2022-10-06T10:33:34Z</time>
      </trkpt>
      <trkpt lat="44.76889" lon="-0.09857">
        <ele>104.2</ele>
        <time>2022-10-06T10:33:35Z</time>
      </trkpt>
      <trkpt lat="44.76889" lon="-0.09857">
        <ele>104.2</ele>
        <time>2022-10-06T10:33:36Z</time>
      </trkpt>
      <trkpt lat="44.76889" lon="-0.09857">
        <ele>104.2</ele>
        <time>2022-10-06T10:33:37Z</time>
      </trkpt>
      <trkpt lat="44.76889" lon="-0.09857">
        <ele>104.2</ele>
        <time>2022-10-06T10:33:38Z</time>
      </trkpt>
      <trkpt lat="44.76889" lon="-0.09857">
        <ele>104.2</ele>
        <time>2022-10-06T10:33:39Z</time>
      </trkpt>
      <trkpt lat="44.76889" lon="-0.09857">
        <ele>104.2</ele>
        <time>2022-10-06T10:33:40Z</time>
      </trkpt>
      <trkpt lat="44.76889" lon="-0.09857">
        <ele>104.2</ele>
        <time>2022-10-06T10:33:41Z</time>
      </trkpt>
      <trkpt lat="44.76889" lon="-0.09857">
        <ele>104.2</ele>
        <time>2022-10-06T10:33:42Z</time>
      </trkpt>
      <trkpt lat="44.76889" lon="-0.09857">
        <ele>104.2</ele>
        <time>2022-10-06T10:33:43Z</time>
      </trkpt>
      <trkpt lat="44.76889" lon="-0.09857">
        <ele>104.2</ele>
        <time>2022-10-06T10:33:44Z</time>
      </trkpt>
      <trkpt lat="44.76889" lon="-0.09857">
        <ele>104.2</ele>
        <time>2022-10-06T10:33:45Z</time>
      </trkpt>
      <trkpt lat="44.76889" lon="-0.09857">
        <ele>104.2</ele>
        <time>2022-10-06T10:33:46Z</time>
      </trkpt>
      <trkpt lat="44.76889" lon="-0.09857">
        <ele>104.2</ele>
        <time>2022-10-06T10:33:47Z</time>
      </trkpt>
      <trkpt lat="44.76889" lon="-0.09857">
        <ele>104.2</ele>
        <time>2022-10-06T10:33:49Z</time>
      </trkpt>
      <trkpt lat="44.76889" lon="-0.09857">
        <ele>104.2</ele>
        <time>2022-10-06T10:33:50Z</time>
      </trkpt>
      <trkpt lat="44.76889" lon="-0.09857">
        <ele>104.2</ele>
        <time>2022-10-06T10:33:51Z</time>
      </trkpt>
      <trkpt lat="44.76889" lon="-0.09857">
        <ele>104.2</ele>
        <time>2022-10-06T10:33:52Z</time>
      </trkpt>
      <trkpt lat="44.76889" lon="-0.09857">
        <ele>104.2</ele>
        <time>2022-10-06T10:33:53Z</time>
      </trkpt>
      <trkpt lat="44.76889" lon="-0.09857">
        <ele>104.2</ele>
        <time>2022-10-06T10:33:54Z</time>
      </trkpt>
      <trkpt lat="44.76889" lon="-0.09857">
        <ele>104.2</ele>
        <time>2022-10-06T10:33:55Z</time>
      </trkpt>
      <trkpt lat="44.76889" lon="-0.09857">
        <ele>104.2</ele>
        <time>2022-10-06T10:33:56Z</time>
      </trkpt>
      <trkpt lat="44.76889" lon="-0.09857">
        <ele>104.2</ele>
        <time>2022-10-06T10:33:57Z</time>
      </trkpt>
      <trkpt lat="44.76889" lon="-0.09857">
        <ele>104.2</ele>
        <time>2022-10-06T10:33:58Z</time>
      </trkpt>
      <trkpt lat="44.76889" lon="-0.09857">
        <ele>104.2</ele>
        <time>2022-10-06T10:33:59Z</time>
      </trkpt>
      <trkpt lat="44.76889" lon="-0.09857">
        <ele>104.2</ele>
        <time>2022-10-06T10:34:00Z</time>
      </trkpt>
      <trkpt lat="44.76889" lon="-0.09857">
        <ele>104.2</ele>
        <time>2022-10-06T10:34:01Z</time>
      </trkpt>
      <trkpt lat="44.76889" lon="-0.09857">
        <ele>104.2</ele>
        <time>2022-10-06T10:34:02Z</time>
      </trkpt>
      <trkpt lat="44.76889" lon="-0.09857">
        <ele>104.2</ele>
        <time>2022-10-06T10:34:03Z</time>
      </trkpt>
      <trkpt lat="44.76889" lon="-0.09857">
        <ele>104.2</ele>
        <time>2022-10-06T10:34:04Z</time>
      </trkpt>
      <trkpt lat="44.76889" lon="-0.09857">
        <ele>104.2</ele>
        <time>2022-10-06T10:34:05Z</time>
      </trkpt>
      <trkpt lat="44.76889" lon="-0.09857">
        <ele>104.2</ele>
        <time>2022-10-06T10:34:06Z</time>
      </trkpt>
      <trkpt lat="44.76889" lon="-0.09857">
        <ele>104.2</ele>
        <time>2022-10-06T10:34:07Z</time>
      </trkpt>
      <trkpt lat="44.76889" lon="-0.09857">
        <ele>104.2</ele>
        <time>2022-10-06T10:34:08Z</time>
      </trkpt>
      <trkpt lat="44.76889" lon="-0.09857">
        <ele>104.2</ele>
        <time>2022-10-06T10:34:09Z</time>
      </trkpt>
      <trkpt lat="44.76889" lon="-0.09857">
        <ele>104.2</ele>
        <time>2022-10-06T10:34:10Z</time>
      </trkpt>
      <trkpt lat="44.76889" lon="-0.09857">
        <ele>104.2</ele>
        <time>2022-10-06T10:34:11Z</time>
      </trkpt>
      <trkpt lat="44.76889" lon="-0.09857">
        <ele>104.2</ele>
        <time>2022-10-06T10:34:12Z</time>
      </trkpt>
      <trkpt lat="44.76889" lon="-0.09857">
        <ele>104.2</ele>
        <time>2022-10-06T10:34:13Z</time>
      </trkpt>
      <trkpt lat="44.76889" lon="-0.09857">
        <ele>104.2</ele>
        <time>2022-10-06T10:34:14Z</time>
      </trkpt>
      <trkpt lat="44.76889" lon="-0.09857">
        <ele>104.2</ele>
        <time>2022-10-06T10:34:15Z</time>
      </trkpt>
      <trkpt lat="44.76889" lon="-0.09857">
        <ele>104.2</ele>
        <time>2022-10-06T10:34:16Z</time>
      </trkpt>
      <trkpt lat="44.76889" lon="-0.09857">
        <ele>104.2</ele>
        <time>2022-10-06T10:34:17Z</time>
      </trkpt>
      <trkpt lat="44.76889" lon="-0.09857">
        <ele>104.2</ele>
        <time>2022-10-06T10:34:18Z</time>
      </trkpt>
      <trkpt lat="44.76889" lon="-0.09857">
        <ele>104.2</ele>
        <time>2022-10-06T10:34:19Z</time>
      </trkpt>
      <trkpt lat="44.76889" lon="-0.09857">
        <ele>104.2</ele>
        <time>2022-10-06T10:34:20Z</time>
      </trkpt>
      <trkpt lat="44.76889" lon="-0.09857">
        <ele>104.2</ele>
        <time>2022-10-06T10:34:21Z</time>
      </trkpt>
      <trkpt lat="44.76889" lon="-0.09857">
        <ele>104.2</ele>
        <time>2022-10-06T10:34:22Z</time>
      </trkpt>
      <trkpt lat="44.76889" lon="-0.09857">
        <ele>104.2</ele>
        <time>2022-10-06T10:34:23Z</time>
      </trkpt>
      <trkpt lat="44.76889" lon="-0.09857">
        <ele>104.2</ele>
        <time>2022-10-06T10:34:24Z</time>
      </trkpt>
      <trkpt lat="44.76889" lon="-0.09857">
        <ele>104.2</ele>
        <time>2022-10-06T10:34:25Z</time>
      </trkpt>
      <trkpt lat="44.76889" lon="-0.09857">
        <ele>104.2</ele>
        <time>2022-10-06T10:34:26Z</time>
      </trkpt>
      <trkpt lat="44.76889" lon="-0.09857">
        <ele>104.2</ele>
        <time>2022-10-06T10:34:27Z</time>
      </trkpt>
      <trkpt lat="44.76889" lon="-0.09857">
        <ele>104.2</ele>
        <time>2022-10-06T10:34:28Z</time>
      </trkpt>
      <trkpt lat="44.76889" lon="-0.09857">
        <ele>104.2</ele>
        <time>2022-10-06T10:34:29Z</time>
      </trkpt>
      <trkpt lat="44.76889" lon="-0.09857">
        <ele>104.2</ele>
        <time>2022-10-06T10:34:30Z</time>
      </trkpt>
      <trkpt lat="44.76889" lon="-0.09857">
        <ele>104.2</ele>
        <time>2022-10-06T10:34:31Z</time>
      </trkpt>
      <trkpt lat="44.76889" lon="-0.09857">
        <ele>104.2</ele>
        <time>2022-10-06T10:34:32Z</time>
      </trkpt>
      <trkpt lat="44.76889" lon="-0.09857">
        <ele>104.2</ele>
        <time>2022-10-06T10:34:33Z</time>
      </trkpt>
      <trkpt lat="44.76889" lon="-0.09857">
        <ele>104.2</ele>
        <time>2022-10-06T10:34:34Z</time>
      </trkpt>
      <trkpt lat="44.76889" lon="-0.09857">
        <ele>104.2</ele>
        <time>2022-10-06T10:34:35Z</time>
      </trkpt>
      <trkpt lat="44.76889" lon="-0.09857">
        <ele>104.2</ele>
        <time>2022-10-06T10:34:36Z</time>
      </trkpt>
      <trkpt lat="44.76889" lon="-0.09857">
        <ele>104.2</ele>
        <time>2022-10-06T10:34:37Z</time>
      </trkpt>
      <trkpt lat="44.76889" lon="-0.09857">
        <ele>104.2</ele>
        <time>2022-10-06T10:34:38Z</time>
      </trkpt>
      <trkpt lat="44.76889" lon="-0.09857">
        <ele>104.2</ele>
        <time>2022-10-06T10:34:39Z</time>
      </trkpt>
      <trkpt lat="44.76889" lon="-0.09857">
        <ele>104.2</ele>
        <time>2022-10-06T10:34:40Z</time>
      </trkpt>
      <trkpt lat="44.76889" lon="-0.09857">
        <ele>104.2</ele>
        <time>2022-10-06T10:34:41Z</time>
      </trkpt>
      <trkpt lat="44.76889" lon="-0.09857">
        <ele>104.2</ele>
        <time>2022-10-06T10:34:42Z</time>
      </trkpt>
      <trkpt lat="44.76889" lon="-0.09856">
        <ele>104.2</ele>
        <time>2022-10-06T10:34:43Z</time>
      </trkpt>
      <trkpt lat="44.76889" lon="-0.09856">
        <ele>104.2</ele>
        <time>2022-10-06T10:34:44Z</time>
      </trkpt>
      <trkpt lat="44.76889" lon="-0.09856">
        <ele>104.2</ele>
        <time>2022-10-06T10:34:45Z</time>
      </trkpt>
      <trkpt lat="44.76889" lon="-0.09856">
        <ele>104.2</ele>
        <time>2022-10-06T10:34:46Z</time>
      </trkpt>
      <trkpt lat="44.76889" lon="-0.09856">
        <ele>104.2</ele>
        <time>2022-10-06T10:34:47Z</time>
      </trkpt>
      <trkpt lat="44.76889" lon="-0.09856">
        <ele>104.2</ele>
        <time>2022-10-06T10:34:48Z</time>
      </trkpt>
      <trkpt lat="44.76889" lon="-0.09856">
        <ele>104.2</ele>
        <time>2022-10-06T10:34:49Z</time>
      </trkpt>
      <trkpt lat="44.76889" lon="-0.09856">
        <ele>104.2</ele>
        <time>2022-10-06T10:34:50Z</time>
      </trkpt>
      <trkpt lat="44.76889" lon="-0.09856">
        <ele>104.2</ele>
        <time>2022-10-06T10:34:51Z</time>
      </trkpt>
      <trkpt lat="44.76889" lon="-0.09856">
        <ele>104.2</ele>
        <time>2022-10-06T10:34:52Z</time>
      </trkpt>
      <trkpt lat="44.76889" lon="-0.09856">
        <ele>104.2</ele>
        <time>2022-10-06T10:34:53Z</time>
      </trkpt>
      <trkpt lat="44.76889" lon="-0.09856">
        <ele>104.2</ele>
        <time>2022-10-06T10:34:54Z</time>
      </trkpt>
      <trkpt lat="44.76889" lon="-0.09856">
        <ele>104.2</ele>
        <time>2022-10-06T10:34:55Z</time>
      </trkpt>
      <trkpt lat="44.76889" lon="-0.09856">
        <ele>104.2</ele>
        <time>2022-10-06T10:34:56Z</time>
      </trkpt>
      <trkpt lat="44.76889" lon="-0.09856">
        <ele>104.2</ele>
        <time>2022-10-06T10:34:57Z</time>
      </trkpt>
      <trkpt lat="44.76889" lon="-0.09856">
        <ele>104.2</ele>
        <time>2022-10-06T10:34:58Z</time>
      </trkpt>
      <trkpt lat="44.76889" lon="-0.09856">
        <ele>104.2</ele>
        <time>2022-10-06T10:34:59Z</time>
      </trkpt>
      <trkpt lat="44.76889" lon="-0.09856">
        <ele>104.2</ele>
        <time>2022-10-06T10:35:00Z</time>
      </trkpt>
      <trkpt lat="44.76889" lon="-0.09856">
        <ele>104.2</ele>
        <time>2022-10-06T10:35:01Z</time>
      </trkpt>
      <trkpt lat="44.76889" lon="-0.09856">
        <ele>104.2</ele>
        <time>2022-10-06T10:35:02Z</time>
      </trkpt>
      <trkpt lat="44.76889" lon="-0.09856">
        <ele>104.2</ele>
        <time>2022-10-06T10:35:03Z</time>
      </trkpt>
      <trkpt lat="44.76889" lon="-0.09856">
        <ele>104.2</ele>
        <time>2022-10-06T10:35:04Z</time>
      </trkpt>
      <trkpt lat="44.76889" lon="-0.09856">
        <ele>104.2</ele>
        <time>2022-10-06T10:35:05Z</time>
      </trkpt>
      <trkpt lat="44.76889" lon="-0.09856">
        <ele>104.2</ele>
        <time>2022-10-06T10:35:06Z</time>
      </trkpt>
      <trkpt lat="44.76889" lon="-0.09856">
        <ele>104.2</ele>
        <time>2022-10-06T10:35:07Z</time>
      </trkpt>
      <trkpt lat="44.76889" lon="-0.09856">
        <ele>104.2</ele>
        <time>2022-10-06T10:35:08Z</time>
      </trkpt>
      <trkpt lat="44.76889" lon="-0.09856">
        <ele>104.2</ele>
        <time>2022-10-06T10:35:09Z</time>
      </trkpt>
      <trkpt lat="44.76889" lon="-0.09856">
        <ele>104.2</ele>
        <time>2022-10-06T10:35:10Z</time>
      </trkpt>
      <trkpt lat="44.76889" lon="-0.09856">
        <ele>104.2</ele>
        <time>2022-10-06T10:35:11Z</time>
      </trkpt>
      <trkpt lat="44.76889" lon="-0.09856">
        <ele>104.2</ele>
        <time>2022-10-06T10:35:12Z</time>
      </trkpt>
      <trkpt lat="44.76889" lon="-0.09856">
        <ele>104.2</ele>
        <time>2022-10-06T10:35:13Z</time>
      </trkpt>
      <trkpt lat="44.76889" lon="-0.09856">
        <ele>104.2</ele>
        <time>2022-10-06T10:35:14Z</time>
      </trkpt>
      <trkpt lat="44.76889" lon="-0.09856">
        <ele>104.2</ele>
        <time>2022-10-06T10:35:15Z</time>
      </trkpt>
      <trkpt lat="44.76889" lon="-0.09856">
        <ele>104.2</ele>
        <time>2022-10-06T10:35:16Z</time>
      </trkpt>
      <trkpt lat="44.76889" lon="-0.09856">
        <ele>104.2</ele>
        <time>2022-10-06T10:35:17Z</time>
      </trkpt>
      <trkpt lat="44.76889" lon="-0.09856">
        <ele>104.2</ele>
        <time>2022-10-06T10:35:18Z</time>
      </trkpt>
      <trkpt lat="44.76889" lon="-0.09856">
        <ele>104.2</ele>
        <time>2022-10-06T10:35:19Z</time>
      </trkpt>
      <trkpt lat="44.76889" lon="-0.09856">
        <ele>104.2</ele>
        <time>2022-10-06T10:35:20Z</time>
      </trkpt>
      <trkpt lat="44.76889" lon="-0.09856">
        <ele>104.2</ele>
        <time>2022-10-06T10:35:21Z</time>
      </trkpt>
      <trkpt lat="44.76889" lon="-0.09856">
        <ele>104.2</ele>
        <time>2022-10-06T10:35:22Z</time>
      </trkpt>
      <trkpt lat="44.76889" lon="-0.09856">
        <ele>104.2</ele>
        <time>2022-10-06T10:35:23Z</time>
      </trkpt>
      <trkpt lat="44.76889" lon="-0.09856">
        <ele>104.2</ele>
        <time>2022-10-06T10:35:24Z</time>
      </trkpt>
      <trkpt lat="44.76889" lon="-0.09856">
        <ele>104.2</ele>
        <time>2022-10-06T10:35:25Z</time>
      </trkpt>
      <trkpt lat="44.76889" lon="-0.09856">
        <ele>104.2</ele>
        <time>2022-10-06T10:35:26Z</time>
      </trkpt>
      <trkpt lat="44.76889" lon="-0.09856">
        <ele>104.2</ele>
        <time>2022-10-06T10:35:27Z</time>
      </trkpt>
      <trkpt lat="44.76889" lon="-0.09856">
        <ele>104.2</ele>
        <time>2022-10-06T10:35:28Z</time>
      </trkpt>
      <trkpt lat="44.76889" lon="-0.09856">
        <ele>104.2</ele>
        <time>2022-10-06T10:35:29Z</time>
      </trkpt>
      <trkpt lat="44.76889" lon="-0.09856">
        <ele>104.2</ele>
        <time>2022-10-06T10:35:30Z</time>
      </trkpt>
      <trkpt lat="44.76889" lon="-0.09856">
        <ele>104.2</ele>
        <time>2022-10-06T10:35:31Z</time>
      </trkpt>
      <trkpt lat="44.76889" lon="-0.09856">
        <ele>104.2</ele>
        <time>2022-10-06T10:35:32Z</time>
      </trkpt>
      <trkpt lat="44.76889" lon="-0.09856">
        <ele>104.2</ele>
        <time>2022-10-06T10:35:33Z</time>
      </trkpt>
      <trkpt lat="44.76889" lon="-0.09856">
        <ele>104.2</ele>
        <time>2022-10-06T10:35:34Z</time>
      </trkpt>
      <trkpt lat="44.76889" lon="-0.09856">
        <ele>104.2</ele>
        <time>2022-10-06T10:35:35Z</time>
      </trkpt>
      <trkpt lat="44.76889" lon="-0.09856">
        <ele>104.2</ele>
        <time>2022-10-06T10:35:36Z</time>
      </trkpt>
      <trkpt lat="44.76889" lon="-0.09856">
        <ele>104.2</ele>
        <time>2022-10-06T10:35:37Z</time>
      </trkpt>
      <trkpt lat="44.76889" lon="-0.09856">
        <ele>104.2</ele>
        <time>2022-10-06T10:35:38Z</time>
      </trkpt>
      <trkpt lat="44.76889" lon="-0.09856">
        <ele>104.2</ele>
        <time>2022-10-06T10:35:39Z</time>
      </trkpt>
      <trkpt lat="44.76889" lon="-0.09856">
        <ele>104.2</ele>
        <time>2022-10-06T10:35:40Z</time>
      </trkpt>
      <trkpt lat="44.76889" lon="-0.09856">
        <ele>104.2</ele>
        <time>2022-10-06T10:35:41Z</time>
      </trkpt>
      <trkpt lat="44.76889" lon="-0.09856">
        <ele>104.2</ele>
        <time>2022-10-06T10:35:42Z</time>
      </trkpt>
      <trkpt lat="44.76889" lon="-0.09856">
        <ele>104.2</ele>
        <time>2022-10-06T10:35:43Z</time>
      </trkpt>
      <trkpt lat="44.76889" lon="-0.09856">
        <ele>104.2</ele>
        <time>2022-10-06T10:35:44Z</time>
      </trkpt>
      <trkpt lat="44.76889" lon="-0.09856">
        <ele>104.2</ele>
        <time>2022-10-06T10:35:45Z</time>
      </trkpt>
      <trkpt lat="44.76889" lon="-0.09856">
        <ele>104.2</ele>
        <time>2022-10-06T10:35:46Z</time>
      </trkpt>
      <trkpt lat="44.76889" lon="-0.09856">
        <ele>104.2</ele>
        <time>2022-10-06T10:35:47Z</time>
      </trkpt>
      <trkpt lat="44.76889" lon="-0.09856">
        <ele>104.2</ele>
        <time>2022-10-06T10:35:48Z</time>
      </trkpt>
      <trkpt lat="44.76889" lon="-0.09856">
        <ele>104.2</ele>
        <time>2022-10-06T10:35:49Z</time>
      </trkpt>
      <trkpt lat="44.76889" lon="-0.09856">
        <ele>104.2</ele>
        <time>2022-10-06T10:35:50Z</time>
      </trkpt>
      <trkpt lat="44.76889" lon="-0.09856">
        <ele>104.2</ele>
        <time>2022-10-06T10:35:51Z</time>
      </trkpt>
      <trkpt lat="44.76889" lon="-0.09856">
        <ele>104.2</ele>
        <time>2022-10-06T10:35:52Z</time>
      </trkpt>
      <trkpt lat="44.76889" lon="-0.09856">
        <ele>104.2</ele>
        <time>2022-10-06T10:35:53Z</time>
      </trkpt>
      <trkpt lat="44.76889" lon="-0.09856">
        <ele>104.2</ele>
        <time>2022-10-06T10:35:54Z</time>
      </trkpt>
      <trkpt lat="44.76889" lon="-0.09856">
        <ele>104.2</ele>
        <time>2022-10-06T10:35:55Z</time>
      </trkpt>
      <trkpt lat="44.76889" lon="-0.09856">
        <ele>104.2</ele>
        <time>2022-10-06T10:35:56Z</time>
      </trkpt>
      <trkpt lat="44.76889" lon="-0.09856">
        <ele>104.2</ele>
        <time>2022-10-06T10:35:57Z</time>
      </trkpt>
      <trkpt lat="44.76889" lon="-0.09856">
        <ele>104.2</ele>
        <time>2022-10-06T10:35:58Z</time>
      </trkpt>
      <trkpt lat="44.76889" lon="-0.09856">
        <ele>104.2</ele>
        <time>2022-10-06T10:35:59Z</time>
      </trkpt>
      <trkpt lat="44.76889" lon="-0.09856">
        <ele>104.2</ele>
        <time>2022-10-06T10:36:00Z</time>
      </trkpt>
      <trkpt lat="44.76889" lon="-0.09856">
        <ele>104.2</ele>
        <time>2022-10-06T10:36:01Z</time>
      </trkpt>
      <trkpt lat="44.76889" lon="-0.09856">
        <ele>104.2</ele>
        <time>2022-10-06T10:36:02Z</time>
      </trkpt>
      <trkpt lat="44.76889" lon="-0.09856">
        <ele>104.2</ele>
        <time>2022-10-06T10:36:03Z</time>
      </trkpt>
      <trkpt lat="44.76889" lon="-0.09856">
        <ele>104.2</ele>
        <time>2022-10-06T10:36:04Z</time>
      </trkpt>
      <trkpt lat="44.76889" lon="-0.09856">
        <ele>104.2</ele>
        <time>2022-10-06T10:36:05Z</time>
      </trkpt>
      <trkpt lat="44.76889" lon="-0.09856">
        <ele>104.2</ele>
        <time>2022-10-06T10:36:06Z</time>
      </trkpt>
      <trkpt lat="44.76889" lon="-0.09856">
        <ele>104.2</ele>
        <time>2022-10-06T10:36:07Z</time>
      </trkpt>
      <trkpt lat="44.76889" lon="-0.09856">
        <ele>104.2</ele>
        <time>2022-10-06T10:36:08Z</time>
      </trkpt>
      <trkpt lat="44.76889" lon="-0.09856">
        <ele>104.2</ele>
        <time>2022-10-06T10:36:09Z</time>
      </trkpt>
      <trkpt lat="44.76889" lon="-0.09856">
        <ele>104.2</ele>
        <time>2022-10-06T10:36:10Z</time>
      </trkpt>
      <trkpt lat="44.76889" lon="-0.09856">
        <ele>104.2</ele>
        <time>2022-10-06T10:36:11Z</time>
      </trkpt>
      <trkpt lat="44.76889" lon="-0.09856">
        <ele>104.2</ele>
        <time>2022-10-06T10:36:12Z</time>
      </trkpt>
      <trkpt lat="44.76889" lon="-0.09856">
        <ele>104.2</ele>
        <time>2022-10-06T10:36:13Z</time>
      </trkpt>
      <trkpt lat="44.76889" lon="-0.09856">
        <ele>104.2</ele>
        <time>2022-10-06T10:36:14Z</time>
      </trkpt>
      <trkpt lat="44.76889" lon="-0.09856">
        <ele>104.2</ele>
        <time>2022-10-06T10:36:15Z</time>
      </trkpt>
      <trkpt lat="44.76889" lon="-0.09856">
        <ele>104.2</ele>
        <time>2022-10-06T10:36:16Z</time>
      </trkpt>
      <trkpt lat="44.76889" lon="-0.09856">
        <ele>104.2</ele>
        <time>2022-10-06T10:36:17Z</time>
      </trkpt>
      <trkpt lat="44.76889" lon="-0.09856">
        <ele>104.2</ele>
        <time>2022-10-06T10:36:18Z</time>
      </trkpt>
      <trkpt lat="44.76889" lon="-0.09856">
        <ele>104.2</ele>
        <time>2022-10-06T10:36:19Z</time>
      </trkpt>
      <trkpt lat="44.76889" lon="-0.09856">
        <ele>104.2</ele>
        <time>2022-10-06T10:36:20Z</time>
      </trkpt>
      <trkpt lat="44.76889" lon="-0.09856">
        <ele>104.2</ele>
        <time>2022-10-06T10:36:21Z</time>
      </trkpt>
      <trkpt lat="44.76889" lon="-0.09856">
        <ele>104.2</ele>
        <time>2022-10-06T10:36:22Z</time>
      </trkpt>
      <trkpt lat="44.76889" lon="-0.09856">
        <ele>104.2</ele>
        <time>2022-10-06T10:36:23Z</time>
      </trkpt>
      <trkpt lat="44.76889" lon="-0.09856">
        <ele>104.2</ele>
        <time>2022-10-06T10:36:24Z</time>
      </trkpt>
      <trkpt lat="44.76889" lon="-0.09856">
        <ele>104.2</ele>
        <time>2022-10-06T10:36:25Z</time>
      </trkpt>
      <trkpt lat="44.76889" lon="-0.09856">
        <ele>104.2</ele>
        <time>2022-10-06T10:36:26Z</time>
      </trkpt>
      <trkpt lat="44.76889" lon="-0.09856">
        <ele>104.2</ele>
        <time>2022-10-06T10:36:28Z</time>
      </trkpt>
      <trkpt lat="44.76889" lon="-0.09856">
        <ele>104.2</ele>
        <time>2022-10-06T10:36:29Z</time>
      </trkpt>
      <trkpt lat="44.76889" lon="-0.09856">
        <ele>104.2</ele>
        <time>2022-10-06T10:36:30Z</time>
      </trkpt>
      <trkpt lat="44.76889" lon="-0.09856">
        <ele>104.2</ele>
        <time>2022-10-06T10:36:31Z</time>
      </trkpt>
      <trkpt lat="44.76889" lon="-0.09856">
        <ele>104.2</ele>
        <time>2022-10-06T10:36:32Z</time>
      </trkpt>
      <trkpt lat="44.76889" lon="-0.09856">
        <ele>104.2</ele>
        <time>2022-10-06T10:36:33Z</time>
      </trkpt>
      <trkpt lat="44.76889" lon="-0.09856">
        <ele>104.2</ele>
        <time>2022-10-06T10:36:34Z</time>
      </trkpt>
      <trkpt lat="44.76889" lon="-0.09856">
        <ele>104.2</ele>
        <time>2022-10-06T10:36:35Z</time>
      </trkpt>
      <trkpt lat="44.76889" lon="-0.09856">
        <ele>104.2</ele>
        <time>2022-10-06T10:36:36Z</time>
      </trkpt>
      <trkpt lat="44.76889" lon="-0.09856">
        <ele>104.2</ele>
        <time>2022-10-06T10:36:37Z</time>
      </trkpt>
      <trkpt lat="44.76889" lon="-0.09856">
        <ele>104.2</ele>
        <time>2022-10-06T10:36:38Z</time>
      </trkpt>
      <trkpt lat="44.76889" lon="-0.09856">
        <ele>104.2</ele>
        <time>2022-10-06T10:36:39Z</time>
      </trkpt>
      <trkpt lat="44.76889" lon="-0.09856">
        <ele>104.2</ele>
        <time>2022-10-06T10:36:40Z</time>
      </trkpt>
      <trkpt lat="44.76889" lon="-0.09856">
        <ele>104.2</ele>
        <time>2022-10-06T10:36:41Z</time>
      </trkpt>
      <trkpt lat="44.76889" lon="-0.09856">
        <ele>104.2</ele>
        <time>2022-10-06T10:36:42Z</time>
      </trkpt>
      <trkpt lat="44.76889" lon="-0.09856">
        <ele>104.2</ele>
        <time>2022-10-06T10:36:43Z</time>
      </trkpt>
      <trkpt lat="44.76889" lon="-0.09856">
        <ele>104.2</ele>
        <time>2022-10-06T10:36:44Z</time>
      </trkpt>
      <trkpt lat="44.76889" lon="-0.09856">
        <ele>104.2</ele>
        <time>2022-10-06T10:36:45Z</time>
      </trkpt>
      <trkpt lat="44.76889" lon="-0.09856">
        <ele>104.2</ele>
        <time>2022-10-06T10:36:46Z</time>
      </trkpt>
      <trkpt lat="44.76889" lon="-0.09856">
        <ele>104.2</ele>
        <time>2022-10-06T10:36:47Z</time>
      </trkpt>
      <trkpt lat="44.76889" lon="-0.09856">
        <ele>104.2</ele>
        <time>2022-10-06T10:36:48Z</time>
      </trkpt>
      <trkpt lat="44.76889" lon="-0.09856">
        <ele>104.2</ele>
        <time>2022-10-06T10:36:49Z</time>
      </trkpt>
      <trkpt lat="44.76889" lon="-0.09856">
        <ele>104.2</ele>
        <time>2022-10-06T10:36:50Z</time>
      </trkpt>
      <trkpt lat="44.76889" lon="-0.09856">
        <ele>104.2</ele>
        <time>2022-10-06T10:36:51Z</time>
      </trkpt>
      <trkpt lat="44.76889" lon="-0.09856">
        <ele>104.2</ele>
        <time>2022-10-06T10:36:52Z</time>
      </trkpt>
      <trkpt lat="44.76889" lon="-0.09856">
        <ele>104.2</ele>
        <time>2022-10-06T10:36:53Z</time>
      </trkpt>
      <trkpt lat="44.76889" lon="-0.09856">
        <ele>104.2</ele>
        <time>2022-10-06T10:36:54Z</time>
      </trkpt>
      <trkpt lat="44.76889" lon="-0.09856">
        <ele>104.2</ele>
        <time>2022-10-06T10:36:55Z</time>
      </trkpt>
      <trkpt lat="44.76889" lon="-0.09856">
        <ele>104.2</ele>
        <time>2022-10-06T10:36:56Z</time>
      </trkpt>
      <trkpt lat="44.76889" lon="-0.09856">
        <ele>104.2</ele>
        <time>2022-10-06T10:36:57Z</time>
      </trkpt>
      <trkpt lat="44.76889" lon="-0.09856">
        <ele>104.2</ele>
        <time>2022-10-06T10:36:58Z</time>
      </trkpt>
      <trkpt lat="44.76889" lon="-0.09856">
        <ele>104.2</ele>
        <time>2022-10-06T10:36:59Z</time>
      </trkpt>
      <trkpt lat="44.76889" lon="-0.09856">
        <ele>104.2</ele>
        <time>2022-10-06T10:37:01Z</time>
      </trkpt>
      <trkpt lat="44.76889" lon="-0.09856">
        <ele>104.2</ele>
        <time>2022-10-06T10:37:02Z</time>
      </trkpt>
      <trkpt lat="44.76889" lon="-0.09856">
        <ele>104.2</ele>
        <time>2022-10-06T10:37:03Z</time>
      </trkpt>
      <trkpt lat="44.76889" lon="-0.09855">
        <ele>104.3</ele>
        <time>2022-10-06T10:37:04Z</time>
      </trkpt>
      <trkpt lat="44.76888" lon="-0.09855">
        <ele>104.3</ele>
        <time>2022-10-06T10:37:05Z</time>
      </trkpt>
      <trkpt lat="44.76888" lon="-0.09853">
        <ele>104.3</ele>
        <time>2022-10-06T10:37:06Z</time>
      </trkpt>
      <trkpt lat="44.76887" lon="-0.09852">
        <ele>104.2</ele>
        <time>2022-10-06T10:37:07Z</time>
      </trkpt>
      <trkpt lat="44.76887" lon="-0.09852">
        <ele>104.2</ele>
        <time>2022-10-06T10:37:08Z</time>
      </trkpt>
      <trkpt lat="44.76886" lon="-0.0985">
        <ele>104.2</ele>
        <time>2022-10-06T10:37:09Z</time>
      </trkpt>
      <trkpt lat="44.76886" lon="-0.0985">
        <ele>104.2</ele>
        <time>2022-10-06T10:37:10Z</time>
      </trkpt>
      <trkpt lat="44.76886" lon="-0.09849">
        <ele>104</ele>
        <time>2022-10-06T10:37:11Z</time>
      </trkpt>
      <trkpt lat="44.76885" lon="-0.09848">
        <ele>104</ele>
        <time>2022-10-06T10:37:12Z</time>
      </trkpt>
      <trkpt lat="44.76885" lon="-0.09848">
        <ele>104</ele>
        <time>2022-10-06T10:37:13Z</time>
      </trkpt>
      <trkpt lat="44.76886" lon="-0.09847">
        <ele>104</ele>
        <time>2022-10-06T10:37:14Z</time>
      </trkpt>
      <trkpt lat="44.76886" lon="-0.09846">
        <ele>104</ele>
        <time>2022-10-06T10:37:15Z</time>
      </trkpt>
      <trkpt lat="44.76886" lon="-0.09846">
        <ele>104</ele>
        <time>2022-10-06T10:37:16Z</time>
      </trkpt>
      <trkpt lat="44.76886" lon="-0.09846">
        <ele>104</ele>
        <time>2022-10-06T10:37:17Z</time>
      </trkpt>
      <trkpt lat="44.76886" lon="-0.09846">
        <ele>104</ele>
        <time>2022-10-06T10:37:18Z</time>
      </trkpt>
      <trkpt lat="44.76886" lon="-0.09846">
        <ele>104</ele>
        <time>2022-10-06T10:37:19Z</time>
      </trkpt>
      <trkpt lat="44.76886" lon="-0.09846">
        <ele>104</ele>
        <time>2022-10-06T10:37:20Z</time>
      </trkpt>
      <trkpt lat="44.76886" lon="-0.09846">
        <ele>104</ele>
        <time>2022-10-06T10:37:21Z</time>
      </trkpt>
      <trkpt lat="44.76886" lon="-0.09846">
        <ele>104</ele>
        <time>2022-10-06T10:37:22Z</time>
      </trkpt>
      <trkpt lat="44.76886" lon="-0.09846">
        <ele>104</ele>
        <time>2022-10-06T10:37:23Z</time>
      </trkpt>
      <trkpt lat="44.76886" lon="-0.09846">
        <ele>104</ele>
        <time>2022-10-06T10:37:24Z</time>
      </trkpt>
      <trkpt lat="44.76886" lon="-0.09846">
        <ele>104</ele>
        <time>2022-10-06T10:37:25Z</time>
      </trkpt>
      <trkpt lat="44.76886" lon="-0.09846">
        <ele>104</ele>
        <time>2022-10-06T10:37:26Z</time>
      </trkpt>
      <trkpt lat="44.76886" lon="-0.09846">
        <ele>104</ele>
        <time>2022-10-06T10:37:27Z</time>
      </trkpt>
      <trkpt lat="44.76886" lon="-0.09846">
        <ele>104</ele>
        <time>2022-10-06T10:37:28Z</time>
      </trkpt>
      <trkpt lat="44.76886" lon="-0.09846">
        <ele>104</ele>
        <time>2022-10-06T10:37:29Z</time>
      </trkpt>
      <trkpt lat="44.76886" lon="-0.09846">
        <ele>104</ele>
        <time>2022-10-06T10:37:30Z</time>
      </trkpt>
      <trkpt lat="44.76886" lon="-0.09846">
        <ele>104</ele>
        <time>2022-10-06T10:37:31Z</time>
      </trkpt>
      <trkpt lat="44.76886" lon="-0.09846">
        <ele>104</ele>
        <time>2022-10-06T10:37:32Z</time>
      </trkpt>
      <trkpt lat="44.76886" lon="-0.09846">
        <ele>104</ele>
        <time>2022-10-06T10:37:33Z</time>
      </trkpt>
      <trkpt lat="44.76886" lon="-0.09846">
        <ele>104</ele>
        <time>2022-10-06T10:37:34Z</time>
      </trkpt>
      <trkpt lat="44.76886" lon="-0.09846">
        <ele>104</ele>
        <time>2022-10-06T10:37:35Z</time>
      </trkpt>
      <trkpt lat="44.76886" lon="-0.09846">
        <ele>104</ele>
        <time>2022-10-06T10:37:36Z</time>
      </trkpt>
      <trkpt lat="44.76886" lon="-0.09846">
        <ele>104</ele>
        <time>2022-10-06T10:37:37Z</time>
      </trkpt>
      <trkpt lat="44.76886" lon="-0.09846">
        <ele>104</ele>
        <time>2022-10-06T10:37:38Z</time>
      </trkpt>
      <trkpt lat="44.76886" lon="-0.09846">
        <ele>104</ele>
        <time>2022-10-06T10:37:39Z</time>
      </trkpt>
      <trkpt lat="44.76886" lon="-0.09846">
        <ele>104</ele>
        <time>2022-10-06T10:37:40Z</time>
      </trkpt>
      <trkpt lat="44.76886" lon="-0.09846">
        <ele>104</ele>
        <time>2022-10-06T10:37:41Z</time>
      </trkpt>
      <trkpt lat="44.76886" lon="-0.09846">
        <ele>104</ele>
        <time>2022-10-06T10:37:42Z</time>
      </trkpt>
      <trkpt lat="44.76886" lon="-0.09846">
        <ele>104</ele>
        <time>2022-10-06T10:37:43Z</time>
      </trkpt>
      <trkpt lat="44.76886" lon="-0.09846">
        <ele>104</ele>
        <time>2022-10-06T10:37:44Z</time>
      </trkpt>
      <trkpt lat="44.76887" lon="-0.09846">
        <ele>104</ele>
        <time>2022-10-06T10:37:45Z</time>
      </trkpt>
      <trkpt lat="44.76887" lon="-0.09846">
        <ele>104</ele>
        <time>2022-10-06T10:37:46Z</time>
      </trkpt>
      <trkpt lat="44.76887" lon="-0.09846">
        <ele>104</ele>
        <time>2022-10-06T10:37:47Z</time>
      </trkpt>
      <trkpt lat="44.76887" lon="-0.09846">
        <ele>104</ele>
        <time>2022-10-06T10:37:48Z</time>
      </trkpt>
      <trkpt lat="44.76887" lon="-0.09846">
        <ele>104</ele>
        <time>2022-10-06T10:37:49Z</time>
      </trkpt>
      <trkpt lat="44.76887" lon="-0.09846">
        <ele>104</ele>
        <time>2022-10-06T10:37:50Z</time>
      </trkpt>
      <trkpt lat="44.76887" lon="-0.09846">
        <ele>104</ele>
        <time>2022-10-06T10:37:51Z</time>
      </trkpt>
      <trkpt lat="44.76887" lon="-0.09846">
        <ele>104</ele>
        <time>2022-10-06T10:37:52Z</time>
      </trkpt>
      <trkpt lat="44.76887" lon="-0.09846">
        <ele>104</ele>
        <time>2022-10-06T10:37:53Z</time>
      </trkpt>
      <trkpt lat="44.76887" lon="-0.09846">
        <ele>104</ele>
        <time>2022-10-06T10:37:54Z</time>
      </trkpt>
      <trkpt lat="44.76887" lon="-0.09846">
        <ele>104</ele>
        <time>2022-10-06T10:37:55Z</time>
      </trkpt>
      <trkpt lat="44.76887" lon="-0.09846">
        <ele>104</ele>
        <time>2022-10-06T10:37:56Z</time>
      </trkpt>
      <trkpt lat="44.76887" lon="-0.09846">
        <ele>104</ele>
        <time>2022-10-06T10:37:57Z</time>
      </trkpt>
      <trkpt lat="44.76887" lon="-0.09846">
        <ele>104</ele>
        <time>2022-10-06T10:37:58Z</time>
      </trkpt>
      <trkpt lat="44.76887" lon="-0.09846">
        <ele>104</ele>
        <time>2022-10-06T10:37:59Z</time>
      </trkpt>
      <trkpt lat="44.76887" lon="-0.09846">
        <ele>104</ele>
        <time>2022-10-06T10:38:00Z</time>
      </trkpt>
      <trkpt lat="44.76887" lon="-0.09846">
        <ele>104</ele>
        <time>2022-10-06T10:38:01Z</time>
      </trkpt>
      <trkpt lat="44.76887" lon="-0.09846">
        <ele>104</ele>
        <time>2022-10-06T10:38:02Z</time>
      </trkpt>
      <trkpt lat="44.76887" lon="-0.09846">
        <ele>104</ele>
        <time>2022-10-06T10:38:03Z</time>
      </trkpt>
      <trkpt lat="44.76887" lon="-0.09846">
        <ele>104</ele>
        <time>2022-10-06T10:38:04Z</time>
      </trkpt>
      <trkpt lat="44.76887" lon="-0.09846">
        <ele>104</ele>
        <time>2022-10-06T10:38:05Z</time>
      </trkpt>
      <trkpt lat="44.76887" lon="-0.09846">
        <ele>104</ele>
        <time>2022-10-06T10:38:06Z</time>
      </trkpt>
      <trkpt lat="44.76887" lon="-0.09846">
        <ele>104</ele>
        <time>2022-10-06T10:38:07Z</time>
      </trkpt>
      <trkpt lat="44.76887" lon="-0.09846">
        <ele>104</ele>
        <time>2022-10-06T10:38:08Z</time>
      </trkpt>
      <trkpt lat="44.76887" lon="-0.09846">
        <ele>104</ele>
        <time>2022-10-06T10:38:09Z</time>
      </trkpt>
      <trkpt lat="44.76887" lon="-0.09846">
        <ele>104</ele>
        <time>2022-10-06T10:38:10Z</time>
      </trkpt>
      <trkpt lat="44.76887" lon="-0.09846">
        <ele>104</ele>
        <time>2022-10-06T10:38:11Z</time>
      </trkpt>
      <trkpt lat="44.76887" lon="-0.09846">
        <ele>104</ele>
        <time>2022-10-06T10:38:12Z</time>
      </trkpt>
      <trkpt lat="44.76887" lon="-0.09846">
        <ele>104</ele>
        <time>2022-10-06T10:38:13Z</time>
      </trkpt>
      <trkpt lat="44.76887" lon="-0.09845">
        <ele>104</ele>
        <time>2022-10-06T10:38:14Z</time>
      </trkpt>
      <trkpt lat="44.76887" lon="-0.09845">
        <ele>104</ele>
        <time>2022-10-06T10:38:15Z</time>
      </trkpt>
      <trkpt lat="44.76886" lon="-0.09843">
        <ele>103.9</ele>
        <time>2022-10-06T10:38:16Z</time>
      </trkpt>
      <trkpt lat="44.76886" lon="-0.09842">
        <ele>103.9</ele>
        <time>2022-10-06T10:38:17Z</time>
      </trkpt>
      <trkpt lat="44.76886" lon="-0.09841">
        <ele>103.9</ele>
        <time>2022-10-06T10:38:18Z</time>
      </trkpt>
      <trkpt lat="44.76885" lon="-0.09839">
        <ele>103.8</ele>
        <time>2022-10-06T10:38:19Z</time>
      </trkpt>
      <trkpt lat="44.76884" lon="-0.09838">
        <ele>103.8</ele>
        <time>2022-10-06T10:38:20Z</time>
      </trkpt>
      <trkpt lat="44.76884" lon="-0.09836">
        <ele>103.8</ele>
        <time>2022-10-06T10:38:21Z</time>
      </trkpt>
      <trkpt lat="44.76884" lon="-0.09835">
        <ele>103.6</ele>
        <time>2022-10-06T10:38:22Z</time>
      </trkpt>
      <trkpt lat="44.76883" lon="-0.09833">
        <ele>103.6</ele>
        <time>2022-10-06T10:38:23Z</time>
      </trkpt>
      <trkpt lat="44.76883" lon="-0.09832">
        <ele>103.5</ele>
        <time>2022-10-06T10:38:24Z</time>
      </trkpt>
      <trkpt lat="44.76883" lon="-0.09831">
        <ele>103.5</ele>
        <time>2022-10-06T10:38:25Z</time>
      </trkpt>
      <trkpt lat="44.76882" lon="-0.09829">
        <ele>103.5</ele>
        <time>2022-10-06T10:38:26Z</time>
      </trkpt>
      <trkpt lat="44.76882" lon="-0.09828">
        <ele>103.5</ele>
        <time>2022-10-06T10:38:27Z</time>
      </trkpt>
      <trkpt lat="44.76882" lon="-0.09827">
        <ele>103.4</ele>
        <time>2022-10-06T10:38:28Z</time>
      </trkpt>
      <trkpt lat="44.76882" lon="-0.09825">
        <ele>103.4</ele>
        <time>2022-10-06T10:38:29Z</time>
      </trkpt>
      <trkpt lat="44.76881" lon="-0.09823">
        <ele>103.3</ele>
        <time>2022-10-06T10:38:30Z</time>
      </trkpt>
      <trkpt lat="44.76881" lon="-0.09821">
        <ele>103.3</ele>
        <time>2022-10-06T10:38:31Z</time>
      </trkpt>
      <trkpt lat="44.76881" lon="-0.0982">
        <ele>103.3</ele>
        <time>2022-10-06T10:38:32Z</time>
      </trkpt>
      <trkpt lat="44.7688" lon="-0.09818">
        <ele>103.1</ele>
        <time>2022-10-06T10:38:33Z</time>
      </trkpt>
      <trkpt lat="44.7688" lon="-0.09816">
        <ele>103.1</ele>
        <time>2022-10-06T10:38:34Z</time>
      </trkpt>
      <trkpt lat="44.7688" lon="-0.09815">
        <ele>103.1</ele>
        <time>2022-10-06T10:38:35Z</time>
      </trkpt>
      <trkpt lat="44.76879" lon="-0.09812">
        <ele>103</ele>
        <time>2022-10-06T10:38:36Z</time>
      </trkpt>
      <trkpt lat="44.76879" lon="-0.09811">
        <ele>103</ele>
        <time>2022-10-06T10:38:37Z</time>
      </trkpt>
      <trkpt lat="44.76879" lon="-0.0981">
        <ele>102.9</ele>
        <time>2022-10-06T10:38:38Z</time>
      </trkpt>
      <trkpt lat="44.76879" lon="-0.09809">
        <ele>102.9</ele>
        <time>2022-10-06T10:38:39Z</time>
      </trkpt>
      <trkpt lat="44.76878" lon="-0.09807">
        <ele>102.9</ele>
        <time>2022-10-06T10:38:40Z</time>
      </trkpt>
      <trkpt lat="44.76878" lon="-0.09805">
        <ele>102.7</ele>
        <time>2022-10-06T10:38:41Z</time>
      </trkpt>
      <trkpt lat="44.76878" lon="-0.09802">
        <ele>102.7</ele>
        <time>2022-10-06T10:38:42Z</time>
      </trkpt>
      <trkpt lat="44.76878" lon="-0.09801">
        <ele>102.6</ele>
        <time>2022-10-06T10:38:43Z</time>
      </trkpt>
      <trkpt lat="44.76877" lon="-0.098">
        <ele>102.6</ele>
        <time>2022-10-06T10:38:44Z</time>
      </trkpt>
      <trkpt lat="44.76877" lon="-0.09797">
        <ele>102.4</ele>
        <time>2022-10-06T10:38:45Z</time>
      </trkpt>
      <trkpt lat="44.76876" lon="-0.09795">
        <ele>102.4</ele>
        <time>2022-10-06T10:38:46Z</time>
      </trkpt>
      <trkpt lat="44.76876" lon="-0.09794">
        <ele>102.4</ele>
        <time>2022-10-06T10:38:47Z</time>
      </trkpt>
      <trkpt lat="44.76876" lon="-0.09793">
        <ele>102.3</ele>
        <time>2022-10-06T10:38:48Z</time>
      </trkpt>
      <trkpt lat="44.76876" lon="-0.09791">
        <ele>102.3</ele>
        <time>2022-10-06T10:38:49Z</time>
      </trkpt>
      <trkpt lat="44.76876" lon="-0.0979">
        <ele>102.3</ele>
        <time>2022-10-06T10:38:50Z</time>
      </trkpt>
      <trkpt lat="44.76875" lon="-0.09788">
        <ele>102.1</ele>
        <time>2022-10-06T10:38:51Z</time>
      </trkpt>
      <trkpt lat="44.76875" lon="-0.09786">
        <ele>102.1</ele>
        <time>2022-10-06T10:38:52Z</time>
      </trkpt>
      <trkpt lat="44.76875" lon="-0.09785">
        <ele>102.1</ele>
        <time>2022-10-06T10:38:53Z</time>
      </trkpt>
      <trkpt lat="44.76874" lon="-0.09784">
        <ele>102</ele>
        <time>2022-10-06T10:38:54Z</time>
      </trkpt>
      <trkpt lat="44.76874" lon="-0.09782">
        <ele>102</ele>
        <time>2022-10-06T10:38:55Z</time>
      </trkpt>
      <trkpt lat="44.76874" lon="-0.09781">
        <ele>102</ele>
        <time>2022-10-06T10:38:56Z</time>
      </trkpt>
      <trkpt lat="44.76873" lon="-0.09779">
        <ele>101.8</ele>
        <time>2022-10-06T10:38:57Z</time>
      </trkpt>
      <trkpt lat="44.76873" lon="-0.09777">
        <ele>101.8</ele>
        <time>2022-10-06T10:38:58Z</time>
      </trkpt>
      <trkpt lat="44.76873" lon="-0.09776">
        <ele>101.7</ele>
        <time>2022-10-06T10:38:59Z</time>
      </trkpt>
      <trkpt lat="44.76872" lon="-0.09771">
        <ele>101.6</ele>
        <time>2022-10-06T10:39:01Z</time>
      </trkpt>
      <trkpt lat="44.76871" lon="-0.0977">
        <ele>101.6</ele>
        <time>2022-10-06T10:39:02Z</time>
      </trkpt>
      <trkpt lat="44.76871" lon="-0.09769">
        <ele>101.6</ele>
        <time>2022-10-06T10:39:03Z</time>
      </trkpt>
      <trkpt lat="44.76871" lon="-0.09767">
        <ele>101.5</ele>
        <time>2022-10-06T10:39:04Z</time>
      </trkpt>
      <trkpt lat="44.7687" lon="-0.09764">
        <ele>101.5</ele>
        <time>2022-10-06T10:39:05Z</time>
      </trkpt>
      <trkpt lat="44.7687" lon="-0.09763">
        <ele>101.3</ele>
        <time>2022-10-06T10:39:06Z</time>
      </trkpt>
      <trkpt lat="44.76869" lon="-0.09762">
        <ele>101.3</ele>
        <time>2022-10-06T10:39:07Z</time>
      </trkpt>
      <trkpt lat="44.76869" lon="-0.09761">
        <ele>101.3</ele>
        <time>2022-10-06T10:39:08Z</time>
      </trkpt>
      <trkpt lat="44.76869" lon="-0.0976">
        <ele>101.3</ele>
        <time>2022-10-06T10:39:09Z</time>
      </trkpt>
      <trkpt lat="44.76869" lon="-0.09758">
        <ele>101.2</ele>
        <time>2022-10-06T10:39:10Z</time>
      </trkpt>
      <trkpt lat="44.76868" lon="-0.09757">
        <ele>101.2</ele>
        <time>2022-10-06T10:39:11Z</time>
      </trkpt>
      <trkpt lat="44.76868" lon="-0.09754">
        <ele>101.1</ele>
        <time>2022-10-06T10:39:12Z</time>
      </trkpt>
      <trkpt lat="44.76868" lon="-0.09754">
        <ele>101.1</ele>
        <time>2022-10-06T10:39:13Z</time>
      </trkpt>
      <trkpt lat="44.76867" lon="-0.09753">
        <ele>101.1</ele>
        <time>2022-10-06T10:39:14Z</time>
      </trkpt>
      <trkpt lat="44.76867" lon="-0.0975">
        <ele>100.9</ele>
        <time>2022-10-06T10:39:15Z</time>
      </trkpt>
      <trkpt lat="44.76866" lon="-0.09748">
        <ele>100.9</ele>
        <time>2022-10-06T10:39:16Z</time>
      </trkpt>
      <trkpt lat="44.76866" lon="-0.09747">
        <ele>100.9</ele>
        <time>2022-10-06T10:39:17Z</time>
      </trkpt>
      <trkpt lat="44.76865" lon="-0.09746">
        <ele>100.8</ele>
        <time>2022-10-06T10:39:18Z</time>
      </trkpt>
      <trkpt lat="44.76865" lon="-0.09745">
        <ele>100.8</ele>
        <time>2022-10-06T10:39:19Z</time>
      </trkpt>
      <trkpt lat="44.76865" lon="-0.09743">
        <ele>100.8</ele>
        <time>2022-10-06T10:39:20Z</time>
      </trkpt>
      <trkpt lat="44.76865" lon="-0.09742">
        <ele>100.7</ele>
        <time>2022-10-06T10:39:21Z</time>
      </trkpt>
      <trkpt lat="44.76864" lon="-0.0974">
        <ele>100.7</ele>
        <time>2022-10-06T10:39:22Z</time>
      </trkpt>
      <trkpt lat="44.76864" lon="-0.09738">
        <ele>100.7</ele>
        <time>2022-10-06T10:39:23Z</time>
      </trkpt>
      <trkpt lat="44.76864" lon="-0.09736">
        <ele>100.6</ele>
        <time>2022-10-06T10:39:24Z</time>
      </trkpt>
      <trkpt lat="44.76864" lon="-0.09734">
        <ele>100.6</ele>
        <time>2022-10-06T10:39:25Z</time>
      </trkpt>
      <trkpt lat="44.76863" lon="-0.09733">
        <ele>100.6</ele>
        <time>2022-10-06T10:39:26Z</time>
      </trkpt>
      <trkpt lat="44.76863" lon="-0.09731">
        <ele>100.5</ele>
        <time>2022-10-06T10:39:27Z</time>
      </trkpt>
      <trkpt lat="44.76863" lon="-0.0973">
        <ele>100.5</ele>
        <time>2022-10-06T10:39:28Z</time>
      </trkpt>
      <trkpt lat="44.76863" lon="-0.09728">
        <ele>100.4</ele>
        <time>2022-10-06T10:39:29Z</time>
      </trkpt>
      <trkpt lat="44.76865" lon="-0.09726">
        <ele>100.4</ele>
        <time>2022-10-06T10:39:30Z</time>
      </trkpt>
      <trkpt lat="44.76865" lon="-0.09726">
        <ele>100.4</ele>
        <time>2022-10-06T10:39:31Z</time>
      </trkpt>
      <trkpt lat="44.76866" lon="-0.09725">
        <ele>100.4</ele>
        <time>2022-10-06T10:39:32Z</time>
      </trkpt>
      <trkpt lat="44.76867" lon="-0.09725">
        <ele>100.4</ele>
        <time>2022-10-06T10:39:33Z</time>
      </trkpt>
      <trkpt lat="44.76868" lon="-0.09725">
        <ele>100.4</ele>
        <time>2022-10-06T10:39:34Z</time>
      </trkpt>
      <trkpt lat="44.76869" lon="-0.09724">
        <ele>100.3</ele>
        <time>2022-10-06T10:39:35Z</time>
      </trkpt>
      <trkpt lat="44.76869" lon="-0.09724">
        <ele>100.3</ele>
        <time>2022-10-06T10:39:36Z</time>
      </trkpt>
      <trkpt lat="44.7687" lon="-0.09723">
        <ele>100.3</ele>
        <time>2022-10-06T10:39:37Z</time>
      </trkpt>
      <trkpt lat="44.7687" lon="-0.09723">
        <ele>100.3</ele>
        <time>2022-10-06T10:39:38Z</time>
      </trkpt>
      <trkpt lat="44.76871" lon="-0.09723">
        <ele>100.4</ele>
        <time>2022-10-06T10:39:39Z</time>
      </trkpt>
      <trkpt lat="44.76872" lon="-0.09722">
        <ele>100.4</ele>
        <time>2022-10-06T10:39:40Z</time>
      </trkpt>
      <trkpt lat="44.76873" lon="-0.09722">
        <ele>100.4</ele>
        <time>2022-10-06T10:39:41Z</time>
      </trkpt>
      <trkpt lat="44.76875" lon="-0.09721">
        <ele>100.4</ele>
        <time>2022-10-06T10:39:42Z</time>
      </trkpt>
      <trkpt lat="44.76876" lon="-0.09721">
        <ele>100.4</ele>
        <time>2022-10-06T10:39:43Z</time>
      </trkpt>
      <trkpt lat="44.76878" lon="-0.09721">
        <ele>100.4</ele>
        <time>2022-10-06T10:39:44Z</time>
      </trkpt>
      <trkpt lat="44.76878" lon="-0.09721">
        <ele>100.4</ele>
        <time>2022-10-06T10:39:45Z</time>
      </trkpt>
      <trkpt lat="44.76879" lon="-0.0972">
        <ele>100.3</ele>
        <time>2022-10-06T10:39:46Z</time>
      </trkpt>
      <trkpt lat="44.7688" lon="-0.09719">
        <ele>100.3</ele>
        <time>2022-10-06T10:39:47Z</time>
      </trkpt>
      <trkpt lat="44.76882" lon="-0.09719">
        <ele>100.3</ele>
        <time>2022-10-06T10:39:48Z</time>
      </trkpt>
      <trkpt lat="44.76883" lon="-0.09718">
        <ele>100.3</ele>
        <time>2022-10-06T10:39:49Z</time>
      </trkpt>
      <trkpt lat="44.76884" lon="-0.09718">
        <ele>100.3</ele>
        <time>2022-10-06T10:39:50Z</time>
      </trkpt>
      <trkpt lat="44.76885" lon="-0.09717">
        <ele>100.3</ele>
        <time>2022-10-06T10:39:51Z</time>
      </trkpt>
      <trkpt lat="44.76887" lon="-0.09716">
        <ele>100.3</ele>
        <time>2022-10-06T10:39:52Z</time>
      </trkpt>
      <trkpt lat="44.76887" lon="-0.09716">
        <ele>100.2</ele>
        <time>2022-10-06T10:39:53Z</time>
      </trkpt>
      <trkpt lat="44.76888" lon="-0.09716">
        <ele>100.2</ele>
        <time>2022-10-06T10:39:54Z</time>
      </trkpt>
      <trkpt lat="44.7689" lon="-0.09715">
        <ele>100.2</ele>
        <time>2022-10-06T10:39:55Z</time>
      </trkpt>
      <trkpt lat="44.76891" lon="-0.09715">
        <ele>100.2</ele>
        <time>2022-10-06T10:39:56Z</time>
      </trkpt>
      <trkpt lat="44.76893" lon="-0.09714">
        <ele>100.2</ele>
        <time>2022-10-06T10:39:57Z</time>
      </trkpt>
      <trkpt lat="44.76894" lon="-0.09714">
        <ele>100.2</ele>
        <time>2022-10-06T10:39:58Z</time>
      </trkpt>
      <trkpt lat="44.76895" lon="-0.09713">
        <ele>100.2</ele>
        <time>2022-10-06T10:39:59Z</time>
      </trkpt>
      <trkpt lat="44.76896" lon="-0.09712">
        <ele>100.2</ele>
        <time>2022-10-06T10:40:00Z</time>
      </trkpt>
      <trkpt lat="44.76897" lon="-0.09712">
        <ele>100.2</ele>
        <time>2022-10-06T10:40:01Z</time>
      </trkpt>
      <trkpt lat="44.76899" lon="-0.09711">
        <ele>100.1</ele>
        <time>2022-10-06T10:40:02Z</time>
      </trkpt>
      <trkpt lat="44.769" lon="-0.0971">
        <ele>100.1</ele>
        <time>2022-10-06T10:40:03Z</time>
      </trkpt>
      <trkpt lat="44.76901" lon="-0.0971">
        <ele>100.1</ele>
        <time>2022-10-06T10:40:04Z</time>
      </trkpt>
      <trkpt lat="44.76902" lon="-0.0971">
        <ele>100.1</ele>
        <time>2022-10-06T10:40:05Z</time>
      </trkpt>
      <trkpt lat="44.76903" lon="-0.0971">
        <ele>100.1</ele>
        <time>2022-10-06T10:40:06Z</time>
      </trkpt>
      <trkpt lat="44.76905" lon="-0.09708">
        <ele>100</ele>
        <time>2022-10-06T10:40:07Z</time>
      </trkpt>
      <trkpt lat="44.76906" lon="-0.09708">
        <ele>100</ele>
        <time>2022-10-06T10:40:08Z</time>
      </trkpt>
      <trkpt lat="44.76907" lon="-0.09707">
        <ele>100</ele>
        <time>2022-10-06T10:40:09Z</time>
      </trkpt>
      <trkpt lat="44.76908" lon="-0.09706">
        <ele>99.9</ele>
        <time>2022-10-06T10:40:10Z</time>
      </trkpt>
      <trkpt lat="44.7691" lon="-0.09705">
        <ele>99.9</ele>
        <time>2022-10-06T10:40:11Z</time>
      </trkpt>
      <trkpt lat="44.76912" lon="-0.09705">
        <ele>99.9</ele>
        <time>2022-10-06T10:40:12Z</time>
      </trkpt>
      <trkpt lat="44.76913" lon="-0.09705">
        <ele>99.9</ele>
        <time>2022-10-06T10:40:13Z</time>
      </trkpt>
      <trkpt lat="44.76914" lon="-0.09704">
        <ele>99.9</ele>
        <time>2022-10-06T10:40:14Z</time>
      </trkpt>
      <trkpt lat="44.76915" lon="-0.09704">
        <ele>99.9</ele>
        <time>2022-10-06T10:40:15Z</time>
      </trkpt>
      <trkpt lat="44.76916" lon="-0.09703">
        <ele>99.9</ele>
        <time>2022-10-06T10:40:16Z</time>
      </trkpt>
      <trkpt lat="44.76918" lon="-0.09703">
        <ele>99.8</ele>
        <time>2022-10-06T10:40:17Z</time>
      </trkpt>
      <trkpt lat="44.76919" lon="-0.09702">
        <ele>99.8</ele>
        <time>2022-10-06T10:40:18Z</time>
      </trkpt>
      <trkpt lat="44.7692" lon="-0.09702">
        <ele>99.7</ele>
        <time>2022-10-06T10:40:19Z</time>
      </trkpt>
      <trkpt lat="44.76921" lon="-0.09701">
        <ele>99.7</ele>
        <time>2022-10-06T10:40:20Z</time>
      </trkpt>
      <trkpt lat="44.76922" lon="-0.09701">
        <ele>99.7</ele>
        <time>2022-10-06T10:40:21Z</time>
      </trkpt>
      <trkpt lat="44.76924" lon="-0.09699">
        <ele>99.7</ele>
        <time>2022-10-06T10:40:22Z</time>
      </trkpt>
      <trkpt lat="44.76925" lon="-0.09699">
        <ele>99.7</ele>
        <time>2022-10-06T10:40:23Z</time>
      </trkpt>
      <trkpt lat="44.76925" lon="-0.09698">
        <ele>99.7</ele>
        <time>2022-10-06T10:40:24Z</time>
      </trkpt>
      <trkpt lat="44.76926" lon="-0.09698">
        <ele>99.6</ele>
        <time>2022-10-06T10:40:25Z</time>
      </trkpt>
      <trkpt lat="44.76928" lon="-0.09697">
        <ele>99.6</ele>
        <time>2022-10-06T10:40:26Z</time>
      </trkpt>
      <trkpt lat="44.76929" lon="-0.09697">
        <ele>99.6</ele>
        <time>2022-10-06T10:40:27Z</time>
      </trkpt>
      <trkpt lat="44.76931" lon="-0.09696">
        <ele>99.6</ele>
        <time>2022-10-06T10:40:28Z</time>
      </trkpt>
      <trkpt lat="44.76932" lon="-0.09695">
        <ele>99.5</ele>
        <time>2022-10-06T10:40:29Z</time>
      </trkpt>
      <trkpt lat="44.76933" lon="-0.09694">
        <ele>99.5</ele>
        <time>2022-10-06T10:40:30Z</time>
      </trkpt>
      <trkpt lat="44.76934" lon="-0.09693">
        <ele>99.5</ele>
        <time>2022-10-06T10:40:31Z</time>
      </trkpt>
      <trkpt lat="44.76935" lon="-0.09692">
        <ele>99.5</ele>
        <time>2022-10-06T10:40:32Z</time>
      </trkpt>
      <trkpt lat="44.76936" lon="-0.09692">
        <ele>99.5</ele>
        <time>2022-10-06T10:40:33Z</time>
      </trkpt>
      <trkpt lat="44.76938" lon="-0.09692">
        <ele>99.5</ele>
        <time>2022-10-06T10:40:34Z</time>
      </trkpt>
      <trkpt lat="44.76939" lon="-0.09691">
        <ele>99.4</ele>
        <time>2022-10-06T10:40:35Z</time>
      </trkpt>
      <trkpt lat="44.7694" lon="-0.09691">
        <ele>99.4</ele>
        <time>2022-10-06T10:40:36Z</time>
      </trkpt>
      <trkpt lat="44.76941" lon="-0.0969">
        <ele>99.3</ele>
        <time>2022-10-06T10:40:37Z</time>
      </trkpt>
      <trkpt lat="44.76942" lon="-0.09689">
        <ele>99.3</ele>
        <time>2022-10-06T10:40:38Z</time>
      </trkpt>
      <trkpt lat="44.76943" lon="-0.09689">
        <ele>99.3</ele>
        <time>2022-10-06T10:40:39Z</time>
      </trkpt>
      <trkpt lat="44.76945" lon="-0.09688">
        <ele>99.3</ele>
        <time>2022-10-06T10:40:40Z</time>
      </trkpt>
      <trkpt lat="44.76946" lon="-0.09688">
        <ele>99.3</ele>
        <time>2022-10-06T10:40:41Z</time>
      </trkpt>
      <trkpt lat="44.76947" lon="-0.09687">
        <ele>99.2</ele>
        <time>2022-10-06T10:40:42Z</time>
      </trkpt>
      <trkpt lat="44.76949" lon="-0.09686">
        <ele>99.2</ele>
        <time>2022-10-06T10:40:43Z</time>
      </trkpt>
      <trkpt lat="44.76949" lon="-0.09686">
        <ele>99.2</ele>
        <time>2022-10-06T10:40:44Z</time>
      </trkpt>
      <trkpt lat="44.76951" lon="-0.09685">
        <ele>99.1</ele>
        <time>2022-10-06T10:40:45Z</time>
      </trkpt>
      <trkpt lat="44.76952" lon="-0.09684">
        <ele>99.1</ele>
        <time>2022-10-06T10:40:46Z</time>
      </trkpt>
      <trkpt lat="44.76953" lon="-0.09683">
        <ele>99.1</ele>
        <time>2022-10-06T10:40:47Z</time>
      </trkpt>
      <trkpt lat="44.76954" lon="-0.09682">
        <ele>99.1</ele>
        <time>2022-10-06T10:40:48Z</time>
      </trkpt>
      <trkpt lat="44.76955" lon="-0.09682">
        <ele>99.1</ele>
        <time>2022-10-06T10:40:49Z</time>
      </trkpt>
      <trkpt lat="44.76956" lon="-0.09681">
        <ele>99</ele>
        <time>2022-10-06T10:40:50Z</time>
      </trkpt>
      <trkpt lat="44.76957" lon="-0.09681">
        <ele>99</ele>
        <time>2022-10-06T10:40:51Z</time>
      </trkpt>
      <trkpt lat="44.76958" lon="-0.0968">
        <ele>99</ele>
        <time>2022-10-06T10:40:52Z</time>
      </trkpt>
      <trkpt lat="44.7696" lon="-0.09679">
        <ele>99</ele>
        <time>2022-10-06T10:40:53Z</time>
      </trkpt>
      <trkpt lat="44.76961" lon="-0.09679">
        <ele>99</ele>
        <time>2022-10-06T10:40:54Z</time>
      </trkpt>
      <trkpt lat="44.76962" lon="-0.09678">
        <ele>98.9</ele>
        <time>2022-10-06T10:40:55Z</time>
      </trkpt>
      <trkpt lat="44.76963" lon="-0.09678">
        <ele>98.9</ele>
        <time>2022-10-06T10:40:56Z</time>
      </trkpt>
      <trkpt lat="44.76964" lon="-0.09677">
        <ele>98.9</ele>
        <time>2022-10-06T10:40:57Z</time>
      </trkpt>
      <trkpt lat="44.76966" lon="-0.09676">
        <ele>98.8</ele>
        <time>2022-10-06T10:40:58Z</time>
      </trkpt>
      <trkpt lat="44.76967" lon="-0.09675">
        <ele>98.8</ele>
        <time>2022-10-06T10:40:59Z</time>
      </trkpt>
      <trkpt lat="44.76968" lon="-0.09674">
        <ele>98.8</ele>
        <time>2022-10-06T10:41:00Z</time>
      </trkpt>
      <trkpt lat="44.76969" lon="-0.09673">
        <ele>98.8</ele>
        <time>2022-10-06T10:41:01Z</time>
      </trkpt>
      <trkpt lat="44.7697" lon="-0.09672">
        <ele>98.8</ele>
        <time>2022-10-06T10:41:02Z</time>
      </trkpt>
      <trkpt lat="44.76972" lon="-0.09671">
        <ele>98.7</ele>
        <time>2022-10-06T10:41:03Z</time>
      </trkpt>
      <trkpt lat="44.76973" lon="-0.0967">
        <ele>98.7</ele>
        <time>2022-10-06T10:41:04Z</time>
      </trkpt>
      <trkpt lat="44.76974" lon="-0.09669">
        <ele>98.6</ele>
        <time>2022-10-06T10:41:05Z</time>
      </trkpt>
      <trkpt lat="44.76975" lon="-0.09669">
        <ele>98.6</ele>
        <time>2022-10-06T10:41:06Z</time>
      </trkpt>
      <trkpt lat="44.76977" lon="-0.09668">
        <ele>98.5</ele>
        <time>2022-10-06T10:41:07Z</time>
      </trkpt>
      <trkpt lat="44.76978" lon="-0.09667">
        <ele>98.5</ele>
        <time>2022-10-06T10:41:08Z</time>
      </trkpt>
      <trkpt lat="44.76979" lon="-0.09667">
        <ele>98.5</ele>
        <time>2022-10-06T10:41:09Z</time>
      </trkpt>
      <trkpt lat="44.7698" lon="-0.09666">
        <ele>98.5</ele>
        <time>2022-10-06T10:41:10Z</time>
      </trkpt>
      <trkpt lat="44.76981" lon="-0.09666">
        <ele>98.5</ele>
        <time>2022-10-06T10:41:11Z</time>
      </trkpt>
      <trkpt lat="44.76982" lon="-0.09665">
        <ele>98.5</ele>
        <time>2022-10-06T10:41:12Z</time>
      </trkpt>
      <trkpt lat="44.76984" lon="-0.09664">
        <ele>98.4</ele>
        <time>2022-10-06T10:41:13Z</time>
      </trkpt>
      <trkpt lat="44.76985" lon="-0.09664">
        <ele>98.4</ele>
        <time>2022-10-06T10:41:14Z</time>
      </trkpt>
      <trkpt lat="44.76986" lon="-0.09663">
        <ele>98.4</ele>
        <time>2022-10-06T10:41:15Z</time>
      </trkpt>
      <trkpt lat="44.76987" lon="-0.09662">
        <ele>98.3</ele>
        <time>2022-10-06T10:41:16Z</time>
      </trkpt>
      <trkpt lat="44.76988" lon="-0.09661">
        <ele>98.3</ele>
        <time>2022-10-06T10:41:17Z</time>
      </trkpt>
      <trkpt lat="44.7699" lon="-0.0966">
        <ele>98.2</ele>
        <time>2022-10-06T10:41:18Z</time>
      </trkpt>
      <trkpt lat="44.76991" lon="-0.0966">
        <ele>98.2</ele>
        <time>2022-10-06T10:41:19Z</time>
      </trkpt>
      <trkpt lat="44.76992" lon="-0.09659">
        <ele>98.2</ele>
        <time>2022-10-06T10:41:20Z</time>
      </trkpt>
      <trkpt lat="44.76993" lon="-0.09658">
        <ele>98.2</ele>
        <time>2022-10-06T10:41:21Z</time>
      </trkpt>
      <trkpt lat="44.76994" lon="-0.09658">
        <ele>98.2</ele>
        <time>2022-10-06T10:41:22Z</time>
      </trkpt>
      <trkpt lat="44.76996" lon="-0.09657">
        <ele>98.1</ele>
        <time>2022-10-06T10:41:23Z</time>
      </trkpt>
      <trkpt lat="44.76997" lon="-0.09656">
        <ele>98.1</ele>
        <time>2022-10-06T10:41:24Z</time>
      </trkpt>
      <trkpt lat="44.76998" lon="-0.09656">
        <ele>98.1</ele>
        <time>2022-10-06T10:41:25Z</time>
      </trkpt>
      <trkpt lat="44.76999" lon="-0.09655">
        <ele>98</ele>
        <time>2022-10-06T10:41:26Z</time>
      </trkpt>
      <trkpt lat="44.77" lon="-0.09655">
        <ele>98</ele>
        <time>2022-10-06T10:41:27Z</time>
      </trkpt>
      <trkpt lat="44.77002" lon="-0.09653">
        <ele>97.9</ele>
        <time>2022-10-06T10:41:28Z</time>
      </trkpt>
      <trkpt lat="44.77003" lon="-0.09652">
        <ele>97.9</ele>
        <time>2022-10-06T10:41:29Z</time>
      </trkpt>
      <trkpt lat="44.77003" lon="-0.09651">
        <ele>97.9</ele>
        <time>2022-10-06T10:41:30Z</time>
      </trkpt>
      <trkpt lat="44.77004" lon="-0.09651">
        <ele>97.9</ele>
        <time>2022-10-06T10:41:31Z</time>
      </trkpt>
      <trkpt lat="44.77004" lon="-0.0965">
        <ele>97.9</ele>
        <time>2022-10-06T10:41:32Z</time>
      </trkpt>
      <trkpt lat="44.77005" lon="-0.09649">
        <ele>97.8</ele>
        <time>2022-10-06T10:41:33Z</time>
      </trkpt>
      <trkpt lat="44.77007" lon="-0.09649">
        <ele>97.8</ele>
        <time>2022-10-06T10:41:34Z</time>
      </trkpt>
      <trkpt lat="44.77008" lon="-0.09648">
        <ele>97.7</ele>
        <time>2022-10-06T10:41:35Z</time>
      </trkpt>
      <trkpt lat="44.7701" lon="-0.09646">
        <ele>97.7</ele>
        <time>2022-10-06T10:41:36Z</time>
      </trkpt>
      <trkpt lat="44.7701" lon="-0.09646">
        <ele>97.7</ele>
        <time>2022-10-06T10:41:37Z</time>
      </trkpt>
      <trkpt lat="44.77011" lon="-0.09645">
        <ele>97.6</ele>
        <time>2022-10-06T10:41:38Z</time>
      </trkpt>
      <trkpt lat="44.77012" lon="-0.09645">
        <ele>97.6</ele>
        <time>2022-10-06T10:41:39Z</time>
      </trkpt>
      <trkpt lat="44.77013" lon="-0.09644">
        <ele>97.6</ele>
        <time>2022-10-06T10:41:40Z</time>
      </trkpt>
      <trkpt lat="44.77014" lon="-0.09643">
        <ele>97.4</ele>
        <time>2022-10-06T10:41:41Z</time>
      </trkpt>
      <trkpt lat="44.77015" lon="-0.09642">
        <ele>97.4</ele>
        <time>2022-10-06T10:41:42Z</time>
      </trkpt>
      <trkpt lat="44.77017" lon="-0.09642">
        <ele>97.3</ele>
        <time>2022-10-06T10:41:43Z</time>
      </trkpt>
      <trkpt lat="44.77018" lon="-0.09641">
        <ele>97.3</ele>
        <time>2022-10-06T10:41:44Z</time>
      </trkpt>
      <trkpt lat="44.77019" lon="-0.0964">
        <ele>97.3</ele>
        <time>2022-10-06T10:41:45Z</time>
      </trkpt>
      <trkpt lat="44.7702" lon="-0.09639">
        <ele>97.2</ele>
        <time>2022-10-06T10:41:46Z</time>
      </trkpt>
      <trkpt lat="44.77021" lon="-0.09639">
        <ele>97.2</ele>
        <time>2022-10-06T10:41:47Z</time>
      </trkpt>
      <trkpt lat="44.77023" lon="-0.09638">
        <ele>97.2</ele>
        <time>2022-10-06T10:41:48Z</time>
      </trkpt>
      <trkpt lat="44.77023" lon="-0.09637">
        <ele>97.1</ele>
        <time>2022-10-06T10:41:49Z</time>
      </trkpt>
      <trkpt lat="44.77024" lon="-0.09637">
        <ele>97.1</ele>
        <time>2022-10-06T10:41:50Z</time>
      </trkpt>
      <trkpt lat="44.77026" lon="-0.09636">
        <ele>97.1</ele>
        <time>2022-10-06T10:41:51Z</time>
      </trkpt>
      <trkpt lat="44.77027" lon="-0.09635">
        <ele>97</ele>
        <time>2022-10-06T10:41:52Z</time>
      </trkpt>
      <trkpt lat="44.77028" lon="-0.09634">
        <ele>97</ele>
        <time>2022-10-06T10:41:53Z</time>
      </trkpt>
      <trkpt lat="44.77029" lon="-0.09634">
        <ele>96.9</ele>
        <time>2022-10-06T10:41:54Z</time>
      </trkpt>
      <trkpt lat="44.7703" lon="-0.09633">
        <ele>96.9</ele>
        <time>2022-10-06T10:41:55Z</time>
      </trkpt>
      <trkpt lat="44.77031" lon="-0.09632">
        <ele>96.9</ele>
        <time>2022-10-06T10:41:56Z</time>
      </trkpt>
      <trkpt lat="44.77032" lon="-0.09632">
        <ele>96.8</ele>
        <time>2022-10-06T10:41:57Z</time>
      </trkpt>
      <trkpt lat="44.77034" lon="-0.09631">
        <ele>96.8</ele>
        <time>2022-10-06T10:41:58Z</time>
      </trkpt>
      <trkpt lat="44.77034" lon="-0.09631">
        <ele>96.8</ele>
        <time>2022-10-06T10:41:59Z</time>
      </trkpt>
      <trkpt lat="44.77035" lon="-0.0963">
        <ele>96.8</ele>
        <time>2022-10-06T10:42:00Z</time>
      </trkpt>
      <trkpt lat="44.77037" lon="-0.09629">
        <ele>96.8</ele>
        <time>2022-10-06T10:42:01Z</time>
      </trkpt>
      <trkpt lat="44.77039" lon="-0.09628">
        <ele>96.7</ele>
        <time>2022-10-06T10:42:02Z</time>
      </trkpt>
      <trkpt lat="44.7704" lon="-0.09627">
        <ele>96.7</ele>
        <time>2022-10-06T10:42:03Z</time>
      </trkpt>
      <trkpt lat="44.77041" lon="-0.09627">
        <ele>96.7</ele>
        <time>2022-10-06T10:42:04Z</time>
      </trkpt>
      <trkpt lat="44.77042" lon="-0.09626">
        <ele>96.6</ele>
        <time>2022-10-06T10:42:05Z</time>
      </trkpt>
      <trkpt lat="44.77043" lon="-0.09625">
        <ele>96.6</ele>
        <time>2022-10-06T10:42:06Z</time>
      </trkpt>
      <trkpt lat="44.77044" lon="-0.09625">
        <ele>96.5</ele>
        <time>2022-10-06T10:42:07Z</time>
      </trkpt>
      <trkpt lat="44.77046" lon="-0.09624">
        <ele>96.5</ele>
        <time>2022-10-06T10:42:08Z</time>
      </trkpt>
      <trkpt lat="44.77047" lon="-0.09623">
        <ele>96.5</ele>
        <time>2022-10-06T10:42:09Z</time>
      </trkpt>
      <trkpt lat="44.77048" lon="-0.09623">
        <ele>96.5</ele>
        <time>2022-10-06T10:42:10Z</time>
      </trkpt>
      <trkpt lat="44.77049" lon="-0.09622">
        <ele>96.5</ele>
        <time>2022-10-06T10:42:11Z</time>
      </trkpt>
      <trkpt lat="44.7705" lon="-0.09622">
        <ele>96.5</ele>
        <time>2022-10-06T10:42:12Z</time>
      </trkpt>
      <trkpt lat="44.77053" lon="-0.09621">
        <ele>96.4</ele>
        <time>2022-10-06T10:42:13Z</time>
      </trkpt>
      <trkpt lat="44.77053" lon="-0.09621">
        <ele>96.4</ele>
        <time>2022-10-06T10:42:14Z</time>
      </trkpt>
      <trkpt lat="44.77054" lon="-0.0962">
        <ele>96.3</ele>
        <time>2022-10-06T10:42:15Z</time>
      </trkpt>
      <trkpt lat="44.77055" lon="-0.09619">
        <ele>96.3</ele>
        <time>2022-10-06T10:42:16Z</time>
      </trkpt>
      <trkpt lat="44.77057" lon="-0.09618">
        <ele>96.3</ele>
        <time>2022-10-06T10:42:17Z</time>
      </trkpt>
      <trkpt lat="44.77058" lon="-0.09617">
        <ele>96.3</ele>
        <time>2022-10-06T10:42:18Z</time>
      </trkpt>
      <trkpt lat="44.77059" lon="-0.09616">
        <ele>96.3</ele>
        <time>2022-10-06T10:42:19Z</time>
      </trkpt>
      <trkpt lat="44.7706" lon="-0.09615">
        <ele>96.3</ele>
        <time>2022-10-06T10:42:20Z</time>
      </trkpt>
      <trkpt lat="44.77061" lon="-0.09614">
        <ele>96.3</ele>
        <time>2022-10-06T10:42:21Z</time>
      </trkpt>
      <trkpt lat="44.77062" lon="-0.09613">
        <ele>96.3</ele>
        <time>2022-10-06T10:42:22Z</time>
      </trkpt>
      <trkpt lat="44.77064" lon="-0.09612">
        <ele>96.2</ele>
        <time>2022-10-06T10:42:23Z</time>
      </trkpt>
      <trkpt lat="44.77065" lon="-0.09612">
        <ele>96.2</ele>
        <time>2022-10-06T10:42:24Z</time>
      </trkpt>
      <trkpt lat="44.77066" lon="-0.09612">
        <ele>96.2</ele>
        <time>2022-10-06T10:42:25Z</time>
      </trkpt>
      <trkpt lat="44.77067" lon="-0.09611">
        <ele>96.2</ele>
        <time>2022-10-06T10:42:26Z</time>
      </trkpt>
      <trkpt lat="44.77069" lon="-0.09609">
        <ele>96.1</ele>
        <time>2022-10-06T10:42:27Z</time>
      </trkpt>
      <trkpt lat="44.7707" lon="-0.09609">
        <ele>96.2</ele>
        <time>2022-10-06T10:42:28Z</time>
      </trkpt>
      <trkpt lat="44.77071" lon="-0.09608">
        <ele>96.2</ele>
        <time>2022-10-06T10:42:29Z</time>
      </trkpt>
      <trkpt lat="44.77072" lon="-0.09607">
        <ele>96.1</ele>
        <time>2022-10-06T10:42:30Z</time>
      </trkpt>
      <trkpt lat="44.77073" lon="-0.09606">
        <ele>96.1</ele>
        <time>2022-10-06T10:42:31Z</time>
      </trkpt>
      <trkpt lat="44.77074" lon="-0.09606">
        <ele>96.1</ele>
        <time>2022-10-06T10:42:32Z</time>
      </trkpt>
      <trkpt lat="44.77076" lon="-0.09604">
        <ele>96.1</ele>
        <time>2022-10-06T10:42:33Z</time>
      </trkpt>
      <trkpt lat="44.77077" lon="-0.09604">
        <ele>96.1</ele>
        <time>2022-10-06T10:42:34Z</time>
      </trkpt>
      <trkpt lat="44.77078" lon="-0.09603">
        <ele>96</ele>
        <time>2022-10-06T10:42:35Z</time>
      </trkpt>
      <trkpt lat="44.77079" lon="-0.09603">
        <ele>96</ele>
        <time>2022-10-06T10:42:36Z</time>
      </trkpt>
      <trkpt lat="44.7708" lon="-0.09602">
        <ele>96</ele>
        <time>2022-10-06T10:42:37Z</time>
      </trkpt>
      <trkpt lat="44.77081" lon="-0.09601">
        <ele>96</ele>
        <time>2022-10-06T10:42:38Z</time>
      </trkpt>
      <trkpt lat="44.77082" lon="-0.09601">
        <ele>96</ele>
        <time>2022-10-06T10:42:39Z</time>
      </trkpt>
      <trkpt lat="44.77083" lon="-0.096">
        <ele>96</ele>
        <time>2022-10-06T10:42:40Z</time>
      </trkpt>
      <trkpt lat="44.77085" lon="-0.09599">
        <ele>96</ele>
        <time>2022-10-06T10:42:41Z</time>
      </trkpt>
      <trkpt lat="44.77086" lon="-0.09599">
        <ele>96</ele>
        <time>2022-10-06T10:42:42Z</time>
      </trkpt>
      <trkpt lat="44.77087" lon="-0.09598">
        <ele>96</ele>
        <time>2022-10-06T10:42:43Z</time>
      </trkpt>
      <trkpt lat="44.77087" lon="-0.09598">
        <ele>95.9</ele>
        <time>2022-10-06T10:42:44Z</time>
      </trkpt>
      <trkpt lat="44.77088" lon="-0.09597">
        <ele>95.9</ele>
        <time>2022-10-06T10:42:45Z</time>
      </trkpt>
      <trkpt lat="44.77089" lon="-0.09596">
        <ele>95.9</ele>
        <time>2022-10-06T10:42:46Z</time>
      </trkpt>
      <trkpt lat="44.7709" lon="-0.09596">
        <ele>95.9</ele>
        <time>2022-10-06T10:42:47Z</time>
      </trkpt>
      <trkpt lat="44.77092" lon="-0.09594">
        <ele>95.9</ele>
        <time>2022-10-06T10:42:48Z</time>
      </trkpt>
      <trkpt lat="44.77093" lon="-0.09594">
        <ele>95.9</ele>
        <time>2022-10-06T10:42:49Z</time>
      </trkpt>
      <trkpt lat="44.77094" lon="-0.09593">
        <ele>95.8</ele>
        <time>2022-10-06T10:42:50Z</time>
      </trkpt>
      <trkpt lat="44.77095" lon="-0.09592">
        <ele>95.8</ele>
        <time>2022-10-06T10:42:51Z</time>
      </trkpt>
      <trkpt lat="44.77096" lon="-0.09592">
        <ele>95.8</ele>
        <time>2022-10-06T10:42:52Z</time>
      </trkpt>
      <trkpt lat="44.77097" lon="-0.09591">
        <ele>95.8</ele>
        <time>2022-10-06T10:42:53Z</time>
      </trkpt>
      <trkpt lat="44.771" lon="-0.0959">
        <ele>95.7</ele>
        <time>2022-10-06T10:42:54Z</time>
      </trkpt>
      <trkpt lat="44.771" lon="-0.09589">
        <ele>95.7</ele>
        <time>2022-10-06T10:42:55Z</time>
      </trkpt>
      <trkpt lat="44.77101" lon="-0.09589">
        <ele>95.7</ele>
        <time>2022-10-06T10:42:56Z</time>
      </trkpt>
      <trkpt lat="44.77102" lon="-0.09588">
        <ele>95.7</ele>
        <time>2022-10-06T10:42:57Z</time>
      </trkpt>
      <trkpt lat="44.77104" lon="-0.09587">
        <ele>95.7</ele>
        <time>2022-10-06T10:42:58Z</time>
      </trkpt>
      <trkpt lat="44.77104" lon="-0.09586">
        <ele>95.7</ele>
        <time>2022-10-06T10:42:59Z</time>
      </trkpt>
      <trkpt lat="44.77105" lon="-0.09586">
        <ele>95.7</ele>
        <time>2022-10-06T10:43:00Z</time>
      </trkpt>
      <trkpt lat="44.77106" lon="-0.09585">
        <ele>95.6</ele>
        <time>2022-10-06T10:43:01Z</time>
      </trkpt>
      <trkpt lat="44.77107" lon="-0.09585">
        <ele>95.6</ele>
        <time>2022-10-06T10:43:02Z</time>
      </trkpt>
      <trkpt lat="44.77108" lon="-0.09584">
        <ele>95.6</ele>
        <time>2022-10-06T10:43:03Z</time>
      </trkpt>
      <trkpt lat="44.77109" lon="-0.09583">
        <ele>95.6</ele>
        <time>2022-10-06T10:43:04Z</time>
      </trkpt>
      <trkpt lat="44.7711" lon="-0.09583">
        <ele>95.6</ele>
        <time>2022-10-06T10:43:05Z</time>
      </trkpt>
      <trkpt lat="44.77113" lon="-0.09582">
        <ele>95.5</ele>
        <time>2022-10-06T10:43:06Z</time>
      </trkpt>
      <trkpt lat="44.77113" lon="-0.09581">
        <ele>95.5</ele>
        <time>2022-10-06T10:43:07Z</time>
      </trkpt>
      <trkpt lat="44.77115" lon="-0.0958">
        <ele>95.5</ele>
        <time>2022-10-06T10:43:08Z</time>
      </trkpt>
      <trkpt lat="44.77115" lon="-0.0958">
        <ele>95.5</ele>
        <time>2022-10-06T10:43:09Z</time>
      </trkpt>
      <trkpt lat="44.77116" lon="-0.09579">
        <ele>95.5</ele>
        <time>2022-10-06T10:43:10Z</time>
      </trkpt>
      <trkpt lat="44.77117" lon="-0.09579">
        <ele>95.5</ele>
        <time>2022-10-06T10:43:11Z</time>
      </trkpt>
      <trkpt lat="44.77118" lon="-0.09578">
        <ele>95.4</ele>
        <time>2022-10-06T10:43:12Z</time>
      </trkpt>
      <trkpt lat="44.7712" lon="-0.09577">
        <ele>95.4</ele>
        <time>2022-10-06T10:43:13Z</time>
      </trkpt>
      <trkpt lat="44.77121" lon="-0.09576">
        <ele>95.4</ele>
        <time>2022-10-06T10:43:14Z</time>
      </trkpt>
      <trkpt lat="44.77122" lon="-0.09576">
        <ele>95.4</ele>
        <time>2022-10-06T10:43:15Z</time>
      </trkpt>
      <trkpt lat="44.77123" lon="-0.09575">
        <ele>95.4</ele>
        <time>2022-10-06T10:43:16Z</time>
      </trkpt>
      <trkpt lat="44.77124" lon="-0.09575">
        <ele>95.3</ele>
        <time>2022-10-06T10:43:17Z</time>
      </trkpt>
      <trkpt lat="44.77126" lon="-0.09574">
        <ele>95.3</ele>
        <time>2022-10-06T10:43:18Z</time>
      </trkpt>
      <trkpt lat="44.77126" lon="-0.09573">
        <ele>95.3</ele>
        <time>2022-10-06T10:43:19Z</time>
      </trkpt>
      <trkpt lat="44.77127" lon="-0.09573">
        <ele>95.3</ele>
        <time>2022-10-06T10:43:20Z</time>
      </trkpt>
      <trkpt lat="44.77128" lon="-0.09572">
        <ele>95.3</ele>
        <time>2022-10-06T10:43:21Z</time>
      </trkpt>
      <trkpt lat="44.77129" lon="-0.09571">
        <ele>95.3</ele>
        <time>2022-10-06T10:43:22Z</time>
      </trkpt>
      <trkpt lat="44.77131" lon="-0.0957">
        <ele>95.2</ele>
        <time>2022-10-06T10:43:23Z</time>
      </trkpt>
      <trkpt lat="44.77132" lon="-0.0957">
        <ele>95.2</ele>
        <time>2022-10-06T10:43:24Z</time>
      </trkpt>
      <trkpt lat="44.77133" lon="-0.09569">
        <ele>95.1</ele>
        <time>2022-10-06T10:43:25Z</time>
      </trkpt>
      <trkpt lat="44.77134" lon="-0.09569">
        <ele>95.1</ele>
        <time>2022-10-06T10:43:26Z</time>
      </trkpt>
      <trkpt lat="44.77136" lon="-0.09568">
        <ele>95.1</ele>
        <time>2022-10-06T10:43:27Z</time>
      </trkpt>
      <trkpt lat="44.77137" lon="-0.09567">
        <ele>95.1</ele>
        <time>2022-10-06T10:43:28Z</time>
      </trkpt>
      <trkpt lat="44.77138" lon="-0.09567">
        <ele>95.1</ele>
        <time>2022-10-06T10:43:29Z</time>
      </trkpt>
      <trkpt lat="44.77139" lon="-0.09569">
        <ele>95</ele>
        <time>2022-10-06T10:43:30Z</time>
      </trkpt>
      <trkpt lat="44.7714" lon="-0.0957">
        <ele>95</ele>
        <time>2022-10-06T10:43:31Z</time>
      </trkpt>
      <trkpt lat="44.7714" lon="-0.0957">
        <ele>95</ele>
        <time>2022-10-06T10:43:32Z</time>
      </trkpt>
      <trkpt lat="44.77141" lon="-0.09571">
        <ele>95</ele>
        <time>2022-10-06T10:43:33Z</time>
      </trkpt>
      <trkpt lat="44.77142" lon="-0.09572">
        <ele>95</ele>
        <time>2022-10-06T10:43:34Z</time>
      </trkpt>
      <trkpt lat="44.77142" lon="-0.09571">
        <ele>94.9</ele>
        <time>2022-10-06T10:43:35Z</time>
      </trkpt>
      <trkpt lat="44.77143" lon="-0.0957">
        <ele>94.9</ele>
        <time>2022-10-06T10:43:36Z</time>
      </trkpt>
      <trkpt lat="44.77144" lon="-0.09569">
        <ele>94.9</ele>
        <time>2022-10-06T10:43:37Z</time>
      </trkpt>
      <trkpt lat="44.77145" lon="-0.09568">
        <ele>94.9</ele>
        <time>2022-10-06T10:43:38Z</time>
      </trkpt>
      <trkpt lat="44.77145" lon="-0.09567">
        <ele>94.9</ele>
        <time>2022-10-06T10:43:39Z</time>
      </trkpt>
      <trkpt lat="44.77146" lon="-0.09566">
        <ele>94.9</ele>
        <time>2022-10-06T10:43:40Z</time>
      </trkpt>
      <trkpt lat="44.77148" lon="-0.09565">
        <ele>94.9</ele>
        <time>2022-10-06T10:43:41Z</time>
      </trkpt>
      <trkpt lat="44.77149" lon="-0.09564">
        <ele>94.9</ele>
        <time>2022-10-06T10:43:42Z</time>
      </trkpt>
      <trkpt lat="44.77149" lon="-0.09564">
        <ele>94.9</ele>
        <time>2022-10-06T10:43:43Z</time>
      </trkpt>
      <trkpt lat="44.7715" lon="-0.09563">
        <ele>94.9</ele>
        <time>2022-10-06T10:43:44Z</time>
      </trkpt>
      <trkpt lat="44.77151" lon="-0.09563">
        <ele>94.8</ele>
        <time>2022-10-06T10:43:45Z</time>
      </trkpt>
      <trkpt lat="44.77152" lon="-0.09562">
        <ele>94.8</ele>
        <time>2022-10-06T10:43:46Z</time>
      </trkpt>
      <trkpt lat="44.77154" lon="-0.09561">
        <ele>94.8</ele>
        <time>2022-10-06T10:43:47Z</time>
      </trkpt>
      <trkpt lat="44.77155" lon="-0.0956">
        <ele>94.8</ele>
        <time>2022-10-06T10:43:48Z</time>
      </trkpt>
      <trkpt lat="44.77155" lon="-0.0956">
        <ele>94.8</ele>
        <time>2022-10-06T10:43:49Z</time>
      </trkpt>
      <trkpt lat="44.77156" lon="-0.09559">
        <ele>94.8</ele>
        <time>2022-10-06T10:43:50Z</time>
      </trkpt>
      <trkpt lat="44.77157" lon="-0.09558">
        <ele>94.7</ele>
        <time>2022-10-06T10:43:51Z</time>
      </trkpt>
      <trkpt lat="44.77158" lon="-0.09557">
        <ele>94.8</ele>
        <time>2022-10-06T10:43:52Z</time>
      </trkpt>
      <trkpt lat="44.7716" lon="-0.09556">
        <ele>94.7</ele>
        <time>2022-10-06T10:43:53Z</time>
      </trkpt>
      <trkpt lat="44.77161" lon="-0.09555">
        <ele>94.7</ele>
        <time>2022-10-06T10:43:54Z</time>
      </trkpt>
      <trkpt lat="44.77162" lon="-0.09554">
        <ele>94.7</ele>
        <time>2022-10-06T10:43:55Z</time>
      </trkpt>
      <trkpt lat="44.77163" lon="-0.09554">
        <ele>94.7</ele>
        <time>2022-10-06T10:43:56Z</time>
      </trkpt>
      <trkpt lat="44.77164" lon="-0.09553">
        <ele>94.7</ele>
        <time>2022-10-06T10:43:57Z</time>
      </trkpt>
      <trkpt lat="44.77166" lon="-0.09551">
        <ele>94.7</ele>
        <time>2022-10-06T10:43:58Z</time>
      </trkpt>
      <trkpt lat="44.77166" lon="-0.09551">
        <ele>94.6</ele>
        <time>2022-10-06T10:43:59Z</time>
      </trkpt>
      <trkpt lat="44.77167" lon="-0.0955">
        <ele>94.6</ele>
        <time>2022-10-06T10:44:00Z</time>
      </trkpt>
      <trkpt lat="44.77169" lon="-0.09549">
        <ele>94.6</ele>
        <time>2022-10-06T10:44:01Z</time>
      </trkpt>
      <trkpt lat="44.77169" lon="-0.09548">
        <ele>94.6</ele>
        <time>2022-10-06T10:44:02Z</time>
      </trkpt>
      <trkpt lat="44.7717" lon="-0.09548">
        <ele>94.6</ele>
        <time>2022-10-06T10:44:03Z</time>
      </trkpt>
      <trkpt lat="44.77171" lon="-0.09547">
        <ele>94.6</ele>
        <time>2022-10-06T10:44:04Z</time>
      </trkpt>
      <trkpt lat="44.77172" lon="-0.09546">
        <ele>94.6</ele>
        <time>2022-10-06T10:44:05Z</time>
      </trkpt>
      <trkpt lat="44.77173" lon="-0.09545">
        <ele>94.6</ele>
        <time>2022-10-06T10:44:06Z</time>
      </trkpt>
      <trkpt lat="44.77174" lon="-0.09545">
        <ele>94.6</ele>
        <time>2022-10-06T10:44:07Z</time>
      </trkpt>
      <trkpt lat="44.77176" lon="-0.09544">
        <ele>94.6</ele>
        <time>2022-10-06T10:44:08Z</time>
      </trkpt>
      <trkpt lat="44.77177" lon="-0.09543">
        <ele>94.6</ele>
        <time>2022-10-06T10:44:09Z</time>
      </trkpt>
      <trkpt lat="44.77178" lon="-0.09543">
        <ele>94.6</ele>
        <time>2022-10-06T10:44:10Z</time>
      </trkpt>
      <trkpt lat="44.77179" lon="-0.09542">
        <ele>94.5</ele>
        <time>2022-10-06T10:44:11Z</time>
      </trkpt>
      <trkpt lat="44.77179" lon="-0.09541">
        <ele>94.5</ele>
        <time>2022-10-06T10:44:12Z</time>
      </trkpt>
      <trkpt lat="44.77181" lon="-0.09541">
        <ele>94.5</ele>
        <time>2022-10-06T10:44:13Z</time>
      </trkpt>
      <trkpt lat="44.77181" lon="-0.0954">
        <ele>94.5</ele>
        <time>2022-10-06T10:44:14Z</time>
      </trkpt>
      <trkpt lat="44.77182" lon="-0.09539">
        <ele>94.6</ele>
        <time>2022-10-06T10:44:15Z</time>
      </trkpt>
      <trkpt lat="44.77184" lon="-0.09537">
        <ele>94.6</ele>
        <time>2022-10-06T10:44:16Z</time>
      </trkpt>
      <trkpt lat="44.77184" lon="-0.09536">
        <ele>94.5</ele>
        <time>2022-10-06T10:44:17Z</time>
      </trkpt>
      <trkpt lat="44.77185" lon="-0.09535">
        <ele>94.6</ele>
        <time>2022-10-06T10:44:18Z</time>
      </trkpt>
      <trkpt lat="44.77186" lon="-0.09534">
        <ele>94.6</ele>
        <time>2022-10-06T10:44:19Z</time>
      </trkpt>
      <trkpt lat="44.77187" lon="-0.09534">
        <ele>94.6</ele>
        <time>2022-10-06T10:44:20Z</time>
      </trkpt>
      <trkpt lat="44.77188" lon="-0.09533">
        <ele>94.5</ele>
        <time>2022-10-06T10:44:21Z</time>
      </trkpt>
      <trkpt lat="44.77188" lon="-0.09533">
        <ele>94.5</ele>
        <time>2022-10-06T10:44:22Z</time>
      </trkpt>
      <trkpt lat="44.7719" lon="-0.09532">
        <ele>94.5</ele>
        <time>2022-10-06T10:44:23Z</time>
      </trkpt>
      <trkpt lat="44.77191" lon="-0.09531">
        <ele>94.5</ele>
        <time>2022-10-06T10:44:24Z</time>
      </trkpt>
      <trkpt lat="44.77191" lon="-0.0953">
        <ele>94.5</ele>
        <time>2022-10-06T10:44:25Z</time>
      </trkpt>
      <trkpt lat="44.77193" lon="-0.09529">
        <ele>94.5</ele>
        <time>2022-10-06T10:44:26Z</time>
      </trkpt>
      <trkpt lat="44.77194" lon="-0.09528">
        <ele>94.5</ele>
        <time>2022-10-06T10:44:27Z</time>
      </trkpt>
      <trkpt lat="44.77195" lon="-0.09527">
        <ele>94.6</ele>
        <time>2022-10-06T10:44:28Z</time>
      </trkpt>
      <trkpt lat="44.77195" lon="-0.09527">
        <ele>94.6</ele>
        <time>2022-10-06T10:44:29Z</time>
      </trkpt>
      <trkpt lat="44.77196" lon="-0.09526">
        <ele>94.6</ele>
        <time>2022-10-06T10:44:30Z</time>
      </trkpt>
      <trkpt lat="44.77198" lon="-0.09525">
        <ele>94.5</ele>
        <time>2022-10-06T10:44:31Z</time>
      </trkpt>
      <trkpt lat="44.77199" lon="-0.09525">
        <ele>94.5</ele>
        <time>2022-10-06T10:44:32Z</time>
      </trkpt>
      <trkpt lat="44.77201" lon="-0.09524">
        <ele>94.5</ele>
        <time>2022-10-06T10:44:33Z</time>
      </trkpt>
      <trkpt lat="44.77201" lon="-0.09523">
        <ele>94.5</ele>
        <time>2022-10-06T10:44:34Z</time>
      </trkpt>
      <trkpt lat="44.77202" lon="-0.09523">
        <ele>94.5</ele>
        <time>2022-10-06T10:44:35Z</time>
      </trkpt>
      <trkpt lat="44.77203" lon="-0.09522">
        <ele>94.5</ele>
        <time>2022-10-06T10:44:36Z</time>
      </trkpt>
      <trkpt lat="44.77205" lon="-0.0952">
        <ele>94.5</ele>
        <time>2022-10-06T10:44:37Z</time>
      </trkpt>
      <trkpt lat="44.77206" lon="-0.0952">
        <ele>94.5</ele>
        <time>2022-10-06T10:44:38Z</time>
      </trkpt>
      <trkpt lat="44.77207" lon="-0.09519">
        <ele>94.5</ele>
        <time>2022-10-06T10:44:39Z</time>
      </trkpt>
      <trkpt lat="44.77208" lon="-0.09518">
        <ele>94.5</ele>
        <time>2022-10-06T10:44:40Z</time>
      </trkpt>
      <trkpt lat="44.77209" lon="-0.09518">
        <ele>94.5</ele>
        <time>2022-10-06T10:44:41Z</time>
      </trkpt>
      <trkpt lat="44.7721" lon="-0.09517">
        <ele>94.5</ele>
        <time>2022-10-06T10:44:42Z</time>
      </trkpt>
      <trkpt lat="44.77211" lon="-0.09516">
        <ele>94.5</ele>
        <time>2022-10-06T10:44:43Z</time>
      </trkpt>
      <trkpt lat="44.77212" lon="-0.09516">
        <ele>94.5</ele>
        <time>2022-10-06T10:44:44Z</time>
      </trkpt>
      <trkpt lat="44.77213" lon="-0.09516">
        <ele>94.5</ele>
        <time>2022-10-06T10:44:45Z</time>
      </trkpt>
      <trkpt lat="44.77214" lon="-0.09517">
        <ele>94.5</ele>
        <time>2022-10-06T10:44:46Z</time>
      </trkpt>
      <trkpt lat="44.77214" lon="-0.09517">
        <ele>94.5</ele>
        <time>2022-10-06T10:44:47Z</time>
      </trkpt>
      <trkpt lat="44.77215" lon="-0.09517">
        <ele>94.5</ele>
        <time>2022-10-06T10:44:48Z</time>
      </trkpt>
      <trkpt lat="44.77215" lon="-0.09517">
        <ele>94.5</ele>
        <time>2022-10-06T10:44:49Z</time>
      </trkpt>
      <trkpt lat="44.77215" lon="-0.09518">
        <ele>94.5</ele>
        <time>2022-10-06T10:44:50Z</time>
      </trkpt>
      <trkpt lat="44.77215" lon="-0.09517">
        <ele>94.5</ele>
        <time>2022-10-06T10:44:51Z</time>
      </trkpt>
      <trkpt lat="44.77214" lon="-0.09517">
        <ele>94.5</ele>
        <time>2022-10-06T10:44:52Z</time>
      </trkpt>
      <trkpt lat="44.77214" lon="-0.09516">
        <ele>94.5</ele>
        <time>2022-10-06T10:44:53Z</time>
      </trkpt>
      <trkpt lat="44.77215" lon="-0.09514">
        <ele>94.5</ele>
        <time>2022-10-06T10:44:54Z</time>
      </trkpt>
      <trkpt lat="44.77215" lon="-0.09514">
        <ele>94.5</ele>
        <time>2022-10-06T10:44:55Z</time>
      </trkpt>
      <trkpt lat="44.77216" lon="-0.09513">
        <ele>94.5</ele>
        <time>2022-10-06T10:44:56Z</time>
      </trkpt>
      <trkpt lat="44.77217" lon="-0.09513">
        <ele>94.5</ele>
        <time>2022-10-06T10:44:57Z</time>
      </trkpt>
      <trkpt lat="44.77218" lon="-0.09512">
        <ele>94.5</ele>
        <time>2022-10-06T10:44:58Z</time>
      </trkpt>
      <trkpt lat="44.7722" lon="-0.09511">
        <ele>94.5</ele>
        <time>2022-10-06T10:44:59Z</time>
      </trkpt>
      <trkpt lat="44.7722" lon="-0.09511">
        <ele>94.5</ele>
        <time>2022-10-06T10:45:00Z</time>
      </trkpt>
      <trkpt lat="44.77221" lon="-0.0951">
        <ele>94.5</ele>
        <time>2022-10-06T10:45:01Z</time>
      </trkpt>
      <trkpt lat="44.77222" lon="-0.0951">
        <ele>94.5</ele>
        <time>2022-10-06T10:45:02Z</time>
      </trkpt>
      <trkpt lat="44.77223" lon="-0.09509">
        <ele>94.5</ele>
        <time>2022-10-06T10:45:03Z</time>
      </trkpt>
      <trkpt lat="44.77225" lon="-0.09508">
        <ele>94.5</ele>
        <time>2022-10-06T10:45:04Z</time>
      </trkpt>
      <trkpt lat="44.77226" lon="-0.09507">
        <ele>94.5</ele>
        <time>2022-10-06T10:45:05Z</time>
      </trkpt>
      <trkpt lat="44.77227" lon="-0.09507">
        <ele>94.5</ele>
        <time>2022-10-06T10:45:06Z</time>
      </trkpt>
      <trkpt lat="44.77228" lon="-0.09506">
        <ele>94.5</ele>
        <time>2022-10-06T10:45:07Z</time>
      </trkpt>
      <trkpt lat="44.77228" lon="-0.09506">
        <ele>94.5</ele>
        <time>2022-10-06T10:45:08Z</time>
      </trkpt>
      <trkpt lat="44.77231" lon="-0.09504">
        <ele>94.5</ele>
        <time>2022-10-06T10:45:09Z</time>
      </trkpt>
      <trkpt lat="44.77231" lon="-0.09504">
        <ele>94.5</ele>
        <time>2022-10-06T10:45:10Z</time>
      </trkpt>
      <trkpt lat="44.77232" lon="-0.09504">
        <ele>94.5</ele>
        <time>2022-10-06T10:45:11Z</time>
      </trkpt>
      <trkpt lat="44.77233" lon="-0.09503">
        <ele>94.5</ele>
        <time>2022-10-06T10:45:12Z</time>
      </trkpt>
      <trkpt lat="44.77234" lon="-0.09503">
        <ele>94.5</ele>
        <time>2022-10-06T10:45:13Z</time>
      </trkpt>
      <trkpt lat="44.77235" lon="-0.09502">
        <ele>94.5</ele>
        <time>2022-10-06T10:45:14Z</time>
      </trkpt>
      <trkpt lat="44.77236" lon="-0.09502">
        <ele>94.5</ele>
        <time>2022-10-06T10:45:15Z</time>
      </trkpt>
      <trkpt lat="44.77237" lon="-0.09501">
        <ele>94.6</ele>
        <time>2022-10-06T10:45:16Z</time>
      </trkpt>
      <trkpt lat="44.77238" lon="-0.09501">
        <ele>94.6</ele>
        <time>2022-10-06T10:45:17Z</time>
      </trkpt>
      <trkpt lat="44.77239" lon="-0.095">
        <ele>94.6</ele>
        <time>2022-10-06T10:45:18Z</time>
      </trkpt>
      <trkpt lat="44.7724" lon="-0.09499">
        <ele>94.6</ele>
        <time>2022-10-06T10:45:19Z</time>
      </trkpt>
      <trkpt lat="44.77241" lon="-0.09498">
        <ele>94.6</ele>
        <time>2022-10-06T10:45:20Z</time>
      </trkpt>
      <trkpt lat="44.77242" lon="-0.09498">
        <ele>94.6</ele>
        <time>2022-10-06T10:45:21Z</time>
      </trkpt>
      <trkpt lat="44.77243" lon="-0.09497">
        <ele>94.6</ele>
        <time>2022-10-06T10:45:22Z</time>
      </trkpt>
      <trkpt lat="44.77244" lon="-0.09496">
        <ele>94.6</ele>
        <time>2022-10-06T10:45:23Z</time>
      </trkpt>
      <trkpt lat="44.77246" lon="-0.09495">
        <ele>94.6</ele>
        <time>2022-10-06T10:45:24Z</time>
      </trkpt>
      <trkpt lat="44.77246" lon="-0.09495">
        <ele>94.6</ele>
        <time>2022-10-06T10:45:25Z</time>
      </trkpt>
      <trkpt lat="44.77247" lon="-0.09494">
        <ele>94.6</ele>
        <time>2022-10-06T10:45:26Z</time>
      </trkpt>
      <trkpt lat="44.77248" lon="-0.09494">
        <ele>94.6</ele>
        <time>2022-10-06T10:45:27Z</time>
      </trkpt>
      <trkpt lat="44.77249" lon="-0.09494">
        <ele>94.7</ele>
        <time>2022-10-06T10:45:28Z</time>
      </trkpt>
      <trkpt lat="44.7725" lon="-0.09493">
        <ele>94.7</ele>
        <time>2022-10-06T10:45:29Z</time>
      </trkpt>
      <trkpt lat="44.77251" lon="-0.09492">
        <ele>94.7</ele>
        <time>2022-10-06T10:45:30Z</time>
      </trkpt>
      <trkpt lat="44.77252" lon="-0.09491">
        <ele>94.7</ele>
        <time>2022-10-06T10:45:31Z</time>
      </trkpt>
      <trkpt lat="44.77254" lon="-0.09489">
        <ele>94.7</ele>
        <time>2022-10-06T10:45:32Z</time>
      </trkpt>
      <trkpt lat="44.77255" lon="-0.09488">
        <ele>94.8</ele>
        <time>2022-10-06T10:45:33Z</time>
      </trkpt>
      <trkpt lat="44.77256" lon="-0.09488">
        <ele>94.8</ele>
        <time>2022-10-06T10:45:34Z</time>
      </trkpt>
      <trkpt lat="44.77257" lon="-0.09487">
        <ele>94.8</ele>
        <time>2022-10-06T10:45:35Z</time>
      </trkpt>
      <trkpt lat="44.77257" lon="-0.09487">
        <ele>94.8</ele>
        <time>2022-10-06T10:45:36Z</time>
      </trkpt>
      <trkpt lat="44.77258" lon="-0.09486">
        <ele>94.8</ele>
        <time>2022-10-06T10:45:37Z</time>
      </trkpt>
      <trkpt lat="44.7726" lon="-0.09485">
        <ele>94.8</ele>
        <time>2022-10-06T10:45:38Z</time>
      </trkpt>
      <trkpt lat="44.77261" lon="-0.09483">
        <ele>94.9</ele>
        <time>2022-10-06T10:45:39Z</time>
      </trkpt>
      <trkpt lat="44.77262" lon="-0.09483">
        <ele>94.9</ele>
        <time>2022-10-06T10:45:40Z</time>
      </trkpt>
      <trkpt lat="44.77263" lon="-0.09482">
        <ele>94.9</ele>
        <time>2022-10-06T10:45:41Z</time>
      </trkpt>
      <trkpt lat="44.77264" lon="-0.09482">
        <ele>95</ele>
        <time>2022-10-06T10:45:42Z</time>
      </trkpt>
      <trkpt lat="44.77265" lon="-0.09481">
        <ele>95</ele>
        <time>2022-10-06T10:45:43Z</time>
      </trkpt>
      <trkpt lat="44.77267" lon="-0.0948">
        <ele>95</ele>
        <time>2022-10-06T10:45:44Z</time>
      </trkpt>
      <trkpt lat="44.77268" lon="-0.09479">
        <ele>95.1</ele>
        <time>2022-10-06T10:45:45Z</time>
      </trkpt>
      <trkpt lat="44.77269" lon="-0.09479">
        <ele>95.1</ele>
        <time>2022-10-06T10:45:46Z</time>
      </trkpt>
      <trkpt lat="44.7727" lon="-0.09478">
        <ele>95.1</ele>
        <time>2022-10-06T10:45:47Z</time>
      </trkpt>
      <trkpt lat="44.77271" lon="-0.09478">
        <ele>95.1</ele>
        <time>2022-10-06T10:45:48Z</time>
      </trkpt>
      <trkpt lat="44.77272" lon="-0.09477">
        <ele>95.1</ele>
        <time>2022-10-06T10:45:49Z</time>
      </trkpt>
      <trkpt lat="44.77273" lon="-0.09476">
        <ele>95.1</ele>
        <time>2022-10-06T10:45:50Z</time>
      </trkpt>
      <trkpt lat="44.77274" lon="-0.09475">
        <ele>95.2</ele>
        <time>2022-10-06T10:45:51Z</time>
      </trkpt>
      <trkpt lat="44.77275" lon="-0.09475">
        <ele>95.2</ele>
        <time>2022-10-06T10:45:52Z</time>
      </trkpt>
      <trkpt lat="44.77277" lon="-0.09474">
        <ele>95.2</ele>
        <time>2022-10-06T10:45:53Z</time>
      </trkpt>
      <trkpt lat="44.77278" lon="-0.09473">
        <ele>95.2</ele>
        <time>2022-10-06T10:45:54Z</time>
      </trkpt>
      <trkpt lat="44.77279" lon="-0.09473">
        <ele>95.2</ele>
        <time>2022-10-06T10:45:55Z</time>
      </trkpt>
      <trkpt lat="44.7728" lon="-0.09472">
        <ele>95.2</ele>
        <time>2022-10-06T10:45:56Z</time>
      </trkpt>
      <trkpt lat="44.77281" lon="-0.09472">
        <ele>95.2</ele>
        <time>2022-10-06T10:45:57Z</time>
      </trkpt>
      <trkpt lat="44.77282" lon="-0.09471">
        <ele>95.3</ele>
        <time>2022-10-06T10:45:58Z</time>
      </trkpt>
      <trkpt lat="44.77285" lon="-0.0947">
        <ele>95.3</ele>
        <time>2022-10-06T10:45:59Z</time>
      </trkpt>
      <trkpt lat="44.77285" lon="-0.09469">
        <ele>95.3</ele>
        <time>2022-10-06T10:46:00Z</time>
      </trkpt>
      <trkpt lat="44.77286" lon="-0.09469">
        <ele>95.3</ele>
        <time>2022-10-06T10:46:01Z</time>
      </trkpt>
      <trkpt lat="44.77288" lon="-0.09468">
        <ele>95.3</ele>
        <time>2022-10-06T10:46:02Z</time>
      </trkpt>
      <trkpt lat="44.77289" lon="-0.09467">
        <ele>95.3</ele>
        <time>2022-10-06T10:46:03Z</time>
      </trkpt>
      <trkpt lat="44.7729" lon="-0.09467">
        <ele>95.4</ele>
        <time>2022-10-06T10:46:04Z</time>
      </trkpt>
      <trkpt lat="44.77291" lon="-0.09467">
        <ele>95.4</ele>
        <time>2022-10-06T10:46:05Z</time>
      </trkpt>
      <trkpt lat="44.77292" lon="-0.09466">
        <ele>95.4</ele>
        <time>2022-10-06T10:46:06Z</time>
      </trkpt>
      <trkpt lat="44.77293" lon="-0.09466">
        <ele>95.4</ele>
        <time>2022-10-06T10:46:07Z</time>
      </trkpt>
      <trkpt lat="44.77294" lon="-0.09465">
        <ele>95.4</ele>
        <time>2022-10-06T10:46:08Z</time>
      </trkpt>
      <trkpt lat="44.77296" lon="-0.09463">
        <ele>95.4</ele>
        <time>2022-10-06T10:46:10Z</time>
      </trkpt>
      <trkpt lat="44.77297" lon="-0.09462">
        <ele>95.4</ele>
        <time>2022-10-06T10:46:11Z</time>
      </trkpt>
      <trkpt lat="44.77298" lon="-0.09461">
        <ele>95.4</ele>
        <time>2022-10-06T10:46:12Z</time>
      </trkpt>
      <trkpt lat="44.77299" lon="-0.09461">
        <ele>95.4</ele>
        <time>2022-10-06T10:46:13Z</time>
      </trkpt>
      <trkpt lat="44.77301" lon="-0.09459">
        <ele>95.4</ele>
        <time>2022-10-06T10:46:14Z</time>
      </trkpt>
      <trkpt lat="44.77302" lon="-0.09459">
        <ele>95.4</ele>
        <time>2022-10-06T10:46:15Z</time>
      </trkpt>
      <trkpt lat="44.77303" lon="-0.09459">
        <ele>95.4</ele>
        <time>2022-10-06T10:46:16Z</time>
      </trkpt>
      <trkpt lat="44.77304" lon="-0.09459">
        <ele>95.4</ele>
        <time>2022-10-06T10:46:17Z</time>
      </trkpt>
      <trkpt lat="44.77304" lon="-0.09458">
        <ele>95.5</ele>
        <time>2022-10-06T10:46:18Z</time>
      </trkpt>
      <trkpt lat="44.77306" lon="-0.09458">
        <ele>95.5</ele>
        <time>2022-10-06T10:46:19Z</time>
      </trkpt>
      <trkpt lat="44.77307" lon="-0.09457">
        <ele>95.5</ele>
        <time>2022-10-06T10:46:20Z</time>
      </trkpt>
      <trkpt lat="44.77307" lon="-0.09457">
        <ele>95.5</ele>
        <time>2022-10-06T10:46:21Z</time>
      </trkpt>
      <trkpt lat="44.77309" lon="-0.09456">
        <ele>95.5</ele>
        <time>2022-10-06T10:46:22Z</time>
      </trkpt>
      <trkpt lat="44.77309" lon="-0.09456">
        <ele>95.5</ele>
        <time>2022-10-06T10:46:23Z</time>
      </trkpt>
      <trkpt lat="44.77311" lon="-0.09455">
        <ele>95.5</ele>
        <time>2022-10-06T10:46:24Z</time>
      </trkpt>
      <trkpt lat="44.77312" lon="-0.09455">
        <ele>95.5</ele>
        <time>2022-10-06T10:46:25Z</time>
      </trkpt>
      <trkpt lat="44.77313" lon="-0.09454">
        <ele>95.5</ele>
        <time>2022-10-06T10:46:26Z</time>
      </trkpt>
      <trkpt lat="44.77314" lon="-0.09454">
        <ele>95.5</ele>
        <time>2022-10-06T10:46:27Z</time>
      </trkpt>
      <trkpt lat="44.77315" lon="-0.09453">
        <ele>95.5</ele>
        <time>2022-10-06T10:46:28Z</time>
      </trkpt>
      <trkpt lat="44.77316" lon="-0.09452">
        <ele>95.5</ele>
        <time>2022-10-06T10:46:29Z</time>
      </trkpt>
      <trkpt lat="44.77317" lon="-0.09452">
        <ele>95.5</ele>
        <time>2022-10-06T10:46:30Z</time>
      </trkpt>
      <trkpt lat="44.77318" lon="-0.09451">
        <ele>95.5</ele>
        <time>2022-10-06T10:46:31Z</time>
      </trkpt>
      <trkpt lat="44.77319" lon="-0.0945">
        <ele>95.4</ele>
        <time>2022-10-06T10:46:32Z</time>
      </trkpt>
      <trkpt lat="44.7732" lon="-0.09449">
        <ele>95.5</ele>
        <time>2022-10-06T10:46:33Z</time>
      </trkpt>
      <trkpt lat="44.77323" lon="-0.09448">
        <ele>95.4</ele>
        <time>2022-10-06T10:46:34Z</time>
      </trkpt>
      <trkpt lat="44.77323" lon="-0.09447">
        <ele>95.4</ele>
        <time>2022-10-06T10:46:35Z</time>
      </trkpt>
      <trkpt lat="44.77324" lon="-0.09447">
        <ele>95.4</ele>
        <time>2022-10-06T10:46:36Z</time>
      </trkpt>
      <trkpt lat="44.77326" lon="-0.09445">
        <ele>95.4</ele>
        <time>2022-10-06T10:46:37Z</time>
      </trkpt>
      <trkpt lat="44.77327" lon="-0.09445">
        <ele>95.4</ele>
        <time>2022-10-06T10:46:38Z</time>
      </trkpt>
      <trkpt lat="44.77327" lon="-0.09445">
        <ele>95.4</ele>
        <time>2022-10-06T10:46:39Z</time>
      </trkpt>
      <trkpt lat="44.77328" lon="-0.09444">
        <ele>95.4</ele>
        <time>2022-10-06T10:46:40Z</time>
      </trkpt>
      <trkpt lat="44.7733" lon="-0.09443">
        <ele>95.4</ele>
        <time>2022-10-06T10:46:41Z</time>
      </trkpt>
      <trkpt lat="44.77331" lon="-0.09443">
        <ele>95.4</ele>
        <time>2022-10-06T10:46:42Z</time>
      </trkpt>
      <trkpt lat="44.77332" lon="-0.09442">
        <ele>95.4</ele>
        <time>2022-10-06T10:46:43Z</time>
      </trkpt>
      <trkpt lat="44.77333" lon="-0.09441">
        <ele>95.4</ele>
        <time>2022-10-06T10:46:44Z</time>
      </trkpt>
      <trkpt lat="44.77334" lon="-0.0944">
        <ele>95.4</ele>
        <time>2022-10-06T10:46:45Z</time>
      </trkpt>
      <trkpt lat="44.77336" lon="-0.09439">
        <ele>95.4</ele>
        <time>2022-10-06T10:46:46Z</time>
      </trkpt>
      <trkpt lat="44.77338" lon="-0.09438">
        <ele>95.3</ele>
        <time>2022-10-06T10:46:47Z</time>
      </trkpt>
      <trkpt lat="44.77339" lon="-0.09437">
        <ele>95.3</ele>
        <time>2022-10-06T10:46:48Z</time>
      </trkpt>
      <trkpt lat="44.7734" lon="-0.09437">
        <ele>95.3</ele>
        <time>2022-10-06T10:46:49Z</time>
      </trkpt>
      <trkpt lat="44.7734" lon="-0.09437">
        <ele>95.3</ele>
        <time>2022-10-06T10:46:50Z</time>
      </trkpt>
      <trkpt lat="44.77341" lon="-0.09436">
        <ele>95.3</ele>
        <time>2022-10-06T10:46:51Z</time>
      </trkpt>
      <trkpt lat="44.77343" lon="-0.09435">
        <ele>95.3</ele>
        <time>2022-10-06T10:46:52Z</time>
      </trkpt>
      <trkpt lat="44.77344" lon="-0.09435">
        <ele>95.3</ele>
        <time>2022-10-06T10:46:53Z</time>
      </trkpt>
      <trkpt lat="44.77346" lon="-0.09433">
        <ele>95.3</ele>
        <time>2022-10-06T10:46:54Z</time>
      </trkpt>
      <trkpt lat="44.77346" lon="-0.09433">
        <ele>95.2</ele>
        <time>2022-10-06T10:46:55Z</time>
      </trkpt>
      <trkpt lat="44.77347" lon="-0.09432">
        <ele>95.2</ele>
        <time>2022-10-06T10:46:56Z</time>
      </trkpt>
      <trkpt lat="44.77348" lon="-0.09432">
        <ele>95.2</ele>
        <time>2022-10-06T10:46:57Z</time>
      </trkpt>
      <trkpt lat="44.7735" lon="-0.09432">
        <ele>95.2</ele>
        <time>2022-10-06T10:46:58Z</time>
      </trkpt>
      <trkpt lat="44.77351" lon="-0.09432">
        <ele>95.2</ele>
        <time>2022-10-06T10:46:59Z</time>
      </trkpt>
      <trkpt lat="44.77353" lon="-0.09435">
        <ele>95.2</ele>
        <time>2022-10-06T10:47:00Z</time>
      </trkpt>
      <trkpt lat="44.77353" lon="-0.09436">
        <ele>95.2</ele>
        <time>2022-10-06T10:47:01Z</time>
      </trkpt>
      <trkpt lat="44.77354" lon="-0.09436">
        <ele>95.2</ele>
        <time>2022-10-06T10:47:02Z</time>
      </trkpt>
      <trkpt lat="44.77354" lon="-0.09438">
        <ele>95.2</ele>
        <time>2022-10-06T10:47:03Z</time>
      </trkpt>
      <trkpt lat="44.77355" lon="-0.0944">
        <ele>95.2</ele>
        <time>2022-10-06T10:47:04Z</time>
      </trkpt>
      <trkpt lat="44.77355" lon="-0.09442">
        <ele>95.2</ele>
        <time>2022-10-06T10:47:05Z</time>
      </trkpt>
      <trkpt lat="44.77355" lon="-0.09443">
        <ele>95.1</ele>
        <time>2022-10-06T10:47:06Z</time>
      </trkpt>
      <trkpt lat="44.77356" lon="-0.09444">
        <ele>95.1</ele>
        <time>2022-10-06T10:47:07Z</time>
      </trkpt>
      <trkpt lat="44.77356" lon="-0.09446">
        <ele>95.1</ele>
        <time>2022-10-06T10:47:08Z</time>
      </trkpt>
      <trkpt lat="44.77357" lon="-0.09448">
        <ele>95.1</ele>
        <time>2022-10-06T10:47:09Z</time>
      </trkpt>
      <trkpt lat="44.77357" lon="-0.09449">
        <ele>95.1</ele>
        <time>2022-10-06T10:47:10Z</time>
      </trkpt>
      <trkpt lat="44.77357" lon="-0.09451">
        <ele>95.1</ele>
        <time>2022-10-06T10:47:11Z</time>
      </trkpt>
      <trkpt lat="44.77357" lon="-0.09453">
        <ele>95.1</ele>
        <time>2022-10-06T10:47:12Z</time>
      </trkpt>
      <trkpt lat="44.77358" lon="-0.09454">
        <ele>95.1</ele>
        <time>2022-10-06T10:47:13Z</time>
      </trkpt>
      <trkpt lat="44.77358" lon="-0.09457">
        <ele>95.1</ele>
        <time>2022-10-06T10:47:14Z</time>
      </trkpt>
      <trkpt lat="44.77358" lon="-0.09458">
        <ele>95.1</ele>
        <time>2022-10-06T10:47:15Z</time>
      </trkpt>
      <trkpt lat="44.77358" lon="-0.0946">
        <ele>95.1</ele>
        <time>2022-10-06T10:47:16Z</time>
      </trkpt>
      <trkpt lat="44.77358" lon="-0.09461">
        <ele>95.1</ele>
        <time>2022-10-06T10:47:17Z</time>
      </trkpt>
      <trkpt lat="44.77359" lon="-0.09463">
        <ele>95.1</ele>
        <time>2022-10-06T10:47:18Z</time>
      </trkpt>
      <trkpt lat="44.77359" lon="-0.09466">
        <ele>95.1</ele>
        <time>2022-10-06T10:47:19Z</time>
      </trkpt>
      <trkpt lat="44.77359" lon="-0.09466">
        <ele>95.1</ele>
        <time>2022-10-06T10:47:20Z</time>
      </trkpt>
      <trkpt lat="44.77359" lon="-0.09468">
        <ele>95.1</ele>
        <time>2022-10-06T10:47:21Z</time>
      </trkpt>
      <trkpt lat="44.77359" lon="-0.09469">
        <ele>95.1</ele>
        <time>2022-10-06T10:47:22Z</time>
      </trkpt>
      <trkpt lat="44.77359" lon="-0.09471">
        <ele>95.1</ele>
        <time>2022-10-06T10:47:23Z</time>
      </trkpt>
      <trkpt lat="44.77359" lon="-0.09473">
        <ele>95</ele>
        <time>2022-10-06T10:47:24Z</time>
      </trkpt>
      <trkpt lat="44.7736" lon="-0.09474">
        <ele>95</ele>
        <time>2022-10-06T10:47:25Z</time>
      </trkpt>
      <trkpt lat="44.7736" lon="-0.09475">
        <ele>95</ele>
        <time>2022-10-06T10:47:26Z</time>
      </trkpt>
      <trkpt lat="44.7736" lon="-0.09478">
        <ele>95</ele>
        <time>2022-10-06T10:47:27Z</time>
      </trkpt>
      <trkpt lat="44.7736" lon="-0.0948">
        <ele>95</ele>
        <time>2022-10-06T10:47:28Z</time>
      </trkpt>
      <trkpt lat="44.7736" lon="-0.09481">
        <ele>95</ele>
        <time>2022-10-06T10:47:29Z</time>
      </trkpt>
      <trkpt lat="44.77361" lon="-0.09482">
        <ele>95</ele>
        <time>2022-10-06T10:47:30Z</time>
      </trkpt>
      <trkpt lat="44.77361" lon="-0.09483">
        <ele>94.9</ele>
        <time>2022-10-06T10:47:31Z</time>
      </trkpt>
      <trkpt lat="44.77361" lon="-0.09485">
        <ele>94.9</ele>
        <time>2022-10-06T10:47:32Z</time>
      </trkpt>
      <trkpt lat="44.77362" lon="-0.09487">
        <ele>94.9</ele>
        <time>2022-10-06T10:47:33Z</time>
      </trkpt>
      <trkpt lat="44.77362" lon="-0.0949">
        <ele>94.8</ele>
        <time>2022-10-06T10:47:34Z</time>
      </trkpt>
      <trkpt lat="44.77362" lon="-0.09491">
        <ele>94.8</ele>
        <time>2022-10-06T10:47:35Z</time>
      </trkpt>
      <trkpt lat="44.77363" lon="-0.09492">
        <ele>94.8</ele>
        <time>2022-10-06T10:47:36Z</time>
      </trkpt>
      <trkpt lat="44.77363" lon="-0.09494">
        <ele>94.8</ele>
        <time>2022-10-06T10:47:37Z</time>
      </trkpt>
      <trkpt lat="44.77364" lon="-0.09495">
        <ele>94.8</ele>
        <time>2022-10-06T10:47:38Z</time>
      </trkpt>
      <trkpt lat="44.77364" lon="-0.09498">
        <ele>94.6</ele>
        <time>2022-10-06T10:47:39Z</time>
      </trkpt>
      <trkpt lat="44.77365" lon="-0.095">
        <ele>94.6</ele>
        <time>2022-10-06T10:47:40Z</time>
      </trkpt>
      <trkpt lat="44.77365" lon="-0.09501">
        <ele>94.6</ele>
        <time>2022-10-06T10:47:41Z</time>
      </trkpt>
      <trkpt lat="44.77365" lon="-0.09502">
        <ele>94.6</ele>
        <time>2022-10-06T10:47:42Z</time>
      </trkpt>
      <trkpt lat="44.77365" lon="-0.09503">
        <ele>94.6</ele>
        <time>2022-10-06T10:47:43Z</time>
      </trkpt>
      <trkpt lat="44.77366" lon="-0.09506">
        <ele>94.5</ele>
        <time>2022-10-06T10:47:44Z</time>
      </trkpt>
      <trkpt lat="44.77367" lon="-0.09506">
        <ele>94.4</ele>
        <time>2022-10-06T10:47:45Z</time>
      </trkpt>
      <trkpt lat="44.77368" lon="-0.09506">
        <ele>94.4</ele>
        <time>2022-10-06T10:47:46Z</time>
      </trkpt>
      <trkpt lat="44.7737" lon="-0.09507">
        <ele>94.4</ele>
        <time>2022-10-06T10:47:47Z</time>
      </trkpt>
      <trkpt lat="44.77371" lon="-0.09507">
        <ele>94.4</ele>
        <time>2022-10-06T10:47:48Z</time>
      </trkpt>
      <trkpt lat="44.77372" lon="-0.09508">
        <ele>94.4</ele>
        <time>2022-10-06T10:47:49Z</time>
      </trkpt>
      <trkpt lat="44.77374" lon="-0.09507">
        <ele>94.4</ele>
        <time>2022-10-06T10:47:50Z</time>
      </trkpt>
      <trkpt lat="44.77375" lon="-0.09507">
        <ele>94.4</ele>
        <time>2022-10-06T10:47:51Z</time>
      </trkpt>
      <trkpt lat="44.77376" lon="-0.09507">
        <ele>94.4</ele>
        <time>2022-10-06T10:47:52Z</time>
      </trkpt>
      <trkpt lat="44.77378" lon="-0.09507">
        <ele>94.3</ele>
        <time>2022-10-06T10:47:53Z</time>
      </trkpt>
      <trkpt lat="44.7738" lon="-0.09507">
        <ele>94.3</ele>
        <time>2022-10-06T10:47:54Z</time>
      </trkpt>
      <trkpt lat="44.77381" lon="-0.09506">
        <ele>94.3</ele>
        <time>2022-10-06T10:47:55Z</time>
      </trkpt>
      <trkpt lat="44.77382" lon="-0.09506">
        <ele>94.3</ele>
        <time>2022-10-06T10:47:56Z</time>
      </trkpt>
      <trkpt lat="44.77382" lon="-0.09506">
        <ele>94.2</ele>
        <time>2022-10-06T10:47:57Z</time>
      </trkpt>
      <trkpt lat="44.77383" lon="-0.09506">
        <ele>94.2</ele>
        <time>2022-10-06T10:47:58Z</time>
      </trkpt>
      <trkpt lat="44.77385" lon="-0.09505">
        <ele>94.3</ele>
        <time>2022-10-06T10:47:59Z</time>
      </trkpt>
      <trkpt lat="44.77386" lon="-0.09505">
        <ele>94.3</ele>
        <time>2022-10-06T10:48:00Z</time>
      </trkpt>
      <trkpt lat="44.77387" lon="-0.09505">
        <ele>94.3</ele>
        <time>2022-10-06T10:48:01Z</time>
      </trkpt>
      <trkpt lat="44.77389" lon="-0.09504">
        <ele>94.2</ele>
        <time>2022-10-06T10:48:02Z</time>
      </trkpt>
      <trkpt lat="44.7739" lon="-0.09504">
        <ele>94.2</ele>
        <time>2022-10-06T10:48:03Z</time>
      </trkpt>
      <trkpt lat="44.77391" lon="-0.09504">
        <ele>94.2</ele>
        <time>2022-10-06T10:48:04Z</time>
      </trkpt>
      <trkpt lat="44.77393" lon="-0.09504">
        <ele>94.1</ele>
        <time>2022-10-06T10:48:05Z</time>
      </trkpt>
      <trkpt lat="44.77393" lon="-0.09504">
        <ele>94.1</ele>
        <time>2022-10-06T10:48:06Z</time>
      </trkpt>
      <trkpt lat="44.77394" lon="-0.09503">
        <ele>94.1</ele>
        <time>2022-10-06T10:48:07Z</time>
      </trkpt>
      <trkpt lat="44.77395" lon="-0.09503">
        <ele>94.1</ele>
        <time>2022-10-06T10:48:08Z</time>
      </trkpt>
      <trkpt lat="44.77397" lon="-0.09503">
        <ele>94.1</ele>
        <time>2022-10-06T10:48:09Z</time>
      </trkpt>
      <trkpt lat="44.77398" lon="-0.09503">
        <ele>94</ele>
        <time>2022-10-06T10:48:10Z</time>
      </trkpt>
      <trkpt lat="44.77399" lon="-0.09503">
        <ele>94</ele>
        <time>2022-10-06T10:48:11Z</time>
      </trkpt>
      <trkpt lat="44.774" lon="-0.09503">
        <ele>94</ele>
        <time>2022-10-06T10:48:12Z</time>
      </trkpt>
      <trkpt lat="44.77401" lon="-0.09504">
        <ele>94</ele>
        <time>2022-10-06T10:48:13Z</time>
      </trkpt>
      <trkpt lat="44.77403" lon="-0.09505">
        <ele>94</ele>
        <time>2022-10-06T10:48:14Z</time>
      </trkpt>
      <trkpt lat="44.77403" lon="-0.09506">
        <ele>93.9</ele>
        <time>2022-10-06T10:48:15Z</time>
      </trkpt>
      <trkpt lat="44.77404" lon="-0.09507">
        <ele>93.8</ele>
        <time>2022-10-06T10:48:16Z</time>
      </trkpt>
      <trkpt lat="44.77405" lon="-0.0951">
        <ele>93.8</ele>
        <time>2022-10-06T10:48:17Z</time>
      </trkpt>
      <trkpt lat="44.77406" lon="-0.09511">
        <ele>93.7</ele>
        <time>2022-10-06T10:48:18Z</time>
      </trkpt>
      <trkpt lat="44.77406" lon="-0.09512">
        <ele>93.7</ele>
        <time>2022-10-06T10:48:19Z</time>
      </trkpt>
      <trkpt lat="44.77406" lon="-0.09513">
        <ele>93.7</ele>
        <time>2022-10-06T10:48:20Z</time>
      </trkpt>
      <trkpt lat="44.77406" lon="-0.09515">
        <ele>93.7</ele>
        <time>2022-10-06T10:48:21Z</time>
      </trkpt>
      <trkpt lat="44.77407" lon="-0.09516">
        <ele>93.7</ele>
        <time>2022-10-06T10:48:22Z</time>
      </trkpt>
      <trkpt lat="44.77407" lon="-0.09518">
        <ele>93.6</ele>
        <time>2022-10-06T10:48:23Z</time>
      </trkpt>
      <trkpt lat="44.77408" lon="-0.09521">
        <ele>93.5</ele>
        <time>2022-10-06T10:48:24Z</time>
      </trkpt>
      <trkpt lat="44.77408" lon="-0.09522">
        <ele>93.5</ele>
        <time>2022-10-06T10:48:25Z</time>
      </trkpt>
      <trkpt lat="44.77408" lon="-0.09523">
        <ele>93.4</ele>
        <time>2022-10-06T10:48:26Z</time>
      </trkpt>
      <trkpt lat="44.77408" lon="-0.09525">
        <ele>93.4</ele>
        <time>2022-10-06T10:48:27Z</time>
      </trkpt>
      <trkpt lat="44.77408" lon="-0.09526">
        <ele>93.4</ele>
        <time>2022-10-06T10:48:28Z</time>
      </trkpt>
      <trkpt lat="44.77408" lon="-0.09529">
        <ele>93.3</ele>
        <time>2022-10-06T10:48:29Z</time>
      </trkpt>
      <trkpt lat="44.77408" lon="-0.09531">
        <ele>93.3</ele>
        <time>2022-10-06T10:48:30Z</time>
      </trkpt>
      <trkpt lat="44.77408" lon="-0.09532">
        <ele>93.2</ele>
        <time>2022-10-06T10:48:31Z</time>
      </trkpt>
      <trkpt lat="44.77408" lon="-0.09533">
        <ele>93.2</ele>
        <time>2022-10-06T10:48:32Z</time>
      </trkpt>
      <trkpt lat="44.77408" lon="-0.09534">
        <ele>93.2</ele>
        <time>2022-10-06T10:48:33Z</time>
      </trkpt>
      <trkpt lat="44.77409" lon="-0.09538">
        <ele>93.1</ele>
        <time>2022-10-06T10:48:34Z</time>
      </trkpt>
      <trkpt lat="44.77409" lon="-0.09538">
        <ele>93.1</ele>
        <time>2022-10-06T10:48:35Z</time>
      </trkpt>
      <trkpt lat="44.77409" lon="-0.09539">
        <ele>93.1</ele>
        <time>2022-10-06T10:48:36Z</time>
      </trkpt>
      <trkpt lat="44.7741" lon="-0.09543">
        <ele>92.9</ele>
        <time>2022-10-06T10:48:37Z</time>
      </trkpt>
      <trkpt lat="44.7741" lon="-0.09544">
        <ele>92.9</ele>
        <time>2022-10-06T10:48:38Z</time>
      </trkpt>
      <trkpt lat="44.77411" lon="-0.09546">
        <ele>92.8</ele>
        <time>2022-10-06T10:48:39Z</time>
      </trkpt>
      <trkpt lat="44.77411" lon="-0.09547">
        <ele>92.8</ele>
        <time>2022-10-06T10:48:40Z</time>
      </trkpt>
      <trkpt lat="44.77411" lon="-0.09548">
        <ele>92.8</ele>
        <time>2022-10-06T10:48:41Z</time>
      </trkpt>
      <trkpt lat="44.77411" lon="-0.0955">
        <ele>92.8</ele>
        <time>2022-10-06T10:48:42Z</time>
      </trkpt>
      <trkpt lat="44.77412" lon="-0.09551">
        <ele>92.8</ele>
        <time>2022-10-06T10:48:43Z</time>
      </trkpt>
      <trkpt lat="44.77412" lon="-0.09552">
        <ele>92.8</ele>
        <time>2022-10-06T10:48:44Z</time>
      </trkpt>
      <trkpt lat="44.77412" lon="-0.09555">
        <ele>92.7</ele>
        <time>2022-10-06T10:48:45Z</time>
      </trkpt>
      <trkpt lat="44.77412" lon="-0.09556">
        <ele>92.7</ele>
        <time>2022-10-06T10:48:46Z</time>
      </trkpt>
      <trkpt lat="44.77412" lon="-0.09558">
        <ele>92.6</ele>
        <time>2022-10-06T10:48:47Z</time>
      </trkpt>
      <trkpt lat="44.77413" lon="-0.09559">
        <ele>92.6</ele>
        <time>2022-10-06T10:48:48Z</time>
      </trkpt>
      <trkpt lat="44.77413" lon="-0.09561">
        <ele>92.5</ele>
        <time>2022-10-06T10:48:49Z</time>
      </trkpt>
      <trkpt lat="44.77413" lon="-0.09563">
        <ele>92.4</ele>
        <time>2022-10-06T10:48:50Z</time>
      </trkpt>
      <trkpt lat="44.77413" lon="-0.09564">
        <ele>92.4</ele>
        <time>2022-10-06T10:48:51Z</time>
      </trkpt>
      <trkpt lat="44.77413" lon="-0.09566">
        <ele>92.4</ele>
        <time>2022-10-06T10:48:52Z</time>
      </trkpt>
      <trkpt lat="44.77414" lon="-0.09567">
        <ele>92.3</ele>
        <time>2022-10-06T10:48:53Z</time>
      </trkpt>
      <trkpt lat="44.77414" lon="-0.09569">
        <ele>92.3</ele>
        <time>2022-10-06T10:48:54Z</time>
      </trkpt>
      <trkpt lat="44.77415" lon="-0.09571">
        <ele>92.3</ele>
        <time>2022-10-06T10:48:55Z</time>
      </trkpt>
      <trkpt lat="44.77415" lon="-0.09572">
        <ele>92.3</ele>
        <time>2022-10-06T10:48:56Z</time>
      </trkpt>
      <trkpt lat="44.77416" lon="-0.09575">
        <ele>92.1</ele>
        <time>2022-10-06T10:48:57Z</time>
      </trkpt>
      <trkpt lat="44.77417" lon="-0.09576">
        <ele>92.1</ele>
        <time>2022-10-06T10:48:58Z</time>
      </trkpt>
      <trkpt lat="44.77417" lon="-0.09577">
        <ele>92.1</ele>
        <time>2022-10-06T10:48:59Z</time>
      </trkpt>
      <trkpt lat="44.77418" lon="-0.0958">
        <ele>92</ele>
        <time>2022-10-06T10:49:00Z</time>
      </trkpt>
      <trkpt lat="44.77418" lon="-0.09581">
        <ele>92</ele>
        <time>2022-10-06T10:49:01Z</time>
      </trkpt>
      <trkpt lat="44.77418" lon="-0.09582">
        <ele>92</ele>
        <time>2022-10-06T10:49:02Z</time>
      </trkpt>
      <trkpt lat="44.77418" lon="-0.09585">
        <ele>91.9</ele>
        <time>2022-10-06T10:49:03Z</time>
      </trkpt>
      <trkpt lat="44.77419" lon="-0.09586">
        <ele>91.9</ele>
        <time>2022-10-06T10:49:04Z</time>
      </trkpt>
      <trkpt lat="44.77419" lon="-0.09588">
        <ele>91.8</ele>
        <time>2022-10-06T10:49:05Z</time>
      </trkpt>
      <trkpt lat="44.7742" lon="-0.09589">
        <ele>91.8</ele>
        <time>2022-10-06T10:49:06Z</time>
      </trkpt>
      <trkpt lat="44.7742" lon="-0.0959">
        <ele>91.8</ele>
        <time>2022-10-06T10:49:07Z</time>
      </trkpt>
      <trkpt lat="44.7742" lon="-0.09592">
        <ele>91.8</ele>
        <time>2022-10-06T10:49:08Z</time>
      </trkpt>
      <trkpt lat="44.77421" lon="-0.09594">
        <ele>91.8</ele>
        <time>2022-10-06T10:49:09Z</time>
      </trkpt>
      <trkpt lat="44.77421" lon="-0.09596">
        <ele>91.7</ele>
        <time>2022-10-06T10:49:10Z</time>
      </trkpt>
      <trkpt lat="44.77421" lon="-0.09599">
        <ele>91.7</ele>
        <time>2022-10-06T10:49:11Z</time>
      </trkpt>
      <trkpt lat="44.77422" lon="-0.096">
        <ele>91.6</ele>
        <time>2022-10-06T10:49:12Z</time>
      </trkpt>
      <trkpt lat="44.77422" lon="-0.09601">
        <ele>91.6</ele>
        <time>2022-10-06T10:49:13Z</time>
      </trkpt>
      <trkpt lat="44.77422" lon="-0.09603">
        <ele>91.6</ele>
        <time>2022-10-06T10:49:14Z</time>
      </trkpt>
      <trkpt lat="44.77421" lon="-0.09605">
        <ele>91.6</ele>
        <time>2022-10-06T10:49:15Z</time>
      </trkpt>
      <trkpt lat="44.77421" lon="-0.09605">
        <ele>91.6</ele>
        <time>2022-10-06T10:49:16Z</time>
      </trkpt>
      <trkpt lat="44.77422" lon="-0.09605">
        <ele>91.6</ele>
        <time>2022-10-06T10:49:17Z</time>
      </trkpt>
      <trkpt lat="44.77422" lon="-0.09605">
        <ele>91.6</ele>
        <time>2022-10-06T10:49:18Z</time>
      </trkpt>
      <trkpt lat="44.77422" lon="-0.09606">
        <ele>91.5</ele>
        <time>2022-10-06T10:49:19Z</time>
      </trkpt>
      <trkpt lat="44.77423" lon="-0.09607">
        <ele>91.5</ele>
        <time>2022-10-06T10:49:20Z</time>
      </trkpt>
      <trkpt lat="44.77423" lon="-0.09608">
        <ele>91.5</ele>
        <time>2022-10-06T10:49:21Z</time>
      </trkpt>
      <trkpt lat="44.77424" lon="-0.09609">
        <ele>91.4</ele>
        <time>2022-10-06T10:49:22Z</time>
      </trkpt>
      <trkpt lat="44.77425" lon="-0.0961">
        <ele>91.4</ele>
        <time>2022-10-06T10:49:23Z</time>
      </trkpt>
      <trkpt lat="44.77425" lon="-0.09611">
        <ele>91.4</ele>
        <time>2022-10-06T10:49:24Z</time>
      </trkpt>
      <trkpt lat="44.77427" lon="-0.09613">
        <ele>91.4</ele>
        <time>2022-10-06T10:49:25Z</time>
      </trkpt>
      <trkpt lat="44.77427" lon="-0.09613">
        <ele>91.3</ele>
        <time>2022-10-06T10:49:26Z</time>
      </trkpt>
      <trkpt lat="44.77428" lon="-0.09614">
        <ele>91.2</ele>
        <time>2022-10-06T10:49:27Z</time>
      </trkpt>
      <trkpt lat="44.77429" lon="-0.09614">
        <ele>91.2</ele>
        <time>2022-10-06T10:49:28Z</time>
      </trkpt>
      <trkpt lat="44.7743" lon="-0.09614">
        <ele>91.2</ele>
        <time>2022-10-06T10:49:29Z</time>
      </trkpt>
      <trkpt lat="44.77432" lon="-0.09614">
        <ele>91.1</ele>
        <time>2022-10-06T10:49:30Z</time>
      </trkpt>
      <trkpt lat="44.77433" lon="-0.09614">
        <ele>91.1</ele>
        <time>2022-10-06T10:49:31Z</time>
      </trkpt>
      <trkpt lat="44.77434" lon="-0.09613">
        <ele>91.1</ele>
        <time>2022-10-06T10:49:32Z</time>
      </trkpt>
      <trkpt lat="44.77435" lon="-0.09613">
        <ele>91</ele>
        <time>2022-10-06T10:49:33Z</time>
      </trkpt>
      <trkpt lat="44.77437" lon="-0.09613">
        <ele>91.1</ele>
        <time>2022-10-06T10:49:34Z</time>
      </trkpt>
      <trkpt lat="44.77438" lon="-0.09612">
        <ele>91</ele>
        <time>2022-10-06T10:49:35Z</time>
      </trkpt>
      <trkpt lat="44.77439" lon="-0.09612">
        <ele>91</ele>
        <time>2022-10-06T10:49:36Z</time>
      </trkpt>
      <trkpt lat="44.7744" lon="-0.09612">
        <ele>90.9</ele>
        <time>2022-10-06T10:49:37Z</time>
      </trkpt>
      <trkpt lat="44.77442" lon="-0.09611">
        <ele>90.9</ele>
        <time>2022-10-06T10:49:38Z</time>
      </trkpt>
      <trkpt lat="44.77444" lon="-0.0961">
        <ele>90.8</ele>
        <time>2022-10-06T10:49:39Z</time>
      </trkpt>
      <trkpt lat="44.77445" lon="-0.0961">
        <ele>90.8</ele>
        <time>2022-10-06T10:49:40Z</time>
      </trkpt>
      <trkpt lat="44.77445" lon="-0.0961">
        <ele>90.8</ele>
        <time>2022-10-06T10:49:41Z</time>
      </trkpt>
      <trkpt lat="44.77448" lon="-0.09609">
        <ele>90.7</ele>
        <time>2022-10-06T10:49:42Z</time>
      </trkpt>
      <trkpt lat="44.77448" lon="-0.09609">
        <ele>90.7</ele>
        <time>2022-10-06T10:49:43Z</time>
      </trkpt>
      <trkpt lat="44.77449" lon="-0.09609">
        <ele>90.8</ele>
        <time>2022-10-06T10:49:44Z</time>
      </trkpt>
      <trkpt lat="44.77451" lon="-0.09608">
        <ele>90.7</ele>
        <time>2022-10-06T10:49:45Z</time>
      </trkpt>
      <trkpt lat="44.77452" lon="-0.09608">
        <ele>90.7</ele>
        <time>2022-10-06T10:49:46Z</time>
      </trkpt>
      <trkpt lat="44.77454" lon="-0.09607">
        <ele>90.6</ele>
        <time>2022-10-06T10:49:47Z</time>
      </trkpt>
      <trkpt lat="44.77455" lon="-0.09607">
        <ele>90.6</ele>
        <time>2022-10-06T10:49:48Z</time>
      </trkpt>
      <trkpt lat="44.77456" lon="-0.09606">
        <ele>90.5</ele>
        <time>2022-10-06T10:49:49Z</time>
      </trkpt>
      <trkpt lat="44.77458" lon="-0.09606">
        <ele>90.5</ele>
        <time>2022-10-06T10:49:50Z</time>
      </trkpt>
      <trkpt lat="44.77458" lon="-0.09605">
        <ele>90.5</ele>
        <time>2022-10-06T10:49:51Z</time>
      </trkpt>
      <trkpt lat="44.77459" lon="-0.09605">
        <ele>90.5</ele>
        <time>2022-10-06T10:49:52Z</time>
      </trkpt>
      <trkpt lat="44.7746" lon="-0.09604">
        <ele>90.5</ele>
        <time>2022-10-06T10:49:53Z</time>
      </trkpt>
      <trkpt lat="44.77461" lon="-0.09604">
        <ele>90.5</ele>
        <time>2022-10-06T10:49:54Z</time>
      </trkpt>
      <trkpt lat="44.77463" lon="-0.09603">
        <ele>90.5</ele>
        <time>2022-10-06T10:49:55Z</time>
      </trkpt>
      <trkpt lat="44.77464" lon="-0.09603">
        <ele>90.5</ele>
        <time>2022-10-06T10:49:56Z</time>
      </trkpt>
      <trkpt lat="44.77465" lon="-0.09603">
        <ele>90.4</ele>
        <time>2022-10-06T10:49:57Z</time>
      </trkpt>
      <trkpt lat="44.77466" lon="-0.09603">
        <ele>90.4</ele>
        <time>2022-10-06T10:49:58Z</time>
      </trkpt>
      <trkpt lat="44.77467" lon="-0.09603">
        <ele>90.4</ele>
        <time>2022-10-06T10:49:59Z</time>
      </trkpt>
      <trkpt lat="44.77469" lon="-0.09602">
        <ele>90.3</ele>
        <time>2022-10-06T10:50:00Z</time>
      </trkpt>
      <trkpt lat="44.7747" lon="-0.09602">
        <ele>90.3</ele>
        <time>2022-10-06T10:50:01Z</time>
      </trkpt>
      <trkpt lat="44.77471" lon="-0.09602">
        <ele>90.3</ele>
        <time>2022-10-06T10:50:02Z</time>
      </trkpt>
      <trkpt lat="44.77473" lon="-0.09601">
        <ele>90.3</ele>
        <time>2022-10-06T10:50:03Z</time>
      </trkpt>
      <trkpt lat="44.77475" lon="-0.096">
        <ele>90.3</ele>
        <time>2022-10-06T10:50:04Z</time>
      </trkpt>
      <trkpt lat="44.77476" lon="-0.096">
        <ele>90.3</ele>
        <time>2022-10-06T10:50:05Z</time>
      </trkpt>
      <trkpt lat="44.77477" lon="-0.096">
        <ele>90.3</ele>
        <time>2022-10-06T10:50:06Z</time>
      </trkpt>
      <trkpt lat="44.77478" lon="-0.09599">
        <ele>90.2</ele>
        <time>2022-10-06T10:50:07Z</time>
      </trkpt>
      <trkpt lat="44.77479" lon="-0.09599">
        <ele>90.2</ele>
        <time>2022-10-06T10:50:08Z</time>
      </trkpt>
      <trkpt lat="44.7748" lon="-0.09598">
        <ele>90.2</ele>
        <time>2022-10-06T10:50:09Z</time>
      </trkpt>
      <trkpt lat="44.77482" lon="-0.09598">
        <ele>90.2</ele>
        <time>2022-10-06T10:50:10Z</time>
      </trkpt>
      <trkpt lat="44.77484" lon="-0.09597">
        <ele>90.2</ele>
        <time>2022-10-06T10:50:11Z</time>
      </trkpt>
      <trkpt lat="44.77484" lon="-0.09596">
        <ele>90.2</ele>
        <time>2022-10-06T10:50:12Z</time>
      </trkpt>
      <trkpt lat="44.77485" lon="-0.09596">
        <ele>90.3</ele>
        <time>2022-10-06T10:50:13Z</time>
      </trkpt>
      <trkpt lat="44.77487" lon="-0.09595">
        <ele>90.2</ele>
        <time>2022-10-06T10:50:14Z</time>
      </trkpt>
      <trkpt lat="44.77488" lon="-0.09594">
        <ele>90.2</ele>
        <time>2022-10-06T10:50:15Z</time>
      </trkpt>
      <trkpt lat="44.77489" lon="-0.09594">
        <ele>90.2</ele>
        <time>2022-10-06T10:50:16Z</time>
      </trkpt>
      <trkpt lat="44.7749" lon="-0.09594">
        <ele>90.2</ele>
        <time>2022-10-06T10:50:17Z</time>
      </trkpt>
      <trkpt lat="44.77492" lon="-0.09593">
        <ele>90.2</ele>
        <time>2022-10-06T10:50:18Z</time>
      </trkpt>
      <trkpt lat="44.77493" lon="-0.09593">
        <ele>90.2</ele>
        <time>2022-10-06T10:50:19Z</time>
      </trkpt>
      <trkpt lat="44.77495" lon="-0.09592">
        <ele>90.2</ele>
        <time>2022-10-06T10:50:20Z</time>
      </trkpt>
      <trkpt lat="44.77496" lon="-0.09592">
        <ele>90.2</ele>
        <time>2022-10-06T10:50:21Z</time>
      </trkpt>
      <trkpt lat="44.77496" lon="-0.09592">
        <ele>90.2</ele>
        <time>2022-10-06T10:50:22Z</time>
      </trkpt>
      <trkpt lat="44.77497" lon="-0.09591">
        <ele>90.3</ele>
        <time>2022-10-06T10:50:23Z</time>
      </trkpt>
      <trkpt lat="44.77499" lon="-0.09591">
        <ele>90.3</ele>
        <time>2022-10-06T10:50:24Z</time>
      </trkpt>
      <trkpt lat="44.775" lon="-0.09591">
        <ele>90.3</ele>
        <time>2022-10-06T10:50:25Z</time>
      </trkpt>
      <trkpt lat="44.77501" lon="-0.0959">
        <ele>90.3</ele>
        <time>2022-10-06T10:50:26Z</time>
      </trkpt>
      <trkpt lat="44.77503" lon="-0.0959">
        <ele>90.3</ele>
        <time>2022-10-06T10:50:27Z</time>
      </trkpt>
      <trkpt lat="44.77504" lon="-0.0959">
        <ele>90.3</ele>
        <time>2022-10-06T10:50:28Z</time>
      </trkpt>
      <trkpt lat="44.77505" lon="-0.09589">
        <ele>90.3</ele>
        <time>2022-10-06T10:50:29Z</time>
      </trkpt>
      <trkpt lat="44.77507" lon="-0.09589">
        <ele>90.3</ele>
        <time>2022-10-06T10:50:30Z</time>
      </trkpt>
      <trkpt lat="44.77508" lon="-0.09588">
        <ele>90.3</ele>
        <time>2022-10-06T10:50:31Z</time>
      </trkpt>
      <trkpt lat="44.77509" lon="-0.09588">
        <ele>90.3</ele>
        <time>2022-10-06T10:50:32Z</time>
      </trkpt>
      <trkpt lat="44.7751" lon="-0.09588">
        <ele>90.3</ele>
        <time>2022-10-06T10:50:33Z</time>
      </trkpt>
      <trkpt lat="44.77511" lon="-0.09587">
        <ele>90.3</ele>
        <time>2022-10-06T10:50:34Z</time>
      </trkpt>
      <trkpt lat="44.77513" lon="-0.09587">
        <ele>90.4</ele>
        <time>2022-10-06T10:50:35Z</time>
      </trkpt>
      <trkpt lat="44.77513" lon="-0.09586">
        <ele>90.4</ele>
        <time>2022-10-06T10:50:36Z</time>
      </trkpt>
      <trkpt lat="44.77514" lon="-0.09586">
        <ele>90.4</ele>
        <time>2022-10-06T10:50:37Z</time>
      </trkpt>
      <trkpt lat="44.77516" lon="-0.09586">
        <ele>90.4</ele>
        <time>2022-10-06T10:50:38Z</time>
      </trkpt>
      <trkpt lat="44.77517" lon="-0.09585">
        <ele>90.5</ele>
        <time>2022-10-06T10:50:39Z</time>
      </trkpt>
      <trkpt lat="44.77519" lon="-0.09585">
        <ele>90.5</ele>
        <time>2022-10-06T10:50:40Z</time>
      </trkpt>
      <trkpt lat="44.7752" lon="-0.09585">
        <ele>90.5</ele>
        <time>2022-10-06T10:50:41Z</time>
      </trkpt>
      <trkpt lat="44.77521" lon="-0.09585">
        <ele>90.5</ele>
        <time>2022-10-06T10:50:42Z</time>
      </trkpt>
      <trkpt lat="44.77522" lon="-0.09585">
        <ele>90.5</ele>
        <time>2022-10-06T10:50:43Z</time>
      </trkpt>
      <trkpt lat="44.77522" lon="-0.09584">
        <ele>90.5</ele>
        <time>2022-10-06T10:50:44Z</time>
      </trkpt>
      <trkpt lat="44.77524" lon="-0.09584">
        <ele>90.5</ele>
        <time>2022-10-06T10:50:45Z</time>
      </trkpt>
      <trkpt lat="44.77525" lon="-0.09584">
        <ele>90.5</ele>
        <time>2022-10-06T10:50:46Z</time>
      </trkpt>
      <trkpt lat="44.77526" lon="-0.09584">
        <ele>90.5</ele>
        <time>2022-10-06T10:50:47Z</time>
      </trkpt>
      <trkpt lat="44.77527" lon="-0.09583">
        <ele>90.5</ele>
        <time>2022-10-06T10:50:48Z</time>
      </trkpt>
      <trkpt lat="44.77528" lon="-0.09583">
        <ele>90.5</ele>
        <time>2022-10-06T10:50:49Z</time>
      </trkpt>
      <trkpt lat="44.77529" lon="-0.09583">
        <ele>90.7</ele>
        <time>2022-10-06T10:50:50Z</time>
      </trkpt>
      <trkpt lat="44.7753" lon="-0.09582">
        <ele>90.7</ele>
        <time>2022-10-06T10:50:51Z</time>
      </trkpt>
      <trkpt lat="44.77531" lon="-0.09582">
        <ele>90.7</ele>
        <time>2022-10-06T10:50:52Z</time>
      </trkpt>
      <trkpt lat="44.77532" lon="-0.09581">
        <ele>90.7</ele>
        <time>2022-10-06T10:50:53Z</time>
      </trkpt>
      <trkpt lat="44.77533" lon="-0.09581">
        <ele>90.7</ele>
        <time>2022-10-06T10:50:54Z</time>
      </trkpt>
      <trkpt lat="44.77535" lon="-0.09581">
        <ele>90.8</ele>
        <time>2022-10-06T10:50:55Z</time>
      </trkpt>
      <trkpt lat="44.77536" lon="-0.09581">
        <ele>90.8</ele>
        <time>2022-10-06T10:50:56Z</time>
      </trkpt>
      <trkpt lat="44.77537" lon="-0.09581">
        <ele>90.8</ele>
        <time>2022-10-06T10:50:57Z</time>
      </trkpt>
      <trkpt lat="44.77538" lon="-0.0958">
        <ele>90.8</ele>
        <time>2022-10-06T10:50:58Z</time>
      </trkpt>
      <trkpt lat="44.77539" lon="-0.0958">
        <ele>90.8</ele>
        <time>2022-10-06T10:50:59Z</time>
      </trkpt>
      <trkpt lat="44.7754" lon="-0.0958">
        <ele>90.8</ele>
        <time>2022-10-06T10:51:00Z</time>
      </trkpt>
      <trkpt lat="44.77541" lon="-0.09579">
        <ele>90.8</ele>
        <time>2022-10-06T10:51:01Z</time>
      </trkpt>
      <trkpt lat="44.77542" lon="-0.09579">
        <ele>90.8</ele>
        <time>2022-10-06T10:51:02Z</time>
      </trkpt>
      <trkpt lat="44.77544" lon="-0.09578">
        <ele>91</ele>
        <time>2022-10-06T10:51:03Z</time>
      </trkpt>
      <trkpt lat="44.77545" lon="-0.09578">
        <ele>91</ele>
        <time>2022-10-06T10:51:04Z</time>
      </trkpt>
      <trkpt lat="44.77546" lon="-0.09577">
        <ele>91</ele>
        <time>2022-10-06T10:51:05Z</time>
      </trkpt>
      <trkpt lat="44.77548" lon="-0.09577">
        <ele>91</ele>
        <time>2022-10-06T10:51:06Z</time>
      </trkpt>
      <trkpt lat="44.77549" lon="-0.09577">
        <ele>91</ele>
        <time>2022-10-06T10:51:07Z</time>
      </trkpt>
      <trkpt lat="44.77549" lon="-0.09576">
        <ele>91</ele>
        <time>2022-10-06T10:51:08Z</time>
      </trkpt>
      <trkpt lat="44.77551" lon="-0.09576">
        <ele>91.1</ele>
        <time>2022-10-06T10:51:09Z</time>
      </trkpt>
      <trkpt lat="44.77552" lon="-0.09575">
        <ele>91.1</ele>
        <time>2022-10-06T10:51:10Z</time>
      </trkpt>
      <trkpt lat="44.77553" lon="-0.09575">
        <ele>91.1</ele>
        <time>2022-10-06T10:51:11Z</time>
      </trkpt>
      <trkpt lat="44.77554" lon="-0.09575">
        <ele>91.1</ele>
        <time>2022-10-06T10:51:12Z</time>
      </trkpt>
      <trkpt lat="44.77556" lon="-0.09574">
        <ele>91.2</ele>
        <time>2022-10-06T10:51:13Z</time>
      </trkpt>
      <trkpt lat="44.77557" lon="-0.09574">
        <ele>91.3</ele>
        <time>2022-10-06T10:51:14Z</time>
      </trkpt>
      <trkpt lat="44.77559" lon="-0.09573">
        <ele>91.3</ele>
        <time>2022-10-06T10:51:15Z</time>
      </trkpt>
      <trkpt lat="44.77559" lon="-0.09573">
        <ele>91.3</ele>
        <time>2022-10-06T10:51:16Z</time>
      </trkpt>
      <trkpt lat="44.7756" lon="-0.09572">
        <ele>91.3</ele>
        <time>2022-10-06T10:51:17Z</time>
      </trkpt>
      <trkpt lat="44.77561" lon="-0.09572">
        <ele>91.3</ele>
        <time>2022-10-06T10:51:18Z</time>
      </trkpt>
      <trkpt lat="44.77562" lon="-0.09572">
        <ele>91.3</ele>
        <time>2022-10-06T10:51:19Z</time>
      </trkpt>
      <trkpt lat="44.77565" lon="-0.09571">
        <ele>91.4</ele>
        <time>2022-10-06T10:51:20Z</time>
      </trkpt>
      <trkpt lat="44.77566" lon="-0.09571">
        <ele>91.4</ele>
        <time>2022-10-06T10:51:21Z</time>
      </trkpt>
      <trkpt lat="44.77567" lon="-0.0957">
        <ele>91.5</ele>
        <time>2022-10-06T10:51:22Z</time>
      </trkpt>
      <trkpt lat="44.77568" lon="-0.09569">
        <ele>91.5</ele>
        <time>2022-10-06T10:51:23Z</time>
      </trkpt>
      <trkpt lat="44.77569" lon="-0.09569">
        <ele>91.5</ele>
        <time>2022-10-06T10:51:24Z</time>
      </trkpt>
      <trkpt lat="44.77571" lon="-0.09569">
        <ele>91.5</ele>
        <time>2022-10-06T10:51:25Z</time>
      </trkpt>
      <trkpt lat="44.77572" lon="-0.09569">
        <ele>91.6</ele>
        <time>2022-10-06T10:51:26Z</time>
      </trkpt>
      <trkpt lat="44.77573" lon="-0.09569">
        <ele>91.6</ele>
        <time>2022-10-06T10:51:27Z</time>
      </trkpt>
      <trkpt lat="44.77574" lon="-0.09568">
        <ele>91.6</ele>
        <time>2022-10-06T10:51:28Z</time>
      </trkpt>
      <trkpt lat="44.77575" lon="-0.09568">
        <ele>91.6</ele>
        <time>2022-10-06T10:51:29Z</time>
      </trkpt>
      <trkpt lat="44.77577" lon="-0.09567">
        <ele>91.6</ele>
        <time>2022-10-06T10:51:30Z</time>
      </trkpt>
      <trkpt lat="44.77577" lon="-0.09567">
        <ele>91.6</ele>
        <time>2022-10-06T10:51:31Z</time>
      </trkpt>
      <trkpt lat="44.77578" lon="-0.09567">
        <ele>91.6</ele>
        <time>2022-10-06T10:51:32Z</time>
      </trkpt>
      <trkpt lat="44.77579" lon="-0.09566">
        <ele>91.6</ele>
        <time>2022-10-06T10:51:33Z</time>
      </trkpt>
      <trkpt lat="44.7758" lon="-0.09566">
        <ele>91.8</ele>
        <time>2022-10-06T10:51:34Z</time>
      </trkpt>
      <trkpt lat="44.77582" lon="-0.09565">
        <ele>91.8</ele>
        <time>2022-10-06T10:51:35Z</time>
      </trkpt>
      <trkpt lat="44.77583" lon="-0.09565">
        <ele>91.8</ele>
        <time>2022-10-06T10:51:36Z</time>
      </trkpt>
      <trkpt lat="44.77584" lon="-0.09565">
        <ele>91.8</ele>
        <time>2022-10-06T10:51:37Z</time>
      </trkpt>
      <trkpt lat="44.77586" lon="-0.09564">
        <ele>91.8</ele>
        <time>2022-10-06T10:51:38Z</time>
      </trkpt>
      <trkpt lat="44.77587" lon="-0.09564">
        <ele>91.9</ele>
        <time>2022-10-06T10:51:39Z</time>
      </trkpt>
      <trkpt lat="44.77588" lon="-0.09564">
        <ele>91.9</ele>
        <time>2022-10-06T10:51:40Z</time>
      </trkpt>
      <trkpt lat="44.77589" lon="-0.09564">
        <ele>91.9</ele>
        <time>2022-10-06T10:51:41Z</time>
      </trkpt>
      <trkpt lat="44.7759" lon="-0.09564">
        <ele>91.9</ele>
        <time>2022-10-06T10:51:42Z</time>
      </trkpt>
      <trkpt lat="44.77591" lon="-0.09563">
        <ele>91.9</ele>
        <time>2022-10-06T10:51:43Z</time>
      </trkpt>
      <trkpt lat="44.77592" lon="-0.09563">
        <ele>91.9</ele>
        <time>2022-10-06T10:51:44Z</time>
      </trkpt>
      <trkpt lat="44.77593" lon="-0.09562">
        <ele>92</ele>
        <time>2022-10-06T10:51:45Z</time>
      </trkpt>
      <trkpt lat="44.77594" lon="-0.09562">
        <ele>92</ele>
        <time>2022-10-06T10:51:46Z</time>
      </trkpt>
      <trkpt lat="44.77595" lon="-0.09562">
        <ele>92</ele>
        <time>2022-10-06T10:51:47Z</time>
      </trkpt>
      <trkpt lat="44.77597" lon="-0.0956">
        <ele>92.1</ele>
        <time>2022-10-06T10:51:48Z</time>
      </trkpt>
      <trkpt lat="44.77598" lon="-0.0956">
        <ele>92.1</ele>
        <time>2022-10-06T10:51:49Z</time>
      </trkpt>
      <trkpt lat="44.77599" lon="-0.0956">
        <ele>92.2</ele>
        <time>2022-10-06T10:51:50Z</time>
      </trkpt>
      <trkpt lat="44.776" lon="-0.09559">
        <ele>92.2</ele>
        <time>2022-10-06T10:51:51Z</time>
      </trkpt>
      <trkpt lat="44.77601" lon="-0.09558">
        <ele>92.2</ele>
        <time>2022-10-06T10:51:52Z</time>
      </trkpt>
      <trkpt lat="44.77602" lon="-0.09558">
        <ele>92.2</ele>
        <time>2022-10-06T10:51:53Z</time>
      </trkpt>
      <trkpt lat="44.77605" lon="-0.09556">
        <ele>92.3</ele>
        <time>2022-10-06T10:51:54Z</time>
      </trkpt>
      <trkpt lat="44.77606" lon="-0.09555">
        <ele>92.3</ele>
        <time>2022-10-06T10:51:55Z</time>
      </trkpt>
      <trkpt lat="44.77606" lon="-0.09555">
        <ele>92.3</ele>
        <time>2022-10-06T10:51:56Z</time>
      </trkpt>
      <trkpt lat="44.77607" lon="-0.09555">
        <ele>92.3</ele>
        <time>2022-10-06T10:51:57Z</time>
      </trkpt>
      <trkpt lat="44.77609" lon="-0.09555">
        <ele>92.4</ele>
        <time>2022-10-06T10:51:58Z</time>
      </trkpt>
      <trkpt lat="44.7761" lon="-0.09555">
        <ele>92.4</ele>
        <time>2022-10-06T10:51:59Z</time>
      </trkpt>
      <trkpt lat="44.77612" lon="-0.09554">
        <ele>92.4</ele>
        <time>2022-10-06T10:52:00Z</time>
      </trkpt>
      <trkpt lat="44.77613" lon="-0.09554">
        <ele>92.4</ele>
        <time>2022-10-06T10:52:01Z</time>
      </trkpt>
      <trkpt lat="44.77614" lon="-0.09554">
        <ele>92.5</ele>
        <time>2022-10-06T10:52:02Z</time>
      </trkpt>
      <trkpt lat="44.77615" lon="-0.09554">
        <ele>92.5</ele>
        <time>2022-10-06T10:52:03Z</time>
      </trkpt>
      <trkpt lat="44.77615" lon="-0.09554">
        <ele>92.5</ele>
        <time>2022-10-06T10:52:04Z</time>
      </trkpt>
      <trkpt lat="44.77618" lon="-0.09553">
        <ele>92.5</ele>
        <time>2022-10-06T10:52:05Z</time>
      </trkpt>
      <trkpt lat="44.77618" lon="-0.09553">
        <ele>92.6</ele>
        <time>2022-10-06T10:52:06Z</time>
      </trkpt>
      <trkpt lat="44.77619" lon="-0.09553">
        <ele>92.6</ele>
        <time>2022-10-06T10:52:07Z</time>
      </trkpt>
      <trkpt lat="44.77621" lon="-0.09552">
        <ele>92.6</ele>
        <time>2022-10-06T10:52:08Z</time>
      </trkpt>
      <trkpt lat="44.77622" lon="-0.09551">
        <ele>92.6</ele>
        <time>2022-10-06T10:52:09Z</time>
      </trkpt>
      <trkpt lat="44.77623" lon="-0.09551">
        <ele>92.7</ele>
        <time>2022-10-06T10:52:10Z</time>
      </trkpt>
      <trkpt lat="44.77625" lon="-0.0955">
        <ele>92.7</ele>
        <time>2022-10-06T10:52:11Z</time>
      </trkpt>
      <trkpt lat="44.77625" lon="-0.0955">
        <ele>92.7</ele>
        <time>2022-10-06T10:52:12Z</time>
      </trkpt>
      <trkpt lat="44.77626" lon="-0.0955">
        <ele>92.7</ele>
        <time>2022-10-06T10:52:13Z</time>
      </trkpt>
      <trkpt lat="44.77627" lon="-0.0955">
        <ele>92.7</ele>
        <time>2022-10-06T10:52:14Z</time>
      </trkpt>
      <trkpt lat="44.77629" lon="-0.09549">
        <ele>92.7</ele>
        <time>2022-10-06T10:52:15Z</time>
      </trkpt>
      <trkpt lat="44.7763" lon="-0.09548">
        <ele>92.8</ele>
        <time>2022-10-06T10:52:16Z</time>
      </trkpt>
      <trkpt lat="44.77631" lon="-0.09548">
        <ele>92.8</ele>
        <time>2022-10-06T10:52:17Z</time>
      </trkpt>
      <trkpt lat="44.77632" lon="-0.09547">
        <ele>92.8</ele>
        <time>2022-10-06T10:52:18Z</time>
      </trkpt>
      <trkpt lat="44.77633" lon="-0.09547">
        <ele>92.9</ele>
        <time>2022-10-06T10:52:19Z</time>
      </trkpt>
      <trkpt lat="44.77635" lon="-0.09547">
        <ele>92.9</ele>
        <time>2022-10-06T10:52:20Z</time>
      </trkpt>
      <trkpt lat="44.77635" lon="-0.09546">
        <ele>92.9</ele>
        <time>2022-10-06T10:52:21Z</time>
      </trkpt>
      <trkpt lat="44.77637" lon="-0.09546">
        <ele>92.9</ele>
        <time>2022-10-06T10:52:22Z</time>
      </trkpt>
      <trkpt lat="44.77638" lon="-0.09545">
        <ele>92.9</ele>
        <time>2022-10-06T10:52:23Z</time>
      </trkpt>
      <trkpt lat="44.7764" lon="-0.09544">
        <ele>93</ele>
        <time>2022-10-06T10:52:24Z</time>
      </trkpt>
      <trkpt lat="44.77641" lon="-0.09544">
        <ele>93</ele>
        <time>2022-10-06T10:52:25Z</time>
      </trkpt>
      <trkpt lat="44.77641" lon="-0.09543">
        <ele>93</ele>
        <time>2022-10-06T10:52:26Z</time>
      </trkpt>
      <trkpt lat="44.77642" lon="-0.09542">
        <ele>93.1</ele>
        <time>2022-10-06T10:52:27Z</time>
      </trkpt>
      <trkpt lat="44.77643" lon="-0.09541">
        <ele>93.1</ele>
        <time>2022-10-06T10:52:28Z</time>
      </trkpt>
      <trkpt lat="44.77644" lon="-0.09541">
        <ele>93.1</ele>
        <time>2022-10-06T10:52:29Z</time>
      </trkpt>
      <trkpt lat="44.77647" lon="-0.0954">
        <ele>93.1</ele>
        <time>2022-10-06T10:52:30Z</time>
      </trkpt>
      <trkpt lat="44.77647" lon="-0.0954">
        <ele>93.1</ele>
        <time>2022-10-06T10:52:31Z</time>
      </trkpt>
      <trkpt lat="44.77648" lon="-0.0954">
        <ele>93.1</ele>
        <time>2022-10-06T10:52:32Z</time>
      </trkpt>
      <trkpt lat="44.7765" lon="-0.0954">
        <ele>93.2</ele>
        <time>2022-10-06T10:52:33Z</time>
      </trkpt>
      <trkpt lat="44.77651" lon="-0.0954">
        <ele>93.3</ele>
        <time>2022-10-06T10:52:34Z</time>
      </trkpt>
      <trkpt lat="44.77653" lon="-0.0954">
        <ele>93.3</ele>
        <time>2022-10-06T10:52:35Z</time>
      </trkpt>
      <trkpt lat="44.77654" lon="-0.09539">
        <ele>93.3</ele>
        <time>2022-10-06T10:52:36Z</time>
      </trkpt>
      <trkpt lat="44.77655" lon="-0.09539">
        <ele>93.3</ele>
        <time>2022-10-06T10:52:37Z</time>
      </trkpt>
      <trkpt lat="44.77656" lon="-0.09539">
        <ele>93.3</ele>
        <time>2022-10-06T10:52:38Z</time>
      </trkpt>
      <trkpt lat="44.77657" lon="-0.09538">
        <ele>93.3</ele>
        <time>2022-10-06T10:52:39Z</time>
      </trkpt>
      <trkpt lat="44.77659" lon="-0.09538">
        <ele>93.3</ele>
        <time>2022-10-06T10:52:40Z</time>
      </trkpt>
      <trkpt lat="44.7766" lon="-0.09537">
        <ele>93.4</ele>
        <time>2022-10-06T10:52:41Z</time>
      </trkpt>
      <trkpt lat="44.77661" lon="-0.09537">
        <ele>93.4</ele>
        <time>2022-10-06T10:52:42Z</time>
      </trkpt>
      <trkpt lat="44.77662" lon="-0.09537">
        <ele>93.4</ele>
        <time>2022-10-06T10:52:43Z</time>
      </trkpt>
      <trkpt lat="44.77663" lon="-0.09536">
        <ele>93.4</ele>
        <time>2022-10-06T10:52:44Z</time>
      </trkpt>
      <trkpt lat="44.77665" lon="-0.09536">
        <ele>93.4</ele>
        <time>2022-10-06T10:52:45Z</time>
      </trkpt>
      <trkpt lat="44.77667" lon="-0.09536">
        <ele>93.4</ele>
        <time>2022-10-06T10:52:47Z</time>
      </trkpt>
      <trkpt lat="44.77668" lon="-0.09536">
        <ele>93.5</ele>
        <time>2022-10-06T10:52:48Z</time>
      </trkpt>
      <trkpt lat="44.7767" lon="-0.09535">
        <ele>93.5</ele>
        <time>2022-10-06T10:52:49Z</time>
      </trkpt>
      <trkpt lat="44.77671" lon="-0.09535">
        <ele>93.5</ele>
        <time>2022-10-06T10:52:50Z</time>
      </trkpt>
      <trkpt lat="44.77672" lon="-0.09535">
        <ele>93.6</ele>
        <time>2022-10-06T10:52:51Z</time>
      </trkpt>
      <trkpt lat="44.77673" lon="-0.09535">
        <ele>93.6</ele>
        <time>2022-10-06T10:52:52Z</time>
      </trkpt>
      <trkpt lat="44.77674" lon="-0.09535">
        <ele>93.6</ele>
        <time>2022-10-06T10:52:53Z</time>
      </trkpt>
      <trkpt lat="44.77676" lon="-0.09534">
        <ele>93.6</ele>
        <time>2022-10-06T10:52:54Z</time>
      </trkpt>
      <trkpt lat="44.77677" lon="-0.09534">
        <ele>93.6</ele>
        <time>2022-10-06T10:52:55Z</time>
      </trkpt>
      <trkpt lat="44.77679" lon="-0.09533">
        <ele>93.6</ele>
        <time>2022-10-06T10:52:56Z</time>
      </trkpt>
      <trkpt lat="44.7768" lon="-0.09533">
        <ele>93.6</ele>
        <time>2022-10-06T10:52:57Z</time>
      </trkpt>
      <trkpt lat="44.77681" lon="-0.09533">
        <ele>93.6</ele>
        <time>2022-10-06T10:52:58Z</time>
      </trkpt>
      <trkpt lat="44.77682" lon="-0.09532">
        <ele>93.6</ele>
        <time>2022-10-06T10:52:59Z</time>
      </trkpt>
      <trkpt lat="44.77683" lon="-0.09532">
        <ele>93.6</ele>
        <time>2022-10-06T10:53:00Z</time>
      </trkpt>
      <trkpt lat="44.77685" lon="-0.09531">
        <ele>93.7</ele>
        <time>2022-10-06T10:53:01Z</time>
      </trkpt>
      <trkpt lat="44.77686" lon="-0.09531">
        <ele>93.7</ele>
        <time>2022-10-06T10:53:02Z</time>
      </trkpt>
      <trkpt lat="44.77687" lon="-0.09531">
        <ele>93.7</ele>
        <time>2022-10-06T10:53:03Z</time>
      </trkpt>
      <trkpt lat="44.77688" lon="-0.09531">
        <ele>93.7</ele>
        <time>2022-10-06T10:53:04Z</time>
      </trkpt>
      <trkpt lat="44.77689" lon="-0.09531">
        <ele>93.7</ele>
        <time>2022-10-06T10:53:05Z</time>
      </trkpt>
      <trkpt lat="44.77691" lon="-0.09531">
        <ele>93.8</ele>
        <time>2022-10-06T10:53:06Z</time>
      </trkpt>
      <trkpt lat="44.77691" lon="-0.0953">
        <ele>93.8</ele>
        <time>2022-10-06T10:53:07Z</time>
      </trkpt>
      <trkpt lat="44.77693" lon="-0.0953">
        <ele>93.8</ele>
        <time>2022-10-06T10:53:08Z</time>
      </trkpt>
      <trkpt lat="44.77694" lon="-0.0953">
        <ele>93.8</ele>
        <time>2022-10-06T10:53:09Z</time>
      </trkpt>
      <trkpt lat="44.77695" lon="-0.09529">
        <ele>93.8</ele>
        <time>2022-10-06T10:53:10Z</time>
      </trkpt>
      <trkpt lat="44.77696" lon="-0.09529">
        <ele>93.8</ele>
        <time>2022-10-06T10:53:11Z</time>
      </trkpt>
      <trkpt lat="44.77697" lon="-0.09528">
        <ele>93.8</ele>
        <time>2022-10-06T10:53:12Z</time>
      </trkpt>
      <trkpt lat="44.77698" lon="-0.09528">
        <ele>93.8</ele>
        <time>2022-10-06T10:53:13Z</time>
      </trkpt>
      <trkpt lat="44.777" lon="-0.09528">
        <ele>93.8</ele>
        <time>2022-10-06T10:53:14Z</time>
      </trkpt>
      <trkpt lat="44.77701" lon="-0.09527">
        <ele>93.8</ele>
        <time>2022-10-06T10:53:15Z</time>
      </trkpt>
      <trkpt lat="44.77702" lon="-0.09527">
        <ele>93.9</ele>
        <time>2022-10-06T10:53:16Z</time>
      </trkpt>
      <trkpt lat="44.77703" lon="-0.09527">
        <ele>93.9</ele>
        <time>2022-10-06T10:53:17Z</time>
      </trkpt>
      <trkpt lat="44.77704" lon="-0.09527">
        <ele>93.9</ele>
        <time>2022-10-06T10:53:18Z</time>
      </trkpt>
      <trkpt lat="44.77705" lon="-0.09527">
        <ele>93.9</ele>
        <time>2022-10-06T10:53:19Z</time>
      </trkpt>
      <trkpt lat="44.77706" lon="-0.09526">
        <ele>93.9</ele>
        <time>2022-10-06T10:53:20Z</time>
      </trkpt>
      <trkpt lat="44.77708" lon="-0.09526">
        <ele>93.9</ele>
        <time>2022-10-06T10:53:21Z</time>
      </trkpt>
      <trkpt lat="44.77709" lon="-0.09526">
        <ele>94</ele>
        <time>2022-10-06T10:53:22Z</time>
      </trkpt>
      <trkpt lat="44.7771" lon="-0.09526">
        <ele>94</ele>
        <time>2022-10-06T10:53:23Z</time>
      </trkpt>
      <trkpt lat="44.77711" lon="-0.09526">
        <ele>94</ele>
        <time>2022-10-06T10:53:24Z</time>
      </trkpt>
      <trkpt lat="44.77712" lon="-0.09526">
        <ele>94</ele>
        <time>2022-10-06T10:53:25Z</time>
      </trkpt>
      <trkpt lat="44.77713" lon="-0.09526">
        <ele>94</ele>
        <time>2022-10-06T10:53:26Z</time>
      </trkpt>
      <trkpt lat="44.77714" lon="-0.09526">
        <ele>94</ele>
        <time>2022-10-06T10:53:27Z</time>
      </trkpt>
      <trkpt lat="44.77715" lon="-0.09526">
        <ele>94</ele>
        <time>2022-10-06T10:53:28Z</time>
      </trkpt>
      <trkpt lat="44.77716" lon="-0.09525">
        <ele>94</ele>
        <time>2022-10-06T10:53:29Z</time>
      </trkpt>
      <trkpt lat="44.77717" lon="-0.09525">
        <ele>94</ele>
        <time>2022-10-06T10:53:30Z</time>
      </trkpt>
      <trkpt lat="44.77718" lon="-0.09524">
        <ele>94</ele>
        <time>2022-10-06T10:53:31Z</time>
      </trkpt>
      <trkpt lat="44.77719" lon="-0.09524">
        <ele>94</ele>
        <time>2022-10-06T10:53:32Z</time>
      </trkpt>
      <trkpt lat="44.7772" lon="-0.09524">
        <ele>94</ele>
        <time>2022-10-06T10:53:33Z</time>
      </trkpt>
      <trkpt lat="44.77721" lon="-0.09524">
        <ele>94</ele>
        <time>2022-10-06T10:53:34Z</time>
      </trkpt>
      <trkpt lat="44.77722" lon="-0.09523">
        <ele>94</ele>
        <time>2022-10-06T10:53:35Z</time>
      </trkpt>
      <trkpt lat="44.77725" lon="-0.09523">
        <ele>94</ele>
        <time>2022-10-06T10:53:36Z</time>
      </trkpt>
      <trkpt lat="44.77726" lon="-0.09523">
        <ele>94</ele>
        <time>2022-10-06T10:53:37Z</time>
      </trkpt>
      <trkpt lat="44.77726" lon="-0.09523">
        <ele>94.1</ele>
        <time>2022-10-06T10:53:38Z</time>
      </trkpt>
      <trkpt lat="44.77729" lon="-0.09523">
        <ele>94.1</ele>
        <time>2022-10-06T10:53:39Z</time>
      </trkpt>
      <trkpt lat="44.7773" lon="-0.09523">
        <ele>94.1</ele>
        <time>2022-10-06T10:53:40Z</time>
      </trkpt>
      <trkpt lat="44.77731" lon="-0.09523">
        <ele>94.1</ele>
        <time>2022-10-06T10:53:41Z</time>
      </trkpt>
      <trkpt lat="44.77731" lon="-0.09523">
        <ele>94.1</ele>
        <time>2022-10-06T10:53:42Z</time>
      </trkpt>
      <trkpt lat="44.77733" lon="-0.09523">
        <ele>94.1</ele>
        <time>2022-10-06T10:53:43Z</time>
      </trkpt>
      <trkpt lat="44.77734" lon="-0.09522">
        <ele>94.1</ele>
        <time>2022-10-06T10:53:44Z</time>
      </trkpt>
      <trkpt lat="44.77735" lon="-0.09522">
        <ele>94.1</ele>
        <time>2022-10-06T10:53:45Z</time>
      </trkpt>
      <trkpt lat="44.77736" lon="-0.09522">
        <ele>94.2</ele>
        <time>2022-10-06T10:53:46Z</time>
      </trkpt>
      <trkpt lat="44.77737" lon="-0.09522">
        <ele>94.2</ele>
        <time>2022-10-06T10:53:47Z</time>
      </trkpt>
      <trkpt lat="44.77738" lon="-0.09522">
        <ele>94.2</ele>
        <time>2022-10-06T10:53:48Z</time>
      </trkpt>
      <trkpt lat="44.77739" lon="-0.09522">
        <ele>94.2</ele>
        <time>2022-10-06T10:53:49Z</time>
      </trkpt>
      <trkpt lat="44.7774" lon="-0.09522">
        <ele>94.2</ele>
        <time>2022-10-06T10:53:50Z</time>
      </trkpt>
      <trkpt lat="44.77742" lon="-0.09522">
        <ele>94.2</ele>
        <time>2022-10-06T10:53:51Z</time>
      </trkpt>
      <trkpt lat="44.77743" lon="-0.09522">
        <ele>94.2</ele>
        <time>2022-10-06T10:53:52Z</time>
      </trkpt>
      <trkpt lat="44.77744" lon="-0.09521">
        <ele>94.2</ele>
        <time>2022-10-06T10:53:53Z</time>
      </trkpt>
      <trkpt lat="44.77746" lon="-0.09521">
        <ele>94.2</ele>
        <time>2022-10-06T10:53:54Z</time>
      </trkpt>
      <trkpt lat="44.77747" lon="-0.09521">
        <ele>94.2</ele>
        <time>2022-10-06T10:53:55Z</time>
      </trkpt>
      <trkpt lat="44.77748" lon="-0.09521">
        <ele>94.2</ele>
        <time>2022-10-06T10:53:56Z</time>
      </trkpt>
      <trkpt lat="44.77748" lon="-0.0952">
        <ele>94.2</ele>
        <time>2022-10-06T10:53:57Z</time>
      </trkpt>
      <trkpt lat="44.77749" lon="-0.0952">
        <ele>94.2</ele>
        <time>2022-10-06T10:53:58Z</time>
      </trkpt>
      <trkpt lat="44.7775" lon="-0.0952">
        <ele>94.2</ele>
        <time>2022-10-06T10:53:59Z</time>
      </trkpt>
      <trkpt lat="44.77751" lon="-0.09521">
        <ele>94.2</ele>
        <time>2022-10-06T10:54:00Z</time>
      </trkpt>
      <trkpt lat="44.77751" lon="-0.09521">
        <ele>94.2</ele>
        <time>2022-10-06T10:54:01Z</time>
      </trkpt>
      <trkpt lat="44.77751" lon="-0.09521">
        <ele>94.2</ele>
        <time>2022-10-06T10:54:02Z</time>
      </trkpt>
      <trkpt lat="44.77751" lon="-0.09521">
        <ele>94.2</ele>
        <time>2022-10-06T10:54:03Z</time>
      </trkpt>
      <trkpt lat="44.77751" lon="-0.09521">
        <ele>94.2</ele>
        <time>2022-10-06T10:54:04Z</time>
      </trkpt>
      <trkpt lat="44.77751" lon="-0.09521">
        <ele>94.2</ele>
        <time>2022-10-06T10:54:05Z</time>
      </trkpt>
      <trkpt lat="44.77752" lon="-0.09521">
        <ele>94.2</ele>
        <time>2022-10-06T10:54:06Z</time>
      </trkpt>
      <trkpt lat="44.77752" lon="-0.09521">
        <ele>94.2</ele>
        <time>2022-10-06T10:54:07Z</time>
      </trkpt>
      <trkpt lat="44.77752" lon="-0.09521">
        <ele>94.2</ele>
        <time>2022-10-06T10:54:08Z</time>
      </trkpt>
      <trkpt lat="44.77752" lon="-0.09521">
        <ele>94.2</ele>
        <time>2022-10-06T10:54:09Z</time>
      </trkpt>
      <trkpt lat="44.77753" lon="-0.09521">
        <ele>94.2</ele>
        <time>2022-10-06T10:54:10Z</time>
      </trkpt>
      <trkpt lat="44.77754" lon="-0.09521">
        <ele>94.3</ele>
        <time>2022-10-06T10:54:11Z</time>
      </trkpt>
      <trkpt lat="44.77755" lon="-0.09521">
        <ele>94.3</ele>
        <time>2022-10-06T10:54:12Z</time>
      </trkpt>
      <trkpt lat="44.77755" lon="-0.0952">
        <ele>94.3</ele>
        <time>2022-10-06T10:54:13Z</time>
      </trkpt>
      <trkpt lat="44.77756" lon="-0.0952">
        <ele>94.3</ele>
        <time>2022-10-06T10:54:14Z</time>
      </trkpt>
      <trkpt lat="44.77757" lon="-0.0952">
        <ele>94.3</ele>
        <time>2022-10-06T10:54:15Z</time>
      </trkpt>
      <trkpt lat="44.77758" lon="-0.09519">
        <ele>94.3</ele>
        <time>2022-10-06T10:54:16Z</time>
      </trkpt>
      <trkpt lat="44.77759" lon="-0.09519">
        <ele>94.3</ele>
        <time>2022-10-06T10:54:17Z</time>
      </trkpt>
      <trkpt lat="44.7776" lon="-0.09518">
        <ele>94.3</ele>
        <time>2022-10-06T10:54:18Z</time>
      </trkpt>
      <trkpt lat="44.77761" lon="-0.09518">
        <ele>94.3</ele>
        <time>2022-10-06T10:54:19Z</time>
      </trkpt>
      <trkpt lat="44.77762" lon="-0.09518">
        <ele>94.3</ele>
        <time>2022-10-06T10:54:20Z</time>
      </trkpt>
      <trkpt lat="44.77763" lon="-0.09518">
        <ele>94.3</ele>
        <time>2022-10-06T10:54:21Z</time>
      </trkpt>
      <trkpt lat="44.77764" lon="-0.09518">
        <ele>94.3</ele>
        <time>2022-10-06T10:54:22Z</time>
      </trkpt>
      <trkpt lat="44.77765" lon="-0.09517">
        <ele>94.3</ele>
        <time>2022-10-06T10:54:23Z</time>
      </trkpt>
      <trkpt lat="44.77766" lon="-0.09517">
        <ele>94.3</ele>
        <time>2022-10-06T10:54:24Z</time>
      </trkpt>
      <trkpt lat="44.77767" lon="-0.09517">
        <ele>94.3</ele>
        <time>2022-10-06T10:54:25Z</time>
      </trkpt>
      <trkpt lat="44.77768" lon="-0.09516">
        <ele>94.3</ele>
        <time>2022-10-06T10:54:26Z</time>
      </trkpt>
      <trkpt lat="44.77769" lon="-0.09516">
        <ele>94.3</ele>
        <time>2022-10-06T10:54:27Z</time>
      </trkpt>
      <trkpt lat="44.7777" lon="-0.09515">
        <ele>94.3</ele>
        <time>2022-10-06T10:54:28Z</time>
      </trkpt>
      <trkpt lat="44.77771" lon="-0.09515">
        <ele>94.3</ele>
        <time>2022-10-06T10:54:29Z</time>
      </trkpt>
      <trkpt lat="44.77772" lon="-0.09515">
        <ele>94.3</ele>
        <time>2022-10-06T10:54:30Z</time>
      </trkpt>
      <trkpt lat="44.77773" lon="-0.09514">
        <ele>94.4</ele>
        <time>2022-10-06T10:54:31Z</time>
      </trkpt>
      <trkpt lat="44.77773" lon="-0.09514">
        <ele>94.4</ele>
        <time>2022-10-06T10:54:32Z</time>
      </trkpt>
      <trkpt lat="44.77774" lon="-0.09514">
        <ele>94.4</ele>
        <time>2022-10-06T10:54:33Z</time>
      </trkpt>
      <trkpt lat="44.77775" lon="-0.09514">
        <ele>94.4</ele>
        <time>2022-10-06T10:54:34Z</time>
      </trkpt>
      <trkpt lat="44.77776" lon="-0.09514">
        <ele>94.4</ele>
        <time>2022-10-06T10:54:35Z</time>
      </trkpt>
      <trkpt lat="44.77778" lon="-0.09514">
        <ele>94.4</ele>
        <time>2022-10-06T10:54:36Z</time>
      </trkpt>
      <trkpt lat="44.77779" lon="-0.09514">
        <ele>94.4</ele>
        <time>2022-10-06T10:54:37Z</time>
      </trkpt>
      <trkpt lat="44.77779" lon="-0.09514">
        <ele>94.4</ele>
        <time>2022-10-06T10:54:38Z</time>
      </trkpt>
      <trkpt lat="44.77781" lon="-0.09513">
        <ele>94.4</ele>
        <time>2022-10-06T10:54:39Z</time>
      </trkpt>
      <trkpt lat="44.77782" lon="-0.09513">
        <ele>94.4</ele>
        <time>2022-10-06T10:54:40Z</time>
      </trkpt>
      <trkpt lat="44.77784" lon="-0.09513">
        <ele>94.4</ele>
        <time>2022-10-06T10:54:41Z</time>
      </trkpt>
      <trkpt lat="44.77785" lon="-0.09513">
        <ele>94.4</ele>
        <time>2022-10-06T10:54:42Z</time>
      </trkpt>
      <trkpt lat="44.77786" lon="-0.09513">
        <ele>94.4</ele>
        <time>2022-10-06T10:54:43Z</time>
      </trkpt>
      <trkpt lat="44.77787" lon="-0.09513">
        <ele>94.4</ele>
        <time>2022-10-06T10:54:44Z</time>
      </trkpt>
      <trkpt lat="44.77787" lon="-0.09513">
        <ele>94.4</ele>
        <time>2022-10-06T10:54:45Z</time>
      </trkpt>
      <trkpt lat="44.77789" lon="-0.09513">
        <ele>94.4</ele>
        <time>2022-10-06T10:54:46Z</time>
      </trkpt>
      <trkpt lat="44.7779" lon="-0.09513">
        <ele>94.4</ele>
        <time>2022-10-06T10:54:47Z</time>
      </trkpt>
      <trkpt lat="44.7779" lon="-0.09513">
        <ele>94.4</ele>
        <time>2022-10-06T10:54:48Z</time>
      </trkpt>
      <trkpt lat="44.77791" lon="-0.09513">
        <ele>94.4</ele>
        <time>2022-10-06T10:54:49Z</time>
      </trkpt>
      <trkpt lat="44.77791" lon="-0.09513">
        <ele>94.4</ele>
        <time>2022-10-06T10:54:50Z</time>
      </trkpt>
      <trkpt lat="44.77792" lon="-0.09513">
        <ele>94.4</ele>
        <time>2022-10-06T10:54:51Z</time>
      </trkpt>
      <trkpt lat="44.77792" lon="-0.09513">
        <ele>94.4</ele>
        <time>2022-10-06T10:54:52Z</time>
      </trkpt>
      <trkpt lat="44.77793" lon="-0.09513">
        <ele>94.4</ele>
        <time>2022-10-06T10:54:53Z</time>
      </trkpt>
      <trkpt lat="44.77794" lon="-0.09513">
        <ele>94.5</ele>
        <time>2022-10-06T10:54:54Z</time>
      </trkpt>
      <trkpt lat="44.77795" lon="-0.09513">
        <ele>94.5</ele>
        <time>2022-10-06T10:54:55Z</time>
      </trkpt>
      <trkpt lat="44.77796" lon="-0.09513">
        <ele>94.5</ele>
        <time>2022-10-06T10:54:56Z</time>
      </trkpt>
      <trkpt lat="44.77797" lon="-0.09513">
        <ele>94.5</ele>
        <time>2022-10-06T10:54:57Z</time>
      </trkpt>
      <trkpt lat="44.77798" lon="-0.09513">
        <ele>94.5</ele>
        <time>2022-10-06T10:54:58Z</time>
      </trkpt>
      <trkpt lat="44.77799" lon="-0.09512">
        <ele>94.5</ele>
        <time>2022-10-06T10:54:59Z</time>
      </trkpt>
      <trkpt lat="44.778" lon="-0.09512">
        <ele>94.5</ele>
        <time>2022-10-06T10:55:00Z</time>
      </trkpt>
      <trkpt lat="44.77801" lon="-0.09512">
        <ele>94.5</ele>
        <time>2022-10-06T10:55:01Z</time>
      </trkpt>
      <trkpt lat="44.77802" lon="-0.09512">
        <ele>94.5</ele>
        <time>2022-10-06T10:55:02Z</time>
      </trkpt>
      <trkpt lat="44.77803" lon="-0.09512">
        <ele>94.5</ele>
        <time>2022-10-06T10:55:03Z</time>
      </trkpt>
      <trkpt lat="44.77805" lon="-0.09512">
        <ele>94.5</ele>
        <time>2022-10-06T10:55:04Z</time>
      </trkpt>
      <trkpt lat="44.77806" lon="-0.09512">
        <ele>94.5</ele>
        <time>2022-10-06T10:55:05Z</time>
      </trkpt>
      <trkpt lat="44.77807" lon="-0.09511">
        <ele>94.5</ele>
        <time>2022-10-06T10:55:06Z</time>
      </trkpt>
      <trkpt lat="44.77808" lon="-0.09511">
        <ele>94.5</ele>
        <time>2022-10-06T10:55:07Z</time>
      </trkpt>
      <trkpt lat="44.77809" lon="-0.0951">
        <ele>94.6</ele>
        <time>2022-10-06T10:55:08Z</time>
      </trkpt>
      <trkpt lat="44.7781" lon="-0.0951">
        <ele>94.6</ele>
        <time>2022-10-06T10:55:09Z</time>
      </trkpt>
      <trkpt lat="44.77811" lon="-0.0951">
        <ele>94.6</ele>
        <time>2022-10-06T10:55:10Z</time>
      </trkpt>
      <trkpt lat="44.77813" lon="-0.09509">
        <ele>94.6</ele>
        <time>2022-10-06T10:55:11Z</time>
      </trkpt>
      <trkpt lat="44.77815" lon="-0.09509">
        <ele>94.6</ele>
        <time>2022-10-06T10:55:12Z</time>
      </trkpt>
      <trkpt lat="44.77815" lon="-0.09508">
        <ele>94.6</ele>
        <time>2022-10-06T10:55:13Z</time>
      </trkpt>
      <trkpt lat="44.77816" lon="-0.09508">
        <ele>94.6</ele>
        <time>2022-10-06T10:55:14Z</time>
      </trkpt>
      <trkpt lat="44.77817" lon="-0.09508">
        <ele>94.6</ele>
        <time>2022-10-06T10:55:15Z</time>
      </trkpt>
      <trkpt lat="44.77818" lon="-0.09508">
        <ele>94.6</ele>
        <time>2022-10-06T10:55:16Z</time>
      </trkpt>
      <trkpt lat="44.77819" lon="-0.09507">
        <ele>94.6</ele>
        <time>2022-10-06T10:55:17Z</time>
      </trkpt>
      <trkpt lat="44.7782" lon="-0.09506">
        <ele>94.6</ele>
        <time>2022-10-06T10:55:18Z</time>
      </trkpt>
      <trkpt lat="44.77822" lon="-0.09506">
        <ele>94.6</ele>
        <time>2022-10-06T10:55:19Z</time>
      </trkpt>
      <trkpt lat="44.77823" lon="-0.09505">
        <ele>94.6</ele>
        <time>2022-10-06T10:55:20Z</time>
      </trkpt>
      <trkpt lat="44.77824" lon="-0.09505">
        <ele>94.6</ele>
        <time>2022-10-06T10:55:21Z</time>
      </trkpt>
      <trkpt lat="44.77825" lon="-0.09505">
        <ele>94.7</ele>
        <time>2022-10-06T10:55:22Z</time>
      </trkpt>
      <trkpt lat="44.77826" lon="-0.09505">
        <ele>94.7</ele>
        <time>2022-10-06T10:55:23Z</time>
      </trkpt>
      <trkpt lat="44.77827" lon="-0.09505">
        <ele>94.7</ele>
        <time>2022-10-06T10:55:24Z</time>
      </trkpt>
      <trkpt lat="44.77828" lon="-0.09505">
        <ele>94.7</ele>
        <time>2022-10-06T10:55:25Z</time>
      </trkpt>
      <trkpt lat="44.7783" lon="-0.09504">
        <ele>94.7</ele>
        <time>2022-10-06T10:55:26Z</time>
      </trkpt>
      <trkpt lat="44.77831" lon="-0.09504">
        <ele>94.7</ele>
        <time>2022-10-06T10:55:27Z</time>
      </trkpt>
      <trkpt lat="44.77832" lon="-0.09504">
        <ele>94.7</ele>
        <time>2022-10-06T10:55:28Z</time>
      </trkpt>
      <trkpt lat="44.77833" lon="-0.09504">
        <ele>94.7</ele>
        <time>2022-10-06T10:55:29Z</time>
      </trkpt>
      <trkpt lat="44.77834" lon="-0.09504">
        <ele>94.8</ele>
        <time>2022-10-06T10:55:30Z</time>
      </trkpt>
      <trkpt lat="44.77836" lon="-0.09503">
        <ele>94.8</ele>
        <time>2022-10-06T10:55:31Z</time>
      </trkpt>
      <trkpt lat="44.77837" lon="-0.09503">
        <ele>94.8</ele>
        <time>2022-10-06T10:55:32Z</time>
      </trkpt>
      <trkpt lat="44.77838" lon="-0.09502">
        <ele>94.8</ele>
        <time>2022-10-06T10:55:33Z</time>
      </trkpt>
      <trkpt lat="44.7784" lon="-0.09502">
        <ele>94.8</ele>
        <time>2022-10-06T10:55:34Z</time>
      </trkpt>
      <trkpt lat="44.77841" lon="-0.09501">
        <ele>94.8</ele>
        <time>2022-10-06T10:55:35Z</time>
      </trkpt>
      <trkpt lat="44.77842" lon="-0.09501">
        <ele>94.8</ele>
        <time>2022-10-06T10:55:36Z</time>
      </trkpt>
      <trkpt lat="44.77843" lon="-0.09501">
        <ele>94.8</ele>
        <time>2022-10-06T10:55:37Z</time>
      </trkpt>
      <trkpt lat="44.77844" lon="-0.09501">
        <ele>94.8</ele>
        <time>2022-10-06T10:55:38Z</time>
      </trkpt>
      <trkpt lat="44.77846" lon="-0.09501">
        <ele>94.9</ele>
        <time>2022-10-06T10:55:39Z</time>
      </trkpt>
      <trkpt lat="44.77847" lon="-0.095">
        <ele>94.9</ele>
        <time>2022-10-06T10:55:40Z</time>
      </trkpt>
      <trkpt lat="44.77848" lon="-0.095">
        <ele>94.9</ele>
        <time>2022-10-06T10:55:41Z</time>
      </trkpt>
      <trkpt lat="44.77849" lon="-0.095">
        <ele>94.9</ele>
        <time>2022-10-06T10:55:42Z</time>
      </trkpt>
      <trkpt lat="44.7785" lon="-0.095">
        <ele>94.9</ele>
        <time>2022-10-06T10:55:43Z</time>
      </trkpt>
      <trkpt lat="44.77852" lon="-0.09499">
        <ele>95</ele>
        <time>2022-10-06T10:55:44Z</time>
      </trkpt>
      <trkpt lat="44.77853" lon="-0.09499">
        <ele>95</ele>
        <time>2022-10-06T10:55:45Z</time>
      </trkpt>
      <trkpt lat="44.77854" lon="-0.09499">
        <ele>95</ele>
        <time>2022-10-06T10:55:46Z</time>
      </trkpt>
      <trkpt lat="44.77855" lon="-0.09499">
        <ele>95</ele>
        <time>2022-10-06T10:55:47Z</time>
      </trkpt>
      <trkpt lat="44.77857" lon="-0.09498">
        <ele>95</ele>
        <time>2022-10-06T10:55:48Z</time>
      </trkpt>
      <trkpt lat="44.77858" lon="-0.09498">
        <ele>95</ele>
        <time>2022-10-06T10:55:49Z</time>
      </trkpt>
      <trkpt lat="44.77859" lon="-0.09498">
        <ele>95.1</ele>
        <time>2022-10-06T10:55:50Z</time>
      </trkpt>
      <trkpt lat="44.7786" lon="-0.09497">
        <ele>95.1</ele>
        <time>2022-10-06T10:55:51Z</time>
      </trkpt>
      <trkpt lat="44.77862" lon="-0.09497">
        <ele>95</ele>
        <time>2022-10-06T10:55:52Z</time>
      </trkpt>
      <trkpt lat="44.77864" lon="-0.09496">
        <ele>95</ele>
        <time>2022-10-06T10:55:53Z</time>
      </trkpt>
      <trkpt lat="44.77865" lon="-0.09496">
        <ele>95.1</ele>
        <time>2022-10-06T10:55:54Z</time>
      </trkpt>
      <trkpt lat="44.77866" lon="-0.09495">
        <ele>95.1</ele>
        <time>2022-10-06T10:55:55Z</time>
      </trkpt>
      <trkpt lat="44.77867" lon="-0.09495">
        <ele>95.1</ele>
        <time>2022-10-06T10:55:56Z</time>
      </trkpt>
      <trkpt lat="44.77867" lon="-0.09495">
        <ele>95.1</ele>
        <time>2022-10-06T10:55:57Z</time>
      </trkpt>
      <trkpt lat="44.77868" lon="-0.09494">
        <ele>95.1</ele>
        <time>2022-10-06T10:55:58Z</time>
      </trkpt>
      <trkpt lat="44.77871" lon="-0.09494">
        <ele>95.2</ele>
        <time>2022-10-06T10:55:59Z</time>
      </trkpt>
      <trkpt lat="44.77871" lon="-0.09494">
        <ele>95.2</ele>
        <time>2022-10-06T10:56:00Z</time>
      </trkpt>
      <trkpt lat="44.77872" lon="-0.09494">
        <ele>95.2</ele>
        <time>2022-10-06T10:56:01Z</time>
      </trkpt>
      <trkpt lat="44.77873" lon="-0.09494">
        <ele>95.2</ele>
        <time>2022-10-06T10:56:02Z</time>
      </trkpt>
      <trkpt lat="44.77874" lon="-0.09494">
        <ele>95.2</ele>
        <time>2022-10-06T10:56:03Z</time>
      </trkpt>
      <trkpt lat="44.77875" lon="-0.09493">
        <ele>95.2</ele>
        <time>2022-10-06T10:56:04Z</time>
      </trkpt>
      <trkpt lat="44.77876" lon="-0.09493">
        <ele>95.2</ele>
        <time>2022-10-06T10:56:05Z</time>
      </trkpt>
      <trkpt lat="44.77876" lon="-0.09493">
        <ele>95.2</ele>
        <time>2022-10-06T10:56:06Z</time>
      </trkpt>
      <trkpt lat="44.77877" lon="-0.09493">
        <ele>95.2</ele>
        <time>2022-10-06T10:56:07Z</time>
      </trkpt>
      <trkpt lat="44.77878" lon="-0.09493">
        <ele>95.2</ele>
        <time>2022-10-06T10:56:08Z</time>
      </trkpt>
      <trkpt lat="44.77879" lon="-0.09493">
        <ele>95.2</ele>
        <time>2022-10-06T10:56:09Z</time>
      </trkpt>
      <trkpt lat="44.7788" lon="-0.09493">
        <ele>95.2</ele>
        <time>2022-10-06T10:56:10Z</time>
      </trkpt>
      <trkpt lat="44.77881" lon="-0.09492">
        <ele>95.2</ele>
        <time>2022-10-06T10:56:11Z</time>
      </trkpt>
      <trkpt lat="44.77882" lon="-0.09492">
        <ele>95.2</ele>
        <time>2022-10-06T10:56:12Z</time>
      </trkpt>
      <trkpt lat="44.77883" lon="-0.09492">
        <ele>95.2</ele>
        <time>2022-10-06T10:56:13Z</time>
      </trkpt>
      <trkpt lat="44.77885" lon="-0.09491">
        <ele>95.2</ele>
        <time>2022-10-06T10:56:14Z</time>
      </trkpt>
      <trkpt lat="44.77886" lon="-0.09491">
        <ele>95.2</ele>
        <time>2022-10-06T10:56:15Z</time>
      </trkpt>
      <trkpt lat="44.77887" lon="-0.0949">
        <ele>95.2</ele>
        <time>2022-10-06T10:56:16Z</time>
      </trkpt>
      <trkpt lat="44.77888" lon="-0.0949">
        <ele>95.2</ele>
        <time>2022-10-06T10:56:17Z</time>
      </trkpt>
      <trkpt lat="44.77889" lon="-0.0949">
        <ele>95.3</ele>
        <time>2022-10-06T10:56:18Z</time>
      </trkpt>
      <trkpt lat="44.77891" lon="-0.09489">
        <ele>95.3</ele>
        <time>2022-10-06T10:56:19Z</time>
      </trkpt>
      <trkpt lat="44.77892" lon="-0.09489">
        <ele>95.3</ele>
        <time>2022-10-06T10:56:20Z</time>
      </trkpt>
      <trkpt lat="44.77893" lon="-0.09489">
        <ele>95.3</ele>
        <time>2022-10-06T10:56:21Z</time>
      </trkpt>
      <trkpt lat="44.77894" lon="-0.09489">
        <ele>95.3</ele>
        <time>2022-10-06T10:56:22Z</time>
      </trkpt>
      <trkpt lat="44.77895" lon="-0.09488">
        <ele>95.2</ele>
        <time>2022-10-06T10:56:23Z</time>
      </trkpt>
      <trkpt lat="44.77897" lon="-0.09488">
        <ele>95.2</ele>
        <time>2022-10-06T10:56:24Z</time>
      </trkpt>
      <trkpt lat="44.77898" lon="-0.09488">
        <ele>95.2</ele>
        <time>2022-10-06T10:56:25Z</time>
      </trkpt>
      <trkpt lat="44.77899" lon="-0.09488">
        <ele>95.2</ele>
        <time>2022-10-06T10:56:26Z</time>
      </trkpt>
      <trkpt lat="44.77899" lon="-0.09488">
        <ele>95.2</ele>
        <time>2022-10-06T10:56:27Z</time>
      </trkpt>
      <trkpt lat="44.779" lon="-0.09488">
        <ele>95.2</ele>
        <time>2022-10-06T10:56:28Z</time>
      </trkpt>
      <trkpt lat="44.77901" lon="-0.09487">
        <ele>95.2</ele>
        <time>2022-10-06T10:56:29Z</time>
      </trkpt>
      <trkpt lat="44.77902" lon="-0.09487">
        <ele>95.2</ele>
        <time>2022-10-06T10:56:30Z</time>
      </trkpt>
      <trkpt lat="44.77904" lon="-0.09487">
        <ele>95.2</ele>
        <time>2022-10-06T10:56:31Z</time>
      </trkpt>
      <trkpt lat="44.77905" lon="-0.09486">
        <ele>95.2</ele>
        <time>2022-10-06T10:56:32Z</time>
      </trkpt>
      <trkpt lat="44.77906" lon="-0.09486">
        <ele>95.2</ele>
        <time>2022-10-06T10:56:33Z</time>
      </trkpt>
      <trkpt lat="44.77908" lon="-0.09486">
        <ele>95.2</ele>
        <time>2022-10-06T10:56:34Z</time>
      </trkpt>
      <trkpt lat="44.77908" lon="-0.09486">
        <ele>95.2</ele>
        <time>2022-10-06T10:56:35Z</time>
      </trkpt>
      <trkpt lat="44.77909" lon="-0.09486">
        <ele>95.2</ele>
        <time>2022-10-06T10:56:36Z</time>
      </trkpt>
      <trkpt lat="44.77911" lon="-0.09486">
        <ele>95.2</ele>
        <time>2022-10-06T10:56:37Z</time>
      </trkpt>
      <trkpt lat="44.77912" lon="-0.09485">
        <ele>95.2</ele>
        <time>2022-10-06T10:56:38Z</time>
      </trkpt>
      <trkpt lat="44.77913" lon="-0.09485">
        <ele>95.2</ele>
        <time>2022-10-06T10:56:39Z</time>
      </trkpt>
      <trkpt lat="44.77914" lon="-0.09485">
        <ele>95.2</ele>
        <time>2022-10-06T10:56:40Z</time>
      </trkpt>
      <trkpt lat="44.77915" lon="-0.09485">
        <ele>95.2</ele>
        <time>2022-10-06T10:56:41Z</time>
      </trkpt>
      <trkpt lat="44.77916" lon="-0.09485">
        <ele>95.2</ele>
        <time>2022-10-06T10:56:42Z</time>
      </trkpt>
      <trkpt lat="44.77917" lon="-0.09485">
        <ele>95.2</ele>
        <time>2022-10-06T10:56:43Z</time>
      </trkpt>
      <trkpt lat="44.77919" lon="-0.09484">
        <ele>95.2</ele>
        <time>2022-10-06T10:56:44Z</time>
      </trkpt>
      <trkpt lat="44.7792" lon="-0.09484">
        <ele>95.1</ele>
        <time>2022-10-06T10:56:45Z</time>
      </trkpt>
      <trkpt lat="44.77921" lon="-0.09484">
        <ele>95.1</ele>
        <time>2022-10-06T10:56:46Z</time>
      </trkpt>
      <trkpt lat="44.77922" lon="-0.09484">
        <ele>95.1</ele>
        <time>2022-10-06T10:56:47Z</time>
      </trkpt>
      <trkpt lat="44.77923" lon="-0.09483">
        <ele>95.1</ele>
        <time>2022-10-06T10:56:48Z</time>
      </trkpt>
      <trkpt lat="44.77926" lon="-0.09483">
        <ele>95</ele>
        <time>2022-10-06T10:56:49Z</time>
      </trkpt>
      <trkpt lat="44.77927" lon="-0.09482">
        <ele>95</ele>
        <time>2022-10-06T10:56:50Z</time>
      </trkpt>
      <trkpt lat="44.77928" lon="-0.09482">
        <ele>95</ele>
        <time>2022-10-06T10:56:51Z</time>
      </trkpt>
      <trkpt lat="44.77929" lon="-0.09482">
        <ele>95</ele>
        <time>2022-10-06T10:56:52Z</time>
      </trkpt>
      <trkpt lat="44.7793" lon="-0.09482">
        <ele>95</ele>
        <time>2022-10-06T10:56:53Z</time>
      </trkpt>
      <trkpt lat="44.77932" lon="-0.09481">
        <ele>95</ele>
        <time>2022-10-06T10:56:54Z</time>
      </trkpt>
      <trkpt lat="44.77933" lon="-0.09481">
        <ele>95</ele>
        <time>2022-10-06T10:56:55Z</time>
      </trkpt>
      <trkpt lat="44.77933" lon="-0.09481">
        <ele>95</ele>
        <time>2022-10-06T10:56:56Z</time>
      </trkpt>
      <trkpt lat="44.77936" lon="-0.0948">
        <ele>95</ele>
        <time>2022-10-06T10:56:57Z</time>
      </trkpt>
      <trkpt lat="44.77937" lon="-0.0948">
        <ele>95</ele>
        <time>2022-10-06T10:56:58Z</time>
      </trkpt>
      <trkpt lat="44.77938" lon="-0.0948">
        <ele>94.9</ele>
        <time>2022-10-06T10:56:59Z</time>
      </trkpt>
      <trkpt lat="44.77938" lon="-0.0948">
        <ele>94.9</ele>
        <time>2022-10-06T10:57:00Z</time>
      </trkpt>
      <trkpt lat="44.7794" lon="-0.09479">
        <ele>94.9</ele>
        <time>2022-10-06T10:57:01Z</time>
      </trkpt>
      <trkpt lat="44.77941" lon="-0.09479">
        <ele>94.8</ele>
        <time>2022-10-06T10:57:02Z</time>
      </trkpt>
      <trkpt lat="44.77942" lon="-0.09479">
        <ele>94.8</ele>
        <time>2022-10-06T10:57:03Z</time>
      </trkpt>
      <trkpt lat="44.77944" lon="-0.09478">
        <ele>94.8</ele>
        <time>2022-10-06T10:57:04Z</time>
      </trkpt>
      <trkpt lat="44.77945" lon="-0.09478">
        <ele>94.8</ele>
        <time>2022-10-06T10:57:05Z</time>
      </trkpt>
      <trkpt lat="44.77946" lon="-0.09478">
        <ele>94.8</ele>
        <time>2022-10-06T10:57:06Z</time>
      </trkpt>
      <trkpt lat="44.77947" lon="-0.09478">
        <ele>94.8</ele>
        <time>2022-10-06T10:57:07Z</time>
      </trkpt>
      <trkpt lat="44.77949" lon="-0.09478">
        <ele>94.8</ele>
        <time>2022-10-06T10:57:08Z</time>
      </trkpt>
      <trkpt lat="44.7795" lon="-0.09477">
        <ele>94.8</ele>
        <time>2022-10-06T10:57:09Z</time>
      </trkpt>
      <trkpt lat="44.77951" lon="-0.09477">
        <ele>94.8</ele>
        <time>2022-10-06T10:57:10Z</time>
      </trkpt>
      <trkpt lat="44.77952" lon="-0.09476">
        <ele>94.7</ele>
        <time>2022-10-06T10:57:11Z</time>
      </trkpt>
      <trkpt lat="44.77953" lon="-0.09476">
        <ele>94.7</ele>
        <time>2022-10-06T10:57:12Z</time>
      </trkpt>
      <trkpt lat="44.77954" lon="-0.09476">
        <ele>94.7</ele>
        <time>2022-10-06T10:57:13Z</time>
      </trkpt>
      <trkpt lat="44.77957" lon="-0.09475">
        <ele>94.6</ele>
        <time>2022-10-06T10:57:14Z</time>
      </trkpt>
      <trkpt lat="44.77958" lon="-0.09475">
        <ele>94.6</ele>
        <time>2022-10-06T10:57:15Z</time>
      </trkpt>
      <trkpt lat="44.77959" lon="-0.09475">
        <ele>94.6</ele>
        <time>2022-10-06T10:57:16Z</time>
      </trkpt>
      <trkpt lat="44.7796" lon="-0.09475">
        <ele>94.6</ele>
        <time>2022-10-06T10:57:17Z</time>
      </trkpt>
      <trkpt lat="44.7796" lon="-0.09475">
        <ele>94.6</ele>
        <time>2022-10-06T10:57:18Z</time>
      </trkpt>
      <trkpt lat="44.77963" lon="-0.09474">
        <ele>94.6</ele>
        <time>2022-10-06T10:57:19Z</time>
      </trkpt>
      <trkpt lat="44.77964" lon="-0.09474">
        <ele>94.6</ele>
        <time>2022-10-06T10:57:20Z</time>
      </trkpt>
      <trkpt lat="44.77964" lon="-0.09474">
        <ele>94.5</ele>
        <time>2022-10-06T10:57:21Z</time>
      </trkpt>
      <trkpt lat="44.77966" lon="-0.09473">
        <ele>94.5</ele>
        <time>2022-10-06T10:57:22Z</time>
      </trkpt>
      <trkpt lat="44.77967" lon="-0.09473">
        <ele>94.5</ele>
        <time>2022-10-06T10:57:23Z</time>
      </trkpt>
      <trkpt lat="44.77968" lon="-0.09473">
        <ele>94.5</ele>
        <time>2022-10-06T10:57:24Z</time>
      </trkpt>
      <trkpt lat="44.7797" lon="-0.09472">
        <ele>94.5</ele>
        <time>2022-10-06T10:57:25Z</time>
      </trkpt>
      <trkpt lat="44.77971" lon="-0.09472">
        <ele>94.5</ele>
        <time>2022-10-06T10:57:26Z</time>
      </trkpt>
      <trkpt lat="44.77972" lon="-0.09472">
        <ele>94.5</ele>
        <time>2022-10-06T10:57:27Z</time>
      </trkpt>
      <trkpt lat="44.77973" lon="-0.09472">
        <ele>94.5</ele>
        <time>2022-10-06T10:57:28Z</time>
      </trkpt>
      <trkpt lat="44.77974" lon="-0.09472">
        <ele>94.4</ele>
        <time>2022-10-06T10:57:29Z</time>
      </trkpt>
      <trkpt lat="44.77976" lon="-0.09471">
        <ele>94.4</ele>
        <time>2022-10-06T10:57:30Z</time>
      </trkpt>
      <trkpt lat="44.77977" lon="-0.09471">
        <ele>94.4</ele>
        <time>2022-10-06T10:57:31Z</time>
      </trkpt>
      <trkpt lat="44.77979" lon="-0.09471">
        <ele>94.4</ele>
        <time>2022-10-06T10:57:32Z</time>
      </trkpt>
      <trkpt lat="44.7798" lon="-0.09471">
        <ele>94.3</ele>
        <time>2022-10-06T10:57:33Z</time>
      </trkpt>
      <trkpt lat="44.77981" lon="-0.09471">
        <ele>94.3</ele>
        <time>2022-10-06T10:57:34Z</time>
      </trkpt>
      <trkpt lat="44.77983" lon="-0.09471">
        <ele>94.3</ele>
        <time>2022-10-06T10:57:35Z</time>
      </trkpt>
      <trkpt lat="44.77984" lon="-0.09471">
        <ele>94.3</ele>
        <time>2022-10-06T10:57:36Z</time>
      </trkpt>
      <trkpt lat="44.77985" lon="-0.09471">
        <ele>94.3</ele>
        <time>2022-10-06T10:57:37Z</time>
      </trkpt>
      <trkpt lat="44.77987" lon="-0.0947">
        <ele>94.3</ele>
        <time>2022-10-06T10:57:38Z</time>
      </trkpt>
      <trkpt lat="44.77988" lon="-0.0947">
        <ele>94.3</ele>
        <time>2022-10-06T10:57:39Z</time>
      </trkpt>
      <trkpt lat="44.77989" lon="-0.0947">
        <ele>94.2</ele>
        <time>2022-10-06T10:57:40Z</time>
      </trkpt>
      <trkpt lat="44.7799" lon="-0.0947">
        <ele>94.2</ele>
        <time>2022-10-06T10:57:41Z</time>
      </trkpt>
      <trkpt lat="44.77991" lon="-0.0947">
        <ele>94.2</ele>
        <time>2022-10-06T10:57:42Z</time>
      </trkpt>
      <trkpt lat="44.77992" lon="-0.0947">
        <ele>94.2</ele>
        <time>2022-10-06T10:57:43Z</time>
      </trkpt>
      <trkpt lat="44.77994" lon="-0.0947">
        <ele>94.2</ele>
        <time>2022-10-06T10:57:44Z</time>
      </trkpt>
      <trkpt lat="44.77995" lon="-0.09469">
        <ele>94.2</ele>
        <time>2022-10-06T10:57:45Z</time>
      </trkpt>
      <trkpt lat="44.77996" lon="-0.09469">
        <ele>94.2</ele>
        <time>2022-10-06T10:57:46Z</time>
      </trkpt>
      <trkpt lat="44.77997" lon="-0.09469">
        <ele>94.2</ele>
        <time>2022-10-06T10:57:47Z</time>
      </trkpt>
      <trkpt lat="44.77998" lon="-0.09469">
        <ele>94.1</ele>
        <time>2022-10-06T10:57:48Z</time>
      </trkpt>
      <trkpt lat="44.77999" lon="-0.09469">
        <ele>94.1</ele>
        <time>2022-10-06T10:57:49Z</time>
      </trkpt>
      <trkpt lat="44.78001" lon="-0.09469">
        <ele>94.1</ele>
        <time>2022-10-06T10:57:50Z</time>
      </trkpt>
      <trkpt lat="44.78002" lon="-0.09469">
        <ele>94.1</ele>
        <time>2022-10-06T10:57:51Z</time>
      </trkpt>
      <trkpt lat="44.78003" lon="-0.09468">
        <ele>94.1</ele>
        <time>2022-10-06T10:57:52Z</time>
      </trkpt>
      <trkpt lat="44.78004" lon="-0.09468">
        <ele>94</ele>
        <time>2022-10-06T10:57:53Z</time>
      </trkpt>
      <trkpt lat="44.78005" lon="-0.09468">
        <ele>94</ele>
        <time>2022-10-06T10:57:54Z</time>
      </trkpt>
      <trkpt lat="44.78008" lon="-0.09467">
        <ele>94</ele>
        <time>2022-10-06T10:57:55Z</time>
      </trkpt>
      <trkpt lat="44.78008" lon="-0.09467">
        <ele>93.9</ele>
        <time>2022-10-06T10:57:56Z</time>
      </trkpt>
      <trkpt lat="44.78009" lon="-0.09467">
        <ele>93.9</ele>
        <time>2022-10-06T10:57:57Z</time>
      </trkpt>
      <trkpt lat="44.7801" lon="-0.09467">
        <ele>93.9</ele>
        <time>2022-10-06T10:57:58Z</time>
      </trkpt>
      <trkpt lat="44.78012" lon="-0.09466">
        <ele>93.9</ele>
        <time>2022-10-06T10:57:59Z</time>
      </trkpt>
      <trkpt lat="44.78014" lon="-0.09466">
        <ele>93.8</ele>
        <time>2022-10-06T10:58:00Z</time>
      </trkpt>
      <trkpt lat="44.78015" lon="-0.09466">
        <ele>93.8</ele>
        <time>2022-10-06T10:58:01Z</time>
      </trkpt>
      <trkpt lat="44.78016" lon="-0.09466">
        <ele>93.8</ele>
        <time>2022-10-06T10:58:02Z</time>
      </trkpt>
      <trkpt lat="44.78017" lon="-0.09466">
        <ele>93.8</ele>
        <time>2022-10-06T10:58:03Z</time>
      </trkpt>
      <trkpt lat="44.78018" lon="-0.09466">
        <ele>93.8</ele>
        <time>2022-10-06T10:58:04Z</time>
      </trkpt>
      <trkpt lat="44.7802" lon="-0.09466">
        <ele>93.8</ele>
        <time>2022-10-06T10:58:05Z</time>
      </trkpt>
      <trkpt lat="44.78021" lon="-0.09466">
        <ele>93.8</ele>
        <time>2022-10-06T10:58:06Z</time>
      </trkpt>
      <trkpt lat="44.78022" lon="-0.09466">
        <ele>93.7</ele>
        <time>2022-10-06T10:58:07Z</time>
      </trkpt>
      <trkpt lat="44.78023" lon="-0.09466">
        <ele>93.7</ele>
        <time>2022-10-06T10:58:08Z</time>
      </trkpt>
      <trkpt lat="44.78024" lon="-0.09466">
        <ele>93.7</ele>
        <time>2022-10-06T10:58:09Z</time>
      </trkpt>
      <trkpt lat="44.78026" lon="-0.09466">
        <ele>93.7</ele>
        <time>2022-10-06T10:58:10Z</time>
      </trkpt>
      <trkpt lat="44.78027" lon="-0.09466">
        <ele>93.7</ele>
        <time>2022-10-06T10:58:11Z</time>
      </trkpt>
      <trkpt lat="44.78028" lon="-0.09465">
        <ele>93.7</ele>
        <time>2022-10-06T10:58:12Z</time>
      </trkpt>
      <trkpt lat="44.7803" lon="-0.09465">
        <ele>93.6</ele>
        <time>2022-10-06T10:58:13Z</time>
      </trkpt>
      <trkpt lat="44.78031" lon="-0.09465">
        <ele>93.6</ele>
        <time>2022-10-06T10:58:14Z</time>
      </trkpt>
      <trkpt lat="44.78032" lon="-0.09465">
        <ele>93.6</ele>
        <time>2022-10-06T10:58:15Z</time>
      </trkpt>
      <trkpt lat="44.78033" lon="-0.09465">
        <ele>93.6</ele>
        <time>2022-10-06T10:58:16Z</time>
      </trkpt>
      <trkpt lat="44.78035" lon="-0.09465">
        <ele>93.5</ele>
        <time>2022-10-06T10:58:17Z</time>
      </trkpt>
      <trkpt lat="44.78036" lon="-0.09465">
        <ele>93.5</ele>
        <time>2022-10-06T10:58:18Z</time>
      </trkpt>
      <trkpt lat="44.78037" lon="-0.09465">
        <ele>93.5</ele>
        <time>2022-10-06T10:58:19Z</time>
      </trkpt>
      <trkpt lat="44.78038" lon="-0.09465">
        <ele>93.5</ele>
        <time>2022-10-06T10:58:20Z</time>
      </trkpt>
      <trkpt lat="44.78039" lon="-0.09465">
        <ele>93.5</ele>
        <time>2022-10-06T10:58:21Z</time>
      </trkpt>
      <trkpt lat="44.78041" lon="-0.09465">
        <ele>93.4</ele>
        <time>2022-10-06T10:58:22Z</time>
      </trkpt>
      <trkpt lat="44.78042" lon="-0.09464">
        <ele>93.4</ele>
        <time>2022-10-06T10:58:23Z</time>
      </trkpt>
      <trkpt lat="44.78043" lon="-0.09464">
        <ele>93.4</ele>
        <time>2022-10-06T10:58:24Z</time>
      </trkpt>
      <trkpt lat="44.78044" lon="-0.09464">
        <ele>93.4</ele>
        <time>2022-10-06T10:58:25Z</time>
      </trkpt>
      <trkpt lat="44.78045" lon="-0.09464">
        <ele>93.4</ele>
        <time>2022-10-06T10:58:26Z</time>
      </trkpt>
      <trkpt lat="44.78046" lon="-0.09464">
        <ele>93.3</ele>
        <time>2022-10-06T10:58:27Z</time>
      </trkpt>
      <trkpt lat="44.78048" lon="-0.09464">
        <ele>93.3</ele>
        <time>2022-10-06T10:58:28Z</time>
      </trkpt>
      <trkpt lat="44.78049" lon="-0.09464">
        <ele>93.3</ele>
        <time>2022-10-06T10:58:29Z</time>
      </trkpt>
      <trkpt lat="44.7805" lon="-0.09464">
        <ele>93.3</ele>
        <time>2022-10-06T10:58:30Z</time>
      </trkpt>
      <trkpt lat="44.78052" lon="-0.09464">
        <ele>93.3</ele>
        <time>2022-10-06T10:58:31Z</time>
      </trkpt>
      <trkpt lat="44.78053" lon="-0.09464">
        <ele>93.3</ele>
        <time>2022-10-06T10:58:32Z</time>
      </trkpt>
      <trkpt lat="44.78054" lon="-0.09463">
        <ele>93.3</ele>
        <time>2022-10-06T10:58:33Z</time>
      </trkpt>
      <trkpt lat="44.78055" lon="-0.09463">
        <ele>93.3</ele>
        <time>2022-10-06T10:58:34Z</time>
      </trkpt>
      <trkpt lat="44.78056" lon="-0.09463">
        <ele>93.2</ele>
        <time>2022-10-06T10:58:35Z</time>
      </trkpt>
      <trkpt lat="44.78057" lon="-0.09463">
        <ele>93.2</ele>
        <time>2022-10-06T10:58:36Z</time>
      </trkpt>
      <trkpt lat="44.78058" lon="-0.09463">
        <ele>93.2</ele>
        <time>2022-10-06T10:58:37Z</time>
      </trkpt>
      <trkpt lat="44.78059" lon="-0.09463">
        <ele>93.2</ele>
        <time>2022-10-06T10:58:38Z</time>
      </trkpt>
      <trkpt lat="44.78061" lon="-0.09463">
        <ele>93.2</ele>
        <time>2022-10-06T10:58:39Z</time>
      </trkpt>
      <trkpt lat="44.78063" lon="-0.09463">
        <ele>93.1</ele>
        <time>2022-10-06T10:58:40Z</time>
      </trkpt>
      <trkpt lat="44.78064" lon="-0.09463">
        <ele>93</ele>
        <time>2022-10-06T10:58:41Z</time>
      </trkpt>
      <trkpt lat="44.78064" lon="-0.09463">
        <ele>92.9</ele>
        <time>2022-10-06T10:58:42Z</time>
      </trkpt>
      <trkpt lat="44.78066" lon="-0.09462">
        <ele>92.9</ele>
        <time>2022-10-06T10:58:43Z</time>
      </trkpt>
      <trkpt lat="44.78067" lon="-0.09462">
        <ele>92.9</ele>
        <time>2022-10-06T10:58:44Z</time>
      </trkpt>
      <trkpt lat="44.78068" lon="-0.09462">
        <ele>92.9</ele>
        <time>2022-10-06T10:58:45Z</time>
      </trkpt>
      <trkpt lat="44.78069" lon="-0.09463">
        <ele>92.9</ele>
        <time>2022-10-06T10:58:46Z</time>
      </trkpt>
      <trkpt lat="44.7807" lon="-0.09463">
        <ele>92.9</ele>
        <time>2022-10-06T10:58:47Z</time>
      </trkpt>
      <trkpt lat="44.78072" lon="-0.09462">
        <ele>92.8</ele>
        <time>2022-10-06T10:58:48Z</time>
      </trkpt>
      <trkpt lat="44.78073" lon="-0.09462">
        <ele>92.7</ele>
        <time>2022-10-06T10:58:49Z</time>
      </trkpt>
      <trkpt lat="44.78075" lon="-0.09462">
        <ele>92.7</ele>
        <time>2022-10-06T10:58:50Z</time>
      </trkpt>
      <trkpt lat="44.78076" lon="-0.09462">
        <ele>92.7</ele>
        <time>2022-10-06T10:58:51Z</time>
      </trkpt>
      <trkpt lat="44.78077" lon="-0.09462">
        <ele>92.7</ele>
        <time>2022-10-06T10:58:52Z</time>
      </trkpt>
      <trkpt lat="44.78078" lon="-0.09462">
        <ele>92.6</ele>
        <time>2022-10-06T10:58:53Z</time>
      </trkpt>
      <trkpt lat="44.78079" lon="-0.09462">
        <ele>92.6</ele>
        <time>2022-10-06T10:58:54Z</time>
      </trkpt>
      <trkpt lat="44.78081" lon="-0.09462">
        <ele>92.5</ele>
        <time>2022-10-06T10:58:55Z</time>
      </trkpt>
      <trkpt lat="44.78082" lon="-0.09462">
        <ele>92.5</ele>
        <time>2022-10-06T10:58:56Z</time>
      </trkpt>
      <trkpt lat="44.78083" lon="-0.09461">
        <ele>92.5</ele>
        <time>2022-10-06T10:58:57Z</time>
      </trkpt>
      <trkpt lat="44.78084" lon="-0.09461">
        <ele>92.5</ele>
        <time>2022-10-06T10:58:58Z</time>
      </trkpt>
      <trkpt lat="44.78086" lon="-0.09461">
        <ele>92.5</ele>
        <time>2022-10-06T10:58:59Z</time>
      </trkpt>
      <trkpt lat="44.78088" lon="-0.09461">
        <ele>92.4</ele>
        <time>2022-10-06T10:59:00Z</time>
      </trkpt>
      <trkpt lat="44.78088" lon="-0.09461">
        <ele>92.4</ele>
        <time>2022-10-06T10:59:01Z</time>
      </trkpt>
      <trkpt lat="44.78089" lon="-0.0946">
        <ele>92.3</ele>
        <time>2022-10-06T10:59:02Z</time>
      </trkpt>
      <trkpt lat="44.78091" lon="-0.0946">
        <ele>92.3</ele>
        <time>2022-10-06T10:59:03Z</time>
      </trkpt>
      <trkpt lat="44.78093" lon="-0.0946">
        <ele>92.2</ele>
        <time>2022-10-06T10:59:04Z</time>
      </trkpt>
      <trkpt lat="44.78094" lon="-0.0946">
        <ele>92.2</ele>
        <time>2022-10-06T10:59:05Z</time>
      </trkpt>
      <trkpt lat="44.78095" lon="-0.0946">
        <ele>92.2</ele>
        <time>2022-10-06T10:59:06Z</time>
      </trkpt>
      <trkpt lat="44.78096" lon="-0.0946">
        <ele>92.2</ele>
        <time>2022-10-06T10:59:07Z</time>
      </trkpt>
      <trkpt lat="44.78097" lon="-0.0946">
        <ele>92.1</ele>
        <time>2022-10-06T10:59:08Z</time>
      </trkpt>
      <trkpt lat="44.78099" lon="-0.0946">
        <ele>92.1</ele>
        <time>2022-10-06T10:59:09Z</time>
      </trkpt>
      <trkpt lat="44.781" lon="-0.09461">
        <ele>92.1</ele>
        <time>2022-10-06T10:59:10Z</time>
      </trkpt>
      <trkpt lat="44.78101" lon="-0.0946">
        <ele>92</ele>
        <time>2022-10-06T10:59:11Z</time>
      </trkpt>
      <trkpt lat="44.78102" lon="-0.0946">
        <ele>92</ele>
        <time>2022-10-06T10:59:12Z</time>
      </trkpt>
      <trkpt lat="44.78104" lon="-0.0946">
        <ele>92</ele>
        <time>2022-10-06T10:59:13Z</time>
      </trkpt>
      <trkpt lat="44.78105" lon="-0.09459">
        <ele>92</ele>
        <time>2022-10-06T10:59:14Z</time>
      </trkpt>
      <trkpt lat="44.78106" lon="-0.09459">
        <ele>91.9</ele>
        <time>2022-10-06T10:59:15Z</time>
      </trkpt>
      <trkpt lat="44.78107" lon="-0.09459">
        <ele>91.9</ele>
        <time>2022-10-06T10:59:16Z</time>
      </trkpt>
      <trkpt lat="44.78108" lon="-0.09459">
        <ele>91.9</ele>
        <time>2022-10-06T10:59:17Z</time>
      </trkpt>
      <trkpt lat="44.78109" lon="-0.09459">
        <ele>91.9</ele>
        <time>2022-10-06T10:59:18Z</time>
      </trkpt>
      <trkpt lat="44.78112" lon="-0.09459">
        <ele>91.8</ele>
        <time>2022-10-06T10:59:19Z</time>
      </trkpt>
      <trkpt lat="44.78113" lon="-0.09459">
        <ele>91.8</ele>
        <time>2022-10-06T10:59:20Z</time>
      </trkpt>
      <trkpt lat="44.78113" lon="-0.09459">
        <ele>91.8</ele>
        <time>2022-10-06T10:59:21Z</time>
      </trkpt>
      <trkpt lat="44.78114" lon="-0.09458">
        <ele>91.6</ele>
        <time>2022-10-06T10:59:22Z</time>
      </trkpt>
      <trkpt lat="44.78116" lon="-0.09458">
        <ele>91.6</ele>
        <time>2022-10-06T10:59:23Z</time>
      </trkpt>
      <trkpt lat="44.78119" lon="-0.09458">
        <ele>91.6</ele>
        <time>2022-10-06T10:59:24Z</time>
      </trkpt>
      <trkpt lat="44.7812" lon="-0.09458">
        <ele>91.5</ele>
        <time>2022-10-06T10:59:25Z</time>
      </trkpt>
      <trkpt lat="44.7812" lon="-0.09458">
        <ele>91.5</ele>
        <time>2022-10-06T10:59:26Z</time>
      </trkpt>
      <trkpt lat="44.78121" lon="-0.09458">
        <ele>91.5</ele>
        <time>2022-10-06T10:59:27Z</time>
      </trkpt>
      <trkpt lat="44.78123" lon="-0.09457">
        <ele>91.5</ele>
        <time>2022-10-06T10:59:28Z</time>
      </trkpt>
      <trkpt lat="44.78124" lon="-0.09457">
        <ele>91.4</ele>
        <time>2022-10-06T10:59:29Z</time>
      </trkpt>
      <trkpt lat="44.78125" lon="-0.09457">
        <ele>91.4</ele>
        <time>2022-10-06T10:59:30Z</time>
      </trkpt>
      <trkpt lat="44.78126" lon="-0.09457">
        <ele>91.4</ele>
        <time>2022-10-06T10:59:31Z</time>
      </trkpt>
      <trkpt lat="44.78128" lon="-0.09456">
        <ele>91.4</ele>
        <time>2022-10-06T10:59:32Z</time>
      </trkpt>
      <trkpt lat="44.78129" lon="-0.09456">
        <ele>91.3</ele>
        <time>2022-10-06T10:59:33Z</time>
      </trkpt>
      <trkpt lat="44.7813" lon="-0.09456">
        <ele>91.3</ele>
        <time>2022-10-06T10:59:34Z</time>
      </trkpt>
      <trkpt lat="44.78132" lon="-0.09456">
        <ele>91.2</ele>
        <time>2022-10-06T10:59:35Z</time>
      </trkpt>
      <trkpt lat="44.78133" lon="-0.09456">
        <ele>91.2</ele>
        <time>2022-10-06T10:59:36Z</time>
      </trkpt>
      <trkpt lat="44.78134" lon="-0.09455">
        <ele>91.2</ele>
        <time>2022-10-06T10:59:37Z</time>
      </trkpt>
      <trkpt lat="44.78135" lon="-0.09455">
        <ele>91.2</ele>
        <time>2022-10-06T10:59:38Z</time>
      </trkpt>
      <trkpt lat="44.78136" lon="-0.09455">
        <ele>91.2</ele>
        <time>2022-10-06T10:59:39Z</time>
      </trkpt>
      <trkpt lat="44.78138" lon="-0.09456">
        <ele>91.2</ele>
        <time>2022-10-06T10:59:40Z</time>
      </trkpt>
      <trkpt lat="44.78139" lon="-0.09457">
        <ele>91.1</ele>
        <time>2022-10-06T10:59:41Z</time>
      </trkpt>
      <trkpt lat="44.7814" lon="-0.09458">
        <ele>91.1</ele>
        <time>2022-10-06T10:59:42Z</time>
      </trkpt>
      <trkpt lat="44.7814" lon="-0.09459">
        <ele>91.1</ele>
        <time>2022-10-06T10:59:43Z</time>
      </trkpt>
      <trkpt lat="44.78141" lon="-0.0946">
        <ele>91.1</ele>
        <time>2022-10-06T10:59:44Z</time>
      </trkpt>
      <trkpt lat="44.78142" lon="-0.09463">
        <ele>91.1</ele>
        <time>2022-10-06T10:59:45Z</time>
      </trkpt>
      <trkpt lat="44.78142" lon="-0.09464">
        <ele>91.2</ele>
        <time>2022-10-06T10:59:46Z</time>
      </trkpt>
      <trkpt lat="44.78142" lon="-0.09465">
        <ele>91.2</ele>
        <time>2022-10-06T10:59:47Z</time>
      </trkpt>
      <trkpt lat="44.78143" lon="-0.09468">
        <ele>91.3</ele>
        <time>2022-10-06T10:59:48Z</time>
      </trkpt>
      <trkpt lat="44.78143" lon="-0.09469">
        <ele>91.2</ele>
        <time>2022-10-06T10:59:49Z</time>
      </trkpt>
      <trkpt lat="44.78144" lon="-0.0947">
        <ele>91.2</ele>
        <time>2022-10-06T10:59:50Z</time>
      </trkpt>
      <trkpt lat="44.78144" lon="-0.09472">
        <ele>91.2</ele>
        <time>2022-10-06T10:59:51Z</time>
      </trkpt>
      <trkpt lat="44.78145" lon="-0.09474">
        <ele>91.2</ele>
        <time>2022-10-06T10:59:52Z</time>
      </trkpt>
      <trkpt lat="44.78145" lon="-0.09476">
        <ele>91.2</ele>
        <time>2022-10-06T10:59:53Z</time>
      </trkpt>
      <trkpt lat="44.78146" lon="-0.09478">
        <ele>91.2</ele>
        <time>2022-10-06T10:59:54Z</time>
      </trkpt>
      <trkpt lat="44.78146" lon="-0.09479">
        <ele>91.1</ele>
        <time>2022-10-06T10:59:55Z</time>
      </trkpt>
      <trkpt lat="44.78146" lon="-0.09482">
        <ele>91.2</ele>
        <time>2022-10-06T10:59:56Z</time>
      </trkpt>
      <trkpt lat="44.78146" lon="-0.09483">
        <ele>91.2</ele>
        <time>2022-10-06T10:59:57Z</time>
      </trkpt>
      <trkpt lat="44.78147" lon="-0.09485">
        <ele>91.2</ele>
        <time>2022-10-06T10:59:58Z</time>
      </trkpt>
      <trkpt lat="44.78147" lon="-0.09487">
        <ele>91.2</ele>
        <time>2022-10-06T10:59:59Z</time>
      </trkpt>
      <trkpt lat="44.78147" lon="-0.09489">
        <ele>91.2</ele>
        <time>2022-10-06T11:00:00Z</time>
      </trkpt>
      <trkpt lat="44.78147" lon="-0.0949">
        <ele>91.2</ele>
        <time>2022-10-06T11:00:01Z</time>
      </trkpt>
      <trkpt lat="44.78147" lon="-0.09492">
        <ele>91.1</ele>
        <time>2022-10-06T11:00:02Z</time>
      </trkpt>
      <trkpt lat="44.78148" lon="-0.09494">
        <ele>91.1</ele>
        <time>2022-10-06T11:00:03Z</time>
      </trkpt>
      <trkpt lat="44.78148" lon="-0.09495">
        <ele>91.1</ele>
        <time>2022-10-06T11:00:04Z</time>
      </trkpt>
      <trkpt lat="44.78149" lon="-0.09498">
        <ele>91.1</ele>
        <time>2022-10-06T11:00:05Z</time>
      </trkpt>
      <trkpt lat="44.78149" lon="-0.09499">
        <ele>91.1</ele>
        <time>2022-10-06T11:00:06Z</time>
      </trkpt>
      <trkpt lat="44.78149" lon="-0.09501">
        <ele>91.1</ele>
        <time>2022-10-06T11:00:07Z</time>
      </trkpt>
      <trkpt lat="44.7815" lon="-0.09502">
        <ele>91.1</ele>
        <time>2022-10-06T11:00:08Z</time>
      </trkpt>
      <trkpt lat="44.7815" lon="-0.09504">
        <ele>91</ele>
        <time>2022-10-06T11:00:09Z</time>
      </trkpt>
      <trkpt lat="44.7815" lon="-0.09507">
        <ele>90.9</ele>
        <time>2022-10-06T11:00:10Z</time>
      </trkpt>
      <trkpt lat="44.7815" lon="-0.09508">
        <ele>90.9</ele>
        <time>2022-10-06T11:00:11Z</time>
      </trkpt>
      <trkpt lat="44.78151" lon="-0.09509">
        <ele>90.9</ele>
        <time>2022-10-06T11:00:12Z</time>
      </trkpt>
      <trkpt lat="44.78151" lon="-0.09511">
        <ele>90.9</ele>
        <time>2022-10-06T11:00:13Z</time>
      </trkpt>
      <trkpt lat="44.78151" lon="-0.09512">
        <ele>90.9</ele>
        <time>2022-10-06T11:00:14Z</time>
      </trkpt>
      <trkpt lat="44.78152" lon="-0.09514">
        <ele>90.8</ele>
        <time>2022-10-06T11:00:15Z</time>
      </trkpt>
      <trkpt lat="44.78152" lon="-0.09516">
        <ele>90.8</ele>
        <time>2022-10-06T11:00:16Z</time>
      </trkpt>
      <trkpt lat="44.78153" lon="-0.09517">
        <ele>90.8</ele>
        <time>2022-10-06T11:00:17Z</time>
      </trkpt>
      <trkpt lat="44.78153" lon="-0.09519">
        <ele>90.7</ele>
        <time>2022-10-06T11:00:18Z</time>
      </trkpt>
      <trkpt lat="44.78153" lon="-0.09521">
        <ele>90.7</ele>
        <time>2022-10-06T11:00:19Z</time>
      </trkpt>
      <trkpt lat="44.78154" lon="-0.09523">
        <ele>90.7</ele>
        <time>2022-10-06T11:00:20Z</time>
      </trkpt>
      <trkpt lat="44.78154" lon="-0.09524">
        <ele>90.6</ele>
        <time>2022-10-06T11:00:21Z</time>
      </trkpt>
      <trkpt lat="44.78154" lon="-0.09526">
        <ele>90.6</ele>
        <time>2022-10-06T11:00:22Z</time>
      </trkpt>
      <trkpt lat="44.78154" lon="-0.09528">
        <ele>90.6</ele>
        <time>2022-10-06T11:00:23Z</time>
      </trkpt>
      <trkpt lat="44.78154" lon="-0.0953">
        <ele>90.6</ele>
        <time>2022-10-06T11:00:24Z</time>
      </trkpt>
      <trkpt lat="44.78154" lon="-0.09532">
        <ele>90.5</ele>
        <time>2022-10-06T11:00:25Z</time>
      </trkpt>
      <trkpt lat="44.78154" lon="-0.09533">
        <ele>90.5</ele>
        <time>2022-10-06T11:00:26Z</time>
      </trkpt>
      <trkpt lat="44.78155" lon="-0.09534">
        <ele>90.5</ele>
        <time>2022-10-06T11:00:27Z</time>
      </trkpt>
      <trkpt lat="44.78155" lon="-0.09536">
        <ele>90.5</ele>
        <time>2022-10-06T11:00:28Z</time>
      </trkpt>
      <trkpt lat="44.78156" lon="-0.09539">
        <ele>90.5</ele>
        <time>2022-10-06T11:00:29Z</time>
      </trkpt>
      <trkpt lat="44.78156" lon="-0.0954">
        <ele>90.4</ele>
        <time>2022-10-06T11:00:30Z</time>
      </trkpt>
      <trkpt lat="44.78156" lon="-0.09541">
        <ele>90.4</ele>
        <time>2022-10-06T11:00:31Z</time>
      </trkpt>
      <trkpt lat="44.78157" lon="-0.09544">
        <ele>90.4</ele>
        <time>2022-10-06T11:00:32Z</time>
      </trkpt>
      <trkpt lat="44.78157" lon="-0.09545">
        <ele>90.4</ele>
        <time>2022-10-06T11:00:33Z</time>
      </trkpt>
      <trkpt lat="44.78158" lon="-0.09546">
        <ele>90.4</ele>
        <time>2022-10-06T11:00:34Z</time>
      </trkpt>
      <trkpt lat="44.78159" lon="-0.09549">
        <ele>90.3</ele>
        <time>2022-10-06T11:00:35Z</time>
      </trkpt>
      <trkpt lat="44.78159" lon="-0.0955">
        <ele>90.3</ele>
        <time>2022-10-06T11:00:36Z</time>
      </trkpt>
      <trkpt lat="44.78159" lon="-0.09551">
        <ele>90.3</ele>
        <time>2022-10-06T11:00:37Z</time>
      </trkpt>
      <trkpt lat="44.7816" lon="-0.09553">
        <ele>90.2</ele>
        <time>2022-10-06T11:00:38Z</time>
      </trkpt>
      <trkpt lat="44.7816" lon="-0.09555">
        <ele>90.2</ele>
        <time>2022-10-06T11:00:39Z</time>
      </trkpt>
      <trkpt lat="44.78161" lon="-0.09557">
        <ele>90.2</ele>
        <time>2022-10-06T11:00:40Z</time>
      </trkpt>
      <trkpt lat="44.78161" lon="-0.09558">
        <ele>90.1</ele>
        <time>2022-10-06T11:00:41Z</time>
      </trkpt>
      <trkpt lat="44.78162" lon="-0.0956">
        <ele>90.1</ele>
        <time>2022-10-06T11:00:42Z</time>
      </trkpt>
      <trkpt lat="44.78162" lon="-0.09562">
        <ele>90.1</ele>
        <time>2022-10-06T11:00:43Z</time>
      </trkpt>
      <trkpt lat="44.78163" lon="-0.09566">
        <ele>90</ele>
        <time>2022-10-06T11:00:44Z</time>
      </trkpt>
      <trkpt lat="44.78163" lon="-0.09568">
        <ele>90</ele>
        <time>2022-10-06T11:00:45Z</time>
      </trkpt>
      <trkpt lat="44.78163" lon="-0.0957">
        <ele>89.8</ele>
        <time>2022-10-06T11:00:46Z</time>
      </trkpt>
      <trkpt lat="44.78163" lon="-0.09572">
        <ele>89.8</ele>
        <time>2022-10-06T11:00:47Z</time>
      </trkpt>
      <trkpt lat="44.78163" lon="-0.09573">
        <ele>89.8</ele>
        <time>2022-10-06T11:00:48Z</time>
      </trkpt>
      <trkpt lat="44.78164" lon="-0.09575">
        <ele>89.7</ele>
        <time>2022-10-06T11:00:49Z</time>
      </trkpt>
      <trkpt lat="44.78164" lon="-0.09577">
        <ele>89.7</ele>
        <time>2022-10-06T11:00:50Z</time>
      </trkpt>
      <trkpt lat="44.78165" lon="-0.09578">
        <ele>89.7</ele>
        <time>2022-10-06T11:00:51Z</time>
      </trkpt>
      <trkpt lat="44.78165" lon="-0.0958">
        <ele>89.6</ele>
        <time>2022-10-06T11:00:52Z</time>
      </trkpt>
      <trkpt lat="44.78166" lon="-0.09581">
        <ele>89.6</ele>
        <time>2022-10-06T11:00:53Z</time>
      </trkpt>
      <trkpt lat="44.78166" lon="-0.09584">
        <ele>89.4</ele>
        <time>2022-10-06T11:00:54Z</time>
      </trkpt>
      <trkpt lat="44.78167" lon="-0.09585">
        <ele>89.4</ele>
        <time>2022-10-06T11:00:55Z</time>
      </trkpt>
      <trkpt lat="44.78167" lon="-0.09587">
        <ele>89.4</ele>
        <time>2022-10-06T11:00:56Z</time>
      </trkpt>
      <trkpt lat="44.78167" lon="-0.09589">
        <ele>89.3</ele>
        <time>2022-10-06T11:00:57Z</time>
      </trkpt>
      <trkpt lat="44.78167" lon="-0.09591">
        <ele>89.3</ele>
        <time>2022-10-06T11:00:58Z</time>
      </trkpt>
      <trkpt lat="44.78167" lon="-0.09592">
        <ele>89.2</ele>
        <time>2022-10-06T11:00:59Z</time>
      </trkpt>
      <trkpt lat="44.78168" lon="-0.09595">
        <ele>89.2</ele>
        <time>2022-10-06T11:01:00Z</time>
      </trkpt>
      <trkpt lat="44.78168" lon="-0.09596">
        <ele>89</ele>
        <time>2022-10-06T11:01:01Z</time>
      </trkpt>
      <trkpt lat="44.78168" lon="-0.09597">
        <ele>89</ele>
        <time>2022-10-06T11:01:02Z</time>
      </trkpt>
      <trkpt lat="44.78169" lon="-0.096">
        <ele>89</ele>
        <time>2022-10-06T11:01:03Z</time>
      </trkpt>
      <trkpt lat="44.7817" lon="-0.09601">
        <ele>88.8</ele>
        <time>2022-10-06T11:01:04Z</time>
      </trkpt>
      <trkpt lat="44.7817" lon="-0.09602">
        <ele>88.8</ele>
        <time>2022-10-06T11:01:05Z</time>
      </trkpt>
      <trkpt lat="44.78171" lon="-0.09602">
        <ele>88.8</ele>
        <time>2022-10-06T11:01:06Z</time>
      </trkpt>
      <trkpt lat="44.78172" lon="-0.09603">
        <ele>88.7</ele>
        <time>2022-10-06T11:01:07Z</time>
      </trkpt>
      <trkpt lat="44.78174" lon="-0.09603">
        <ele>88.7</ele>
        <time>2022-10-06T11:01:08Z</time>
      </trkpt>
      <trkpt lat="44.78175" lon="-0.09602">
        <ele>88.7</ele>
        <time>2022-10-06T11:01:09Z</time>
      </trkpt>
      <trkpt lat="44.78177" lon="-0.09602">
        <ele>88.7</ele>
        <time>2022-10-06T11:01:10Z</time>
      </trkpt>
      <trkpt lat="44.78178" lon="-0.09601">
        <ele>88.7</ele>
        <time>2022-10-06T11:01:11Z</time>
      </trkpt>
      <trkpt lat="44.78179" lon="-0.096">
        <ele>88.9</ele>
        <time>2022-10-06T11:01:12Z</time>
      </trkpt>
      <trkpt lat="44.7818" lon="-0.09599">
        <ele>88.9</ele>
        <time>2022-10-06T11:01:13Z</time>
      </trkpt>
      <trkpt lat="44.78181" lon="-0.09598">
        <ele>88.8</ele>
        <time>2022-10-06T11:01:14Z</time>
      </trkpt>
      <trkpt lat="44.78183" lon="-0.09597">
        <ele>88.8</ele>
        <time>2022-10-06T11:01:15Z</time>
      </trkpt>
      <trkpt lat="44.78183" lon="-0.09597">
        <ele>88.8</ele>
        <time>2022-10-06T11:01:16Z</time>
      </trkpt>
      <trkpt lat="44.78184" lon="-0.09597">
        <ele>88.8</ele>
        <time>2022-10-06T11:01:17Z</time>
      </trkpt>
      <trkpt lat="44.78186" lon="-0.09597">
        <ele>88.8</ele>
        <time>2022-10-06T11:01:18Z</time>
      </trkpt>
      <trkpt lat="44.78187" lon="-0.09596">
        <ele>88.8</ele>
        <time>2022-10-06T11:01:19Z</time>
      </trkpt>
      <trkpt lat="44.78189" lon="-0.09595">
        <ele>89</ele>
        <time>2022-10-06T11:01:20Z</time>
      </trkpt>
      <trkpt lat="44.78189" lon="-0.09595">
        <ele>89</ele>
        <time>2022-10-06T11:01:21Z</time>
      </trkpt>
      <trkpt lat="44.78191" lon="-0.09595">
        <ele>89</ele>
        <time>2022-10-06T11:01:22Z</time>
      </trkpt>
      <trkpt lat="44.78192" lon="-0.09595">
        <ele>89</ele>
        <time>2022-10-06T11:01:23Z</time>
      </trkpt>
      <trkpt lat="44.78193" lon="-0.09594">
        <ele>88.9</ele>
        <time>2022-10-06T11:01:24Z</time>
      </trkpt>
      <trkpt lat="44.78195" lon="-0.09593">
        <ele>88.9</ele>
        <time>2022-10-06T11:01:25Z</time>
      </trkpt>
      <trkpt lat="44.78196" lon="-0.09593">
        <ele>88.9</ele>
        <time>2022-10-06T11:01:26Z</time>
      </trkpt>
      <trkpt lat="44.78197" lon="-0.09593">
        <ele>88.9</ele>
        <time>2022-10-06T11:01:27Z</time>
      </trkpt>
      <trkpt lat="44.78199" lon="-0.09593">
        <ele>88.9</ele>
        <time>2022-10-06T11:01:28Z</time>
      </trkpt>
      <trkpt lat="44.782" lon="-0.09593">
        <ele>88.9</ele>
        <time>2022-10-06T11:01:29Z</time>
      </trkpt>
      <trkpt lat="44.78202" lon="-0.09594">
        <ele>88.9</ele>
        <time>2022-10-06T11:01:30Z</time>
      </trkpt>
      <trkpt lat="44.78202" lon="-0.09594">
        <ele>88.9</ele>
        <time>2022-10-06T11:01:31Z</time>
      </trkpt>
      <trkpt lat="44.78203" lon="-0.09595">
        <ele>88.9</ele>
        <time>2022-10-06T11:01:32Z</time>
      </trkpt>
      <trkpt lat="44.78205" lon="-0.09595">
        <ele>88.9</ele>
        <time>2022-10-06T11:01:33Z</time>
      </trkpt>
      <trkpt lat="44.78206" lon="-0.09595">
        <ele>88.9</ele>
        <time>2022-10-06T11:01:34Z</time>
      </trkpt>
      <trkpt lat="44.78208" lon="-0.09596">
        <ele>88.8</ele>
        <time>2022-10-06T11:01:35Z</time>
      </trkpt>
      <trkpt lat="44.78209" lon="-0.09596">
        <ele>88.6</ele>
        <time>2022-10-06T11:01:36Z</time>
      </trkpt>
      <trkpt lat="44.7821" lon="-0.09596">
        <ele>88.6</ele>
        <time>2022-10-06T11:01:37Z</time>
      </trkpt>
      <trkpt lat="44.78211" lon="-0.09597">
        <ele>88.6</ele>
        <time>2022-10-06T11:01:38Z</time>
      </trkpt>
      <trkpt lat="44.78212" lon="-0.09597">
        <ele>88.6</ele>
        <time>2022-10-06T11:01:39Z</time>
      </trkpt>
      <trkpt lat="44.78213" lon="-0.09597">
        <ele>88.6</ele>
        <time>2022-10-06T11:01:40Z</time>
      </trkpt>
      <trkpt lat="44.78215" lon="-0.09597">
        <ele>88.6</ele>
        <time>2022-10-06T11:01:41Z</time>
      </trkpt>
      <trkpt lat="44.78216" lon="-0.09597">
        <ele>88.6</ele>
        <time>2022-10-06T11:01:42Z</time>
      </trkpt>
      <trkpt lat="44.78218" lon="-0.09597">
        <ele>88.6</ele>
        <time>2022-10-06T11:01:43Z</time>
      </trkpt>
      <trkpt lat="44.78219" lon="-0.09597">
        <ele>88.6</ele>
        <time>2022-10-06T11:01:44Z</time>
      </trkpt>
      <trkpt lat="44.7822" lon="-0.09597">
        <ele>88.6</ele>
        <time>2022-10-06T11:01:45Z</time>
      </trkpt>
      <trkpt lat="44.78221" lon="-0.09597">
        <ele>88.5</ele>
        <time>2022-10-06T11:01:46Z</time>
      </trkpt>
      <trkpt lat="44.78222" lon="-0.09597">
        <ele>88.5</ele>
        <time>2022-10-06T11:01:47Z</time>
      </trkpt>
      <trkpt lat="44.78223" lon="-0.09597">
        <ele>88.5</ele>
        <time>2022-10-06T11:01:48Z</time>
      </trkpt>
      <trkpt lat="44.78224" lon="-0.09597">
        <ele>88.5</ele>
        <time>2022-10-06T11:01:49Z</time>
      </trkpt>
      <trkpt lat="44.78226" lon="-0.09597">
        <ele>88.5</ele>
        <time>2022-10-06T11:01:50Z</time>
      </trkpt>
      <trkpt lat="44.78227" lon="-0.09597">
        <ele>88.4</ele>
        <time>2022-10-06T11:01:51Z</time>
      </trkpt>
      <trkpt lat="44.78228" lon="-0.09597">
        <ele>88.4</ele>
        <time>2022-10-06T11:01:52Z</time>
      </trkpt>
      <trkpt lat="44.7823" lon="-0.09597">
        <ele>88.4</ele>
        <time>2022-10-06T11:01:53Z</time>
      </trkpt>
      <trkpt lat="44.78231" lon="-0.09597">
        <ele>88.4</ele>
        <time>2022-10-06T11:01:54Z</time>
      </trkpt>
      <trkpt lat="44.78232" lon="-0.09597">
        <ele>88.4</ele>
        <time>2022-10-06T11:01:55Z</time>
      </trkpt>
      <trkpt lat="44.78234" lon="-0.09596">
        <ele>88.4</ele>
        <time>2022-10-06T11:01:56Z</time>
      </trkpt>
      <trkpt lat="44.78235" lon="-0.09596">
        <ele>88.4</ele>
        <time>2022-10-06T11:01:57Z</time>
      </trkpt>
      <trkpt lat="44.78236" lon="-0.09596">
        <ele>88.3</ele>
        <time>2022-10-06T11:01:58Z</time>
      </trkpt>
      <trkpt lat="44.78237" lon="-0.09596">
        <ele>88.3</ele>
        <time>2022-10-06T11:01:59Z</time>
      </trkpt>
      <trkpt lat="44.78239" lon="-0.09596">
        <ele>88.3</ele>
        <time>2022-10-06T11:02:00Z</time>
      </trkpt>
      <trkpt lat="44.78241" lon="-0.09596">
        <ele>88.3</ele>
        <time>2022-10-06T11:02:01Z</time>
      </trkpt>
      <trkpt lat="44.78242" lon="-0.09596">
        <ele>88.5</ele>
        <time>2022-10-06T11:02:02Z</time>
      </trkpt>
      <trkpt lat="44.78242" lon="-0.09596">
        <ele>88.5</ele>
        <time>2022-10-06T11:02:03Z</time>
      </trkpt>
      <trkpt lat="44.78243" lon="-0.09596">
        <ele>88.5</ele>
        <time>2022-10-06T11:02:04Z</time>
      </trkpt>
      <trkpt lat="44.78245" lon="-0.09596">
        <ele>88.2</ele>
        <time>2022-10-06T11:02:05Z</time>
      </trkpt>
      <trkpt lat="44.78246" lon="-0.09596">
        <ele>88.2</ele>
        <time>2022-10-06T11:02:06Z</time>
      </trkpt>
      <trkpt lat="44.78247" lon="-0.09596">
        <ele>88.2</ele>
        <time>2022-10-06T11:02:07Z</time>
      </trkpt>
      <trkpt lat="44.78248" lon="-0.09596">
        <ele>88.1</ele>
        <time>2022-10-06T11:02:08Z</time>
      </trkpt>
      <trkpt lat="44.78249" lon="-0.09596">
        <ele>88.1</ele>
        <time>2022-10-06T11:02:09Z</time>
      </trkpt>
      <trkpt lat="44.7825" lon="-0.09596">
        <ele>88.1</ele>
        <time>2022-10-06T11:02:10Z</time>
      </trkpt>
      <trkpt lat="44.7825" lon="-0.09596">
        <ele>88.4</ele>
        <time>2022-10-06T11:02:11Z</time>
      </trkpt>
      <trkpt lat="44.78251" lon="-0.09596">
        <ele>88.1</ele>
        <time>2022-10-06T11:02:12Z</time>
      </trkpt>
      <trkpt lat="44.78252" lon="-0.09596">
        <ele>88.1</ele>
        <time>2022-10-06T11:02:13Z</time>
      </trkpt>
      <trkpt lat="44.78253" lon="-0.09596">
        <ele>88.1</ele>
        <time>2022-10-06T11:02:14Z</time>
      </trkpt>
      <trkpt lat="44.78254" lon="-0.09596">
        <ele>88</ele>
        <time>2022-10-06T11:02:15Z</time>
      </trkpt>
      <trkpt lat="44.78255" lon="-0.09596">
        <ele>88</ele>
        <time>2022-10-06T11:02:16Z</time>
      </trkpt>
      <trkpt lat="44.78256" lon="-0.09596">
        <ele>88</ele>
        <time>2022-10-06T11:02:17Z</time>
      </trkpt>
      <trkpt lat="44.78257" lon="-0.09596">
        <ele>88</ele>
        <time>2022-10-06T11:02:18Z</time>
      </trkpt>
      <trkpt lat="44.78259" lon="-0.09597">
        <ele>88</ele>
        <time>2022-10-06T11:02:19Z</time>
      </trkpt>
      <trkpt lat="44.78261" lon="-0.09597">
        <ele>87.9</ele>
        <time>2022-10-06T11:02:20Z</time>
      </trkpt>
      <trkpt lat="44.78262" lon="-0.09597">
        <ele>87.9</ele>
        <time>2022-10-06T11:02:21Z</time>
      </trkpt>
      <trkpt lat="44.78264" lon="-0.09597">
        <ele>87.9</ele>
        <time>2022-10-06T11:02:22Z</time>
      </trkpt>
      <trkpt lat="44.78264" lon="-0.09597">
        <ele>87.9</ele>
        <time>2022-10-06T11:02:23Z</time>
      </trkpt>
      <trkpt lat="44.78265" lon="-0.09597">
        <ele>87.9</ele>
        <time>2022-10-06T11:02:24Z</time>
      </trkpt>
      <trkpt lat="44.78266" lon="-0.09596">
        <ele>87.8</ele>
        <time>2022-10-06T11:02:25Z</time>
      </trkpt>
      <trkpt lat="44.78268" lon="-0.09596">
        <ele>87.8</ele>
        <time>2022-10-06T11:02:26Z</time>
      </trkpt>
      <trkpt lat="44.78269" lon="-0.09596">
        <ele>87.8</ele>
        <time>2022-10-06T11:02:27Z</time>
      </trkpt>
      <trkpt lat="44.7827" lon="-0.09596">
        <ele>87.8</ele>
        <time>2022-10-06T11:02:28Z</time>
      </trkpt>
      <trkpt lat="44.78272" lon="-0.09596">
        <ele>87.8</ele>
        <time>2022-10-06T11:02:29Z</time>
      </trkpt>
      <trkpt lat="44.78273" lon="-0.09596">
        <ele>87.7</ele>
        <time>2022-10-06T11:02:30Z</time>
      </trkpt>
      <trkpt lat="44.78275" lon="-0.09596">
        <ele>87.7</ele>
        <time>2022-10-06T11:02:31Z</time>
      </trkpt>
      <trkpt lat="44.78276" lon="-0.09596">
        <ele>87.7</ele>
        <time>2022-10-06T11:02:32Z</time>
      </trkpt>
      <trkpt lat="44.78277" lon="-0.09595">
        <ele>87.9</ele>
        <time>2022-10-06T11:02:33Z</time>
      </trkpt>
      <trkpt lat="44.78279" lon="-0.09594">
        <ele>87.8</ele>
        <time>2022-10-06T11:02:35Z</time>
      </trkpt>
      <trkpt lat="44.78281" lon="-0.09595">
        <ele>87.8</ele>
        <time>2022-10-06T11:02:36Z</time>
      </trkpt>
      <trkpt lat="44.78281" lon="-0.09595">
        <ele>87.7</ele>
        <time>2022-10-06T11:02:37Z</time>
      </trkpt>
      <trkpt lat="44.78282" lon="-0.09596">
        <ele>87.7</ele>
        <time>2022-10-06T11:02:38Z</time>
      </trkpt>
      <trkpt lat="44.78284" lon="-0.09596">
        <ele>87.5</ele>
        <time>2022-10-06T11:02:39Z</time>
      </trkpt>
      <trkpt lat="44.78285" lon="-0.09597">
        <ele>87.5</ele>
        <time>2022-10-06T11:02:40Z</time>
      </trkpt>
      <trkpt lat="44.78286" lon="-0.09597">
        <ele>87.5</ele>
        <time>2022-10-06T11:02:41Z</time>
      </trkpt>
      <trkpt lat="44.78287" lon="-0.09597">
        <ele>87.5</ele>
        <time>2022-10-06T11:02:42Z</time>
      </trkpt>
      <trkpt lat="44.78288" lon="-0.09597">
        <ele>87.4</ele>
        <time>2022-10-06T11:02:43Z</time>
      </trkpt>
      <trkpt lat="44.78289" lon="-0.09597">
        <ele>87.4</ele>
        <time>2022-10-06T11:02:44Z</time>
      </trkpt>
      <trkpt lat="44.7829" lon="-0.09597">
        <ele>87.3</ele>
        <time>2022-10-06T11:02:45Z</time>
      </trkpt>
      <trkpt lat="44.78291" lon="-0.09596">
        <ele>87.3</ele>
        <time>2022-10-06T11:02:46Z</time>
      </trkpt>
      <trkpt lat="44.78292" lon="-0.09597">
        <ele>87.3</ele>
        <time>2022-10-06T11:02:47Z</time>
      </trkpt>
      <trkpt lat="44.78294" lon="-0.09597">
        <ele>87.3</ele>
        <time>2022-10-06T11:02:48Z</time>
      </trkpt>
      <trkpt lat="44.78295" lon="-0.09597">
        <ele>87.3</ele>
        <time>2022-10-06T11:02:49Z</time>
      </trkpt>
      <trkpt lat="44.78297" lon="-0.09597">
        <ele>87.2</ele>
        <time>2022-10-06T11:02:50Z</time>
      </trkpt>
      <trkpt lat="44.78298" lon="-0.09597">
        <ele>87.2</ele>
        <time>2022-10-06T11:02:51Z</time>
      </trkpt>
      <trkpt lat="44.78298" lon="-0.09596">
        <ele>87.2</ele>
        <time>2022-10-06T11:02:52Z</time>
      </trkpt>
      <trkpt lat="44.783" lon="-0.09596">
        <ele>87.1</ele>
        <time>2022-10-06T11:02:53Z</time>
      </trkpt>
      <trkpt lat="44.783" lon="-0.09596">
        <ele>87.1</ele>
        <time>2022-10-06T11:02:54Z</time>
      </trkpt>
      <trkpt lat="44.78302" lon="-0.09596">
        <ele>87.1</ele>
        <time>2022-10-06T11:02:55Z</time>
      </trkpt>
      <trkpt lat="44.78303" lon="-0.09596">
        <ele>87</ele>
        <time>2022-10-06T11:02:56Z</time>
      </trkpt>
      <trkpt lat="44.78304" lon="-0.09596">
        <ele>87</ele>
        <time>2022-10-06T11:02:57Z</time>
      </trkpt>
      <trkpt lat="44.78305" lon="-0.09596">
        <ele>87</ele>
        <time>2022-10-06T11:02:58Z</time>
      </trkpt>
      <trkpt lat="44.78307" lon="-0.09596">
        <ele>87.1</ele>
        <time>2022-10-06T11:02:59Z</time>
      </trkpt>
      <trkpt lat="44.78308" lon="-0.09596">
        <ele>87</ele>
        <time>2022-10-06T11:03:00Z</time>
      </trkpt>
      <trkpt lat="44.78309" lon="-0.09595">
        <ele>87</ele>
        <time>2022-10-06T11:03:01Z</time>
      </trkpt>
      <trkpt lat="44.78311" lon="-0.09595">
        <ele>87</ele>
        <time>2022-10-06T11:03:02Z</time>
      </trkpt>
      <trkpt lat="44.78311" lon="-0.09595">
        <ele>87</ele>
        <time>2022-10-06T11:03:03Z</time>
      </trkpt>
      <trkpt lat="44.78312" lon="-0.09595">
        <ele>86.9</ele>
        <time>2022-10-06T11:03:04Z</time>
      </trkpt>
      <trkpt lat="44.78313" lon="-0.09594">
        <ele>86.9</ele>
        <time>2022-10-06T11:03:05Z</time>
      </trkpt>
      <trkpt lat="44.78315" lon="-0.09594">
        <ele>86.8</ele>
        <time>2022-10-06T11:03:06Z</time>
      </trkpt>
      <trkpt lat="44.78316" lon="-0.09594">
        <ele>86.8</ele>
        <time>2022-10-06T11:03:07Z</time>
      </trkpt>
      <trkpt lat="44.78318" lon="-0.09593">
        <ele>86.7</ele>
        <time>2022-10-06T11:03:08Z</time>
      </trkpt>
      <trkpt lat="44.78319" lon="-0.09593">
        <ele>86.7</ele>
        <time>2022-10-06T11:03:09Z</time>
      </trkpt>
      <trkpt lat="44.78321" lon="-0.09593">
        <ele>86.5</ele>
        <time>2022-10-06T11:03:10Z</time>
      </trkpt>
      <trkpt lat="44.78322" lon="-0.09593">
        <ele>86.5</ele>
        <time>2022-10-06T11:03:11Z</time>
      </trkpt>
      <trkpt lat="44.78325" lon="-0.09593">
        <ele>86.4</ele>
        <time>2022-10-06T11:03:12Z</time>
      </trkpt>
      <trkpt lat="44.78327" lon="-0.09592">
        <ele>86.4</ele>
        <time>2022-10-06T11:03:13Z</time>
      </trkpt>
      <trkpt lat="44.78327" lon="-0.09592">
        <ele>86.4</ele>
        <time>2022-10-06T11:03:14Z</time>
      </trkpt>
      <trkpt lat="44.78328" lon="-0.09591">
        <ele>86.4</ele>
        <time>2022-10-06T11:03:15Z</time>
      </trkpt>
      <trkpt lat="44.7833" lon="-0.09591">
        <ele>86.4</ele>
        <time>2022-10-06T11:03:16Z</time>
      </trkpt>
      <trkpt lat="44.78332" lon="-0.09591">
        <ele>86.2</ele>
        <time>2022-10-06T11:03:17Z</time>
      </trkpt>
      <trkpt lat="44.78332" lon="-0.09591">
        <ele>86.2</ele>
        <time>2022-10-06T11:03:18Z</time>
      </trkpt>
      <trkpt lat="44.78333" lon="-0.09591">
        <ele>86</ele>
        <time>2022-10-06T11:03:19Z</time>
      </trkpt>
      <trkpt lat="44.78336" lon="-0.09591">
        <ele>85.8</ele>
        <time>2022-10-06T11:03:20Z</time>
      </trkpt>
      <trkpt lat="44.78337" lon="-0.09591">
        <ele>85.8</ele>
        <time>2022-10-06T11:03:21Z</time>
      </trkpt>
      <trkpt lat="44.78338" lon="-0.0959">
        <ele>85.8</ele>
        <time>2022-10-06T11:03:22Z</time>
      </trkpt>
      <trkpt lat="44.78339" lon="-0.0959">
        <ele>85.6</ele>
        <time>2022-10-06T11:03:23Z</time>
      </trkpt>
      <trkpt lat="44.7834" lon="-0.0959">
        <ele>85.6</ele>
        <time>2022-10-06T11:03:24Z</time>
      </trkpt>
      <trkpt lat="44.78341" lon="-0.09589">
        <ele>85.6</ele>
        <time>2022-10-06T11:03:25Z</time>
      </trkpt>
      <trkpt lat="44.78343" lon="-0.0959">
        <ele>85.4</ele>
        <time>2022-10-06T11:03:26Z</time>
      </trkpt>
      <trkpt lat="44.78344" lon="-0.0959">
        <ele>85.4</ele>
        <time>2022-10-06T11:03:27Z</time>
      </trkpt>
      <trkpt lat="44.78346" lon="-0.0959">
        <ele>85.2</ele>
        <time>2022-10-06T11:03:28Z</time>
      </trkpt>
      <trkpt lat="44.78346" lon="-0.0959">
        <ele>85.2</ele>
        <time>2022-10-06T11:03:29Z</time>
      </trkpt>
      <trkpt lat="44.78347" lon="-0.09591">
        <ele>85.2</ele>
        <time>2022-10-06T11:03:30Z</time>
      </trkpt>
      <trkpt lat="44.7835" lon="-0.0959">
        <ele>85</ele>
        <time>2022-10-06T11:03:31Z</time>
      </trkpt>
      <trkpt lat="44.7835" lon="-0.0959">
        <ele>85</ele>
        <time>2022-10-06T11:03:32Z</time>
      </trkpt>
      <trkpt lat="44.78351" lon="-0.0959">
        <ele>84.8</ele>
        <time>2022-10-06T11:03:33Z</time>
      </trkpt>
      <trkpt lat="44.78352" lon="-0.0959">
        <ele>84.8</ele>
        <time>2022-10-06T11:03:34Z</time>
      </trkpt>
      <trkpt lat="44.78354" lon="-0.09589">
        <ele>84.8</ele>
        <time>2022-10-06T11:03:35Z</time>
      </trkpt>
      <trkpt lat="44.78356" lon="-0.09589">
        <ele>84.6</ele>
        <time>2022-10-06T11:03:36Z</time>
      </trkpt>
      <trkpt lat="44.78357" lon="-0.09589">
        <ele>84.6</ele>
        <time>2022-10-06T11:03:37Z</time>
      </trkpt>
      <trkpt lat="44.78359" lon="-0.09588">
        <ele>84.3</ele>
        <time>2022-10-06T11:03:38Z</time>
      </trkpt>
      <trkpt lat="44.7836" lon="-0.09588">
        <ele>84.3</ele>
        <time>2022-10-06T11:03:39Z</time>
      </trkpt>
      <trkpt lat="44.78361" lon="-0.09588">
        <ele>84.1</ele>
        <time>2022-10-06T11:03:40Z</time>
      </trkpt>
      <trkpt lat="44.78363" lon="-0.09587">
        <ele>84.1</ele>
        <time>2022-10-06T11:03:41Z</time>
      </trkpt>
      <trkpt lat="44.78364" lon="-0.09587">
        <ele>84</ele>
        <time>2022-10-06T11:03:42Z</time>
      </trkpt>
      <trkpt lat="44.78364" lon="-0.09587">
        <ele>84</ele>
        <time>2022-10-06T11:03:43Z</time>
      </trkpt>
      <trkpt lat="44.78367" lon="-0.09587">
        <ele>83.7</ele>
        <time>2022-10-06T11:03:44Z</time>
      </trkpt>
      <trkpt lat="44.78368" lon="-0.09587">
        <ele>83.7</ele>
        <time>2022-10-06T11:03:45Z</time>
      </trkpt>
      <trkpt lat="44.78369" lon="-0.09587">
        <ele>83.7</ele>
        <time>2022-10-06T11:03:46Z</time>
      </trkpt>
      <trkpt lat="44.7837" lon="-0.09587">
        <ele>83.5</ele>
        <time>2022-10-06T11:03:47Z</time>
      </trkpt>
      <trkpt lat="44.78371" lon="-0.09586">
        <ele>83.5</ele>
        <time>2022-10-06T11:03:48Z</time>
      </trkpt>
      <trkpt lat="44.78372" lon="-0.09586">
        <ele>83.5</ele>
        <time>2022-10-06T11:03:49Z</time>
      </trkpt>
      <trkpt lat="44.78373" lon="-0.09586">
        <ele>83.3</ele>
        <time>2022-10-06T11:03:50Z</time>
      </trkpt>
      <trkpt lat="44.78375" lon="-0.09586">
        <ele>83.3</ele>
        <time>2022-10-06T11:03:51Z</time>
      </trkpt>
      <trkpt lat="44.78377" lon="-0.09586">
        <ele>83</ele>
        <time>2022-10-06T11:03:52Z</time>
      </trkpt>
      <trkpt lat="44.78379" lon="-0.09586">
        <ele>82.8</ele>
        <time>2022-10-06T11:03:53Z</time>
      </trkpt>
      <trkpt lat="44.7838" lon="-0.09586">
        <ele>82.8</ele>
        <time>2022-10-06T11:03:54Z</time>
      </trkpt>
      <trkpt lat="44.78381" lon="-0.09586">
        <ele>82.8</ele>
        <time>2022-10-06T11:03:55Z</time>
      </trkpt>
      <trkpt lat="44.78382" lon="-0.09586">
        <ele>82.6</ele>
        <time>2022-10-06T11:03:56Z</time>
      </trkpt>
      <trkpt lat="44.78383" lon="-0.09586">
        <ele>82.6</ele>
        <time>2022-10-06T11:03:57Z</time>
      </trkpt>
      <trkpt lat="44.78385" lon="-0.09586">
        <ele>82.4</ele>
        <time>2022-10-06T11:03:58Z</time>
      </trkpt>
      <trkpt lat="44.78385" lon="-0.09586">
        <ele>82.4</ele>
        <time>2022-10-06T11:03:59Z</time>
      </trkpt>
      <trkpt lat="44.78386" lon="-0.09586">
        <ele>82.4</ele>
        <time>2022-10-06T11:04:00Z</time>
      </trkpt>
      <trkpt lat="44.78388" lon="-0.09586">
        <ele>82.2</ele>
        <time>2022-10-06T11:04:01Z</time>
      </trkpt>
      <trkpt lat="44.78389" lon="-0.09586">
        <ele>82.2</ele>
        <time>2022-10-06T11:04:02Z</time>
      </trkpt>
      <trkpt lat="44.7839" lon="-0.09585">
        <ele>82.2</ele>
        <time>2022-10-06T11:04:03Z</time>
      </trkpt>
      <trkpt lat="44.78391" lon="-0.09585">
        <ele>82</ele>
        <time>2022-10-06T11:04:04Z</time>
      </trkpt>
      <trkpt lat="44.78392" lon="-0.09586">
        <ele>82</ele>
        <time>2022-10-06T11:04:05Z</time>
      </trkpt>
      <trkpt lat="44.78394" lon="-0.09586">
        <ele>81.8</ele>
        <time>2022-10-06T11:04:06Z</time>
      </trkpt>
      <trkpt lat="44.78395" lon="-0.09586">
        <ele>81.8</ele>
        <time>2022-10-06T11:04:07Z</time>
      </trkpt>
      <trkpt lat="44.78396" lon="-0.09586">
        <ele>81.8</ele>
        <time>2022-10-06T11:04:08Z</time>
      </trkpt>
      <trkpt lat="44.78397" lon="-0.09586">
        <ele>81.6</ele>
        <time>2022-10-06T11:04:09Z</time>
      </trkpt>
      <trkpt lat="44.78397" lon="-0.09585">
        <ele>81.6</ele>
        <time>2022-10-06T11:04:10Z</time>
      </trkpt>
      <trkpt lat="44.78399" lon="-0.09584">
        <ele>81.6</ele>
        <time>2022-10-06T11:04:11Z</time>
      </trkpt>
      <trkpt lat="44.78399" lon="-0.09583">
        <ele>81.7</ele>
        <time>2022-10-06T11:04:12Z</time>
      </trkpt>
      <trkpt lat="44.784" lon="-0.09582">
        <ele>81.7</ele>
        <time>2022-10-06T11:04:13Z</time>
      </trkpt>
      <trkpt lat="44.784" lon="-0.09581">
        <ele>81.5</ele>
        <time>2022-10-06T11:04:14Z</time>
      </trkpt>
      <trkpt lat="44.78401" lon="-0.0958">
        <ele>81.5</ele>
        <time>2022-10-06T11:04:15Z</time>
      </trkpt>
      <trkpt lat="44.78401" lon="-0.09577">
        <ele>81.6</ele>
        <time>2022-10-06T11:04:16Z</time>
      </trkpt>
      <trkpt lat="44.78401" lon="-0.09577">
        <ele>81.6</ele>
        <time>2022-10-06T11:04:17Z</time>
      </trkpt>
      <trkpt lat="44.78401" lon="-0.09575">
        <ele>81.6</ele>
        <time>2022-10-06T11:04:18Z</time>
      </trkpt>
      <trkpt lat="44.78401" lon="-0.09573">
        <ele>81.7</ele>
        <time>2022-10-06T11:04:19Z</time>
      </trkpt>
      <trkpt lat="44.78401" lon="-0.09571">
        <ele>81.7</ele>
        <time>2022-10-06T11:04:20Z</time>
      </trkpt>
      <trkpt lat="44.784" lon="-0.0957">
        <ele>81.7</ele>
        <time>2022-10-06T11:04:21Z</time>
      </trkpt>
      <trkpt lat="44.784" lon="-0.09568">
        <ele>82</ele>
        <time>2022-10-06T11:04:22Z</time>
      </trkpt>
      <trkpt lat="44.78399" lon="-0.09567">
        <ele>82</ele>
        <time>2022-10-06T11:04:23Z</time>
      </trkpt>
      <trkpt lat="44.78399" lon="-0.09566">
        <ele>82.1</ele>
        <time>2022-10-06T11:04:24Z</time>
      </trkpt>
      <trkpt lat="44.78398" lon="-0.09564">
        <ele>82.1</ele>
        <time>2022-10-06T11:04:25Z</time>
      </trkpt>
      <trkpt lat="44.78398" lon="-0.09561">
        <ele>82.2</ele>
        <time>2022-10-06T11:04:26Z</time>
      </trkpt>
      <trkpt lat="44.78397" lon="-0.0956">
        <ele>82.2</ele>
        <time>2022-10-06T11:04:27Z</time>
      </trkpt>
      <trkpt lat="44.78397" lon="-0.09559">
        <ele>82.2</ele>
        <time>2022-10-06T11:04:28Z</time>
      </trkpt>
      <trkpt lat="44.78397" lon="-0.09557">
        <ele>82.2</ele>
        <time>2022-10-06T11:04:29Z</time>
      </trkpt>
      <trkpt lat="44.78396" lon="-0.09556">
        <ele>82.6</ele>
        <time>2022-10-06T11:04:30Z</time>
      </trkpt>
      <trkpt lat="44.78396" lon="-0.09553">
        <ele>82.6</ele>
        <time>2022-10-06T11:04:31Z</time>
      </trkpt>
      <trkpt lat="44.78396" lon="-0.09552">
        <ele>82.7</ele>
        <time>2022-10-06T11:04:32Z</time>
      </trkpt>
      <trkpt lat="44.78395" lon="-0.0955">
        <ele>82.7</ele>
        <time>2022-10-06T11:04:33Z</time>
      </trkpt>
      <trkpt lat="44.78395" lon="-0.09548">
        <ele>82.9</ele>
        <time>2022-10-06T11:04:34Z</time>
      </trkpt>
      <trkpt lat="44.78395" lon="-0.09546">
        <ele>82.9</ele>
        <time>2022-10-06T11:04:35Z</time>
      </trkpt>
      <trkpt lat="44.78395" lon="-0.09544">
        <ele>83</ele>
        <time>2022-10-06T11:04:36Z</time>
      </trkpt>
      <trkpt lat="44.78395" lon="-0.09543">
        <ele>83</ele>
        <time>2022-10-06T11:04:37Z</time>
      </trkpt>
      <trkpt lat="44.78394" lon="-0.09541">
        <ele>83</ele>
        <time>2022-10-06T11:04:38Z</time>
      </trkpt>
      <trkpt lat="44.78394" lon="-0.09539">
        <ele>83.2</ele>
        <time>2022-10-06T11:04:39Z</time>
      </trkpt>
      <trkpt lat="44.78394" lon="-0.09538">
        <ele>83.2</ele>
        <time>2022-10-06T11:04:40Z</time>
      </trkpt>
      <trkpt lat="44.78394" lon="-0.09536">
        <ele>83.4</ele>
        <time>2022-10-06T11:04:41Z</time>
      </trkpt>
      <trkpt lat="44.78395" lon="-0.09532">
        <ele>83.4</ele>
        <time>2022-10-06T11:04:42Z</time>
      </trkpt>
      <trkpt lat="44.78396" lon="-0.09531">
        <ele>83.4</ele>
        <time>2022-10-06T11:04:43Z</time>
      </trkpt>
      <trkpt lat="44.78396" lon="-0.09531">
        <ele>83.5</ele>
        <time>2022-10-06T11:04:44Z</time>
      </trkpt>
      <trkpt lat="44.78397" lon="-0.0953">
        <ele>83.3</ele>
        <time>2022-10-06T11:04:45Z</time>
      </trkpt>
      <trkpt lat="44.78398" lon="-0.09528">
        <ele>83.3</ele>
        <time>2022-10-06T11:04:46Z</time>
      </trkpt>
      <trkpt lat="44.784" lon="-0.09527">
        <ele>83.1</ele>
        <time>2022-10-06T11:04:47Z</time>
      </trkpt>
      <trkpt lat="44.78401" lon="-0.09527">
        <ele>83.2</ele>
        <time>2022-10-06T11:04:48Z</time>
      </trkpt>
      <trkpt lat="44.78403" lon="-0.09526">
        <ele>83</ele>
        <time>2022-10-06T11:04:49Z</time>
      </trkpt>
      <trkpt lat="44.78404" lon="-0.09526">
        <ele>83</ele>
        <time>2022-10-06T11:04:50Z</time>
      </trkpt>
      <trkpt lat="44.78405" lon="-0.09526">
        <ele>83</ele>
        <time>2022-10-06T11:04:51Z</time>
      </trkpt>
      <trkpt lat="44.78406" lon="-0.09525">
        <ele>82.8</ele>
        <time>2022-10-06T11:04:52Z</time>
      </trkpt>
      <trkpt lat="44.78407" lon="-0.09525">
        <ele>82.8</ele>
        <time>2022-10-06T11:04:53Z</time>
      </trkpt>
      <trkpt lat="44.78409" lon="-0.09525">
        <ele>82.6</ele>
        <time>2022-10-06T11:04:54Z</time>
      </trkpt>
      <trkpt lat="44.7841" lon="-0.09525">
        <ele>82.6</ele>
        <time>2022-10-06T11:04:55Z</time>
      </trkpt>
      <trkpt lat="44.78411" lon="-0.09525">
        <ele>82.6</ele>
        <time>2022-10-06T11:04:56Z</time>
      </trkpt>
      <trkpt lat="44.78413" lon="-0.09525">
        <ele>82.3</ele>
        <time>2022-10-06T11:04:57Z</time>
      </trkpt>
      <trkpt lat="44.78414" lon="-0.09525">
        <ele>82.3</ele>
        <time>2022-10-06T11:04:58Z</time>
      </trkpt>
      <trkpt lat="44.78415" lon="-0.09525">
        <ele>82.1</ele>
        <time>2022-10-06T11:04:59Z</time>
      </trkpt>
      <trkpt lat="44.78416" lon="-0.09524">
        <ele>82.1</ele>
        <time>2022-10-06T11:05:00Z</time>
      </trkpt>
      <trkpt lat="44.78418" lon="-0.09524">
        <ele>82.1</ele>
        <time>2022-10-06T11:05:01Z</time>
      </trkpt>
      <trkpt lat="44.7842" lon="-0.09524">
        <ele>81.8</ele>
        <time>2022-10-06T11:05:02Z</time>
      </trkpt>
      <trkpt lat="44.78421" lon="-0.09524">
        <ele>81.8</ele>
        <time>2022-10-06T11:05:03Z</time>
      </trkpt>
      <trkpt lat="44.78422" lon="-0.09524">
        <ele>81.6</ele>
        <time>2022-10-06T11:05:04Z</time>
      </trkpt>
      <trkpt lat="44.78424" lon="-0.09525">
        <ele>81.6</ele>
        <time>2022-10-06T11:05:05Z</time>
      </trkpt>
      <trkpt lat="44.78425" lon="-0.09525">
        <ele>81.4</ele>
        <time>2022-10-06T11:05:06Z</time>
      </trkpt>
      <trkpt lat="44.78425" lon="-0.09525">
        <ele>81.4</ele>
        <time>2022-10-06T11:05:07Z</time>
      </trkpt>
      <trkpt lat="44.78426" lon="-0.09525">
        <ele>81.4</ele>
        <time>2022-10-06T11:05:08Z</time>
      </trkpt>
      <trkpt lat="44.78427" lon="-0.09524">
        <ele>81.2</ele>
        <time>2022-10-06T11:05:09Z</time>
      </trkpt>
      <trkpt lat="44.78428" lon="-0.09524">
        <ele>81.2</ele>
        <time>2022-10-06T11:05:10Z</time>
      </trkpt>
      <trkpt lat="44.7843" lon="-0.09524">
        <ele>81.2</ele>
        <time>2022-10-06T11:05:11Z</time>
      </trkpt>
      <trkpt lat="44.78431" lon="-0.09523">
        <ele>81</ele>
        <time>2022-10-06T11:05:12Z</time>
      </trkpt>
      <trkpt lat="44.78433" lon="-0.09523">
        <ele>81.1</ele>
        <time>2022-10-06T11:05:13Z</time>
      </trkpt>
      <trkpt lat="44.78434" lon="-0.09523">
        <ele>80.9</ele>
        <time>2022-10-06T11:05:14Z</time>
      </trkpt>
      <trkpt lat="44.78435" lon="-0.09523">
        <ele>80.9</ele>
        <time>2022-10-06T11:05:15Z</time>
      </trkpt>
      <trkpt lat="44.78436" lon="-0.09522">
        <ele>80.9</ele>
        <time>2022-10-06T11:05:16Z</time>
      </trkpt>
      <trkpt lat="44.78438" lon="-0.09521">
        <ele>80.7</ele>
        <time>2022-10-06T11:05:17Z</time>
      </trkpt>
      <trkpt lat="44.78439" lon="-0.09521">
        <ele>80.7</ele>
        <time>2022-10-06T11:05:18Z</time>
      </trkpt>
      <trkpt lat="44.7844" lon="-0.09521">
        <ele>80.5</ele>
        <time>2022-10-06T11:05:19Z</time>
      </trkpt>
      <trkpt lat="44.78441" lon="-0.09521">
        <ele>80.5</ele>
        <time>2022-10-06T11:05:20Z</time>
      </trkpt>
      <trkpt lat="44.78444" lon="-0.09521">
        <ele>80.3</ele>
        <time>2022-10-06T11:05:21Z</time>
      </trkpt>
      <trkpt lat="44.78445" lon="-0.0952">
        <ele>80.3</ele>
        <time>2022-10-06T11:05:22Z</time>
      </trkpt>
      <trkpt lat="44.78447" lon="-0.0952">
        <ele>80.1</ele>
        <time>2022-10-06T11:05:23Z</time>
      </trkpt>
      <trkpt lat="44.78447" lon="-0.09519">
        <ele>80.1</ele>
        <time>2022-10-06T11:05:24Z</time>
      </trkpt>
      <trkpt lat="44.78448" lon="-0.09519">
        <ele>80.1</ele>
        <time>2022-10-06T11:05:25Z</time>
      </trkpt>
      <trkpt lat="44.78449" lon="-0.09518">
        <ele>79.9</ele>
        <time>2022-10-06T11:05:26Z</time>
      </trkpt>
      <trkpt lat="44.78451" lon="-0.09517">
        <ele>79.9</ele>
        <time>2022-10-06T11:05:27Z</time>
      </trkpt>
      <trkpt lat="44.78452" lon="-0.09517">
        <ele>79.7</ele>
        <time>2022-10-06T11:05:28Z</time>
      </trkpt>
      <trkpt lat="44.78453" lon="-0.09516">
        <ele>79.7</ele>
        <time>2022-10-06T11:05:29Z</time>
      </trkpt>
      <trkpt lat="44.78454" lon="-0.09515">
        <ele>79.7</ele>
        <time>2022-10-06T11:05:30Z</time>
      </trkpt>
      <trkpt lat="44.78455" lon="-0.09514">
        <ele>79.5</ele>
        <time>2022-10-06T11:05:31Z</time>
      </trkpt>
      <trkpt lat="44.78456" lon="-0.09513">
        <ele>79.5</ele>
        <time>2022-10-06T11:05:32Z</time>
      </trkpt>
      <trkpt lat="44.78457" lon="-0.09512">
        <ele>79.5</ele>
        <time>2022-10-06T11:05:33Z</time>
      </trkpt>
      <trkpt lat="44.78458" lon="-0.09511">
        <ele>79.4</ele>
        <time>2022-10-06T11:05:34Z</time>
      </trkpt>
      <trkpt lat="44.78459" lon="-0.09509">
        <ele>79.4</ele>
        <time>2022-10-06T11:05:35Z</time>
      </trkpt>
      <trkpt lat="44.7846" lon="-0.09508">
        <ele>79.4</ele>
        <time>2022-10-06T11:05:36Z</time>
      </trkpt>
      <trkpt lat="44.78461" lon="-0.09505">
        <ele>79.4</ele>
        <time>2022-10-06T11:05:37Z</time>
      </trkpt>
      <trkpt lat="44.78461" lon="-0.09504">
        <ele>79.2</ele>
        <time>2022-10-06T11:05:38Z</time>
      </trkpt>
      <trkpt lat="44.78462" lon="-0.09503">
        <ele>79.2</ele>
        <time>2022-10-06T11:05:39Z</time>
      </trkpt>
      <trkpt lat="44.78462" lon="-0.09502">
        <ele>79.2</ele>
        <time>2022-10-06T11:05:40Z</time>
      </trkpt>
      <trkpt lat="44.78462" lon="-0.09501">
        <ele>79.2</ele>
        <time>2022-10-06T11:05:41Z</time>
      </trkpt>
      <trkpt lat="44.78462" lon="-0.095">
        <ele>79.2</ele>
        <time>2022-10-06T11:05:42Z</time>
      </trkpt>
      <trkpt lat="44.78461" lon="-0.095">
        <ele>79.2</ele>
        <time>2022-10-06T11:05:43Z</time>
      </trkpt>
      <trkpt lat="44.78462" lon="-0.09499">
        <ele>79.2</ele>
        <time>2022-10-06T11:05:44Z</time>
      </trkpt>
      <trkpt lat="44.78461" lon="-0.09498">
        <ele>79.2</ele>
        <time>2022-10-06T11:05:45Z</time>
      </trkpt>
      <trkpt lat="44.78461" lon="-0.09497">
        <ele>79.2</ele>
        <time>2022-10-06T11:05:46Z</time>
      </trkpt>
      <trkpt lat="44.7846" lon="-0.09496">
        <ele>79.4</ele>
        <time>2022-10-06T11:05:47Z</time>
      </trkpt>
      <trkpt lat="44.7846" lon="-0.09496">
        <ele>79.4</ele>
        <time>2022-10-06T11:05:48Z</time>
      </trkpt>
      <trkpt lat="44.78459" lon="-0.09497">
        <ele>79.4</ele>
        <time>2022-10-06T11:05:49Z</time>
      </trkpt>
      <trkpt lat="44.78458" lon="-0.09497">
        <ele>79.4</ele>
        <time>2022-10-06T11:05:50Z</time>
      </trkpt>
      <trkpt lat="44.78458" lon="-0.09498">
        <ele>79.4</ele>
        <time>2022-10-06T11:05:51Z</time>
      </trkpt>
      <trkpt lat="44.78458" lon="-0.09498">
        <ele>79.4</ele>
        <time>2022-10-06T11:05:52Z</time>
      </trkpt>
      <trkpt lat="44.78458" lon="-0.095">
        <ele>79.6</ele>
        <time>2022-10-06T11:05:53Z</time>
      </trkpt>
      <trkpt lat="44.78457" lon="-0.09502">
        <ele>79.6</ele>
        <time>2022-10-06T11:05:54Z</time>
      </trkpt>
      <trkpt lat="44.78456" lon="-0.09504">
        <ele>79.6</ele>
        <time>2022-10-06T11:05:55Z</time>
      </trkpt>
      <trkpt lat="44.78457" lon="-0.09506">
        <ele>79.6</ele>
        <time>2022-10-06T11:05:56Z</time>
      </trkpt>
      <trkpt lat="44.78459" lon="-0.09509">
        <ele>79.4</ele>
        <time>2022-10-06T11:05:57Z</time>
      </trkpt>
      <trkpt lat="44.78459" lon="-0.0951">
        <ele>79.4</ele>
        <time>2022-10-06T11:05:58Z</time>
      </trkpt>
      <trkpt lat="44.78462" lon="-0.09511">
        <ele>79.2</ele>
        <time>2022-10-06T11:05:59Z</time>
      </trkpt>
      <trkpt lat="44.78464" lon="-0.09513">
        <ele>79</ele>
        <time>2022-10-06T11:06:00Z</time>
      </trkpt>
      <trkpt lat="44.78465" lon="-0.09515">
        <ele>79</ele>
        <time>2022-10-06T11:06:01Z</time>
      </trkpt>
      <trkpt lat="44.78465" lon="-0.09517">
        <ele>79</ele>
        <time>2022-10-06T11:06:02Z</time>
      </trkpt>
      <trkpt lat="44.78465" lon="-0.09518">
        <ele>79</ele>
        <time>2022-10-06T11:06:03Z</time>
      </trkpt>
      <trkpt lat="44.78466" lon="-0.09519">
        <ele>79</ele>
        <time>2022-10-06T11:06:04Z</time>
      </trkpt>
      <trkpt lat="44.78466" lon="-0.09521">
        <ele>79</ele>
        <time>2022-10-06T11:06:05Z</time>
      </trkpt>
      <trkpt lat="44.78467" lon="-0.09523">
        <ele>78.8</ele>
        <time>2022-10-06T11:06:06Z</time>
      </trkpt>
      <trkpt lat="44.78468" lon="-0.09527">
        <ele>78.8</ele>
        <time>2022-10-06T11:06:07Z</time>
      </trkpt>
      <trkpt lat="44.78468" lon="-0.09527">
        <ele>78.8</ele>
        <time>2022-10-06T11:06:08Z</time>
      </trkpt>
      <trkpt lat="44.78469" lon="-0.0953">
        <ele>78.8</ele>
        <time>2022-10-06T11:06:09Z</time>
      </trkpt>
      <trkpt lat="44.78469" lon="-0.09531">
        <ele>78.8</ele>
        <time>2022-10-06T11:06:10Z</time>
      </trkpt>
      <trkpt lat="44.7847" lon="-0.09533">
        <ele>78.8</ele>
        <time>2022-10-06T11:06:11Z</time>
      </trkpt>
      <trkpt lat="44.7847" lon="-0.09535">
        <ele>78.7</ele>
        <time>2022-10-06T11:06:12Z</time>
      </trkpt>
      <trkpt lat="44.7847" lon="-0.09536">
        <ele>78.7</ele>
        <time>2022-10-06T11:06:13Z</time>
      </trkpt>
      <trkpt lat="44.78471" lon="-0.09537">
        <ele>78.7</ele>
        <time>2022-10-06T11:06:14Z</time>
      </trkpt>
      <trkpt lat="44.78471" lon="-0.0954">
        <ele>78.7</ele>
        <time>2022-10-06T11:06:15Z</time>
      </trkpt>
      <trkpt lat="44.78471" lon="-0.09542">
        <ele>78.7</ele>
        <time>2022-10-06T11:06:16Z</time>
      </trkpt>
      <trkpt lat="44.78471" lon="-0.09543">
        <ele>78.7</ele>
        <time>2022-10-06T11:06:17Z</time>
      </trkpt>
      <trkpt lat="44.78471" lon="-0.09545">
        <ele>78.7</ele>
        <time>2022-10-06T11:06:18Z</time>
      </trkpt>
      <trkpt lat="44.78472" lon="-0.09546">
        <ele>78.7</ele>
        <time>2022-10-06T11:06:19Z</time>
      </trkpt>
      <trkpt lat="44.78472" lon="-0.09548">
        <ele>78.7</ele>
        <time>2022-10-06T11:06:20Z</time>
      </trkpt>
      <trkpt lat="44.78472" lon="-0.0955">
        <ele>78.7</ele>
        <time>2022-10-06T11:06:21Z</time>
      </trkpt>
      <trkpt lat="44.78473" lon="-0.09552">
        <ele>78.7</ele>
        <time>2022-10-06T11:06:22Z</time>
      </trkpt>
      <trkpt lat="44.78473" lon="-0.09553">
        <ele>78.5</ele>
        <time>2022-10-06T11:06:23Z</time>
      </trkpt>
      <trkpt lat="44.78474" lon="-0.09555">
        <ele>78.5</ele>
        <time>2022-10-06T11:06:24Z</time>
      </trkpt>
      <trkpt lat="44.78474" lon="-0.09556">
        <ele>78.5</ele>
        <time>2022-10-06T11:06:25Z</time>
      </trkpt>
      <trkpt lat="44.78475" lon="-0.09558">
        <ele>78.5</ele>
        <time>2022-10-06T11:06:26Z</time>
      </trkpt>
      <trkpt lat="44.78475" lon="-0.0956">
        <ele>78.5</ele>
        <time>2022-10-06T11:06:27Z</time>
      </trkpt>
      <trkpt lat="44.78475" lon="-0.09561">
        <ele>78.5</ele>
        <time>2022-10-06T11:06:28Z</time>
      </trkpt>
      <trkpt lat="44.78476" lon="-0.09562">
        <ele>78.5</ele>
        <time>2022-10-06T11:06:29Z</time>
      </trkpt>
      <trkpt lat="44.78476" lon="-0.09564">
        <ele>78.5</ele>
        <time>2022-10-06T11:06:30Z</time>
      </trkpt>
      <trkpt lat="44.78476" lon="-0.09565">
        <ele>78.4</ele>
        <time>2022-10-06T11:06:31Z</time>
      </trkpt>
      <trkpt lat="44.78476" lon="-0.09567">
        <ele>78.4</ele>
        <time>2022-10-06T11:06:32Z</time>
      </trkpt>
      <trkpt lat="44.78476" lon="-0.09568">
        <ele>78.4</ele>
        <time>2022-10-06T11:06:33Z</time>
      </trkpt>
      <trkpt lat="44.78477" lon="-0.09569">
        <ele>78.4</ele>
        <time>2022-10-06T11:06:34Z</time>
      </trkpt>
      <trkpt lat="44.78477" lon="-0.09571">
        <ele>78.4</ele>
        <time>2022-10-06T11:06:35Z</time>
      </trkpt>
      <trkpt lat="44.78477" lon="-0.09572">
        <ele>78.4</ele>
        <time>2022-10-06T11:06:36Z</time>
      </trkpt>
      <trkpt lat="44.78477" lon="-0.09574">
        <ele>78.4</ele>
        <time>2022-10-06T11:06:37Z</time>
      </trkpt>
      <trkpt lat="44.78478" lon="-0.09575">
        <ele>78.4</ele>
        <time>2022-10-06T11:06:38Z</time>
      </trkpt>
      <trkpt lat="44.78478" lon="-0.09577">
        <ele>78.4</ele>
        <time>2022-10-06T11:06:39Z</time>
      </trkpt>
      <trkpt lat="44.78478" lon="-0.09578">
        <ele>78.4</ele>
        <time>2022-10-06T11:06:40Z</time>
      </trkpt>
      <trkpt lat="44.78478" lon="-0.09579">
        <ele>78.3</ele>
        <time>2022-10-06T11:06:41Z</time>
      </trkpt>
      <trkpt lat="44.78478" lon="-0.09581">
        <ele>78.3</ele>
        <time>2022-10-06T11:06:42Z</time>
      </trkpt>
      <trkpt lat="44.78478" lon="-0.09582">
        <ele>78.3</ele>
        <time>2022-10-06T11:06:43Z</time>
      </trkpt>
      <trkpt lat="44.78477" lon="-0.09584">
        <ele>78.3</ele>
        <time>2022-10-06T11:06:44Z</time>
      </trkpt>
      <trkpt lat="44.78477" lon="-0.09585">
        <ele>78.3</ele>
        <time>2022-10-06T11:06:45Z</time>
      </trkpt>
      <trkpt lat="44.78477" lon="-0.09585">
        <ele>78.3</ele>
        <time>2022-10-06T11:06:46Z</time>
      </trkpt>
      <trkpt lat="44.78476" lon="-0.09585">
        <ele>78.3</ele>
        <time>2022-10-06T11:06:47Z</time>
      </trkpt>
      <trkpt lat="44.78476" lon="-0.09586">
        <ele>78.3</ele>
        <time>2022-10-06T11:06:48Z</time>
      </trkpt>
      <trkpt lat="44.78476" lon="-0.09587">
        <ele>78.3</ele>
        <time>2022-10-06T11:06:49Z</time>
      </trkpt>
      <trkpt lat="44.78477" lon="-0.09589">
        <ele>78.3</ele>
        <time>2022-10-06T11:06:50Z</time>
      </trkpt>
      <trkpt lat="44.78477" lon="-0.0959">
        <ele>78.3</ele>
        <time>2022-10-06T11:06:51Z</time>
      </trkpt>
      <trkpt lat="44.78478" lon="-0.09592">
        <ele>78.2</ele>
        <time>2022-10-06T11:06:52Z</time>
      </trkpt>
      <trkpt lat="44.78478" lon="-0.09593">
        <ele>78.2</ele>
        <time>2022-10-06T11:06:53Z</time>
      </trkpt>
      <trkpt lat="44.78478" lon="-0.09595">
        <ele>78.2</ele>
        <time>2022-10-06T11:06:54Z</time>
      </trkpt>
      <trkpt lat="44.78479" lon="-0.09598">
        <ele>78.2</ele>
        <time>2022-10-06T11:06:55Z</time>
      </trkpt>
      <trkpt lat="44.78479" lon="-0.09599">
        <ele>78.1</ele>
        <time>2022-10-06T11:06:56Z</time>
      </trkpt>
      <trkpt lat="44.78479" lon="-0.096">
        <ele>78.1</ele>
        <time>2022-10-06T11:06:57Z</time>
      </trkpt>
      <trkpt lat="44.7848" lon="-0.09602">
        <ele>78.1</ele>
        <time>2022-10-06T11:06:58Z</time>
      </trkpt>
      <trkpt lat="44.7848" lon="-0.09603">
        <ele>78.1</ele>
        <time>2022-10-06T11:06:59Z</time>
      </trkpt>
      <trkpt lat="44.7848" lon="-0.09605">
        <ele>78</ele>
        <time>2022-10-06T11:07:00Z</time>
      </trkpt>
      <trkpt lat="44.78481" lon="-0.09606">
        <ele>78</ele>
        <time>2022-10-06T11:07:01Z</time>
      </trkpt>
      <trkpt lat="44.78481" lon="-0.09608">
        <ele>78</ele>
        <time>2022-10-06T11:07:02Z</time>
      </trkpt>
      <trkpt lat="44.78482" lon="-0.09609">
        <ele>78</ele>
        <time>2022-10-06T11:07:03Z</time>
      </trkpt>
      <trkpt lat="44.78482" lon="-0.0961">
        <ele>78</ele>
        <time>2022-10-06T11:07:04Z</time>
      </trkpt>
      <trkpt lat="44.78482" lon="-0.09611">
        <ele>77.9</ele>
        <time>2022-10-06T11:07:05Z</time>
      </trkpt>
      <trkpt lat="44.78483" lon="-0.09613">
        <ele>77.9</ele>
        <time>2022-10-06T11:07:06Z</time>
      </trkpt>
      <trkpt lat="44.78484" lon="-0.09615">
        <ele>77.8</ele>
        <time>2022-10-06T11:07:07Z</time>
      </trkpt>
      <trkpt lat="44.78484" lon="-0.09617">
        <ele>77.8</ele>
        <time>2022-10-06T11:07:08Z</time>
      </trkpt>
      <trkpt lat="44.78484" lon="-0.09618">
        <ele>77.8</ele>
        <time>2022-10-06T11:07:09Z</time>
      </trkpt>
      <trkpt lat="44.78484" lon="-0.0962">
        <ele>77.8</ele>
        <time>2022-10-06T11:07:10Z</time>
      </trkpt>
      <trkpt lat="44.78484" lon="-0.09621">
        <ele>77.8</ele>
        <time>2022-10-06T11:07:11Z</time>
      </trkpt>
      <trkpt lat="44.78485" lon="-0.09624">
        <ele>77.7</ele>
        <time>2022-10-06T11:07:12Z</time>
      </trkpt>
      <trkpt lat="44.78485" lon="-0.09625">
        <ele>77.7</ele>
        <time>2022-10-06T11:07:13Z</time>
      </trkpt>
      <trkpt lat="44.78485" lon="-0.09626">
        <ele>77.6</ele>
        <time>2022-10-06T11:07:14Z</time>
      </trkpt>
      <trkpt lat="44.78486" lon="-0.09629">
        <ele>77.6</ele>
        <time>2022-10-06T11:07:15Z</time>
      </trkpt>
      <trkpt lat="44.78486" lon="-0.0963">
        <ele>77.6</ele>
        <time>2022-10-06T11:07:16Z</time>
      </trkpt>
      <trkpt lat="44.78486" lon="-0.09631">
        <ele>77.6</ele>
        <time>2022-10-06T11:07:17Z</time>
      </trkpt>
      <trkpt lat="44.78487" lon="-0.09632">
        <ele>77.6</ele>
        <time>2022-10-06T11:07:18Z</time>
      </trkpt>
      <trkpt lat="44.78487" lon="-0.09634">
        <ele>77.6</ele>
        <time>2022-10-06T11:07:19Z</time>
      </trkpt>
      <trkpt lat="44.78487" lon="-0.09635">
        <ele>77.5</ele>
        <time>2022-10-06T11:07:20Z</time>
      </trkpt>
      <trkpt lat="44.78488" lon="-0.09636">
        <ele>77.5</ele>
        <time>2022-10-06T11:07:21Z</time>
      </trkpt>
      <trkpt lat="44.78488" lon="-0.09639">
        <ele>77.5</ele>
        <time>2022-10-06T11:07:22Z</time>
      </trkpt>
      <trkpt lat="44.78488" lon="-0.09639">
        <ele>77.4</ele>
        <time>2022-10-06T11:07:23Z</time>
      </trkpt>
      <trkpt lat="44.78489" lon="-0.0964">
        <ele>77.4</ele>
        <time>2022-10-06T11:07:24Z</time>
      </trkpt>
      <trkpt lat="44.78489" lon="-0.09641">
        <ele>77.4</ele>
        <time>2022-10-06T11:07:25Z</time>
      </trkpt>
      <trkpt lat="44.78489" lon="-0.09643">
        <ele>77.4</ele>
        <time>2022-10-06T11:07:26Z</time>
      </trkpt>
      <trkpt lat="44.78489" lon="-0.09645">
        <ele>77.3</ele>
        <time>2022-10-06T11:07:27Z</time>
      </trkpt>
      <trkpt lat="44.7849" lon="-0.09646">
        <ele>77.3</ele>
        <time>2022-10-06T11:07:28Z</time>
      </trkpt>
      <trkpt lat="44.7849" lon="-0.09647">
        <ele>77.3</ele>
        <time>2022-10-06T11:07:29Z</time>
      </trkpt>
      <trkpt lat="44.7849" lon="-0.09648">
        <ele>77.3</ele>
        <time>2022-10-06T11:07:30Z</time>
      </trkpt>
      <trkpt lat="44.7849" lon="-0.0965">
        <ele>77.3</ele>
        <time>2022-10-06T11:07:31Z</time>
      </trkpt>
      <trkpt lat="44.78491" lon="-0.09652">
        <ele>77.3</ele>
        <time>2022-10-06T11:07:32Z</time>
      </trkpt>
      <trkpt lat="44.78491" lon="-0.09653">
        <ele>77.2</ele>
        <time>2022-10-06T11:07:33Z</time>
      </trkpt>
      <trkpt lat="44.78491" lon="-0.09654">
        <ele>77.2</ele>
        <time>2022-10-06T11:07:34Z</time>
      </trkpt>
      <trkpt lat="44.78491" lon="-0.09655">
        <ele>77.2</ele>
        <time>2022-10-06T11:07:35Z</time>
      </trkpt>
      <trkpt lat="44.78492" lon="-0.09657">
        <ele>77.1</ele>
        <time>2022-10-06T11:07:36Z</time>
      </trkpt>
      <trkpt lat="44.78492" lon="-0.09661">
        <ele>77</ele>
        <time>2022-10-06T11:07:37Z</time>
      </trkpt>
      <trkpt lat="44.78492" lon="-0.09661">
        <ele>77</ele>
        <time>2022-10-06T11:07:38Z</time>
      </trkpt>
      <trkpt lat="44.78492" lon="-0.09662">
        <ele>77</ele>
        <time>2022-10-06T11:07:39Z</time>
      </trkpt>
      <trkpt lat="44.78492" lon="-0.09665">
        <ele>76.9</ele>
        <time>2022-10-06T11:07:40Z</time>
      </trkpt>
      <trkpt lat="44.78492" lon="-0.09667">
        <ele>76.9</ele>
        <time>2022-10-06T11:07:41Z</time>
      </trkpt>
      <trkpt lat="44.78493" lon="-0.09668">
        <ele>76.9</ele>
        <time>2022-10-06T11:07:42Z</time>
      </trkpt>
      <trkpt lat="44.78493" lon="-0.09669">
        <ele>76.8</ele>
        <time>2022-10-06T11:07:43Z</time>
      </trkpt>
      <trkpt lat="44.78493" lon="-0.09671">
        <ele>76.8</ele>
        <time>2022-10-06T11:07:44Z</time>
      </trkpt>
      <trkpt lat="44.78493" lon="-0.09672">
        <ele>76.8</ele>
        <time>2022-10-06T11:07:45Z</time>
      </trkpt>
      <trkpt lat="44.78493" lon="-0.09674">
        <ele>76.7</ele>
        <time>2022-10-06T11:07:46Z</time>
      </trkpt>
      <trkpt lat="44.78493" lon="-0.09677">
        <ele>76.7</ele>
        <time>2022-10-06T11:07:47Z</time>
      </trkpt>
      <trkpt lat="44.78494" lon="-0.09677">
        <ele>76.7</ele>
        <time>2022-10-06T11:07:48Z</time>
      </trkpt>
      <trkpt lat="44.78494" lon="-0.09679">
        <ele>76.6</ele>
        <time>2022-10-06T11:07:49Z</time>
      </trkpt>
      <trkpt lat="44.78494" lon="-0.09681">
        <ele>76.6</ele>
        <time>2022-10-06T11:07:50Z</time>
      </trkpt>
      <trkpt lat="44.78495" lon="-0.09682">
        <ele>76.5</ele>
        <time>2022-10-06T11:07:51Z</time>
      </trkpt>
      <trkpt lat="44.78496" lon="-0.09685">
        <ele>76.5</ele>
        <time>2022-10-06T11:07:52Z</time>
      </trkpt>
      <trkpt lat="44.78496" lon="-0.09685">
        <ele>76.5</ele>
        <time>2022-10-06T11:07:53Z</time>
      </trkpt>
      <trkpt lat="44.78497" lon="-0.09687">
        <ele>76.4</ele>
        <time>2022-10-06T11:07:54Z</time>
      </trkpt>
      <trkpt lat="44.78497" lon="-0.09688">
        <ele>76.4</ele>
        <time>2022-10-06T11:07:55Z</time>
      </trkpt>
      <trkpt lat="44.78498" lon="-0.0969">
        <ele>76.4</ele>
        <time>2022-10-06T11:07:56Z</time>
      </trkpt>
      <trkpt lat="44.78499" lon="-0.09692">
        <ele>76.3</ele>
        <time>2022-10-06T11:07:57Z</time>
      </trkpt>
      <trkpt lat="44.78499" lon="-0.09692">
        <ele>76.3</ele>
        <time>2022-10-06T11:07:58Z</time>
      </trkpt>
      <trkpt lat="44.785" lon="-0.09694">
        <ele>76.3</ele>
        <time>2022-10-06T11:07:59Z</time>
      </trkpt>
      <trkpt lat="44.78501" lon="-0.09695">
        <ele>76.1</ele>
        <time>2022-10-06T11:08:00Z</time>
      </trkpt>
      <trkpt lat="44.78501" lon="-0.09696">
        <ele>76.1</ele>
        <time>2022-10-06T11:08:01Z</time>
      </trkpt>
      <trkpt lat="44.78503" lon="-0.09698">
        <ele>76.1</ele>
        <time>2022-10-06T11:08:02Z</time>
      </trkpt>
      <trkpt lat="44.78504" lon="-0.09699">
        <ele>76</ele>
        <time>2022-10-06T11:08:03Z</time>
      </trkpt>
      <trkpt lat="44.78504" lon="-0.097">
        <ele>76</ele>
        <time>2022-10-06T11:08:04Z</time>
      </trkpt>
      <trkpt lat="44.78505" lon="-0.09701">
        <ele>76</ele>
        <time>2022-10-06T11:08:05Z</time>
      </trkpt>
      <trkpt lat="44.78506" lon="-0.09702">
        <ele>76</ele>
        <time>2022-10-06T11:08:06Z</time>
      </trkpt>
      <trkpt lat="44.78507" lon="-0.09704">
        <ele>75.9</ele>
        <time>2022-10-06T11:08:07Z</time>
      </trkpt>
      <trkpt lat="44.78508" lon="-0.09704">
        <ele>75.9</ele>
        <time>2022-10-06T11:08:08Z</time>
      </trkpt>
      <trkpt lat="44.78508" lon="-0.09705">
        <ele>75.9</ele>
        <time>2022-10-06T11:08:09Z</time>
      </trkpt>
      <trkpt lat="44.78509" lon="-0.09707">
        <ele>75.9</ele>
        <time>2022-10-06T11:08:10Z</time>
      </trkpt>
      <trkpt lat="44.7851" lon="-0.09708">
        <ele>75.7</ele>
        <time>2022-10-06T11:08:11Z</time>
      </trkpt>
      <trkpt lat="44.78511" lon="-0.0971">
        <ele>75.7</ele>
        <time>2022-10-06T11:08:12Z</time>
      </trkpt>
      <trkpt lat="44.78512" lon="-0.0971">
        <ele>75.7</ele>
        <time>2022-10-06T11:08:13Z</time>
      </trkpt>
      <trkpt lat="44.78512" lon="-0.09711">
        <ele>75.7</ele>
        <time>2022-10-06T11:08:14Z</time>
      </trkpt>
      <trkpt lat="44.78513" lon="-0.09712">
        <ele>75.6</ele>
        <time>2022-10-06T11:08:15Z</time>
      </trkpt>
      <trkpt lat="44.78514" lon="-0.09713">
        <ele>75.6</ele>
        <time>2022-10-06T11:08:16Z</time>
      </trkpt>
      <trkpt lat="44.78514" lon="-0.09715">
        <ele>75.6</ele>
        <time>2022-10-06T11:08:17Z</time>
      </trkpt>
      <trkpt lat="44.78515" lon="-0.09716">
        <ele>75.6</ele>
        <time>2022-10-06T11:08:18Z</time>
      </trkpt>
      <trkpt lat="44.78515" lon="-0.09717">
        <ele>75.6</ele>
        <time>2022-10-06T11:08:19Z</time>
      </trkpt>
      <trkpt lat="44.78517" lon="-0.09718">
        <ele>75.6</ele>
        <time>2022-10-06T11:08:20Z</time>
      </trkpt>
      <trkpt lat="44.78517" lon="-0.09719">
        <ele>75.6</ele>
        <time>2022-10-06T11:08:21Z</time>
      </trkpt>
      <trkpt lat="44.78518" lon="-0.09721">
        <ele>75.5</ele>
        <time>2022-10-06T11:08:22Z</time>
      </trkpt>
      <trkpt lat="44.78518" lon="-0.09721">
        <ele>75.5</ele>
        <time>2022-10-06T11:08:23Z</time>
      </trkpt>
      <trkpt lat="44.78518" lon="-0.09722">
        <ele>75.5</ele>
        <time>2022-10-06T11:08:24Z</time>
      </trkpt>
      <trkpt lat="44.78516" lon="-0.09725">
        <ele>75.4</ele>
        <time>2022-10-06T11:08:25Z</time>
      </trkpt>
      <trkpt lat="44.78516" lon="-0.09726">
        <ele>75.4</ele>
        <time>2022-10-06T11:08:26Z</time>
      </trkpt>
      <trkpt lat="44.78515" lon="-0.09727">
        <ele>75.4</ele>
        <time>2022-10-06T11:08:27Z</time>
      </trkpt>
      <trkpt lat="44.78514" lon="-0.09728">
        <ele>75.4</ele>
        <time>2022-10-06T11:08:28Z</time>
      </trkpt>
      <trkpt lat="44.78514" lon="-0.09729">
        <ele>75.4</ele>
        <time>2022-10-06T11:08:29Z</time>
      </trkpt>
      <trkpt lat="44.78513" lon="-0.0973">
        <ele>75.4</ele>
        <time>2022-10-06T11:08:30Z</time>
      </trkpt>
      <trkpt lat="44.78513" lon="-0.09732">
        <ele>75.5</ele>
        <time>2022-10-06T11:08:31Z</time>
      </trkpt>
      <trkpt lat="44.78512" lon="-0.09734">
        <ele>75.5</ele>
        <time>2022-10-06T11:08:32Z</time>
      </trkpt>
      <trkpt lat="44.78511" lon="-0.09735">
        <ele>75.5</ele>
        <time>2022-10-06T11:08:33Z</time>
      </trkpt>
      <trkpt lat="44.78511" lon="-0.09736">
        <ele>75.5</ele>
        <time>2022-10-06T11:08:34Z</time>
      </trkpt>
      <trkpt lat="44.7851" lon="-0.09737">
        <ele>75.5</ele>
        <time>2022-10-06T11:08:35Z</time>
      </trkpt>
      <trkpt lat="44.78509" lon="-0.09738">
        <ele>75.5</ele>
        <time>2022-10-06T11:08:36Z</time>
      </trkpt>
      <trkpt lat="44.78508" lon="-0.0974">
        <ele>75.5</ele>
        <time>2022-10-06T11:08:37Z</time>
      </trkpt>
      <trkpt lat="44.78508" lon="-0.09741">
        <ele>75.5</ele>
        <time>2022-10-06T11:08:38Z</time>
      </trkpt>
      <trkpt lat="44.78507" lon="-0.09742">
        <ele>75.6</ele>
        <time>2022-10-06T11:08:39Z</time>
      </trkpt>
      <trkpt lat="44.78506" lon="-0.09743">
        <ele>75.6</ele>
        <time>2022-10-06T11:08:40Z</time>
      </trkpt>
      <trkpt lat="44.78505" lon="-0.09744">
        <ele>75.6</ele>
        <time>2022-10-06T11:08:41Z</time>
      </trkpt>
      <trkpt lat="44.78504" lon="-0.09745">
        <ele>75.6</ele>
        <time>2022-10-06T11:08:42Z</time>
      </trkpt>
      <trkpt lat="44.78504" lon="-0.09746">
        <ele>75.6</ele>
        <time>2022-10-06T11:08:43Z</time>
      </trkpt>
      <trkpt lat="44.78503" lon="-0.09747">
        <ele>75.6</ele>
        <time>2022-10-06T11:08:44Z</time>
      </trkpt>
      <trkpt lat="44.78502" lon="-0.09749">
        <ele>75.7</ele>
        <time>2022-10-06T11:08:45Z</time>
      </trkpt>
      <trkpt lat="44.78502" lon="-0.0975">
        <ele>75.7</ele>
        <time>2022-10-06T11:08:46Z</time>
      </trkpt>
      <trkpt lat="44.78501" lon="-0.09752">
        <ele>75.7</ele>
        <time>2022-10-06T11:08:47Z</time>
      </trkpt>
      <trkpt lat="44.785" lon="-0.09753">
        <ele>75.7</ele>
        <time>2022-10-06T11:08:48Z</time>
      </trkpt>
      <trkpt lat="44.785" lon="-0.09754">
        <ele>75.7</ele>
        <time>2022-10-06T11:08:49Z</time>
      </trkpt>
      <trkpt lat="44.78499" lon="-0.09754">
        <ele>75.7</ele>
        <time>2022-10-06T11:08:50Z</time>
      </trkpt>
      <trkpt lat="44.785" lon="-0.09755">
        <ele>75.7</ele>
        <time>2022-10-06T11:08:51Z</time>
      </trkpt>
      <trkpt lat="44.785" lon="-0.09755">
        <ele>75.7</ele>
        <time>2022-10-06T11:08:52Z</time>
      </trkpt>
      <trkpt lat="44.78501" lon="-0.09756">
        <ele>75.8</ele>
        <time>2022-10-06T11:08:53Z</time>
      </trkpt>
      <trkpt lat="44.78501" lon="-0.09756">
        <ele>75.8</ele>
        <time>2022-10-06T11:08:54Z</time>
      </trkpt>
      <trkpt lat="44.78501" lon="-0.09756">
        <ele>75.8</ele>
        <time>2022-10-06T11:08:55Z</time>
      </trkpt>
      <trkpt lat="44.78501" lon="-0.09755">
        <ele>75.8</ele>
        <time>2022-10-06T11:08:56Z</time>
      </trkpt>
      <trkpt lat="44.78502" lon="-0.09754">
        <ele>75.8</ele>
        <time>2022-10-06T11:08:57Z</time>
      </trkpt>
      <trkpt lat="44.78503" lon="-0.09754">
        <ele>75.8</ele>
        <time>2022-10-06T11:08:58Z</time>
      </trkpt>
      <trkpt lat="44.78503" lon="-0.09755">
        <ele>75.8</ele>
        <time>2022-10-06T11:08:59Z</time>
      </trkpt>
      <trkpt lat="44.78504" lon="-0.09755">
        <ele>75.8</ele>
        <time>2022-10-06T11:09:00Z</time>
      </trkpt>
      <trkpt lat="44.78504" lon="-0.09756">
        <ele>75.8</ele>
        <time>2022-10-06T11:09:01Z</time>
      </trkpt>
      <trkpt lat="44.78505" lon="-0.09756">
        <ele>75.8</ele>
        <time>2022-10-06T11:09:02Z</time>
      </trkpt>
      <trkpt lat="44.78506" lon="-0.09756">
        <ele>75.8</ele>
        <time>2022-10-06T11:09:03Z</time>
      </trkpt>
      <trkpt lat="44.78507" lon="-0.09756">
        <ele>75.9</ele>
        <time>2022-10-06T11:09:04Z</time>
      </trkpt>
      <trkpt lat="44.78507" lon="-0.09755">
        <ele>75.9</ele>
        <time>2022-10-06T11:09:05Z</time>
      </trkpt>
      <trkpt lat="44.78508" lon="-0.09754">
        <ele>75.9</ele>
        <time>2022-10-06T11:09:06Z</time>
      </trkpt>
      <trkpt lat="44.78508" lon="-0.09753">
        <ele>75.9</ele>
        <time>2022-10-06T11:09:07Z</time>
      </trkpt>
      <trkpt lat="44.78509" lon="-0.0975">
        <ele>75.9</ele>
        <time>2022-10-06T11:09:08Z</time>
      </trkpt>
      <trkpt lat="44.78509" lon="-0.09749">
        <ele>76</ele>
        <time>2022-10-06T11:09:09Z</time>
      </trkpt>
      <trkpt lat="44.78509" lon="-0.09748">
        <ele>76</ele>
        <time>2022-10-06T11:09:10Z</time>
      </trkpt>
      <trkpt lat="44.7851" lon="-0.09747">
        <ele>76</ele>
        <time>2022-10-06T11:09:11Z</time>
      </trkpt>
      <trkpt lat="44.7851" lon="-0.09745">
        <ele>76</ele>
        <time>2022-10-06T11:09:12Z</time>
      </trkpt>
      <trkpt lat="44.7851" lon="-0.09744">
        <ele>76</ele>
        <time>2022-10-06T11:09:13Z</time>
      </trkpt>
      <trkpt lat="44.78511" lon="-0.09743">
        <ele>76</ele>
        <time>2022-10-06T11:09:14Z</time>
      </trkpt>
      <trkpt lat="44.78511" lon="-0.09741">
        <ele>76.1</ele>
        <time>2022-10-06T11:09:15Z</time>
      </trkpt>
      <trkpt lat="44.78511" lon="-0.0974">
        <ele>76.1</ele>
        <time>2022-10-06T11:09:16Z</time>
      </trkpt>
      <trkpt lat="44.78512" lon="-0.0974">
        <ele>76.1</ele>
        <time>2022-10-06T11:09:17Z</time>
      </trkpt>
      <trkpt lat="44.78514" lon="-0.0974">
        <ele>76.1</ele>
        <time>2022-10-06T11:09:18Z</time>
      </trkpt>
      <trkpt lat="44.78514" lon="-0.09741">
        <ele>76.1</ele>
        <time>2022-10-06T11:09:19Z</time>
      </trkpt>
      <trkpt lat="44.78515" lon="-0.09741">
        <ele>76.2</ele>
        <time>2022-10-06T11:09:20Z</time>
      </trkpt>
      <trkpt lat="44.78516" lon="-0.09741">
        <ele>76.2</ele>
        <time>2022-10-06T11:09:21Z</time>
      </trkpt>
      <trkpt lat="44.78516" lon="-0.09741">
        <ele>76.2</ele>
        <time>2022-10-06T11:09:22Z</time>
      </trkpt>
      <trkpt lat="44.78517" lon="-0.0974">
        <ele>76.2</ele>
        <time>2022-10-06T11:09:23Z</time>
      </trkpt>
      <trkpt lat="44.78518" lon="-0.09739">
        <ele>76.2</ele>
        <time>2022-10-06T11:09:24Z</time>
      </trkpt>
      <trkpt lat="44.78518" lon="-0.09738">
        <ele>76.2</ele>
        <time>2022-10-06T11:09:25Z</time>
      </trkpt>
      <trkpt lat="44.78518" lon="-0.09736">
        <ele>76.3</ele>
        <time>2022-10-06T11:09:26Z</time>
      </trkpt>
      <trkpt lat="44.78519" lon="-0.09735">
        <ele>76.3</ele>
        <time>2022-10-06T11:09:27Z</time>
      </trkpt>
      <trkpt lat="44.78519" lon="-0.09733">
        <ele>76.3</ele>
        <time>2022-10-06T11:09:28Z</time>
      </trkpt>
      <trkpt lat="44.7852" lon="-0.09732">
        <ele>76.3</ele>
        <time>2022-10-06T11:09:29Z</time>
      </trkpt>
      <trkpt lat="44.7852" lon="-0.09732">
        <ele>76.3</ele>
        <time>2022-10-06T11:09:30Z</time>
      </trkpt>
      <trkpt lat="44.78521" lon="-0.09731">
        <ele>76.4</ele>
        <time>2022-10-06T11:09:31Z</time>
      </trkpt>
      <trkpt lat="44.78521" lon="-0.0973">
        <ele>76.4</ele>
        <time>2022-10-06T11:09:32Z</time>
      </trkpt>
      <trkpt lat="44.78522" lon="-0.09728">
        <ele>76.4</ele>
        <time>2022-10-06T11:09:33Z</time>
      </trkpt>
      <trkpt lat="44.78522" lon="-0.09727">
        <ele>76.4</ele>
        <time>2022-10-06T11:09:34Z</time>
      </trkpt>
      <trkpt lat="44.78523" lon="-0.09726">
        <ele>76.4</ele>
        <time>2022-10-06T11:09:35Z</time>
      </trkpt>
      <trkpt lat="44.78523" lon="-0.09724">
        <ele>76.5</ele>
        <time>2022-10-06T11:09:36Z</time>
      </trkpt>
      <trkpt lat="44.78524" lon="-0.09723">
        <ele>76.5</ele>
        <time>2022-10-06T11:09:37Z</time>
      </trkpt>
      <trkpt lat="44.78524" lon="-0.09721">
        <ele>76.5</ele>
        <time>2022-10-06T11:09:38Z</time>
      </trkpt>
      <trkpt lat="44.78525" lon="-0.0972">
        <ele>76.5</ele>
        <time>2022-10-06T11:09:39Z</time>
      </trkpt>
      <trkpt lat="44.78525" lon="-0.09718">
        <ele>76.6</ele>
        <time>2022-10-06T11:09:40Z</time>
      </trkpt>
      <trkpt lat="44.78526" lon="-0.09717">
        <ele>76.6</ele>
        <time>2022-10-06T11:09:41Z</time>
      </trkpt>
      <trkpt lat="44.78526" lon="-0.09715">
        <ele>76.6</ele>
        <time>2022-10-06T11:09:42Z</time>
      </trkpt>
      <trkpt lat="44.78527" lon="-0.09713">
        <ele>76.6</ele>
        <time>2022-10-06T11:09:43Z</time>
      </trkpt>
      <trkpt lat="44.78527" lon="-0.09712">
        <ele>76.7</ele>
        <time>2022-10-06T11:09:44Z</time>
      </trkpt>
      <trkpt lat="44.78528" lon="-0.09711">
        <ele>76.7</ele>
        <time>2022-10-06T11:09:45Z</time>
      </trkpt>
      <trkpt lat="44.78528" lon="-0.0971">
        <ele>76.7</ele>
        <time>2022-10-06T11:09:46Z</time>
      </trkpt>
      <trkpt lat="44.78529" lon="-0.09708">
        <ele>76.7</ele>
        <time>2022-10-06T11:09:47Z</time>
      </trkpt>
      <trkpt lat="44.7853" lon="-0.09707">
        <ele>76.8</ele>
        <time>2022-10-06T11:09:48Z</time>
      </trkpt>
      <trkpt lat="44.78531" lon="-0.09706">
        <ele>76.8</ele>
        <time>2022-10-06T11:09:49Z</time>
      </trkpt>
      <trkpt lat="44.78531" lon="-0.09704">
        <ele>76.8</ele>
        <time>2022-10-06T11:09:50Z</time>
      </trkpt>
      <trkpt lat="44.78532" lon="-0.09702">
        <ele>76.8</ele>
        <time>2022-10-06T11:09:51Z</time>
      </trkpt>
      <trkpt lat="44.78533" lon="-0.09701">
        <ele>76.9</ele>
        <time>2022-10-06T11:09:52Z</time>
      </trkpt>
      <trkpt lat="44.78533" lon="-0.097">
        <ele>76.9</ele>
        <time>2022-10-06T11:09:53Z</time>
      </trkpt>
      <trkpt lat="44.78534" lon="-0.09697">
        <ele>76.9</ele>
        <time>2022-10-06T11:09:54Z</time>
      </trkpt>
      <trkpt lat="44.78534" lon="-0.09696">
        <ele>76.9</ele>
        <time>2022-10-06T11:09:55Z</time>
      </trkpt>
      <trkpt lat="44.78535" lon="-0.09695">
        <ele>77</ele>
        <time>2022-10-06T11:09:56Z</time>
      </trkpt>
      <trkpt lat="44.78535" lon="-0.09694">
        <ele>77</ele>
        <time>2022-10-06T11:09:57Z</time>
      </trkpt>
      <trkpt lat="44.78535" lon="-0.09692">
        <ele>77</ele>
        <time>2022-10-06T11:09:58Z</time>
      </trkpt>
      <trkpt lat="44.78536" lon="-0.09691">
        <ele>77</ele>
        <time>2022-10-06T11:09:59Z</time>
      </trkpt>
      <trkpt lat="44.78537" lon="-0.0969">
        <ele>77.1</ele>
        <time>2022-10-06T11:10:00Z</time>
      </trkpt>
      <trkpt lat="44.78538" lon="-0.09689">
        <ele>77.1</ele>
        <time>2022-10-06T11:10:01Z</time>
      </trkpt>
      <trkpt lat="44.78538" lon="-0.09688">
        <ele>77.1</ele>
        <time>2022-10-06T11:10:02Z</time>
      </trkpt>
      <trkpt lat="44.7854" lon="-0.09686">
        <ele>77.1</ele>
        <time>2022-10-06T11:10:03Z</time>
      </trkpt>
      <trkpt lat="44.7854" lon="-0.09686">
        <ele>77.1</ele>
        <time>2022-10-06T11:10:04Z</time>
      </trkpt>
      <trkpt lat="44.78541" lon="-0.09685">
        <ele>77.2</ele>
        <time>2022-10-06T11:10:05Z</time>
      </trkpt>
      <trkpt lat="44.78542" lon="-0.09683">
        <ele>77.2</ele>
        <time>2022-10-06T11:10:06Z</time>
      </trkpt>
      <trkpt lat="44.78543" lon="-0.09682">
        <ele>77.2</ele>
        <time>2022-10-06T11:10:07Z</time>
      </trkpt>
      <trkpt lat="44.78544" lon="-0.09681">
        <ele>77.2</ele>
        <time>2022-10-06T11:10:08Z</time>
      </trkpt>
      <trkpt lat="44.78544" lon="-0.09681">
        <ele>77.2</ele>
        <time>2022-10-06T11:10:09Z</time>
      </trkpt>
      <trkpt lat="44.78545" lon="-0.0968">
        <ele>77.3</ele>
        <time>2022-10-06T11:10:10Z</time>
      </trkpt>
      <trkpt lat="44.78546" lon="-0.09679">
        <ele>77.3</ele>
        <time>2022-10-06T11:10:11Z</time>
      </trkpt>
      <trkpt lat="44.78547" lon="-0.09678">
        <ele>77.3</ele>
        <time>2022-10-06T11:10:12Z</time>
      </trkpt>
      <trkpt lat="44.78548" lon="-0.09677">
        <ele>77.3</ele>
        <time>2022-10-06T11:10:13Z</time>
      </trkpt>
      <trkpt lat="44.78549" lon="-0.09676">
        <ele>77.3</ele>
        <time>2022-10-06T11:10:14Z</time>
      </trkpt>
      <trkpt lat="44.7855" lon="-0.09675">
        <ele>77.4</ele>
        <time>2022-10-06T11:10:15Z</time>
      </trkpt>
      <trkpt lat="44.78551" lon="-0.09675">
        <ele>77.4</ele>
        <time>2022-10-06T11:10:16Z</time>
      </trkpt>
      <trkpt lat="44.78552" lon="-0.09674">
        <ele>77.4</ele>
        <time>2022-10-06T11:10:17Z</time>
      </trkpt>
      <trkpt lat="44.78553" lon="-0.09673">
        <ele>77.4</ele>
        <time>2022-10-06T11:10:18Z</time>
      </trkpt>
      <trkpt lat="44.78554" lon="-0.09672">
        <ele>77.4</ele>
        <time>2022-10-06T11:10:19Z</time>
      </trkpt>
      <trkpt lat="44.78555" lon="-0.09672">
        <ele>77.5</ele>
        <time>2022-10-06T11:10:20Z</time>
      </trkpt>
      <trkpt lat="44.78556" lon="-0.0967">
        <ele>77.5</ele>
        <time>2022-10-06T11:10:21Z</time>
      </trkpt>
      <trkpt lat="44.78557" lon="-0.09669">
        <ele>77.5</ele>
        <time>2022-10-06T11:10:22Z</time>
      </trkpt>
      <trkpt lat="44.78558" lon="-0.09668">
        <ele>77.5</ele>
        <time>2022-10-06T11:10:23Z</time>
      </trkpt>
      <trkpt lat="44.78559" lon="-0.09667">
        <ele>77.5</ele>
        <time>2022-10-06T11:10:24Z</time>
      </trkpt>
      <trkpt lat="44.7856" lon="-0.09666">
        <ele>77.5</ele>
        <time>2022-10-06T11:10:25Z</time>
      </trkpt>
      <trkpt lat="44.78561" lon="-0.09665">
        <ele>77.6</ele>
        <time>2022-10-06T11:10:26Z</time>
      </trkpt>
      <trkpt lat="44.78562" lon="-0.09665">
        <ele>77.6</ele>
        <time>2022-10-06T11:10:27Z</time>
      </trkpt>
      <trkpt lat="44.78564" lon="-0.09663">
        <ele>77.6</ele>
        <time>2022-10-06T11:10:28Z</time>
      </trkpt>
      <trkpt lat="44.78564" lon="-0.09663">
        <ele>77.6</ele>
        <time>2022-10-06T11:10:29Z</time>
      </trkpt>
      <trkpt lat="44.78565" lon="-0.09663">
        <ele>77.6</ele>
        <time>2022-10-06T11:10:30Z</time>
      </trkpt>
      <trkpt lat="44.78566" lon="-0.09662">
        <ele>77.6</ele>
        <time>2022-10-06T11:10:31Z</time>
      </trkpt>
      <trkpt lat="44.78567" lon="-0.09662">
        <ele>77.6</ele>
        <time>2022-10-06T11:10:32Z</time>
      </trkpt>
      <trkpt lat="44.78569" lon="-0.09661">
        <ele>77.6</ele>
        <time>2022-10-06T11:10:33Z</time>
      </trkpt>
      <trkpt lat="44.78569" lon="-0.0966">
        <ele>77.6</ele>
        <time>2022-10-06T11:10:34Z</time>
      </trkpt>
      <trkpt lat="44.7857" lon="-0.0966">
        <ele>77.6</ele>
        <time>2022-10-06T11:10:35Z</time>
      </trkpt>
      <trkpt lat="44.78571" lon="-0.09659">
        <ele>77.6</ele>
        <time>2022-10-06T11:10:36Z</time>
      </trkpt>
      <trkpt lat="44.78573" lon="-0.09659">
        <ele>77.6</ele>
        <time>2022-10-06T11:10:37Z</time>
      </trkpt>
      <trkpt lat="44.78574" lon="-0.09658">
        <ele>77.6</ele>
        <time>2022-10-06T11:10:38Z</time>
      </trkpt>
      <trkpt lat="44.78575" lon="-0.09658">
        <ele>77.6</ele>
        <time>2022-10-06T11:10:39Z</time>
      </trkpt>
      <trkpt lat="44.78576" lon="-0.09657">
        <ele>77.6</ele>
        <time>2022-10-06T11:10:40Z</time>
      </trkpt>
      <trkpt lat="44.78577" lon="-0.09656">
        <ele>77.6</ele>
        <time>2022-10-06T11:10:41Z</time>
      </trkpt>
      <trkpt lat="44.78578" lon="-0.09656">
        <ele>77.6</ele>
        <time>2022-10-06T11:10:42Z</time>
      </trkpt>
      <trkpt lat="44.78579" lon="-0.09655">
        <ele>77.6</ele>
        <time>2022-10-06T11:10:43Z</time>
      </trkpt>
      <trkpt lat="44.7858" lon="-0.09655">
        <ele>77.6</ele>
        <time>2022-10-06T11:10:44Z</time>
      </trkpt>
      <trkpt lat="44.78581" lon="-0.09654">
        <ele>77.6</ele>
        <time>2022-10-06T11:10:45Z</time>
      </trkpt>
      <trkpt lat="44.78582" lon="-0.09653">
        <ele>77.6</ele>
        <time>2022-10-06T11:10:46Z</time>
      </trkpt>
      <trkpt lat="44.78583" lon="-0.09653">
        <ele>77.6</ele>
        <time>2022-10-06T11:10:47Z</time>
      </trkpt>
      <trkpt lat="44.78584" lon="-0.09652">
        <ele>77.6</ele>
        <time>2022-10-06T11:10:48Z</time>
      </trkpt>
      <trkpt lat="44.78585" lon="-0.09651">
        <ele>77.5</ele>
        <time>2022-10-06T11:10:49Z</time>
      </trkpt>
      <trkpt lat="44.78586" lon="-0.0965">
        <ele>77.5</ele>
        <time>2022-10-06T11:10:50Z</time>
      </trkpt>
      <trkpt lat="44.78587" lon="-0.0965">
        <ele>77.5</ele>
        <time>2022-10-06T11:10:51Z</time>
      </trkpt>
      <trkpt lat="44.78588" lon="-0.09649">
        <ele>77.5</ele>
        <time>2022-10-06T11:10:52Z</time>
      </trkpt>
      <trkpt lat="44.78589" lon="-0.09648">
        <ele>77.5</ele>
        <time>2022-10-06T11:10:53Z</time>
      </trkpt>
      <trkpt lat="44.78591" lon="-0.09647">
        <ele>77.5</ele>
        <time>2022-10-06T11:10:54Z</time>
      </trkpt>
      <trkpt lat="44.78592" lon="-0.09647">
        <ele>77.5</ele>
        <time>2022-10-06T11:10:55Z</time>
      </trkpt>
      <trkpt lat="44.78593" lon="-0.09646">
        <ele>77.4</ele>
        <time>2022-10-06T11:10:56Z</time>
      </trkpt>
      <trkpt lat="44.78593" lon="-0.09646">
        <ele>77.4</ele>
        <time>2022-10-06T11:10:57Z</time>
      </trkpt>
      <trkpt lat="44.78594" lon="-0.09645">
        <ele>77.4</ele>
        <time>2022-10-06T11:10:58Z</time>
      </trkpt>
      <trkpt lat="44.78595" lon="-0.09645">
        <ele>77.4</ele>
        <time>2022-10-06T11:10:59Z</time>
      </trkpt>
      <trkpt lat="44.78596" lon="-0.09644">
        <ele>77.4</ele>
        <time>2022-10-06T11:11:00Z</time>
      </trkpt>
      <trkpt lat="44.78598" lon="-0.09643">
        <ele>77.3</ele>
        <time>2022-10-06T11:11:01Z</time>
      </trkpt>
      <trkpt lat="44.78599" lon="-0.09643">
        <ele>77.3</ele>
        <time>2022-10-06T11:11:02Z</time>
      </trkpt>
      <trkpt lat="44.786" lon="-0.09643">
        <ele>77.3</ele>
        <time>2022-10-06T11:11:03Z</time>
      </trkpt>
      <trkpt lat="44.78602" lon="-0.09642">
        <ele>77.3</ele>
        <time>2022-10-06T11:11:04Z</time>
      </trkpt>
      <trkpt lat="44.78603" lon="-0.09641">
        <ele>77.3</ele>
        <time>2022-10-06T11:11:05Z</time>
      </trkpt>
      <trkpt lat="44.78603" lon="-0.09641">
        <ele>77.3</ele>
        <time>2022-10-06T11:11:06Z</time>
      </trkpt>
      <trkpt lat="44.78604" lon="-0.0964">
        <ele>77.2</ele>
        <time>2022-10-06T11:11:07Z</time>
      </trkpt>
      <trkpt lat="44.78606" lon="-0.09639">
        <ele>77.2</ele>
        <time>2022-10-06T11:11:08Z</time>
      </trkpt>
      <trkpt lat="44.78607" lon="-0.09638">
        <ele>77.2</ele>
        <time>2022-10-06T11:11:09Z</time>
      </trkpt>
      <trkpt lat="44.78608" lon="-0.09637">
        <ele>77.2</ele>
        <time>2022-10-06T11:11:10Z</time>
      </trkpt>
      <trkpt lat="44.78609" lon="-0.09637">
        <ele>77.2</ele>
        <time>2022-10-06T11:11:11Z</time>
      </trkpt>
      <trkpt lat="44.7861" lon="-0.09636">
        <ele>77.1</ele>
        <time>2022-10-06T11:11:12Z</time>
      </trkpt>
      <trkpt lat="44.78612" lon="-0.09635">
        <ele>77.1</ele>
        <time>2022-10-06T11:11:13Z</time>
      </trkpt>
      <trkpt lat="44.78613" lon="-0.09635">
        <ele>77.1</ele>
        <time>2022-10-06T11:11:14Z</time>
      </trkpt>
      <trkpt lat="44.78614" lon="-0.09635">
        <ele>77.1</ele>
        <time>2022-10-06T11:11:15Z</time>
      </trkpt>
      <trkpt lat="44.78615" lon="-0.09635">
        <ele>77.1</ele>
        <time>2022-10-06T11:11:16Z</time>
      </trkpt>
      <trkpt lat="44.78616" lon="-0.09635">
        <ele>77</ele>
        <time>2022-10-06T11:11:17Z</time>
      </trkpt>
      <trkpt lat="44.78617" lon="-0.09634">
        <ele>77</ele>
        <time>2022-10-06T11:11:18Z</time>
      </trkpt>
      <trkpt lat="44.78619" lon="-0.09634">
        <ele>77</ele>
        <time>2022-10-06T11:11:19Z</time>
      </trkpt>
      <trkpt lat="44.7862" lon="-0.09634">
        <ele>77</ele>
        <time>2022-10-06T11:11:20Z</time>
      </trkpt>
      <trkpt lat="44.78621" lon="-0.09633">
        <ele>77</ele>
        <time>2022-10-06T11:11:21Z</time>
      </trkpt>
      <trkpt lat="44.78622" lon="-0.09633">
        <ele>77</ele>
        <time>2022-10-06T11:11:22Z</time>
      </trkpt>
      <trkpt lat="44.78623" lon="-0.09632">
        <ele>76.9</ele>
        <time>2022-10-06T11:11:23Z</time>
      </trkpt>
      <trkpt lat="44.78624" lon="-0.09632">
        <ele>76.9</ele>
        <time>2022-10-06T11:11:24Z</time>
      </trkpt>
      <trkpt lat="44.78626" lon="-0.09631">
        <ele>76.9</ele>
        <time>2022-10-06T11:11:25Z</time>
      </trkpt>
      <trkpt lat="44.78627" lon="-0.09631">
        <ele>76.9</ele>
        <time>2022-10-06T11:11:26Z</time>
      </trkpt>
      <trkpt lat="44.78628" lon="-0.0963">
        <ele>76.9</ele>
        <time>2022-10-06T11:11:27Z</time>
      </trkpt>
      <trkpt lat="44.7863" lon="-0.09629">
        <ele>76.8</ele>
        <time>2022-10-06T11:11:28Z</time>
      </trkpt>
      <trkpt lat="44.78631" lon="-0.09629">
        <ele>76.8</ele>
        <time>2022-10-06T11:11:29Z</time>
      </trkpt>
      <trkpt lat="44.78631" lon="-0.09629">
        <ele>76.8</ele>
        <time>2022-10-06T11:11:30Z</time>
      </trkpt>
      <trkpt lat="44.78633" lon="-0.09628">
        <ele>76.8</ele>
        <time>2022-10-06T11:11:31Z</time>
      </trkpt>
      <trkpt lat="44.78634" lon="-0.09628">
        <ele>76.8</ele>
        <time>2022-10-06T11:11:32Z</time>
      </trkpt>
      <trkpt lat="44.78635" lon="-0.09627">
        <ele>76.8</ele>
        <time>2022-10-06T11:11:33Z</time>
      </trkpt>
      <trkpt lat="44.78636" lon="-0.09627">
        <ele>76.8</ele>
        <time>2022-10-06T11:11:34Z</time>
      </trkpt>
      <trkpt lat="44.78637" lon="-0.09626">
        <ele>76.8</ele>
        <time>2022-10-06T11:11:35Z</time>
      </trkpt>
      <trkpt lat="44.78638" lon="-0.09626">
        <ele>76.8</ele>
        <time>2022-10-06T11:11:36Z</time>
      </trkpt>
      <trkpt lat="44.78639" lon="-0.09625">
        <ele>76.7</ele>
        <time>2022-10-06T11:11:37Z</time>
      </trkpt>
      <trkpt lat="44.78642" lon="-0.09624">
        <ele>76.7</ele>
        <time>2022-10-06T11:11:38Z</time>
      </trkpt>
      <trkpt lat="44.78642" lon="-0.09624">
        <ele>76.7</ele>
        <time>2022-10-06T11:11:39Z</time>
      </trkpt>
      <trkpt lat="44.78643" lon="-0.09624">
        <ele>76.7</ele>
        <time>2022-10-06T11:11:40Z</time>
      </trkpt>
      <trkpt lat="44.78644" lon="-0.09623">
        <ele>76.7</ele>
        <time>2022-10-06T11:11:41Z</time>
      </trkpt>
      <trkpt lat="44.78645" lon="-0.09623">
        <ele>76.7</ele>
        <time>2022-10-06T11:11:42Z</time>
      </trkpt>
      <trkpt lat="44.78647" lon="-0.09622">
        <ele>76.7</ele>
        <time>2022-10-06T11:11:43Z</time>
      </trkpt>
      <trkpt lat="44.78649" lon="-0.09621">
        <ele>76.7</ele>
        <time>2022-10-06T11:11:44Z</time>
      </trkpt>
      <trkpt lat="44.78649" lon="-0.09621">
        <ele>76.6</ele>
        <time>2022-10-06T11:11:45Z</time>
      </trkpt>
      <trkpt lat="44.7865" lon="-0.0962">
        <ele>76.6</ele>
        <time>2022-10-06T11:11:46Z</time>
      </trkpt>
      <trkpt lat="44.78651" lon="-0.0962">
        <ele>76.6</ele>
        <time>2022-10-06T11:11:47Z</time>
      </trkpt>
      <trkpt lat="44.78653" lon="-0.0962">
        <ele>76.6</ele>
        <time>2022-10-06T11:11:48Z</time>
      </trkpt>
      <trkpt lat="44.78654" lon="-0.0962">
        <ele>76.6</ele>
        <time>2022-10-06T11:11:49Z</time>
      </trkpt>
      <trkpt lat="44.78655" lon="-0.0962">
        <ele>76.6</ele>
        <time>2022-10-06T11:11:50Z</time>
      </trkpt>
      <trkpt lat="44.78657" lon="-0.09621">
        <ele>76.5</ele>
        <time>2022-10-06T11:11:51Z</time>
      </trkpt>
      <trkpt lat="44.78658" lon="-0.09621">
        <ele>76.6</ele>
        <time>2022-10-06T11:11:52Z</time>
      </trkpt>
      <trkpt lat="44.78658" lon="-0.09622">
        <ele>76.6</ele>
        <time>2022-10-06T11:11:53Z</time>
      </trkpt>
      <trkpt lat="44.78659" lon="-0.09623">
        <ele>76.6</ele>
        <time>2022-10-06T11:11:54Z</time>
      </trkpt>
      <trkpt lat="44.7866" lon="-0.09624">
        <ele>76.6</ele>
        <time>2022-10-06T11:11:55Z</time>
      </trkpt>
      <trkpt lat="44.7866" lon="-0.09625">
        <ele>76.6</ele>
        <time>2022-10-06T11:11:56Z</time>
      </trkpt>
      <trkpt lat="44.78661" lon="-0.09627">
        <ele>76.6</ele>
        <time>2022-10-06T11:11:57Z</time>
      </trkpt>
      <trkpt lat="44.78662" lon="-0.09629">
        <ele>76.6</ele>
        <time>2022-10-06T11:11:58Z</time>
      </trkpt>
      <trkpt lat="44.78662" lon="-0.09632">
        <ele>76.6</ele>
        <time>2022-10-06T11:11:59Z</time>
      </trkpt>
      <trkpt lat="44.78662" lon="-0.09633">
        <ele>76.6</ele>
        <time>2022-10-06T11:12:00Z</time>
      </trkpt>
      <trkpt lat="44.78663" lon="-0.09634">
        <ele>76.6</ele>
        <time>2022-10-06T11:12:01Z</time>
      </trkpt>
      <trkpt lat="44.78663" lon="-0.09635">
        <ele>76.6</ele>
        <time>2022-10-06T11:12:02Z</time>
      </trkpt>
      <trkpt lat="44.78664" lon="-0.09638">
        <ele>76.6</ele>
        <time>2022-10-06T11:12:03Z</time>
      </trkpt>
      <trkpt lat="44.78664" lon="-0.09639">
        <ele>76.6</ele>
        <time>2022-10-06T11:12:04Z</time>
      </trkpt>
      <trkpt lat="44.78664" lon="-0.09641">
        <ele>76.6</ele>
        <time>2022-10-06T11:12:05Z</time>
      </trkpt>
      <trkpt lat="44.78664" lon="-0.09643">
        <ele>76.6</ele>
        <time>2022-10-06T11:12:06Z</time>
      </trkpt>
      <trkpt lat="44.78664" lon="-0.09644">
        <ele>76.6</ele>
        <time>2022-10-06T11:12:07Z</time>
      </trkpt>
      <trkpt lat="44.78665" lon="-0.09647">
        <ele>76.6</ele>
        <time>2022-10-06T11:12:08Z</time>
      </trkpt>
      <trkpt lat="44.78665" lon="-0.09648">
        <ele>76.6</ele>
        <time>2022-10-06T11:12:09Z</time>
      </trkpt>
      <trkpt lat="44.78665" lon="-0.09649">
        <ele>76.6</ele>
        <time>2022-10-06T11:12:10Z</time>
      </trkpt>
      <trkpt lat="44.78666" lon="-0.09651">
        <ele>76.6</ele>
        <time>2022-10-06T11:12:11Z</time>
      </trkpt>
      <trkpt lat="44.78666" lon="-0.09653">
        <ele>76.6</ele>
        <time>2022-10-06T11:12:12Z</time>
      </trkpt>
      <trkpt lat="44.78667" lon="-0.09655">
        <ele>76.6</ele>
        <time>2022-10-06T11:12:13Z</time>
      </trkpt>
      <trkpt lat="44.78667" lon="-0.09656">
        <ele>76.6</ele>
        <time>2022-10-06T11:12:14Z</time>
      </trkpt>
      <trkpt lat="44.78667" lon="-0.09658">
        <ele>76.6</ele>
        <time>2022-10-06T11:12:15Z</time>
      </trkpt>
      <trkpt lat="44.78668" lon="-0.0966">
        <ele>76.6</ele>
        <time>2022-10-06T11:12:16Z</time>
      </trkpt>
      <trkpt lat="44.78668" lon="-0.09661">
        <ele>76.6</ele>
        <time>2022-10-06T11:12:17Z</time>
      </trkpt>
      <trkpt lat="44.78669" lon="-0.09664">
        <ele>76.6</ele>
        <time>2022-10-06T11:12:18Z</time>
      </trkpt>
      <trkpt lat="44.78669" lon="-0.09665">
        <ele>76.6</ele>
        <time>2022-10-06T11:12:19Z</time>
      </trkpt>
      <trkpt lat="44.78669" lon="-0.09666">
        <ele>76.6</ele>
        <time>2022-10-06T11:12:20Z</time>
      </trkpt>
      <trkpt lat="44.78669" lon="-0.09668">
        <ele>76.6</ele>
        <time>2022-10-06T11:12:21Z</time>
      </trkpt>
      <trkpt lat="44.7867" lon="-0.0967">
        <ele>76.6</ele>
        <time>2022-10-06T11:12:22Z</time>
      </trkpt>
      <trkpt lat="44.7867" lon="-0.09673">
        <ele>76.5</ele>
        <time>2022-10-06T11:12:23Z</time>
      </trkpt>
      <trkpt lat="44.7867" lon="-0.09674">
        <ele>76.5</ele>
        <time>2022-10-06T11:12:24Z</time>
      </trkpt>
      <trkpt lat="44.7867" lon="-0.09675">
        <ele>76.5</ele>
        <time>2022-10-06T11:12:25Z</time>
      </trkpt>
      <trkpt lat="44.78671" lon="-0.09677">
        <ele>76.5</ele>
        <time>2022-10-06T11:12:26Z</time>
      </trkpt>
      <trkpt lat="44.78671" lon="-0.09679">
        <ele>76.5</ele>
        <time>2022-10-06T11:12:27Z</time>
      </trkpt>
      <trkpt lat="44.78671" lon="-0.09681">
        <ele>76.5</ele>
        <time>2022-10-06T11:12:28Z</time>
      </trkpt>
      <trkpt lat="44.78672" lon="-0.09684">
        <ele>76.5</ele>
        <time>2022-10-06T11:12:29Z</time>
      </trkpt>
      <trkpt lat="44.78672" lon="-0.09685">
        <ele>76.5</ele>
        <time>2022-10-06T11:12:30Z</time>
      </trkpt>
      <trkpt lat="44.78672" lon="-0.09686">
        <ele>76.5</ele>
        <time>2022-10-06T11:12:31Z</time>
      </trkpt>
      <trkpt lat="44.78673" lon="-0.0969">
        <ele>76.4</ele>
        <time>2022-10-06T11:12:32Z</time>
      </trkpt>
      <trkpt lat="44.78673" lon="-0.09691">
        <ele>76.4</ele>
        <time>2022-10-06T11:12:33Z</time>
      </trkpt>
      <trkpt lat="44.78674" lon="-0.09692">
        <ele>76.4</ele>
        <time>2022-10-06T11:12:34Z</time>
      </trkpt>
      <trkpt lat="44.78674" lon="-0.09694">
        <ele>76.4</ele>
        <time>2022-10-06T11:12:35Z</time>
      </trkpt>
      <trkpt lat="44.78675" lon="-0.09695">
        <ele>76.4</ele>
        <time>2022-10-06T11:12:36Z</time>
      </trkpt>
      <trkpt lat="44.78675" lon="-0.09697">
        <ele>76.4</ele>
        <time>2022-10-06T11:12:37Z</time>
      </trkpt>
      <trkpt lat="44.78676" lon="-0.09699">
        <ele>76.4</ele>
        <time>2022-10-06T11:12:38Z</time>
      </trkpt>
      <trkpt lat="44.78676" lon="-0.09701">
        <ele>76.3</ele>
        <time>2022-10-06T11:12:39Z</time>
      </trkpt>
      <trkpt lat="44.78677" lon="-0.09702">
        <ele>76.3</ele>
        <time>2022-10-06T11:12:40Z</time>
      </trkpt>
      <trkpt lat="44.78677" lon="-0.09704">
        <ele>76.3</ele>
        <time>2022-10-06T11:12:41Z</time>
      </trkpt>
      <trkpt lat="44.78678" lon="-0.09705">
        <ele>76.3</ele>
        <time>2022-10-06T11:12:42Z</time>
      </trkpt>
      <trkpt lat="44.78679" lon="-0.09707">
        <ele>76.3</ele>
        <time>2022-10-06T11:12:43Z</time>
      </trkpt>
      <trkpt lat="44.78679" lon="-0.09708">
        <ele>76.3</ele>
        <time>2022-10-06T11:12:44Z</time>
      </trkpt>
      <trkpt lat="44.78679" lon="-0.0971">
        <ele>76.3</ele>
        <time>2022-10-06T11:12:45Z</time>
      </trkpt>
      <trkpt lat="44.7868" lon="-0.09712">
        <ele>76.3</ele>
        <time>2022-10-06T11:12:46Z</time>
      </trkpt>
      <trkpt lat="44.7868" lon="-0.09715">
        <ele>76.2</ele>
        <time>2022-10-06T11:12:47Z</time>
      </trkpt>
      <trkpt lat="44.78681" lon="-0.09717">
        <ele>76.2</ele>
        <time>2022-10-06T11:12:48Z</time>
      </trkpt>
      <trkpt lat="44.78681" lon="-0.09718">
        <ele>76.2</ele>
        <time>2022-10-06T11:12:49Z</time>
      </trkpt>
      <trkpt lat="44.78681" lon="-0.09719">
        <ele>76.2</ele>
        <time>2022-10-06T11:12:50Z</time>
      </trkpt>
      <trkpt lat="44.78682" lon="-0.09721">
        <ele>76.2</ele>
        <time>2022-10-06T11:12:51Z</time>
      </trkpt>
      <trkpt lat="44.78682" lon="-0.09722">
        <ele>76.2</ele>
        <time>2022-10-06T11:12:52Z</time>
      </trkpt>
      <trkpt lat="44.78682" lon="-0.09724">
        <ele>76.2</ele>
        <time>2022-10-06T11:12:53Z</time>
      </trkpt>
      <trkpt lat="44.78683" lon="-0.09727">
        <ele>76.1</ele>
        <time>2022-10-06T11:12:54Z</time>
      </trkpt>
      <trkpt lat="44.78683" lon="-0.09728">
        <ele>76.1</ele>
        <time>2022-10-06T11:12:55Z</time>
      </trkpt>
      <trkpt lat="44.78683" lon="-0.0973">
        <ele>76.1</ele>
        <time>2022-10-06T11:12:56Z</time>
      </trkpt>
      <trkpt lat="44.78684" lon="-0.09731">
        <ele>76.1</ele>
        <time>2022-10-06T11:12:57Z</time>
      </trkpt>
      <trkpt lat="44.78684" lon="-0.09733">
        <ele>76.1</ele>
        <time>2022-10-06T11:12:58Z</time>
      </trkpt>
      <trkpt lat="44.78685" lon="-0.09735">
        <ele>76.1</ele>
        <time>2022-10-06T11:12:59Z</time>
      </trkpt>
      <trkpt lat="44.78685" lon="-0.09737">
        <ele>76</ele>
        <time>2022-10-06T11:13:00Z</time>
      </trkpt>
      <trkpt lat="44.78685" lon="-0.09738">
        <ele>76</ele>
        <time>2022-10-06T11:13:01Z</time>
      </trkpt>
      <trkpt lat="44.78685" lon="-0.0974">
        <ele>76</ele>
        <time>2022-10-06T11:13:02Z</time>
      </trkpt>
      <trkpt lat="44.78686" lon="-0.09741">
        <ele>76</ele>
        <time>2022-10-06T11:13:03Z</time>
      </trkpt>
      <trkpt lat="44.78686" lon="-0.09744">
        <ele>76</ele>
        <time>2022-10-06T11:13:04Z</time>
      </trkpt>
      <trkpt lat="44.78687" lon="-0.09746">
        <ele>75.9</ele>
        <time>2022-10-06T11:13:05Z</time>
      </trkpt>
      <trkpt lat="44.78688" lon="-0.09747">
        <ele>75.9</ele>
        <time>2022-10-06T11:13:06Z</time>
      </trkpt>
      <trkpt lat="44.78688" lon="-0.09748">
        <ele>75.9</ele>
        <time>2022-10-06T11:13:07Z</time>
      </trkpt>
      <trkpt lat="44.78688" lon="-0.0975">
        <ele>75.9</ele>
        <time>2022-10-06T11:13:08Z</time>
      </trkpt>
      <trkpt lat="44.78689" lon="-0.09753">
        <ele>75.8</ele>
        <time>2022-10-06T11:13:09Z</time>
      </trkpt>
      <trkpt lat="44.78689" lon="-0.09754">
        <ele>75.8</ele>
        <time>2022-10-06T11:13:10Z</time>
      </trkpt>
      <trkpt lat="44.78689" lon="-0.09756">
        <ele>75.8</ele>
        <time>2022-10-06T11:13:11Z</time>
      </trkpt>
      <trkpt lat="44.7869" lon="-0.09757">
        <ele>75.8</ele>
        <time>2022-10-06T11:13:12Z</time>
      </trkpt>
      <trkpt lat="44.7869" lon="-0.09759">
        <ele>75.8</ele>
        <time>2022-10-06T11:13:13Z</time>
      </trkpt>
      <trkpt lat="44.78691" lon="-0.09761">
        <ele>75.7</ele>
        <time>2022-10-06T11:13:14Z</time>
      </trkpt>
      <trkpt lat="44.78691" lon="-0.09762">
        <ele>75.7</ele>
        <time>2022-10-06T11:13:15Z</time>
      </trkpt>
      <trkpt lat="44.78691" lon="-0.09764">
        <ele>75.7</ele>
        <time>2022-10-06T11:13:16Z</time>
      </trkpt>
      <trkpt lat="44.78691" lon="-0.09766">
        <ele>75.7</ele>
        <time>2022-10-06T11:13:17Z</time>
      </trkpt>
      <trkpt lat="44.78692" lon="-0.09768">
        <ele>75.7</ele>
        <time>2022-10-06T11:13:18Z</time>
      </trkpt>
      <trkpt lat="44.78692" lon="-0.0977">
        <ele>75.6</ele>
        <time>2022-10-06T11:13:19Z</time>
      </trkpt>
      <trkpt lat="44.78693" lon="-0.09773">
        <ele>75.6</ele>
        <time>2022-10-06T11:13:20Z</time>
      </trkpt>
      <trkpt lat="44.78693" lon="-0.09774">
        <ele>75.6</ele>
        <time>2022-10-06T11:13:21Z</time>
      </trkpt>
      <trkpt lat="44.78694" lon="-0.09775">
        <ele>75.6</ele>
        <time>2022-10-06T11:13:22Z</time>
      </trkpt>
      <trkpt lat="44.78694" lon="-0.09777">
        <ele>75.5</ele>
        <time>2022-10-06T11:13:23Z</time>
      </trkpt>
      <trkpt lat="44.78695" lon="-0.09779">
        <ele>75.5</ele>
        <time>2022-10-06T11:13:24Z</time>
      </trkpt>
      <trkpt lat="44.78695" lon="-0.09782">
        <ele>75.5</ele>
        <time>2022-10-06T11:13:25Z</time>
      </trkpt>
      <trkpt lat="44.78696" lon="-0.09783">
        <ele>75.5</ele>
        <time>2022-10-06T11:13:26Z</time>
      </trkpt>
      <trkpt lat="44.78696" lon="-0.09784">
        <ele>75.5</ele>
        <time>2022-10-06T11:13:27Z</time>
      </trkpt>
      <trkpt lat="44.78696" lon="-0.09786">
        <ele>75.4</ele>
        <time>2022-10-06T11:13:28Z</time>
      </trkpt>
      <trkpt lat="44.78697" lon="-0.09788">
        <ele>75.4</ele>
        <time>2022-10-06T11:13:29Z</time>
      </trkpt>
      <trkpt lat="44.78697" lon="-0.09789">
        <ele>75.4</ele>
        <time>2022-10-06T11:13:30Z</time>
      </trkpt>
      <trkpt lat="44.78698" lon="-0.09791">
        <ele>75.4</ele>
        <time>2022-10-06T11:13:31Z</time>
      </trkpt>
      <trkpt lat="44.78698" lon="-0.09792">
        <ele>75.3</ele>
        <time>2022-10-06T11:13:32Z</time>
      </trkpt>
      <trkpt lat="44.78699" lon="-0.09794">
        <ele>75.3</ele>
        <time>2022-10-06T11:13:33Z</time>
      </trkpt>
      <trkpt lat="44.78699" lon="-0.09796">
        <ele>75.3</ele>
        <time>2022-10-06T11:13:34Z</time>
      </trkpt>
      <trkpt lat="44.787" lon="-0.09799">
        <ele>75.2</ele>
        <time>2022-10-06T11:13:35Z</time>
      </trkpt>
      <trkpt lat="44.78701" lon="-0.098">
        <ele>75.2</ele>
        <time>2022-10-06T11:13:36Z</time>
      </trkpt>
      <trkpt lat="44.78701" lon="-0.09801">
        <ele>75.2</ele>
        <time>2022-10-06T11:13:37Z</time>
      </trkpt>
      <trkpt lat="44.78702" lon="-0.09803">
        <ele>75.2</ele>
        <time>2022-10-06T11:13:38Z</time>
      </trkpt>
      <trkpt lat="44.78702" lon="-0.09805">
        <ele>75.1</ele>
        <time>2022-10-06T11:13:39Z</time>
      </trkpt>
      <trkpt lat="44.78703" lon="-0.09806">
        <ele>75.1</ele>
        <time>2022-10-06T11:13:40Z</time>
      </trkpt>
      <trkpt lat="44.78703" lon="-0.09808">
        <ele>75.1</ele>
        <time>2022-10-06T11:13:41Z</time>
      </trkpt>
      <trkpt lat="44.78704" lon="-0.0981">
        <ele>75</ele>
        <time>2022-10-06T11:13:42Z</time>
      </trkpt>
      <trkpt lat="44.78704" lon="-0.09812">
        <ele>75</ele>
        <time>2022-10-06T11:13:43Z</time>
      </trkpt>
      <trkpt lat="44.78704" lon="-0.09814">
        <ele>75</ele>
        <time>2022-10-06T11:13:44Z</time>
      </trkpt>
      <trkpt lat="44.78705" lon="-0.09815">
        <ele>74.9</ele>
        <time>2022-10-06T11:13:45Z</time>
      </trkpt>
      <trkpt lat="44.78705" lon="-0.09816">
        <ele>74.9</ele>
        <time>2022-10-06T11:13:46Z</time>
      </trkpt>
      <trkpt lat="44.78706" lon="-0.09818">
        <ele>74.9</ele>
        <time>2022-10-06T11:13:47Z</time>
      </trkpt>
      <trkpt lat="44.78706" lon="-0.0982">
        <ele>74.8</ele>
        <time>2022-10-06T11:13:48Z</time>
      </trkpt>
      <trkpt lat="44.78707" lon="-0.09822">
        <ele>74.8</ele>
        <time>2022-10-06T11:13:49Z</time>
      </trkpt>
      <trkpt lat="44.78708" lon="-0.09823">
        <ele>74.8</ele>
        <time>2022-10-06T11:13:50Z</time>
      </trkpt>
      <trkpt lat="44.78708" lon="-0.09825">
        <ele>74.7</ele>
        <time>2022-10-06T11:13:51Z</time>
      </trkpt>
      <trkpt lat="44.78709" lon="-0.09826">
        <ele>74.7</ele>
        <time>2022-10-06T11:13:52Z</time>
      </trkpt>
      <trkpt lat="44.78709" lon="-0.09828">
        <ele>74.6</ele>
        <time>2022-10-06T11:13:53Z</time>
      </trkpt>
      <trkpt lat="44.7871" lon="-0.0983">
        <ele>74.6</ele>
        <time>2022-10-06T11:13:54Z</time>
      </trkpt>
      <trkpt lat="44.7871" lon="-0.09832">
        <ele>74.6</ele>
        <time>2022-10-06T11:13:55Z</time>
      </trkpt>
      <trkpt lat="44.7871" lon="-0.09833">
        <ele>74.5</ele>
        <time>2022-10-06T11:13:56Z</time>
      </trkpt>
      <trkpt lat="44.78711" lon="-0.09835">
        <ele>74.5</ele>
        <time>2022-10-06T11:13:57Z</time>
      </trkpt>
      <trkpt lat="44.78711" lon="-0.09836">
        <ele>74.5</ele>
        <time>2022-10-06T11:13:58Z</time>
      </trkpt>
      <trkpt lat="44.78712" lon="-0.09839">
        <ele>74.4</ele>
        <time>2022-10-06T11:13:59Z</time>
      </trkpt>
      <trkpt lat="44.78712" lon="-0.0984">
        <ele>74.4</ele>
        <time>2022-10-06T11:14:00Z</time>
      </trkpt>
      <trkpt lat="44.78713" lon="-0.09841">
        <ele>74.3</ele>
        <time>2022-10-06T11:14:01Z</time>
      </trkpt>
      <trkpt lat="44.78713" lon="-0.09842">
        <ele>74.3</ele>
        <time>2022-10-06T11:14:02Z</time>
      </trkpt>
      <trkpt lat="44.78714" lon="-0.09844">
        <ele>74.3</ele>
        <time>2022-10-06T11:14:03Z</time>
      </trkpt>
      <trkpt lat="44.78715" lon="-0.09846">
        <ele>74.2</ele>
        <time>2022-10-06T11:14:04Z</time>
      </trkpt>
      <trkpt lat="44.78715" lon="-0.09848">
        <ele>74.2</ele>
        <time>2022-10-06T11:14:05Z</time>
      </trkpt>
      <trkpt lat="44.78715" lon="-0.09849">
        <ele>74.1</ele>
        <time>2022-10-06T11:14:06Z</time>
      </trkpt>
      <trkpt lat="44.78716" lon="-0.0985">
        <ele>74.1</ele>
        <time>2022-10-06T11:14:07Z</time>
      </trkpt>
      <trkpt lat="44.78716" lon="-0.09851">
        <ele>74.1</ele>
        <time>2022-10-06T11:14:08Z</time>
      </trkpt>
      <trkpt lat="44.78717" lon="-0.09854">
        <ele>74</ele>
        <time>2022-10-06T11:14:09Z</time>
      </trkpt>
      <trkpt lat="44.78717" lon="-0.09855">
        <ele>74</ele>
        <time>2022-10-06T11:14:10Z</time>
      </trkpt>
      <trkpt lat="44.78717" lon="-0.09856">
        <ele>74</ele>
        <time>2022-10-06T11:14:11Z</time>
      </trkpt>
      <trkpt lat="44.78718" lon="-0.09858">
        <ele>73.9</ele>
        <time>2022-10-06T11:14:12Z</time>
      </trkpt>
      <trkpt lat="44.78718" lon="-0.0986">
        <ele>73.9</ele>
        <time>2022-10-06T11:14:13Z</time>
      </trkpt>
      <trkpt lat="44.78719" lon="-0.09861">
        <ele>73.8</ele>
        <time>2022-10-06T11:14:14Z</time>
      </trkpt>
      <trkpt lat="44.78719" lon="-0.09862">
        <ele>73.8</ele>
        <time>2022-10-06T11:14:15Z</time>
      </trkpt>
      <trkpt lat="44.7872" lon="-0.09864">
        <ele>73.8</ele>
        <time>2022-10-06T11:14:16Z</time>
      </trkpt>
      <trkpt lat="44.7872" lon="-0.09865">
        <ele>73.7</ele>
        <time>2022-10-06T11:14:17Z</time>
      </trkpt>
      <trkpt lat="44.78721" lon="-0.09867">
        <ele>73.7</ele>
        <time>2022-10-06T11:14:18Z</time>
      </trkpt>
      <trkpt lat="44.78722" lon="-0.09869">
        <ele>73.6</ele>
        <time>2022-10-06T11:14:19Z</time>
      </trkpt>
      <trkpt lat="44.78722" lon="-0.0987">
        <ele>73.6</ele>
        <time>2022-10-06T11:14:20Z</time>
      </trkpt>
      <trkpt lat="44.78722" lon="-0.09872">
        <ele>73.6</ele>
        <time>2022-10-06T11:14:21Z</time>
      </trkpt>
      <trkpt lat="44.78723" lon="-0.09873">
        <ele>73.5</ele>
        <time>2022-10-06T11:14:22Z</time>
      </trkpt>
      <trkpt lat="44.78723" lon="-0.09875">
        <ele>73.5</ele>
        <time>2022-10-06T11:14:23Z</time>
      </trkpt>
      <trkpt lat="44.78724" lon="-0.09877">
        <ele>73.4</ele>
        <time>2022-10-06T11:14:24Z</time>
      </trkpt>
      <trkpt lat="44.78724" lon="-0.09878">
        <ele>73.4</ele>
        <time>2022-10-06T11:14:25Z</time>
      </trkpt>
      <trkpt lat="44.78724" lon="-0.09879">
        <ele>73.4</ele>
        <time>2022-10-06T11:14:26Z</time>
      </trkpt>
      <trkpt lat="44.78725" lon="-0.09881">
        <ele>73.3</ele>
        <time>2022-10-06T11:14:27Z</time>
      </trkpt>
      <trkpt lat="44.78725" lon="-0.09882">
        <ele>73.3</ele>
        <time>2022-10-06T11:14:28Z</time>
      </trkpt>
      <trkpt lat="44.78726" lon="-0.09884">
        <ele>73.2</ele>
        <time>2022-10-06T11:14:29Z</time>
      </trkpt>
      <trkpt lat="44.78726" lon="-0.09886">
        <ele>73.2</ele>
        <time>2022-10-06T11:14:30Z</time>
      </trkpt>
      <trkpt lat="44.78727" lon="-0.09887">
        <ele>73.1</ele>
        <time>2022-10-06T11:14:31Z</time>
      </trkpt>
      <trkpt lat="44.78727" lon="-0.09888">
        <ele>73.1</ele>
        <time>2022-10-06T11:14:32Z</time>
      </trkpt>
      <trkpt lat="44.78727" lon="-0.09892">
        <ele>73</ele>
        <time>2022-10-06T11:14:33Z</time>
      </trkpt>
      <trkpt lat="44.78726" lon="-0.09893">
        <ele>73</ele>
        <time>2022-10-06T11:14:34Z</time>
      </trkpt>
      <trkpt lat="44.78726" lon="-0.09894">
        <ele>72.9</ele>
        <time>2022-10-06T11:14:35Z</time>
      </trkpt>
      <trkpt lat="44.78726" lon="-0.09896">
        <ele>72.9</ele>
        <time>2022-10-06T11:14:36Z</time>
      </trkpt>
      <trkpt lat="44.78726" lon="-0.09897">
        <ele>72.8</ele>
        <time>2022-10-06T11:14:37Z</time>
      </trkpt>
      <trkpt lat="44.78726" lon="-0.09899">
        <ele>72.8</ele>
        <time>2022-10-06T11:14:38Z</time>
      </trkpt>
      <trkpt lat="44.78726" lon="-0.09901">
        <ele>72.7</ele>
        <time>2022-10-06T11:14:39Z</time>
      </trkpt>
      <trkpt lat="44.78726" lon="-0.09902">
        <ele>72.7</ele>
        <time>2022-10-06T11:14:40Z</time>
      </trkpt>
      <trkpt lat="44.78727" lon="-0.09903">
        <ele>72.7</ele>
        <time>2022-10-06T11:14:41Z</time>
      </trkpt>
      <trkpt lat="44.78727" lon="-0.09904">
        <ele>72.6</ele>
        <time>2022-10-06T11:14:42Z</time>
      </trkpt>
      <trkpt lat="44.78727" lon="-0.09905">
        <ele>72.6</ele>
        <time>2022-10-06T11:14:43Z</time>
      </trkpt>
      <trkpt lat="44.78728" lon="-0.09907">
        <ele>72.5</ele>
        <time>2022-10-06T11:14:44Z</time>
      </trkpt>
      <trkpt lat="44.78728" lon="-0.09908">
        <ele>72.5</ele>
        <time>2022-10-06T11:14:45Z</time>
      </trkpt>
      <trkpt lat="44.78729" lon="-0.09909">
        <ele>72.5</ele>
        <time>2022-10-06T11:14:46Z</time>
      </trkpt>
      <trkpt lat="44.78729" lon="-0.0991">
        <ele>72.4</ele>
        <time>2022-10-06T11:14:47Z</time>
      </trkpt>
      <trkpt lat="44.7873" lon="-0.09911">
        <ele>72.4</ele>
        <time>2022-10-06T11:14:48Z</time>
      </trkpt>
      <trkpt lat="44.7873" lon="-0.09913">
        <ele>72.3</ele>
        <time>2022-10-06T11:14:49Z</time>
      </trkpt>
      <trkpt lat="44.78731" lon="-0.09914">
        <ele>72.3</ele>
        <time>2022-10-06T11:14:50Z</time>
      </trkpt>
      <trkpt lat="44.78731" lon="-0.09915">
        <ele>72.3</ele>
        <time>2022-10-06T11:14:51Z</time>
      </trkpt>
      <trkpt lat="44.78731" lon="-0.09916">
        <ele>72.3</ele>
        <time>2022-10-06T11:14:52Z</time>
      </trkpt>
      <trkpt lat="44.78732" lon="-0.09918">
        <ele>72.2</ele>
        <time>2022-10-06T11:14:53Z</time>
      </trkpt>
      <trkpt lat="44.78732" lon="-0.09919">
        <ele>72.2</ele>
        <time>2022-10-06T11:14:54Z</time>
      </trkpt>
      <trkpt lat="44.78733" lon="-0.0992">
        <ele>72.1</ele>
        <time>2022-10-06T11:14:55Z</time>
      </trkpt>
      <trkpt lat="44.78733" lon="-0.09922">
        <ele>72.1</ele>
        <time>2022-10-06T11:14:56Z</time>
      </trkpt>
      <trkpt lat="44.78734" lon="-0.09923">
        <ele>72.1</ele>
        <time>2022-10-06T11:14:57Z</time>
      </trkpt>
      <trkpt lat="44.78735" lon="-0.09926">
        <ele>72</ele>
        <time>2022-10-06T11:14:58Z</time>
      </trkpt>
      <trkpt lat="44.78735" lon="-0.09927">
        <ele>72</ele>
        <time>2022-10-06T11:14:59Z</time>
      </trkpt>
      <trkpt lat="44.78735" lon="-0.09928">
        <ele>72</ele>
        <time>2022-10-06T11:15:00Z</time>
      </trkpt>
      <trkpt lat="44.78736" lon="-0.09929">
        <ele>71.9</ele>
        <time>2022-10-06T11:15:01Z</time>
      </trkpt>
      <trkpt lat="44.78737" lon="-0.09931">
        <ele>71.9</ele>
        <time>2022-10-06T11:15:02Z</time>
      </trkpt>
      <trkpt lat="44.78737" lon="-0.09932">
        <ele>71.9</ele>
        <time>2022-10-06T11:15:03Z</time>
      </trkpt>
      <trkpt lat="44.78738" lon="-0.09934">
        <ele>71.8</ele>
        <time>2022-10-06T11:15:04Z</time>
      </trkpt>
      <trkpt lat="44.78738" lon="-0.09935">
        <ele>71.8</ele>
        <time>2022-10-06T11:15:05Z</time>
      </trkpt>
      <trkpt lat="44.78739" lon="-0.09936">
        <ele>71.8</ele>
        <time>2022-10-06T11:15:06Z</time>
      </trkpt>
      <trkpt lat="44.7874" lon="-0.0994">
        <ele>71.7</ele>
        <time>2022-10-06T11:15:07Z</time>
      </trkpt>
      <trkpt lat="44.7874" lon="-0.09941">
        <ele>71.6</ele>
        <time>2022-10-06T11:15:08Z</time>
      </trkpt>
      <trkpt lat="44.7874" lon="-0.09942">
        <ele>71.6</ele>
        <time>2022-10-06T11:15:09Z</time>
      </trkpt>
      <trkpt lat="44.78741" lon="-0.09944">
        <ele>71.6</ele>
        <time>2022-10-06T11:15:10Z</time>
      </trkpt>
      <trkpt lat="44.78741" lon="-0.09945">
        <ele>71.6</ele>
        <time>2022-10-06T11:15:11Z</time>
      </trkpt>
      <trkpt lat="44.78742" lon="-0.09947">
        <ele>71.5</ele>
        <time>2022-10-06T11:15:12Z</time>
      </trkpt>
      <trkpt lat="44.78742" lon="-0.09948">
        <ele>71.5</ele>
        <time>2022-10-06T11:15:13Z</time>
      </trkpt>
      <trkpt lat="44.78743" lon="-0.09951">
        <ele>71.4</ele>
        <time>2022-10-06T11:15:14Z</time>
      </trkpt>
      <trkpt lat="44.78744" lon="-0.09952">
        <ele>71.4</ele>
        <time>2022-10-06T11:15:15Z</time>
      </trkpt>
      <trkpt lat="44.78744" lon="-0.09953">
        <ele>71.3</ele>
        <time>2022-10-06T11:15:16Z</time>
      </trkpt>
      <trkpt lat="44.78745" lon="-0.09954">
        <ele>71.3</ele>
        <time>2022-10-06T11:15:17Z</time>
      </trkpt>
      <trkpt lat="44.78745" lon="-0.09955">
        <ele>71.3</ele>
        <time>2022-10-06T11:15:18Z</time>
      </trkpt>
      <trkpt lat="44.78746" lon="-0.09957">
        <ele>71.2</ele>
        <time>2022-10-06T11:15:19Z</time>
      </trkpt>
      <trkpt lat="44.78746" lon="-0.09958">
        <ele>71.2</ele>
        <time>2022-10-06T11:15:20Z</time>
      </trkpt>
      <trkpt lat="44.78747" lon="-0.0996">
        <ele>71.2</ele>
        <time>2022-10-06T11:15:21Z</time>
      </trkpt>
      <trkpt lat="44.78748" lon="-0.09962">
        <ele>71.1</ele>
        <time>2022-10-06T11:15:22Z</time>
      </trkpt>
      <trkpt lat="44.78748" lon="-0.09964">
        <ele>71.1</ele>
        <time>2022-10-06T11:15:23Z</time>
      </trkpt>
      <trkpt lat="44.78749" lon="-0.09965">
        <ele>71</ele>
        <time>2022-10-06T11:15:24Z</time>
      </trkpt>
      <trkpt lat="44.78749" lon="-0.09966">
        <ele>71</ele>
        <time>2022-10-06T11:15:25Z</time>
      </trkpt>
      <trkpt lat="44.78749" lon="-0.09967">
        <ele>71</ele>
        <time>2022-10-06T11:15:26Z</time>
      </trkpt>
      <trkpt lat="44.78749" lon="-0.09969">
        <ele>70.9</ele>
        <time>2022-10-06T11:15:27Z</time>
      </trkpt>
      <trkpt lat="44.78751" lon="-0.09972">
        <ele>70.9</ele>
        <time>2022-10-06T11:15:28Z</time>
      </trkpt>
      <trkpt lat="44.78751" lon="-0.09974">
        <ele>70.8</ele>
        <time>2022-10-06T11:15:29Z</time>
      </trkpt>
      <trkpt lat="44.78752" lon="-0.09975">
        <ele>70.8</ele>
        <time>2022-10-06T11:15:30Z</time>
      </trkpt>
      <trkpt lat="44.78752" lon="-0.09976">
        <ele>70.8</ele>
        <time>2022-10-06T11:15:31Z</time>
      </trkpt>
      <trkpt lat="44.78753" lon="-0.09977">
        <ele>70.7</ele>
        <time>2022-10-06T11:15:32Z</time>
      </trkpt>
      <trkpt lat="44.78754" lon="-0.09979">
        <ele>70.7</ele>
        <time>2022-10-06T11:15:33Z</time>
      </trkpt>
      <trkpt lat="44.78754" lon="-0.09981">
        <ele>70.6</ele>
        <time>2022-10-06T11:15:34Z</time>
      </trkpt>
      <trkpt lat="44.78755" lon="-0.09983">
        <ele>70.6</ele>
        <time>2022-10-06T11:15:35Z</time>
      </trkpt>
      <trkpt lat="44.78756" lon="-0.09984">
        <ele>70.6</ele>
        <time>2022-10-06T11:15:36Z</time>
      </trkpt>
      <trkpt lat="44.78756" lon="-0.09986">
        <ele>70.5</ele>
        <time>2022-10-06T11:15:37Z</time>
      </trkpt>
      <trkpt lat="44.78757" lon="-0.09987">
        <ele>70.5</ele>
        <time>2022-10-06T11:15:38Z</time>
      </trkpt>
      <trkpt lat="44.78757" lon="-0.0999">
        <ele>70.4</ele>
        <time>2022-10-06T11:15:39Z</time>
      </trkpt>
      <trkpt lat="44.78757" lon="-0.0999">
        <ele>70.4</ele>
        <time>2022-10-06T11:15:40Z</time>
      </trkpt>
      <trkpt lat="44.78758" lon="-0.09992">
        <ele>70.4</ele>
        <time>2022-10-06T11:15:41Z</time>
      </trkpt>
      <trkpt lat="44.78758" lon="-0.09994">
        <ele>70.4</ele>
        <time>2022-10-06T11:15:42Z</time>
      </trkpt>
      <trkpt lat="44.78759" lon="-0.09995">
        <ele>70.3</ele>
        <time>2022-10-06T11:15:43Z</time>
      </trkpt>
      <trkpt lat="44.7876" lon="-0.09997">
        <ele>70.3</ele>
        <time>2022-10-06T11:15:44Z</time>
      </trkpt>
      <trkpt lat="44.78761" lon="-0.09998">
        <ele>70.3</ele>
        <time>2022-10-06T11:15:45Z</time>
      </trkpt>
      <trkpt lat="44.78761" lon="-0.1">
        <ele>70.2</ele>
        <time>2022-10-06T11:15:46Z</time>
      </trkpt>
      <trkpt lat="44.78762" lon="-0.10001">
        <ele>70.2</ele>
        <time>2022-10-06T11:15:47Z</time>
      </trkpt>
      <trkpt lat="44.78763" lon="-0.10004">
        <ele>70.1</ele>
        <time>2022-10-06T11:15:48Z</time>
      </trkpt>
      <trkpt lat="44.78764" lon="-0.10006">
        <ele>70.1</ele>
        <time>2022-10-06T11:15:49Z</time>
      </trkpt>
      <trkpt lat="44.78764" lon="-0.10007">
        <ele>70.1</ele>
        <time>2022-10-06T11:15:50Z</time>
      </trkpt>
      <trkpt lat="44.78764" lon="-0.10008">
        <ele>70.1</ele>
        <time>2022-10-06T11:15:51Z</time>
      </trkpt>
      <trkpt lat="44.78765" lon="-0.1001">
        <ele>70</ele>
        <time>2022-10-06T11:15:52Z</time>
      </trkpt>
      <trkpt lat="44.78765" lon="-0.10011">
        <ele>70</ele>
        <time>2022-10-06T11:15:53Z</time>
      </trkpt>
      <trkpt lat="44.78767" lon="-0.10014">
        <ele>70</ele>
        <time>2022-10-06T11:15:54Z</time>
      </trkpt>
      <trkpt lat="44.78767" lon="-0.10015">
        <ele>70</ele>
        <time>2022-10-06T11:15:55Z</time>
      </trkpt>
      <trkpt lat="44.78767" lon="-0.10016">
        <ele>69.9</ele>
        <time>2022-10-06T11:15:56Z</time>
      </trkpt>
      <trkpt lat="44.78768" lon="-0.10017">
        <ele>69.9</ele>
        <time>2022-10-06T11:15:57Z</time>
      </trkpt>
      <trkpt lat="44.78769" lon="-0.10019">
        <ele>69.9</ele>
        <time>2022-10-06T11:15:58Z</time>
      </trkpt>
      <trkpt lat="44.7877" lon="-0.10022">
        <ele>69.8</ele>
        <time>2022-10-06T11:15:59Z</time>
      </trkpt>
      <trkpt lat="44.7877" lon="-0.10022">
        <ele>69.8</ele>
        <time>2022-10-06T11:16:00Z</time>
      </trkpt>
      <trkpt lat="44.78771" lon="-0.10023">
        <ele>69.8</ele>
        <time>2022-10-06T11:16:01Z</time>
      </trkpt>
      <trkpt lat="44.78771" lon="-0.10025">
        <ele>69.8</ele>
        <time>2022-10-06T11:16:02Z</time>
      </trkpt>
      <trkpt lat="44.78772" lon="-0.10027">
        <ele>69.7</ele>
        <time>2022-10-06T11:16:03Z</time>
      </trkpt>
      <trkpt lat="44.78773" lon="-0.10029">
        <ele>69.7</ele>
        <time>2022-10-06T11:16:04Z</time>
      </trkpt>
      <trkpt lat="44.78774" lon="-0.1003">
        <ele>69.7</ele>
        <time>2022-10-06T11:16:05Z</time>
      </trkpt>
      <trkpt lat="44.78774" lon="-0.10031">
        <ele>69.7</ele>
        <time>2022-10-06T11:16:06Z</time>
      </trkpt>
      <trkpt lat="44.78775" lon="-0.10033">
        <ele>69.6</ele>
        <time>2022-10-06T11:16:07Z</time>
      </trkpt>
      <trkpt lat="44.78775" lon="-0.10034">
        <ele>69.6</ele>
        <time>2022-10-06T11:16:08Z</time>
      </trkpt>
      <trkpt lat="44.78776" lon="-0.10036">
        <ele>69.6</ele>
        <time>2022-10-06T11:16:09Z</time>
      </trkpt>
      <trkpt lat="44.78777" lon="-0.10039">
        <ele>69.5</ele>
        <time>2022-10-06T11:16:10Z</time>
      </trkpt>
      <trkpt lat="44.78777" lon="-0.1004">
        <ele>69.5</ele>
        <time>2022-10-06T11:16:11Z</time>
      </trkpt>
      <trkpt lat="44.78778" lon="-0.10041">
        <ele>69.5</ele>
        <time>2022-10-06T11:16:12Z</time>
      </trkpt>
      <trkpt lat="44.78778" lon="-0.10043">
        <ele>69.5</ele>
        <time>2022-10-06T11:16:13Z</time>
      </trkpt>
      <trkpt lat="44.7878" lon="-0.10045">
        <ele>69.4</ele>
        <time>2022-10-06T11:16:14Z</time>
      </trkpt>
      <trkpt lat="44.7878" lon="-0.10046">
        <ele>69.4</ele>
        <time>2022-10-06T11:16:15Z</time>
      </trkpt>
      <trkpt lat="44.78781" lon="-0.10047">
        <ele>69.4</ele>
        <time>2022-10-06T11:16:16Z</time>
      </trkpt>
      <trkpt lat="44.78781" lon="-0.10049">
        <ele>69.4</ele>
        <time>2022-10-06T11:16:17Z</time>
      </trkpt>
      <trkpt lat="44.78782" lon="-0.1005">
        <ele>69.3</ele>
        <time>2022-10-06T11:16:18Z</time>
      </trkpt>
      <trkpt lat="44.78783" lon="-0.10053">
        <ele>69.3</ele>
        <time>2022-10-06T11:16:19Z</time>
      </trkpt>
      <trkpt lat="44.78783" lon="-0.10054">
        <ele>69.3</ele>
        <time>2022-10-06T11:16:20Z</time>
      </trkpt>
      <trkpt lat="44.78784" lon="-0.10055">
        <ele>69.2</ele>
        <time>2022-10-06T11:16:21Z</time>
      </trkpt>
      <trkpt lat="44.78784" lon="-0.10057">
        <ele>69.2</ele>
        <time>2022-10-06T11:16:22Z</time>
      </trkpt>
      <trkpt lat="44.78785" lon="-0.10058">
        <ele>69.2</ele>
        <time>2022-10-06T11:16:23Z</time>
      </trkpt>
      <trkpt lat="44.78786" lon="-0.1006">
        <ele>69.1</ele>
        <time>2022-10-06T11:16:24Z</time>
      </trkpt>
      <trkpt lat="44.78786" lon="-0.10061">
        <ele>69.1</ele>
        <time>2022-10-06T11:16:25Z</time>
      </trkpt>
      <trkpt lat="44.78787" lon="-0.10062">
        <ele>69.1</ele>
        <time>2022-10-06T11:16:26Z</time>
      </trkpt>
      <trkpt lat="44.78788" lon="-0.10064">
        <ele>69.1</ele>
        <time>2022-10-06T11:16:27Z</time>
      </trkpt>
      <trkpt lat="44.78789" lon="-0.10065">
        <ele>69</ele>
        <time>2022-10-06T11:16:28Z</time>
      </trkpt>
      <trkpt lat="44.7879" lon="-0.10068">
        <ele>69</ele>
        <time>2022-10-06T11:16:29Z</time>
      </trkpt>
      <trkpt lat="44.7879" lon="-0.10068">
        <ele>68.9</ele>
        <time>2022-10-06T11:16:30Z</time>
      </trkpt>
      <trkpt lat="44.78791" lon="-0.10069">
        <ele>68.9</ele>
        <time>2022-10-06T11:16:31Z</time>
      </trkpt>
      <trkpt lat="44.78791" lon="-0.10071">
        <ele>68.9</ele>
        <time>2022-10-06T11:16:32Z</time>
      </trkpt>
      <trkpt lat="44.78792" lon="-0.10072">
        <ele>68.9</ele>
        <time>2022-10-06T11:16:33Z</time>
      </trkpt>
      <trkpt lat="44.78793" lon="-0.10075">
        <ele>68.8</ele>
        <time>2022-10-06T11:16:34Z</time>
      </trkpt>
      <trkpt lat="44.78794" lon="-0.10076">
        <ele>68.8</ele>
        <time>2022-10-06T11:16:35Z</time>
      </trkpt>
      <trkpt lat="44.78794" lon="-0.10077">
        <ele>68.8</ele>
        <time>2022-10-06T11:16:36Z</time>
      </trkpt>
      <trkpt lat="44.78795" lon="-0.10079">
        <ele>68.7</ele>
        <time>2022-10-06T11:16:37Z</time>
      </trkpt>
      <trkpt lat="44.78796" lon="-0.10082">
        <ele>68.7</ele>
        <time>2022-10-06T11:16:38Z</time>
      </trkpt>
      <trkpt lat="44.78796" lon="-0.10083">
        <ele>68.6</ele>
        <time>2022-10-06T11:16:39Z</time>
      </trkpt>
      <trkpt lat="44.78797" lon="-0.10084">
        <ele>68.6</ele>
        <time>2022-10-06T11:16:40Z</time>
      </trkpt>
      <trkpt lat="44.78797" lon="-0.10086">
        <ele>68.6</ele>
        <time>2022-10-06T11:16:41Z</time>
      </trkpt>
      <trkpt lat="44.78798" lon="-0.10087">
        <ele>68.6</ele>
        <time>2022-10-06T11:16:42Z</time>
      </trkpt>
      <trkpt lat="44.78798" lon="-0.10089">
        <ele>68.5</ele>
        <time>2022-10-06T11:16:43Z</time>
      </trkpt>
      <trkpt lat="44.788" lon="-0.10092">
        <ele>68.5</ele>
        <time>2022-10-06T11:16:44Z</time>
      </trkpt>
      <trkpt lat="44.788" lon="-0.10093">
        <ele>68.4</ele>
        <time>2022-10-06T11:16:45Z</time>
      </trkpt>
      <trkpt lat="44.78801" lon="-0.10094">
        <ele>68.4</ele>
        <time>2022-10-06T11:16:46Z</time>
      </trkpt>
      <trkpt lat="44.78801" lon="-0.10095">
        <ele>68.4</ele>
        <time>2022-10-06T11:16:47Z</time>
      </trkpt>
      <trkpt lat="44.78801" lon="-0.10096">
        <ele>68.4</ele>
        <time>2022-10-06T11:16:48Z</time>
      </trkpt>
      <trkpt lat="44.78803" lon="-0.101">
        <ele>68.3</ele>
        <time>2022-10-06T11:16:49Z</time>
      </trkpt>
      <trkpt lat="44.78803" lon="-0.10101">
        <ele>68.3</ele>
        <time>2022-10-06T11:16:50Z</time>
      </trkpt>
      <trkpt lat="44.78803" lon="-0.10101">
        <ele>68.3</ele>
        <time>2022-10-06T11:16:51Z</time>
      </trkpt>
      <trkpt lat="44.78804" lon="-0.10104">
        <ele>68.2</ele>
        <time>2022-10-06T11:16:52Z</time>
      </trkpt>
      <trkpt lat="44.78804" lon="-0.10106">
        <ele>68.2</ele>
        <time>2022-10-06T11:16:53Z</time>
      </trkpt>
      <trkpt lat="44.78805" lon="-0.10107">
        <ele>68.1</ele>
        <time>2022-10-06T11:16:54Z</time>
      </trkpt>
      <trkpt lat="44.78805" lon="-0.10108">
        <ele>68.1</ele>
        <time>2022-10-06T11:16:55Z</time>
      </trkpt>
      <trkpt lat="44.78806" lon="-0.1011">
        <ele>68.1</ele>
        <time>2022-10-06T11:16:56Z</time>
      </trkpt>
      <trkpt lat="44.78806" lon="-0.10111">
        <ele>68</ele>
        <time>2022-10-06T11:16:57Z</time>
      </trkpt>
      <trkpt lat="44.78807" lon="-0.10114">
        <ele>68</ele>
        <time>2022-10-06T11:16:58Z</time>
      </trkpt>
      <trkpt lat="44.78808" lon="-0.10115">
        <ele>68</ele>
        <time>2022-10-06T11:16:59Z</time>
      </trkpt>
      <trkpt lat="44.78808" lon="-0.10116">
        <ele>67.9</ele>
        <time>2022-10-06T11:17:00Z</time>
      </trkpt>
      <trkpt lat="44.78809" lon="-0.10119">
        <ele>67.9</ele>
        <time>2022-10-06T11:17:01Z</time>
      </trkpt>
      <trkpt lat="44.78809" lon="-0.10121">
        <ele>67.8</ele>
        <time>2022-10-06T11:17:02Z</time>
      </trkpt>
      <trkpt lat="44.78809" lon="-0.10122">
        <ele>67.8</ele>
        <time>2022-10-06T11:17:03Z</time>
      </trkpt>
      <trkpt lat="44.7881" lon="-0.10124">
        <ele>67.8</ele>
        <time>2022-10-06T11:17:04Z</time>
      </trkpt>
      <trkpt lat="44.7881" lon="-0.10125">
        <ele>67.7</ele>
        <time>2022-10-06T11:17:05Z</time>
      </trkpt>
      <trkpt lat="44.78811" lon="-0.10126">
        <ele>67.7</ele>
        <time>2022-10-06T11:17:06Z</time>
      </trkpt>
      <trkpt lat="44.78812" lon="-0.10129">
        <ele>67.7</ele>
        <time>2022-10-06T11:17:07Z</time>
      </trkpt>
      <trkpt lat="44.78812" lon="-0.1013">
        <ele>67.7</ele>
        <time>2022-10-06T11:17:08Z</time>
      </trkpt>
      <trkpt lat="44.78813" lon="-0.10131">
        <ele>67.6</ele>
        <time>2022-10-06T11:17:09Z</time>
      </trkpt>
      <trkpt lat="44.78814" lon="-0.10133">
        <ele>67.6</ele>
        <time>2022-10-06T11:17:10Z</time>
      </trkpt>
      <trkpt lat="44.78814" lon="-0.10135">
        <ele>67.6</ele>
        <time>2022-10-06T11:17:11Z</time>
      </trkpt>
      <trkpt lat="44.78815" lon="-0.10137">
        <ele>67.5</ele>
        <time>2022-10-06T11:17:12Z</time>
      </trkpt>
      <trkpt lat="44.78816" lon="-0.10138">
        <ele>67.5</ele>
        <time>2022-10-06T11:17:13Z</time>
      </trkpt>
      <trkpt lat="44.78816" lon="-0.10139">
        <ele>67.5</ele>
        <time>2022-10-06T11:17:14Z</time>
      </trkpt>
      <trkpt lat="44.78817" lon="-0.10142">
        <ele>67.4</ele>
        <time>2022-10-06T11:17:15Z</time>
      </trkpt>
      <trkpt lat="44.78818" lon="-0.10144">
        <ele>67.4</ele>
        <time>2022-10-06T11:17:16Z</time>
      </trkpt>
      <trkpt lat="44.78818" lon="-0.10145">
        <ele>67.4</ele>
        <time>2022-10-06T11:17:17Z</time>
      </trkpt>
      <trkpt lat="44.78819" lon="-0.10146">
        <ele>67.3</ele>
        <time>2022-10-06T11:17:18Z</time>
      </trkpt>
      <trkpt lat="44.7882" lon="-0.10147">
        <ele>67.3</ele>
        <time>2022-10-06T11:17:19Z</time>
      </trkpt>
      <trkpt lat="44.78821" lon="-0.10149">
        <ele>67.3</ele>
        <time>2022-10-06T11:17:20Z</time>
      </trkpt>
      <trkpt lat="44.78821" lon="-0.10151">
        <ele>67.2</ele>
        <time>2022-10-06T11:17:21Z</time>
      </trkpt>
      <trkpt lat="44.78823" lon="-0.10153">
        <ele>67.2</ele>
        <time>2022-10-06T11:17:22Z</time>
      </trkpt>
      <trkpt lat="44.78823" lon="-0.10154">
        <ele>67.2</ele>
        <time>2022-10-06T11:17:23Z</time>
      </trkpt>
      <trkpt lat="44.78823" lon="-0.10156">
        <ele>67.1</ele>
        <time>2022-10-06T11:17:24Z</time>
      </trkpt>
      <trkpt lat="44.78824" lon="-0.10158">
        <ele>67.1</ele>
        <time>2022-10-06T11:17:25Z</time>
      </trkpt>
      <trkpt lat="44.78825" lon="-0.10159">
        <ele>67.1</ele>
        <time>2022-10-06T11:17:26Z</time>
      </trkpt>
      <trkpt lat="44.78826" lon="-0.10162">
        <ele>67</ele>
        <time>2022-10-06T11:17:27Z</time>
      </trkpt>
      <trkpt lat="44.78826" lon="-0.10163">
        <ele>67</ele>
        <time>2022-10-06T11:17:28Z</time>
      </trkpt>
      <trkpt lat="44.78827" lon="-0.10164">
        <ele>67</ele>
        <time>2022-10-06T11:17:29Z</time>
      </trkpt>
      <trkpt lat="44.78828" lon="-0.10166">
        <ele>66.9</ele>
        <time>2022-10-06T11:17:30Z</time>
      </trkpt>
      <trkpt lat="44.78828" lon="-0.10167">
        <ele>66.9</ele>
        <time>2022-10-06T11:17:31Z</time>
      </trkpt>
      <trkpt lat="44.78829" lon="-0.1017">
        <ele>66.8</ele>
        <time>2022-10-06T11:17:32Z</time>
      </trkpt>
      <trkpt lat="44.78829" lon="-0.10171">
        <ele>66.8</ele>
        <time>2022-10-06T11:17:33Z</time>
      </trkpt>
      <trkpt lat="44.7883" lon="-0.10172">
        <ele>66.7</ele>
        <time>2022-10-06T11:17:34Z</time>
      </trkpt>
      <trkpt lat="44.78831" lon="-0.10174">
        <ele>66.7</ele>
        <time>2022-10-06T11:17:35Z</time>
      </trkpt>
      <trkpt lat="44.78831" lon="-0.10175">
        <ele>66.6</ele>
        <time>2022-10-06T11:17:36Z</time>
      </trkpt>
      <trkpt lat="44.78832" lon="-0.10178">
        <ele>66.5</ele>
        <time>2022-10-06T11:17:37Z</time>
      </trkpt>
      <trkpt lat="44.78833" lon="-0.10179">
        <ele>66.5</ele>
        <time>2022-10-06T11:17:38Z</time>
      </trkpt>
      <trkpt lat="44.78833" lon="-0.1018">
        <ele>66.5</ele>
        <time>2022-10-06T11:17:39Z</time>
      </trkpt>
      <trkpt lat="44.78834" lon="-0.10183">
        <ele>66.4</ele>
        <time>2022-10-06T11:17:40Z</time>
      </trkpt>
      <trkpt lat="44.78834" lon="-0.10184">
        <ele>66.4</ele>
        <time>2022-10-06T11:17:41Z</time>
      </trkpt>
      <trkpt lat="44.78835" lon="-0.10185">
        <ele>66.4</ele>
        <time>2022-10-06T11:17:42Z</time>
      </trkpt>
      <trkpt lat="44.78836" lon="-0.10187">
        <ele>66.3</ele>
        <time>2022-10-06T11:17:43Z</time>
      </trkpt>
      <trkpt lat="44.78836" lon="-0.10189">
        <ele>66.3</ele>
        <time>2022-10-06T11:17:44Z</time>
      </trkpt>
      <trkpt lat="44.78836" lon="-0.1019">
        <ele>66.3</ele>
        <time>2022-10-06T11:17:45Z</time>
      </trkpt>
      <trkpt lat="44.78837" lon="-0.10191">
        <ele>66.3</ele>
        <time>2022-10-06T11:17:46Z</time>
      </trkpt>
      <trkpt lat="44.78838" lon="-0.10192">
        <ele>66.2</ele>
        <time>2022-10-06T11:17:47Z</time>
      </trkpt>
      <trkpt lat="44.78838" lon="-0.10194">
        <ele>66.2</ele>
        <time>2022-10-06T11:17:48Z</time>
      </trkpt>
      <trkpt lat="44.78839" lon="-0.10197">
        <ele>66.2</ele>
        <time>2022-10-06T11:17:49Z</time>
      </trkpt>
      <trkpt lat="44.7884" lon="-0.10198">
        <ele>66.1</ele>
        <time>2022-10-06T11:17:50Z</time>
      </trkpt>
      <trkpt lat="44.7884" lon="-0.10199">
        <ele>66.1</ele>
        <time>2022-10-06T11:17:51Z</time>
      </trkpt>
      <trkpt lat="44.78841" lon="-0.102">
        <ele>66.1</ele>
        <time>2022-10-06T11:17:52Z</time>
      </trkpt>
      <trkpt lat="44.78842" lon="-0.10202">
        <ele>66.1</ele>
        <time>2022-10-06T11:17:53Z</time>
      </trkpt>
      <trkpt lat="44.78843" lon="-0.10204">
        <ele>66</ele>
        <time>2022-10-06T11:17:54Z</time>
      </trkpt>
      <trkpt lat="44.78843" lon="-0.10205">
        <ele>66</ele>
        <time>2022-10-06T11:17:55Z</time>
      </trkpt>
      <trkpt lat="44.78845" lon="-0.10208">
        <ele>66</ele>
        <time>2022-10-06T11:17:56Z</time>
      </trkpt>
      <trkpt lat="44.78845" lon="-0.10209">
        <ele>66</ele>
        <time>2022-10-06T11:17:57Z</time>
      </trkpt>
      <trkpt lat="44.78846" lon="-0.1021">
        <ele>66</ele>
        <time>2022-10-06T11:17:58Z</time>
      </trkpt>
      <trkpt lat="44.78846" lon="-0.10212">
        <ele>65.9</ele>
        <time>2022-10-06T11:17:59Z</time>
      </trkpt>
      <trkpt lat="44.78847" lon="-0.10213">
        <ele>65.9</ele>
        <time>2022-10-06T11:18:00Z</time>
      </trkpt>
      <trkpt lat="44.78848" lon="-0.10215">
        <ele>65.9</ele>
        <time>2022-10-06T11:18:01Z</time>
      </trkpt>
      <trkpt lat="44.78849" lon="-0.10217">
        <ele>65.9</ele>
        <time>2022-10-06T11:18:02Z</time>
      </trkpt>
      <trkpt lat="44.7885" lon="-0.10219">
        <ele>65.8</ele>
        <time>2022-10-06T11:18:03Z</time>
      </trkpt>
      <trkpt lat="44.7885" lon="-0.1022">
        <ele>65.8</ele>
        <time>2022-10-06T11:18:04Z</time>
      </trkpt>
      <trkpt lat="44.78851" lon="-0.10221">
        <ele>65.8</ele>
        <time>2022-10-06T11:18:05Z</time>
      </trkpt>
      <trkpt lat="44.78852" lon="-0.10223">
        <ele>65.8</ele>
        <time>2022-10-06T11:18:06Z</time>
      </trkpt>
      <trkpt lat="44.78852" lon="-0.10224">
        <ele>65.8</ele>
        <time>2022-10-06T11:18:07Z</time>
      </trkpt>
      <trkpt lat="44.78853" lon="-0.10226">
        <ele>65.8</ele>
        <time>2022-10-06T11:18:08Z</time>
      </trkpt>
      <trkpt lat="44.78853" lon="-0.10227">
        <ele>65.7</ele>
        <time>2022-10-06T11:18:09Z</time>
      </trkpt>
      <trkpt lat="44.78854" lon="-0.10229">
        <ele>65.7</ele>
        <time>2022-10-06T11:18:10Z</time>
      </trkpt>
      <trkpt lat="44.78855" lon="-0.1023">
        <ele>65.7</ele>
        <time>2022-10-06T11:18:11Z</time>
      </trkpt>
      <trkpt lat="44.78856" lon="-0.10231">
        <ele>65.7</ele>
        <time>2022-10-06T11:18:12Z</time>
      </trkpt>
      <trkpt lat="44.78856" lon="-0.10233">
        <ele>65.7</ele>
        <time>2022-10-06T11:18:13Z</time>
      </trkpt>
      <trkpt lat="44.78857" lon="-0.10234">
        <ele>65.7</ele>
        <time>2022-10-06T11:18:14Z</time>
      </trkpt>
      <trkpt lat="44.78858" lon="-0.10236">
        <ele>65.6</ele>
        <time>2022-10-06T11:18:15Z</time>
      </trkpt>
      <trkpt lat="44.78859" lon="-0.10236">
        <ele>65.6</ele>
        <time>2022-10-06T11:18:16Z</time>
      </trkpt>
      <trkpt lat="44.7886" lon="-0.10237">
        <ele>65.6</ele>
        <time>2022-10-06T11:18:17Z</time>
      </trkpt>
      <trkpt lat="44.78861" lon="-0.10237">
        <ele>65.6</ele>
        <time>2022-10-06T11:18:18Z</time>
      </trkpt>
      <trkpt lat="44.78861" lon="-0.10238">
        <ele>65.6</ele>
        <time>2022-10-06T11:18:19Z</time>
      </trkpt>
      <trkpt lat="44.78861" lon="-0.10238">
        <ele>65.6</ele>
        <time>2022-10-06T11:18:20Z</time>
      </trkpt>
      <trkpt lat="44.78861" lon="-0.10237">
        <ele>65.6</ele>
        <time>2022-10-06T11:18:21Z</time>
      </trkpt>
      <trkpt lat="44.78861" lon="-0.10237">
        <ele>65.6</ele>
        <time>2022-10-06T11:18:22Z</time>
      </trkpt>
      <trkpt lat="44.78861" lon="-0.10237">
        <ele>65.6</ele>
        <time>2022-10-06T11:18:23Z</time>
      </trkpt>
      <trkpt lat="44.78861" lon="-0.10237">
        <ele>65.6</ele>
        <time>2022-10-06T11:18:24Z</time>
      </trkpt>
      <trkpt lat="44.7886" lon="-0.10236">
        <ele>65.6</ele>
        <time>2022-10-06T11:18:25Z</time>
      </trkpt>
      <trkpt lat="44.78859" lon="-0.10237">
        <ele>65.6</ele>
        <time>2022-10-06T11:18:26Z</time>
      </trkpt>
      <trkpt lat="44.78859" lon="-0.10238">
        <ele>65.6</ele>
        <time>2022-10-06T11:18:27Z</time>
      </trkpt>
      <trkpt lat="44.78858" lon="-0.1024">
        <ele>65.5</ele>
        <time>2022-10-06T11:18:28Z</time>
      </trkpt>
      <trkpt lat="44.78856" lon="-0.10242">
        <ele>65.5</ele>
        <time>2022-10-06T11:18:29Z</time>
      </trkpt>
      <trkpt lat="44.78855" lon="-0.10242">
        <ele>65.5</ele>
        <time>2022-10-06T11:18:30Z</time>
      </trkpt>
      <trkpt lat="44.78854" lon="-0.10243">
        <ele>65.5</ele>
        <time>2022-10-06T11:18:31Z</time>
      </trkpt>
      <trkpt lat="44.78853" lon="-0.10242">
        <ele>65.5</ele>
        <time>2022-10-06T11:18:32Z</time>
      </trkpt>
      <trkpt lat="44.78853" lon="-0.10242">
        <ele>65.5</ele>
        <time>2022-10-06T11:18:33Z</time>
      </trkpt>
      <trkpt lat="44.78853" lon="-0.10242">
        <ele>65.5</ele>
        <time>2022-10-06T11:18:34Z</time>
      </trkpt>
      <trkpt lat="44.78853" lon="-0.10242">
        <ele>65.5</ele>
        <time>2022-10-06T11:18:35Z</time>
      </trkpt>
      <trkpt lat="44.78853" lon="-0.10242">
        <ele>65.5</ele>
        <time>2022-10-06T11:18:36Z</time>
      </trkpt>
      <trkpt lat="44.78853" lon="-0.10242">
        <ele>65.5</ele>
        <time>2022-10-06T11:18:37Z</time>
      </trkpt>
      <trkpt lat="44.78853" lon="-0.10242">
        <ele>65.5</ele>
        <time>2022-10-06T11:18:38Z</time>
      </trkpt>
      <trkpt lat="44.78853" lon="-0.10242">
        <ele>65.5</ele>
        <time>2022-10-06T11:18:39Z</time>
      </trkpt>
      <trkpt lat="44.78853" lon="-0.10242">
        <ele>65.5</ele>
        <time>2022-10-06T11:18:40Z</time>
      </trkpt>
      <trkpt lat="44.78853" lon="-0.10242">
        <ele>65.5</ele>
        <time>2022-10-06T11:18:41Z</time>
      </trkpt>
      <trkpt lat="44.78853" lon="-0.10242">
        <ele>65.5</ele>
        <time>2022-10-06T11:18:42Z</time>
      </trkpt>
      <trkpt lat="44.78853" lon="-0.10242">
        <ele>65.5</ele>
        <time>2022-10-06T11:18:43Z</time>
      </trkpt>
      <trkpt lat="44.78853" lon="-0.10242">
        <ele>65.4</ele>
        <time>2022-10-06T11:18:44Z</time>
      </trkpt>
      <trkpt lat="44.78854" lon="-0.10242">
        <ele>65.4</ele>
        <time>2022-10-06T11:18:45Z</time>
      </trkpt>
      <trkpt lat="44.78854" lon="-0.10241">
        <ele>65.4</ele>
        <time>2022-10-06T11:18:46Z</time>
      </trkpt>
      <trkpt lat="44.78854" lon="-0.10241">
        <ele>65.4</ele>
        <time>2022-10-06T11:18:47Z</time>
      </trkpt>
      <trkpt lat="44.78854" lon="-0.10241">
        <ele>65.4</ele>
        <time>2022-10-06T11:18:48Z</time>
      </trkpt>
      <trkpt lat="44.78854" lon="-0.10241">
        <ele>65.4</ele>
        <time>2022-10-06T11:18:49Z</time>
      </trkpt>
      <trkpt lat="44.78854" lon="-0.10241">
        <ele>65.4</ele>
        <time>2022-10-06T11:18:50Z</time>
      </trkpt>
      <trkpt lat="44.78854" lon="-0.10241">
        <ele>65.4</ele>
        <time>2022-10-06T11:18:51Z</time>
      </trkpt>
      <trkpt lat="44.78854" lon="-0.10241">
        <ele>65.4</ele>
        <time>2022-10-06T11:18:52Z</time>
      </trkpt>
      <trkpt lat="44.78854" lon="-0.10242">
        <ele>65.4</ele>
        <time>2022-10-06T11:18:53Z</time>
      </trkpt>
      <trkpt lat="44.78854" lon="-0.10243">
        <ele>65.4</ele>
        <time>2022-10-06T11:18:54Z</time>
      </trkpt>
      <trkpt lat="44.78854" lon="-0.10244">
        <ele>65.4</ele>
        <time>2022-10-06T11:18:55Z</time>
      </trkpt>
      <trkpt lat="44.78855" lon="-0.10245">
        <ele>65.4</ele>
        <time>2022-10-06T11:18:56Z</time>
      </trkpt>
      <trkpt lat="44.78855" lon="-0.10246">
        <ele>65.4</ele>
        <time>2022-10-06T11:18:57Z</time>
      </trkpt>
      <trkpt lat="44.78856" lon="-0.10247">
        <ele>65.4</ele>
        <time>2022-10-06T11:18:58Z</time>
      </trkpt>
      <trkpt lat="44.78857" lon="-0.10247">
        <ele>65.4</ele>
        <time>2022-10-06T11:18:59Z</time>
      </trkpt>
      <trkpt lat="44.78858" lon="-0.10247">
        <ele>65.3</ele>
        <time>2022-10-06T11:19:00Z</time>
      </trkpt>
      <trkpt lat="44.7886" lon="-0.10247">
        <ele>65.3</ele>
        <time>2022-10-06T11:19:01Z</time>
      </trkpt>
      <trkpt lat="44.7886" lon="-0.10248">
        <ele>65.3</ele>
        <time>2022-10-06T11:19:02Z</time>
      </trkpt>
      <trkpt lat="44.78861" lon="-0.10248">
        <ele>65.3</ele>
        <time>2022-10-06T11:19:03Z</time>
      </trkpt>
      <trkpt lat="44.78862" lon="-0.10249">
        <ele>65.3</ele>
        <time>2022-10-06T11:19:04Z</time>
      </trkpt>
      <trkpt lat="44.78863" lon="-0.1025">
        <ele>65.3</ele>
        <time>2022-10-06T11:19:05Z</time>
      </trkpt>
      <trkpt lat="44.78864" lon="-0.1025">
        <ele>65.3</ele>
        <time>2022-10-06T11:19:06Z</time>
      </trkpt>
      <trkpt lat="44.78865" lon="-0.10251">
        <ele>65.3</ele>
        <time>2022-10-06T11:19:07Z</time>
      </trkpt>
      <trkpt lat="44.78866" lon="-0.10254">
        <ele>65.3</ele>
        <time>2022-10-06T11:19:08Z</time>
      </trkpt>
      <trkpt lat="44.78866" lon="-0.10255">
        <ele>65.3</ele>
        <time>2022-10-06T11:19:09Z</time>
      </trkpt>
      <trkpt lat="44.78867" lon="-0.10257">
        <ele>65.2</ele>
        <time>2022-10-06T11:19:10Z</time>
      </trkpt>
      <trkpt lat="44.78867" lon="-0.10257">
        <ele>65.2</ele>
        <time>2022-10-06T11:19:11Z</time>
      </trkpt>
      <trkpt lat="44.78868" lon="-0.10258">
        <ele>65.2</ele>
        <time>2022-10-06T11:19:12Z</time>
      </trkpt>
      <trkpt lat="44.78868" lon="-0.10259">
        <ele>65.2</ele>
        <time>2022-10-06T11:19:13Z</time>
      </trkpt>
      <trkpt lat="44.78869" lon="-0.1026">
        <ele>65.2</ele>
        <time>2022-10-06T11:19:14Z</time>
      </trkpt>
      <trkpt lat="44.78869" lon="-0.10262">
        <ele>65.2</ele>
        <time>2022-10-06T11:19:15Z</time>
      </trkpt>
      <trkpt lat="44.7887" lon="-0.10263">
        <ele>65.2</ele>
        <time>2022-10-06T11:19:16Z</time>
      </trkpt>
      <trkpt lat="44.7887" lon="-0.10264">
        <ele>65.2</ele>
        <time>2022-10-06T11:19:17Z</time>
      </trkpt>
      <trkpt lat="44.78871" lon="-0.10267">
        <ele>65.2</ele>
        <time>2022-10-06T11:19:18Z</time>
      </trkpt>
      <trkpt lat="44.78872" lon="-0.10268">
        <ele>65.2</ele>
        <time>2022-10-06T11:19:19Z</time>
      </trkpt>
      <trkpt lat="44.78872" lon="-0.10269">
        <ele>65.2</ele>
        <time>2022-10-06T11:19:20Z</time>
      </trkpt>
      <trkpt lat="44.78873" lon="-0.1027">
        <ele>65.2</ele>
        <time>2022-10-06T11:19:21Z</time>
      </trkpt>
      <trkpt lat="44.78874" lon="-0.10272">
        <ele>65.2</ele>
        <time>2022-10-06T11:19:22Z</time>
      </trkpt>
      <trkpt lat="44.78874" lon="-0.10273">
        <ele>65.2</ele>
        <time>2022-10-06T11:19:23Z</time>
      </trkpt>
      <trkpt lat="44.78875" lon="-0.10274">
        <ele>65.2</ele>
        <time>2022-10-06T11:19:24Z</time>
      </trkpt>
      <trkpt lat="44.78876" lon="-0.10276">
        <ele>65.1</ele>
        <time>2022-10-06T11:19:25Z</time>
      </trkpt>
      <trkpt lat="44.78876" lon="-0.10277">
        <ele>65.1</ele>
        <time>2022-10-06T11:19:26Z</time>
      </trkpt>
      <trkpt lat="44.78876" lon="-0.10278">
        <ele>65.1</ele>
        <time>2022-10-06T11:19:27Z</time>
      </trkpt>
      <trkpt lat="44.78877" lon="-0.10279">
        <ele>65.1</ele>
        <time>2022-10-06T11:19:28Z</time>
      </trkpt>
      <trkpt lat="44.78877" lon="-0.10281">
        <ele>65.1</ele>
        <time>2022-10-06T11:19:29Z</time>
      </trkpt>
      <trkpt lat="44.78878" lon="-0.10283">
        <ele>65.1</ele>
        <time>2022-10-06T11:19:30Z</time>
      </trkpt>
      <trkpt lat="44.78879" lon="-0.10284">
        <ele>65.1</ele>
        <time>2022-10-06T11:19:31Z</time>
      </trkpt>
      <trkpt lat="44.78879" lon="-0.10285">
        <ele>65.1</ele>
        <time>2022-10-06T11:19:32Z</time>
      </trkpt>
      <trkpt lat="44.7888" lon="-0.10287">
        <ele>65.1</ele>
        <time>2022-10-06T11:19:33Z</time>
      </trkpt>
      <trkpt lat="44.78881" lon="-0.10288">
        <ele>65.1</ele>
        <time>2022-10-06T11:19:34Z</time>
      </trkpt>
      <trkpt lat="44.78881" lon="-0.10289">
        <ele>65.1</ele>
        <time>2022-10-06T11:19:35Z</time>
      </trkpt>
      <trkpt lat="44.78882" lon="-0.10291">
        <ele>65.1</ele>
        <time>2022-10-06T11:19:36Z</time>
      </trkpt>
      <trkpt lat="44.78882" lon="-0.10292">
        <ele>65.1</ele>
        <time>2022-10-06T11:19:37Z</time>
      </trkpt>
      <trkpt lat="44.78883" lon="-0.10293">
        <ele>65.1</ele>
        <time>2022-10-06T11:19:38Z</time>
      </trkpt>
      <trkpt lat="44.78883" lon="-0.10294">
        <ele>65</ele>
        <time>2022-10-06T11:19:39Z</time>
      </trkpt>
      <trkpt lat="44.78884" lon="-0.10296">
        <ele>65</ele>
        <time>2022-10-06T11:19:40Z</time>
      </trkpt>
      <trkpt lat="44.78884" lon="-0.10297">
        <ele>65</ele>
        <time>2022-10-06T11:19:41Z</time>
      </trkpt>
      <trkpt lat="44.78886" lon="-0.10299">
        <ele>65</ele>
        <time>2022-10-06T11:19:42Z</time>
      </trkpt>
      <trkpt lat="44.78886" lon="-0.103">
        <ele>65</ele>
        <time>2022-10-06T11:19:43Z</time>
      </trkpt>
      <trkpt lat="44.78887" lon="-0.10301">
        <ele>65</ele>
        <time>2022-10-06T11:19:44Z</time>
      </trkpt>
      <trkpt lat="44.78888" lon="-0.10304">
        <ele>65</ele>
        <time>2022-10-06T11:19:45Z</time>
      </trkpt>
      <trkpt lat="44.78888" lon="-0.10305">
        <ele>65</ele>
        <time>2022-10-06T11:19:46Z</time>
      </trkpt>
      <trkpt lat="44.78889" lon="-0.10307">
        <ele>65</ele>
        <time>2022-10-06T11:19:47Z</time>
      </trkpt>
      <trkpt lat="44.78889" lon="-0.10307">
        <ele>65</ele>
        <time>2022-10-06T11:19:48Z</time>
      </trkpt>
      <trkpt lat="44.78889" lon="-0.10308">
        <ele>64.9</ele>
        <time>2022-10-06T11:19:49Z</time>
      </trkpt>
      <trkpt lat="44.7889" lon="-0.10309">
        <ele>64.9</ele>
        <time>2022-10-06T11:19:50Z</time>
      </trkpt>
      <trkpt lat="44.7889" lon="-0.10311">
        <ele>64.9</ele>
        <time>2022-10-06T11:19:51Z</time>
      </trkpt>
      <trkpt lat="44.78891" lon="-0.10313">
        <ele>64.9</ele>
        <time>2022-10-06T11:19:52Z</time>
      </trkpt>
      <trkpt lat="44.78892" lon="-0.10314">
        <ele>64.9</ele>
        <time>2022-10-06T11:19:53Z</time>
      </trkpt>
      <trkpt lat="44.78892" lon="-0.10315">
        <ele>64.9</ele>
        <time>2022-10-06T11:19:54Z</time>
      </trkpt>
      <trkpt lat="44.78892" lon="-0.10317">
        <ele>64.9</ele>
        <time>2022-10-06T11:19:55Z</time>
      </trkpt>
      <trkpt lat="44.78893" lon="-0.10318">
        <ele>64.9</ele>
        <time>2022-10-06T11:19:56Z</time>
      </trkpt>
      <trkpt lat="44.78893" lon="-0.1032">
        <ele>64.9</ele>
        <time>2022-10-06T11:19:57Z</time>
      </trkpt>
      <trkpt lat="44.78894" lon="-0.10322">
        <ele>64.8</ele>
        <time>2022-10-06T11:19:58Z</time>
      </trkpt>
      <trkpt lat="44.78895" lon="-0.10324">
        <ele>64.8</ele>
        <time>2022-10-06T11:19:59Z</time>
      </trkpt>
      <trkpt lat="44.78895" lon="-0.10325">
        <ele>64.8</ele>
        <time>2022-10-06T11:20:00Z</time>
      </trkpt>
      <trkpt lat="44.78896" lon="-0.10325">
        <ele>64.8</ele>
        <time>2022-10-06T11:20:01Z</time>
      </trkpt>
      <trkpt lat="44.78896" lon="-0.10326">
        <ele>64.8</ele>
        <time>2022-10-06T11:20:02Z</time>
      </trkpt>
      <trkpt lat="44.78897" lon="-0.10327">
        <ele>64.8</ele>
        <time>2022-10-06T11:20:03Z</time>
      </trkpt>
      <trkpt lat="44.78897" lon="-0.10329">
        <ele>64.8</ele>
        <time>2022-10-06T11:20:04Z</time>
      </trkpt>
      <trkpt lat="44.78898" lon="-0.10331">
        <ele>64.8</ele>
        <time>2022-10-06T11:20:05Z</time>
      </trkpt>
      <trkpt lat="44.78898" lon="-0.10332">
        <ele>64.7</ele>
        <time>2022-10-06T11:20:06Z</time>
      </trkpt>
      <trkpt lat="44.78899" lon="-0.10333">
        <ele>64.7</ele>
        <time>2022-10-06T11:20:07Z</time>
      </trkpt>
      <trkpt lat="44.789" lon="-0.10336">
        <ele>64.8</ele>
        <time>2022-10-06T11:20:08Z</time>
      </trkpt>
      <trkpt lat="44.789" lon="-0.10337">
        <ele>64.8</ele>
        <time>2022-10-06T11:20:09Z</time>
      </trkpt>
      <trkpt lat="44.78901" lon="-0.10338">
        <ele>64.8</ele>
        <time>2022-10-06T11:20:10Z</time>
      </trkpt>
      <trkpt lat="44.78902" lon="-0.1034">
        <ele>64.7</ele>
        <time>2022-10-06T11:20:11Z</time>
      </trkpt>
      <trkpt lat="44.78902" lon="-0.10341">
        <ele>64.7</ele>
        <time>2022-10-06T11:20:12Z</time>
      </trkpt>
      <trkpt lat="44.78903" lon="-0.10342">
        <ele>64.7</ele>
        <time>2022-10-06T11:20:13Z</time>
      </trkpt>
      <trkpt lat="44.78904" lon="-0.10345">
        <ele>64.7</ele>
        <time>2022-10-06T11:20:14Z</time>
      </trkpt>
      <trkpt lat="44.78904" lon="-0.10346">
        <ele>64.7</ele>
        <time>2022-10-06T11:20:15Z</time>
      </trkpt>
      <trkpt lat="44.78904" lon="-0.10347">
        <ele>64.7</ele>
        <time>2022-10-06T11:20:16Z</time>
      </trkpt>
      <trkpt lat="44.78905" lon="-0.10349">
        <ele>64.6</ele>
        <time>2022-10-06T11:20:17Z</time>
      </trkpt>
      <trkpt lat="44.78905" lon="-0.1035">
        <ele>64.6</ele>
        <time>2022-10-06T11:20:18Z</time>
      </trkpt>
      <trkpt lat="44.78906" lon="-0.10351">
        <ele>64.6</ele>
        <time>2022-10-06T11:20:19Z</time>
      </trkpt>
      <trkpt lat="44.78906" lon="-0.10353">
        <ele>64.6</ele>
        <time>2022-10-06T11:20:20Z</time>
      </trkpt>
      <trkpt lat="44.78907" lon="-0.10355">
        <ele>64.6</ele>
        <time>2022-10-06T11:20:21Z</time>
      </trkpt>
      <trkpt lat="44.78907" lon="-0.10356">
        <ele>64.6</ele>
        <time>2022-10-06T11:20:22Z</time>
      </trkpt>
      <trkpt lat="44.78908" lon="-0.10359">
        <ele>64.5</ele>
        <time>2022-10-06T11:20:23Z</time>
      </trkpt>
      <trkpt lat="44.78909" lon="-0.1036">
        <ele>64.5</ele>
        <time>2022-10-06T11:20:24Z</time>
      </trkpt>
      <trkpt lat="44.7891" lon="-0.10361">
        <ele>64.5</ele>
        <time>2022-10-06T11:20:25Z</time>
      </trkpt>
      <trkpt lat="44.7891" lon="-0.10362">
        <ele>64.5</ele>
        <time>2022-10-06T11:20:26Z</time>
      </trkpt>
      <trkpt lat="44.7891" lon="-0.10363">
        <ele>64.5</ele>
        <time>2022-10-06T11:20:27Z</time>
      </trkpt>
      <trkpt lat="44.78911" lon="-0.10365">
        <ele>64.5</ele>
        <time>2022-10-06T11:20:28Z</time>
      </trkpt>
      <trkpt lat="44.78911" lon="-0.10366">
        <ele>64.5</ele>
        <time>2022-10-06T11:20:29Z</time>
      </trkpt>
      <trkpt lat="44.78912" lon="-0.10369">
        <ele>64.4</ele>
        <time>2022-10-06T11:20:30Z</time>
      </trkpt>
      <trkpt lat="44.78913" lon="-0.1037">
        <ele>64.4</ele>
        <time>2022-10-06T11:20:31Z</time>
      </trkpt>
      <trkpt lat="44.78913" lon="-0.10371">
        <ele>64.4</ele>
        <time>2022-10-06T11:20:32Z</time>
      </trkpt>
      <trkpt lat="44.78914" lon="-0.10372">
        <ele>64.5</ele>
        <time>2022-10-06T11:20:33Z</time>
      </trkpt>
      <trkpt lat="44.78914" lon="-0.10373">
        <ele>64.5</ele>
        <time>2022-10-06T11:20:34Z</time>
      </trkpt>
      <trkpt lat="44.78915" lon="-0.10376">
        <ele>64.4</ele>
        <time>2022-10-06T11:20:35Z</time>
      </trkpt>
      <trkpt lat="44.78915" lon="-0.10377">
        <ele>64.4</ele>
        <time>2022-10-06T11:20:36Z</time>
      </trkpt>
      <trkpt lat="44.78915" lon="-0.10378">
        <ele>64.4</ele>
        <time>2022-10-06T11:20:37Z</time>
      </trkpt>
      <trkpt lat="44.78916" lon="-0.10381">
        <ele>64.4</ele>
        <time>2022-10-06T11:20:38Z</time>
      </trkpt>
      <trkpt lat="44.78916" lon="-0.10383">
        <ele>64.4</ele>
        <time>2022-10-06T11:20:39Z</time>
      </trkpt>
      <trkpt lat="44.78917" lon="-0.10384">
        <ele>64.4</ele>
        <time>2022-10-06T11:20:40Z</time>
      </trkpt>
      <trkpt lat="44.78917" lon="-0.10385">
        <ele>64.3</ele>
        <time>2022-10-06T11:20:41Z</time>
      </trkpt>
      <trkpt lat="44.78918" lon="-0.10386">
        <ele>64.3</ele>
        <time>2022-10-06T11:20:42Z</time>
      </trkpt>
      <trkpt lat="44.78918" lon="-0.10387">
        <ele>64.3</ele>
        <time>2022-10-06T11:20:43Z</time>
      </trkpt>
      <trkpt lat="44.78919" lon="-0.10389">
        <ele>64.3</ele>
        <time>2022-10-06T11:20:44Z</time>
      </trkpt>
      <trkpt lat="44.7892" lon="-0.10391">
        <ele>64.3</ele>
        <time>2022-10-06T11:20:45Z</time>
      </trkpt>
      <trkpt lat="44.7892" lon="-0.10392">
        <ele>64.3</ele>
        <time>2022-10-06T11:20:46Z</time>
      </trkpt>
      <trkpt lat="44.78921" lon="-0.10394">
        <ele>64.3</ele>
        <time>2022-10-06T11:20:47Z</time>
      </trkpt>
      <trkpt lat="44.78921" lon="-0.10395">
        <ele>64.2</ele>
        <time>2022-10-06T11:20:48Z</time>
      </trkpt>
      <trkpt lat="44.78922" lon="-0.10397">
        <ele>64.2</ele>
        <time>2022-10-06T11:20:49Z</time>
      </trkpt>
      <trkpt lat="44.78923" lon="-0.104">
        <ele>64.2</ele>
        <time>2022-10-06T11:20:50Z</time>
      </trkpt>
      <trkpt lat="44.78924" lon="-0.10401">
        <ele>64.2</ele>
        <time>2022-10-06T11:20:51Z</time>
      </trkpt>
      <trkpt lat="44.78924" lon="-0.10402">
        <ele>64.2</ele>
        <time>2022-10-06T11:20:52Z</time>
      </trkpt>
      <trkpt lat="44.78925" lon="-0.10403">
        <ele>64.2</ele>
        <time>2022-10-06T11:20:53Z</time>
      </trkpt>
      <trkpt lat="44.78925" lon="-0.10404">
        <ele>64.2</ele>
        <time>2022-10-06T11:20:54Z</time>
      </trkpt>
      <trkpt lat="44.78926" lon="-0.10407">
        <ele>64.1</ele>
        <time>2022-10-06T11:20:55Z</time>
      </trkpt>
      <trkpt lat="44.78927" lon="-0.10408">
        <ele>64.1</ele>
        <time>2022-10-06T11:20:56Z</time>
      </trkpt>
      <trkpt lat="44.78927" lon="-0.10409">
        <ele>64.1</ele>
        <time>2022-10-06T11:20:57Z</time>
      </trkpt>
      <trkpt lat="44.78928" lon="-0.10411">
        <ele>64.1</ele>
        <time>2022-10-06T11:20:58Z</time>
      </trkpt>
      <trkpt lat="44.78928" lon="-0.10412">
        <ele>64.1</ele>
        <time>2022-10-06T11:20:59Z</time>
      </trkpt>
      <trkpt lat="44.78929" lon="-0.10413">
        <ele>64.1</ele>
        <time>2022-10-06T11:21:00Z</time>
      </trkpt>
      <trkpt lat="44.7893" lon="-0.10415">
        <ele>64</ele>
        <time>2022-10-06T11:21:01Z</time>
      </trkpt>
      <trkpt lat="44.7893" lon="-0.10417">
        <ele>64</ele>
        <time>2022-10-06T11:21:02Z</time>
      </trkpt>
      <trkpt lat="44.78931" lon="-0.10418">
        <ele>64</ele>
        <time>2022-10-06T11:21:03Z</time>
      </trkpt>
      <trkpt lat="44.78931" lon="-0.1042">
        <ele>64</ele>
        <time>2022-10-06T11:21:04Z</time>
      </trkpt>
      <trkpt lat="44.78932" lon="-0.10421">
        <ele>64</ele>
        <time>2022-10-06T11:21:05Z</time>
      </trkpt>
      <trkpt lat="44.78933" lon="-0.10423">
        <ele>64</ele>
        <time>2022-10-06T11:21:06Z</time>
      </trkpt>
      <trkpt lat="44.78933" lon="-0.10423">
        <ele>64</ele>
        <time>2022-10-06T11:21:07Z</time>
      </trkpt>
      <trkpt lat="44.78934" lon="-0.10425">
        <ele>64</ele>
        <time>2022-10-06T11:21:08Z</time>
      </trkpt>
      <trkpt lat="44.78935" lon="-0.10427">
        <ele>64</ele>
        <time>2022-10-06T11:21:09Z</time>
      </trkpt>
      <trkpt lat="44.78936" lon="-0.10428">
        <ele>64</ele>
        <time>2022-10-06T11:21:10Z</time>
      </trkpt>
      <trkpt lat="44.78936" lon="-0.10429">
        <ele>64</ele>
        <time>2022-10-06T11:21:11Z</time>
      </trkpt>
      <trkpt lat="44.78937" lon="-0.1043">
        <ele>64</ele>
        <time>2022-10-06T11:21:12Z</time>
      </trkpt>
      <trkpt lat="44.78938" lon="-0.1043">
        <ele>64</ele>
        <time>2022-10-06T11:21:13Z</time>
      </trkpt>
      <trkpt lat="44.78939" lon="-0.10431">
        <ele>63.9</ele>
        <time>2022-10-06T11:21:14Z</time>
      </trkpt>
      <trkpt lat="44.78941" lon="-0.10432">
        <ele>63.9</ele>
        <time>2022-10-06T11:21:15Z</time>
      </trkpt>
      <trkpt lat="44.78942" lon="-0.10432">
        <ele>63.9</ele>
        <time>2022-10-06T11:21:16Z</time>
      </trkpt>
      <trkpt lat="44.78943" lon="-0.10433">
        <ele>63.9</ele>
        <time>2022-10-06T11:21:17Z</time>
      </trkpt>
      <trkpt lat="44.78944" lon="-0.10433">
        <ele>63.9</ele>
        <time>2022-10-06T11:21:18Z</time>
      </trkpt>
      <trkpt lat="44.78945" lon="-0.10435">
        <ele>63.9</ele>
        <time>2022-10-06T11:21:19Z</time>
      </trkpt>
      <trkpt lat="44.78946" lon="-0.10437">
        <ele>63.9</ele>
        <time>2022-10-06T11:21:20Z</time>
      </trkpt>
      <trkpt lat="44.78947" lon="-0.10438">
        <ele>63.9</ele>
        <time>2022-10-06T11:21:21Z</time>
      </trkpt>
      <trkpt lat="44.78947" lon="-0.10439">
        <ele>63.9</ele>
        <time>2022-10-06T11:21:22Z</time>
      </trkpt>
      <trkpt lat="44.78948" lon="-0.10442">
        <ele>63.9</ele>
        <time>2022-10-06T11:21:23Z</time>
      </trkpt>
      <trkpt lat="44.78948" lon="-0.10443">
        <ele>63.9</ele>
        <time>2022-10-06T11:21:24Z</time>
      </trkpt>
      <trkpt lat="44.78949" lon="-0.10444">
        <ele>63.9</ele>
        <time>2022-10-06T11:21:25Z</time>
      </trkpt>
      <trkpt lat="44.7895" lon="-0.10447">
        <ele>63.9</ele>
        <time>2022-10-06T11:21:26Z</time>
      </trkpt>
      <trkpt lat="44.7895" lon="-0.10448">
        <ele>63.9</ele>
        <time>2022-10-06T11:21:27Z</time>
      </trkpt>
      <trkpt lat="44.78951" lon="-0.10449">
        <ele>63.9</ele>
        <time>2022-10-06T11:21:28Z</time>
      </trkpt>
      <trkpt lat="44.78951" lon="-0.10451">
        <ele>63.9</ele>
        <time>2022-10-06T11:21:29Z</time>
      </trkpt>
      <trkpt lat="44.78952" lon="-0.10452">
        <ele>63.9</ele>
        <time>2022-10-06T11:21:30Z</time>
      </trkpt>
      <trkpt lat="44.78953" lon="-0.10454">
        <ele>63.9</ele>
        <time>2022-10-06T11:21:31Z</time>
      </trkpt>
      <trkpt lat="44.78953" lon="-0.10455">
        <ele>63.9</ele>
        <time>2022-10-06T11:21:32Z</time>
      </trkpt>
      <trkpt lat="44.78954" lon="-0.10456">
        <ele>63.9</ele>
        <time>2022-10-06T11:21:33Z</time>
      </trkpt>
      <trkpt lat="44.78955" lon="-0.10458">
        <ele>63.9</ele>
        <time>2022-10-06T11:21:34Z</time>
      </trkpt>
      <trkpt lat="44.78956" lon="-0.1046">
        <ele>63.9</ele>
        <time>2022-10-06T11:21:35Z</time>
      </trkpt>
      <trkpt lat="44.78956" lon="-0.10461">
        <ele>63.9</ele>
        <time>2022-10-06T11:21:36Z</time>
      </trkpt>
      <trkpt lat="44.78957" lon="-0.10463">
        <ele>63.9</ele>
        <time>2022-10-06T11:21:37Z</time>
      </trkpt>
      <trkpt lat="44.78957" lon="-0.10464">
        <ele>64</ele>
        <time>2022-10-06T11:21:38Z</time>
      </trkpt>
      <trkpt lat="44.78958" lon="-0.10465">
        <ele>64</ele>
        <time>2022-10-06T11:21:39Z</time>
      </trkpt>
      <trkpt lat="44.78958" lon="-0.10466">
        <ele>64</ele>
        <time>2022-10-06T11:21:40Z</time>
      </trkpt>
      <trkpt lat="44.78959" lon="-0.10469">
        <ele>64</ele>
        <time>2022-10-06T11:21:41Z</time>
      </trkpt>
      <trkpt lat="44.7896" lon="-0.1047">
        <ele>64</ele>
        <time>2022-10-06T11:21:42Z</time>
      </trkpt>
      <trkpt lat="44.78961" lon="-0.10471">
        <ele>64</ele>
        <time>2022-10-06T11:21:43Z</time>
      </trkpt>
      <trkpt lat="44.78961" lon="-0.10472">
        <ele>64</ele>
        <time>2022-10-06T11:21:44Z</time>
      </trkpt>
      <trkpt lat="44.78961" lon="-0.10473">
        <ele>64</ele>
        <time>2022-10-06T11:21:45Z</time>
      </trkpt>
      <trkpt lat="44.78962" lon="-0.10475">
        <ele>64</ele>
        <time>2022-10-06T11:21:46Z</time>
      </trkpt>
      <trkpt lat="44.78963" lon="-0.10476">
        <ele>64</ele>
        <time>2022-10-06T11:21:47Z</time>
      </trkpt>
      <trkpt lat="44.78963" lon="-0.10477">
        <ele>64.1</ele>
        <time>2022-10-06T11:21:48Z</time>
      </trkpt>
      <trkpt lat="44.78965" lon="-0.1048">
        <ele>64.1</ele>
        <time>2022-10-06T11:21:49Z</time>
      </trkpt>
      <trkpt lat="44.78965" lon="-0.10481">
        <ele>64.1</ele>
        <time>2022-10-06T11:21:50Z</time>
      </trkpt>
      <trkpt lat="44.78966" lon="-0.10482">
        <ele>64.1</ele>
        <time>2022-10-06T11:21:51Z</time>
      </trkpt>
      <trkpt lat="44.78966" lon="-0.10483">
        <ele>64.1</ele>
        <time>2022-10-06T11:21:52Z</time>
      </trkpt>
      <trkpt lat="44.78967" lon="-0.10484">
        <ele>64.1</ele>
        <time>2022-10-06T11:21:53Z</time>
      </trkpt>
      <trkpt lat="44.78967" lon="-0.10486">
        <ele>64.1</ele>
        <time>2022-10-06T11:21:54Z</time>
      </trkpt>
      <trkpt lat="44.78968" lon="-0.10488">
        <ele>64.1</ele>
        <time>2022-10-06T11:21:55Z</time>
      </trkpt>
      <trkpt lat="44.78969" lon="-0.1049">
        <ele>64.2</ele>
        <time>2022-10-06T11:21:56Z</time>
      </trkpt>
      <trkpt lat="44.7897" lon="-0.10491">
        <ele>64.2</ele>
        <time>2022-10-06T11:21:57Z</time>
      </trkpt>
      <trkpt lat="44.7897" lon="-0.10492">
        <ele>64.2</ele>
        <time>2022-10-06T11:21:58Z</time>
      </trkpt>
      <trkpt lat="44.78971" lon="-0.10494">
        <ele>64.2</ele>
        <time>2022-10-06T11:21:59Z</time>
      </trkpt>
      <trkpt lat="44.78972" lon="-0.10495">
        <ele>64.2</ele>
        <time>2022-10-06T11:22:00Z</time>
      </trkpt>
      <trkpt lat="44.78973" lon="-0.10497">
        <ele>64.2</ele>
        <time>2022-10-06T11:22:01Z</time>
      </trkpt>
      <trkpt lat="44.78974" lon="-0.10499">
        <ele>64.3</ele>
        <time>2022-10-06T11:22:02Z</time>
      </trkpt>
      <trkpt lat="44.78975" lon="-0.105">
        <ele>64.3</ele>
        <time>2022-10-06T11:22:03Z</time>
      </trkpt>
      <trkpt lat="44.78975" lon="-0.10501">
        <ele>64.3</ele>
        <time>2022-10-06T11:22:04Z</time>
      </trkpt>
      <trkpt lat="44.78976" lon="-0.10502">
        <ele>64.3</ele>
        <time>2022-10-06T11:22:05Z</time>
      </trkpt>
      <trkpt lat="44.78977" lon="-0.10504">
        <ele>64.3</ele>
        <time>2022-10-06T11:22:06Z</time>
      </trkpt>
      <trkpt lat="44.78978" lon="-0.10505">
        <ele>64.3</ele>
        <time>2022-10-06T11:22:07Z</time>
      </trkpt>
      <trkpt lat="44.78978" lon="-0.10507">
        <ele>64.4</ele>
        <time>2022-10-06T11:22:08Z</time>
      </trkpt>
      <trkpt lat="44.78979" lon="-0.10508">
        <ele>64.4</ele>
        <time>2022-10-06T11:22:09Z</time>
      </trkpt>
      <trkpt lat="44.7898" lon="-0.10509">
        <ele>64.4</ele>
        <time>2022-10-06T11:22:10Z</time>
      </trkpt>
      <trkpt lat="44.78981" lon="-0.10511">
        <ele>64.5</ele>
        <time>2022-10-06T11:22:11Z</time>
      </trkpt>
      <trkpt lat="44.78981" lon="-0.10512">
        <ele>64.5</ele>
        <time>2022-10-06T11:22:12Z</time>
      </trkpt>
      <trkpt lat="44.78982" lon="-0.10513">
        <ele>64.5</ele>
        <time>2022-10-06T11:22:13Z</time>
      </trkpt>
      <trkpt lat="44.78983" lon="-0.10515">
        <ele>64.5</ele>
        <time>2022-10-06T11:22:14Z</time>
      </trkpt>
      <trkpt lat="44.78984" lon="-0.10516">
        <ele>64.6</ele>
        <time>2022-10-06T11:22:15Z</time>
      </trkpt>
      <trkpt lat="44.78985" lon="-0.10518">
        <ele>64.6</ele>
        <time>2022-10-06T11:22:16Z</time>
      </trkpt>
      <trkpt lat="44.78985" lon="-0.10519">
        <ele>64.6</ele>
        <time>2022-10-06T11:22:17Z</time>
      </trkpt>
      <trkpt lat="44.78986" lon="-0.10521">
        <ele>64.6</ele>
        <time>2022-10-06T11:22:18Z</time>
      </trkpt>
      <trkpt lat="44.78986" lon="-0.10522">
        <ele>64.7</ele>
        <time>2022-10-06T11:22:19Z</time>
      </trkpt>
      <trkpt lat="44.78986" lon="-0.10524">
        <ele>64.7</ele>
        <time>2022-10-06T11:22:20Z</time>
      </trkpt>
      <trkpt lat="44.78986" lon="-0.10526">
        <ele>64.8</ele>
        <time>2022-10-06T11:22:21Z</time>
      </trkpt>
      <trkpt lat="44.78986" lon="-0.10529">
        <ele>64.8</ele>
        <time>2022-10-06T11:22:22Z</time>
      </trkpt>
      <trkpt lat="44.78985" lon="-0.1053">
        <ele>64.8</ele>
        <time>2022-10-06T11:22:23Z</time>
      </trkpt>
      <trkpt lat="44.78985" lon="-0.10531">
        <ele>64.9</ele>
        <time>2022-10-06T11:22:24Z</time>
      </trkpt>
      <trkpt lat="44.78984" lon="-0.10532">
        <ele>64.9</ele>
        <time>2022-10-06T11:22:25Z</time>
      </trkpt>
      <trkpt lat="44.78983" lon="-0.10534">
        <ele>65</ele>
        <time>2022-10-06T11:22:26Z</time>
      </trkpt>
      <trkpt lat="44.78981" lon="-0.10534">
        <ele>65</ele>
        <time>2022-10-06T11:22:27Z</time>
      </trkpt>
      <trkpt lat="44.78981" lon="-0.10535">
        <ele>65.1</ele>
        <time>2022-10-06T11:22:28Z</time>
      </trkpt>
      <trkpt lat="44.7898" lon="-0.10536">
        <ele>65.1</ele>
        <time>2022-10-06T11:22:29Z</time>
      </trkpt>
      <trkpt lat="44.78979" lon="-0.10537">
        <ele>65.2</ele>
        <time>2022-10-06T11:22:30Z</time>
      </trkpt>
      <trkpt lat="44.78978" lon="-0.10538">
        <ele>65.2</ele>
        <time>2022-10-06T11:22:31Z</time>
      </trkpt>
      <trkpt lat="44.78978" lon="-0.10539">
        <ele>65.2</ele>
        <time>2022-10-06T11:22:32Z</time>
      </trkpt>
      <trkpt lat="44.78978" lon="-0.10539">
        <ele>65.2</ele>
        <time>2022-10-06T11:22:33Z</time>
      </trkpt>
      <trkpt lat="44.78978" lon="-0.10539">
        <ele>65.2</ele>
        <time>2022-10-06T11:22:34Z</time>
      </trkpt>
      <trkpt lat="44.78978" lon="-0.10539">
        <ele>65.2</ele>
        <time>2022-10-06T11:22:35Z</time>
      </trkpt>
      <trkpt lat="44.78978" lon="-0.10539">
        <ele>65.2</ele>
        <time>2022-10-06T11:22:36Z</time>
      </trkpt>
      <trkpt lat="44.78978" lon="-0.10539">
        <ele>65.2</ele>
        <time>2022-10-06T11:22:38Z</time>
      </trkpt>
      <trkpt lat="44.78978" lon="-0.10539">
        <ele>65.2</ele>
        <time>2022-10-06T11:22:40Z</time>
      </trkpt>
      <trkpt lat="44.78978" lon="-0.10539">
        <ele>65.2</ele>
        <time>2022-10-06T11:22:41Z</time>
      </trkpt>
      <trkpt lat="44.78978" lon="-0.10539">
        <ele>65.3</ele>
        <time>2022-10-06T11:22:42Z</time>
      </trkpt>
      <trkpt lat="44.78978" lon="-0.10539">
        <ele>65.3</ele>
        <time>2022-10-06T11:22:44Z</time>
      </trkpt>
      <trkpt lat="44.78978" lon="-0.10539">
        <ele>65.3</ele>
        <time>2022-10-06T11:22:45Z</time>
      </trkpt>
      <trkpt lat="44.78978" lon="-0.10538">
        <ele>65.3</ele>
        <time>2022-10-06T11:22:46Z</time>
      </trkpt>
      <trkpt lat="44.78978" lon="-0.10538">
        <ele>65.3</ele>
        <time>2022-10-06T11:22:47Z</time>
      </trkpt>
      <trkpt lat="44.78977" lon="-0.10538">
        <ele>65.3</ele>
        <time>2022-10-06T11:22:48Z</time>
      </trkpt>
      <trkpt lat="44.78977" lon="-0.10538">
        <ele>65.3</ele>
        <time>2022-10-06T11:22:49Z</time>
      </trkpt>
      <trkpt lat="44.78977" lon="-0.10538">
        <ele>65.3</ele>
        <time>2022-10-06T11:22:50Z</time>
      </trkpt>
      <trkpt lat="44.78977" lon="-0.10538">
        <ele>65.3</ele>
        <time>2022-10-06T11:22:51Z</time>
      </trkpt>
      <trkpt lat="44.78977" lon="-0.10538">
        <ele>65.3</ele>
        <time>2022-10-06T11:22:52Z</time>
      </trkpt>
      <trkpt lat="44.78977" lon="-0.10538">
        <ele>65.3</ele>
        <time>2022-10-06T11:22:53Z</time>
      </trkpt>
      <trkpt lat="44.78977" lon="-0.10538">
        <ele>65.3</ele>
        <time>2022-10-06T11:22:54Z</time>
      </trkpt>
      <trkpt lat="44.78977" lon="-0.10538">
        <ele>65.3</ele>
        <time>2022-10-06T11:22:55Z</time>
      </trkpt>
      <trkpt lat="44.78977" lon="-0.10538">
        <ele>65.3</ele>
        <time>2022-10-06T11:22:56Z</time>
      </trkpt>
      <trkpt lat="44.78977" lon="-0.10538">
        <ele>65.3</ele>
        <time>2022-10-06T11:22:57Z</time>
      </trkpt>
      <trkpt lat="44.78977" lon="-0.10538">
        <ele>65.3</ele>
        <time>2022-10-06T11:22:58Z</time>
      </trkpt>
      <trkpt lat="44.78977" lon="-0.10537">
        <ele>65.3</ele>
        <time>2022-10-06T11:22:59Z</time>
      </trkpt>
      <trkpt lat="44.78977" lon="-0.10537">
        <ele>65.3</ele>
        <time>2022-10-06T11:23:00Z</time>
      </trkpt>
      <trkpt lat="44.78977" lon="-0.10537">
        <ele>65.3</ele>
        <time>2022-10-06T11:23:01Z</time>
      </trkpt>
      <trkpt lat="44.78977" lon="-0.10537">
        <ele>65.3</ele>
        <time>2022-10-06T11:23:02Z</time>
      </trkpt>
      <trkpt lat="44.78977" lon="-0.10537">
        <ele>65.3</ele>
        <time>2022-10-06T11:23:03Z</time>
      </trkpt>
      <trkpt lat="44.78977" lon="-0.10537">
        <ele>65.3</ele>
        <time>2022-10-06T11:23:04Z</time>
      </trkpt>
      <trkpt lat="44.78977" lon="-0.10537">
        <ele>65.3</ele>
        <time>2022-10-06T11:23:05Z</time>
      </trkpt>
      <trkpt lat="44.78977" lon="-0.10537">
        <ele>65.3</ele>
        <time>2022-10-06T11:23:06Z</time>
      </trkpt>
      <trkpt lat="44.78977" lon="-0.10537">
        <ele>65.3</ele>
        <time>2022-10-06T11:23:07Z</time>
      </trkpt>
      <trkpt lat="44.78977" lon="-0.10537">
        <ele>65.3</ele>
        <time>2022-10-06T11:23:08Z</time>
      </trkpt>
      <trkpt lat="44.78977" lon="-0.10536">
        <ele>65.3</ele>
        <time>2022-10-06T11:23:09Z</time>
      </trkpt>
      <trkpt lat="44.78977" lon="-0.10536">
        <ele>65.3</ele>
        <time>2022-10-06T11:23:10Z</time>
      </trkpt>
      <trkpt lat="44.78977" lon="-0.10536">
        <ele>65.3</ele>
        <time>2022-10-06T11:23:11Z</time>
      </trkpt>
      <trkpt lat="44.78977" lon="-0.10536">
        <ele>65.3</ele>
        <time>2022-10-06T11:23:12Z</time>
      </trkpt>
      <trkpt lat="44.78977" lon="-0.10536">
        <ele>65.3</ele>
        <time>2022-10-06T11:23:13Z</time>
      </trkpt>
      <trkpt lat="44.78977" lon="-0.10536">
        <ele>65.3</ele>
        <time>2022-10-06T11:23:14Z</time>
      </trkpt>
      <trkpt lat="44.78977" lon="-0.10536">
        <ele>65.3</ele>
        <time>2022-10-06T11:23:15Z</time>
      </trkpt>
      <trkpt lat="44.78977" lon="-0.10536">
        <ele>65.3</ele>
        <time>2022-10-06T11:23:16Z</time>
      </trkpt>
      <trkpt lat="44.78977" lon="-0.10536">
        <ele>65.4</ele>
        <time>2022-10-06T11:23:17Z</time>
      </trkpt>
      <trkpt lat="44.78977" lon="-0.10536">
        <ele>65.4</ele>
        <time>2022-10-06T11:23:18Z</time>
      </trkpt>
      <trkpt lat="44.78977" lon="-0.10536">
        <ele>65.4</ele>
        <time>2022-10-06T11:23:19Z</time>
      </trkpt>
      <trkpt lat="44.78977" lon="-0.10535">
        <ele>65.4</ele>
        <time>2022-10-06T11:23:20Z</time>
      </trkpt>
      <trkpt lat="44.78977" lon="-0.10535">
        <ele>65.4</ele>
        <time>2022-10-06T11:23:21Z</time>
      </trkpt>
      <trkpt lat="44.78977" lon="-0.10535">
        <ele>65.4</ele>
        <time>2022-10-06T11:23:22Z</time>
      </trkpt>
      <trkpt lat="44.78977" lon="-0.10535">
        <ele>65.4</ele>
        <time>2022-10-06T11:23:23Z</time>
      </trkpt>
      <trkpt lat="44.78977" lon="-0.10535">
        <ele>65.4</ele>
        <time>2022-10-06T11:23:24Z</time>
      </trkpt>
      <trkpt lat="44.78977" lon="-0.10535">
        <ele>65.4</ele>
        <time>2022-10-06T11:23:25Z</time>
      </trkpt>
      <trkpt lat="44.78977" lon="-0.10535">
        <ele>65.4</ele>
        <time>2022-10-06T11:23:26Z</time>
      </trkpt>
      <trkpt lat="44.78977" lon="-0.10535">
        <ele>65.4</ele>
        <time>2022-10-06T11:23:27Z</time>
      </trkpt>
      <trkpt lat="44.78977" lon="-0.10535">
        <ele>65.4</ele>
        <time>2022-10-06T11:23:28Z</time>
      </trkpt>
      <trkpt lat="44.78977" lon="-0.10535">
        <ele>65.4</ele>
        <time>2022-10-06T11:23:29Z</time>
      </trkpt>
      <trkpt lat="44.78977" lon="-0.10535">
        <ele>65.4</ele>
        <time>2022-10-06T11:23:30Z</time>
      </trkpt>
      <trkpt lat="44.78977" lon="-0.10535">
        <ele>65.4</ele>
        <time>2022-10-06T11:23:31Z</time>
      </trkpt>
      <trkpt lat="44.78977" lon="-0.10535">
        <ele>65.4</ele>
        <time>2022-10-06T11:23:32Z</time>
      </trkpt>
      <trkpt lat="44.78977" lon="-0.10534">
        <ele>65.4</ele>
        <time>2022-10-06T11:23:33Z</time>
      </trkpt>
      <trkpt lat="44.78977" lon="-0.10534">
        <ele>65.4</ele>
        <time>2022-10-06T11:23:34Z</time>
      </trkpt>
      <trkpt lat="44.78977" lon="-0.10534">
        <ele>65.4</ele>
        <time>2022-10-06T11:23:35Z</time>
      </trkpt>
      <trkpt lat="44.78977" lon="-0.10534">
        <ele>65.4</ele>
        <time>2022-10-06T11:23:36Z</time>
      </trkpt>
      <trkpt lat="44.78977" lon="-0.10534">
        <ele>65.4</ele>
        <time>2022-10-06T11:23:37Z</time>
      </trkpt>
      <trkpt lat="44.78977" lon="-0.10534">
        <ele>65.4</ele>
        <time>2022-10-06T11:23:38Z</time>
      </trkpt>
      <trkpt lat="44.78977" lon="-0.10534">
        <ele>65.4</ele>
        <time>2022-10-06T11:23:39Z</time>
      </trkpt>
      <trkpt lat="44.78977" lon="-0.10534">
        <ele>65.4</ele>
        <time>2022-10-06T11:23:40Z</time>
      </trkpt>
      <trkpt lat="44.78977" lon="-0.10534">
        <ele>65.4</ele>
        <time>2022-10-06T11:23:41Z</time>
      </trkpt>
      <trkpt lat="44.78977" lon="-0.10534">
        <ele>65.4</ele>
        <time>2022-10-06T11:23:42Z</time>
      </trkpt>
      <trkpt lat="44.78977" lon="-0.10534">
        <ele>65.4</ele>
        <time>2022-10-06T11:23:43Z</time>
      </trkpt>
      <trkpt lat="44.78977" lon="-0.10533">
        <ele>65.4</ele>
        <time>2022-10-06T11:23:44Z</time>
      </trkpt>
      <trkpt lat="44.78977" lon="-0.10533">
        <ele>65.4</ele>
        <time>2022-10-06T11:23:45Z</time>
      </trkpt>
      <trkpt lat="44.78977" lon="-0.10533">
        <ele>65.4</ele>
        <time>2022-10-06T11:23:46Z</time>
      </trkpt>
      <trkpt lat="44.78977" lon="-0.10533">
        <ele>65.4</ele>
        <time>2022-10-06T11:23:47Z</time>
      </trkpt>
      <trkpt lat="44.78977" lon="-0.10533">
        <ele>65.4</ele>
        <time>2022-10-06T11:23:48Z</time>
      </trkpt>
      <trkpt lat="44.78977" lon="-0.10533">
        <ele>65.4</ele>
        <time>2022-10-06T11:23:49Z</time>
      </trkpt>
      <trkpt lat="44.78977" lon="-0.10533">
        <ele>65.5</ele>
        <time>2022-10-06T11:23:50Z</time>
      </trkpt>
      <trkpt lat="44.78977" lon="-0.10533">
        <ele>65.5</ele>
        <time>2022-10-06T11:23:51Z</time>
      </trkpt>
      <trkpt lat="44.78977" lon="-0.10533">
        <ele>65.5</ele>
        <time>2022-10-06T11:23:52Z</time>
      </trkpt>
      <trkpt lat="44.78977" lon="-0.10533">
        <ele>65.5</ele>
        <time>2022-10-06T11:23:53Z</time>
      </trkpt>
      <trkpt lat="44.78977" lon="-0.10533">
        <ele>65.5</ele>
        <time>2022-10-06T11:23:54Z</time>
      </trkpt>
      <trkpt lat="44.78977" lon="-0.10532">
        <ele>65.5</ele>
        <time>2022-10-06T11:23:55Z</time>
      </trkpt>
      <trkpt lat="44.78977" lon="-0.10532">
        <ele>65.5</ele>
        <time>2022-10-06T11:23:56Z</time>
      </trkpt>
      <trkpt lat="44.78977" lon="-0.10532">
        <ele>65.5</ele>
        <time>2022-10-06T11:23:57Z</time>
      </trkpt>
      <trkpt lat="44.78977" lon="-0.10532">
        <ele>65.5</ele>
        <time>2022-10-06T11:23:58Z</time>
      </trkpt>
      <trkpt lat="44.78977" lon="-0.10532">
        <ele>65.5</ele>
        <time>2022-10-06T11:23:59Z</time>
      </trkpt>
      <trkpt lat="44.78977" lon="-0.10532">
        <ele>65.5</ele>
        <time>2022-10-06T11:24:00Z</time>
      </trkpt>
      <trkpt lat="44.78977" lon="-0.10532">
        <ele>65.5</ele>
        <time>2022-10-06T11:24:01Z</time>
      </trkpt>
      <trkpt lat="44.78977" lon="-0.10532">
        <ele>65.5</ele>
        <time>2022-10-06T11:24:02Z</time>
      </trkpt>
      <trkpt lat="44.78977" lon="-0.10532">
        <ele>65.5</ele>
        <time>2022-10-06T11:24:03Z</time>
      </trkpt>
      <trkpt lat="44.78977" lon="-0.10532">
        <ele>65.5</ele>
        <time>2022-10-06T11:24:04Z</time>
      </trkpt>
      <trkpt lat="44.78977" lon="-0.10532">
        <ele>65.5</ele>
        <time>2022-10-06T11:24:05Z</time>
      </trkpt>
      <trkpt lat="44.78977" lon="-0.10532">
        <ele>65.5</ele>
        <time>2022-10-06T11:24:06Z</time>
      </trkpt>
      <trkpt lat="44.78977" lon="-0.10531">
        <ele>65.5</ele>
        <time>2022-10-06T11:24:07Z</time>
      </trkpt>
      <trkpt lat="44.78977" lon="-0.10531">
        <ele>65.5</ele>
        <time>2022-10-06T11:24:08Z</time>
      </trkpt>
      <trkpt lat="44.78977" lon="-0.10531">
        <ele>65.5</ele>
        <time>2022-10-06T11:24:09Z</time>
      </trkpt>
      <trkpt lat="44.78976" lon="-0.10531">
        <ele>65.5</ele>
        <time>2022-10-06T11:24:10Z</time>
      </trkpt>
      <trkpt lat="44.78976" lon="-0.10531">
        <ele>65.5</ele>
        <time>2022-10-06T11:24:11Z</time>
      </trkpt>
      <trkpt lat="44.78976" lon="-0.10531">
        <ele>65.5</ele>
        <time>2022-10-06T11:24:12Z</time>
      </trkpt>
      <trkpt lat="44.78976" lon="-0.10531">
        <ele>65.5</ele>
        <time>2022-10-06T11:24:13Z</time>
      </trkpt>
      <trkpt lat="44.78976" lon="-0.10531">
        <ele>65.5</ele>
        <time>2022-10-06T11:24:14Z</time>
      </trkpt>
      <trkpt lat="44.78976" lon="-0.10531">
        <ele>65.5</ele>
        <time>2022-10-06T11:24:15Z</time>
      </trkpt>
      <trkpt lat="44.78976" lon="-0.10531">
        <ele>65.5</ele>
        <time>2022-10-06T11:24:16Z</time>
      </trkpt>
      <trkpt lat="44.78976" lon="-0.10531">
        <ele>65.5</ele>
        <time>2022-10-06T11:24:17Z</time>
      </trkpt>
      <trkpt lat="44.78976" lon="-0.10531">
        <ele>65.5</ele>
        <time>2022-10-06T11:24:18Z</time>
      </trkpt>
      <trkpt lat="44.78976" lon="-0.1053">
        <ele>65.5</ele>
        <time>2022-10-06T11:24:19Z</time>
      </trkpt>
      <trkpt lat="44.78976" lon="-0.1053">
        <ele>65.5</ele>
        <time>2022-10-06T11:24:20Z</time>
      </trkpt>
      <trkpt lat="44.78976" lon="-0.1053">
        <ele>65.6</ele>
        <time>2022-10-06T11:24:21Z</time>
      </trkpt>
      <trkpt lat="44.78976" lon="-0.1053">
        <ele>65.6</ele>
        <time>2022-10-06T11:24:22Z</time>
      </trkpt>
      <trkpt lat="44.78976" lon="-0.10526">
        <ele>65.7</ele>
        <time>2022-10-06T11:24:23Z</time>
      </trkpt>
      <trkpt lat="44.78976" lon="-0.10525">
        <ele>65.7</ele>
        <time>2022-10-06T11:24:24Z</time>
      </trkpt>
      <trkpt lat="44.78976" lon="-0.10526">
        <ele>65.8</ele>
        <time>2022-10-06T11:24:25Z</time>
      </trkpt>
      <trkpt lat="44.78976" lon="-0.10528">
        <ele>65.8</ele>
        <time>2022-10-06T11:24:26Z</time>
      </trkpt>
      <trkpt lat="44.78976" lon="-0.1053">
        <ele>65.9</ele>
        <time>2022-10-06T11:24:27Z</time>
      </trkpt>
      <trkpt lat="44.78976" lon="-0.10532">
        <ele>66</ele>
        <time>2022-10-06T11:24:28Z</time>
      </trkpt>
      <trkpt lat="44.78976" lon="-0.10533">
        <ele>66</ele>
        <time>2022-10-06T11:24:29Z</time>
      </trkpt>
      <trkpt lat="44.78977" lon="-0.10533">
        <ele>66</ele>
        <time>2022-10-06T11:24:30Z</time>
      </trkpt>
      <trkpt lat="44.78977" lon="-0.10534">
        <ele>66</ele>
        <time>2022-10-06T11:24:31Z</time>
      </trkpt>
      <trkpt lat="44.78977" lon="-0.10535">
        <ele>66.1</ele>
        <time>2022-10-06T11:24:32Z</time>
      </trkpt>
      <trkpt lat="44.78978" lon="-0.10535">
        <ele>66.1</ele>
        <time>2022-10-06T11:24:33Z</time>
      </trkpt>
      <trkpt lat="44.78978" lon="-0.10535">
        <ele>66.1</ele>
        <time>2022-10-06T11:24:34Z</time>
      </trkpt>
      <trkpt lat="44.78979" lon="-0.10536">
        <ele>66.2</ele>
        <time>2022-10-06T11:24:35Z</time>
      </trkpt>
      <trkpt lat="44.78979" lon="-0.10536">
        <ele>66.2</ele>
        <time>2022-10-06T11:24:36Z</time>
      </trkpt>
      <trkpt lat="44.7898" lon="-0.10536">
        <ele>66.2</ele>
        <time>2022-10-06T11:24:37Z</time>
      </trkpt>
      <trkpt lat="44.7898" lon="-0.10537">
        <ele>66.2</ele>
        <time>2022-10-06T11:24:38Z</time>
      </trkpt>
      <trkpt lat="44.7898" lon="-0.10537">
        <ele>66.3</ele>
        <time>2022-10-06T11:24:39Z</time>
      </trkpt>
      <trkpt lat="44.78983" lon="-0.10539">
        <ele>66.4</ele>
        <time>2022-10-06T11:24:40Z</time>
      </trkpt>
      <trkpt lat="44.78984" lon="-0.10539">
        <ele>66.4</ele>
        <time>2022-10-06T11:24:41Z</time>
      </trkpt>
      <trkpt lat="44.78984" lon="-0.1054">
        <ele>66.5</ele>
        <time>2022-10-06T11:24:42Z</time>
      </trkpt>
      <trkpt lat="44.78985" lon="-0.1054">
        <ele>66.5</ele>
        <time>2022-10-06T11:24:43Z</time>
      </trkpt>
      <trkpt lat="44.78986" lon="-0.1054">
        <ele>66.5</ele>
        <time>2022-10-06T11:24:44Z</time>
      </trkpt>
      <trkpt lat="44.78988" lon="-0.10539">
        <ele>66.6</ele>
        <time>2022-10-06T11:24:45Z</time>
      </trkpt>
      <trkpt lat="44.7899" lon="-0.10539">
        <ele>66.8</ele>
        <time>2022-10-06T11:24:46Z</time>
      </trkpt>
      <trkpt lat="44.78991" lon="-0.10539">
        <ele>66.7</ele>
        <time>2022-10-06T11:24:47Z</time>
      </trkpt>
      <trkpt lat="44.78991" lon="-0.10538">
        <ele>66.7</ele>
        <time>2022-10-06T11:24:48Z</time>
      </trkpt>
      <trkpt lat="44.78994" lon="-0.10538">
        <ele>66.7</ele>
        <time>2022-10-06T11:24:49Z</time>
      </trkpt>
      <trkpt lat="44.78994" lon="-0.10538">
        <ele>66.7</ele>
        <time>2022-10-06T11:24:50Z</time>
      </trkpt>
      <trkpt lat="44.78997" lon="-0.10537">
        <ele>66.6</ele>
        <time>2022-10-06T11:24:51Z</time>
      </trkpt>
      <trkpt lat="44.78997" lon="-0.10537">
        <ele>66.6</ele>
        <time>2022-10-06T11:24:52Z</time>
      </trkpt>
      <trkpt lat="44.78998" lon="-0.10537">
        <ele>66.6</ele>
        <time>2022-10-06T11:24:53Z</time>
      </trkpt>
      <trkpt lat="44.79" lon="-0.10536">
        <ele>66.6</ele>
        <time>2022-10-06T11:24:54Z</time>
      </trkpt>
      <trkpt lat="44.79001" lon="-0.10536">
        <ele>66.5</ele>
        <time>2022-10-06T11:24:55Z</time>
      </trkpt>
      <trkpt lat="44.79002" lon="-0.10537">
        <ele>66.5</ele>
        <time>2022-10-06T11:24:56Z</time>
      </trkpt>
      <trkpt lat="44.79004" lon="-0.10537">
        <ele>66.5</ele>
        <time>2022-10-06T11:24:57Z</time>
      </trkpt>
      <trkpt lat="44.79005" lon="-0.10538">
        <ele>66.5</ele>
        <time>2022-10-06T11:24:58Z</time>
      </trkpt>
      <trkpt lat="44.79007" lon="-0.10539">
        <ele>66.5</ele>
        <time>2022-10-06T11:24:59Z</time>
      </trkpt>
      <trkpt lat="44.79009" lon="-0.10541">
        <ele>66.4</ele>
        <time>2022-10-06T11:25:00Z</time>
      </trkpt>
      <trkpt lat="44.7901" lon="-0.10542">
        <ele>66.4</ele>
        <time>2022-10-06T11:25:01Z</time>
      </trkpt>
      <trkpt lat="44.7901" lon="-0.10542">
        <ele>66.4</ele>
        <time>2022-10-06T11:25:02Z</time>
      </trkpt>
      <trkpt lat="44.79011" lon="-0.10544">
        <ele>66.4</ele>
        <time>2022-10-06T11:25:03Z</time>
      </trkpt>
      <trkpt lat="44.79012" lon="-0.10544">
        <ele>66.4</ele>
        <time>2022-10-06T11:25:04Z</time>
      </trkpt>
      <trkpt lat="44.79013" lon="-0.10545">
        <ele>66.4</ele>
        <time>2022-10-06T11:25:05Z</time>
      </trkpt>
      <trkpt lat="44.79014" lon="-0.10545">
        <ele>66.4</ele>
        <time>2022-10-06T11:25:06Z</time>
      </trkpt>
      <trkpt lat="44.79016" lon="-0.10545">
        <ele>66.4</ele>
        <time>2022-10-06T11:25:07Z</time>
      </trkpt>
      <trkpt lat="44.79017" lon="-0.10545">
        <ele>66.3</ele>
        <time>2022-10-06T11:25:08Z</time>
      </trkpt>
      <trkpt lat="44.79018" lon="-0.10546">
        <ele>66.3</ele>
        <time>2022-10-06T11:25:09Z</time>
      </trkpt>
      <trkpt lat="44.79019" lon="-0.10546">
        <ele>66.3</ele>
        <time>2022-10-06T11:25:10Z</time>
      </trkpt>
      <trkpt lat="44.7902" lon="-0.10547">
        <ele>66.3</ele>
        <time>2022-10-06T11:25:11Z</time>
      </trkpt>
      <trkpt lat="44.7902" lon="-0.10548">
        <ele>66.3</ele>
        <time>2022-10-06T11:25:12Z</time>
      </trkpt>
      <trkpt lat="44.79021" lon="-0.10549">
        <ele>66.3</ele>
        <time>2022-10-06T11:25:13Z</time>
      </trkpt>
      <trkpt lat="44.79023" lon="-0.10552">
        <ele>66.3</ele>
        <time>2022-10-06T11:25:14Z</time>
      </trkpt>
      <trkpt lat="44.79023" lon="-0.10553">
        <ele>66.3</ele>
        <time>2022-10-06T11:25:15Z</time>
      </trkpt>
      <trkpt lat="44.79023" lon="-0.10554">
        <ele>66.3</ele>
        <time>2022-10-06T11:25:16Z</time>
      </trkpt>
      <trkpt lat="44.79024" lon="-0.10555">
        <ele>66.3</ele>
        <time>2022-10-06T11:25:17Z</time>
      </trkpt>
      <trkpt lat="44.79024" lon="-0.10557">
        <ele>66.3</ele>
        <time>2022-10-06T11:25:18Z</time>
      </trkpt>
      <trkpt lat="44.79024" lon="-0.10558">
        <ele>66.2</ele>
        <time>2022-10-06T11:25:19Z</time>
      </trkpt>
      <trkpt lat="44.79025" lon="-0.10559">
        <ele>66.2</ele>
        <time>2022-10-06T11:25:20Z</time>
      </trkpt>
      <trkpt lat="44.79025" lon="-0.10561">
        <ele>66.2</ele>
        <time>2022-10-06T11:25:21Z</time>
      </trkpt>
      <trkpt lat="44.79025" lon="-0.10563">
        <ele>66.2</ele>
        <time>2022-10-06T11:25:22Z</time>
      </trkpt>
      <trkpt lat="44.79024" lon="-0.10564">
        <ele>66.2</ele>
        <time>2022-10-06T11:25:23Z</time>
      </trkpt>
      <trkpt lat="44.79024" lon="-0.10565">
        <ele>66.2</ele>
        <time>2022-10-06T11:25:24Z</time>
      </trkpt>
      <trkpt lat="44.79024" lon="-0.10565">
        <ele>66.2</ele>
        <time>2022-10-06T11:25:25Z</time>
      </trkpt>
      <trkpt lat="44.79023" lon="-0.10565">
        <ele>66.2</ele>
        <time>2022-10-06T11:25:26Z</time>
      </trkpt>
      <trkpt lat="44.79023" lon="-0.10564">
        <ele>66.2</ele>
        <time>2022-10-06T11:25:27Z</time>
      </trkpt>
      <trkpt lat="44.79023" lon="-0.10564">
        <ele>66.2</ele>
        <time>2022-10-06T11:25:28Z</time>
      </trkpt>
      <trkpt lat="44.79023" lon="-0.10566">
        <ele>66.2</ele>
        <time>2022-10-06T11:25:29Z</time>
      </trkpt>
      <trkpt lat="44.79023" lon="-0.10568">
        <ele>66.2</ele>
        <time>2022-10-06T11:25:30Z</time>
      </trkpt>
      <trkpt lat="44.79023" lon="-0.10569">
        <ele>66.2</ele>
        <time>2022-10-06T11:25:31Z</time>
      </trkpt>
      <trkpt lat="44.79023" lon="-0.1057">
        <ele>66.2</ele>
        <time>2022-10-06T11:25:32Z</time>
      </trkpt>
      <trkpt lat="44.79024" lon="-0.1057">
        <ele>66.2</ele>
        <time>2022-10-06T11:25:33Z</time>
      </trkpt>
      <trkpt lat="44.79026" lon="-0.1057">
        <ele>66.2</ele>
        <time>2022-10-06T11:25:34Z</time>
      </trkpt>
      <trkpt lat="44.79026" lon="-0.10571">
        <ele>66.2</ele>
        <time>2022-10-06T11:25:35Z</time>
      </trkpt>
      <trkpt lat="44.79026" lon="-0.10571">
        <ele>66.2</ele>
        <time>2022-10-06T11:25:36Z</time>
      </trkpt>
      <trkpt lat="44.79026" lon="-0.10572">
        <ele>66.2</ele>
        <time>2022-10-06T11:25:37Z</time>
      </trkpt>
      <trkpt lat="44.79026" lon="-0.10572">
        <ele>66.2</ele>
        <time>2022-10-06T11:25:38Z</time>
      </trkpt>
      <trkpt lat="44.79026" lon="-0.10572">
        <ele>66.2</ele>
        <time>2022-10-06T11:25:39Z</time>
      </trkpt>
      <trkpt lat="44.79026" lon="-0.10572">
        <ele>66.2</ele>
        <time>2022-10-06T11:25:40Z</time>
      </trkpt>
      <trkpt lat="44.79027" lon="-0.10572">
        <ele>66.1</ele>
        <time>2022-10-06T11:25:41Z</time>
      </trkpt>
      <trkpt lat="44.79027" lon="-0.10571">
        <ele>66.1</ele>
        <time>2022-10-06T11:25:42Z</time>
      </trkpt>
      <trkpt lat="44.79027" lon="-0.10571">
        <ele>66.1</ele>
        <time>2022-10-06T11:25:43Z</time>
      </trkpt>
      <trkpt lat="44.79027" lon="-0.10571">
        <ele>66.1</ele>
        <time>2022-10-06T11:25:44Z</time>
      </trkpt>
      <trkpt lat="44.79027" lon="-0.10571">
        <ele>66.1</ele>
        <time>2022-10-06T11:25:45Z</time>
      </trkpt>
      <trkpt lat="44.79027" lon="-0.10571">
        <ele>66.1</ele>
        <time>2022-10-06T11:25:46Z</time>
      </trkpt>
      <trkpt lat="44.79027" lon="-0.10571">
        <ele>66.1</ele>
        <time>2022-10-06T11:25:47Z</time>
      </trkpt>
      <trkpt lat="44.79027" lon="-0.10571">
        <ele>66.1</ele>
        <time>2022-10-06T11:25:48Z</time>
      </trkpt>
      <trkpt lat="44.79027" lon="-0.10571">
        <ele>66.1</ele>
        <time>2022-10-06T11:25:49Z</time>
      </trkpt>
      <trkpt lat="44.79027" lon="-0.10571">
        <ele>66.1</ele>
        <time>2022-10-06T11:25:50Z</time>
      </trkpt>
      <trkpt lat="44.79027" lon="-0.10571">
        <ele>66.1</ele>
        <time>2022-10-06T11:25:51Z</time>
      </trkpt>
      <trkpt lat="44.79027" lon="-0.10571">
        <ele>66.1</ele>
        <time>2022-10-06T11:25:52Z</time>
      </trkpt>
      <trkpt lat="44.79027" lon="-0.10571">
        <ele>66.1</ele>
        <time>2022-10-06T11:25:53Z</time>
      </trkpt>
      <trkpt lat="44.79027" lon="-0.10571">
        <ele>66.1</ele>
        <time>2022-10-06T11:25:54Z</time>
      </trkpt>
      <trkpt lat="44.79027" lon="-0.10571">
        <ele>66.1</ele>
        <time>2022-10-06T11:25:55Z</time>
      </trkpt>
      <trkpt lat="44.79027" lon="-0.10571">
        <ele>66.1</ele>
        <time>2022-10-06T11:25:56Z</time>
      </trkpt>
      <trkpt lat="44.79027" lon="-0.10571">
        <ele>66.1</ele>
        <time>2022-10-06T11:25:57Z</time>
      </trkpt>
      <trkpt lat="44.79027" lon="-0.10571">
        <ele>66.1</ele>
        <time>2022-10-06T11:25:58Z</time>
      </trkpt>
      <trkpt lat="44.79027" lon="-0.10571">
        <ele>66.1</ele>
        <time>2022-10-06T11:25:59Z</time>
      </trkpt>
      <trkpt lat="44.79027" lon="-0.10571">
        <ele>66.1</ele>
        <time>2022-10-06T11:26:00Z</time>
      </trkpt>
      <trkpt lat="44.79027" lon="-0.10571">
        <ele>66.1</ele>
        <time>2022-10-06T11:26:01Z</time>
      </trkpt>
      <trkpt lat="44.79027" lon="-0.10571">
        <ele>66.1</ele>
        <time>2022-10-06T11:26:02Z</time>
      </trkpt>
      <trkpt lat="44.79027" lon="-0.10571">
        <ele>66.1</ele>
        <time>2022-10-06T11:26:03Z</time>
      </trkpt>
      <trkpt lat="44.79027" lon="-0.10571">
        <ele>66.1</ele>
        <time>2022-10-06T11:26:04Z</time>
      </trkpt>
      <trkpt lat="44.79027" lon="-0.10572">
        <ele>66.1</ele>
        <time>2022-10-06T11:26:05Z</time>
      </trkpt>
      <trkpt lat="44.79027" lon="-0.10572">
        <ele>66.1</ele>
        <time>2022-10-06T11:26:06Z</time>
      </trkpt>
      <trkpt lat="44.79027" lon="-0.10572">
        <ele>66.1</ele>
        <time>2022-10-06T11:26:07Z</time>
      </trkpt>
      <trkpt lat="44.79027" lon="-0.10571">
        <ele>66.1</ele>
        <time>2022-10-06T11:26:08Z</time>
      </trkpt>
      <trkpt lat="44.79027" lon="-0.10571">
        <ele>66.1</ele>
        <time>2022-10-06T11:26:09Z</time>
      </trkpt>
      <trkpt lat="44.79027" lon="-0.10571">
        <ele>66.1</ele>
        <time>2022-10-06T11:26:10Z</time>
      </trkpt>
      <trkpt lat="44.79027" lon="-0.1057">
        <ele>66.1</ele>
        <time>2022-10-06T11:26:11Z</time>
      </trkpt>
      <trkpt lat="44.79028" lon="-0.1057">
        <ele>66.1</ele>
        <time>2022-10-06T11:26:12Z</time>
      </trkpt>
      <trkpt lat="44.79028" lon="-0.1057">
        <ele>66.1</ele>
        <time>2022-10-06T11:26:13Z</time>
      </trkpt>
      <trkpt lat="44.79029" lon="-0.10571">
        <ele>66.1</ele>
        <time>2022-10-06T11:26:14Z</time>
      </trkpt>
      <trkpt lat="44.7903" lon="-0.10572">
        <ele>66.1</ele>
        <time>2022-10-06T11:26:15Z</time>
      </trkpt>
      <trkpt lat="44.79031" lon="-0.10572">
        <ele>66.1</ele>
        <time>2022-10-06T11:26:16Z</time>
      </trkpt>
      <trkpt lat="44.79032" lon="-0.10573">
        <ele>66.1</ele>
        <time>2022-10-06T11:26:17Z</time>
      </trkpt>
      <trkpt lat="44.79032" lon="-0.10574">
        <ele>66.1</ele>
        <time>2022-10-06T11:26:18Z</time>
      </trkpt>
      <trkpt lat="44.79033" lon="-0.10575">
        <ele>66.1</ele>
        <time>2022-10-06T11:26:19Z</time>
      </trkpt>
      <trkpt lat="44.79034" lon="-0.10576">
        <ele>66.1</ele>
        <time>2022-10-06T11:26:20Z</time>
      </trkpt>
      <trkpt lat="44.79036" lon="-0.10577">
        <ele>66.1</ele>
        <time>2022-10-06T11:26:21Z</time>
      </trkpt>
      <trkpt lat="44.79036" lon="-0.10578">
        <ele>66.1</ele>
        <time>2022-10-06T11:26:22Z</time>
      </trkpt>
      <trkpt lat="44.79037" lon="-0.10579">
        <ele>66.1</ele>
        <time>2022-10-06T11:26:23Z</time>
      </trkpt>
      <trkpt lat="44.79037" lon="-0.1058">
        <ele>66.1</ele>
        <time>2022-10-06T11:26:24Z</time>
      </trkpt>
      <trkpt lat="44.79038" lon="-0.1058">
        <ele>66.1</ele>
        <time>2022-10-06T11:26:25Z</time>
      </trkpt>
      <trkpt lat="44.79038" lon="-0.10581">
        <ele>66.1</ele>
        <time>2022-10-06T11:26:26Z</time>
      </trkpt>
      <trkpt lat="44.7904" lon="-0.1058">
        <ele>66.1</ele>
        <time>2022-10-06T11:26:27Z</time>
      </trkpt>
      <trkpt lat="44.79041" lon="-0.10579">
        <ele>66.1</ele>
        <time>2022-10-06T11:26:28Z</time>
      </trkpt>
      <trkpt lat="44.79042" lon="-0.10578">
        <ele>66.1</ele>
        <time>2022-10-06T11:26:29Z</time>
      </trkpt>
      <trkpt lat="44.79042" lon="-0.10578">
        <ele>66.1</ele>
        <time>2022-10-06T11:26:30Z</time>
      </trkpt>
      <trkpt lat="44.79042" lon="-0.10577">
        <ele>66.1</ele>
        <time>2022-10-06T11:26:31Z</time>
      </trkpt>
      <trkpt lat="44.79042" lon="-0.10578">
        <ele>66.1</ele>
        <time>2022-10-06T11:26:32Z</time>
      </trkpt>
      <trkpt lat="44.79042" lon="-0.10578">
        <ele>66.1</ele>
        <time>2022-10-06T11:26:33Z</time>
      </trkpt>
      <trkpt lat="44.79044" lon="-0.1058">
        <ele>66.1</ele>
        <time>2022-10-06T11:26:35Z</time>
      </trkpt>
      <trkpt lat="44.79044" lon="-0.10581">
        <ele>66.1</ele>
        <time>2022-10-06T11:26:36Z</time>
      </trkpt>
      <trkpt lat="44.79045" lon="-0.10582">
        <ele>66.1</ele>
        <time>2022-10-06T11:26:37Z</time>
      </trkpt>
      <trkpt lat="44.79046" lon="-0.10584">
        <ele>66.1</ele>
        <time>2022-10-06T11:26:38Z</time>
      </trkpt>
      <trkpt lat="44.79047" lon="-0.10585">
        <ele>66.1</ele>
        <time>2022-10-06T11:26:39Z</time>
      </trkpt>
      <trkpt lat="44.79048" lon="-0.10586">
        <ele>66.1</ele>
        <time>2022-10-06T11:26:40Z</time>
      </trkpt>
      <trkpt lat="44.79049" lon="-0.10587">
        <ele>66.1</ele>
        <time>2022-10-06T11:26:41Z</time>
      </trkpt>
      <trkpt lat="44.79049" lon="-0.10588">
        <ele>66.1</ele>
        <time>2022-10-06T11:26:42Z</time>
      </trkpt>
      <trkpt lat="44.7905" lon="-0.10589">
        <ele>66.1</ele>
        <time>2022-10-06T11:26:43Z</time>
      </trkpt>
      <trkpt lat="44.79051" lon="-0.1059">
        <ele>66.1</ele>
        <time>2022-10-06T11:26:44Z</time>
      </trkpt>
      <trkpt lat="44.79052" lon="-0.10592">
        <ele>66.1</ele>
        <time>2022-10-06T11:26:45Z</time>
      </trkpt>
      <trkpt lat="44.79053" lon="-0.10593">
        <ele>66.1</ele>
        <time>2022-10-06T11:26:46Z</time>
      </trkpt>
      <trkpt lat="44.79053" lon="-0.10594">
        <ele>66.1</ele>
        <time>2022-10-06T11:26:47Z</time>
      </trkpt>
      <trkpt lat="44.79054" lon="-0.10595">
        <ele>66.1</ele>
        <time>2022-10-06T11:26:48Z</time>
      </trkpt>
      <trkpt lat="44.79055" lon="-0.10596">
        <ele>66.1</ele>
        <time>2022-10-06T11:26:49Z</time>
      </trkpt>
      <trkpt lat="44.79056" lon="-0.10598">
        <ele>66.1</ele>
        <time>2022-10-06T11:26:50Z</time>
      </trkpt>
      <trkpt lat="44.79057" lon="-0.10599">
        <ele>66.1</ele>
        <time>2022-10-06T11:26:51Z</time>
      </trkpt>
      <trkpt lat="44.79057" lon="-0.106">
        <ele>66.1</ele>
        <time>2022-10-06T11:26:52Z</time>
      </trkpt>
      <trkpt lat="44.79058" lon="-0.10601">
        <ele>66.1</ele>
        <time>2022-10-06T11:26:53Z</time>
      </trkpt>
      <trkpt lat="44.79059" lon="-0.10602">
        <ele>66.1</ele>
        <time>2022-10-06T11:26:54Z</time>
      </trkpt>
      <trkpt lat="44.7906" lon="-0.10604">
        <ele>66.1</ele>
        <time>2022-10-06T11:26:55Z</time>
      </trkpt>
      <trkpt lat="44.7906" lon="-0.10604">
        <ele>66.1</ele>
        <time>2022-10-06T11:26:56Z</time>
      </trkpt>
      <trkpt lat="44.79061" lon="-0.10605">
        <ele>66.1</ele>
        <time>2022-10-06T11:26:57Z</time>
      </trkpt>
      <trkpt lat="44.79062" lon="-0.10606">
        <ele>66.1</ele>
        <time>2022-10-06T11:26:58Z</time>
      </trkpt>
      <trkpt lat="44.79063" lon="-0.10607">
        <ele>66.1</ele>
        <time>2022-10-06T11:26:59Z</time>
      </trkpt>
      <trkpt lat="44.79064" lon="-0.10609">
        <ele>66.1</ele>
        <time>2022-10-06T11:27:00Z</time>
      </trkpt>
      <trkpt lat="44.79064" lon="-0.10609">
        <ele>66.1</ele>
        <time>2022-10-06T11:27:01Z</time>
      </trkpt>
      <trkpt lat="44.79065" lon="-0.1061">
        <ele>66.1</ele>
        <time>2022-10-06T11:27:02Z</time>
      </trkpt>
      <trkpt lat="44.79066" lon="-0.10612">
        <ele>66.1</ele>
        <time>2022-10-06T11:27:03Z</time>
      </trkpt>
      <trkpt lat="44.79067" lon="-0.10613">
        <ele>66.1</ele>
        <time>2022-10-06T11:27:04Z</time>
      </trkpt>
      <trkpt lat="44.79068" lon="-0.10613">
        <ele>66.1</ele>
        <time>2022-10-06T11:27:05Z</time>
      </trkpt>
      <trkpt lat="44.79069" lon="-0.10614">
        <ele>66.1</ele>
        <time>2022-10-06T11:27:06Z</time>
      </trkpt>
      <trkpt lat="44.79069" lon="-0.10615">
        <ele>66.1</ele>
        <time>2022-10-06T11:27:07Z</time>
      </trkpt>
      <trkpt lat="44.7907" lon="-0.10616">
        <ele>66.1</ele>
        <time>2022-10-06T11:27:08Z</time>
      </trkpt>
      <trkpt lat="44.79071" lon="-0.10617">
        <ele>66.1</ele>
        <time>2022-10-06T11:27:09Z</time>
      </trkpt>
      <trkpt lat="44.79072" lon="-0.10619">
        <ele>66.2</ele>
        <time>2022-10-06T11:27:10Z</time>
      </trkpt>
      <trkpt lat="44.79072" lon="-0.1062">
        <ele>66.2</ele>
        <time>2022-10-06T11:27:11Z</time>
      </trkpt>
      <trkpt lat="44.79072" lon="-0.10622">
        <ele>66.2</ele>
        <time>2022-10-06T11:27:12Z</time>
      </trkpt>
      <trkpt lat="44.79073" lon="-0.10623">
        <ele>66.3</ele>
        <time>2022-10-06T11:27:13Z</time>
      </trkpt>
      <trkpt lat="44.79073" lon="-0.10625">
        <ele>66.3</ele>
        <time>2022-10-06T11:27:14Z</time>
      </trkpt>
      <trkpt lat="44.79073" lon="-0.10627">
        <ele>66.4</ele>
        <time>2022-10-06T11:27:15Z</time>
      </trkpt>
      <trkpt lat="44.79073" lon="-0.10628">
        <ele>66.4</ele>
        <time>2022-10-06T11:27:16Z</time>
      </trkpt>
      <trkpt lat="44.79073" lon="-0.1063">
        <ele>66.4</ele>
        <time>2022-10-06T11:27:17Z</time>
      </trkpt>
      <trkpt lat="44.79073" lon="-0.10632">
        <ele>66.5</ele>
        <time>2022-10-06T11:27:18Z</time>
      </trkpt>
      <trkpt lat="44.79073" lon="-0.10633">
        <ele>66.5</ele>
        <time>2022-10-06T11:27:19Z</time>
      </trkpt>
      <trkpt lat="44.79073" lon="-0.10636">
        <ele>66.5</ele>
        <time>2022-10-06T11:27:20Z</time>
      </trkpt>
      <trkpt lat="44.79074" lon="-0.10637">
        <ele>66.6</ele>
        <time>2022-10-06T11:27:21Z</time>
      </trkpt>
      <trkpt lat="44.79074" lon="-0.10638">
        <ele>66.6</ele>
        <time>2022-10-06T11:27:22Z</time>
      </trkpt>
      <trkpt lat="44.79074" lon="-0.1064">
        <ele>66.6</ele>
        <time>2022-10-06T11:27:23Z</time>
      </trkpt>
      <trkpt lat="44.79075" lon="-0.10642">
        <ele>66.7</ele>
        <time>2022-10-06T11:27:24Z</time>
      </trkpt>
      <trkpt lat="44.79075" lon="-0.10645">
        <ele>66.7</ele>
        <time>2022-10-06T11:27:25Z</time>
      </trkpt>
      <trkpt lat="44.79075" lon="-0.10646">
        <ele>66.8</ele>
        <time>2022-10-06T11:27:26Z</time>
      </trkpt>
      <trkpt lat="44.79075" lon="-0.10647">
        <ele>66.8</ele>
        <time>2022-10-06T11:27:27Z</time>
      </trkpt>
      <trkpt lat="44.79076" lon="-0.10649">
        <ele>66.8</ele>
        <time>2022-10-06T11:27:28Z</time>
      </trkpt>
      <trkpt lat="44.79076" lon="-0.10652">
        <ele>66.9</ele>
        <time>2022-10-06T11:27:29Z</time>
      </trkpt>
      <trkpt lat="44.79077" lon="-0.10653">
        <ele>66.9</ele>
        <time>2022-10-06T11:27:30Z</time>
      </trkpt>
      <trkpt lat="44.79077" lon="-0.10654">
        <ele>67</ele>
        <time>2022-10-06T11:27:31Z</time>
      </trkpt>
      <trkpt lat="44.79077" lon="-0.10656">
        <ele>67</ele>
        <time>2022-10-06T11:27:32Z</time>
      </trkpt>
      <trkpt lat="44.79078" lon="-0.10657">
        <ele>67.1</ele>
        <time>2022-10-06T11:27:33Z</time>
      </trkpt>
      <trkpt lat="44.79078" lon="-0.10659">
        <ele>67.1</ele>
        <time>2022-10-06T11:27:34Z</time>
      </trkpt>
      <trkpt lat="44.79078" lon="-0.10661">
        <ele>67.2</ele>
        <time>2022-10-06T11:27:35Z</time>
      </trkpt>
      <trkpt lat="44.79079" lon="-0.10662">
        <ele>67.2</ele>
        <time>2022-10-06T11:27:36Z</time>
      </trkpt>
      <trkpt lat="44.79079" lon="-0.10663">
        <ele>67.2</ele>
        <time>2022-10-06T11:27:37Z</time>
      </trkpt>
      <trkpt lat="44.79079" lon="-0.10666">
        <ele>67.3</ele>
        <time>2022-10-06T11:27:38Z</time>
      </trkpt>
      <trkpt lat="44.7908" lon="-0.10667">
        <ele>67.3</ele>
        <time>2022-10-06T11:27:39Z</time>
      </trkpt>
      <trkpt lat="44.7908" lon="-0.10669">
        <ele>67.4</ele>
        <time>2022-10-06T11:27:40Z</time>
      </trkpt>
      <trkpt lat="44.7908" lon="-0.1067">
        <ele>67.4</ele>
        <time>2022-10-06T11:27:41Z</time>
      </trkpt>
      <trkpt lat="44.79081" lon="-0.10672">
        <ele>67.5</ele>
        <time>2022-10-06T11:27:42Z</time>
      </trkpt>
      <trkpt lat="44.79081" lon="-0.10673">
        <ele>67.5</ele>
        <time>2022-10-06T11:27:43Z</time>
      </trkpt>
      <trkpt lat="44.79081" lon="-0.10674">
        <ele>67.5</ele>
        <time>2022-10-06T11:27:44Z</time>
      </trkpt>
      <trkpt lat="44.79082" lon="-0.10677">
        <ele>67.6</ele>
        <time>2022-10-06T11:27:45Z</time>
      </trkpt>
      <trkpt lat="44.79082" lon="-0.10678">
        <ele>67.6</ele>
        <time>2022-10-06T11:27:46Z</time>
      </trkpt>
      <trkpt lat="44.79083" lon="-0.10679">
        <ele>67.7</ele>
        <time>2022-10-06T11:27:47Z</time>
      </trkpt>
      <trkpt lat="44.79083" lon="-0.10681">
        <ele>67.7</ele>
        <time>2022-10-06T11:27:48Z</time>
      </trkpt>
      <trkpt lat="44.79083" lon="-0.10682">
        <ele>67.8</ele>
        <time>2022-10-06T11:27:49Z</time>
      </trkpt>
      <trkpt lat="44.79084" lon="-0.10684">
        <ele>67.8</ele>
        <time>2022-10-06T11:27:50Z</time>
      </trkpt>
      <trkpt lat="44.79084" lon="-0.10685">
        <ele>67.8</ele>
        <time>2022-10-06T11:27:51Z</time>
      </trkpt>
      <trkpt lat="44.79085" lon="-0.10686">
        <ele>67.9</ele>
        <time>2022-10-06T11:27:52Z</time>
      </trkpt>
      <trkpt lat="44.79085" lon="-0.10688">
        <ele>67.9</ele>
        <time>2022-10-06T11:27:53Z</time>
      </trkpt>
      <trkpt lat="44.79086" lon="-0.1069">
        <ele>68</ele>
        <time>2022-10-06T11:27:54Z</time>
      </trkpt>
      <trkpt lat="44.79086" lon="-0.10692">
        <ele>68.1</ele>
        <time>2022-10-06T11:27:55Z</time>
      </trkpt>
      <trkpt lat="44.79087" lon="-0.10694">
        <ele>68.1</ele>
        <time>2022-10-06T11:27:56Z</time>
      </trkpt>
      <trkpt lat="44.79087" lon="-0.10696">
        <ele>68.2</ele>
        <time>2022-10-06T11:27:57Z</time>
      </trkpt>
      <trkpt lat="44.79088" lon="-0.10698">
        <ele>68.2</ele>
        <time>2022-10-06T11:27:58Z</time>
      </trkpt>
      <trkpt lat="44.79088" lon="-0.10699">
        <ele>68.3</ele>
        <time>2022-10-06T11:27:59Z</time>
      </trkpt>
      <trkpt lat="44.79088" lon="-0.10701">
        <ele>68.3</ele>
        <time>2022-10-06T11:28:00Z</time>
      </trkpt>
      <trkpt lat="44.79088" lon="-0.10703">
        <ele>68.4</ele>
        <time>2022-10-06T11:28:01Z</time>
      </trkpt>
      <trkpt lat="44.79088" lon="-0.10705">
        <ele>68.4</ele>
        <time>2022-10-06T11:28:02Z</time>
      </trkpt>
      <trkpt lat="44.79089" lon="-0.10707">
        <ele>68.5</ele>
        <time>2022-10-06T11:28:03Z</time>
      </trkpt>
      <trkpt lat="44.79089" lon="-0.10708">
        <ele>68.5</ele>
        <time>2022-10-06T11:28:04Z</time>
      </trkpt>
      <trkpt lat="44.79089" lon="-0.10711">
        <ele>68.6</ele>
        <time>2022-10-06T11:28:05Z</time>
      </trkpt>
      <trkpt lat="44.79089" lon="-0.10711">
        <ele>68.6</ele>
        <time>2022-10-06T11:28:06Z</time>
      </trkpt>
      <trkpt lat="44.7909" lon="-0.10712">
        <ele>68.6</ele>
        <time>2022-10-06T11:28:07Z</time>
      </trkpt>
      <trkpt lat="44.7909" lon="-0.10715">
        <ele>68.7</ele>
        <time>2022-10-06T11:28:08Z</time>
      </trkpt>
      <trkpt lat="44.79091" lon="-0.10717">
        <ele>68.8</ele>
        <time>2022-10-06T11:28:09Z</time>
      </trkpt>
      <trkpt lat="44.79091" lon="-0.10718">
        <ele>68.8</ele>
        <time>2022-10-06T11:28:10Z</time>
      </trkpt>
      <trkpt lat="44.79091" lon="-0.10721">
        <ele>68.9</ele>
        <time>2022-10-06T11:28:11Z</time>
      </trkpt>
      <trkpt lat="44.79091" lon="-0.10722">
        <ele>68.9</ele>
        <time>2022-10-06T11:28:12Z</time>
      </trkpt>
      <trkpt lat="44.79092" lon="-0.10723">
        <ele>69</ele>
        <time>2022-10-06T11:28:13Z</time>
      </trkpt>
      <trkpt lat="44.79092" lon="-0.10725">
        <ele>69</ele>
        <time>2022-10-06T11:28:14Z</time>
      </trkpt>
      <trkpt lat="44.79092" lon="-0.10727">
        <ele>69.1</ele>
        <time>2022-10-06T11:28:15Z</time>
      </trkpt>
      <trkpt lat="44.79093" lon="-0.10729">
        <ele>69.1</ele>
        <time>2022-10-06T11:28:16Z</time>
      </trkpt>
      <trkpt lat="44.79093" lon="-0.1073">
        <ele>69.2</ele>
        <time>2022-10-06T11:28:17Z</time>
      </trkpt>
      <trkpt lat="44.79094" lon="-0.10732">
        <ele>69.2</ele>
        <time>2022-10-06T11:28:18Z</time>
      </trkpt>
      <trkpt lat="44.79094" lon="-0.10735">
        <ele>69.3</ele>
        <time>2022-10-06T11:28:19Z</time>
      </trkpt>
      <trkpt lat="44.79095" lon="-0.10736">
        <ele>69.4</ele>
        <time>2022-10-06T11:28:20Z</time>
      </trkpt>
      <trkpt lat="44.79095" lon="-0.10737">
        <ele>69.4</ele>
        <time>2022-10-06T11:28:21Z</time>
      </trkpt>
      <trkpt lat="44.79095" lon="-0.1074">
        <ele>69.5</ele>
        <time>2022-10-06T11:28:22Z</time>
      </trkpt>
      <trkpt lat="44.79095" lon="-0.10741">
        <ele>69.5</ele>
        <time>2022-10-06T11:28:23Z</time>
      </trkpt>
      <trkpt lat="44.79096" lon="-0.10742">
        <ele>69.6</ele>
        <time>2022-10-06T11:28:24Z</time>
      </trkpt>
      <trkpt lat="44.79097" lon="-0.10745">
        <ele>69.7</ele>
        <time>2022-10-06T11:28:25Z</time>
      </trkpt>
      <trkpt lat="44.79097" lon="-0.10746">
        <ele>69.7</ele>
        <time>2022-10-06T11:28:26Z</time>
      </trkpt>
      <trkpt lat="44.79098" lon="-0.10749">
        <ele>69.8</ele>
        <time>2022-10-06T11:28:27Z</time>
      </trkpt>
      <trkpt lat="44.79098" lon="-0.1075">
        <ele>69.8</ele>
        <time>2022-10-06T11:28:28Z</time>
      </trkpt>
      <trkpt lat="44.79098" lon="-0.10752">
        <ele>69.9</ele>
        <time>2022-10-06T11:28:29Z</time>
      </trkpt>
      <trkpt lat="44.79097" lon="-0.10754">
        <ele>70</ele>
        <time>2022-10-06T11:28:30Z</time>
      </trkpt>
      <trkpt lat="44.79096" lon="-0.10755">
        <ele>70</ele>
        <time>2022-10-06T11:28:31Z</time>
      </trkpt>
      <trkpt lat="44.79095" lon="-0.10757">
        <ele>70.2</ele>
        <time>2022-10-06T11:28:32Z</time>
      </trkpt>
      <trkpt lat="44.79094" lon="-0.10758">
        <ele>70.2</ele>
        <time>2022-10-06T11:28:33Z</time>
      </trkpt>
      <trkpt lat="44.79094" lon="-0.10759">
        <ele>70.2</ele>
        <time>2022-10-06T11:28:34Z</time>
      </trkpt>
      <trkpt lat="44.79093" lon="-0.10761">
        <ele>70.3</ele>
        <time>2022-10-06T11:28:35Z</time>
      </trkpt>
      <trkpt lat="44.79093" lon="-0.10763">
        <ele>70.4</ele>
        <time>2022-10-06T11:28:36Z</time>
      </trkpt>
      <trkpt lat="44.79093" lon="-0.10764">
        <ele>70.4</ele>
        <time>2022-10-06T11:28:37Z</time>
      </trkpt>
      <trkpt lat="44.79093" lon="-0.10765">
        <ele>70.5</ele>
        <time>2022-10-06T11:28:38Z</time>
      </trkpt>
      <trkpt lat="44.79093" lon="-0.10767">
        <ele>70.6</ele>
        <time>2022-10-06T11:28:39Z</time>
      </trkpt>
      <trkpt lat="44.79093" lon="-0.10769">
        <ele>70.6</ele>
        <time>2022-10-06T11:28:40Z</time>
      </trkpt>
      <trkpt lat="44.79093" lon="-0.1077">
        <ele>70.7</ele>
        <time>2022-10-06T11:28:41Z</time>
      </trkpt>
      <trkpt lat="44.79094" lon="-0.10771">
        <ele>70.7</ele>
        <time>2022-10-06T11:28:42Z</time>
      </trkpt>
      <trkpt lat="44.79094" lon="-0.10772">
        <ele>70.8</ele>
        <time>2022-10-06T11:28:43Z</time>
      </trkpt>
      <trkpt lat="44.79094" lon="-0.10774">
        <ele>70.8</ele>
        <time>2022-10-06T11:28:44Z</time>
      </trkpt>
      <trkpt lat="44.79094" lon="-0.10776">
        <ele>70.9</ele>
        <time>2022-10-06T11:28:45Z</time>
      </trkpt>
      <trkpt lat="44.79094" lon="-0.10777">
        <ele>70.9</ele>
        <time>2022-10-06T11:28:46Z</time>
      </trkpt>
      <trkpt lat="44.79095" lon="-0.10778">
        <ele>71</ele>
        <time>2022-10-06T11:28:47Z</time>
      </trkpt>
      <trkpt lat="44.79095" lon="-0.10779">
        <ele>71.1</ele>
        <time>2022-10-06T11:28:48Z</time>
      </trkpt>
      <trkpt lat="44.79095" lon="-0.10781">
        <ele>71.1</ele>
        <time>2022-10-06T11:28:49Z</time>
      </trkpt>
      <trkpt lat="44.79095" lon="-0.10784">
        <ele>71.2</ele>
        <time>2022-10-06T11:28:50Z</time>
      </trkpt>
      <trkpt lat="44.79095" lon="-0.10784">
        <ele>71.2</ele>
        <time>2022-10-06T11:28:51Z</time>
      </trkpt>
      <trkpt lat="44.79096" lon="-0.10785">
        <ele>71.3</ele>
        <time>2022-10-06T11:28:52Z</time>
      </trkpt>
      <trkpt lat="44.79096" lon="-0.10788">
        <ele>71.4</ele>
        <time>2022-10-06T11:28:53Z</time>
      </trkpt>
      <trkpt lat="44.79096" lon="-0.10789">
        <ele>71.4</ele>
        <time>2022-10-06T11:28:54Z</time>
      </trkpt>
      <trkpt lat="44.79097" lon="-0.10791">
        <ele>71.5</ele>
        <time>2022-10-06T11:28:55Z</time>
      </trkpt>
      <trkpt lat="44.79097" lon="-0.10792">
        <ele>71.5</ele>
        <time>2022-10-06T11:28:56Z</time>
      </trkpt>
      <trkpt lat="44.79097" lon="-0.10793">
        <ele>71.6</ele>
        <time>2022-10-06T11:28:57Z</time>
      </trkpt>
      <trkpt lat="44.79097" lon="-0.10795">
        <ele>71.7</ele>
        <time>2022-10-06T11:28:58Z</time>
      </trkpt>
      <trkpt lat="44.79097" lon="-0.10798">
        <ele>71.8</ele>
        <time>2022-10-06T11:28:59Z</time>
      </trkpt>
      <trkpt lat="44.79097" lon="-0.10799">
        <ele>71.8</ele>
        <time>2022-10-06T11:29:00Z</time>
      </trkpt>
      <trkpt lat="44.79097" lon="-0.108">
        <ele>71.9</ele>
        <time>2022-10-06T11:29:01Z</time>
      </trkpt>
      <trkpt lat="44.79097" lon="-0.10802">
        <ele>71.9</ele>
        <time>2022-10-06T11:29:02Z</time>
      </trkpt>
      <trkpt lat="44.79098" lon="-0.10803">
        <ele>72</ele>
        <time>2022-10-06T11:29:03Z</time>
      </trkpt>
      <trkpt lat="44.79098" lon="-0.10805">
        <ele>72</ele>
        <time>2022-10-06T11:29:04Z</time>
      </trkpt>
      <trkpt lat="44.79098" lon="-0.10807">
        <ele>72.1</ele>
        <time>2022-10-06T11:29:05Z</time>
      </trkpt>
      <trkpt lat="44.79098" lon="-0.10808">
        <ele>72.1</ele>
        <time>2022-10-06T11:29:06Z</time>
      </trkpt>
      <trkpt lat="44.79098" lon="-0.10809">
        <ele>72.2</ele>
        <time>2022-10-06T11:29:07Z</time>
      </trkpt>
      <trkpt lat="44.79098" lon="-0.10811">
        <ele>72.3</ele>
        <time>2022-10-06T11:29:08Z</time>
      </trkpt>
      <trkpt lat="44.79099" lon="-0.10813">
        <ele>72.3</ele>
        <time>2022-10-06T11:29:09Z</time>
      </trkpt>
      <trkpt lat="44.79099" lon="-0.10814">
        <ele>72.4</ele>
        <time>2022-10-06T11:29:10Z</time>
      </trkpt>
      <trkpt lat="44.79099" lon="-0.10815">
        <ele>72.4</ele>
        <time>2022-10-06T11:29:11Z</time>
      </trkpt>
      <trkpt lat="44.79099" lon="-0.10816">
        <ele>72.4</ele>
        <time>2022-10-06T11:29:12Z</time>
      </trkpt>
      <trkpt lat="44.79099" lon="-0.10818">
        <ele>72.5</ele>
        <time>2022-10-06T11:29:13Z</time>
      </trkpt>
      <trkpt lat="44.79099" lon="-0.1082">
        <ele>72.5</ele>
        <time>2022-10-06T11:29:14Z</time>
      </trkpt>
      <trkpt lat="44.79099" lon="-0.10823">
        <ele>72.6</ele>
        <time>2022-10-06T11:29:15Z</time>
      </trkpt>
      <trkpt lat="44.79099" lon="-0.10825">
        <ele>72.7</ele>
        <time>2022-10-06T11:29:16Z</time>
      </trkpt>
      <trkpt lat="44.79099" lon="-0.10826">
        <ele>72.7</ele>
        <time>2022-10-06T11:29:17Z</time>
      </trkpt>
      <trkpt lat="44.79099" lon="-0.10827">
        <ele>72.7</ele>
        <time>2022-10-06T11:29:18Z</time>
      </trkpt>
      <trkpt lat="44.79099" lon="-0.10828">
        <ele>72.8</ele>
        <time>2022-10-06T11:29:19Z</time>
      </trkpt>
      <trkpt lat="44.791" lon="-0.10831">
        <ele>72.9</ele>
        <time>2022-10-06T11:29:20Z</time>
      </trkpt>
      <trkpt lat="44.791" lon="-0.10832">
        <ele>72.9</ele>
        <time>2022-10-06T11:29:21Z</time>
      </trkpt>
      <trkpt lat="44.791" lon="-0.10833">
        <ele>72.9</ele>
        <time>2022-10-06T11:29:22Z</time>
      </trkpt>
      <trkpt lat="44.791" lon="-0.10835">
        <ele>73</ele>
        <time>2022-10-06T11:29:23Z</time>
      </trkpt>
      <trkpt lat="44.791" lon="-0.10836">
        <ele>73</ele>
        <time>2022-10-06T11:29:24Z</time>
      </trkpt>
      <trkpt lat="44.791" lon="-0.10839">
        <ele>73.1</ele>
        <time>2022-10-06T11:29:25Z</time>
      </trkpt>
      <trkpt lat="44.791" lon="-0.1084">
        <ele>73.1</ele>
        <time>2022-10-06T11:29:26Z</time>
      </trkpt>
      <trkpt lat="44.791" lon="-0.10841">
        <ele>73.1</ele>
        <time>2022-10-06T11:29:27Z</time>
      </trkpt>
      <trkpt lat="44.791" lon="-0.10844">
        <ele>73.2</ele>
        <time>2022-10-06T11:29:28Z</time>
      </trkpt>
      <trkpt lat="44.79101" lon="-0.10845">
        <ele>73.3</ele>
        <time>2022-10-06T11:29:29Z</time>
      </trkpt>
      <trkpt lat="44.79101" lon="-0.10846">
        <ele>73.3</ele>
        <time>2022-10-06T11:29:30Z</time>
      </trkpt>
      <trkpt lat="44.79101" lon="-0.10847">
        <ele>73.3</ele>
        <time>2022-10-06T11:29:31Z</time>
      </trkpt>
      <trkpt lat="44.79101" lon="-0.10849">
        <ele>73.4</ele>
        <time>2022-10-06T11:29:32Z</time>
      </trkpt>
      <trkpt lat="44.79101" lon="-0.1085">
        <ele>73.4</ele>
        <time>2022-10-06T11:29:33Z</time>
      </trkpt>
      <trkpt lat="44.79101" lon="-0.10852">
        <ele>73.5</ele>
        <time>2022-10-06T11:29:34Z</time>
      </trkpt>
      <trkpt lat="44.79102" lon="-0.10854">
        <ele>73.5</ele>
        <time>2022-10-06T11:29:35Z</time>
      </trkpt>
      <trkpt lat="44.79102" lon="-0.10855">
        <ele>73.6</ele>
        <time>2022-10-06T11:29:36Z</time>
      </trkpt>
      <trkpt lat="44.79102" lon="-0.10856">
        <ele>73.6</ele>
        <time>2022-10-06T11:29:37Z</time>
      </trkpt>
      <trkpt lat="44.79102" lon="-0.10857">
        <ele>73.6</ele>
        <time>2022-10-06T11:29:38Z</time>
      </trkpt>
      <trkpt lat="44.79102" lon="-0.1086">
        <ele>73.7</ele>
        <time>2022-10-06T11:29:39Z</time>
      </trkpt>
      <trkpt lat="44.79102" lon="-0.10862">
        <ele>73.8</ele>
        <time>2022-10-06T11:29:40Z</time>
      </trkpt>
      <trkpt lat="44.79103" lon="-0.10863">
        <ele>73.8</ele>
        <time>2022-10-06T11:29:41Z</time>
      </trkpt>
      <trkpt lat="44.79103" lon="-0.10864">
        <ele>73.9</ele>
        <time>2022-10-06T11:29:42Z</time>
      </trkpt>
      <trkpt lat="44.79103" lon="-0.10867">
        <ele>73.9</ele>
        <time>2022-10-06T11:29:43Z</time>
      </trkpt>
      <trkpt lat="44.79104" lon="-0.10868">
        <ele>74</ele>
        <time>2022-10-06T11:29:44Z</time>
      </trkpt>
      <trkpt lat="44.79104" lon="-0.10869">
        <ele>74</ele>
        <time>2022-10-06T11:29:45Z</time>
      </trkpt>
      <trkpt lat="44.79104" lon="-0.1087">
        <ele>74</ele>
        <time>2022-10-06T11:29:46Z</time>
      </trkpt>
      <trkpt lat="44.79104" lon="-0.10872">
        <ele>74.1</ele>
        <time>2022-10-06T11:29:47Z</time>
      </trkpt>
      <trkpt lat="44.79104" lon="-0.10874">
        <ele>74.1</ele>
        <time>2022-10-06T11:29:48Z</time>
      </trkpt>
      <trkpt lat="44.79105" lon="-0.10876">
        <ele>74.2</ele>
        <time>2022-10-06T11:29:49Z</time>
      </trkpt>
      <trkpt lat="44.79105" lon="-0.10878">
        <ele>74.3</ele>
        <time>2022-10-06T11:29:50Z</time>
      </trkpt>
      <trkpt lat="44.79105" lon="-0.10879">
        <ele>74.3</ele>
        <time>2022-10-06T11:29:51Z</time>
      </trkpt>
      <trkpt lat="44.79105" lon="-0.1088">
        <ele>74.3</ele>
        <time>2022-10-06T11:29:52Z</time>
      </trkpt>
      <trkpt lat="44.79105" lon="-0.10882">
        <ele>74.4</ele>
        <time>2022-10-06T11:29:53Z</time>
      </trkpt>
      <trkpt lat="44.79105" lon="-0.10884">
        <ele>74.4</ele>
        <time>2022-10-06T11:29:54Z</time>
      </trkpt>
      <trkpt lat="44.79105" lon="-0.10887">
        <ele>74.5</ele>
        <time>2022-10-06T11:29:55Z</time>
      </trkpt>
      <trkpt lat="44.79105" lon="-0.10887">
        <ele>74.5</ele>
        <time>2022-10-06T11:29:56Z</time>
      </trkpt>
      <trkpt lat="44.79106" lon="-0.10889">
        <ele>74.6</ele>
        <time>2022-10-06T11:29:57Z</time>
      </trkpt>
      <trkpt lat="44.79106" lon="-0.1089">
        <ele>74.6</ele>
        <time>2022-10-06T11:29:58Z</time>
      </trkpt>
      <trkpt lat="44.79106" lon="-0.10891">
        <ele>74.7</ele>
        <time>2022-10-06T11:29:59Z</time>
      </trkpt>
      <trkpt lat="44.79107" lon="-0.10895">
        <ele>74.8</ele>
        <time>2022-10-06T11:30:00Z</time>
      </trkpt>
      <trkpt lat="44.79107" lon="-0.10896">
        <ele>74.8</ele>
        <time>2022-10-06T11:30:01Z</time>
      </trkpt>
      <trkpt lat="44.79107" lon="-0.10896">
        <ele>74.8</ele>
        <time>2022-10-06T11:30:02Z</time>
      </trkpt>
      <trkpt lat="44.79107" lon="-0.10899">
        <ele>74.9</ele>
        <time>2022-10-06T11:30:03Z</time>
      </trkpt>
      <trkpt lat="44.79108" lon="-0.10901">
        <ele>74.9</ele>
        <time>2022-10-06T11:30:04Z</time>
      </trkpt>
      <trkpt lat="44.79108" lon="-0.10902">
        <ele>75</ele>
        <time>2022-10-06T11:30:05Z</time>
      </trkpt>
      <trkpt lat="44.79108" lon="-0.10903">
        <ele>75</ele>
        <time>2022-10-06T11:30:06Z</time>
      </trkpt>
      <trkpt lat="44.79108" lon="-0.10904">
        <ele>75</ele>
        <time>2022-10-06T11:30:07Z</time>
      </trkpt>
      <trkpt lat="44.79108" lon="-0.10905">
        <ele>75</ele>
        <time>2022-10-06T11:30:08Z</time>
      </trkpt>
      <trkpt lat="44.79108" lon="-0.10906">
        <ele>75.1</ele>
        <time>2022-10-06T11:30:09Z</time>
      </trkpt>
      <trkpt lat="44.79109" lon="-0.10909">
        <ele>75.2</ele>
        <time>2022-10-06T11:30:10Z</time>
      </trkpt>
      <trkpt lat="44.79109" lon="-0.1091">
        <ele>75.2</ele>
        <time>2022-10-06T11:30:11Z</time>
      </trkpt>
      <trkpt lat="44.79109" lon="-0.10911">
        <ele>75.2</ele>
        <time>2022-10-06T11:30:12Z</time>
      </trkpt>
      <trkpt lat="44.79109" lon="-0.10913">
        <ele>75.3</ele>
        <time>2022-10-06T11:30:13Z</time>
      </trkpt>
      <trkpt lat="44.79109" lon="-0.10914">
        <ele>75.3</ele>
        <time>2022-10-06T11:30:14Z</time>
      </trkpt>
      <trkpt lat="44.7911" lon="-0.10916">
        <ele>75.4</ele>
        <time>2022-10-06T11:30:15Z</time>
      </trkpt>
      <trkpt lat="44.7911" lon="-0.10917">
        <ele>75.4</ele>
        <time>2022-10-06T11:30:16Z</time>
      </trkpt>
      <trkpt lat="44.7911" lon="-0.10919">
        <ele>75.5</ele>
        <time>2022-10-06T11:30:17Z</time>
      </trkpt>
      <trkpt lat="44.7911" lon="-0.10922">
        <ele>75.5</ele>
        <time>2022-10-06T11:30:18Z</time>
      </trkpt>
      <trkpt lat="44.79111" lon="-0.10923">
        <ele>75.6</ele>
        <time>2022-10-06T11:30:19Z</time>
      </trkpt>
      <trkpt lat="44.79111" lon="-0.10925">
        <ele>75.6</ele>
        <time>2022-10-06T11:30:20Z</time>
      </trkpt>
      <trkpt lat="44.79111" lon="-0.10925">
        <ele>75.6</ele>
        <time>2022-10-06T11:30:21Z</time>
      </trkpt>
      <trkpt lat="44.79111" lon="-0.10927">
        <ele>75.7</ele>
        <time>2022-10-06T11:30:22Z</time>
      </trkpt>
      <trkpt lat="44.79111" lon="-0.10928">
        <ele>75.7</ele>
        <time>2022-10-06T11:30:23Z</time>
      </trkpt>
      <trkpt lat="44.79111" lon="-0.10929">
        <ele>75.7</ele>
        <time>2022-10-06T11:30:24Z</time>
      </trkpt>
      <trkpt lat="44.79111" lon="-0.10932">
        <ele>75.8</ele>
        <time>2022-10-06T11:30:25Z</time>
      </trkpt>
      <trkpt lat="44.79112" lon="-0.10933">
        <ele>75.8</ele>
        <time>2022-10-06T11:30:26Z</time>
      </trkpt>
      <trkpt lat="44.79112" lon="-0.10934">
        <ele>75.9</ele>
        <time>2022-10-06T11:30:27Z</time>
      </trkpt>
      <trkpt lat="44.79112" lon="-0.10937">
        <ele>75.9</ele>
        <time>2022-10-06T11:30:28Z</time>
      </trkpt>
      <trkpt lat="44.79112" lon="-0.10938">
        <ele>76</ele>
        <time>2022-10-06T11:30:29Z</time>
      </trkpt>
      <trkpt lat="44.79112" lon="-0.10939">
        <ele>76</ele>
        <time>2022-10-06T11:30:30Z</time>
      </trkpt>
      <trkpt lat="44.79112" lon="-0.1094">
        <ele>76</ele>
        <time>2022-10-06T11:30:31Z</time>
      </trkpt>
      <trkpt lat="44.79112" lon="-0.10941">
        <ele>76</ele>
        <time>2022-10-06T11:30:32Z</time>
      </trkpt>
      <trkpt lat="44.79112" lon="-0.10943">
        <ele>76.1</ele>
        <time>2022-10-06T11:30:33Z</time>
      </trkpt>
      <trkpt lat="44.79112" lon="-0.10944">
        <ele>76.1</ele>
        <time>2022-10-06T11:30:34Z</time>
      </trkpt>
      <trkpt lat="44.79112" lon="-0.10947">
        <ele>76.2</ele>
        <time>2022-10-06T11:30:35Z</time>
      </trkpt>
      <trkpt lat="44.79112" lon="-0.10947">
        <ele>76.2</ele>
        <time>2022-10-06T11:30:36Z</time>
      </trkpt>
      <trkpt lat="44.79112" lon="-0.10948">
        <ele>76.2</ele>
        <time>2022-10-06T11:30:37Z</time>
      </trkpt>
      <trkpt lat="44.79113" lon="-0.1095">
        <ele>76.3</ele>
        <time>2022-10-06T11:30:38Z</time>
      </trkpt>
      <trkpt lat="44.79113" lon="-0.10951">
        <ele>76.3</ele>
        <time>2022-10-06T11:30:39Z</time>
      </trkpt>
      <trkpt lat="44.79114" lon="-0.10952">
        <ele>76.3</ele>
        <time>2022-10-06T11:30:40Z</time>
      </trkpt>
      <trkpt lat="44.79114" lon="-0.10953">
        <ele>76.3</ele>
        <time>2022-10-06T11:30:41Z</time>
      </trkpt>
      <trkpt lat="44.79114" lon="-0.10954">
        <ele>76.4</ele>
        <time>2022-10-06T11:30:42Z</time>
      </trkpt>
      <trkpt lat="44.79115" lon="-0.10955">
        <ele>76.4</ele>
        <time>2022-10-06T11:30:43Z</time>
      </trkpt>
      <trkpt lat="44.79115" lon="-0.10956">
        <ele>76.4</ele>
        <time>2022-10-06T11:30:44Z</time>
      </trkpt>
      <trkpt lat="44.79115" lon="-0.10957">
        <ele>76.5</ele>
        <time>2022-10-06T11:30:45Z</time>
      </trkpt>
      <trkpt lat="44.79115" lon="-0.1096">
        <ele>76.5</ele>
        <time>2022-10-06T11:30:46Z</time>
      </trkpt>
      <trkpt lat="44.79115" lon="-0.10961">
        <ele>76.6</ele>
        <time>2022-10-06T11:30:47Z</time>
      </trkpt>
      <trkpt lat="44.79115" lon="-0.10962">
        <ele>76.6</ele>
        <time>2022-10-06T11:30:48Z</time>
      </trkpt>
      <trkpt lat="44.79115" lon="-0.10963">
        <ele>76.6</ele>
        <time>2022-10-06T11:30:49Z</time>
      </trkpt>
      <trkpt lat="44.79115" lon="-0.10964">
        <ele>76.7</ele>
        <time>2022-10-06T11:30:50Z</time>
      </trkpt>
      <trkpt lat="44.79115" lon="-0.10965">
        <ele>76.7</ele>
        <time>2022-10-06T11:30:51Z</time>
      </trkpt>
      <trkpt lat="44.79115" lon="-0.10966">
        <ele>76.7</ele>
        <time>2022-10-06T11:30:52Z</time>
      </trkpt>
      <trkpt lat="44.79115" lon="-0.10968">
        <ele>76.7</ele>
        <time>2022-10-06T11:30:53Z</time>
      </trkpt>
      <trkpt lat="44.79115" lon="-0.10968">
        <ele>76.8</ele>
        <time>2022-10-06T11:30:54Z</time>
      </trkpt>
      <trkpt lat="44.79115" lon="-0.10969">
        <ele>76.8</ele>
        <time>2022-10-06T11:30:55Z</time>
      </trkpt>
      <trkpt lat="44.79115" lon="-0.10971">
        <ele>76.9</ele>
        <time>2022-10-06T11:30:56Z</time>
      </trkpt>
      <trkpt lat="44.79115" lon="-0.10972">
        <ele>76.9</ele>
        <time>2022-10-06T11:30:57Z</time>
      </trkpt>
      <trkpt lat="44.79115" lon="-0.10973">
        <ele>76.9</ele>
        <time>2022-10-06T11:30:58Z</time>
      </trkpt>
      <trkpt lat="44.79115" lon="-0.10975">
        <ele>77</ele>
        <time>2022-10-06T11:30:59Z</time>
      </trkpt>
      <trkpt lat="44.79115" lon="-0.10976">
        <ele>77</ele>
        <time>2022-10-06T11:31:00Z</time>
      </trkpt>
      <trkpt lat="44.79115" lon="-0.10979">
        <ele>77.1</ele>
        <time>2022-10-06T11:31:01Z</time>
      </trkpt>
      <trkpt lat="44.79115" lon="-0.1098">
        <ele>77.1</ele>
        <time>2022-10-06T11:31:02Z</time>
      </trkpt>
      <trkpt lat="44.79115" lon="-0.10981">
        <ele>77.1</ele>
        <time>2022-10-06T11:31:03Z</time>
      </trkpt>
      <trkpt lat="44.79115" lon="-0.10984">
        <ele>77.2</ele>
        <time>2022-10-06T11:31:04Z</time>
      </trkpt>
      <trkpt lat="44.79115" lon="-0.10985">
        <ele>77.3</ele>
        <time>2022-10-06T11:31:05Z</time>
      </trkpt>
      <trkpt lat="44.79115" lon="-0.10986">
        <ele>77.3</ele>
        <time>2022-10-06T11:31:06Z</time>
      </trkpt>
      <trkpt lat="44.79115" lon="-0.10988">
        <ele>77.3</ele>
        <time>2022-10-06T11:31:07Z</time>
      </trkpt>
      <trkpt lat="44.79115" lon="-0.10989">
        <ele>77.4</ele>
        <time>2022-10-06T11:31:08Z</time>
      </trkpt>
      <trkpt lat="44.79115" lon="-0.1099">
        <ele>77.4</ele>
        <time>2022-10-06T11:31:09Z</time>
      </trkpt>
      <trkpt lat="44.79115" lon="-0.10992">
        <ele>77.5</ele>
        <time>2022-10-06T11:31:10Z</time>
      </trkpt>
      <trkpt lat="44.79116" lon="-0.10994">
        <ele>77.6</ele>
        <time>2022-10-06T11:31:11Z</time>
      </trkpt>
      <trkpt lat="44.79116" lon="-0.10995">
        <ele>77.6</ele>
        <time>2022-10-06T11:31:12Z</time>
      </trkpt>
      <trkpt lat="44.79116" lon="-0.10997">
        <ele>77.7</ele>
        <time>2022-10-06T11:31:13Z</time>
      </trkpt>
      <trkpt lat="44.79116" lon="-0.10998">
        <ele>77.7</ele>
        <time>2022-10-06T11:31:14Z</time>
      </trkpt>
      <trkpt lat="44.79116" lon="-0.10999">
        <ele>77.7</ele>
        <time>2022-10-06T11:31:15Z</time>
      </trkpt>
      <trkpt lat="44.79116" lon="-0.11001">
        <ele>77.8</ele>
        <time>2022-10-06T11:31:16Z</time>
      </trkpt>
      <trkpt lat="44.79116" lon="-0.11002">
        <ele>77.9</ele>
        <time>2022-10-06T11:31:17Z</time>
      </trkpt>
      <trkpt lat="44.79116" lon="-0.11004">
        <ele>77.9</ele>
        <time>2022-10-06T11:31:18Z</time>
      </trkpt>
      <trkpt lat="44.79116" lon="-0.11007">
        <ele>78</ele>
        <time>2022-10-06T11:31:19Z</time>
      </trkpt>
      <trkpt lat="44.79117" lon="-0.11008">
        <ele>78</ele>
        <time>2022-10-06T11:31:20Z</time>
      </trkpt>
      <trkpt lat="44.79117" lon="-0.11009">
        <ele>78.1</ele>
        <time>2022-10-06T11:31:21Z</time>
      </trkpt>
      <trkpt lat="44.79117" lon="-0.1101">
        <ele>78.1</ele>
        <time>2022-10-06T11:31:22Z</time>
      </trkpt>
      <trkpt lat="44.79117" lon="-0.11012">
        <ele>78.2</ele>
        <time>2022-10-06T11:31:23Z</time>
      </trkpt>
      <trkpt lat="44.79117" lon="-0.11013">
        <ele>78.2</ele>
        <time>2022-10-06T11:31:24Z</time>
      </trkpt>
      <trkpt lat="44.79117" lon="-0.11015">
        <ele>78.3</ele>
        <time>2022-10-06T11:31:25Z</time>
      </trkpt>
      <trkpt lat="44.79118" lon="-0.11017">
        <ele>78.4</ele>
        <time>2022-10-06T11:31:26Z</time>
      </trkpt>
      <trkpt lat="44.79118" lon="-0.11018">
        <ele>78.4</ele>
        <time>2022-10-06T11:31:27Z</time>
      </trkpt>
      <trkpt lat="44.79118" lon="-0.1102">
        <ele>78.4</ele>
        <time>2022-10-06T11:31:28Z</time>
      </trkpt>
      <trkpt lat="44.79118" lon="-0.11022">
        <ele>78.5</ele>
        <time>2022-10-06T11:31:29Z</time>
      </trkpt>
      <trkpt lat="44.79118" lon="-0.11023">
        <ele>78.6</ele>
        <time>2022-10-06T11:31:30Z</time>
      </trkpt>
      <trkpt lat="44.79119" lon="-0.11026">
        <ele>78.6</ele>
        <time>2022-10-06T11:31:31Z</time>
      </trkpt>
      <trkpt lat="44.79119" lon="-0.11027">
        <ele>78.7</ele>
        <time>2022-10-06T11:31:32Z</time>
      </trkpt>
      <trkpt lat="44.79119" lon="-0.11028">
        <ele>78.7</ele>
        <time>2022-10-06T11:31:33Z</time>
      </trkpt>
      <trkpt lat="44.79119" lon="-0.1103">
        <ele>78.8</ele>
        <time>2022-10-06T11:31:34Z</time>
      </trkpt>
      <trkpt lat="44.7912" lon="-0.11033">
        <ele>78.9</ele>
        <time>2022-10-06T11:31:35Z</time>
      </trkpt>
      <trkpt lat="44.7912" lon="-0.11034">
        <ele>78.9</ele>
        <time>2022-10-06T11:31:36Z</time>
      </trkpt>
      <trkpt lat="44.7912" lon="-0.11035">
        <ele>78.9</ele>
        <time>2022-10-06T11:31:37Z</time>
      </trkpt>
      <trkpt lat="44.7912" lon="-0.11037">
        <ele>79</ele>
        <time>2022-10-06T11:31:38Z</time>
      </trkpt>
      <trkpt lat="44.79121" lon="-0.11038">
        <ele>79</ele>
        <time>2022-10-06T11:31:39Z</time>
      </trkpt>
      <trkpt lat="44.79121" lon="-0.1104">
        <ele>79.1</ele>
        <time>2022-10-06T11:31:40Z</time>
      </trkpt>
      <trkpt lat="44.79121" lon="-0.11042">
        <ele>79.1</ele>
        <time>2022-10-06T11:31:41Z</time>
      </trkpt>
      <trkpt lat="44.79121" lon="-0.11044">
        <ele>79.2</ele>
        <time>2022-10-06T11:31:42Z</time>
      </trkpt>
      <trkpt lat="44.79121" lon="-0.11047">
        <ele>79.3</ele>
        <time>2022-10-06T11:31:43Z</time>
      </trkpt>
      <trkpt lat="44.79121" lon="-0.11048">
        <ele>79.3</ele>
        <time>2022-10-06T11:31:44Z</time>
      </trkpt>
      <trkpt lat="44.79121" lon="-0.11049">
        <ele>79.3</ele>
        <time>2022-10-06T11:31:45Z</time>
      </trkpt>
      <trkpt lat="44.79122" lon="-0.11053">
        <ele>79.4</ele>
        <time>2022-10-06T11:31:46Z</time>
      </trkpt>
      <trkpt lat="44.79122" lon="-0.11053">
        <ele>79.5</ele>
        <time>2022-10-06T11:31:47Z</time>
      </trkpt>
      <trkpt lat="44.79122" lon="-0.11054">
        <ele>79.5</ele>
        <time>2022-10-06T11:31:48Z</time>
      </trkpt>
      <trkpt lat="44.79123" lon="-0.11057">
        <ele>79.6</ele>
        <time>2022-10-06T11:31:49Z</time>
      </trkpt>
      <trkpt lat="44.79123" lon="-0.11058">
        <ele>79.6</ele>
        <time>2022-10-06T11:31:50Z</time>
      </trkpt>
      <trkpt lat="44.79123" lon="-0.1106">
        <ele>79.6</ele>
        <time>2022-10-06T11:31:51Z</time>
      </trkpt>
      <trkpt lat="44.79123" lon="-0.11061">
        <ele>79.7</ele>
        <time>2022-10-06T11:31:52Z</time>
      </trkpt>
      <trkpt lat="44.79123" lon="-0.11062">
        <ele>79.7</ele>
        <time>2022-10-06T11:31:53Z</time>
      </trkpt>
      <trkpt lat="44.79124" lon="-0.11063">
        <ele>79.8</ele>
        <time>2022-10-06T11:31:54Z</time>
      </trkpt>
      <trkpt lat="44.79124" lon="-0.11065">
        <ele>79.8</ele>
        <time>2022-10-06T11:31:55Z</time>
      </trkpt>
      <trkpt lat="44.79124" lon="-0.11067">
        <ele>79.9</ele>
        <time>2022-10-06T11:31:56Z</time>
      </trkpt>
      <trkpt lat="44.79124" lon="-0.11068">
        <ele>79.9</ele>
        <time>2022-10-06T11:31:57Z</time>
      </trkpt>
      <trkpt lat="44.79124" lon="-0.1107">
        <ele>79.9</ele>
        <time>2022-10-06T11:31:58Z</time>
      </trkpt>
      <trkpt lat="44.79124" lon="-0.11071">
        <ele>80</ele>
        <time>2022-10-06T11:31:59Z</time>
      </trkpt>
      <trkpt lat="44.79124" lon="-0.11073">
        <ele>80</ele>
        <time>2022-10-06T11:32:00Z</time>
      </trkpt>
      <trkpt lat="44.79125" lon="-0.11076">
        <ele>80.1</ele>
        <time>2022-10-06T11:32:01Z</time>
      </trkpt>
      <trkpt lat="44.79125" lon="-0.11077">
        <ele>80.1</ele>
        <time>2022-10-06T11:32:02Z</time>
      </trkpt>
      <trkpt lat="44.79125" lon="-0.11078">
        <ele>80.2</ele>
        <time>2022-10-06T11:32:03Z</time>
      </trkpt>
      <trkpt lat="44.79125" lon="-0.11081">
        <ele>80.3</ele>
        <time>2022-10-06T11:32:04Z</time>
      </trkpt>
      <trkpt lat="44.79125" lon="-0.11083">
        <ele>80.3</ele>
        <time>2022-10-06T11:32:05Z</time>
      </trkpt>
      <trkpt lat="44.79125" lon="-0.11084">
        <ele>80.3</ele>
        <time>2022-10-06T11:32:06Z</time>
      </trkpt>
      <trkpt lat="44.79126" lon="-0.11085">
        <ele>80.4</ele>
        <time>2022-10-06T11:32:07Z</time>
      </trkpt>
      <trkpt lat="44.79126" lon="-0.11087">
        <ele>80.4</ele>
        <time>2022-10-06T11:32:08Z</time>
      </trkpt>
      <trkpt lat="44.79126" lon="-0.11088">
        <ele>80.4</ele>
        <time>2022-10-06T11:32:09Z</time>
      </trkpt>
      <trkpt lat="44.79127" lon="-0.1109">
        <ele>80.5</ele>
        <time>2022-10-06T11:32:10Z</time>
      </trkpt>
      <trkpt lat="44.79127" lon="-0.11092">
        <ele>80.6</ele>
        <time>2022-10-06T11:32:11Z</time>
      </trkpt>
      <trkpt lat="44.79127" lon="-0.11093">
        <ele>80.6</ele>
        <time>2022-10-06T11:32:12Z</time>
      </trkpt>
      <trkpt lat="44.79128" lon="-0.11094">
        <ele>80.6</ele>
        <time>2022-10-06T11:32:13Z</time>
      </trkpt>
      <trkpt lat="44.79128" lon="-0.11096">
        <ele>80.7</ele>
        <time>2022-10-06T11:32:14Z</time>
      </trkpt>
      <trkpt lat="44.79128" lon="-0.11097">
        <ele>80.7</ele>
        <time>2022-10-06T11:32:15Z</time>
      </trkpt>
      <trkpt lat="44.79129" lon="-0.111">
        <ele>80.8</ele>
        <time>2022-10-06T11:32:16Z</time>
      </trkpt>
      <trkpt lat="44.79129" lon="-0.11101">
        <ele>80.8</ele>
        <time>2022-10-06T11:32:17Z</time>
      </trkpt>
      <trkpt lat="44.7913" lon="-0.11103">
        <ele>80.8</ele>
        <time>2022-10-06T11:32:18Z</time>
      </trkpt>
      <trkpt lat="44.7913" lon="-0.11104">
        <ele>80.9</ele>
        <time>2022-10-06T11:32:19Z</time>
      </trkpt>
      <trkpt lat="44.79131" lon="-0.11105">
        <ele>80.9</ele>
        <time>2022-10-06T11:32:20Z</time>
      </trkpt>
      <trkpt lat="44.79131" lon="-0.11108">
        <ele>80.9</ele>
        <time>2022-10-06T11:32:21Z</time>
      </trkpt>
      <trkpt lat="44.79132" lon="-0.11109">
        <ele>81</ele>
        <time>2022-10-06T11:32:22Z</time>
      </trkpt>
      <trkpt lat="44.79132" lon="-0.1111">
        <ele>81</ele>
        <time>2022-10-06T11:32:23Z</time>
      </trkpt>
      <trkpt lat="44.79132" lon="-0.11112">
        <ele>81</ele>
        <time>2022-10-06T11:32:24Z</time>
      </trkpt>
      <trkpt lat="44.79133" lon="-0.11114">
        <ele>81.1</ele>
        <time>2022-10-06T11:32:25Z</time>
      </trkpt>
      <trkpt lat="44.79133" lon="-0.11115">
        <ele>81.1</ele>
        <time>2022-10-06T11:32:26Z</time>
      </trkpt>
      <trkpt lat="44.79133" lon="-0.11116">
        <ele>81.1</ele>
        <time>2022-10-06T11:32:27Z</time>
      </trkpt>
      <trkpt lat="44.79133" lon="-0.11117">
        <ele>81.1</ele>
        <time>2022-10-06T11:32:28Z</time>
      </trkpt>
      <trkpt lat="44.79134" lon="-0.11119">
        <ele>81.2</ele>
        <time>2022-10-06T11:32:29Z</time>
      </trkpt>
      <trkpt lat="44.79134" lon="-0.11121">
        <ele>81.2</ele>
        <time>2022-10-06T11:32:30Z</time>
      </trkpt>
      <trkpt lat="44.79135" lon="-0.11123">
        <ele>81.2</ele>
        <time>2022-10-06T11:32:31Z</time>
      </trkpt>
      <trkpt lat="44.79135" lon="-0.11125">
        <ele>81.3</ele>
        <time>2022-10-06T11:32:32Z</time>
      </trkpt>
      <trkpt lat="44.79135" lon="-0.11126">
        <ele>81.3</ele>
        <time>2022-10-06T11:32:33Z</time>
      </trkpt>
      <trkpt lat="44.79135" lon="-0.11128">
        <ele>81.3</ele>
        <time>2022-10-06T11:32:34Z</time>
      </trkpt>
      <trkpt lat="44.79136" lon="-0.1113">
        <ele>81.3</ele>
        <time>2022-10-06T11:32:35Z</time>
      </trkpt>
      <trkpt lat="44.79136" lon="-0.11133">
        <ele>81.4</ele>
        <time>2022-10-06T11:32:36Z</time>
      </trkpt>
      <trkpt lat="44.79136" lon="-0.11133">
        <ele>81.4</ele>
        <time>2022-10-06T11:32:37Z</time>
      </trkpt>
      <trkpt lat="44.79137" lon="-0.11135">
        <ele>81.4</ele>
        <time>2022-10-06T11:32:38Z</time>
      </trkpt>
      <trkpt lat="44.79137" lon="-0.11136">
        <ele>81.4</ele>
        <time>2022-10-06T11:32:39Z</time>
      </trkpt>
      <trkpt lat="44.79137" lon="-0.11138">
        <ele>81.4</ele>
        <time>2022-10-06T11:32:40Z</time>
      </trkpt>
      <trkpt lat="44.79138" lon="-0.1114">
        <ele>81.4</ele>
        <time>2022-10-06T11:32:41Z</time>
      </trkpt>
      <trkpt lat="44.79138" lon="-0.11141">
        <ele>81.5</ele>
        <time>2022-10-06T11:32:42Z</time>
      </trkpt>
      <trkpt lat="44.79138" lon="-0.11143">
        <ele>81.5</ele>
        <time>2022-10-06T11:32:43Z</time>
      </trkpt>
      <trkpt lat="44.79139" lon="-0.11145">
        <ele>81.5</ele>
        <time>2022-10-06T11:32:44Z</time>
      </trkpt>
      <trkpt lat="44.79139" lon="-0.11147">
        <ele>81.5</ele>
        <time>2022-10-06T11:32:45Z</time>
      </trkpt>
      <trkpt lat="44.7914" lon="-0.11148">
        <ele>81.5</ele>
        <time>2022-10-06T11:32:46Z</time>
      </trkpt>
      <trkpt lat="44.7914" lon="-0.1115">
        <ele>81.5</ele>
        <time>2022-10-06T11:32:47Z</time>
      </trkpt>
      <trkpt lat="44.7914" lon="-0.11151">
        <ele>81.5</ele>
        <time>2022-10-06T11:32:48Z</time>
      </trkpt>
      <trkpt lat="44.79141" lon="-0.11154">
        <ele>81.5</ele>
        <time>2022-10-06T11:32:49Z</time>
      </trkpt>
      <trkpt lat="44.79141" lon="-0.11156">
        <ele>81.5</ele>
        <time>2022-10-06T11:32:50Z</time>
      </trkpt>
      <trkpt lat="44.79142" lon="-0.11157">
        <ele>81.5</ele>
        <time>2022-10-06T11:32:51Z</time>
      </trkpt>
      <trkpt lat="44.79142" lon="-0.11158">
        <ele>81.5</ele>
        <time>2022-10-06T11:32:52Z</time>
      </trkpt>
      <trkpt lat="44.79143" lon="-0.1116">
        <ele>81.5</ele>
        <time>2022-10-06T11:32:53Z</time>
      </trkpt>
      <trkpt lat="44.79143" lon="-0.11161">
        <ele>81.5</ele>
        <time>2022-10-06T11:32:54Z</time>
      </trkpt>
      <trkpt lat="44.79144" lon="-0.11163">
        <ele>81.5</ele>
        <time>2022-10-06T11:32:55Z</time>
      </trkpt>
      <trkpt lat="44.79144" lon="-0.11166">
        <ele>81.5</ele>
        <time>2022-10-06T11:32:56Z</time>
      </trkpt>
      <trkpt lat="44.79144" lon="-0.11167">
        <ele>81.5</ele>
        <time>2022-10-06T11:32:57Z</time>
      </trkpt>
      <trkpt lat="44.79145" lon="-0.11168">
        <ele>81.4</ele>
        <time>2022-10-06T11:32:58Z</time>
      </trkpt>
      <trkpt lat="44.79145" lon="-0.1117">
        <ele>81.4</ele>
        <time>2022-10-06T11:32:59Z</time>
      </trkpt>
      <trkpt lat="44.79146" lon="-0.11171">
        <ele>81.4</ele>
        <time>2022-10-06T11:33:00Z</time>
      </trkpt>
      <trkpt lat="44.79147" lon="-0.11174">
        <ele>81.4</ele>
        <time>2022-10-06T11:33:01Z</time>
      </trkpt>
      <trkpt lat="44.79147" lon="-0.11176">
        <ele>81.4</ele>
        <time>2022-10-06T11:33:02Z</time>
      </trkpt>
      <trkpt lat="44.79148" lon="-0.11177">
        <ele>81.4</ele>
        <time>2022-10-06T11:33:03Z</time>
      </trkpt>
      <trkpt lat="44.79148" lon="-0.11178">
        <ele>81.3</ele>
        <time>2022-10-06T11:33:04Z</time>
      </trkpt>
      <trkpt lat="44.79148" lon="-0.11179">
        <ele>81.3</ele>
        <time>2022-10-06T11:33:05Z</time>
      </trkpt>
      <trkpt lat="44.79149" lon="-0.11182">
        <ele>81.3</ele>
        <time>2022-10-06T11:33:06Z</time>
      </trkpt>
      <trkpt lat="44.79149" lon="-0.11183">
        <ele>81.3</ele>
        <time>2022-10-06T11:33:07Z</time>
      </trkpt>
      <trkpt lat="44.7915" lon="-0.11184">
        <ele>81.3</ele>
        <time>2022-10-06T11:33:08Z</time>
      </trkpt>
      <trkpt lat="44.79151" lon="-0.11187">
        <ele>81.2</ele>
        <time>2022-10-06T11:33:09Z</time>
      </trkpt>
      <trkpt lat="44.79151" lon="-0.11188">
        <ele>81.2</ele>
        <time>2022-10-06T11:33:10Z</time>
      </trkpt>
      <trkpt lat="44.79152" lon="-0.11189">
        <ele>81.2</ele>
        <time>2022-10-06T11:33:11Z</time>
      </trkpt>
      <trkpt lat="44.79152" lon="-0.11191">
        <ele>81.2</ele>
        <time>2022-10-06T11:33:12Z</time>
      </trkpt>
      <trkpt lat="44.79152" lon="-0.11192">
        <ele>81.2</ele>
        <time>2022-10-06T11:33:13Z</time>
      </trkpt>
      <trkpt lat="44.79153" lon="-0.11194">
        <ele>81.1</ele>
        <time>2022-10-06T11:33:14Z</time>
      </trkpt>
      <trkpt lat="44.79154" lon="-0.11195">
        <ele>81.1</ele>
        <time>2022-10-06T11:33:15Z</time>
      </trkpt>
      <trkpt lat="44.79155" lon="-0.11198">
        <ele>81.1</ele>
        <time>2022-10-06T11:33:16Z</time>
      </trkpt>
      <trkpt lat="44.79155" lon="-0.11199">
        <ele>81</ele>
        <time>2022-10-06T11:33:17Z</time>
      </trkpt>
      <trkpt lat="44.79155" lon="-0.112">
        <ele>81</ele>
        <time>2022-10-06T11:33:18Z</time>
      </trkpt>
      <trkpt lat="44.79156" lon="-0.11201">
        <ele>81</ele>
        <time>2022-10-06T11:33:19Z</time>
      </trkpt>
      <trkpt lat="44.79156" lon="-0.11203">
        <ele>81</ele>
        <time>2022-10-06T11:33:20Z</time>
      </trkpt>
      <trkpt lat="44.79157" lon="-0.11205">
        <ele>81</ele>
        <time>2022-10-06T11:33:21Z</time>
      </trkpt>
      <trkpt lat="44.79158" lon="-0.11206">
        <ele>80.9</ele>
        <time>2022-10-06T11:33:22Z</time>
      </trkpt>
      <trkpt lat="44.79158" lon="-0.11208">
        <ele>80.9</ele>
        <time>2022-10-06T11:33:23Z</time>
      </trkpt>
      <trkpt lat="44.79158" lon="-0.11209">
        <ele>80.9</ele>
        <time>2022-10-06T11:33:24Z</time>
      </trkpt>
      <trkpt lat="44.79159" lon="-0.11211">
        <ele>80.9</ele>
        <time>2022-10-06T11:33:25Z</time>
      </trkpt>
      <trkpt lat="44.7916" lon="-0.11214">
        <ele>80.8</ele>
        <time>2022-10-06T11:33:26Z</time>
      </trkpt>
      <trkpt lat="44.7916" lon="-0.11215">
        <ele>80.8</ele>
        <time>2022-10-06T11:33:27Z</time>
      </trkpt>
      <trkpt lat="44.7916" lon="-0.11216">
        <ele>80.8</ele>
        <time>2022-10-06T11:33:28Z</time>
      </trkpt>
      <trkpt lat="44.79161" lon="-0.11218">
        <ele>80.8</ele>
        <time>2022-10-06T11:33:29Z</time>
      </trkpt>
      <trkpt lat="44.79161" lon="-0.1122">
        <ele>80.7</ele>
        <time>2022-10-06T11:33:30Z</time>
      </trkpt>
      <trkpt lat="44.79162" lon="-0.11222">
        <ele>80.7</ele>
        <time>2022-10-06T11:33:31Z</time>
      </trkpt>
      <trkpt lat="44.79162" lon="-0.11223">
        <ele>80.7</ele>
        <time>2022-10-06T11:33:32Z</time>
      </trkpt>
      <trkpt lat="44.79162" lon="-0.11225">
        <ele>80.7</ele>
        <time>2022-10-06T11:33:33Z</time>
      </trkpt>
      <trkpt lat="44.79163" lon="-0.11226">
        <ele>80.6</ele>
        <time>2022-10-06T11:33:34Z</time>
      </trkpt>
      <trkpt lat="44.79164" lon="-0.11227">
        <ele>80.6</ele>
        <time>2022-10-06T11:33:35Z</time>
      </trkpt>
      <trkpt lat="44.79165" lon="-0.1123">
        <ele>80.6</ele>
        <time>2022-10-06T11:33:36Z</time>
      </trkpt>
      <trkpt lat="44.79165" lon="-0.1123">
        <ele>80.6</ele>
        <time>2022-10-06T11:33:37Z</time>
      </trkpt>
      <trkpt lat="44.79165" lon="-0.11231">
        <ele>80.6</ele>
        <time>2022-10-06T11:33:38Z</time>
      </trkpt>
      <trkpt lat="44.79166" lon="-0.11233">
        <ele>80.5</ele>
        <time>2022-10-06T11:33:39Z</time>
      </trkpt>
      <trkpt lat="44.79166" lon="-0.11234">
        <ele>80.5</ele>
        <time>2022-10-06T11:33:40Z</time>
      </trkpt>
      <trkpt lat="44.79167" lon="-0.11236">
        <ele>80.5</ele>
        <time>2022-10-06T11:33:41Z</time>
      </trkpt>
      <trkpt lat="44.79167" lon="-0.11237">
        <ele>80.5</ele>
        <time>2022-10-06T11:33:42Z</time>
      </trkpt>
      <trkpt lat="44.79167" lon="-0.11238">
        <ele>80.5</ele>
        <time>2022-10-06T11:33:43Z</time>
      </trkpt>
      <trkpt lat="44.79167" lon="-0.11239">
        <ele>80.4</ele>
        <time>2022-10-06T11:33:44Z</time>
      </trkpt>
      <trkpt lat="44.79167" lon="-0.11241">
        <ele>80.4</ele>
        <time>2022-10-06T11:33:45Z</time>
      </trkpt>
      <trkpt lat="44.79167" lon="-0.11242">
        <ele>80.4</ele>
        <time>2022-10-06T11:33:46Z</time>
      </trkpt>
      <trkpt lat="44.79167" lon="-0.11244">
        <ele>80.4</ele>
        <time>2022-10-06T11:33:47Z</time>
      </trkpt>
      <trkpt lat="44.79167" lon="-0.11245">
        <ele>80.4</ele>
        <time>2022-10-06T11:33:48Z</time>
      </trkpt>
      <trkpt lat="44.79168" lon="-0.11246">
        <ele>80.4</ele>
        <time>2022-10-06T11:33:49Z</time>
      </trkpt>
      <trkpt lat="44.79168" lon="-0.11247">
        <ele>80.3</ele>
        <time>2022-10-06T11:33:50Z</time>
      </trkpt>
      <trkpt lat="44.79169" lon="-0.11248">
        <ele>80.3</ele>
        <time>2022-10-06T11:33:51Z</time>
      </trkpt>
      <trkpt lat="44.79169" lon="-0.11249">
        <ele>80.3</ele>
        <time>2022-10-06T11:33:52Z</time>
      </trkpt>
      <trkpt lat="44.7917" lon="-0.11251">
        <ele>80.3</ele>
        <time>2022-10-06T11:33:53Z</time>
      </trkpt>
      <trkpt lat="44.7917" lon="-0.11253">
        <ele>80.3</ele>
        <time>2022-10-06T11:33:54Z</time>
      </trkpt>
      <trkpt lat="44.79171" lon="-0.11254">
        <ele>80.2</ele>
        <time>2022-10-06T11:33:55Z</time>
      </trkpt>
      <trkpt lat="44.79171" lon="-0.11255">
        <ele>80.2</ele>
        <time>2022-10-06T11:33:56Z</time>
      </trkpt>
      <trkpt lat="44.79171" lon="-0.11257">
        <ele>80.2</ele>
        <time>2022-10-06T11:33:57Z</time>
      </trkpt>
      <trkpt lat="44.79172" lon="-0.11258">
        <ele>80.2</ele>
        <time>2022-10-06T11:33:58Z</time>
      </trkpt>
      <trkpt lat="44.79172" lon="-0.11259">
        <ele>80.2</ele>
        <time>2022-10-06T11:33:59Z</time>
      </trkpt>
      <trkpt lat="44.79173" lon="-0.11261">
        <ele>80.2</ele>
        <time>2022-10-06T11:34:00Z</time>
      </trkpt>
      <trkpt lat="44.79173" lon="-0.11263">
        <ele>80.1</ele>
        <time>2022-10-06T11:34:01Z</time>
      </trkpt>
      <trkpt lat="44.79174" lon="-0.11264">
        <ele>80.1</ele>
        <time>2022-10-06T11:34:02Z</time>
      </trkpt>
      <trkpt lat="44.79174" lon="-0.11266">
        <ele>80.1</ele>
        <time>2022-10-06T11:34:03Z</time>
      </trkpt>
      <trkpt lat="44.79174" lon="-0.11267">
        <ele>80.1</ele>
        <time>2022-10-06T11:34:04Z</time>
      </trkpt>
      <trkpt lat="44.79175" lon="-0.11269">
        <ele>80.1</ele>
        <time>2022-10-06T11:34:05Z</time>
      </trkpt>
      <trkpt lat="44.79175" lon="-0.11272">
        <ele>80.1</ele>
        <time>2022-10-06T11:34:06Z</time>
      </trkpt>
      <trkpt lat="44.79176" lon="-0.11273">
        <ele>80.1</ele>
        <time>2022-10-06T11:34:07Z</time>
      </trkpt>
      <trkpt lat="44.79176" lon="-0.11274">
        <ele>80</ele>
        <time>2022-10-06T11:34:08Z</time>
      </trkpt>
      <trkpt lat="44.79176" lon="-0.11275">
        <ele>80</ele>
        <time>2022-10-06T11:34:09Z</time>
      </trkpt>
      <trkpt lat="44.79177" lon="-0.11279">
        <ele>80</ele>
        <time>2022-10-06T11:34:10Z</time>
      </trkpt>
      <trkpt lat="44.79178" lon="-0.1128">
        <ele>80</ele>
        <time>2022-10-06T11:34:11Z</time>
      </trkpt>
      <trkpt lat="44.79178" lon="-0.11281">
        <ele>80</ele>
        <time>2022-10-06T11:34:12Z</time>
      </trkpt>
      <trkpt lat="44.79178" lon="-0.11283">
        <ele>80</ele>
        <time>2022-10-06T11:34:13Z</time>
      </trkpt>
      <trkpt lat="44.79179" lon="-0.11284">
        <ele>80</ele>
        <time>2022-10-06T11:34:14Z</time>
      </trkpt>
      <trkpt lat="44.7918" lon="-0.11286">
        <ele>79.9</ele>
        <time>2022-10-06T11:34:15Z</time>
      </trkpt>
      <trkpt lat="44.7918" lon="-0.11289">
        <ele>79.9</ele>
        <time>2022-10-06T11:34:16Z</time>
      </trkpt>
      <trkpt lat="44.79181" lon="-0.1129">
        <ele>79.9</ele>
        <time>2022-10-06T11:34:17Z</time>
      </trkpt>
      <trkpt lat="44.79181" lon="-0.11292">
        <ele>79.9</ele>
        <time>2022-10-06T11:34:18Z</time>
      </trkpt>
      <trkpt lat="44.79182" lon="-0.11293">
        <ele>79.9</ele>
        <time>2022-10-06T11:34:19Z</time>
      </trkpt>
      <trkpt lat="44.79182" lon="-0.11294">
        <ele>79.9</ele>
        <time>2022-10-06T11:34:20Z</time>
      </trkpt>
      <trkpt lat="44.79183" lon="-0.11296">
        <ele>79.9</ele>
        <time>2022-10-06T11:34:21Z</time>
      </trkpt>
      <trkpt lat="44.79183" lon="-0.11297">
        <ele>79.9</ele>
        <time>2022-10-06T11:34:22Z</time>
      </trkpt>
      <trkpt lat="44.79184" lon="-0.113">
        <ele>79.9</ele>
        <time>2022-10-06T11:34:23Z</time>
      </trkpt>
      <trkpt lat="44.79184" lon="-0.11301">
        <ele>79.8</ele>
        <time>2022-10-06T11:34:24Z</time>
      </trkpt>
      <trkpt lat="44.79185" lon="-0.11302">
        <ele>79.8</ele>
        <time>2022-10-06T11:34:25Z</time>
      </trkpt>
      <trkpt lat="44.79185" lon="-0.11305">
        <ele>79.8</ele>
        <time>2022-10-06T11:34:26Z</time>
      </trkpt>
      <trkpt lat="44.79185" lon="-0.11306">
        <ele>79.8</ele>
        <time>2022-10-06T11:34:27Z</time>
      </trkpt>
      <trkpt lat="44.79186" lon="-0.11307">
        <ele>79.8</ele>
        <time>2022-10-06T11:34:28Z</time>
      </trkpt>
      <trkpt lat="44.79186" lon="-0.11309">
        <ele>79.8</ele>
        <time>2022-10-06T11:34:29Z</time>
      </trkpt>
      <trkpt lat="44.79187" lon="-0.1131">
        <ele>79.8</ele>
        <time>2022-10-06T11:34:30Z</time>
      </trkpt>
      <trkpt lat="44.79187" lon="-0.11313">
        <ele>79.8</ele>
        <time>2022-10-06T11:34:31Z</time>
      </trkpt>
      <trkpt lat="44.79187" lon="-0.11314">
        <ele>79.8</ele>
        <time>2022-10-06T11:34:32Z</time>
      </trkpt>
      <trkpt lat="44.79188" lon="-0.11315">
        <ele>79.8</ele>
        <time>2022-10-06T11:34:33Z</time>
      </trkpt>
      <trkpt lat="44.79188" lon="-0.11318">
        <ele>79.7</ele>
        <time>2022-10-06T11:34:34Z</time>
      </trkpt>
      <trkpt lat="44.79188" lon="-0.1132">
        <ele>79.7</ele>
        <time>2022-10-06T11:34:35Z</time>
      </trkpt>
      <trkpt lat="44.79188" lon="-0.11322">
        <ele>79.7</ele>
        <time>2022-10-06T11:34:36Z</time>
      </trkpt>
      <trkpt lat="44.79189" lon="-0.11322">
        <ele>79.7</ele>
        <time>2022-10-06T11:34:37Z</time>
      </trkpt>
      <trkpt lat="44.79189" lon="-0.11324">
        <ele>79.7</ele>
        <time>2022-10-06T11:34:38Z</time>
      </trkpt>
      <trkpt lat="44.79189" lon="-0.11326">
        <ele>79.7</ele>
        <time>2022-10-06T11:34:39Z</time>
      </trkpt>
      <trkpt lat="44.7919" lon="-0.11327">
        <ele>79.7</ele>
        <time>2022-10-06T11:34:40Z</time>
      </trkpt>
      <trkpt lat="44.7919" lon="-0.1133">
        <ele>79.7</ele>
        <time>2022-10-06T11:34:41Z</time>
      </trkpt>
      <trkpt lat="44.79191" lon="-0.1133">
        <ele>79.7</ele>
        <time>2022-10-06T11:34:42Z</time>
      </trkpt>
      <trkpt lat="44.79191" lon="-0.11332">
        <ele>79.7</ele>
        <time>2022-10-06T11:34:43Z</time>
      </trkpt>
      <trkpt lat="44.79192" lon="-0.11334">
        <ele>79.7</ele>
        <time>2022-10-06T11:34:44Z</time>
      </trkpt>
      <trkpt lat="44.79192" lon="-0.11335">
        <ele>79.7</ele>
        <time>2022-10-06T11:34:45Z</time>
      </trkpt>
      <trkpt lat="44.79193" lon="-0.11337">
        <ele>79.6</ele>
        <time>2022-10-06T11:34:46Z</time>
      </trkpt>
      <trkpt lat="44.79194" lon="-0.11338">
        <ele>79.6</ele>
        <time>2022-10-06T11:34:47Z</time>
      </trkpt>
      <trkpt lat="44.79194" lon="-0.11339">
        <ele>79.6</ele>
        <time>2022-10-06T11:34:48Z</time>
      </trkpt>
      <trkpt lat="44.79194" lon="-0.11341">
        <ele>79.6</ele>
        <time>2022-10-06T11:34:49Z</time>
      </trkpt>
      <trkpt lat="44.79195" lon="-0.11342">
        <ele>79.6</ele>
        <time>2022-10-06T11:34:50Z</time>
      </trkpt>
      <trkpt lat="44.79195" lon="-0.11345">
        <ele>79.6</ele>
        <time>2022-10-06T11:34:51Z</time>
      </trkpt>
      <trkpt lat="44.79196" lon="-0.11345">
        <ele>79.6</ele>
        <time>2022-10-06T11:34:52Z</time>
      </trkpt>
      <trkpt lat="44.79196" lon="-0.11347">
        <ele>79.6</ele>
        <time>2022-10-06T11:34:53Z</time>
      </trkpt>
      <trkpt lat="44.79197" lon="-0.11349">
        <ele>79.6</ele>
        <time>2022-10-06T11:34:54Z</time>
      </trkpt>
      <trkpt lat="44.79197" lon="-0.1135">
        <ele>79.6</ele>
        <time>2022-10-06T11:34:55Z</time>
      </trkpt>
      <trkpt lat="44.79197" lon="-0.11352">
        <ele>79.6</ele>
        <time>2022-10-06T11:34:56Z</time>
      </trkpt>
      <trkpt lat="44.79198" lon="-0.11355">
        <ele>79.6</ele>
        <time>2022-10-06T11:34:57Z</time>
      </trkpt>
      <trkpt lat="44.79198" lon="-0.11356">
        <ele>79.6</ele>
        <time>2022-10-06T11:34:58Z</time>
      </trkpt>
      <trkpt lat="44.79198" lon="-0.11356">
        <ele>79.6</ele>
        <time>2022-10-06T11:34:59Z</time>
      </trkpt>
      <trkpt lat="44.79199" lon="-0.1136">
        <ele>79.6</ele>
        <time>2022-10-06T11:35:00Z</time>
      </trkpt>
      <trkpt lat="44.79199" lon="-0.11361">
        <ele>79.6</ele>
        <time>2022-10-06T11:35:01Z</time>
      </trkpt>
      <trkpt lat="44.792" lon="-0.11362">
        <ele>79.5</ele>
        <time>2022-10-06T11:35:02Z</time>
      </trkpt>
      <trkpt lat="44.792" lon="-0.11363">
        <ele>79.5</ele>
        <time>2022-10-06T11:35:03Z</time>
      </trkpt>
      <trkpt lat="44.792" lon="-0.11365">
        <ele>79.5</ele>
        <time>2022-10-06T11:35:04Z</time>
      </trkpt>
      <trkpt lat="44.79201" lon="-0.11366">
        <ele>79.5</ele>
        <time>2022-10-06T11:35:05Z</time>
      </trkpt>
      <trkpt lat="44.79201" lon="-0.11367">
        <ele>79.5</ele>
        <time>2022-10-06T11:35:06Z</time>
      </trkpt>
      <trkpt lat="44.79202" lon="-0.11369">
        <ele>79.5</ele>
        <time>2022-10-06T11:35:07Z</time>
      </trkpt>
      <trkpt lat="44.79203" lon="-0.1137">
        <ele>79.5</ele>
        <time>2022-10-06T11:35:08Z</time>
      </trkpt>
      <trkpt lat="44.79203" lon="-0.11372">
        <ele>79.5</ele>
        <time>2022-10-06T11:35:09Z</time>
      </trkpt>
      <trkpt lat="44.79203" lon="-0.11373">
        <ele>79.5</ele>
        <time>2022-10-06T11:35:10Z</time>
      </trkpt>
      <trkpt lat="44.79204" lon="-0.11375">
        <ele>79.5</ele>
        <time>2022-10-06T11:35:11Z</time>
      </trkpt>
      <trkpt lat="44.79204" lon="-0.11377">
        <ele>79.5</ele>
        <time>2022-10-06T11:35:12Z</time>
      </trkpt>
      <trkpt lat="44.79205" lon="-0.11378">
        <ele>79.5</ele>
        <time>2022-10-06T11:35:13Z</time>
      </trkpt>
      <trkpt lat="44.79206" lon="-0.11381">
        <ele>79.5</ele>
        <time>2022-10-06T11:35:14Z</time>
      </trkpt>
      <trkpt lat="44.79206" lon="-0.11382">
        <ele>79.5</ele>
        <time>2022-10-06T11:35:15Z</time>
      </trkpt>
      <trkpt lat="44.79207" lon="-0.11383">
        <ele>79.5</ele>
        <time>2022-10-06T11:35:16Z</time>
      </trkpt>
      <trkpt lat="44.79207" lon="-0.11385">
        <ele>79.5</ele>
        <time>2022-10-06T11:35:17Z</time>
      </trkpt>
      <trkpt lat="44.79208" lon="-0.11387">
        <ele>79.5</ele>
        <time>2022-10-06T11:35:18Z</time>
      </trkpt>
      <trkpt lat="44.79208" lon="-0.11388">
        <ele>79.5</ele>
        <time>2022-10-06T11:35:19Z</time>
      </trkpt>
      <trkpt lat="44.79208" lon="-0.1139">
        <ele>79.5</ele>
        <time>2022-10-06T11:35:20Z</time>
      </trkpt>
      <trkpt lat="44.79209" lon="-0.11392">
        <ele>79.5</ele>
        <time>2022-10-06T11:35:21Z</time>
      </trkpt>
      <trkpt lat="44.7921" lon="-0.11394">
        <ele>79.5</ele>
        <time>2022-10-06T11:35:22Z</time>
      </trkpt>
      <trkpt lat="44.7921" lon="-0.11395">
        <ele>79.5</ele>
        <time>2022-10-06T11:35:23Z</time>
      </trkpt>
      <trkpt lat="44.7921" lon="-0.11396">
        <ele>79.5</ele>
        <time>2022-10-06T11:35:24Z</time>
      </trkpt>
      <trkpt lat="44.79211" lon="-0.11399">
        <ele>79.5</ele>
        <time>2022-10-06T11:35:25Z</time>
      </trkpt>
      <trkpt lat="44.79211" lon="-0.114">
        <ele>79.5</ele>
        <time>2022-10-06T11:35:26Z</time>
      </trkpt>
      <trkpt lat="44.79212" lon="-0.11401">
        <ele>79.5</ele>
        <time>2022-10-06T11:35:27Z</time>
      </trkpt>
      <trkpt lat="44.79212" lon="-0.11404">
        <ele>79.6</ele>
        <time>2022-10-06T11:35:28Z</time>
      </trkpt>
      <trkpt lat="44.79213" lon="-0.11405">
        <ele>79.6</ele>
        <time>2022-10-06T11:35:29Z</time>
      </trkpt>
      <trkpt lat="44.79213" lon="-0.11406">
        <ele>79.6</ele>
        <time>2022-10-06T11:35:30Z</time>
      </trkpt>
      <trkpt lat="44.79214" lon="-0.11408">
        <ele>79.6</ele>
        <time>2022-10-06T11:35:31Z</time>
      </trkpt>
      <trkpt lat="44.79214" lon="-0.1141">
        <ele>79.6</ele>
        <time>2022-10-06T11:35:32Z</time>
      </trkpt>
      <trkpt lat="44.79214" lon="-0.11411">
        <ele>79.6</ele>
        <time>2022-10-06T11:35:33Z</time>
      </trkpt>
      <trkpt lat="44.79215" lon="-0.11414">
        <ele>79.7</ele>
        <time>2022-10-06T11:35:34Z</time>
      </trkpt>
      <trkpt lat="44.79215" lon="-0.11415">
        <ele>79.7</ele>
        <time>2022-10-06T11:35:35Z</time>
      </trkpt>
      <trkpt lat="44.79215" lon="-0.11416">
        <ele>79.7</ele>
        <time>2022-10-06T11:35:36Z</time>
      </trkpt>
      <trkpt lat="44.79216" lon="-0.11419">
        <ele>79.7</ele>
        <time>2022-10-06T11:35:37Z</time>
      </trkpt>
      <trkpt lat="44.79217" lon="-0.1142">
        <ele>79.8</ele>
        <time>2022-10-06T11:35:38Z</time>
      </trkpt>
      <trkpt lat="44.79217" lon="-0.11421">
        <ele>79.8</ele>
        <time>2022-10-06T11:35:39Z</time>
      </trkpt>
      <trkpt lat="44.79218" lon="-0.11424">
        <ele>79.8</ele>
        <time>2022-10-06T11:35:40Z</time>
      </trkpt>
      <trkpt lat="44.79218" lon="-0.11425">
        <ele>79.8</ele>
        <time>2022-10-06T11:35:41Z</time>
      </trkpt>
      <trkpt lat="44.79219" lon="-0.11426">
        <ele>79.9</ele>
        <time>2022-10-06T11:35:42Z</time>
      </trkpt>
      <trkpt lat="44.7922" lon="-0.11427">
        <ele>79.9</ele>
        <time>2022-10-06T11:35:43Z</time>
      </trkpt>
      <trkpt lat="44.7922" lon="-0.11428">
        <ele>79.9</ele>
        <time>2022-10-06T11:35:44Z</time>
      </trkpt>
      <trkpt lat="44.79221" lon="-0.1143">
        <ele>79.9</ele>
        <time>2022-10-06T11:35:45Z</time>
      </trkpt>
      <trkpt lat="44.79221" lon="-0.11432">
        <ele>79.9</ele>
        <time>2022-10-06T11:35:46Z</time>
      </trkpt>
      <trkpt lat="44.79222" lon="-0.11434">
        <ele>80</ele>
        <time>2022-10-06T11:35:47Z</time>
      </trkpt>
      <trkpt lat="44.79222" lon="-0.11435">
        <ele>80</ele>
        <time>2022-10-06T11:35:48Z</time>
      </trkpt>
      <trkpt lat="44.79223" lon="-0.11436">
        <ele>80</ele>
        <time>2022-10-06T11:35:49Z</time>
      </trkpt>
      <trkpt lat="44.79223" lon="-0.11438">
        <ele>80.1</ele>
        <time>2022-10-06T11:35:50Z</time>
      </trkpt>
      <trkpt lat="44.79224" lon="-0.1144">
        <ele>80.1</ele>
        <time>2022-10-06T11:35:51Z</time>
      </trkpt>
      <trkpt lat="44.79224" lon="-0.11441">
        <ele>80.1</ele>
        <time>2022-10-06T11:35:52Z</time>
      </trkpt>
      <trkpt lat="44.79225" lon="-0.11443">
        <ele>80.1</ele>
        <time>2022-10-06T11:35:53Z</time>
      </trkpt>
      <trkpt lat="44.79225" lon="-0.11444">
        <ele>80.2</ele>
        <time>2022-10-06T11:35:54Z</time>
      </trkpt>
      <trkpt lat="44.79226" lon="-0.11446">
        <ele>80.2</ele>
        <time>2022-10-06T11:35:55Z</time>
      </trkpt>
      <trkpt lat="44.79226" lon="-0.11448">
        <ele>80.3</ele>
        <time>2022-10-06T11:35:56Z</time>
      </trkpt>
      <trkpt lat="44.79227" lon="-0.1145">
        <ele>80.3</ele>
        <time>2022-10-06T11:35:57Z</time>
      </trkpt>
      <trkpt lat="44.79227" lon="-0.11452">
        <ele>80.3</ele>
        <time>2022-10-06T11:35:58Z</time>
      </trkpt>
      <trkpt lat="44.79228" lon="-0.11453">
        <ele>80.4</ele>
        <time>2022-10-06T11:35:59Z</time>
      </trkpt>
      <trkpt lat="44.79228" lon="-0.11455">
        <ele>80.4</ele>
        <time>2022-10-06T11:36:00Z</time>
      </trkpt>
      <trkpt lat="44.79229" lon="-0.11458">
        <ele>80.5</ele>
        <time>2022-10-06T11:36:01Z</time>
      </trkpt>
      <trkpt lat="44.79229" lon="-0.1146">
        <ele>80.5</ele>
        <time>2022-10-06T11:36:02Z</time>
      </trkpt>
      <trkpt lat="44.7923" lon="-0.11461">
        <ele>80.6</ele>
        <time>2022-10-06T11:36:03Z</time>
      </trkpt>
      <trkpt lat="44.7923" lon="-0.11463">
        <ele>80.6</ele>
        <time>2022-10-06T11:36:04Z</time>
      </trkpt>
      <trkpt lat="44.7923" lon="-0.11464">
        <ele>80.6</ele>
        <time>2022-10-06T11:36:05Z</time>
      </trkpt>
      <trkpt lat="44.7923" lon="-0.11465">
        <ele>80.6</ele>
        <time>2022-10-06T11:36:06Z</time>
      </trkpt>
      <trkpt lat="44.7923" lon="-0.11467">
        <ele>80.7</ele>
        <time>2022-10-06T11:36:07Z</time>
      </trkpt>
      <trkpt lat="44.7923" lon="-0.11468">
        <ele>80.7</ele>
        <time>2022-10-06T11:36:08Z</time>
      </trkpt>
      <trkpt lat="44.79231" lon="-0.1147">
        <ele>80.8</ele>
        <time>2022-10-06T11:36:09Z</time>
      </trkpt>
      <trkpt lat="44.79231" lon="-0.11472">
        <ele>80.8</ele>
        <time>2022-10-06T11:36:10Z</time>
      </trkpt>
      <trkpt lat="44.79232" lon="-0.11473">
        <ele>80.8</ele>
        <time>2022-10-06T11:36:11Z</time>
      </trkpt>
      <trkpt lat="44.79233" lon="-0.11475">
        <ele>80.8</ele>
        <time>2022-10-06T11:36:12Z</time>
      </trkpt>
      <trkpt lat="44.79233" lon="-0.11475">
        <ele>80.8</ele>
        <time>2022-10-06T11:36:13Z</time>
      </trkpt>
      <trkpt lat="44.79234" lon="-0.11477">
        <ele>80.8</ele>
        <time>2022-10-06T11:36:14Z</time>
      </trkpt>
      <trkpt lat="44.79234" lon="-0.11478">
        <ele>81</ele>
        <time>2022-10-06T11:36:15Z</time>
      </trkpt>
      <trkpt lat="44.79235" lon="-0.1148">
        <ele>81</ele>
        <time>2022-10-06T11:36:16Z</time>
      </trkpt>
      <trkpt lat="44.79235" lon="-0.11481">
        <ele>81</ele>
        <time>2022-10-06T11:36:17Z</time>
      </trkpt>
      <trkpt lat="44.79235" lon="-0.11482">
        <ele>81</ele>
        <time>2022-10-06T11:36:18Z</time>
      </trkpt>
      <trkpt lat="44.79236" lon="-0.11484">
        <ele>81</ele>
        <time>2022-10-06T11:36:19Z</time>
      </trkpt>
      <trkpt lat="44.79236" lon="-0.11485">
        <ele>81</ele>
        <time>2022-10-06T11:36:20Z</time>
      </trkpt>
      <trkpt lat="44.79236" lon="-0.11487">
        <ele>81</ele>
        <time>2022-10-06T11:36:21Z</time>
      </trkpt>
      <trkpt lat="44.79237" lon="-0.11489">
        <ele>81</ele>
        <time>2022-10-06T11:36:22Z</time>
      </trkpt>
      <trkpt lat="44.79236" lon="-0.1149">
        <ele>81</ele>
        <time>2022-10-06T11:36:23Z</time>
      </trkpt>
      <trkpt lat="44.79236" lon="-0.11492">
        <ele>81</ele>
        <time>2022-10-06T11:36:24Z</time>
      </trkpt>
      <trkpt lat="44.79237" lon="-0.11494">
        <ele>81</ele>
        <time>2022-10-06T11:36:25Z</time>
      </trkpt>
      <trkpt lat="44.79237" lon="-0.11497">
        <ele>81</ele>
        <time>2022-10-06T11:36:26Z</time>
      </trkpt>
      <trkpt lat="44.79237" lon="-0.11499">
        <ele>81</ele>
        <time>2022-10-06T11:36:27Z</time>
      </trkpt>
      <trkpt lat="44.79237" lon="-0.115">
        <ele>81</ele>
        <time>2022-10-06T11:36:28Z</time>
      </trkpt>
      <trkpt lat="44.79237" lon="-0.11501">
        <ele>81</ele>
        <time>2022-10-06T11:36:29Z</time>
      </trkpt>
      <trkpt lat="44.79237" lon="-0.11503">
        <ele>81</ele>
        <time>2022-10-06T11:36:30Z</time>
      </trkpt>
      <trkpt lat="44.79237" lon="-0.11505">
        <ele>81</ele>
        <time>2022-10-06T11:36:31Z</time>
      </trkpt>
      <trkpt lat="44.79237" lon="-0.11507">
        <ele>81.1</ele>
        <time>2022-10-06T11:36:32Z</time>
      </trkpt>
      <trkpt lat="44.79237" lon="-0.11509">
        <ele>81.1</ele>
        <time>2022-10-06T11:36:33Z</time>
      </trkpt>
      <trkpt lat="44.79237" lon="-0.1151">
        <ele>81.1</ele>
        <time>2022-10-06T11:36:34Z</time>
      </trkpt>
      <trkpt lat="44.79238" lon="-0.11512">
        <ele>81.1</ele>
        <time>2022-10-06T11:36:35Z</time>
      </trkpt>
      <trkpt lat="44.79238" lon="-0.11513">
        <ele>81.1</ele>
        <time>2022-10-06T11:36:36Z</time>
      </trkpt>
      <trkpt lat="44.79238" lon="-0.11516">
        <ele>81.1</ele>
        <time>2022-10-06T11:36:37Z</time>
      </trkpt>
      <trkpt lat="44.79238" lon="-0.11517">
        <ele>81.1</ele>
        <time>2022-10-06T11:36:38Z</time>
      </trkpt>
      <trkpt lat="44.79239" lon="-0.11519">
        <ele>81.1</ele>
        <time>2022-10-06T11:36:39Z</time>
      </trkpt>
      <trkpt lat="44.79239" lon="-0.1152">
        <ele>81.1</ele>
        <time>2022-10-06T11:36:40Z</time>
      </trkpt>
      <trkpt lat="44.79239" lon="-0.11522">
        <ele>81.1</ele>
        <time>2022-10-06T11:36:41Z</time>
      </trkpt>
      <trkpt lat="44.7924" lon="-0.11524">
        <ele>81.1</ele>
        <time>2022-10-06T11:36:42Z</time>
      </trkpt>
      <trkpt lat="44.7924" lon="-0.11526">
        <ele>81.1</ele>
        <time>2022-10-06T11:36:43Z</time>
      </trkpt>
      <trkpt lat="44.7924" lon="-0.11527">
        <ele>81.1</ele>
        <time>2022-10-06T11:36:44Z</time>
      </trkpt>
      <trkpt lat="44.7924" lon="-0.11529">
        <ele>81.1</ele>
        <time>2022-10-06T11:36:45Z</time>
      </trkpt>
      <trkpt lat="44.79241" lon="-0.1153">
        <ele>81.2</ele>
        <time>2022-10-06T11:36:46Z</time>
      </trkpt>
      <trkpt lat="44.79241" lon="-0.11533">
        <ele>81.2</ele>
        <time>2022-10-06T11:36:47Z</time>
      </trkpt>
      <trkpt lat="44.79241" lon="-0.11534">
        <ele>81.2</ele>
        <time>2022-10-06T11:36:48Z</time>
      </trkpt>
      <trkpt lat="44.79241" lon="-0.11536">
        <ele>81.2</ele>
        <time>2022-10-06T11:36:49Z</time>
      </trkpt>
      <trkpt lat="44.79242" lon="-0.11537">
        <ele>81.2</ele>
        <time>2022-10-06T11:36:50Z</time>
      </trkpt>
      <trkpt lat="44.79242" lon="-0.11539">
        <ele>81.2</ele>
        <time>2022-10-06T11:36:51Z</time>
      </trkpt>
      <trkpt lat="44.79243" lon="-0.11541">
        <ele>81.2</ele>
        <time>2022-10-06T11:36:52Z</time>
      </trkpt>
      <trkpt lat="44.79243" lon="-0.11543">
        <ele>81.2</ele>
        <time>2022-10-06T11:36:53Z</time>
      </trkpt>
      <trkpt lat="44.79243" lon="-0.11544">
        <ele>81.2</ele>
        <time>2022-10-06T11:36:54Z</time>
      </trkpt>
      <trkpt lat="44.79243" lon="-0.11546">
        <ele>81.2</ele>
        <time>2022-10-06T11:36:55Z</time>
      </trkpt>
      <trkpt lat="44.79243" lon="-0.11548">
        <ele>81.3</ele>
        <time>2022-10-06T11:36:56Z</time>
      </trkpt>
      <trkpt lat="44.79244" lon="-0.1155">
        <ele>81.3</ele>
        <time>2022-10-06T11:36:57Z</time>
      </trkpt>
      <trkpt lat="44.79244" lon="-0.11551">
        <ele>81.3</ele>
        <time>2022-10-06T11:36:58Z</time>
      </trkpt>
      <trkpt lat="44.79244" lon="-0.11553">
        <ele>81.3</ele>
        <time>2022-10-06T11:36:59Z</time>
      </trkpt>
      <trkpt lat="44.79244" lon="-0.11554">
        <ele>81.3</ele>
        <time>2022-10-06T11:37:00Z</time>
      </trkpt>
      <trkpt lat="44.79245" lon="-0.11556">
        <ele>81.3</ele>
        <time>2022-10-06T11:37:01Z</time>
      </trkpt>
      <trkpt lat="44.79245" lon="-0.11558">
        <ele>81.3</ele>
        <time>2022-10-06T11:37:02Z</time>
      </trkpt>
      <trkpt lat="44.79245" lon="-0.11559">
        <ele>81.3</ele>
        <time>2022-10-06T11:37:03Z</time>
      </trkpt>
      <trkpt lat="44.79246" lon="-0.1156">
        <ele>81.3</ele>
        <time>2022-10-06T11:37:04Z</time>
      </trkpt>
      <trkpt lat="44.79246" lon="-0.11562">
        <ele>81.2</ele>
        <time>2022-10-06T11:37:05Z</time>
      </trkpt>
      <trkpt lat="44.79246" lon="-0.11564">
        <ele>81.2</ele>
        <time>2022-10-06T11:37:06Z</time>
      </trkpt>
      <trkpt lat="44.79247" lon="-0.11567">
        <ele>81.3</ele>
        <time>2022-10-06T11:37:07Z</time>
      </trkpt>
      <trkpt lat="44.79247" lon="-0.11568">
        <ele>81.3</ele>
        <time>2022-10-06T11:37:08Z</time>
      </trkpt>
      <trkpt lat="44.79247" lon="-0.11569">
        <ele>81.3</ele>
        <time>2022-10-06T11:37:09Z</time>
      </trkpt>
      <trkpt lat="44.79247" lon="-0.11572">
        <ele>81.3</ele>
        <time>2022-10-06T11:37:10Z</time>
      </trkpt>
      <trkpt lat="44.79248" lon="-0.11573">
        <ele>81.3</ele>
        <time>2022-10-06T11:37:11Z</time>
      </trkpt>
      <trkpt lat="44.79248" lon="-0.11575">
        <ele>81.3</ele>
        <time>2022-10-06T11:37:12Z</time>
      </trkpt>
      <trkpt lat="44.79248" lon="-0.11576">
        <ele>81.3</ele>
        <time>2022-10-06T11:37:13Z</time>
      </trkpt>
      <trkpt lat="44.79248" lon="-0.11578">
        <ele>81.3</ele>
        <time>2022-10-06T11:37:14Z</time>
      </trkpt>
      <trkpt lat="44.79248" lon="-0.11579">
        <ele>81.2</ele>
        <time>2022-10-06T11:37:15Z</time>
      </trkpt>
      <trkpt lat="44.79248" lon="-0.11581">
        <ele>81.2</ele>
        <time>2022-10-06T11:37:16Z</time>
      </trkpt>
      <trkpt lat="44.79249" lon="-0.11583">
        <ele>81.2</ele>
        <time>2022-10-06T11:37:17Z</time>
      </trkpt>
      <trkpt lat="44.79249" lon="-0.11584">
        <ele>81.2</ele>
        <time>2022-10-06T11:37:18Z</time>
      </trkpt>
      <trkpt lat="44.79249" lon="-0.11586">
        <ele>81.2</ele>
        <time>2022-10-06T11:37:19Z</time>
      </trkpt>
      <trkpt lat="44.79249" lon="-0.11588">
        <ele>81.2</ele>
        <time>2022-10-06T11:37:20Z</time>
      </trkpt>
      <trkpt lat="44.7925" lon="-0.1159">
        <ele>81.2</ele>
        <time>2022-10-06T11:37:21Z</time>
      </trkpt>
      <trkpt lat="44.7925" lon="-0.11593">
        <ele>81.2</ele>
        <time>2022-10-06T11:37:22Z</time>
      </trkpt>
      <trkpt lat="44.7925" lon="-0.11594">
        <ele>81.2</ele>
        <time>2022-10-06T11:37:23Z</time>
      </trkpt>
      <trkpt lat="44.7925" lon="-0.11595">
        <ele>81.2</ele>
        <time>2022-10-06T11:37:24Z</time>
      </trkpt>
      <trkpt lat="44.7925" lon="-0.11597">
        <ele>81.2</ele>
        <time>2022-10-06T11:37:25Z</time>
      </trkpt>
      <trkpt lat="44.7925" lon="-0.11599">
        <ele>81.2</ele>
        <time>2022-10-06T11:37:26Z</time>
      </trkpt>
      <trkpt lat="44.7925" lon="-0.11602">
        <ele>81.1</ele>
        <time>2022-10-06T11:37:27Z</time>
      </trkpt>
      <trkpt lat="44.79251" lon="-0.11603">
        <ele>81.1</ele>
        <time>2022-10-06T11:37:28Z</time>
      </trkpt>
      <trkpt lat="44.79251" lon="-0.11605">
        <ele>81.1</ele>
        <time>2022-10-06T11:37:29Z</time>
      </trkpt>
      <trkpt lat="44.79251" lon="-0.11606">
        <ele>81.1</ele>
        <time>2022-10-06T11:37:30Z</time>
      </trkpt>
      <trkpt lat="44.79251" lon="-0.11608">
        <ele>81.1</ele>
        <time>2022-10-06T11:37:31Z</time>
      </trkpt>
      <trkpt lat="44.79251" lon="-0.11611">
        <ele>81</ele>
        <time>2022-10-06T11:37:32Z</time>
      </trkpt>
      <trkpt lat="44.79251" lon="-0.11612">
        <ele>81</ele>
        <time>2022-10-06T11:37:33Z</time>
      </trkpt>
      <trkpt lat="44.79251" lon="-0.11614">
        <ele>80.9</ele>
        <time>2022-10-06T11:37:34Z</time>
      </trkpt>
      <trkpt lat="44.79252" lon="-0.11615">
        <ele>80.9</ele>
        <time>2022-10-06T11:37:35Z</time>
      </trkpt>
      <trkpt lat="44.79252" lon="-0.11617">
        <ele>80.9</ele>
        <time>2022-10-06T11:37:36Z</time>
      </trkpt>
      <trkpt lat="44.79252" lon="-0.1162">
        <ele>80.9</ele>
        <time>2022-10-06T11:37:37Z</time>
      </trkpt>
      <trkpt lat="44.79252" lon="-0.11621">
        <ele>80.9</ele>
        <time>2022-10-06T11:37:38Z</time>
      </trkpt>
      <trkpt lat="44.79252" lon="-0.11623">
        <ele>80.8</ele>
        <time>2022-10-06T11:37:39Z</time>
      </trkpt>
      <trkpt lat="44.79252" lon="-0.11625">
        <ele>80.8</ele>
        <time>2022-10-06T11:37:40Z</time>
      </trkpt>
      <trkpt lat="44.79253" lon="-0.11626">
        <ele>80.9</ele>
        <time>2022-10-06T11:37:41Z</time>
      </trkpt>
      <trkpt lat="44.79253" lon="-0.11628">
        <ele>80.9</ele>
        <time>2022-10-06T11:37:42Z</time>
      </trkpt>
      <trkpt lat="44.79253" lon="-0.11631">
        <ele>80.8</ele>
        <time>2022-10-06T11:37:43Z</time>
      </trkpt>
      <trkpt lat="44.79254" lon="-0.11632">
        <ele>80.8</ele>
        <time>2022-10-06T11:37:44Z</time>
      </trkpt>
      <trkpt lat="44.79254" lon="-0.11634">
        <ele>80.8</ele>
        <time>2022-10-06T11:37:45Z</time>
      </trkpt>
      <trkpt lat="44.79254" lon="-0.11635">
        <ele>80.8</ele>
        <time>2022-10-06T11:37:46Z</time>
      </trkpt>
      <trkpt lat="44.79254" lon="-0.11639">
        <ele>80.8</ele>
        <time>2022-10-06T11:37:47Z</time>
      </trkpt>
      <trkpt lat="44.79254" lon="-0.11639">
        <ele>80.7</ele>
        <time>2022-10-06T11:37:48Z</time>
      </trkpt>
      <trkpt lat="44.79255" lon="-0.11641">
        <ele>80.7</ele>
        <time>2022-10-06T11:37:49Z</time>
      </trkpt>
      <trkpt lat="44.79255" lon="-0.11643">
        <ele>80.7</ele>
        <time>2022-10-06T11:37:50Z</time>
      </trkpt>
      <trkpt lat="44.79255" lon="-0.11645">
        <ele>80.7</ele>
        <time>2022-10-06T11:37:51Z</time>
      </trkpt>
      <trkpt lat="44.79255" lon="-0.11647">
        <ele>80.7</ele>
        <time>2022-10-06T11:37:52Z</time>
      </trkpt>
      <trkpt lat="44.79255" lon="-0.11649">
        <ele>80.6</ele>
        <time>2022-10-06T11:37:53Z</time>
      </trkpt>
      <trkpt lat="44.79256" lon="-0.1165">
        <ele>80.6</ele>
        <time>2022-10-06T11:37:54Z</time>
      </trkpt>
      <trkpt lat="44.79256" lon="-0.11651">
        <ele>80.7</ele>
        <time>2022-10-06T11:37:55Z</time>
      </trkpt>
      <trkpt lat="44.79256" lon="-0.11652">
        <ele>80.7</ele>
        <time>2022-10-06T11:37:56Z</time>
      </trkpt>
      <trkpt lat="44.79256" lon="-0.11656">
        <ele>80.7</ele>
        <time>2022-10-06T11:37:57Z</time>
      </trkpt>
      <trkpt lat="44.79256" lon="-0.11657">
        <ele>80.6</ele>
        <time>2022-10-06T11:37:58Z</time>
      </trkpt>
      <trkpt lat="44.79256" lon="-0.1166">
        <ele>80.6</ele>
        <time>2022-10-06T11:37:59Z</time>
      </trkpt>
      <trkpt lat="44.79257" lon="-0.11661">
        <ele>80.6</ele>
        <time>2022-10-06T11:38:00Z</time>
      </trkpt>
      <trkpt lat="44.79257" lon="-0.11662">
        <ele>80.6</ele>
        <time>2022-10-06T11:38:01Z</time>
      </trkpt>
      <trkpt lat="44.79257" lon="-0.11664">
        <ele>80.6</ele>
        <time>2022-10-06T11:38:02Z</time>
      </trkpt>
      <trkpt lat="44.79257" lon="-0.11665">
        <ele>80.5</ele>
        <time>2022-10-06T11:38:03Z</time>
      </trkpt>
      <trkpt lat="44.79257" lon="-0.11667">
        <ele>80.5</ele>
        <time>2022-10-06T11:38:04Z</time>
      </trkpt>
      <trkpt lat="44.79258" lon="-0.1167">
        <ele>80.5</ele>
        <time>2022-10-06T11:38:05Z</time>
      </trkpt>
      <trkpt lat="44.79258" lon="-0.11672">
        <ele>80.5</ele>
        <time>2022-10-06T11:38:06Z</time>
      </trkpt>
      <trkpt lat="44.79258" lon="-0.11674">
        <ele>80.4</ele>
        <time>2022-10-06T11:38:07Z</time>
      </trkpt>
      <trkpt lat="44.79258" lon="-0.11675">
        <ele>80.4</ele>
        <time>2022-10-06T11:38:08Z</time>
      </trkpt>
      <trkpt lat="44.79258" lon="-0.11676">
        <ele>80.4</ele>
        <time>2022-10-06T11:38:09Z</time>
      </trkpt>
      <trkpt lat="44.79258" lon="-0.11678">
        <ele>80.4</ele>
        <time>2022-10-06T11:38:10Z</time>
      </trkpt>
      <trkpt lat="44.79258" lon="-0.11681">
        <ele>80.4</ele>
        <time>2022-10-06T11:38:11Z</time>
      </trkpt>
      <trkpt lat="44.79258" lon="-0.11683">
        <ele>80.4</ele>
        <time>2022-10-06T11:38:12Z</time>
      </trkpt>
      <trkpt lat="44.79258" lon="-0.11684">
        <ele>80.4</ele>
        <time>2022-10-06T11:38:13Z</time>
      </trkpt>
      <trkpt lat="44.79258" lon="-0.11685">
        <ele>80.4</ele>
        <time>2022-10-06T11:38:14Z</time>
      </trkpt>
      <trkpt lat="44.79258" lon="-0.11687">
        <ele>80.3</ele>
        <time>2022-10-06T11:38:15Z</time>
      </trkpt>
      <trkpt lat="44.79258" lon="-0.11689">
        <ele>80.3</ele>
        <time>2022-10-06T11:38:16Z</time>
      </trkpt>
      <trkpt lat="44.79258" lon="-0.11692">
        <ele>80.3</ele>
        <time>2022-10-06T11:38:17Z</time>
      </trkpt>
      <trkpt lat="44.79258" lon="-0.11693">
        <ele>80.3</ele>
        <time>2022-10-06T11:38:18Z</time>
      </trkpt>
      <trkpt lat="44.79258" lon="-0.11695">
        <ele>80.2</ele>
        <time>2022-10-06T11:38:19Z</time>
      </trkpt>
      <trkpt lat="44.79258" lon="-0.11696">
        <ele>80.2</ele>
        <time>2022-10-06T11:38:20Z</time>
      </trkpt>
      <trkpt lat="44.79258" lon="-0.11698">
        <ele>80.2</ele>
        <time>2022-10-06T11:38:21Z</time>
      </trkpt>
      <trkpt lat="44.79258" lon="-0.11701">
        <ele>80.2</ele>
        <time>2022-10-06T11:38:22Z</time>
      </trkpt>
      <trkpt lat="44.79258" lon="-0.11702">
        <ele>80.2</ele>
        <time>2022-10-06T11:38:23Z</time>
      </trkpt>
      <trkpt lat="44.79258" lon="-0.11704">
        <ele>80.1</ele>
        <time>2022-10-06T11:38:24Z</time>
      </trkpt>
      <trkpt lat="44.79257" lon="-0.11705">
        <ele>80.1</ele>
        <time>2022-10-06T11:38:25Z</time>
      </trkpt>
      <trkpt lat="44.79258" lon="-0.11707">
        <ele>80.1</ele>
        <time>2022-10-06T11:38:26Z</time>
      </trkpt>
      <trkpt lat="44.79258" lon="-0.1171">
        <ele>80.1</ele>
        <time>2022-10-06T11:38:27Z</time>
      </trkpt>
      <trkpt lat="44.79258" lon="-0.11711">
        <ele>80.1</ele>
        <time>2022-10-06T11:38:28Z</time>
      </trkpt>
      <trkpt lat="44.79258" lon="-0.11713">
        <ele>80.1</ele>
        <time>2022-10-06T11:38:29Z</time>
      </trkpt>
      <trkpt lat="44.79258" lon="-0.11714">
        <ele>80.1</ele>
        <time>2022-10-06T11:38:30Z</time>
      </trkpt>
      <trkpt lat="44.79258" lon="-0.11716">
        <ele>80</ele>
        <time>2022-10-06T11:38:31Z</time>
      </trkpt>
      <trkpt lat="44.79258" lon="-0.11719">
        <ele>80</ele>
        <time>2022-10-06T11:38:32Z</time>
      </trkpt>
      <trkpt lat="44.79258" lon="-0.11721">
        <ele>79.9</ele>
        <time>2022-10-06T11:38:33Z</time>
      </trkpt>
      <trkpt lat="44.79258" lon="-0.11723">
        <ele>79.9</ele>
        <time>2022-10-06T11:38:34Z</time>
      </trkpt>
      <trkpt lat="44.79258" lon="-0.11724">
        <ele>79.9</ele>
        <time>2022-10-06T11:38:35Z</time>
      </trkpt>
      <trkpt lat="44.79258" lon="-0.11726">
        <ele>79.9</ele>
        <time>2022-10-06T11:38:36Z</time>
      </trkpt>
      <trkpt lat="44.79258" lon="-0.11729">
        <ele>79.8</ele>
        <time>2022-10-06T11:38:37Z</time>
      </trkpt>
      <trkpt lat="44.79258" lon="-0.1173">
        <ele>79.8</ele>
        <time>2022-10-06T11:38:38Z</time>
      </trkpt>
      <trkpt lat="44.79258" lon="-0.11731">
        <ele>79.8</ele>
        <time>2022-10-06T11:38:39Z</time>
      </trkpt>
      <trkpt lat="44.79258" lon="-0.11733">
        <ele>79.8</ele>
        <time>2022-10-06T11:38:40Z</time>
      </trkpt>
      <trkpt lat="44.79258" lon="-0.11735">
        <ele>79.7</ele>
        <time>2022-10-06T11:38:41Z</time>
      </trkpt>
      <trkpt lat="44.79258" lon="-0.11738">
        <ele>79.6</ele>
        <time>2022-10-06T11:38:42Z</time>
      </trkpt>
      <trkpt lat="44.79258" lon="-0.1174">
        <ele>79.6</ele>
        <time>2022-10-06T11:38:43Z</time>
      </trkpt>
      <trkpt lat="44.79259" lon="-0.11741">
        <ele>79.6</ele>
        <time>2022-10-06T11:38:44Z</time>
      </trkpt>
      <trkpt lat="44.79259" lon="-0.11742">
        <ele>79.6</ele>
        <time>2022-10-06T11:38:45Z</time>
      </trkpt>
      <trkpt lat="44.79259" lon="-0.11743">
        <ele>79.6</ele>
        <time>2022-10-06T11:38:46Z</time>
      </trkpt>
      <trkpt lat="44.79259" lon="-0.11746">
        <ele>79.6</ele>
        <time>2022-10-06T11:38:47Z</time>
      </trkpt>
      <trkpt lat="44.79259" lon="-0.11746">
        <ele>79.6</ele>
        <time>2022-10-06T11:38:48Z</time>
      </trkpt>
      <trkpt lat="44.79259" lon="-0.11748">
        <ele>79.6</ele>
        <time>2022-10-06T11:38:49Z</time>
      </trkpt>
      <trkpt lat="44.79259" lon="-0.11749">
        <ele>79.6</ele>
        <time>2022-10-06T11:38:50Z</time>
      </trkpt>
      <trkpt lat="44.7926" lon="-0.11751">
        <ele>79.5</ele>
        <time>2022-10-06T11:38:51Z</time>
      </trkpt>
      <trkpt lat="44.7926" lon="-0.11752">
        <ele>79.5</ele>
        <time>2022-10-06T11:38:52Z</time>
      </trkpt>
      <trkpt lat="44.79261" lon="-0.11756">
        <ele>79.4</ele>
        <time>2022-10-06T11:38:53Z</time>
      </trkpt>
      <trkpt lat="44.79261" lon="-0.11756">
        <ele>79.4</ele>
        <time>2022-10-06T11:38:54Z</time>
      </trkpt>
      <trkpt lat="44.79261" lon="-0.11757">
        <ele>79.4</ele>
        <time>2022-10-06T11:38:55Z</time>
      </trkpt>
      <trkpt lat="44.79262" lon="-0.1176">
        <ele>79.4</ele>
        <time>2022-10-06T11:38:56Z</time>
      </trkpt>
      <trkpt lat="44.79262" lon="-0.11761">
        <ele>79.4</ele>
        <time>2022-10-06T11:38:57Z</time>
      </trkpt>
      <trkpt lat="44.79263" lon="-0.11763">
        <ele>79.4</ele>
        <time>2022-10-06T11:38:58Z</time>
      </trkpt>
      <trkpt lat="44.79263" lon="-0.11764">
        <ele>79.3</ele>
        <time>2022-10-06T11:38:59Z</time>
      </trkpt>
      <trkpt lat="44.79264" lon="-0.11765">
        <ele>79.3</ele>
        <time>2022-10-06T11:39:00Z</time>
      </trkpt>
      <trkpt lat="44.79264" lon="-0.11767">
        <ele>79.3</ele>
        <time>2022-10-06T11:39:01Z</time>
      </trkpt>
      <trkpt lat="44.79265" lon="-0.11768">
        <ele>79.3</ele>
        <time>2022-10-06T11:39:02Z</time>
      </trkpt>
      <trkpt lat="44.79266" lon="-0.1177">
        <ele>79.3</ele>
        <time>2022-10-06T11:39:03Z</time>
      </trkpt>
      <trkpt lat="44.79266" lon="-0.11773">
        <ele>79.2</ele>
        <time>2022-10-06T11:39:04Z</time>
      </trkpt>
      <trkpt lat="44.79267" lon="-0.11774">
        <ele>79.2</ele>
        <time>2022-10-06T11:39:05Z</time>
      </trkpt>
      <trkpt lat="44.79267" lon="-0.11775">
        <ele>79.2</ele>
        <time>2022-10-06T11:39:06Z</time>
      </trkpt>
      <trkpt lat="44.79268" lon="-0.11776">
        <ele>79.1</ele>
        <time>2022-10-06T11:39:07Z</time>
      </trkpt>
      <trkpt lat="44.79269" lon="-0.11778">
        <ele>79.2</ele>
        <time>2022-10-06T11:39:08Z</time>
      </trkpt>
      <trkpt lat="44.79269" lon="-0.11779">
        <ele>79.2</ele>
        <time>2022-10-06T11:39:09Z</time>
      </trkpt>
      <trkpt lat="44.79269" lon="-0.11781">
        <ele>79.1</ele>
        <time>2022-10-06T11:39:10Z</time>
      </trkpt>
      <trkpt lat="44.7927" lon="-0.11782">
        <ele>79.1</ele>
        <time>2022-10-06T11:39:11Z</time>
      </trkpt>
      <trkpt lat="44.7927" lon="-0.11784">
        <ele>79.1</ele>
        <time>2022-10-06T11:39:12Z</time>
      </trkpt>
      <trkpt lat="44.79271" lon="-0.11786">
        <ele>79.1</ele>
        <time>2022-10-06T11:39:13Z</time>
      </trkpt>
      <trkpt lat="44.79272" lon="-0.11787">
        <ele>79.1</ele>
        <time>2022-10-06T11:39:14Z</time>
      </trkpt>
      <trkpt lat="44.79273" lon="-0.11788">
        <ele>79.1</ele>
        <time>2022-10-06T11:39:15Z</time>
      </trkpt>
      <trkpt lat="44.79273" lon="-0.1179">
        <ele>79</ele>
        <time>2022-10-06T11:39:16Z</time>
      </trkpt>
      <trkpt lat="44.79274" lon="-0.11791">
        <ele>79.1</ele>
        <time>2022-10-06T11:39:17Z</time>
      </trkpt>
      <trkpt lat="44.79275" lon="-0.11793">
        <ele>79.1</ele>
        <time>2022-10-06T11:39:18Z</time>
      </trkpt>
      <trkpt lat="44.79276" lon="-0.11794">
        <ele>79</ele>
        <time>2022-10-06T11:39:19Z</time>
      </trkpt>
      <trkpt lat="44.79277" lon="-0.11796">
        <ele>79</ele>
        <time>2022-10-06T11:39:20Z</time>
      </trkpt>
      <trkpt lat="44.79277" lon="-0.11797">
        <ele>79.1</ele>
        <time>2022-10-06T11:39:21Z</time>
      </trkpt>
      <trkpt lat="44.79278" lon="-0.11798">
        <ele>79</ele>
        <time>2022-10-06T11:39:22Z</time>
      </trkpt>
      <trkpt lat="44.79279" lon="-0.11801">
        <ele>79</ele>
        <time>2022-10-06T11:39:23Z</time>
      </trkpt>
      <trkpt lat="44.7928" lon="-0.11802">
        <ele>79</ele>
        <time>2022-10-06T11:39:24Z</time>
      </trkpt>
      <trkpt lat="44.7928" lon="-0.11802">
        <ele>79.1</ele>
        <time>2022-10-06T11:39:25Z</time>
      </trkpt>
      <trkpt lat="44.79281" lon="-0.11805">
        <ele>79.1</ele>
        <time>2022-10-06T11:39:26Z</time>
      </trkpt>
      <trkpt lat="44.79281" lon="-0.11806">
        <ele>79</ele>
        <time>2022-10-06T11:39:27Z</time>
      </trkpt>
      <trkpt lat="44.79282" lon="-0.11808">
        <ele>79</ele>
        <time>2022-10-06T11:39:28Z</time>
      </trkpt>
      <trkpt lat="44.79283" lon="-0.1181">
        <ele>79</ele>
        <time>2022-10-06T11:39:29Z</time>
      </trkpt>
      <trkpt lat="44.79283" lon="-0.11811">
        <ele>79</ele>
        <time>2022-10-06T11:39:30Z</time>
      </trkpt>
      <trkpt lat="44.79284" lon="-0.11812">
        <ele>79</ele>
        <time>2022-10-06T11:39:31Z</time>
      </trkpt>
      <trkpt lat="44.79284" lon="-0.11814">
        <ele>79</ele>
        <time>2022-10-06T11:39:32Z</time>
      </trkpt>
      <trkpt lat="44.79285" lon="-0.11816">
        <ele>78.9</ele>
        <time>2022-10-06T11:39:33Z</time>
      </trkpt>
      <trkpt lat="44.79285" lon="-0.11817">
        <ele>78.9</ele>
        <time>2022-10-06T11:39:34Z</time>
      </trkpt>
      <trkpt lat="44.79286" lon="-0.11819">
        <ele>78.9</ele>
        <time>2022-10-06T11:39:35Z</time>
      </trkpt>
      <trkpt lat="44.79287" lon="-0.1182">
        <ele>78.9</ele>
        <time>2022-10-06T11:39:36Z</time>
      </trkpt>
      <trkpt lat="44.79287" lon="-0.11821">
        <ele>78.9</ele>
        <time>2022-10-06T11:39:37Z</time>
      </trkpt>
      <trkpt lat="44.79289" lon="-0.11823">
        <ele>78.9</ele>
        <time>2022-10-06T11:39:38Z</time>
      </trkpt>
      <trkpt lat="44.79289" lon="-0.11824">
        <ele>78.9</ele>
        <time>2022-10-06T11:39:39Z</time>
      </trkpt>
      <trkpt lat="44.7929" lon="-0.11825">
        <ele>78.9</ele>
        <time>2022-10-06T11:39:40Z</time>
      </trkpt>
      <trkpt lat="44.7929" lon="-0.11826">
        <ele>78.9</ele>
        <time>2022-10-06T11:39:41Z</time>
      </trkpt>
      <trkpt lat="44.79292" lon="-0.11829">
        <ele>78.8</ele>
        <time>2022-10-06T11:39:42Z</time>
      </trkpt>
      <trkpt lat="44.79293" lon="-0.1183">
        <ele>78.9</ele>
        <time>2022-10-06T11:39:43Z</time>
      </trkpt>
      <trkpt lat="44.79293" lon="-0.11831">
        <ele>78.9</ele>
        <time>2022-10-06T11:39:44Z</time>
      </trkpt>
      <trkpt lat="44.79294" lon="-0.11831">
        <ele>78.9</ele>
        <time>2022-10-06T11:39:45Z</time>
      </trkpt>
      <trkpt lat="44.79295" lon="-0.11832">
        <ele>78.9</ele>
        <time>2022-10-06T11:39:46Z</time>
      </trkpt>
      <trkpt lat="44.79295" lon="-0.11832">
        <ele>78.8</ele>
        <time>2022-10-06T11:39:47Z</time>
      </trkpt>
      <trkpt lat="44.79295" lon="-0.11832">
        <ele>78.8</ele>
        <time>2022-10-06T11:39:48Z</time>
      </trkpt>
      <trkpt lat="44.79295" lon="-0.11832">
        <ele>78.8</ele>
        <time>2022-10-06T11:39:49Z</time>
      </trkpt>
      <trkpt lat="44.79295" lon="-0.11831">
        <ele>78.9</ele>
        <time>2022-10-06T11:39:50Z</time>
      </trkpt>
      <trkpt lat="44.79295" lon="-0.11832">
        <ele>78.9</ele>
        <time>2022-10-06T11:39:51Z</time>
      </trkpt>
      <trkpt lat="44.79295" lon="-0.11832">
        <ele>78.8</ele>
        <time>2022-10-06T11:39:52Z</time>
      </trkpt>
      <trkpt lat="44.79295" lon="-0.11832">
        <ele>78.8</ele>
        <time>2022-10-06T11:39:53Z</time>
      </trkpt>
      <trkpt lat="44.79295" lon="-0.11832">
        <ele>78.8</ele>
        <time>2022-10-06T11:39:54Z</time>
      </trkpt>
      <trkpt lat="44.79295" lon="-0.11832">
        <ele>78.8</ele>
        <time>2022-10-06T11:39:55Z</time>
      </trkpt>
      <trkpt lat="44.79295" lon="-0.11832">
        <ele>78.8</ele>
        <time>2022-10-06T11:39:56Z</time>
      </trkpt>
      <trkpt lat="44.79295" lon="-0.11832">
        <ele>78.8</ele>
        <time>2022-10-06T11:39:57Z</time>
      </trkpt>
      <trkpt lat="44.79295" lon="-0.11832">
        <ele>78.8</ele>
        <time>2022-10-06T11:39:58Z</time>
      </trkpt>
      <trkpt lat="44.79295" lon="-0.11832">
        <ele>78.8</ele>
        <time>2022-10-06T11:39:59Z</time>
      </trkpt>
      <trkpt lat="44.79295" lon="-0.11832">
        <ele>78.8</ele>
        <time>2022-10-06T11:40:00Z</time>
      </trkpt>
      <trkpt lat="44.79294" lon="-0.11833">
        <ele>78.8</ele>
        <time>2022-10-06T11:40:01Z</time>
      </trkpt>
      <trkpt lat="44.79294" lon="-0.11833">
        <ele>78.8</ele>
        <time>2022-10-06T11:40:02Z</time>
      </trkpt>
      <trkpt lat="44.79294" lon="-0.11833">
        <ele>78.8</ele>
        <time>2022-10-06T11:40:03Z</time>
      </trkpt>
      <trkpt lat="44.79294" lon="-0.11833">
        <ele>78.8</ele>
        <time>2022-10-06T11:40:04Z</time>
      </trkpt>
      <trkpt lat="44.79294" lon="-0.11833">
        <ele>78.8</ele>
        <time>2022-10-06T11:40:05Z</time>
      </trkpt>
      <trkpt lat="44.79294" lon="-0.11833">
        <ele>78.9</ele>
        <time>2022-10-06T11:40:06Z</time>
      </trkpt>
      <trkpt lat="44.79294" lon="-0.11833">
        <ele>78.9</ele>
        <time>2022-10-06T11:40:07Z</time>
      </trkpt>
      <trkpt lat="44.79294" lon="-0.11833">
        <ele>78.9</ele>
        <time>2022-10-06T11:40:08Z</time>
      </trkpt>
      <trkpt lat="44.79294" lon="-0.11833">
        <ele>78.9</ele>
        <time>2022-10-06T11:40:09Z</time>
      </trkpt>
      <trkpt lat="44.79294" lon="-0.11833">
        <ele>78.9</ele>
        <time>2022-10-06T11:40:10Z</time>
      </trkpt>
      <trkpt lat="44.79294" lon="-0.11833">
        <ele>78.9</ele>
        <time>2022-10-06T11:40:11Z</time>
      </trkpt>
      <trkpt lat="44.79294" lon="-0.11832">
        <ele>78.9</ele>
        <time>2022-10-06T11:40:12Z</time>
      </trkpt>
      <trkpt lat="44.79294" lon="-0.11832">
        <ele>78.9</ele>
        <time>2022-10-06T11:40:13Z</time>
      </trkpt>
      <trkpt lat="44.79294" lon="-0.11832">
        <ele>78.9</ele>
        <time>2022-10-06T11:40:14Z</time>
      </trkpt>
      <trkpt lat="44.79294" lon="-0.11832">
        <ele>78.9</ele>
        <time>2022-10-06T11:40:15Z</time>
      </trkpt>
      <trkpt lat="44.79294" lon="-0.11832">
        <ele>78.9</ele>
        <time>2022-10-06T11:40:16Z</time>
      </trkpt>
      <trkpt lat="44.79294" lon="-0.11832">
        <ele>79</ele>
        <time>2022-10-06T11:40:17Z</time>
      </trkpt>
      <trkpt lat="44.79294" lon="-0.11833">
        <ele>79</ele>
        <time>2022-10-06T11:40:18Z</time>
      </trkpt>
      <trkpt lat="44.79294" lon="-0.11833">
        <ele>79</ele>
        <time>2022-10-06T11:40:19Z</time>
      </trkpt>
      <trkpt lat="44.79294" lon="-0.11834">
        <ele>79</ele>
        <time>2022-10-06T11:40:20Z</time>
      </trkpt>
      <trkpt lat="44.79294" lon="-0.11834">
        <ele>79</ele>
        <time>2022-10-06T11:40:21Z</time>
      </trkpt>
      <trkpt lat="44.79294" lon="-0.11835">
        <ele>79</ele>
        <time>2022-10-06T11:40:22Z</time>
      </trkpt>
      <trkpt lat="44.79294" lon="-0.11835">
        <ele>79</ele>
        <time>2022-10-06T11:40:23Z</time>
      </trkpt>
      <trkpt lat="44.79294" lon="-0.11835">
        <ele>79</ele>
        <time>2022-10-06T11:40:24Z</time>
      </trkpt>
      <trkpt lat="44.79294" lon="-0.11835">
        <ele>79</ele>
        <time>2022-10-06T11:40:25Z</time>
      </trkpt>
      <trkpt lat="44.79294" lon="-0.11835">
        <ele>79.1</ele>
        <time>2022-10-06T11:40:26Z</time>
      </trkpt>
      <trkpt lat="44.79294" lon="-0.11835">
        <ele>79.1</ele>
        <time>2022-10-06T11:40:27Z</time>
      </trkpt>
      <trkpt lat="44.79294" lon="-0.11835">
        <ele>79.1</ele>
        <time>2022-10-06T11:40:28Z</time>
      </trkpt>
      <trkpt lat="44.79294" lon="-0.11835">
        <ele>79.1</ele>
        <time>2022-10-06T11:40:29Z</time>
      </trkpt>
      <trkpt lat="44.79294" lon="-0.11835">
        <ele>79.1</ele>
        <time>2022-10-06T11:40:30Z</time>
      </trkpt>
      <trkpt lat="44.79294" lon="-0.11835">
        <ele>79.1</ele>
        <time>2022-10-06T11:40:31Z</time>
      </trkpt>
      <trkpt lat="44.79294" lon="-0.11835">
        <ele>79.1</ele>
        <time>2022-10-06T11:40:32Z</time>
      </trkpt>
      <trkpt lat="44.79294" lon="-0.11835">
        <ele>79.1</ele>
        <time>2022-10-06T11:40:33Z</time>
      </trkpt>
      <trkpt lat="44.79294" lon="-0.11835">
        <ele>79.1</ele>
        <time>2022-10-06T11:40:34Z</time>
      </trkpt>
      <trkpt lat="44.79294" lon="-0.11835">
        <ele>79.1</ele>
        <time>2022-10-06T11:40:35Z</time>
      </trkpt>
      <trkpt lat="44.79294" lon="-0.11836">
        <ele>79.1</ele>
        <time>2022-10-06T11:40:36Z</time>
      </trkpt>
      <trkpt lat="44.79294" lon="-0.11836">
        <ele>79.1</ele>
        <time>2022-10-06T11:40:37Z</time>
      </trkpt>
      <trkpt lat="44.79294" lon="-0.11836">
        <ele>79.1</ele>
        <time>2022-10-06T11:40:38Z</time>
      </trkpt>
      <trkpt lat="44.79294" lon="-0.11837">
        <ele>79.1</ele>
        <time>2022-10-06T11:40:39Z</time>
      </trkpt>
      <trkpt lat="44.79295" lon="-0.11838">
        <ele>79.1</ele>
        <time>2022-10-06T11:40:40Z</time>
      </trkpt>
      <trkpt lat="44.79295" lon="-0.11839">
        <ele>79.1</ele>
        <time>2022-10-06T11:40:41Z</time>
      </trkpt>
      <trkpt lat="44.79295" lon="-0.11841">
        <ele>79.1</ele>
        <time>2022-10-06T11:40:42Z</time>
      </trkpt>
      <trkpt lat="44.79296" lon="-0.11842">
        <ele>79.1</ele>
        <time>2022-10-06T11:40:43Z</time>
      </trkpt>
      <trkpt lat="44.79296" lon="-0.11843">
        <ele>79.1</ele>
        <time>2022-10-06T11:40:44Z</time>
      </trkpt>
      <trkpt lat="44.79297" lon="-0.11845">
        <ele>79</ele>
        <time>2022-10-06T11:40:45Z</time>
      </trkpt>
      <trkpt lat="44.79297" lon="-0.11846">
        <ele>79.1</ele>
        <time>2022-10-06T11:40:46Z</time>
      </trkpt>
      <trkpt lat="44.79297" lon="-0.11848">
        <ele>79.1</ele>
        <time>2022-10-06T11:40:47Z</time>
      </trkpt>
      <trkpt lat="44.79298" lon="-0.11848">
        <ele>79.1</ele>
        <time>2022-10-06T11:40:48Z</time>
      </trkpt>
      <trkpt lat="44.79298" lon="-0.11849">
        <ele>79</ele>
        <time>2022-10-06T11:40:49Z</time>
      </trkpt>
      <trkpt lat="44.79299" lon="-0.11851">
        <ele>79.1</ele>
        <time>2022-10-06T11:40:50Z</time>
      </trkpt>
      <trkpt lat="44.79299" lon="-0.11851">
        <ele>79.1</ele>
        <time>2022-10-06T11:40:51Z</time>
      </trkpt>
      <trkpt lat="44.793" lon="-0.11853">
        <ele>79.1</ele>
        <time>2022-10-06T11:40:52Z</time>
      </trkpt>
      <trkpt lat="44.793" lon="-0.11854">
        <ele>79.1</ele>
        <time>2022-10-06T11:40:53Z</time>
      </trkpt>
      <trkpt lat="44.79301" lon="-0.11856">
        <ele>79.1</ele>
        <time>2022-10-06T11:40:54Z</time>
      </trkpt>
      <trkpt lat="44.79302" lon="-0.11858">
        <ele>79.1</ele>
        <time>2022-10-06T11:40:55Z</time>
      </trkpt>
      <trkpt lat="44.79302" lon="-0.11859">
        <ele>79.1</ele>
        <time>2022-10-06T11:40:56Z</time>
      </trkpt>
      <trkpt lat="44.79302" lon="-0.1186">
        <ele>79.1</ele>
        <time>2022-10-06T11:40:57Z</time>
      </trkpt>
      <trkpt lat="44.79303" lon="-0.11861">
        <ele>79.1</ele>
        <time>2022-10-06T11:40:58Z</time>
      </trkpt>
      <trkpt lat="44.79303" lon="-0.11862">
        <ele>79.1</ele>
        <time>2022-10-06T11:40:59Z</time>
      </trkpt>
      <trkpt lat="44.79304" lon="-0.11864">
        <ele>79.1</ele>
        <time>2022-10-06T11:41:00Z</time>
      </trkpt>
      <trkpt lat="44.79304" lon="-0.11865">
        <ele>79.1</ele>
        <time>2022-10-06T11:41:01Z</time>
      </trkpt>
      <trkpt lat="44.79305" lon="-0.11866">
        <ele>79.1</ele>
        <time>2022-10-06T11:41:02Z</time>
      </trkpt>
      <trkpt lat="44.79305" lon="-0.11868">
        <ele>79.1</ele>
        <time>2022-10-06T11:41:03Z</time>
      </trkpt>
      <trkpt lat="44.79306" lon="-0.1187">
        <ele>79.1</ele>
        <time>2022-10-06T11:41:04Z</time>
      </trkpt>
      <trkpt lat="44.79306" lon="-0.11871">
        <ele>79</ele>
        <time>2022-10-06T11:41:05Z</time>
      </trkpt>
      <trkpt lat="44.79307" lon="-0.11872">
        <ele>79.1</ele>
        <time>2022-10-06T11:41:06Z</time>
      </trkpt>
      <trkpt lat="44.79308" lon="-0.11875">
        <ele>79.1</ele>
        <time>2022-10-06T11:41:07Z</time>
      </trkpt>
      <trkpt lat="44.79309" lon="-0.11875">
        <ele>79.1</ele>
        <time>2022-10-06T11:41:08Z</time>
      </trkpt>
      <trkpt lat="44.79309" lon="-0.11876">
        <ele>79.1</ele>
        <time>2022-10-06T11:41:09Z</time>
      </trkpt>
      <trkpt lat="44.7931" lon="-0.11877">
        <ele>79.1</ele>
        <time>2022-10-06T11:41:10Z</time>
      </trkpt>
      <trkpt lat="44.7931" lon="-0.11879">
        <ele>79.1</ele>
        <time>2022-10-06T11:41:11Z</time>
      </trkpt>
      <trkpt lat="44.79311" lon="-0.11881">
        <ele>79.2</ele>
        <time>2022-10-06T11:41:12Z</time>
      </trkpt>
      <trkpt lat="44.79311" lon="-0.11882">
        <ele>79.2</ele>
        <time>2022-10-06T11:41:13Z</time>
      </trkpt>
      <trkpt lat="44.79312" lon="-0.11883">
        <ele>79.1</ele>
        <time>2022-10-06T11:41:14Z</time>
      </trkpt>
      <trkpt lat="44.79313" lon="-0.11886">
        <ele>79.1</ele>
        <time>2022-10-06T11:41:15Z</time>
      </trkpt>
      <trkpt lat="44.79313" lon="-0.11887">
        <ele>79.2</ele>
        <time>2022-10-06T11:41:16Z</time>
      </trkpt>
      <trkpt lat="44.79313" lon="-0.11888">
        <ele>79.2</ele>
        <time>2022-10-06T11:41:17Z</time>
      </trkpt>
      <trkpt lat="44.79314" lon="-0.11891">
        <ele>79.3</ele>
        <time>2022-10-06T11:41:18Z</time>
      </trkpt>
      <trkpt lat="44.79315" lon="-0.11892">
        <ele>79.2</ele>
        <time>2022-10-06T11:41:19Z</time>
      </trkpt>
      <trkpt lat="44.79315" lon="-0.11894">
        <ele>79.2</ele>
        <time>2022-10-06T11:41:20Z</time>
      </trkpt>
      <trkpt lat="44.79315" lon="-0.11894">
        <ele>79.2</ele>
        <time>2022-10-06T11:41:21Z</time>
      </trkpt>
      <trkpt lat="44.79316" lon="-0.11896">
        <ele>79.2</ele>
        <time>2022-10-06T11:41:22Z</time>
      </trkpt>
      <trkpt lat="44.79317" lon="-0.11897">
        <ele>79.3</ele>
        <time>2022-10-06T11:41:23Z</time>
      </trkpt>
      <trkpt lat="44.79317" lon="-0.11898">
        <ele>79.3</ele>
        <time>2022-10-06T11:41:24Z</time>
      </trkpt>
      <trkpt lat="44.79318" lon="-0.11901">
        <ele>79.2</ele>
        <time>2022-10-06T11:41:25Z</time>
      </trkpt>
      <trkpt lat="44.79319" lon="-0.11901">
        <ele>79.3</ele>
        <time>2022-10-06T11:41:26Z</time>
      </trkpt>
      <trkpt lat="44.79319" lon="-0.11903">
        <ele>79.3</ele>
        <time>2022-10-06T11:41:27Z</time>
      </trkpt>
      <trkpt lat="44.7932" lon="-0.11904">
        <ele>79.4</ele>
        <time>2022-10-06T11:41:28Z</time>
      </trkpt>
      <trkpt lat="44.7932" lon="-0.11906">
        <ele>79.4</ele>
        <time>2022-10-06T11:41:29Z</time>
      </trkpt>
      <trkpt lat="44.79321" lon="-0.11908">
        <ele>79.4</ele>
        <time>2022-10-06T11:41:30Z</time>
      </trkpt>
      <trkpt lat="44.79322" lon="-0.1191">
        <ele>79.4</ele>
        <time>2022-10-06T11:41:31Z</time>
      </trkpt>
      <trkpt lat="44.79322" lon="-0.11911">
        <ele>79.4</ele>
        <time>2022-10-06T11:41:32Z</time>
      </trkpt>
      <trkpt lat="44.79323" lon="-0.11912">
        <ele>79.5</ele>
        <time>2022-10-06T11:41:33Z</time>
      </trkpt>
      <trkpt lat="44.79323" lon="-0.11914">
        <ele>79.4</ele>
        <time>2022-10-06T11:41:34Z</time>
      </trkpt>
      <trkpt lat="44.79324" lon="-0.11916">
        <ele>79.4</ele>
        <time>2022-10-06T11:41:35Z</time>
      </trkpt>
      <trkpt lat="44.79324" lon="-0.11917">
        <ele>79.5</ele>
        <time>2022-10-06T11:41:36Z</time>
      </trkpt>
      <trkpt lat="44.79325" lon="-0.11918">
        <ele>79.5</ele>
        <time>2022-10-06T11:41:37Z</time>
      </trkpt>
      <trkpt lat="44.79325" lon="-0.1192">
        <ele>79.5</ele>
        <time>2022-10-06T11:41:38Z</time>
      </trkpt>
      <trkpt lat="44.79325" lon="-0.11921">
        <ele>79.5</ele>
        <time>2022-10-06T11:41:39Z</time>
      </trkpt>
      <trkpt lat="44.79326" lon="-0.11924">
        <ele>79.6</ele>
        <time>2022-10-06T11:41:40Z</time>
      </trkpt>
      <trkpt lat="44.79327" lon="-0.11925">
        <ele>79.6</ele>
        <time>2022-10-06T11:41:41Z</time>
      </trkpt>
      <trkpt lat="44.79327" lon="-0.11926">
        <ele>79.6</ele>
        <time>2022-10-06T11:41:42Z</time>
      </trkpt>
      <trkpt lat="44.79328" lon="-0.11927">
        <ele>79.6</ele>
        <time>2022-10-06T11:41:43Z</time>
      </trkpt>
      <trkpt lat="44.79328" lon="-0.11928">
        <ele>79.6</ele>
        <time>2022-10-06T11:41:44Z</time>
      </trkpt>
      <trkpt lat="44.79329" lon="-0.11931">
        <ele>79.7</ele>
        <time>2022-10-06T11:41:45Z</time>
      </trkpt>
      <trkpt lat="44.7933" lon="-0.11932">
        <ele>79.7</ele>
        <time>2022-10-06T11:41:46Z</time>
      </trkpt>
      <trkpt lat="44.79331" lon="-0.11933">
        <ele>79.7</ele>
        <time>2022-10-06T11:41:47Z</time>
      </trkpt>
      <trkpt lat="44.79331" lon="-0.11935">
        <ele>79.7</ele>
        <time>2022-10-06T11:41:48Z</time>
      </trkpt>
      <trkpt lat="44.79332" lon="-0.11936">
        <ele>79.7</ele>
        <time>2022-10-06T11:41:49Z</time>
      </trkpt>
      <trkpt lat="44.79332" lon="-0.11937">
        <ele>79.8</ele>
        <time>2022-10-06T11:41:50Z</time>
      </trkpt>
      <trkpt lat="44.79333" lon="-0.11939">
        <ele>79.8</ele>
        <time>2022-10-06T11:41:51Z</time>
      </trkpt>
      <trkpt lat="44.79333" lon="-0.1194">
        <ele>79.8</ele>
        <time>2022-10-06T11:41:52Z</time>
      </trkpt>
      <trkpt lat="44.79334" lon="-0.11941">
        <ele>79.8</ele>
        <time>2022-10-06T11:41:53Z</time>
      </trkpt>
      <trkpt lat="44.79335" lon="-0.11943">
        <ele>79.8</ele>
        <time>2022-10-06T11:41:54Z</time>
      </trkpt>
      <trkpt lat="44.79336" lon="-0.11945">
        <ele>79.9</ele>
        <time>2022-10-06T11:41:55Z</time>
      </trkpt>
      <trkpt lat="44.79336" lon="-0.11946">
        <ele>79.9</ele>
        <time>2022-10-06T11:41:56Z</time>
      </trkpt>
      <trkpt lat="44.79337" lon="-0.11947">
        <ele>79.9</ele>
        <time>2022-10-06T11:41:57Z</time>
      </trkpt>
      <trkpt lat="44.79337" lon="-0.11948">
        <ele>79.9</ele>
        <time>2022-10-06T11:41:58Z</time>
      </trkpt>
      <trkpt lat="44.79338" lon="-0.1195">
        <ele>79.9</ele>
        <time>2022-10-06T11:41:59Z</time>
      </trkpt>
      <trkpt lat="44.79339" lon="-0.11952">
        <ele>80</ele>
        <time>2022-10-06T11:42:00Z</time>
      </trkpt>
      <trkpt lat="44.7934" lon="-0.11954">
        <ele>80</ele>
        <time>2022-10-06T11:42:01Z</time>
      </trkpt>
      <trkpt lat="44.7934" lon="-0.11955">
        <ele>80</ele>
        <time>2022-10-06T11:42:02Z</time>
      </trkpt>
      <trkpt lat="44.7934" lon="-0.11956">
        <ele>80</ele>
        <time>2022-10-06T11:42:03Z</time>
      </trkpt>
      <trkpt lat="44.79341" lon="-0.11957">
        <ele>80</ele>
        <time>2022-10-06T11:42:04Z</time>
      </trkpt>
      <trkpt lat="44.79341" lon="-0.1196">
        <ele>80.1</ele>
        <time>2022-10-06T11:42:05Z</time>
      </trkpt>
      <trkpt lat="44.79342" lon="-0.11961">
        <ele>80.1</ele>
        <time>2022-10-06T11:42:06Z</time>
      </trkpt>
      <trkpt lat="44.79342" lon="-0.11962">
        <ele>80.1</ele>
        <time>2022-10-06T11:42:07Z</time>
      </trkpt>
      <trkpt lat="44.79343" lon="-0.11965">
        <ele>80.1</ele>
        <time>2022-10-06T11:42:08Z</time>
      </trkpt>
      <trkpt lat="44.79344" lon="-0.11965">
        <ele>80.1</ele>
        <time>2022-10-06T11:42:09Z</time>
      </trkpt>
      <trkpt lat="44.79344" lon="-0.11966">
        <ele>80.2</ele>
        <time>2022-10-06T11:42:10Z</time>
      </trkpt>
      <trkpt lat="44.79345" lon="-0.11967">
        <ele>80.2</ele>
        <time>2022-10-06T11:42:11Z</time>
      </trkpt>
      <trkpt lat="44.79345" lon="-0.11969">
        <ele>80.2</ele>
        <time>2022-10-06T11:42:12Z</time>
      </trkpt>
      <trkpt lat="44.79346" lon="-0.1197">
        <ele>80.2</ele>
        <time>2022-10-06T11:42:13Z</time>
      </trkpt>
      <trkpt lat="44.79347" lon="-0.11971">
        <ele>80.3</ele>
        <time>2022-10-06T11:42:14Z</time>
      </trkpt>
      <trkpt lat="44.79348" lon="-0.11973">
        <ele>80.3</ele>
        <time>2022-10-06T11:42:15Z</time>
      </trkpt>
      <trkpt lat="44.79349" lon="-0.11975">
        <ele>80.3</ele>
        <time>2022-10-06T11:42:16Z</time>
      </trkpt>
      <trkpt lat="44.79349" lon="-0.11976">
        <ele>80.3</ele>
        <time>2022-10-06T11:42:17Z</time>
      </trkpt>
      <trkpt lat="44.7935" lon="-0.11977">
        <ele>80.3</ele>
        <time>2022-10-06T11:42:18Z</time>
      </trkpt>
      <trkpt lat="44.7935" lon="-0.11977">
        <ele>80.3</ele>
        <time>2022-10-06T11:42:19Z</time>
      </trkpt>
      <trkpt lat="44.79351" lon="-0.11981">
        <ele>80.3</ele>
        <time>2022-10-06T11:42:20Z</time>
      </trkpt>
      <trkpt lat="44.79352" lon="-0.11982">
        <ele>80.3</ele>
        <time>2022-10-06T11:42:21Z</time>
      </trkpt>
      <trkpt lat="44.79352" lon="-0.11982">
        <ele>80.4</ele>
        <time>2022-10-06T11:42:22Z</time>
      </trkpt>
      <trkpt lat="44.79353" lon="-0.11984">
        <ele>80.4</ele>
        <time>2022-10-06T11:42:23Z</time>
      </trkpt>
      <trkpt lat="44.79353" lon="-0.11986">
        <ele>80.5</ele>
        <time>2022-10-06T11:42:24Z</time>
      </trkpt>
      <trkpt lat="44.79354" lon="-0.11987">
        <ele>80.5</ele>
        <time>2022-10-06T11:42:25Z</time>
      </trkpt>
      <trkpt lat="44.79354" lon="-0.11989">
        <ele>80.5</ele>
        <time>2022-10-06T11:42:26Z</time>
      </trkpt>
      <trkpt lat="44.79355" lon="-0.11989">
        <ele>80.5</ele>
        <time>2022-10-06T11:42:27Z</time>
      </trkpt>
      <trkpt lat="44.79355" lon="-0.1199">
        <ele>80.5</ele>
        <time>2022-10-06T11:42:28Z</time>
      </trkpt>
      <trkpt lat="44.79355" lon="-0.11992">
        <ele>80.5</ele>
        <time>2022-10-06T11:42:29Z</time>
      </trkpt>
      <trkpt lat="44.79356" lon="-0.11993">
        <ele>80.5</ele>
        <time>2022-10-06T11:42:30Z</time>
      </trkpt>
      <trkpt lat="44.79357" lon="-0.11995">
        <ele>80.6</ele>
        <time>2022-10-06T11:42:31Z</time>
      </trkpt>
      <trkpt lat="44.79357" lon="-0.11997">
        <ele>80.6</ele>
        <time>2022-10-06T11:42:32Z</time>
      </trkpt>
      <trkpt lat="44.79358" lon="-0.11998">
        <ele>80.6</ele>
        <time>2022-10-06T11:42:33Z</time>
      </trkpt>
      <trkpt lat="44.79358" lon="-0.11999">
        <ele>80.7</ele>
        <time>2022-10-06T11:42:34Z</time>
      </trkpt>
      <trkpt lat="44.79358" lon="-0.12001">
        <ele>80.7</ele>
        <time>2022-10-06T11:42:35Z</time>
      </trkpt>
      <trkpt lat="44.79359" lon="-0.12002">
        <ele>80.7</ele>
        <time>2022-10-06T11:42:36Z</time>
      </trkpt>
      <trkpt lat="44.79359" lon="-0.12004">
        <ele>80.8</ele>
        <time>2022-10-06T11:42:37Z</time>
      </trkpt>
      <trkpt lat="44.7936" lon="-0.12005">
        <ele>80.8</ele>
        <time>2022-10-06T11:42:38Z</time>
      </trkpt>
      <trkpt lat="44.79361" lon="-0.12007">
        <ele>80.8</ele>
        <time>2022-10-06T11:42:39Z</time>
      </trkpt>
      <trkpt lat="44.79361" lon="-0.12008">
        <ele>80.8</ele>
        <time>2022-10-06T11:42:40Z</time>
      </trkpt>
      <trkpt lat="44.79362" lon="-0.12011">
        <ele>80.9</ele>
        <time>2022-10-06T11:42:41Z</time>
      </trkpt>
      <trkpt lat="44.79363" lon="-0.12012">
        <ele>80.9</ele>
        <time>2022-10-06T11:42:42Z</time>
      </trkpt>
      <trkpt lat="44.79363" lon="-0.12012">
        <ele>80.9</ele>
        <time>2022-10-06T11:42:43Z</time>
      </trkpt>
      <trkpt lat="44.79364" lon="-0.12014">
        <ele>80.9</ele>
        <time>2022-10-06T11:42:44Z</time>
      </trkpt>
      <trkpt lat="44.79365" lon="-0.12016">
        <ele>80.9</ele>
        <time>2022-10-06T11:42:45Z</time>
      </trkpt>
      <trkpt lat="44.79366" lon="-0.12018">
        <ele>81</ele>
        <time>2022-10-06T11:42:46Z</time>
      </trkpt>
      <trkpt lat="44.79367" lon="-0.1202">
        <ele>81</ele>
        <time>2022-10-06T11:42:47Z</time>
      </trkpt>
      <trkpt lat="44.79367" lon="-0.12021">
        <ele>81.1</ele>
        <time>2022-10-06T11:42:48Z</time>
      </trkpt>
      <trkpt lat="44.79368" lon="-0.12022">
        <ele>81.1</ele>
        <time>2022-10-06T11:42:49Z</time>
      </trkpt>
      <trkpt lat="44.79368" lon="-0.12023">
        <ele>81.1</ele>
        <time>2022-10-06T11:42:50Z</time>
      </trkpt>
      <trkpt lat="44.79369" lon="-0.12025">
        <ele>81.1</ele>
        <time>2022-10-06T11:42:51Z</time>
      </trkpt>
      <trkpt lat="44.7937" lon="-0.12026">
        <ele>81.2</ele>
        <time>2022-10-06T11:42:52Z</time>
      </trkpt>
      <trkpt lat="44.7937" lon="-0.12027">
        <ele>81.2</ele>
        <time>2022-10-06T11:42:53Z</time>
      </trkpt>
      <trkpt lat="44.79371" lon="-0.1203">
        <ele>81.3</ele>
        <time>2022-10-06T11:42:54Z</time>
      </trkpt>
      <trkpt lat="44.79372" lon="-0.12031">
        <ele>81.3</ele>
        <time>2022-10-06T11:42:55Z</time>
      </trkpt>
      <trkpt lat="44.79372" lon="-0.12032">
        <ele>81.3</ele>
        <time>2022-10-06T11:42:56Z</time>
      </trkpt>
      <trkpt lat="44.79373" lon="-0.12033">
        <ele>81.3</ele>
        <time>2022-10-06T11:42:57Z</time>
      </trkpt>
      <trkpt lat="44.79373" lon="-0.12034">
        <ele>81.3</ele>
        <time>2022-10-06T11:42:58Z</time>
      </trkpt>
      <trkpt lat="44.79374" lon="-0.12036">
        <ele>81.3</ele>
        <time>2022-10-06T11:42:59Z</time>
      </trkpt>
      <trkpt lat="44.79375" lon="-0.12037">
        <ele>81.4</ele>
        <time>2022-10-06T11:43:00Z</time>
      </trkpt>
      <trkpt lat="44.79375" lon="-0.12039">
        <ele>81.4</ele>
        <time>2022-10-06T11:43:01Z</time>
      </trkpt>
      <trkpt lat="44.79375" lon="-0.1204">
        <ele>81.4</ele>
        <time>2022-10-06T11:43:02Z</time>
      </trkpt>
      <trkpt lat="44.79376" lon="-0.12042">
        <ele>81.4</ele>
        <time>2022-10-06T11:43:03Z</time>
      </trkpt>
      <trkpt lat="44.79377" lon="-0.12043">
        <ele>81.5</ele>
        <time>2022-10-06T11:43:04Z</time>
      </trkpt>
      <trkpt lat="44.79379" lon="-0.12043">
        <ele>81.5</ele>
        <time>2022-10-06T11:43:05Z</time>
      </trkpt>
      <trkpt lat="44.7938" lon="-0.12042">
        <ele>81.5</ele>
        <time>2022-10-06T11:43:06Z</time>
      </trkpt>
      <trkpt lat="44.7938" lon="-0.12042">
        <ele>81.5</ele>
        <time>2022-10-06T11:43:07Z</time>
      </trkpt>
      <trkpt lat="44.7938" lon="-0.12042">
        <ele>81.5</ele>
        <time>2022-10-06T11:43:08Z</time>
      </trkpt>
      <trkpt lat="44.7938" lon="-0.12042">
        <ele>81.5</ele>
        <time>2022-10-06T11:43:09Z</time>
      </trkpt>
      <trkpt lat="44.7938" lon="-0.12042">
        <ele>81.5</ele>
        <time>2022-10-06T11:43:10Z</time>
      </trkpt>
      <trkpt lat="44.7938" lon="-0.12042">
        <ele>81.5</ele>
        <time>2022-10-06T11:43:11Z</time>
      </trkpt>
      <trkpt lat="44.79379" lon="-0.12042">
        <ele>81.5</ele>
        <time>2022-10-06T11:43:13Z</time>
      </trkpt>
      <trkpt lat="44.79379" lon="-0.12042">
        <ele>81.5</ele>
        <time>2022-10-06T11:43:14Z</time>
      </trkpt>
      <trkpt lat="44.79379" lon="-0.12042">
        <ele>81.5</ele>
        <time>2022-10-06T11:43:15Z</time>
      </trkpt>
      <trkpt lat="44.79379" lon="-0.12042">
        <ele>81.5</ele>
        <time>2022-10-06T11:43:16Z</time>
      </trkpt>
      <trkpt lat="44.79379" lon="-0.12042">
        <ele>81.5</ele>
        <time>2022-10-06T11:43:17Z</time>
      </trkpt>
      <trkpt lat="44.79379" lon="-0.12042">
        <ele>81.5</ele>
        <time>2022-10-06T11:43:18Z</time>
      </trkpt>
      <trkpt lat="44.79379" lon="-0.12042">
        <ele>81.5</ele>
        <time>2022-10-06T11:43:19Z</time>
      </trkpt>
      <trkpt lat="44.79379" lon="-0.12042">
        <ele>81.5</ele>
        <time>2022-10-06T11:43:20Z</time>
      </trkpt>
      <trkpt lat="44.79381" lon="-0.12043">
        <ele>81.5</ele>
        <time>2022-10-06T11:43:21Z</time>
      </trkpt>
      <trkpt lat="44.79381" lon="-0.12044">
        <ele>81.5</ele>
        <time>2022-10-06T11:43:22Z</time>
      </trkpt>
      <trkpt lat="44.79381" lon="-0.12044">
        <ele>81.5</ele>
        <time>2022-10-06T11:43:23Z</time>
      </trkpt>
      <trkpt lat="44.7938" lon="-0.12043">
        <ele>81.5</ele>
        <time>2022-10-06T11:43:24Z</time>
      </trkpt>
      <trkpt lat="44.79379" lon="-0.12042">
        <ele>81.5</ele>
        <time>2022-10-06T11:43:25Z</time>
      </trkpt>
      <trkpt lat="44.79379" lon="-0.12042">
        <ele>81.5</ele>
        <time>2022-10-06T11:43:26Z</time>
      </trkpt>
      <trkpt lat="44.79379" lon="-0.12042">
        <ele>81.5</ele>
        <time>2022-10-06T11:43:27Z</time>
      </trkpt>
      <trkpt lat="44.79379" lon="-0.12042">
        <ele>81.5</ele>
        <time>2022-10-06T11:43:28Z</time>
      </trkpt>
      <trkpt lat="44.79379" lon="-0.12042">
        <ele>81.5</ele>
        <time>2022-10-06T11:43:29Z</time>
      </trkpt>
      <trkpt lat="44.79379" lon="-0.12042">
        <ele>81.5</ele>
        <time>2022-10-06T11:43:30Z</time>
      </trkpt>
      <trkpt lat="44.79379" lon="-0.12042">
        <ele>81.5</ele>
        <time>2022-10-06T11:43:31Z</time>
      </trkpt>
      <trkpt lat="44.79379" lon="-0.12042">
        <ele>81.5</ele>
        <time>2022-10-06T11:43:32Z</time>
      </trkpt>
      <trkpt lat="44.79379" lon="-0.12042">
        <ele>81.5</ele>
        <time>2022-10-06T11:43:33Z</time>
      </trkpt>
      <trkpt lat="44.79379" lon="-0.12042">
        <ele>81.5</ele>
        <time>2022-10-06T11:43:34Z</time>
      </trkpt>
      <trkpt lat="44.79379" lon="-0.12042">
        <ele>81.5</ele>
        <time>2022-10-06T11:43:35Z</time>
      </trkpt>
      <trkpt lat="44.79379" lon="-0.12042">
        <ele>81.5</ele>
        <time>2022-10-06T11:43:36Z</time>
      </trkpt>
      <trkpt lat="44.79379" lon="-0.12042">
        <ele>81.5</ele>
        <time>2022-10-06T11:43:37Z</time>
      </trkpt>
      <trkpt lat="44.79379" lon="-0.12042">
        <ele>81.5</ele>
        <time>2022-10-06T11:43:38Z</time>
      </trkpt>
      <trkpt lat="44.79379" lon="-0.12042">
        <ele>81.5</ele>
        <time>2022-10-06T11:43:39Z</time>
      </trkpt>
      <trkpt lat="44.79379" lon="-0.12042">
        <ele>81.5</ele>
        <time>2022-10-06T11:43:40Z</time>
      </trkpt>
      <trkpt lat="44.79379" lon="-0.12042">
        <ele>81.5</ele>
        <time>2022-10-06T11:43:41Z</time>
      </trkpt>
      <trkpt lat="44.79379" lon="-0.12042">
        <ele>81.5</ele>
        <time>2022-10-06T11:43:42Z</time>
      </trkpt>
      <trkpt lat="44.79379" lon="-0.12042">
        <ele>81.5</ele>
        <time>2022-10-06T11:43:43Z</time>
      </trkpt>
      <trkpt lat="44.79379" lon="-0.12042">
        <ele>81.5</ele>
        <time>2022-10-06T11:43:44Z</time>
      </trkpt>
      <trkpt lat="44.79379" lon="-0.12042">
        <ele>81.5</ele>
        <time>2022-10-06T11:43:45Z</time>
      </trkpt>
      <trkpt lat="44.79379" lon="-0.12042">
        <ele>81.5</ele>
        <time>2022-10-06T11:43:46Z</time>
      </trkpt>
      <trkpt lat="44.79379" lon="-0.12042">
        <ele>81.5</ele>
        <time>2022-10-06T11:43:47Z</time>
      </trkpt>
      <trkpt lat="44.79379" lon="-0.12042">
        <ele>81.5</ele>
        <time>2022-10-06T11:43:48Z</time>
      </trkpt>
      <trkpt lat="44.79379" lon="-0.12042">
        <ele>81.5</ele>
        <time>2022-10-06T11:43:49Z</time>
      </trkpt>
      <trkpt lat="44.79379" lon="-0.12042">
        <ele>81.5</ele>
        <time>2022-10-06T11:43:50Z</time>
      </trkpt>
      <trkpt lat="44.79379" lon="-0.12042">
        <ele>81.5</ele>
        <time>2022-10-06T11:43:51Z</time>
      </trkpt>
      <trkpt lat="44.79379" lon="-0.12042">
        <ele>81.5</ele>
        <time>2022-10-06T11:43:52Z</time>
      </trkpt>
      <trkpt lat="44.79379" lon="-0.12042">
        <ele>81.5</ele>
        <time>2022-10-06T11:43:53Z</time>
      </trkpt>
      <trkpt lat="44.79379" lon="-0.12042">
        <ele>81.5</ele>
        <time>2022-10-06T11:43:54Z</time>
      </trkpt>
      <trkpt lat="44.79379" lon="-0.12042">
        <ele>81.5</ele>
        <time>2022-10-06T11:43:55Z</time>
      </trkpt>
      <trkpt lat="44.79379" lon="-0.12042">
        <ele>81.5</ele>
        <time>2022-10-06T11:43:56Z</time>
      </trkpt>
      <trkpt lat="44.79379" lon="-0.12042">
        <ele>81.5</ele>
        <time>2022-10-06T11:43:57Z</time>
      </trkpt>
      <trkpt lat="44.79379" lon="-0.12042">
        <ele>81.5</ele>
        <time>2022-10-06T11:43:58Z</time>
      </trkpt>
      <trkpt lat="44.79379" lon="-0.12042">
        <ele>81.5</ele>
        <time>2022-10-06T11:43:59Z</time>
      </trkpt>
      <trkpt lat="44.79379" lon="-0.12042">
        <ele>81.5</ele>
        <time>2022-10-06T11:44:00Z</time>
      </trkpt>
      <trkpt lat="44.79379" lon="-0.12042">
        <ele>81.5</ele>
        <time>2022-10-06T11:44:01Z</time>
      </trkpt>
      <trkpt lat="44.79379" lon="-0.12042">
        <ele>81.5</ele>
        <time>2022-10-06T11:44:02Z</time>
      </trkpt>
      <trkpt lat="44.79379" lon="-0.12042">
        <ele>81.5</ele>
        <time>2022-10-06T11:44:03Z</time>
      </trkpt>
      <trkpt lat="44.79379" lon="-0.12042">
        <ele>81.5</ele>
        <time>2022-10-06T11:44:04Z</time>
      </trkpt>
      <trkpt lat="44.79379" lon="-0.12042">
        <ele>81.5</ele>
        <time>2022-10-06T11:44:05Z</time>
      </trkpt>
      <trkpt lat="44.79379" lon="-0.12042">
        <ele>81.5</ele>
        <time>2022-10-06T11:44:06Z</time>
      </trkpt>
      <trkpt lat="44.79379" lon="-0.12042">
        <ele>81.5</ele>
        <time>2022-10-06T11:44:07Z</time>
      </trkpt>
      <trkpt lat="44.79379" lon="-0.12042">
        <ele>81.5</ele>
        <time>2022-10-06T11:44:08Z</time>
      </trkpt>
      <trkpt lat="44.79379" lon="-0.12042">
        <ele>81.5</ele>
        <time>2022-10-06T11:44:09Z</time>
      </trkpt>
      <trkpt lat="44.79379" lon="-0.12042">
        <ele>81.5</ele>
        <time>2022-10-06T11:44:10Z</time>
      </trkpt>
      <trkpt lat="44.79379" lon="-0.12042">
        <ele>81.5</ele>
        <time>2022-10-06T11:44:11Z</time>
      </trkpt>
      <trkpt lat="44.79379" lon="-0.12042">
        <ele>81.5</ele>
        <time>2022-10-06T11:44:12Z</time>
      </trkpt>
      <trkpt lat="44.79379" lon="-0.12042">
        <ele>81.5</ele>
        <time>2022-10-06T11:44:13Z</time>
      </trkpt>
      <trkpt lat="44.79379" lon="-0.12042">
        <ele>81.5</ele>
        <time>2022-10-06T11:44:14Z</time>
      </trkpt>
      <trkpt lat="44.79379" lon="-0.12042">
        <ele>81.5</ele>
        <time>2022-10-06T11:44:15Z</time>
      </trkpt>
      <trkpt lat="44.79379" lon="-0.12042">
        <ele>81.5</ele>
        <time>2022-10-06T11:44:16Z</time>
      </trkpt>
      <trkpt lat="44.79379" lon="-0.12042">
        <ele>81.5</ele>
        <time>2022-10-06T11:44:17Z</time>
      </trkpt>
      <trkpt lat="44.79379" lon="-0.12042">
        <ele>81.5</ele>
        <time>2022-10-06T11:44:18Z</time>
      </trkpt>
      <trkpt lat="44.79379" lon="-0.12043">
        <ele>81.5</ele>
        <time>2022-10-06T11:44:19Z</time>
      </trkpt>
      <trkpt lat="44.7938" lon="-0.12044">
        <ele>81.5</ele>
        <time>2022-10-06T11:44:20Z</time>
      </trkpt>
      <trkpt lat="44.7938" lon="-0.12044">
        <ele>81.5</ele>
        <time>2022-10-06T11:44:21Z</time>
      </trkpt>
      <trkpt lat="44.7938" lon="-0.12045">
        <ele>81.5</ele>
        <time>2022-10-06T11:44:22Z</time>
      </trkpt>
      <trkpt lat="44.79381" lon="-0.12046">
        <ele>81.5</ele>
        <time>2022-10-06T11:44:23Z</time>
      </trkpt>
      <trkpt lat="44.79381" lon="-0.12047">
        <ele>81.6</ele>
        <time>2022-10-06T11:44:24Z</time>
      </trkpt>
      <trkpt lat="44.79381" lon="-0.12048">
        <ele>81.6</ele>
        <time>2022-10-06T11:44:25Z</time>
      </trkpt>
      <trkpt lat="44.79381" lon="-0.12049">
        <ele>81.6</ele>
        <time>2022-10-06T11:44:26Z</time>
      </trkpt>
      <trkpt lat="44.79382" lon="-0.12051">
        <ele>81.7</ele>
        <time>2022-10-06T11:44:27Z</time>
      </trkpt>
      <trkpt lat="44.79382" lon="-0.12052">
        <ele>81.7</ele>
        <time>2022-10-06T11:44:28Z</time>
      </trkpt>
      <trkpt lat="44.79383" lon="-0.12053">
        <ele>81.7</ele>
        <time>2022-10-06T11:44:29Z</time>
      </trkpt>
      <trkpt lat="44.79384" lon="-0.12054">
        <ele>81.7</ele>
        <time>2022-10-06T11:44:30Z</time>
      </trkpt>
      <trkpt lat="44.79384" lon="-0.12055">
        <ele>81.7</ele>
        <time>2022-10-06T11:44:31Z</time>
      </trkpt>
      <trkpt lat="44.79385" lon="-0.12058">
        <ele>81.7</ele>
        <time>2022-10-06T11:44:32Z</time>
      </trkpt>
      <trkpt lat="44.79385" lon="-0.12058">
        <ele>81.7</ele>
        <time>2022-10-06T11:44:33Z</time>
      </trkpt>
      <trkpt lat="44.79385" lon="-0.12059">
        <ele>81.8</ele>
        <time>2022-10-06T11:44:34Z</time>
      </trkpt>
      <trkpt lat="44.79386" lon="-0.12061">
        <ele>81.8</ele>
        <time>2022-10-06T11:44:35Z</time>
      </trkpt>
      <trkpt lat="44.79386" lon="-0.12062">
        <ele>81.8</ele>
        <time>2022-10-06T11:44:36Z</time>
      </trkpt>
      <trkpt lat="44.79387" lon="-0.12064">
        <ele>81.9</ele>
        <time>2022-10-06T11:44:37Z</time>
      </trkpt>
      <trkpt lat="44.79387" lon="-0.12065">
        <ele>81.9</ele>
        <time>2022-10-06T11:44:38Z</time>
      </trkpt>
      <trkpt lat="44.79388" lon="-0.12066">
        <ele>81.9</ele>
        <time>2022-10-06T11:44:39Z</time>
      </trkpt>
      <trkpt lat="44.79388" lon="-0.12067">
        <ele>81.9</ele>
        <time>2022-10-06T11:44:40Z</time>
      </trkpt>
      <trkpt lat="44.79388" lon="-0.12067">
        <ele>81.9</ele>
        <time>2022-10-06T11:44:41Z</time>
      </trkpt>
      <trkpt lat="44.79389" lon="-0.12068">
        <ele>81.9</ele>
        <time>2022-10-06T11:44:42Z</time>
      </trkpt>
      <trkpt lat="44.79389" lon="-0.12069">
        <ele>81.9</ele>
        <time>2022-10-06T11:44:43Z</time>
      </trkpt>
      <trkpt lat="44.79389" lon="-0.1207">
        <ele>81.9</ele>
        <time>2022-10-06T11:44:44Z</time>
      </trkpt>
      <trkpt lat="44.7939" lon="-0.12072">
        <ele>81.9</ele>
        <time>2022-10-06T11:44:45Z</time>
      </trkpt>
      <trkpt lat="44.7939" lon="-0.12072">
        <ele>81.9</ele>
        <time>2022-10-06T11:44:46Z</time>
      </trkpt>
      <trkpt lat="44.79391" lon="-0.12073">
        <ele>81.9</ele>
        <time>2022-10-06T11:44:47Z</time>
      </trkpt>
      <trkpt lat="44.79391" lon="-0.12074">
        <ele>81.9</ele>
        <time>2022-10-06T11:44:48Z</time>
      </trkpt>
      <trkpt lat="44.79392" lon="-0.12075">
        <ele>81.9</ele>
        <time>2022-10-06T11:44:49Z</time>
      </trkpt>
      <trkpt lat="44.79392" lon="-0.12077">
        <ele>82</ele>
        <time>2022-10-06T11:44:50Z</time>
      </trkpt>
      <trkpt lat="44.79393" lon="-0.12078">
        <ele>82</ele>
        <time>2022-10-06T11:44:51Z</time>
      </trkpt>
      <trkpt lat="44.79394" lon="-0.1208">
        <ele>82</ele>
        <time>2022-10-06T11:44:52Z</time>
      </trkpt>
      <trkpt lat="44.79394" lon="-0.12081">
        <ele>82</ele>
        <time>2022-10-06T11:44:53Z</time>
      </trkpt>
      <trkpt lat="44.79395" lon="-0.12082">
        <ele>82</ele>
        <time>2022-10-06T11:44:54Z</time>
      </trkpt>
      <trkpt lat="44.79395" lon="-0.12083">
        <ele>82</ele>
        <time>2022-10-06T11:44:55Z</time>
      </trkpt>
      <trkpt lat="44.79396" lon="-0.12084">
        <ele>82.1</ele>
        <time>2022-10-06T11:44:56Z</time>
      </trkpt>
      <trkpt lat="44.79396" lon="-0.12085">
        <ele>82.1</ele>
        <time>2022-10-06T11:44:57Z</time>
      </trkpt>
      <trkpt lat="44.79397" lon="-0.12086">
        <ele>82.1</ele>
        <time>2022-10-06T11:44:58Z</time>
      </trkpt>
      <trkpt lat="44.79397" lon="-0.12087">
        <ele>82.1</ele>
        <time>2022-10-06T11:44:59Z</time>
      </trkpt>
      <trkpt lat="44.79397" lon="-0.12089">
        <ele>82.1</ele>
        <time>2022-10-06T11:45:00Z</time>
      </trkpt>
      <trkpt lat="44.79398" lon="-0.1209">
        <ele>82.1</ele>
        <time>2022-10-06T11:45:01Z</time>
      </trkpt>
      <trkpt lat="44.79398" lon="-0.12091">
        <ele>82.1</ele>
        <time>2022-10-06T11:45:02Z</time>
      </trkpt>
      <trkpt lat="44.79399" lon="-0.12092">
        <ele>82.1</ele>
        <time>2022-10-06T11:45:03Z</time>
      </trkpt>
      <trkpt lat="44.794" lon="-0.12093">
        <ele>82.1</ele>
        <time>2022-10-06T11:45:04Z</time>
      </trkpt>
      <trkpt lat="44.79401" lon="-0.12094">
        <ele>82.1</ele>
        <time>2022-10-06T11:45:05Z</time>
      </trkpt>
      <trkpt lat="44.79402" lon="-0.12096">
        <ele>82.1</ele>
        <time>2022-10-06T11:45:06Z</time>
      </trkpt>
      <trkpt lat="44.79402" lon="-0.12097">
        <ele>82.2</ele>
        <time>2022-10-06T11:45:07Z</time>
      </trkpt>
      <trkpt lat="44.79403" lon="-0.12097">
        <ele>82.2</ele>
        <time>2022-10-06T11:45:08Z</time>
      </trkpt>
      <trkpt lat="44.79403" lon="-0.12098">
        <ele>82.2</ele>
        <time>2022-10-06T11:45:09Z</time>
      </trkpt>
      <trkpt lat="44.79404" lon="-0.121">
        <ele>82.2</ele>
        <time>2022-10-06T11:45:10Z</time>
      </trkpt>
      <trkpt lat="44.79404" lon="-0.12101">
        <ele>82.2</ele>
        <time>2022-10-06T11:45:11Z</time>
      </trkpt>
      <trkpt lat="44.79405" lon="-0.12101">
        <ele>82.2</ele>
        <time>2022-10-06T11:45:12Z</time>
      </trkpt>
      <trkpt lat="44.79405" lon="-0.12103">
        <ele>82.2</ele>
        <time>2022-10-06T11:45:13Z</time>
      </trkpt>
      <trkpt lat="44.79406" lon="-0.12104">
        <ele>82.2</ele>
        <time>2022-10-06T11:45:14Z</time>
      </trkpt>
      <trkpt lat="44.79407" lon="-0.12105">
        <ele>82.2</ele>
        <time>2022-10-06T11:45:15Z</time>
      </trkpt>
      <trkpt lat="44.79408" lon="-0.12107">
        <ele>82.2</ele>
        <time>2022-10-06T11:45:16Z</time>
      </trkpt>
      <trkpt lat="44.79409" lon="-0.12108">
        <ele>82.3</ele>
        <time>2022-10-06T11:45:17Z</time>
      </trkpt>
      <trkpt lat="44.79409" lon="-0.12108">
        <ele>82.3</ele>
        <time>2022-10-06T11:45:18Z</time>
      </trkpt>
      <trkpt lat="44.7941" lon="-0.12109">
        <ele>82.3</ele>
        <time>2022-10-06T11:45:19Z</time>
      </trkpt>
      <trkpt lat="44.7941" lon="-0.1211">
        <ele>82.3</ele>
        <time>2022-10-06T11:45:20Z</time>
      </trkpt>
      <trkpt lat="44.79411" lon="-0.12112">
        <ele>82.3</ele>
        <time>2022-10-06T11:45:21Z</time>
      </trkpt>
      <trkpt lat="44.79412" lon="-0.12113">
        <ele>82.3</ele>
        <time>2022-10-06T11:45:22Z</time>
      </trkpt>
      <trkpt lat="44.79413" lon="-0.12115">
        <ele>82.3</ele>
        <time>2022-10-06T11:45:23Z</time>
      </trkpt>
      <trkpt lat="44.79414" lon="-0.12116">
        <ele>82.3</ele>
        <time>2022-10-06T11:45:24Z</time>
      </trkpt>
      <trkpt lat="44.79414" lon="-0.12117">
        <ele>82.4</ele>
        <time>2022-10-06T11:45:25Z</time>
      </trkpt>
      <trkpt lat="44.79415" lon="-0.12118">
        <ele>82.4</ele>
        <time>2022-10-06T11:45:26Z</time>
      </trkpt>
      <trkpt lat="44.79416" lon="-0.12119">
        <ele>82.4</ele>
        <time>2022-10-06T11:45:27Z</time>
      </trkpt>
      <trkpt lat="44.79417" lon="-0.1212">
        <ele>82.5</ele>
        <time>2022-10-06T11:45:28Z</time>
      </trkpt>
      <trkpt lat="44.79418" lon="-0.12121">
        <ele>82.5</ele>
        <time>2022-10-06T11:45:29Z</time>
      </trkpt>
      <trkpt lat="44.79419" lon="-0.12121">
        <ele>82.5</ele>
        <time>2022-10-06T11:45:30Z</time>
      </trkpt>
      <trkpt lat="44.7942" lon="-0.12123">
        <ele>82.5</ele>
        <time>2022-10-06T11:45:31Z</time>
      </trkpt>
      <trkpt lat="44.7942" lon="-0.12123">
        <ele>82.5</ele>
        <time>2022-10-06T11:45:32Z</time>
      </trkpt>
      <trkpt lat="44.79421" lon="-0.12124">
        <ele>82.5</ele>
        <time>2022-10-06T11:45:33Z</time>
      </trkpt>
      <trkpt lat="44.79421" lon="-0.12125">
        <ele>82.5</ele>
        <time>2022-10-06T11:45:34Z</time>
      </trkpt>
      <trkpt lat="44.79421" lon="-0.12125">
        <ele>82.5</ele>
        <time>2022-10-06T11:45:35Z</time>
      </trkpt>
      <trkpt lat="44.79421" lon="-0.12127">
        <ele>82.5</ele>
        <time>2022-10-06T11:45:36Z</time>
      </trkpt>
      <trkpt lat="44.79422" lon="-0.12127">
        <ele>82.5</ele>
        <time>2022-10-06T11:45:37Z</time>
      </trkpt>
      <trkpt lat="44.79422" lon="-0.12128">
        <ele>82.6</ele>
        <time>2022-10-06T11:45:38Z</time>
      </trkpt>
      <trkpt lat="44.79422" lon="-0.12129">
        <ele>82.6</ele>
        <time>2022-10-06T11:45:39Z</time>
      </trkpt>
      <trkpt lat="44.79423" lon="-0.1213">
        <ele>82.6</ele>
        <time>2022-10-06T11:45:40Z</time>
      </trkpt>
      <trkpt lat="44.79424" lon="-0.12132">
        <ele>82.6</ele>
        <time>2022-10-06T11:45:41Z</time>
      </trkpt>
      <trkpt lat="44.79424" lon="-0.12131">
        <ele>82.6</ele>
        <time>2022-10-06T11:45:42Z</time>
      </trkpt>
      <trkpt lat="44.79424" lon="-0.12131">
        <ele>82.6</ele>
        <time>2022-10-06T11:45:43Z</time>
      </trkpt>
      <trkpt lat="44.79424" lon="-0.12131">
        <ele>82.6</ele>
        <time>2022-10-06T11:45:44Z</time>
      </trkpt>
      <trkpt lat="44.79423" lon="-0.12131">
        <ele>82.6</ele>
        <time>2022-10-06T11:45:45Z</time>
      </trkpt>
      <trkpt lat="44.79423" lon="-0.12131">
        <ele>82.6</ele>
        <time>2022-10-06T11:45:46Z</time>
      </trkpt>
      <trkpt lat="44.79423" lon="-0.12131">
        <ele>82.6</ele>
        <time>2022-10-06T11:45:47Z</time>
      </trkpt>
      <trkpt lat="44.79423" lon="-0.12131">
        <ele>82.6</ele>
        <time>2022-10-06T11:45:48Z</time>
      </trkpt>
      <trkpt lat="44.79423" lon="-0.12131">
        <ele>82.6</ele>
        <time>2022-10-06T11:45:49Z</time>
      </trkpt>
      <trkpt lat="44.79423" lon="-0.12131">
        <ele>82.6</ele>
        <time>2022-10-06T11:45:50Z</time>
      </trkpt>
      <trkpt lat="44.79423" lon="-0.12131">
        <ele>82.6</ele>
        <time>2022-10-06T11:45:51Z</time>
      </trkpt>
      <trkpt lat="44.79423" lon="-0.12131">
        <ele>82.6</ele>
        <time>2022-10-06T11:45:52Z</time>
      </trkpt>
      <trkpt lat="44.79423" lon="-0.12131">
        <ele>82.6</ele>
        <time>2022-10-06T11:45:53Z</time>
      </trkpt>
      <trkpt lat="44.79423" lon="-0.12131">
        <ele>82.6</ele>
        <time>2022-10-06T11:45:54Z</time>
      </trkpt>
      <trkpt lat="44.79423" lon="-0.12131">
        <ele>82.6</ele>
        <time>2022-10-06T11:45:55Z</time>
      </trkpt>
      <trkpt lat="44.79423" lon="-0.12131">
        <ele>82.6</ele>
        <time>2022-10-06T11:45:56Z</time>
      </trkpt>
      <trkpt lat="44.79423" lon="-0.12131">
        <ele>82.6</ele>
        <time>2022-10-06T11:45:57Z</time>
      </trkpt>
      <trkpt lat="44.79423" lon="-0.12131">
        <ele>82.6</ele>
        <time>2022-10-06T11:45:58Z</time>
      </trkpt>
      <trkpt lat="44.79423" lon="-0.12131">
        <ele>82.6</ele>
        <time>2022-10-06T11:45:59Z</time>
      </trkpt>
      <trkpt lat="44.79423" lon="-0.12131">
        <ele>82.6</ele>
        <time>2022-10-06T11:46:00Z</time>
      </trkpt>
      <trkpt lat="44.79423" lon="-0.12131">
        <ele>82.6</ele>
        <time>2022-10-06T11:46:01Z</time>
      </trkpt>
      <trkpt lat="44.79423" lon="-0.1213">
        <ele>82.6</ele>
        <time>2022-10-06T11:46:02Z</time>
      </trkpt>
      <trkpt lat="44.79423" lon="-0.1213">
        <ele>82.6</ele>
        <time>2022-10-06T11:46:03Z</time>
      </trkpt>
      <trkpt lat="44.79423" lon="-0.1213">
        <ele>82.6</ele>
        <time>2022-10-06T11:46:04Z</time>
      </trkpt>
      <trkpt lat="44.79423" lon="-0.1213">
        <ele>82.6</ele>
        <time>2022-10-06T11:46:05Z</time>
      </trkpt>
      <trkpt lat="44.79423" lon="-0.1213">
        <ele>82.6</ele>
        <time>2022-10-06T11:46:06Z</time>
      </trkpt>
      <trkpt lat="44.79423" lon="-0.1213">
        <ele>82.6</ele>
        <time>2022-10-06T11:46:07Z</time>
      </trkpt>
      <trkpt lat="44.79423" lon="-0.1213">
        <ele>82.6</ele>
        <time>2022-10-06T11:46:08Z</time>
      </trkpt>
      <trkpt lat="44.79423" lon="-0.1213">
        <ele>82.6</ele>
        <time>2022-10-06T11:46:09Z</time>
      </trkpt>
      <trkpt lat="44.79423" lon="-0.1213">
        <ele>82.6</ele>
        <time>2022-10-06T11:46:10Z</time>
      </trkpt>
      <trkpt lat="44.79423" lon="-0.1213">
        <ele>82.6</ele>
        <time>2022-10-06T11:46:11Z</time>
      </trkpt>
      <trkpt lat="44.79423" lon="-0.1213">
        <ele>82.6</ele>
        <time>2022-10-06T11:46:12Z</time>
      </trkpt>
      <trkpt lat="44.79423" lon="-0.1213">
        <ele>82.6</ele>
        <time>2022-10-06T11:46:13Z</time>
      </trkpt>
      <trkpt lat="44.79423" lon="-0.1213">
        <ele>82.6</ele>
        <time>2022-10-06T11:46:14Z</time>
      </trkpt>
      <trkpt lat="44.79423" lon="-0.1213">
        <ele>82.6</ele>
        <time>2022-10-06T11:46:15Z</time>
      </trkpt>
      <trkpt lat="44.79423" lon="-0.1213">
        <ele>82.6</ele>
        <time>2022-10-06T11:46:16Z</time>
      </trkpt>
      <trkpt lat="44.79423" lon="-0.1213">
        <ele>82.6</ele>
        <time>2022-10-06T11:46:17Z</time>
      </trkpt>
      <trkpt lat="44.79423" lon="-0.1213">
        <ele>82.6</ele>
        <time>2022-10-06T11:46:18Z</time>
      </trkpt>
      <trkpt lat="44.79423" lon="-0.1213">
        <ele>82.6</ele>
        <time>2022-10-06T11:46:19Z</time>
      </trkpt>
      <trkpt lat="44.79423" lon="-0.1213">
        <ele>82.6</ele>
        <time>2022-10-06T11:46:20Z</time>
      </trkpt>
      <trkpt lat="44.79423" lon="-0.1213">
        <ele>82.6</ele>
        <time>2022-10-06T11:46:21Z</time>
      </trkpt>
      <trkpt lat="44.79423" lon="-0.1213">
        <ele>82.6</ele>
        <time>2022-10-06T11:46:22Z</time>
      </trkpt>
      <trkpt lat="44.79423" lon="-0.1213">
        <ele>82.6</ele>
        <time>2022-10-06T11:46:23Z</time>
      </trkpt>
      <trkpt lat="44.79423" lon="-0.1213">
        <ele>82.6</ele>
        <time>2022-10-06T11:46:24Z</time>
      </trkpt>
      <trkpt lat="44.79423" lon="-0.1213">
        <ele>82.6</ele>
        <time>2022-10-06T11:46:25Z</time>
      </trkpt>
      <trkpt lat="44.79423" lon="-0.1213">
        <ele>82.6</ele>
        <time>2022-10-06T11:46:26Z</time>
      </trkpt>
      <trkpt lat="44.79423" lon="-0.1213">
        <ele>82.6</ele>
        <time>2022-10-06T11:46:27Z</time>
      </trkpt>
      <trkpt lat="44.79423" lon="-0.1213">
        <ele>82.6</ele>
        <time>2022-10-06T11:46:28Z</time>
      </trkpt>
      <trkpt lat="44.79423" lon="-0.1213">
        <ele>82.6</ele>
        <time>2022-10-06T11:46:29Z</time>
      </trkpt>
      <trkpt lat="44.79423" lon="-0.1213">
        <ele>82.6</ele>
        <time>2022-10-06T11:46:30Z</time>
      </trkpt>
      <trkpt lat="44.79423" lon="-0.1213">
        <ele>82.6</ele>
        <time>2022-10-06T11:46:31Z</time>
      </trkpt>
      <trkpt lat="44.79423" lon="-0.1213">
        <ele>82.6</ele>
        <time>2022-10-06T11:46:32Z</time>
      </trkpt>
      <trkpt lat="44.79423" lon="-0.1213">
        <ele>82.6</ele>
        <time>2022-10-06T11:46:33Z</time>
      </trkpt>
      <trkpt lat="44.79423" lon="-0.1213">
        <ele>82.6</ele>
        <time>2022-10-06T11:46:34Z</time>
      </trkpt>
      <trkpt lat="44.79423" lon="-0.1213">
        <ele>82.6</ele>
        <time>2022-10-06T11:46:35Z</time>
      </trkpt>
      <trkpt lat="44.79423" lon="-0.1213">
        <ele>82.6</ele>
        <time>2022-10-06T11:46:36Z</time>
      </trkpt>
      <trkpt lat="44.79423" lon="-0.1213">
        <ele>82.6</ele>
        <time>2022-10-06T11:46:37Z</time>
      </trkpt>
      <trkpt lat="44.79423" lon="-0.1213">
        <ele>82.6</ele>
        <time>2022-10-06T11:46:38Z</time>
      </trkpt>
      <trkpt lat="44.79423" lon="-0.1213">
        <ele>82.6</ele>
        <time>2022-10-06T11:46:39Z</time>
      </trkpt>
      <trkpt lat="44.79423" lon="-0.1213">
        <ele>82.6</ele>
        <time>2022-10-06T11:46:40Z</time>
      </trkpt>
      <trkpt lat="44.79423" lon="-0.1213">
        <ele>82.6</ele>
        <time>2022-10-06T11:46:41Z</time>
      </trkpt>
      <trkpt lat="44.79423" lon="-0.1213">
        <ele>82.6</ele>
        <time>2022-10-06T11:46:42Z</time>
      </trkpt>
      <trkpt lat="44.79423" lon="-0.1213">
        <ele>82.6</ele>
        <time>2022-10-06T11:46:43Z</time>
      </trkpt>
      <trkpt lat="44.79423" lon="-0.1213">
        <ele>82.6</ele>
        <time>2022-10-06T11:46:44Z</time>
      </trkpt>
      <trkpt lat="44.79423" lon="-0.1213">
        <ele>82.6</ele>
        <time>2022-10-06T11:46:45Z</time>
      </trkpt>
      <trkpt lat="44.79423" lon="-0.1213">
        <ele>82.6</ele>
        <time>2022-10-06T11:46:46Z</time>
      </trkpt>
      <trkpt lat="44.79423" lon="-0.1213">
        <ele>82.6</ele>
        <time>2022-10-06T11:46:47Z</time>
      </trkpt>
      <trkpt lat="44.79423" lon="-0.1213">
        <ele>82.6</ele>
        <time>2022-10-06T11:46:48Z</time>
      </trkpt>
      <trkpt lat="44.79423" lon="-0.1213">
        <ele>82.6</ele>
        <time>2022-10-06T11:46:49Z</time>
      </trkpt>
      <trkpt lat="44.79423" lon="-0.1213">
        <ele>82.6</ele>
        <time>2022-10-06T11:46:50Z</time>
      </trkpt>
      <trkpt lat="44.79423" lon="-0.1213">
        <ele>82.6</ele>
        <time>2022-10-06T11:46:51Z</time>
      </trkpt>
      <trkpt lat="44.79423" lon="-0.1213">
        <ele>82.6</ele>
        <time>2022-10-06T11:46:52Z</time>
      </trkpt>
      <trkpt lat="44.79423" lon="-0.1213">
        <ele>82.6</ele>
        <time>2022-10-06T11:46:53Z</time>
      </trkpt>
      <trkpt lat="44.79423" lon="-0.1213">
        <ele>82.6</ele>
        <time>2022-10-06T11:46:54Z</time>
      </trkpt>
      <trkpt lat="44.79423" lon="-0.1213">
        <ele>82.6</ele>
        <time>2022-10-06T11:46:55Z</time>
      </trkpt>
      <trkpt lat="44.79423" lon="-0.1213">
        <ele>82.6</ele>
        <time>2022-10-06T11:46:56Z</time>
      </trkpt>
      <trkpt lat="44.79423" lon="-0.1213">
        <ele>82.6</ele>
        <time>2022-10-06T11:46:57Z</time>
      </trkpt>
      <trkpt lat="44.79423" lon="-0.12129">
        <ele>82.6</ele>
        <time>2022-10-06T11:46:58Z</time>
      </trkpt>
      <trkpt lat="44.79423" lon="-0.12128">
        <ele>82.5</ele>
        <time>2022-10-06T11:46:59Z</time>
      </trkpt>
      <trkpt lat="44.79423" lon="-0.12126">
        <ele>82.5</ele>
        <time>2022-10-06T11:47:00Z</time>
      </trkpt>
      <trkpt lat="44.79422" lon="-0.12125">
        <ele>82.5</ele>
        <time>2022-10-06T11:47:01Z</time>
      </trkpt>
      <trkpt lat="44.79421" lon="-0.12124">
        <ele>82.5</ele>
        <time>2022-10-06T11:47:02Z</time>
      </trkpt>
      <trkpt lat="44.7942" lon="-0.12123">
        <ele>82.5</ele>
        <time>2022-10-06T11:47:03Z</time>
      </trkpt>
      <trkpt lat="44.7942" lon="-0.12123">
        <ele>82.5</ele>
        <time>2022-10-06T11:47:04Z</time>
      </trkpt>
      <trkpt lat="44.7942" lon="-0.12121">
        <ele>82.5</ele>
        <time>2022-10-06T11:47:05Z</time>
      </trkpt>
      <trkpt lat="44.79419" lon="-0.12119">
        <ele>82.5</ele>
        <time>2022-10-06T11:47:06Z</time>
      </trkpt>
      <trkpt lat="44.79419" lon="-0.12118">
        <ele>82.4</ele>
        <time>2022-10-06T11:47:07Z</time>
      </trkpt>
      <trkpt lat="44.79419" lon="-0.12117">
        <ele>82.4</ele>
        <time>2022-10-06T11:47:08Z</time>
      </trkpt>
      <trkpt lat="44.79418" lon="-0.12115">
        <ele>82.4</ele>
        <time>2022-10-06T11:47:09Z</time>
      </trkpt>
      <trkpt lat="44.79418" lon="-0.12114">
        <ele>82.4</ele>
        <time>2022-10-06T11:47:10Z</time>
      </trkpt>
      <trkpt lat="44.79418" lon="-0.12112">
        <ele>82.4</ele>
        <time>2022-10-06T11:47:11Z</time>
      </trkpt>
      <trkpt lat="44.79418" lon="-0.12111">
        <ele>82.4</ele>
        <time>2022-10-06T11:47:12Z</time>
      </trkpt>
      <trkpt lat="44.79418" lon="-0.12109">
        <ele>82.4</ele>
        <time>2022-10-06T11:47:13Z</time>
      </trkpt>
      <trkpt lat="44.79419" lon="-0.12108">
        <ele>82.4</ele>
        <time>2022-10-06T11:47:14Z</time>
      </trkpt>
      <trkpt lat="44.7942" lon="-0.12107">
        <ele>82.4</ele>
        <time>2022-10-06T11:47:15Z</time>
      </trkpt>
      <trkpt lat="44.79421" lon="-0.12106">
        <ele>82.4</ele>
        <time>2022-10-06T11:47:16Z</time>
      </trkpt>
      <trkpt lat="44.79421" lon="-0.12105">
        <ele>82.4</ele>
        <time>2022-10-06T11:47:17Z</time>
      </trkpt>
      <trkpt lat="44.79422" lon="-0.12105">
        <ele>82.4</ele>
        <time>2022-10-06T11:47:18Z</time>
      </trkpt>
      <trkpt lat="44.79423" lon="-0.12104">
        <ele>82.4</ele>
        <time>2022-10-06T11:47:19Z</time>
      </trkpt>
      <trkpt lat="44.79423" lon="-0.12105">
        <ele>82.4</ele>
        <time>2022-10-06T11:47:20Z</time>
      </trkpt>
      <trkpt lat="44.79423" lon="-0.12108">
        <ele>82.4</ele>
        <time>2022-10-06T11:47:21Z</time>
      </trkpt>
      <trkpt lat="44.79423" lon="-0.12109">
        <ele>82.4</ele>
        <time>2022-10-06T11:47:22Z</time>
      </trkpt>
      <trkpt lat="44.79422" lon="-0.12109">
        <ele>82.4</ele>
        <time>2022-10-06T11:47:23Z</time>
      </trkpt>
      <trkpt lat="44.79422" lon="-0.12109">
        <ele>82.4</ele>
        <time>2022-10-06T11:47:24Z</time>
      </trkpt>
      <trkpt lat="44.79421" lon="-0.1211">
        <ele>82.3</ele>
        <time>2022-10-06T11:47:25Z</time>
      </trkpt>
      <trkpt lat="44.79422" lon="-0.1211">
        <ele>82.3</ele>
        <time>2022-10-06T11:47:26Z</time>
      </trkpt>
      <trkpt lat="44.79421" lon="-0.1211">
        <ele>82.3</ele>
        <time>2022-10-06T11:47:27Z</time>
      </trkpt>
      <trkpt lat="44.79421" lon="-0.1211">
        <ele>82.3</ele>
        <time>2022-10-06T11:47:28Z</time>
      </trkpt>
      <trkpt lat="44.79421" lon="-0.1211">
        <ele>82.3</ele>
        <time>2022-10-06T11:47:29Z</time>
      </trkpt>
      <trkpt lat="44.79421" lon="-0.1211">
        <ele>82.3</ele>
        <time>2022-10-06T11:47:30Z</time>
      </trkpt>
      <trkpt lat="44.79421" lon="-0.1211">
        <ele>82.3</ele>
        <time>2022-10-06T11:47:31Z</time>
      </trkpt>
      <trkpt lat="44.79421" lon="-0.1211">
        <ele>82.3</ele>
        <time>2022-10-06T11:47:32Z</time>
      </trkpt>
      <trkpt lat="44.79421" lon="-0.1211">
        <ele>82.3</ele>
        <time>2022-10-06T11:47:33Z</time>
      </trkpt>
      <trkpt lat="44.79421" lon="-0.1211">
        <ele>82.3</ele>
        <time>2022-10-06T11:47:34Z</time>
      </trkpt>
      <trkpt lat="44.79421" lon="-0.1211">
        <ele>82.3</ele>
        <time>2022-10-06T11:47:35Z</time>
      </trkpt>
      <trkpt lat="44.79421" lon="-0.1211">
        <ele>82.3</ele>
        <time>2022-10-06T11:47:36Z</time>
      </trkpt>
      <trkpt lat="44.79421" lon="-0.1211">
        <ele>82.3</ele>
        <time>2022-10-06T11:47:37Z</time>
      </trkpt>
      <trkpt lat="44.79421" lon="-0.1211">
        <ele>82.3</ele>
        <time>2022-10-06T11:47:38Z</time>
      </trkpt>
      <trkpt lat="44.79421" lon="-0.1211">
        <ele>82.3</ele>
        <time>2022-10-06T11:47:39Z</time>
      </trkpt>
      <trkpt lat="44.79421" lon="-0.1211">
        <ele>82.3</ele>
        <time>2022-10-06T11:47:40Z</time>
      </trkpt>
      <trkpt lat="44.79421" lon="-0.1211">
        <ele>82.3</ele>
        <time>2022-10-06T11:47:41Z</time>
      </trkpt>
      <trkpt lat="44.79421" lon="-0.1211">
        <ele>82.3</ele>
        <time>2022-10-06T11:47:42Z</time>
      </trkpt>
      <trkpt lat="44.79421" lon="-0.1211">
        <ele>82.3</ele>
        <time>2022-10-06T11:47:43Z</time>
      </trkpt>
      <trkpt lat="44.79421" lon="-0.1211">
        <ele>82.3</ele>
        <time>2022-10-06T11:47:44Z</time>
      </trkpt>
      <trkpt lat="44.79421" lon="-0.1211">
        <ele>82.3</ele>
        <time>2022-10-06T11:47:45Z</time>
      </trkpt>
      <trkpt lat="44.79421" lon="-0.1211">
        <ele>82.3</ele>
        <time>2022-10-06T11:47:46Z</time>
      </trkpt>
      <trkpt lat="44.79421" lon="-0.1211">
        <ele>82.3</ele>
        <time>2022-10-06T11:47:47Z</time>
      </trkpt>
      <trkpt lat="44.79421" lon="-0.1211">
        <ele>82.3</ele>
        <time>2022-10-06T11:47:48Z</time>
      </trkpt>
      <trkpt lat="44.79421" lon="-0.12109">
        <ele>82.3</ele>
        <time>2022-10-06T11:47:49Z</time>
      </trkpt>
      <trkpt lat="44.79421" lon="-0.12109">
        <ele>82.3</ele>
        <time>2022-10-06T11:47:50Z</time>
      </trkpt>
      <trkpt lat="44.7942" lon="-0.12109">
        <ele>82.3</ele>
        <time>2022-10-06T11:47:51Z</time>
      </trkpt>
      <trkpt lat="44.7942" lon="-0.12109">
        <ele>82.3</ele>
        <time>2022-10-06T11:47:52Z</time>
      </trkpt>
      <trkpt lat="44.7942" lon="-0.12109">
        <ele>82.3</ele>
        <time>2022-10-06T11:47:53Z</time>
      </trkpt>
      <trkpt lat="44.7942" lon="-0.12109">
        <ele>82.3</ele>
        <time>2022-10-06T11:47:54Z</time>
      </trkpt>
      <trkpt lat="44.7942" lon="-0.12109">
        <ele>82.3</ele>
        <time>2022-10-06T11:47:55Z</time>
      </trkpt>
      <trkpt lat="44.7942" lon="-0.12109">
        <ele>82.3</ele>
        <time>2022-10-06T11:47:56Z</time>
      </trkpt>
      <trkpt lat="44.7942" lon="-0.12109">
        <ele>82.3</ele>
        <time>2022-10-06T11:47:57Z</time>
      </trkpt>
      <trkpt lat="44.7942" lon="-0.12109">
        <ele>82.3</ele>
        <time>2022-10-06T11:47:58Z</time>
      </trkpt>
      <trkpt lat="44.7942" lon="-0.1211">
        <ele>82.3</ele>
        <time>2022-10-06T11:47:59Z</time>
      </trkpt>
      <trkpt lat="44.7942" lon="-0.1211">
        <ele>82.3</ele>
        <time>2022-10-06T11:48:00Z</time>
      </trkpt>
      <trkpt lat="44.7942" lon="-0.1211">
        <ele>82.3</ele>
        <time>2022-10-06T11:48:01Z</time>
      </trkpt>
      <trkpt lat="44.7942" lon="-0.1211">
        <ele>82.3</ele>
        <time>2022-10-06T11:48:02Z</time>
      </trkpt>
      <trkpt lat="44.79419" lon="-0.1211">
        <ele>82.3</ele>
        <time>2022-10-06T11:48:03Z</time>
      </trkpt>
      <trkpt lat="44.79418" lon="-0.12111">
        <ele>82.3</ele>
        <time>2022-10-06T11:48:04Z</time>
      </trkpt>
      <trkpt lat="44.79417" lon="-0.12111">
        <ele>82.3</ele>
        <time>2022-10-06T11:48:05Z</time>
      </trkpt>
      <trkpt lat="44.79417" lon="-0.12112">
        <ele>82.3</ele>
        <time>2022-10-06T11:48:06Z</time>
      </trkpt>
      <trkpt lat="44.79416" lon="-0.12112">
        <ele>82.3</ele>
        <time>2022-10-06T11:48:07Z</time>
      </trkpt>
      <trkpt lat="44.79415" lon="-0.12113">
        <ele>82.3</ele>
        <time>2022-10-06T11:48:08Z</time>
      </trkpt>
      <trkpt lat="44.79415" lon="-0.12114">
        <ele>82.3</ele>
        <time>2022-10-06T11:48:09Z</time>
      </trkpt>
      <trkpt lat="44.79415" lon="-0.12115">
        <ele>82.3</ele>
        <time>2022-10-06T11:48:10Z</time>
      </trkpt>
      <trkpt lat="44.79416" lon="-0.12115">
        <ele>82.3</ele>
        <time>2022-10-06T11:48:11Z</time>
      </trkpt>
      <trkpt lat="44.79416" lon="-0.12116">
        <ele>82.3</ele>
        <time>2022-10-06T11:48:12Z</time>
      </trkpt>
      <trkpt lat="44.79416" lon="-0.12117">
        <ele>82.3</ele>
        <time>2022-10-06T11:48:13Z</time>
      </trkpt>
      <trkpt lat="44.79417" lon="-0.12117">
        <ele>82.3</ele>
        <time>2022-10-06T11:48:14Z</time>
      </trkpt>
      <trkpt lat="44.79417" lon="-0.12118">
        <ele>82.3</ele>
        <time>2022-10-06T11:48:15Z</time>
      </trkpt>
      <trkpt lat="44.79418" lon="-0.12121">
        <ele>82.3</ele>
        <time>2022-10-06T11:48:16Z</time>
      </trkpt>
      <trkpt lat="44.79418" lon="-0.12122">
        <ele>82.3</ele>
        <time>2022-10-06T11:48:17Z</time>
      </trkpt>
      <trkpt lat="44.79418" lon="-0.12123">
        <ele>82.3</ele>
        <time>2022-10-06T11:48:18Z</time>
      </trkpt>
      <trkpt lat="44.79418" lon="-0.12124">
        <ele>82.3</ele>
        <time>2022-10-06T11:48:19Z</time>
      </trkpt>
      <trkpt lat="44.79419" lon="-0.12125">
        <ele>82.3</ele>
        <time>2022-10-06T11:48:20Z</time>
      </trkpt>
      <trkpt lat="44.7942" lon="-0.12126">
        <ele>82.2</ele>
        <time>2022-10-06T11:48:21Z</time>
      </trkpt>
      <trkpt lat="44.7942" lon="-0.12127">
        <ele>82.2</ele>
        <time>2022-10-06T11:48:22Z</time>
      </trkpt>
      <trkpt lat="44.7942" lon="-0.12127">
        <ele>82.2</ele>
        <time>2022-10-06T11:48:23Z</time>
      </trkpt>
      <trkpt lat="44.7942" lon="-0.12127">
        <ele>82.2</ele>
        <time>2022-10-06T11:48:24Z</time>
      </trkpt>
      <trkpt lat="44.7942" lon="-0.12127">
        <ele>82.2</ele>
        <time>2022-10-06T11:48:25Z</time>
      </trkpt>
      <trkpt lat="44.7942" lon="-0.12127">
        <ele>82.2</ele>
        <time>2022-10-06T11:48:26Z</time>
      </trkpt>
      <trkpt lat="44.7942" lon="-0.12127">
        <ele>82.2</ele>
        <time>2022-10-06T11:48:27Z</time>
      </trkpt>
      <trkpt lat="44.7942" lon="-0.12127">
        <ele>82.2</ele>
        <time>2022-10-06T11:48:28Z</time>
      </trkpt>
      <trkpt lat="44.7942" lon="-0.12127">
        <ele>82.2</ele>
        <time>2022-10-06T11:48:29Z</time>
      </trkpt>
      <trkpt lat="44.7942" lon="-0.12127">
        <ele>82.2</ele>
        <time>2022-10-06T11:48:30Z</time>
      </trkpt>
      <trkpt lat="44.7942" lon="-0.12127">
        <ele>82.2</ele>
        <time>2022-10-06T11:48:31Z</time>
      </trkpt>
      <trkpt lat="44.7942" lon="-0.12126">
        <ele>82.2</ele>
        <time>2022-10-06T11:48:32Z</time>
      </trkpt>
      <trkpt lat="44.7942" lon="-0.12126">
        <ele>82.2</ele>
        <time>2022-10-06T11:48:33Z</time>
      </trkpt>
      <trkpt lat="44.7942" lon="-0.12126">
        <ele>82.2</ele>
        <time>2022-10-06T11:48:34Z</time>
      </trkpt>
      <trkpt lat="44.79419" lon="-0.12127">
        <ele>82.2</ele>
        <time>2022-10-06T11:48:35Z</time>
      </trkpt>
      <trkpt lat="44.79419" lon="-0.12127">
        <ele>82.2</ele>
        <time>2022-10-06T11:48:37Z</time>
      </trkpt>
      <trkpt lat="44.79419" lon="-0.12127">
        <ele>82.2</ele>
        <time>2022-10-06T11:48:38Z</time>
      </trkpt>
      <trkpt lat="44.79419" lon="-0.12127">
        <ele>82.2</ele>
        <time>2022-10-06T11:48:39Z</time>
      </trkpt>
      <trkpt lat="44.79419" lon="-0.12127">
        <ele>82.2</ele>
        <time>2022-10-06T11:48:40Z</time>
      </trkpt>
      <trkpt lat="44.79419" lon="-0.12127">
        <ele>82.2</ele>
        <time>2022-10-06T11:48:41Z</time>
      </trkpt>
      <trkpt lat="44.79419" lon="-0.12127">
        <ele>82.2</ele>
        <time>2022-10-06T11:48:42Z</time>
      </trkpt>
      <trkpt lat="44.79419" lon="-0.12127">
        <ele>82.2</ele>
        <time>2022-10-06T11:48:43Z</time>
      </trkpt>
      <trkpt lat="44.79419" lon="-0.12127">
        <ele>82.2</ele>
        <time>2022-10-06T11:48:44Z</time>
      </trkpt>
      <trkpt lat="44.79419" lon="-0.12127">
        <ele>82.2</ele>
        <time>2022-10-06T11:48:45Z</time>
      </trkpt>
      <trkpt lat="44.79419" lon="-0.12127">
        <ele>82.2</ele>
        <time>2022-10-06T11:48:46Z</time>
      </trkpt>
      <trkpt lat="44.79419" lon="-0.12127">
        <ele>82.2</ele>
        <time>2022-10-06T11:48:47Z</time>
      </trkpt>
      <trkpt lat="44.79419" lon="-0.12127">
        <ele>82.2</ele>
        <time>2022-10-06T11:48:48Z</time>
      </trkpt>
      <trkpt lat="44.79419" lon="-0.12127">
        <ele>82.2</ele>
        <time>2022-10-06T11:48:49Z</time>
      </trkpt>
      <trkpt lat="44.79419" lon="-0.12127">
        <ele>82.2</ele>
        <time>2022-10-06T11:48:50Z</time>
      </trkpt>
      <trkpt lat="44.79419" lon="-0.12127">
        <ele>82.2</ele>
        <time>2022-10-06T11:48:51Z</time>
      </trkpt>
      <trkpt lat="44.79419" lon="-0.12127">
        <ele>82.2</ele>
        <time>2022-10-06T11:48:52Z</time>
      </trkpt>
      <trkpt lat="44.79419" lon="-0.12127">
        <ele>82.2</ele>
        <time>2022-10-06T11:48:53Z</time>
      </trkpt>
      <trkpt lat="44.79419" lon="-0.12127">
        <ele>82.2</ele>
        <time>2022-10-06T11:48:54Z</time>
      </trkpt>
      <trkpt lat="44.7942" lon="-0.12127">
        <ele>82.2</ele>
        <time>2022-10-06T11:48:55Z</time>
      </trkpt>
      <trkpt lat="44.7942" lon="-0.12126">
        <ele>82.2</ele>
        <time>2022-10-06T11:48:56Z</time>
      </trkpt>
      <trkpt lat="44.7942" lon="-0.12126">
        <ele>82.2</ele>
        <time>2022-10-06T11:48:57Z</time>
      </trkpt>
      <trkpt lat="44.79421" lon="-0.12127">
        <ele>82.2</ele>
        <time>2022-10-06T11:48:58Z</time>
      </trkpt>
      <trkpt lat="44.79421" lon="-0.12127">
        <ele>82.2</ele>
        <time>2022-10-06T11:48:59Z</time>
      </trkpt>
      <trkpt lat="44.79421" lon="-0.12128">
        <ele>82.2</ele>
        <time>2022-10-06T11:49:00Z</time>
      </trkpt>
      <trkpt lat="44.79421" lon="-0.12128">
        <ele>82.2</ele>
        <time>2022-10-06T11:49:01Z</time>
      </trkpt>
      <trkpt lat="44.79421" lon="-0.12129">
        <ele>82.2</ele>
        <time>2022-10-06T11:49:02Z</time>
      </trkpt>
      <trkpt lat="44.79421" lon="-0.1213">
        <ele>82.2</ele>
        <time>2022-10-06T11:49:03Z</time>
      </trkpt>
      <trkpt lat="44.79421" lon="-0.1213">
        <ele>82.2</ele>
        <time>2022-10-06T11:49:04Z</time>
      </trkpt>
      <trkpt lat="44.79421" lon="-0.1213">
        <ele>82.2</ele>
        <time>2022-10-06T11:49:05Z</time>
      </trkpt>
      <trkpt lat="44.79421" lon="-0.1213">
        <ele>82.2</ele>
        <time>2022-10-06T11:49:06Z</time>
      </trkpt>
      <trkpt lat="44.79421" lon="-0.1213">
        <ele>82.2</ele>
        <time>2022-10-06T11:49:07Z</time>
      </trkpt>
      <trkpt lat="44.79421" lon="-0.1213">
        <ele>82.2</ele>
        <time>2022-10-06T11:49:08Z</time>
      </trkpt>
      <trkpt lat="44.79421" lon="-0.1213">
        <ele>82.2</ele>
        <time>2022-10-06T11:49:09Z</time>
      </trkpt>
      <trkpt lat="44.79421" lon="-0.1213">
        <ele>82.2</ele>
        <time>2022-10-06T11:49:10Z</time>
      </trkpt>
      <trkpt lat="44.79421" lon="-0.1213">
        <ele>82.2</ele>
        <time>2022-10-06T11:49:11Z</time>
      </trkpt>
      <trkpt lat="44.79421" lon="-0.1213">
        <ele>82.2</ele>
        <time>2022-10-06T11:49:12Z</time>
      </trkpt>
      <trkpt lat="44.79421" lon="-0.1213">
        <ele>82.2</ele>
        <time>2022-10-06T11:49:13Z</time>
      </trkpt>
      <trkpt lat="44.79421" lon="-0.1213">
        <ele>82.2</ele>
        <time>2022-10-06T11:49:14Z</time>
      </trkpt>
      <trkpt lat="44.79421" lon="-0.1213">
        <ele>82.2</ele>
        <time>2022-10-06T11:49:15Z</time>
      </trkpt>
      <trkpt lat="44.79421" lon="-0.1213">
        <ele>82.2</ele>
        <time>2022-10-06T11:49:16Z</time>
      </trkpt>
      <trkpt lat="44.79421" lon="-0.1213">
        <ele>82.2</ele>
        <time>2022-10-06T11:49:17Z</time>
      </trkpt>
      <trkpt lat="44.79421" lon="-0.1213">
        <ele>82.2</ele>
        <time>2022-10-06T11:49:18Z</time>
      </trkpt>
      <trkpt lat="44.79421" lon="-0.1213">
        <ele>82.2</ele>
        <time>2022-10-06T11:49:19Z</time>
      </trkpt>
      <trkpt lat="44.79421" lon="-0.1213">
        <ele>82.2</ele>
        <time>2022-10-06T11:49:20Z</time>
      </trkpt>
      <trkpt lat="44.79421" lon="-0.1213">
        <ele>82.2</ele>
        <time>2022-10-06T11:49:21Z</time>
      </trkpt>
      <trkpt lat="44.79421" lon="-0.1213">
        <ele>82.2</ele>
        <time>2022-10-06T11:49:22Z</time>
      </trkpt>
      <trkpt lat="44.79421" lon="-0.1213">
        <ele>82.2</ele>
        <time>2022-10-06T11:49:23Z</time>
      </trkpt>
      <trkpt lat="44.79421" lon="-0.1213">
        <ele>82.2</ele>
        <time>2022-10-06T11:49:24Z</time>
      </trkpt>
      <trkpt lat="44.79421" lon="-0.1213">
        <ele>82.2</ele>
        <time>2022-10-06T11:49:25Z</time>
      </trkpt>
      <trkpt lat="44.79421" lon="-0.1213">
        <ele>82.2</ele>
        <time>2022-10-06T11:49:26Z</time>
      </trkpt>
      <trkpt lat="44.79421" lon="-0.1213">
        <ele>82.2</ele>
        <time>2022-10-06T11:49:27Z</time>
      </trkpt>
      <trkpt lat="44.79421" lon="-0.1213">
        <ele>82.2</ele>
        <time>2022-10-06T11:49:28Z</time>
      </trkpt>
      <trkpt lat="44.79421" lon="-0.1213">
        <ele>82.2</ele>
        <time>2022-10-06T11:49:29Z</time>
      </trkpt>
      <trkpt lat="44.79421" lon="-0.1213">
        <ele>82.2</ele>
        <time>2022-10-06T11:49:30Z</time>
      </trkpt>
      <trkpt lat="44.79421" lon="-0.1213">
        <ele>82.2</ele>
        <time>2022-10-06T11:49:31Z</time>
      </trkpt>
      <trkpt lat="44.79421" lon="-0.1213">
        <ele>82.2</ele>
        <time>2022-10-06T11:49:32Z</time>
      </trkpt>
      <trkpt lat="44.79421" lon="-0.1213">
        <ele>82.2</ele>
        <time>2022-10-06T11:49:33Z</time>
      </trkpt>
      <trkpt lat="44.79421" lon="-0.1213">
        <ele>82.2</ele>
        <time>2022-10-06T11:49:34Z</time>
      </trkpt>
      <trkpt lat="44.79421" lon="-0.1213">
        <ele>82.2</ele>
        <time>2022-10-06T11:49:35Z</time>
      </trkpt>
      <trkpt lat="44.79421" lon="-0.1213">
        <ele>82.2</ele>
        <time>2022-10-06T11:49:36Z</time>
      </trkpt>
      <trkpt lat="44.79421" lon="-0.1213">
        <ele>82.2</ele>
        <time>2022-10-06T11:49:37Z</time>
      </trkpt>
      <trkpt lat="44.79421" lon="-0.1213">
        <ele>82.2</ele>
        <time>2022-10-06T11:49:38Z</time>
      </trkpt>
      <trkpt lat="44.79421" lon="-0.1213">
        <ele>82.2</ele>
        <time>2022-10-06T11:49:39Z</time>
      </trkpt>
      <trkpt lat="44.79421" lon="-0.1213">
        <ele>82.2</ele>
        <time>2022-10-06T11:49:40Z</time>
      </trkpt>
      <trkpt lat="44.79421" lon="-0.1213">
        <ele>82.2</ele>
        <time>2022-10-06T11:49:41Z</time>
      </trkpt>
      <trkpt lat="44.79421" lon="-0.1213">
        <ele>82.2</ele>
        <time>2022-10-06T11:49:42Z</time>
      </trkpt>
      <trkpt lat="44.79421" lon="-0.1213">
        <ele>82.2</ele>
        <time>2022-10-06T11:49:43Z</time>
      </trkpt>
      <trkpt lat="44.79421" lon="-0.1213">
        <ele>82.2</ele>
        <time>2022-10-06T11:49:44Z</time>
      </trkpt>
      <trkpt lat="44.79421" lon="-0.1213">
        <ele>82.2</ele>
        <time>2022-10-06T11:49:45Z</time>
      </trkpt>
      <trkpt lat="44.79421" lon="-0.1213">
        <ele>82.2</ele>
        <time>2022-10-06T11:49:46Z</time>
      </trkpt>
      <trkpt lat="44.79421" lon="-0.1213">
        <ele>82.2</ele>
        <time>2022-10-06T11:49:47Z</time>
      </trkpt>
      <trkpt lat="44.79421" lon="-0.1213">
        <ele>82.2</ele>
        <time>2022-10-06T11:49:48Z</time>
      </trkpt>
      <trkpt lat="44.79421" lon="-0.1213">
        <ele>82.2</ele>
        <time>2022-10-06T11:49:49Z</time>
      </trkpt>
      <trkpt lat="44.79421" lon="-0.1213">
        <ele>82.2</ele>
        <time>2022-10-06T11:49:50Z</time>
      </trkpt>
      <trkpt lat="44.79421" lon="-0.1213">
        <ele>82.2</ele>
        <time>2022-10-06T11:49:51Z</time>
      </trkpt>
      <trkpt lat="44.79421" lon="-0.1213">
        <ele>82.2</ele>
        <time>2022-10-06T11:49:52Z</time>
      </trkpt>
      <trkpt lat="44.79421" lon="-0.1213">
        <ele>82.2</ele>
        <time>2022-10-06T11:49:53Z</time>
      </trkpt>
      <trkpt lat="44.79421" lon="-0.1213">
        <ele>82.2</ele>
        <time>2022-10-06T11:49:54Z</time>
      </trkpt>
      <trkpt lat="44.79421" lon="-0.1213">
        <ele>82.2</ele>
        <time>2022-10-06T11:49:55Z</time>
      </trkpt>
      <trkpt lat="44.79421" lon="-0.1213">
        <ele>82.2</ele>
        <time>2022-10-06T11:49:56Z</time>
      </trkpt>
      <trkpt lat="44.79421" lon="-0.1213">
        <ele>82.2</ele>
        <time>2022-10-06T11:49:57Z</time>
      </trkpt>
      <trkpt lat="44.79421" lon="-0.1213">
        <ele>82.2</ele>
        <time>2022-10-06T11:49:58Z</time>
      </trkpt>
      <trkpt lat="44.79421" lon="-0.1213">
        <ele>82.2</ele>
        <time>2022-10-06T11:49:59Z</time>
      </trkpt>
      <trkpt lat="44.79421" lon="-0.1213">
        <ele>82.2</ele>
        <time>2022-10-06T11:50:00Z</time>
      </trkpt>
      <trkpt lat="44.79421" lon="-0.1213">
        <ele>82.2</ele>
        <time>2022-10-06T11:50:01Z</time>
      </trkpt>
      <trkpt lat="44.79421" lon="-0.1213">
        <ele>82.2</ele>
        <time>2022-10-06T11:50:02Z</time>
      </trkpt>
      <trkpt lat="44.79421" lon="-0.1213">
        <ele>82.2</ele>
        <time>2022-10-06T11:50:03Z</time>
      </trkpt>
      <trkpt lat="44.79421" lon="-0.1213">
        <ele>82.2</ele>
        <time>2022-10-06T11:50:04Z</time>
      </trkpt>
      <trkpt lat="44.79421" lon="-0.1213">
        <ele>82.2</ele>
        <time>2022-10-06T11:50:05Z</time>
      </trkpt>
      <trkpt lat="44.79421" lon="-0.1213">
        <ele>82.2</ele>
        <time>2022-10-06T11:50:06Z</time>
      </trkpt>
      <trkpt lat="44.79421" lon="-0.1213">
        <ele>82.2</ele>
        <time>2022-10-06T11:50:07Z</time>
      </trkpt>
      <trkpt lat="44.79421" lon="-0.1213">
        <ele>82.2</ele>
        <time>2022-10-06T11:50:08Z</time>
      </trkpt>
      <trkpt lat="44.79421" lon="-0.1213">
        <ele>82.2</ele>
        <time>2022-10-06T11:50:09Z</time>
      </trkpt>
      <trkpt lat="44.79421" lon="-0.1213">
        <ele>82.2</ele>
        <time>2022-10-06T11:50:10Z</time>
      </trkpt>
      <trkpt lat="44.79421" lon="-0.1213">
        <ele>82.2</ele>
        <time>2022-10-06T11:50:11Z</time>
      </trkpt>
      <trkpt lat="44.79421" lon="-0.1213">
        <ele>82.2</ele>
        <time>2022-10-06T11:50:12Z</time>
      </trkpt>
      <trkpt lat="44.79421" lon="-0.1213">
        <ele>82.2</ele>
        <time>2022-10-06T11:50:13Z</time>
      </trkpt>
      <trkpt lat="44.79421" lon="-0.1213">
        <ele>82.2</ele>
        <time>2022-10-06T11:50:14Z</time>
      </trkpt>
      <trkpt lat="44.79421" lon="-0.1213">
        <ele>82.2</ele>
        <time>2022-10-06T11:50:15Z</time>
      </trkpt>
      <trkpt lat="44.79421" lon="-0.1213">
        <ele>82.2</ele>
        <time>2022-10-06T11:50:16Z</time>
      </trkpt>
      <trkpt lat="44.79421" lon="-0.1213">
        <ele>82.2</ele>
        <time>2022-10-06T11:50:17Z</time>
      </trkpt>
      <trkpt lat="44.79421" lon="-0.1213">
        <ele>82.2</ele>
        <time>2022-10-06T11:50:18Z</time>
      </trkpt>
      <trkpt lat="44.79421" lon="-0.1213">
        <ele>82.2</ele>
        <time>2022-10-06T11:50:19Z</time>
      </trkpt>
      <trkpt lat="44.79421" lon="-0.1213">
        <ele>82.2</ele>
        <time>2022-10-06T11:50:20Z</time>
      </trkpt>
      <trkpt lat="44.79421" lon="-0.1213">
        <ele>82.1</ele>
        <time>2022-10-06T11:50:21Z</time>
      </trkpt>
      <trkpt lat="44.79421" lon="-0.12129">
        <ele>82.1</ele>
        <time>2022-10-06T11:50:22Z</time>
      </trkpt>
      <trkpt lat="44.79421" lon="-0.12129">
        <ele>82.1</ele>
        <time>2022-10-06T11:50:23Z</time>
      </trkpt>
      <trkpt lat="44.79421" lon="-0.12129">
        <ele>82.1</ele>
        <time>2022-10-06T11:50:24Z</time>
      </trkpt>
      <trkpt lat="44.79421" lon="-0.12129">
        <ele>82.1</ele>
        <time>2022-10-06T11:50:25Z</time>
      </trkpt>
      <trkpt lat="44.79421" lon="-0.12129">
        <ele>82.1</ele>
        <time>2022-10-06T11:50:26Z</time>
      </trkpt>
      <trkpt lat="44.79421" lon="-0.12129">
        <ele>82.1</ele>
        <time>2022-10-06T11:50:27Z</time>
      </trkpt>
      <trkpt lat="44.79421" lon="-0.1213">
        <ele>82.1</ele>
        <time>2022-10-06T11:50:28Z</time>
      </trkpt>
      <trkpt lat="44.79421" lon="-0.1213">
        <ele>82.1</ele>
        <time>2022-10-06T11:50:29Z</time>
      </trkpt>
      <trkpt lat="44.79421" lon="-0.1213">
        <ele>82.1</ele>
        <time>2022-10-06T11:50:30Z</time>
      </trkpt>
      <trkpt lat="44.79421" lon="-0.1213">
        <ele>82.1</ele>
        <time>2022-10-06T11:50:31Z</time>
      </trkpt>
      <trkpt lat="44.79421" lon="-0.1213">
        <ele>82.1</ele>
        <time>2022-10-06T11:50:32Z</time>
      </trkpt>
      <trkpt lat="44.79421" lon="-0.1213">
        <ele>82.1</ele>
        <time>2022-10-06T11:50:33Z</time>
      </trkpt>
      <trkpt lat="44.79421" lon="-0.1213">
        <ele>82.1</ele>
        <time>2022-10-06T11:50:34Z</time>
      </trkpt>
      <trkpt lat="44.79421" lon="-0.12129">
        <ele>82.1</ele>
        <time>2022-10-06T11:50:35Z</time>
      </trkpt>
      <trkpt lat="44.79421" lon="-0.12129">
        <ele>82.1</ele>
        <time>2022-10-06T11:50:36Z</time>
      </trkpt>
      <trkpt lat="44.79421" lon="-0.12129">
        <ele>82.1</ele>
        <time>2022-10-06T11:50:37Z</time>
      </trkpt>
      <trkpt lat="44.79421" lon="-0.12129">
        <ele>82.1</ele>
        <time>2022-10-06T11:50:38Z</time>
      </trkpt>
      <trkpt lat="44.79421" lon="-0.12129">
        <ele>82.1</ele>
        <time>2022-10-06T11:50:39Z</time>
      </trkpt>
      <trkpt lat="44.79421" lon="-0.12129">
        <ele>82.1</ele>
        <time>2022-10-06T11:50:40Z</time>
      </trkpt>
      <trkpt lat="44.79421" lon="-0.12129">
        <ele>82.1</ele>
        <time>2022-10-06T11:50:41Z</time>
      </trkpt>
      <trkpt lat="44.79421" lon="-0.12129">
        <ele>82.1</ele>
        <time>2022-10-06T11:50:42Z</time>
      </trkpt>
      <trkpt lat="44.79421" lon="-0.12129">
        <ele>82.1</ele>
        <time>2022-10-06T11:50:43Z</time>
      </trkpt>
      <trkpt lat="44.79421" lon="-0.12129">
        <ele>82.1</ele>
        <time>2022-10-06T11:50:44Z</time>
      </trkpt>
      <trkpt lat="44.79421" lon="-0.12129">
        <ele>82.1</ele>
        <time>2022-10-06T11:50:45Z</time>
      </trkpt>
      <trkpt lat="44.79421" lon="-0.12129">
        <ele>82.1</ele>
        <time>2022-10-06T11:50:46Z</time>
      </trkpt>
      <trkpt lat="44.79421" lon="-0.12129">
        <ele>82.1</ele>
        <time>2022-10-06T11:50:47Z</time>
      </trkpt>
      <trkpt lat="44.79421" lon="-0.12129">
        <ele>82.1</ele>
        <time>2022-10-06T11:50:48Z</time>
      </trkpt>
      <trkpt lat="44.79421" lon="-0.12129">
        <ele>82.1</ele>
        <time>2022-10-06T11:50:49Z</time>
      </trkpt>
      <trkpt lat="44.79421" lon="-0.12129">
        <ele>82.1</ele>
        <time>2022-10-06T11:50:50Z</time>
      </trkpt>
      <trkpt lat="44.79421" lon="-0.12129">
        <ele>82.1</ele>
        <time>2022-10-06T11:50:51Z</time>
      </trkpt>
      <trkpt lat="44.79421" lon="-0.12129">
        <ele>82.1</ele>
        <time>2022-10-06T11:50:52Z</time>
      </trkpt>
      <trkpt lat="44.79421" lon="-0.12129">
        <ele>82.1</ele>
        <time>2022-10-06T11:50:53Z</time>
      </trkpt>
      <trkpt lat="44.79421" lon="-0.12129">
        <ele>82.1</ele>
        <time>2022-10-06T11:50:54Z</time>
      </trkpt>
      <trkpt lat="44.79421" lon="-0.12129">
        <ele>82.1</ele>
        <time>2022-10-06T11:50:55Z</time>
      </trkpt>
      <trkpt lat="44.79421" lon="-0.12129">
        <ele>82.1</ele>
        <time>2022-10-06T11:50:56Z</time>
      </trkpt>
      <trkpt lat="44.79421" lon="-0.12129">
        <ele>82.1</ele>
        <time>2022-10-06T11:50:57Z</time>
      </trkpt>
      <trkpt lat="44.79421" lon="-0.12129">
        <ele>82.1</ele>
        <time>2022-10-06T11:50:58Z</time>
      </trkpt>
      <trkpt lat="44.79421" lon="-0.12129">
        <ele>82.1</ele>
        <time>2022-10-06T11:50:59Z</time>
      </trkpt>
      <trkpt lat="44.79421" lon="-0.12129">
        <ele>82.1</ele>
        <time>2022-10-06T11:51:00Z</time>
      </trkpt>
      <trkpt lat="44.79421" lon="-0.12129">
        <ele>82.1</ele>
        <time>2022-10-06T11:51:01Z</time>
      </trkpt>
      <trkpt lat="44.79421" lon="-0.12129">
        <ele>82.1</ele>
        <time>2022-10-06T11:51:02Z</time>
      </trkpt>
      <trkpt lat="44.79421" lon="-0.12129">
        <ele>82.1</ele>
        <time>2022-10-06T11:51:03Z</time>
      </trkpt>
      <trkpt lat="44.79421" lon="-0.12129">
        <ele>82.1</ele>
        <time>2022-10-06T11:51:04Z</time>
      </trkpt>
      <trkpt lat="44.79421" lon="-0.12129">
        <ele>82.1</ele>
        <time>2022-10-06T11:51:05Z</time>
      </trkpt>
      <trkpt lat="44.79421" lon="-0.12129">
        <ele>82.1</ele>
        <time>2022-10-06T11:51:06Z</time>
      </trkpt>
      <trkpt lat="44.79421" lon="-0.12129">
        <ele>82.1</ele>
        <time>2022-10-06T11:51:07Z</time>
      </trkpt>
      <trkpt lat="44.79421" lon="-0.12129">
        <ele>82.1</ele>
        <time>2022-10-06T11:51:08Z</time>
      </trkpt>
      <trkpt lat="44.79421" lon="-0.12129">
        <ele>82.1</ele>
        <time>2022-10-06T11:51:09Z</time>
      </trkpt>
      <trkpt lat="44.79421" lon="-0.12129">
        <ele>82.1</ele>
        <time>2022-10-06T11:51:10Z</time>
      </trkpt>
      <trkpt lat="44.79421" lon="-0.12129">
        <ele>82.1</ele>
        <time>2022-10-06T11:51:11Z</time>
      </trkpt>
      <trkpt lat="44.79421" lon="-0.12129">
        <ele>82.1</ele>
        <time>2022-10-06T11:51:12Z</time>
      </trkpt>
      <trkpt lat="44.79421" lon="-0.12129">
        <ele>82.1</ele>
        <time>2022-10-06T11:51:13Z</time>
      </trkpt>
      <trkpt lat="44.79421" lon="-0.12129">
        <ele>82.1</ele>
        <time>2022-10-06T11:51:14Z</time>
      </trkpt>
      <trkpt lat="44.79421" lon="-0.12129">
        <ele>82.1</ele>
        <time>2022-10-06T11:51:15Z</time>
      </trkpt>
      <trkpt lat="44.79421" lon="-0.12129">
        <ele>82.1</ele>
        <time>2022-10-06T11:51:16Z</time>
      </trkpt>
      <trkpt lat="44.79421" lon="-0.12129">
        <ele>82.1</ele>
        <time>2022-10-06T11:51:17Z</time>
      </trkpt>
      <trkpt lat="44.79421" lon="-0.12129">
        <ele>82.1</ele>
        <time>2022-10-06T11:51:18Z</time>
      </trkpt>
      <trkpt lat="44.79421" lon="-0.12129">
        <ele>82.1</ele>
        <time>2022-10-06T11:51:19Z</time>
      </trkpt>
      <trkpt lat="44.79421" lon="-0.12129">
        <ele>82.1</ele>
        <time>2022-10-06T11:51:20Z</time>
      </trkpt>
      <trkpt lat="44.79421" lon="-0.12129">
        <ele>82.1</ele>
        <time>2022-10-06T11:51:21Z</time>
      </trkpt>
      <trkpt lat="44.79421" lon="-0.12129">
        <ele>82.1</ele>
        <time>2022-10-06T11:51:22Z</time>
      </trkpt>
      <trkpt lat="44.79421" lon="-0.12129">
        <ele>82.1</ele>
        <time>2022-10-06T11:51:23Z</time>
      </trkpt>
      <trkpt lat="44.79421" lon="-0.12129">
        <ele>82.1</ele>
        <time>2022-10-06T11:51:24Z</time>
      </trkpt>
      <trkpt lat="44.79421" lon="-0.12129">
        <ele>82.1</ele>
        <time>2022-10-06T11:51:25Z</time>
      </trkpt>
      <trkpt lat="44.79421" lon="-0.12129">
        <ele>82.1</ele>
        <time>2022-10-06T11:51:26Z</time>
      </trkpt>
      <trkpt lat="44.79421" lon="-0.12129">
        <ele>82.1</ele>
        <time>2022-10-06T11:51:27Z</time>
      </trkpt>
      <trkpt lat="44.79421" lon="-0.12129">
        <ele>82.1</ele>
        <time>2022-10-06T11:51:28Z</time>
      </trkpt>
      <trkpt lat="44.79421" lon="-0.12129">
        <ele>82.1</ele>
        <time>2022-10-06T11:51:29Z</time>
      </trkpt>
      <trkpt lat="44.79421" lon="-0.12129">
        <ele>82.1</ele>
        <time>2022-10-06T11:51:30Z</time>
      </trkpt>
      <trkpt lat="44.79421" lon="-0.12129">
        <ele>82.1</ele>
        <time>2022-10-06T11:51:31Z</time>
      </trkpt>
      <trkpt lat="44.79421" lon="-0.12129">
        <ele>82.1</ele>
        <time>2022-10-06T11:51:32Z</time>
      </trkpt>
      <trkpt lat="44.79421" lon="-0.12129">
        <ele>82.1</ele>
        <time>2022-10-06T11:51:33Z</time>
      </trkpt>
      <trkpt lat="44.79421" lon="-0.12129">
        <ele>82.1</ele>
        <time>2022-10-06T11:51:34Z</time>
      </trkpt>
      <trkpt lat="44.79421" lon="-0.12129">
        <ele>82.1</ele>
        <time>2022-10-06T11:51:35Z</time>
      </trkpt>
      <trkpt lat="44.79421" lon="-0.12129">
        <ele>82.1</ele>
        <time>2022-10-06T11:51:36Z</time>
      </trkpt>
      <trkpt lat="44.79421" lon="-0.12129">
        <ele>82.1</ele>
        <time>2022-10-06T11:51:37Z</time>
      </trkpt>
      <trkpt lat="44.79421" lon="-0.12129">
        <ele>82.1</ele>
        <time>2022-10-06T11:51:38Z</time>
      </trkpt>
      <trkpt lat="44.79421" lon="-0.12129">
        <ele>82.1</ele>
        <time>2022-10-06T11:51:39Z</time>
      </trkpt>
      <trkpt lat="44.79421" lon="-0.12129">
        <ele>82.1</ele>
        <time>2022-10-06T11:51:40Z</time>
      </trkpt>
      <trkpt lat="44.79421" lon="-0.12129">
        <ele>82.1</ele>
        <time>2022-10-06T11:51:41Z</time>
      </trkpt>
      <trkpt lat="44.79421" lon="-0.12129">
        <ele>82.1</ele>
        <time>2022-10-06T11:51:42Z</time>
      </trkpt>
      <trkpt lat="44.79421" lon="-0.12129">
        <ele>82.1</ele>
        <time>2022-10-06T11:51:43Z</time>
      </trkpt>
      <trkpt lat="44.79421" lon="-0.12129">
        <ele>82.1</ele>
        <time>2022-10-06T11:51:44Z</time>
      </trkpt>
      <trkpt lat="44.79421" lon="-0.12129">
        <ele>82.1</ele>
        <time>2022-10-06T11:51:45Z</time>
      </trkpt>
      <trkpt lat="44.79421" lon="-0.12129">
        <ele>82.1</ele>
        <time>2022-10-06T11:51:46Z</time>
      </trkpt>
      <trkpt lat="44.79421" lon="-0.12129">
        <ele>82.1</ele>
        <time>2022-10-06T11:51:47Z</time>
      </trkpt>
      <trkpt lat="44.79421" lon="-0.12129">
        <ele>82.1</ele>
        <time>2022-10-06T11:51:48Z</time>
      </trkpt>
      <trkpt lat="44.79421" lon="-0.12129">
        <ele>82.1</ele>
        <time>2022-10-06T11:51:49Z</time>
      </trkpt>
      <trkpt lat="44.79421" lon="-0.12129">
        <ele>82.1</ele>
        <time>2022-10-06T11:51:50Z</time>
      </trkpt>
      <trkpt lat="44.79421" lon="-0.12129">
        <ele>82.1</ele>
        <time>2022-10-06T11:51:51Z</time>
      </trkpt>
      <trkpt lat="44.79421" lon="-0.12129">
        <ele>82.1</ele>
        <time>2022-10-06T11:51:52Z</time>
      </trkpt>
      <trkpt lat="44.79421" lon="-0.12129">
        <ele>82.1</ele>
        <time>2022-10-06T11:51:53Z</time>
      </trkpt>
      <trkpt lat="44.79421" lon="-0.12129">
        <ele>82.1</ele>
        <time>2022-10-06T11:51:54Z</time>
      </trkpt>
      <trkpt lat="44.79421" lon="-0.12129">
        <ele>82.1</ele>
        <time>2022-10-06T11:51:55Z</time>
      </trkpt>
      <trkpt lat="44.79421" lon="-0.12129">
        <ele>82.1</ele>
        <time>2022-10-06T11:51:56Z</time>
      </trkpt>
      <trkpt lat="44.79421" lon="-0.12129">
        <ele>82.1</ele>
        <time>2022-10-06T11:51:57Z</time>
      </trkpt>
      <trkpt lat="44.79421" lon="-0.12129">
        <ele>82.1</ele>
        <time>2022-10-06T11:51:58Z</time>
      </trkpt>
      <trkpt lat="44.79421" lon="-0.12129">
        <ele>82.1</ele>
        <time>2022-10-06T11:51:59Z</time>
      </trkpt>
      <trkpt lat="44.79421" lon="-0.12129">
        <ele>82.1</ele>
        <time>2022-10-06T11:52:00Z</time>
      </trkpt>
      <trkpt lat="44.79421" lon="-0.12129">
        <ele>82.1</ele>
        <time>2022-10-06T11:52:01Z</time>
      </trkpt>
      <trkpt lat="44.79421" lon="-0.12129">
        <ele>82.1</ele>
        <time>2022-10-06T11:52:02Z</time>
      </trkpt>
      <trkpt lat="44.79421" lon="-0.1213">
        <ele>82.1</ele>
        <time>2022-10-06T11:52:03Z</time>
      </trkpt>
      <trkpt lat="44.79421" lon="-0.1213">
        <ele>82.1</ele>
        <time>2022-10-06T11:52:04Z</time>
      </trkpt>
      <trkpt lat="44.79421" lon="-0.1213">
        <ele>82.1</ele>
        <time>2022-10-06T11:52:05Z</time>
      </trkpt>
      <trkpt lat="44.79421" lon="-0.1213">
        <ele>82.1</ele>
        <time>2022-10-06T11:52:06Z</time>
      </trkpt>
      <trkpt lat="44.79421" lon="-0.1213">
        <ele>82.1</ele>
        <time>2022-10-06T11:52:07Z</time>
      </trkpt>
      <trkpt lat="44.79421" lon="-0.1213">
        <ele>82.1</ele>
        <time>2022-10-06T11:52:08Z</time>
      </trkpt>
      <trkpt lat="44.79421" lon="-0.1213">
        <ele>82.1</ele>
        <time>2022-10-06T11:52:09Z</time>
      </trkpt>
      <trkpt lat="44.79421" lon="-0.1213">
        <ele>82.1</ele>
        <time>2022-10-06T11:52:10Z</time>
      </trkpt>
      <trkpt lat="44.79421" lon="-0.1213">
        <ele>82.1</ele>
        <time>2022-10-06T11:52:11Z</time>
      </trkpt>
      <trkpt lat="44.79421" lon="-0.1213">
        <ele>82.1</ele>
        <time>2022-10-06T11:52:12Z</time>
      </trkpt>
      <trkpt lat="44.79421" lon="-0.1213">
        <ele>82.1</ele>
        <time>2022-10-06T11:52:13Z</time>
      </trkpt>
      <trkpt lat="44.79421" lon="-0.1213">
        <ele>82.1</ele>
        <time>2022-10-06T11:52:14Z</time>
      </trkpt>
      <trkpt lat="44.79421" lon="-0.1213">
        <ele>82.1</ele>
        <time>2022-10-06T11:52:15Z</time>
      </trkpt>
      <trkpt lat="44.79421" lon="-0.1213">
        <ele>82.1</ele>
        <time>2022-10-06T11:52:16Z</time>
      </trkpt>
      <trkpt lat="44.79421" lon="-0.1213">
        <ele>82.1</ele>
        <time>2022-10-06T11:52:17Z</time>
      </trkpt>
      <trkpt lat="44.79421" lon="-0.1213">
        <ele>82.1</ele>
        <time>2022-10-06T11:52:18Z</time>
      </trkpt>
      <trkpt lat="44.79421" lon="-0.1213">
        <ele>82.1</ele>
        <time>2022-10-06T11:52:19Z</time>
      </trkpt>
      <trkpt lat="44.79421" lon="-0.1213">
        <ele>82.1</ele>
        <time>2022-10-06T11:52:20Z</time>
      </trkpt>
      <trkpt lat="44.79421" lon="-0.1213">
        <ele>82.1</ele>
        <time>2022-10-06T11:52:21Z</time>
      </trkpt>
      <trkpt lat="44.79421" lon="-0.1213">
        <ele>82.1</ele>
        <time>2022-10-06T11:52:22Z</time>
      </trkpt>
      <trkpt lat="44.79421" lon="-0.1213">
        <ele>82.1</ele>
        <time>2022-10-06T11:52:23Z</time>
      </trkpt>
      <trkpt lat="44.79421" lon="-0.1213">
        <ele>82.1</ele>
        <time>2022-10-06T11:52:24Z</time>
      </trkpt>
      <trkpt lat="44.79421" lon="-0.1213">
        <ele>82.1</ele>
        <time>2022-10-06T11:52:25Z</time>
      </trkpt>
      <trkpt lat="44.79421" lon="-0.1213">
        <ele>82.1</ele>
        <time>2022-10-06T11:52:26Z</time>
      </trkpt>
      <trkpt lat="44.79421" lon="-0.1213">
        <ele>82.1</ele>
        <time>2022-10-06T11:52:27Z</time>
      </trkpt>
      <trkpt lat="44.79421" lon="-0.1213">
        <ele>82.1</ele>
        <time>2022-10-06T11:52:28Z</time>
      </trkpt>
      <trkpt lat="44.79421" lon="-0.1213">
        <ele>82.1</ele>
        <time>2022-10-06T11:52:29Z</time>
      </trkpt>
      <trkpt lat="44.79421" lon="-0.1213">
        <ele>82.1</ele>
        <time>2022-10-06T11:52:30Z</time>
      </trkpt>
      <trkpt lat="44.79421" lon="-0.1213">
        <ele>82.1</ele>
        <time>2022-10-06T11:52:31Z</time>
      </trkpt>
      <trkpt lat="44.79421" lon="-0.1213">
        <ele>82.1</ele>
        <time>2022-10-06T11:52:32Z</time>
      </trkpt>
      <trkpt lat="44.79421" lon="-0.1213">
        <ele>82.1</ele>
        <time>2022-10-06T11:52:33Z</time>
      </trkpt>
      <trkpt lat="44.79421" lon="-0.1213">
        <ele>82.1</ele>
        <time>2022-10-06T11:52:34Z</time>
      </trkpt>
      <trkpt lat="44.79421" lon="-0.1213">
        <ele>82.1</ele>
        <time>2022-10-06T11:52:35Z</time>
      </trkpt>
      <trkpt lat="44.79421" lon="-0.1213">
        <ele>82.1</ele>
        <time>2022-10-06T11:52:36Z</time>
      </trkpt>
      <trkpt lat="44.79421" lon="-0.1213">
        <ele>82.1</ele>
        <time>2022-10-06T11:52:37Z</time>
      </trkpt>
      <trkpt lat="44.79421" lon="-0.1213">
        <ele>82.1</ele>
        <time>2022-10-06T11:52:38Z</time>
      </trkpt>
      <trkpt lat="44.79421" lon="-0.1213">
        <ele>82.1</ele>
        <time>2022-10-06T11:52:39Z</time>
      </trkpt>
      <trkpt lat="44.79421" lon="-0.1213">
        <ele>82.1</ele>
        <time>2022-10-06T11:52:40Z</time>
      </trkpt>
      <trkpt lat="44.79421" lon="-0.1213">
        <ele>82.1</ele>
        <time>2022-10-06T11:52:41Z</time>
      </trkpt>
      <trkpt lat="44.79421" lon="-0.1213">
        <ele>82.1</ele>
        <time>2022-10-06T11:52:42Z</time>
      </trkpt>
      <trkpt lat="44.79421" lon="-0.1213">
        <ele>82.1</ele>
        <time>2022-10-06T11:52:43Z</time>
      </trkpt>
      <trkpt lat="44.79421" lon="-0.1213">
        <ele>82.1</ele>
        <time>2022-10-06T11:52:44Z</time>
      </trkpt>
      <trkpt lat="44.79421" lon="-0.1213">
        <ele>82.1</ele>
        <time>2022-10-06T11:52:45Z</time>
      </trkpt>
      <trkpt lat="44.79421" lon="-0.1213">
        <ele>82.1</ele>
        <time>2022-10-06T11:52:46Z</time>
      </trkpt>
      <trkpt lat="44.79421" lon="-0.1213">
        <ele>82.1</ele>
        <time>2022-10-06T11:52:47Z</time>
      </trkpt>
      <trkpt lat="44.79421" lon="-0.1213">
        <ele>82.1</ele>
        <time>2022-10-06T11:52:48Z</time>
      </trkpt>
      <trkpt lat="44.79421" lon="-0.1213">
        <ele>82.1</ele>
        <time>2022-10-06T11:52:49Z</time>
      </trkpt>
      <trkpt lat="44.79421" lon="-0.1213">
        <ele>82.1</ele>
        <time>2022-10-06T11:52:50Z</time>
      </trkpt>
      <trkpt lat="44.79421" lon="-0.1213">
        <ele>82.1</ele>
        <time>2022-10-06T11:52:51Z</time>
      </trkpt>
      <trkpt lat="44.79421" lon="-0.1213">
        <ele>82.1</ele>
        <time>2022-10-06T11:52:52Z</time>
      </trkpt>
      <trkpt lat="44.79421" lon="-0.1213">
        <ele>82.1</ele>
        <time>2022-10-06T11:52:53Z</time>
      </trkpt>
      <trkpt lat="44.79421" lon="-0.1213">
        <ele>82.1</ele>
        <time>2022-10-06T11:52:54Z</time>
      </trkpt>
      <trkpt lat="44.79421" lon="-0.1213">
        <ele>82.1</ele>
        <time>2022-10-06T11:52:55Z</time>
      </trkpt>
      <trkpt lat="44.79421" lon="-0.1213">
        <ele>82.1</ele>
        <time>2022-10-06T11:52:56Z</time>
      </trkpt>
      <trkpt lat="44.79421" lon="-0.1213">
        <ele>82.1</ele>
        <time>2022-10-06T11:52:57Z</time>
      </trkpt>
      <trkpt lat="44.79421" lon="-0.1213">
        <ele>82.1</ele>
        <time>2022-10-06T11:52:58Z</time>
      </trkpt>
      <trkpt lat="44.79421" lon="-0.1213">
        <ele>82.1</ele>
        <time>2022-10-06T11:52:59Z</time>
      </trkpt>
      <trkpt lat="44.79421" lon="-0.1213">
        <ele>82.1</ele>
        <time>2022-10-06T11:53:00Z</time>
      </trkpt>
      <trkpt lat="44.79421" lon="-0.1213">
        <ele>82.1</ele>
        <time>2022-10-06T11:53:01Z</time>
      </trkpt>
      <trkpt lat="44.79421" lon="-0.1213">
        <ele>82.1</ele>
        <time>2022-10-06T11:53:02Z</time>
      </trkpt>
      <trkpt lat="44.79421" lon="-0.1213">
        <ele>82.1</ele>
        <time>2022-10-06T11:53:03Z</time>
      </trkpt>
      <trkpt lat="44.79421" lon="-0.1213">
        <ele>82.1</ele>
        <time>2022-10-06T11:53:04Z</time>
      </trkpt>
      <trkpt lat="44.79421" lon="-0.1213">
        <ele>82.1</ele>
        <time>2022-10-06T11:53:05Z</time>
      </trkpt>
      <trkpt lat="44.79421" lon="-0.1213">
        <ele>82.1</ele>
        <time>2022-10-06T11:53:06Z</time>
      </trkpt>
      <trkpt lat="44.79421" lon="-0.1213">
        <ele>82.1</ele>
        <time>2022-10-06T11:53:07Z</time>
      </trkpt>
      <trkpt lat="44.79421" lon="-0.1213">
        <ele>82.1</ele>
        <time>2022-10-06T11:53:08Z</time>
      </trkpt>
      <trkpt lat="44.79421" lon="-0.1213">
        <ele>82.1</ele>
        <time>2022-10-06T11:53:09Z</time>
      </trkpt>
      <trkpt lat="44.79421" lon="-0.1213">
        <ele>82.1</ele>
        <time>2022-10-06T11:53:10Z</time>
      </trkpt>
      <trkpt lat="44.79421" lon="-0.1213">
        <ele>82.1</ele>
        <time>2022-10-06T11:53:11Z</time>
      </trkpt>
      <trkpt lat="44.79421" lon="-0.1213">
        <ele>82.1</ele>
        <time>2022-10-06T11:53:12Z</time>
      </trkpt>
      <trkpt lat="44.79421" lon="-0.1213">
        <ele>82.1</ele>
        <time>2022-10-06T11:53:13Z</time>
      </trkpt>
      <trkpt lat="44.79421" lon="-0.1213">
        <ele>82.1</ele>
        <time>2022-10-06T11:53:14Z</time>
      </trkpt>
      <trkpt lat="44.79421" lon="-0.1213">
        <ele>82.1</ele>
        <time>2022-10-06T11:53:15Z</time>
      </trkpt>
      <trkpt lat="44.79421" lon="-0.1213">
        <ele>82.1</ele>
        <time>2022-10-06T11:53:16Z</time>
      </trkpt>
      <trkpt lat="44.79421" lon="-0.1213">
        <ele>82.1</ele>
        <time>2022-10-06T11:53:17Z</time>
      </trkpt>
      <trkpt lat="44.79421" lon="-0.1213">
        <ele>82.1</ele>
        <time>2022-10-06T11:53:18Z</time>
      </trkpt>
      <trkpt lat="44.79421" lon="-0.1213">
        <ele>82.1</ele>
        <time>2022-10-06T11:53:19Z</time>
      </trkpt>
      <trkpt lat="44.79421" lon="-0.1213">
        <ele>82.1</ele>
        <time>2022-10-06T11:53:20Z</time>
      </trkpt>
      <trkpt lat="44.79421" lon="-0.1213">
        <ele>82.1</ele>
        <time>2022-10-06T11:53:21Z</time>
      </trkpt>
      <trkpt lat="44.79421" lon="-0.1213">
        <ele>82.1</ele>
        <time>2022-10-06T11:53:22Z</time>
      </trkpt>
      <trkpt lat="44.79421" lon="-0.1213">
        <ele>82.1</ele>
        <time>2022-10-06T11:53:23Z</time>
      </trkpt>
      <trkpt lat="44.79421" lon="-0.1213">
        <ele>82.1</ele>
        <time>2022-10-06T11:53:24Z</time>
      </trkpt>
      <trkpt lat="44.79421" lon="-0.1213">
        <ele>82.1</ele>
        <time>2022-10-06T11:53:25Z</time>
      </trkpt>
      <trkpt lat="44.79421" lon="-0.1213">
        <ele>82.1</ele>
        <time>2022-10-06T11:53:26Z</time>
      </trkpt>
      <trkpt lat="44.79421" lon="-0.1213">
        <ele>82.1</ele>
        <time>2022-10-06T11:53:27Z</time>
      </trkpt>
      <trkpt lat="44.79421" lon="-0.1213">
        <ele>82.1</ele>
        <time>2022-10-06T11:53:28Z</time>
      </trkpt>
      <trkpt lat="44.79421" lon="-0.1213">
        <ele>82.1</ele>
        <time>2022-10-06T11:53:29Z</time>
      </trkpt>
      <trkpt lat="44.79421" lon="-0.1213">
        <ele>82.1</ele>
        <time>2022-10-06T11:53:30Z</time>
      </trkpt>
      <trkpt lat="44.79421" lon="-0.1213">
        <ele>82.1</ele>
        <time>2022-10-06T11:53:31Z</time>
      </trkpt>
      <trkpt lat="44.79421" lon="-0.1213">
        <ele>82.1</ele>
        <time>2022-10-06T11:53:32Z</time>
      </trkpt>
      <trkpt lat="44.79421" lon="-0.1213">
        <ele>82.1</ele>
        <time>2022-10-06T11:53:33Z</time>
      </trkpt>
      <trkpt lat="44.79421" lon="-0.1213">
        <ele>82.1</ele>
        <time>2022-10-06T11:53:34Z</time>
      </trkpt>
      <trkpt lat="44.79421" lon="-0.1213">
        <ele>82.1</ele>
        <time>2022-10-06T11:53:35Z</time>
      </trkpt>
      <trkpt lat="44.79421" lon="-0.1213">
        <ele>82.1</ele>
        <time>2022-10-06T11:53:36Z</time>
      </trkpt>
      <trkpt lat="44.79421" lon="-0.1213">
        <ele>82.1</ele>
        <time>2022-10-06T11:53:37Z</time>
      </trkpt>
      <trkpt lat="44.79421" lon="-0.1213">
        <ele>82.1</ele>
        <time>2022-10-06T11:53:38Z</time>
      </trkpt>
      <trkpt lat="44.79421" lon="-0.1213">
        <ele>82.1</ele>
        <time>2022-10-06T11:53:39Z</time>
      </trkpt>
      <trkpt lat="44.79421" lon="-0.1213">
        <ele>82.1</ele>
        <time>2022-10-06T11:53:40Z</time>
      </trkpt>
      <trkpt lat="44.79421" lon="-0.1213">
        <ele>82.1</ele>
        <time>2022-10-06T11:53:41Z</time>
      </trkpt>
      <trkpt lat="44.79421" lon="-0.1213">
        <ele>82.1</ele>
        <time>2022-10-06T11:53:42Z</time>
      </trkpt>
      <trkpt lat="44.79421" lon="-0.1213">
        <ele>82.1</ele>
        <time>2022-10-06T11:53:43Z</time>
      </trkpt>
      <trkpt lat="44.79421" lon="-0.1213">
        <ele>82.1</ele>
        <time>2022-10-06T11:53:44Z</time>
      </trkpt>
      <trkpt lat="44.79421" lon="-0.1213">
        <ele>82.1</ele>
        <time>2022-10-06T11:53:45Z</time>
      </trkpt>
      <trkpt lat="44.79421" lon="-0.1213">
        <ele>82.1</ele>
        <time>2022-10-06T11:53:46Z</time>
      </trkpt>
      <trkpt lat="44.79421" lon="-0.1213">
        <ele>82.1</ele>
        <time>2022-10-06T11:53:47Z</time>
      </trkpt>
      <trkpt lat="44.79421" lon="-0.1213">
        <ele>82.1</ele>
        <time>2022-10-06T11:53:48Z</time>
      </trkpt>
      <trkpt lat="44.79421" lon="-0.1213">
        <ele>82.1</ele>
        <time>2022-10-06T11:53:49Z</time>
      </trkpt>
      <trkpt lat="44.79421" lon="-0.1213">
        <ele>82.1</ele>
        <time>2022-10-06T11:53:50Z</time>
      </trkpt>
      <trkpt lat="44.79421" lon="-0.1213">
        <ele>82.1</ele>
        <time>2022-10-06T11:53:51Z</time>
      </trkpt>
      <trkpt lat="44.79421" lon="-0.1213">
        <ele>82.1</ele>
        <time>2022-10-06T11:53:52Z</time>
      </trkpt>
      <trkpt lat="44.79421" lon="-0.1213">
        <ele>82.1</ele>
        <time>2022-10-06T11:53:53Z</time>
      </trkpt>
      <trkpt lat="44.79421" lon="-0.1213">
        <ele>82.1</ele>
        <time>2022-10-06T11:53:54Z</time>
      </trkpt>
      <trkpt lat="44.79421" lon="-0.1213">
        <ele>82.1</ele>
        <time>2022-10-06T11:53:55Z</time>
      </trkpt>
      <trkpt lat="44.79421" lon="-0.1213">
        <ele>82.1</ele>
        <time>2022-10-06T11:53:56Z</time>
      </trkpt>
      <trkpt lat="44.79421" lon="-0.1213">
        <ele>82.1</ele>
        <time>2022-10-06T11:53:57Z</time>
      </trkpt>
      <trkpt lat="44.79421" lon="-0.1213">
        <ele>82.1</ele>
        <time>2022-10-06T11:53:58Z</time>
      </trkpt>
      <trkpt lat="44.79421" lon="-0.1213">
        <ele>82.1</ele>
        <time>2022-10-06T11:53:59Z</time>
      </trkpt>
      <trkpt lat="44.79421" lon="-0.1213">
        <ele>82.1</ele>
        <time>2022-10-06T11:54:00Z</time>
      </trkpt>
      <trkpt lat="44.79421" lon="-0.1213">
        <ele>82.1</ele>
        <time>2022-10-06T11:54:01Z</time>
      </trkpt>
      <trkpt lat="44.79421" lon="-0.1213">
        <ele>82.1</ele>
        <time>2022-10-06T11:54:02Z</time>
      </trkpt>
      <trkpt lat="44.79421" lon="-0.1213">
        <ele>82.1</ele>
        <time>2022-10-06T11:54:03Z</time>
      </trkpt>
      <trkpt lat="44.79421" lon="-0.1213">
        <ele>82.1</ele>
        <time>2022-10-06T11:54:04Z</time>
      </trkpt>
      <trkpt lat="44.79421" lon="-0.1213">
        <ele>82.1</ele>
        <time>2022-10-06T11:54:05Z</time>
      </trkpt>
      <trkpt lat="44.79421" lon="-0.1213">
        <ele>82.1</ele>
        <time>2022-10-06T11:54:06Z</time>
      </trkpt>
      <trkpt lat="44.79421" lon="-0.1213">
        <ele>82.1</ele>
        <time>2022-10-06T11:54:07Z</time>
      </trkpt>
      <trkpt lat="44.79421" lon="-0.1213">
        <ele>82.1</ele>
        <time>2022-10-06T11:54:08Z</time>
      </trkpt>
      <trkpt lat="44.79421" lon="-0.1213">
        <ele>82.1</ele>
        <time>2022-10-06T11:54:09Z</time>
      </trkpt>
      <trkpt lat="44.79421" lon="-0.1213">
        <ele>82.1</ele>
        <time>2022-10-06T11:54:10Z</time>
      </trkpt>
      <trkpt lat="44.79421" lon="-0.1213">
        <ele>82.1</ele>
        <time>2022-10-06T11:54:11Z</time>
      </trkpt>
      <trkpt lat="44.79421" lon="-0.1213">
        <ele>82.1</ele>
        <time>2022-10-06T11:54:12Z</time>
      </trkpt>
      <trkpt lat="44.79421" lon="-0.1213">
        <ele>82.1</ele>
        <time>2022-10-06T11:54:13Z</time>
      </trkpt>
      <trkpt lat="44.79421" lon="-0.1213">
        <ele>82.1</ele>
        <time>2022-10-06T11:54:14Z</time>
      </trkpt>
      <trkpt lat="44.79421" lon="-0.1213">
        <ele>82.1</ele>
        <time>2022-10-06T11:54:15Z</time>
      </trkpt>
      <trkpt lat="44.79421" lon="-0.1213">
        <ele>82.1</ele>
        <time>2022-10-06T11:54:16Z</time>
      </trkpt>
      <trkpt lat="44.79421" lon="-0.1213">
        <ele>82.1</ele>
        <time>2022-10-06T11:54:17Z</time>
      </trkpt>
      <trkpt lat="44.79421" lon="-0.1213">
        <ele>82.1</ele>
        <time>2022-10-06T11:54:18Z</time>
      </trkpt>
      <trkpt lat="44.79421" lon="-0.1213">
        <ele>82.1</ele>
        <time>2022-10-06T11:54:19Z</time>
      </trkpt>
      <trkpt lat="44.79421" lon="-0.1213">
        <ele>82.1</ele>
        <time>2022-10-06T11:54:20Z</time>
      </trkpt>
      <trkpt lat="44.79421" lon="-0.1213">
        <ele>82.1</ele>
        <time>2022-10-06T11:54:21Z</time>
      </trkpt>
      <trkpt lat="44.79421" lon="-0.1213">
        <ele>82.1</ele>
        <time>2022-10-06T11:54:22Z</time>
      </trkpt>
      <trkpt lat="44.79421" lon="-0.1213">
        <ele>82.1</ele>
        <time>2022-10-06T11:54:23Z</time>
      </trkpt>
      <trkpt lat="44.79421" lon="-0.1213">
        <ele>82.1</ele>
        <time>2022-10-06T11:54:24Z</time>
      </trkpt>
      <trkpt lat="44.79421" lon="-0.1213">
        <ele>82.1</ele>
        <time>2022-10-06T11:54:25Z</time>
      </trkpt>
      <trkpt lat="44.79421" lon="-0.1213">
        <ele>82.1</ele>
        <time>2022-10-06T11:54:26Z</time>
      </trkpt>
      <trkpt lat="44.79421" lon="-0.1213">
        <ele>82.1</ele>
        <time>2022-10-06T11:54:27Z</time>
      </trkpt>
      <trkpt lat="44.79421" lon="-0.1213">
        <ele>82.1</ele>
        <time>2022-10-06T11:54:28Z</time>
      </trkpt>
      <trkpt lat="44.79421" lon="-0.1213">
        <ele>82.1</ele>
        <time>2022-10-06T11:54:29Z</time>
      </trkpt>
      <trkpt lat="44.79421" lon="-0.1213">
        <ele>82.1</ele>
        <time>2022-10-06T11:54:30Z</time>
      </trkpt>
      <trkpt lat="44.79421" lon="-0.1213">
        <ele>82.1</ele>
        <time>2022-10-06T11:54:31Z</time>
      </trkpt>
      <trkpt lat="44.79421" lon="-0.1213">
        <ele>82.1</ele>
        <time>2022-10-06T11:54:32Z</time>
      </trkpt>
      <trkpt lat="44.79421" lon="-0.1213">
        <ele>82.1</ele>
        <time>2022-10-06T11:54:33Z</time>
      </trkpt>
      <trkpt lat="44.79421" lon="-0.1213">
        <ele>82.1</ele>
        <time>2022-10-06T11:54:34Z</time>
      </trkpt>
      <trkpt lat="44.79421" lon="-0.1213">
        <ele>82.1</ele>
        <time>2022-10-06T11:54:35Z</time>
      </trkpt>
      <trkpt lat="44.79421" lon="-0.1213">
        <ele>82.1</ele>
        <time>2022-10-06T11:54:36Z</time>
      </trkpt>
      <trkpt lat="44.79421" lon="-0.1213">
        <ele>82.1</ele>
        <time>2022-10-06T11:54:37Z</time>
      </trkpt>
      <trkpt lat="44.79421" lon="-0.1213">
        <ele>82.1</ele>
        <time>2022-10-06T11:54:38Z</time>
      </trkpt>
      <trkpt lat="44.79421" lon="-0.1213">
        <ele>82.1</ele>
        <time>2022-10-06T11:54:39Z</time>
      </trkpt>
      <trkpt lat="44.79421" lon="-0.1213">
        <ele>82.1</ele>
        <time>2022-10-06T11:54:40Z</time>
      </trkpt>
      <trkpt lat="44.79421" lon="-0.1213">
        <ele>82.1</ele>
        <time>2022-10-06T11:54:41Z</time>
      </trkpt>
      <trkpt lat="44.79421" lon="-0.1213">
        <ele>82.1</ele>
        <time>2022-10-06T11:54:42Z</time>
      </trkpt>
      <trkpt lat="44.79421" lon="-0.1213">
        <ele>82.1</ele>
        <time>2022-10-06T11:54:43Z</time>
      </trkpt>
      <trkpt lat="44.79421" lon="-0.1213">
        <ele>82.1</ele>
        <time>2022-10-06T11:54:44Z</time>
      </trkpt>
      <trkpt lat="44.79421" lon="-0.1213">
        <ele>82.1</ele>
        <time>2022-10-06T11:54:45Z</time>
      </trkpt>
      <trkpt lat="44.79421" lon="-0.1213">
        <ele>82.1</ele>
        <time>2022-10-06T11:54:46Z</time>
      </trkpt>
      <trkpt lat="44.79421" lon="-0.1213">
        <ele>82.1</ele>
        <time>2022-10-06T11:54:47Z</time>
      </trkpt>
      <trkpt lat="44.79421" lon="-0.1213">
        <ele>82.1</ele>
        <time>2022-10-06T11:54:48Z</time>
      </trkpt>
      <trkpt lat="44.79421" lon="-0.1213">
        <ele>82.1</ele>
        <time>2022-10-06T11:54:49Z</time>
      </trkpt>
      <trkpt lat="44.79421" lon="-0.1213">
        <ele>82.1</ele>
        <time>2022-10-06T11:54:50Z</time>
      </trkpt>
      <trkpt lat="44.79421" lon="-0.1213">
        <ele>82.1</ele>
        <time>2022-10-06T11:54:51Z</time>
      </trkpt>
      <trkpt lat="44.79421" lon="-0.1213">
        <ele>82.1</ele>
        <time>2022-10-06T11:54:52Z</time>
      </trkpt>
      <trkpt lat="44.79421" lon="-0.1213">
        <ele>82.1</ele>
        <time>2022-10-06T11:54:53Z</time>
      </trkpt>
      <trkpt lat="44.79421" lon="-0.1213">
        <ele>82.1</ele>
        <time>2022-10-06T11:54:54Z</time>
      </trkpt>
      <trkpt lat="44.79421" lon="-0.1213">
        <ele>82.1</ele>
        <time>2022-10-06T11:54:55Z</time>
      </trkpt>
      <trkpt lat="44.79422" lon="-0.1213">
        <ele>82.1</ele>
        <time>2022-10-06T11:54:56Z</time>
      </trkpt>
      <trkpt lat="44.79422" lon="-0.1213">
        <ele>82.1</ele>
        <time>2022-10-06T11:54:57Z</time>
      </trkpt>
      <trkpt lat="44.79422" lon="-0.1213">
        <ele>82.1</ele>
        <time>2022-10-06T11:54:58Z</time>
      </trkpt>
      <trkpt lat="44.79422" lon="-0.1213">
        <ele>82.1</ele>
        <time>2022-10-06T11:54:59Z</time>
      </trkpt>
      <trkpt lat="44.79422" lon="-0.1213">
        <ele>82.1</ele>
        <time>2022-10-06T11:55:00Z</time>
      </trkpt>
      <trkpt lat="44.79422" lon="-0.1213">
        <ele>82.1</ele>
        <time>2022-10-06T11:55:01Z</time>
      </trkpt>
      <trkpt lat="44.79422" lon="-0.1213">
        <ele>82.1</ele>
        <time>2022-10-06T11:55:02Z</time>
      </trkpt>
      <trkpt lat="44.79422" lon="-0.12131">
        <ele>82.1</ele>
        <time>2022-10-06T11:55:03Z</time>
      </trkpt>
      <trkpt lat="44.79422" lon="-0.12131">
        <ele>82.1</ele>
        <time>2022-10-06T11:55:04Z</time>
      </trkpt>
      <trkpt lat="44.79422" lon="-0.1213">
        <ele>82.1</ele>
        <time>2022-10-06T11:55:05Z</time>
      </trkpt>
      <trkpt lat="44.79422" lon="-0.1213">
        <ele>82.1</ele>
        <time>2022-10-06T11:55:06Z</time>
      </trkpt>
      <trkpt lat="44.79422" lon="-0.1213">
        <ele>82.1</ele>
        <time>2022-10-06T11:55:07Z</time>
      </trkpt>
      <trkpt lat="44.79422" lon="-0.1213">
        <ele>82.1</ele>
        <time>2022-10-06T11:55:08Z</time>
      </trkpt>
      <trkpt lat="44.79422" lon="-0.1213">
        <ele>82.1</ele>
        <time>2022-10-06T11:55:09Z</time>
      </trkpt>
      <trkpt lat="44.79422" lon="-0.1213">
        <ele>82.1</ele>
        <time>2022-10-06T11:55:10Z</time>
      </trkpt>
      <trkpt lat="44.79422" lon="-0.1213">
        <ele>82.1</ele>
        <time>2022-10-06T11:55:11Z</time>
      </trkpt>
      <trkpt lat="44.79422" lon="-0.1213">
        <ele>82.1</ele>
        <time>2022-10-06T11:55:12Z</time>
      </trkpt>
      <trkpt lat="44.79422" lon="-0.12131">
        <ele>82</ele>
        <time>2022-10-06T11:55:13Z</time>
      </trkpt>
      <trkpt lat="44.79422" lon="-0.12131">
        <ele>82</ele>
        <time>2022-10-06T11:55:14Z</time>
      </trkpt>
      <trkpt lat="44.79421" lon="-0.12132">
        <ele>82</ele>
        <time>2022-10-06T11:55:15Z</time>
      </trkpt>
      <trkpt lat="44.7942" lon="-0.12134">
        <ele>82</ele>
        <time>2022-10-06T11:55:16Z</time>
      </trkpt>
      <trkpt lat="44.79419" lon="-0.12135">
        <ele>82</ele>
        <time>2022-10-06T11:55:17Z</time>
      </trkpt>
      <trkpt lat="44.79419" lon="-0.12136">
        <ele>82</ele>
        <time>2022-10-06T11:55:18Z</time>
      </trkpt>
      <trkpt lat="44.79418" lon="-0.12137">
        <ele>82</ele>
        <time>2022-10-06T11:55:19Z</time>
      </trkpt>
      <trkpt lat="44.79417" lon="-0.12138">
        <ele>82</ele>
        <time>2022-10-06T11:55:20Z</time>
      </trkpt>
      <trkpt lat="44.79417" lon="-0.12139">
        <ele>81.9</ele>
        <time>2022-10-06T11:55:21Z</time>
      </trkpt>
      <trkpt lat="44.79416" lon="-0.1214">
        <ele>81.9</ele>
        <time>2022-10-06T11:55:22Z</time>
      </trkpt>
      <trkpt lat="44.79415" lon="-0.12141">
        <ele>81.9</ele>
        <time>2022-10-06T11:55:23Z</time>
      </trkpt>
      <trkpt lat="44.79414" lon="-0.12142">
        <ele>81.9</ele>
        <time>2022-10-06T11:55:24Z</time>
      </trkpt>
      <trkpt lat="44.79413" lon="-0.12144">
        <ele>81.9</ele>
        <time>2022-10-06T11:55:25Z</time>
      </trkpt>
      <trkpt lat="44.79412" lon="-0.12145">
        <ele>81.9</ele>
        <time>2022-10-06T11:55:26Z</time>
      </trkpt>
      <trkpt lat="44.79411" lon="-0.12146">
        <ele>81.8</ele>
        <time>2022-10-06T11:55:27Z</time>
      </trkpt>
      <trkpt lat="44.7941" lon="-0.12147">
        <ele>81.8</ele>
        <time>2022-10-06T11:55:28Z</time>
      </trkpt>
      <trkpt lat="44.79409" lon="-0.12148">
        <ele>81.8</ele>
        <time>2022-10-06T11:55:29Z</time>
      </trkpt>
      <trkpt lat="44.79408" lon="-0.12149">
        <ele>81.8</ele>
        <time>2022-10-06T11:55:30Z</time>
      </trkpt>
      <trkpt lat="44.79407" lon="-0.1215">
        <ele>81.8</ele>
        <time>2022-10-06T11:55:31Z</time>
      </trkpt>
      <trkpt lat="44.79406" lon="-0.12151">
        <ele>81.8</ele>
        <time>2022-10-06T11:55:32Z</time>
      </trkpt>
      <trkpt lat="44.79405" lon="-0.12152">
        <ele>81.8</ele>
        <time>2022-10-06T11:55:33Z</time>
      </trkpt>
      <trkpt lat="44.79403" lon="-0.12154">
        <ele>81.8</ele>
        <time>2022-10-06T11:55:34Z</time>
      </trkpt>
      <trkpt lat="44.79403" lon="-0.12155">
        <ele>81.8</ele>
        <time>2022-10-06T11:55:35Z</time>
      </trkpt>
      <trkpt lat="44.79402" lon="-0.12156">
        <ele>81.8</ele>
        <time>2022-10-06T11:55:36Z</time>
      </trkpt>
      <trkpt lat="44.794" lon="-0.12157">
        <ele>81.8</ele>
        <time>2022-10-06T11:55:37Z</time>
      </trkpt>
      <trkpt lat="44.79399" lon="-0.12159">
        <ele>81.7</ele>
        <time>2022-10-06T11:55:38Z</time>
      </trkpt>
      <trkpt lat="44.79398" lon="-0.1216">
        <ele>81.7</ele>
        <time>2022-10-06T11:55:39Z</time>
      </trkpt>
      <trkpt lat="44.79397" lon="-0.12161">
        <ele>81.7</ele>
        <time>2022-10-06T11:55:40Z</time>
      </trkpt>
      <trkpt lat="44.79396" lon="-0.12162">
        <ele>81.7</ele>
        <time>2022-10-06T11:55:41Z</time>
      </trkpt>
      <trkpt lat="44.79395" lon="-0.12163">
        <ele>81.8</ele>
        <time>2022-10-06T11:55:42Z</time>
      </trkpt>
      <trkpt lat="44.79394" lon="-0.12165">
        <ele>81.8</ele>
        <time>2022-10-06T11:55:43Z</time>
      </trkpt>
      <trkpt lat="44.79393" lon="-0.12166">
        <ele>81.8</ele>
        <time>2022-10-06T11:55:44Z</time>
      </trkpt>
      <trkpt lat="44.79392" lon="-0.12167">
        <ele>81.8</ele>
        <time>2022-10-06T11:55:45Z</time>
      </trkpt>
      <trkpt lat="44.7939" lon="-0.12169">
        <ele>81.8</ele>
        <time>2022-10-06T11:55:46Z</time>
      </trkpt>
      <trkpt lat="44.7939" lon="-0.1217">
        <ele>81.8</ele>
        <time>2022-10-06T11:55:47Z</time>
      </trkpt>
      <trkpt lat="44.79389" lon="-0.12171">
        <ele>81.8</ele>
        <time>2022-10-06T11:55:48Z</time>
      </trkpt>
      <trkpt lat="44.79387" lon="-0.12173">
        <ele>82.2</ele>
        <time>2022-10-06T11:55:49Z</time>
      </trkpt>
      <trkpt lat="44.79387" lon="-0.12173">
        <ele>82.2</ele>
        <time>2022-10-06T11:55:50Z</time>
      </trkpt>
      <trkpt lat="44.79386" lon="-0.12174">
        <ele>82.2</ele>
        <time>2022-10-06T11:55:51Z</time>
      </trkpt>
      <trkpt lat="44.79384" lon="-0.12174">
        <ele>82.1</ele>
        <time>2022-10-06T11:55:52Z</time>
      </trkpt>
      <trkpt lat="44.79383" lon="-0.12174">
        <ele>82.1</ele>
        <time>2022-10-06T11:55:53Z</time>
      </trkpt>
      <trkpt lat="44.79382" lon="-0.12174">
        <ele>82.1</ele>
        <time>2022-10-06T11:55:54Z</time>
      </trkpt>
      <trkpt lat="44.79382" lon="-0.12171">
        <ele>82</ele>
        <time>2022-10-06T11:55:55Z</time>
      </trkpt>
      <trkpt lat="44.79381" lon="-0.1217">
        <ele>82</ele>
        <time>2022-10-06T11:55:56Z</time>
      </trkpt>
      <trkpt lat="44.79381" lon="-0.12169">
        <ele>82</ele>
        <time>2022-10-06T11:55:57Z</time>
      </trkpt>
      <trkpt lat="44.7938" lon="-0.12168">
        <ele>81.9</ele>
        <time>2022-10-06T11:55:58Z</time>
      </trkpt>
      <trkpt lat="44.79379" lon="-0.12166">
        <ele>81.9</ele>
        <time>2022-10-06T11:55:59Z</time>
      </trkpt>
      <trkpt lat="44.79378" lon="-0.12166">
        <ele>81.9</ele>
        <time>2022-10-06T11:56:00Z</time>
      </trkpt>
      <trkpt lat="44.79377" lon="-0.12165">
        <ele>81.9</ele>
        <time>2022-10-06T11:56:01Z</time>
      </trkpt>
      <trkpt lat="44.79376" lon="-0.12164">
        <ele>81.8</ele>
        <time>2022-10-06T11:56:02Z</time>
      </trkpt>
      <trkpt lat="44.79375" lon="-0.12163">
        <ele>81.8</ele>
        <time>2022-10-06T11:56:03Z</time>
      </trkpt>
      <trkpt lat="44.79374" lon="-0.12164">
        <ele>81.7</ele>
        <time>2022-10-06T11:56:04Z</time>
      </trkpt>
      <trkpt lat="44.79374" lon="-0.12165">
        <ele>81.7</ele>
        <time>2022-10-06T11:56:05Z</time>
      </trkpt>
      <trkpt lat="44.79374" lon="-0.12166">
        <ele>81.7</ele>
        <time>2022-10-06T11:56:06Z</time>
      </trkpt>
      <trkpt lat="44.79374" lon="-0.12166">
        <ele>81.7</ele>
        <time>2022-10-06T11:56:07Z</time>
      </trkpt>
      <trkpt lat="44.79374" lon="-0.12165">
        <ele>81.7</ele>
        <time>2022-10-06T11:56:08Z</time>
      </trkpt>
      <trkpt lat="44.79374" lon="-0.12162">
        <ele>81.6</ele>
        <time>2022-10-06T11:56:09Z</time>
      </trkpt>
      <trkpt lat="44.79374" lon="-0.12161">
        <ele>81.6</ele>
        <time>2022-10-06T11:56:10Z</time>
      </trkpt>
      <trkpt lat="44.79373" lon="-0.1216">
        <ele>81.5</ele>
        <time>2022-10-06T11:56:11Z</time>
      </trkpt>
      <trkpt lat="44.79372" lon="-0.1216">
        <ele>81.5</ele>
        <time>2022-10-06T11:56:12Z</time>
      </trkpt>
      <trkpt lat="44.79371" lon="-0.12159">
        <ele>81.5</ele>
        <time>2022-10-06T11:56:13Z</time>
      </trkpt>
      <trkpt lat="44.7937" lon="-0.12158">
        <ele>81.4</ele>
        <time>2022-10-06T11:56:14Z</time>
      </trkpt>
      <trkpt lat="44.79369" lon="-0.12157">
        <ele>81.4</ele>
        <time>2022-10-06T11:56:15Z</time>
      </trkpt>
      <trkpt lat="44.79369" lon="-0.12156">
        <ele>81.4</ele>
        <time>2022-10-06T11:56:16Z</time>
      </trkpt>
      <trkpt lat="44.79368" lon="-0.12155">
        <ele>81.3</ele>
        <time>2022-10-06T11:56:17Z</time>
      </trkpt>
      <trkpt lat="44.79367" lon="-0.12154">
        <ele>81.3</ele>
        <time>2022-10-06T11:56:18Z</time>
      </trkpt>
      <trkpt lat="44.79366" lon="-0.12153">
        <ele>81.3</ele>
        <time>2022-10-06T11:56:19Z</time>
      </trkpt>
      <trkpt lat="44.79365" lon="-0.12152">
        <ele>81.2</ele>
        <time>2022-10-06T11:56:20Z</time>
      </trkpt>
      <trkpt lat="44.79364" lon="-0.12151">
        <ele>81.2</ele>
        <time>2022-10-06T11:56:21Z</time>
      </trkpt>
      <trkpt lat="44.79363" lon="-0.1215">
        <ele>81.2</ele>
        <time>2022-10-06T11:56:22Z</time>
      </trkpt>
      <trkpt lat="44.79362" lon="-0.1215">
        <ele>81.1</ele>
        <time>2022-10-06T11:56:23Z</time>
      </trkpt>
      <trkpt lat="44.79361" lon="-0.12148">
        <ele>81</ele>
        <time>2022-10-06T11:56:24Z</time>
      </trkpt>
      <trkpt lat="44.7936" lon="-0.12147">
        <ele>81</ele>
        <time>2022-10-06T11:56:25Z</time>
      </trkpt>
      <trkpt lat="44.79359" lon="-0.12147">
        <ele>81</ele>
        <time>2022-10-06T11:56:26Z</time>
      </trkpt>
      <trkpt lat="44.79358" lon="-0.12146">
        <ele>80.9</ele>
        <time>2022-10-06T11:56:27Z</time>
      </trkpt>
      <trkpt lat="44.79357" lon="-0.12145">
        <ele>80.9</ele>
        <time>2022-10-06T11:56:28Z</time>
      </trkpt>
      <trkpt lat="44.79355" lon="-0.12143">
        <ele>80.8</ele>
        <time>2022-10-06T11:56:29Z</time>
      </trkpt>
      <trkpt lat="44.79355" lon="-0.12143">
        <ele>80.8</ele>
        <time>2022-10-06T11:56:30Z</time>
      </trkpt>
      <trkpt lat="44.79354" lon="-0.12142">
        <ele>80.8</ele>
        <time>2022-10-06T11:56:31Z</time>
      </trkpt>
      <trkpt lat="44.79353" lon="-0.12141">
        <ele>80.7</ele>
        <time>2022-10-06T11:56:32Z</time>
      </trkpt>
      <trkpt lat="44.79352" lon="-0.1214">
        <ele>80.7</ele>
        <time>2022-10-06T11:56:33Z</time>
      </trkpt>
      <trkpt lat="44.7935" lon="-0.12138">
        <ele>80.6</ele>
        <time>2022-10-06T11:56:34Z</time>
      </trkpt>
      <trkpt lat="44.7935" lon="-0.12137">
        <ele>80.6</ele>
        <time>2022-10-06T11:56:35Z</time>
      </trkpt>
      <trkpt lat="44.79349" lon="-0.12137">
        <ele>80.5</ele>
        <time>2022-10-06T11:56:36Z</time>
      </trkpt>
      <trkpt lat="44.79348" lon="-0.12136">
        <ele>80.5</ele>
        <time>2022-10-06T11:56:37Z</time>
      </trkpt>
      <trkpt lat="44.79347" lon="-0.12134">
        <ele>80.5</ele>
        <time>2022-10-06T11:56:38Z</time>
      </trkpt>
      <trkpt lat="44.79346" lon="-0.12133">
        <ele>80.4</ele>
        <time>2022-10-06T11:56:39Z</time>
      </trkpt>
      <trkpt lat="44.79345" lon="-0.12133">
        <ele>80.4</ele>
        <time>2022-10-06T11:56:40Z</time>
      </trkpt>
      <trkpt lat="44.79344" lon="-0.12132">
        <ele>80.3</ele>
        <time>2022-10-06T11:56:41Z</time>
      </trkpt>
      <trkpt lat="44.79343" lon="-0.12131">
        <ele>80.3</ele>
        <time>2022-10-06T11:56:42Z</time>
      </trkpt>
      <trkpt lat="44.79342" lon="-0.1213">
        <ele>80.2</ele>
        <time>2022-10-06T11:56:43Z</time>
      </trkpt>
      <trkpt lat="44.7934" lon="-0.12128">
        <ele>80.2</ele>
        <time>2022-10-06T11:56:44Z</time>
      </trkpt>
      <trkpt lat="44.7934" lon="-0.12127">
        <ele>80.1</ele>
        <time>2022-10-06T11:56:45Z</time>
      </trkpt>
      <trkpt lat="44.79339" lon="-0.12126">
        <ele>80.1</ele>
        <time>2022-10-06T11:56:46Z</time>
      </trkpt>
      <trkpt lat="44.79338" lon="-0.12125">
        <ele>80.1</ele>
        <time>2022-10-06T11:56:47Z</time>
      </trkpt>
      <trkpt lat="44.79337" lon="-0.12124">
        <ele>80</ele>
        <time>2022-10-06T11:56:48Z</time>
      </trkpt>
      <trkpt lat="44.79336" lon="-0.12122">
        <ele>80</ele>
        <time>2022-10-06T11:56:49Z</time>
      </trkpt>
      <trkpt lat="44.79335" lon="-0.12121">
        <ele>79.9</ele>
        <time>2022-10-06T11:56:50Z</time>
      </trkpt>
      <trkpt lat="44.79334" lon="-0.12121">
        <ele>79.9</ele>
        <time>2022-10-06T11:56:51Z</time>
      </trkpt>
      <trkpt lat="44.79334" lon="-0.1212">
        <ele>79.8</ele>
        <time>2022-10-06T11:56:52Z</time>
      </trkpt>
      <trkpt lat="44.79333" lon="-0.1212">
        <ele>79.8</ele>
        <time>2022-10-06T11:56:53Z</time>
      </trkpt>
      <trkpt lat="44.79331" lon="-0.12118">
        <ele>79.7</ele>
        <time>2022-10-06T11:56:54Z</time>
      </trkpt>
      <trkpt lat="44.79331" lon="-0.12117">
        <ele>79.7</ele>
        <time>2022-10-06T11:56:55Z</time>
      </trkpt>
      <trkpt lat="44.7933" lon="-0.12117">
        <ele>79.7</ele>
        <time>2022-10-06T11:56:56Z</time>
      </trkpt>
      <trkpt lat="44.79329" lon="-0.12115">
        <ele>79.6</ele>
        <time>2022-10-06T11:56:57Z</time>
      </trkpt>
      <trkpt lat="44.79328" lon="-0.12114">
        <ele>79.6</ele>
        <time>2022-10-06T11:56:58Z</time>
      </trkpt>
      <trkpt lat="44.79327" lon="-0.12113">
        <ele>79.5</ele>
        <time>2022-10-06T11:56:59Z</time>
      </trkpt>
      <trkpt lat="44.79326" lon="-0.12113">
        <ele>79.5</ele>
        <time>2022-10-06T11:57:00Z</time>
      </trkpt>
      <trkpt lat="44.79326" lon="-0.12112">
        <ele>79.5</ele>
        <time>2022-10-06T11:57:01Z</time>
      </trkpt>
      <trkpt lat="44.79325" lon="-0.12111">
        <ele>79.4</ele>
        <time>2022-10-06T11:57:02Z</time>
      </trkpt>
      <trkpt lat="44.79323" lon="-0.1211">
        <ele>79.4</ele>
        <time>2022-10-06T11:57:03Z</time>
      </trkpt>
      <trkpt lat="44.79322" lon="-0.12108">
        <ele>79.3</ele>
        <time>2022-10-06T11:57:04Z</time>
      </trkpt>
      <trkpt lat="44.79321" lon="-0.12108">
        <ele>79.3</ele>
        <time>2022-10-06T11:57:05Z</time>
      </trkpt>
      <trkpt lat="44.7932" lon="-0.12107">
        <ele>79.2</ele>
        <time>2022-10-06T11:57:06Z</time>
      </trkpt>
      <trkpt lat="44.79319" lon="-0.12106">
        <ele>79.2</ele>
        <time>2022-10-06T11:57:07Z</time>
      </trkpt>
      <trkpt lat="44.79318" lon="-0.12105">
        <ele>79.2</ele>
        <time>2022-10-06T11:57:08Z</time>
      </trkpt>
      <trkpt lat="44.79317" lon="-0.12103">
        <ele>79.1</ele>
        <time>2022-10-06T11:57:09Z</time>
      </trkpt>
      <trkpt lat="44.79316" lon="-0.12103">
        <ele>79.1</ele>
        <time>2022-10-06T11:57:10Z</time>
      </trkpt>
      <trkpt lat="44.79316" lon="-0.12102">
        <ele>79</ele>
        <time>2022-10-06T11:57:11Z</time>
      </trkpt>
      <trkpt lat="44.79315" lon="-0.12101">
        <ele>79</ele>
        <time>2022-10-06T11:57:12Z</time>
      </trkpt>
      <trkpt lat="44.79314" lon="-0.121">
        <ele>79</ele>
        <time>2022-10-06T11:57:13Z</time>
      </trkpt>
      <trkpt lat="44.79313" lon="-0.12099">
        <ele>78.9</ele>
        <time>2022-10-06T11:57:14Z</time>
      </trkpt>
      <trkpt lat="44.79312" lon="-0.12097">
        <ele>78.8</ele>
        <time>2022-10-06T11:57:15Z</time>
      </trkpt>
      <trkpt lat="44.79311" lon="-0.12097">
        <ele>78.8</ele>
        <time>2022-10-06T11:57:16Z</time>
      </trkpt>
      <trkpt lat="44.7931" lon="-0.12096">
        <ele>78.8</ele>
        <time>2022-10-06T11:57:17Z</time>
      </trkpt>
      <trkpt lat="44.79309" lon="-0.12096">
        <ele>78.7</ele>
        <time>2022-10-06T11:57:18Z</time>
      </trkpt>
      <trkpt lat="44.79309" lon="-0.12095">
        <ele>78.7</ele>
        <time>2022-10-06T11:57:19Z</time>
      </trkpt>
      <trkpt lat="44.79308" lon="-0.12094">
        <ele>78.7</ele>
        <time>2022-10-06T11:57:20Z</time>
      </trkpt>
      <trkpt lat="44.79307" lon="-0.12093">
        <ele>78.6</ele>
        <time>2022-10-06T11:57:21Z</time>
      </trkpt>
      <trkpt lat="44.79306" lon="-0.12092">
        <ele>78.6</ele>
        <time>2022-10-06T11:57:22Z</time>
      </trkpt>
      <trkpt lat="44.79306" lon="-0.12092">
        <ele>78.6</ele>
        <time>2022-10-06T11:57:23Z</time>
      </trkpt>
      <trkpt lat="44.79305" lon="-0.12091">
        <ele>78.5</ele>
        <time>2022-10-06T11:57:24Z</time>
      </trkpt>
      <trkpt lat="44.79304" lon="-0.12091">
        <ele>78.5</ele>
        <time>2022-10-06T11:57:25Z</time>
      </trkpt>
      <trkpt lat="44.79303" lon="-0.1209">
        <ele>78.5</ele>
        <time>2022-10-06T11:57:26Z</time>
      </trkpt>
      <trkpt lat="44.79302" lon="-0.12089">
        <ele>78.4</ele>
        <time>2022-10-06T11:57:27Z</time>
      </trkpt>
      <trkpt lat="44.79302" lon="-0.12088">
        <ele>78.4</ele>
        <time>2022-10-06T11:57:28Z</time>
      </trkpt>
      <trkpt lat="44.79301" lon="-0.12088">
        <ele>78.4</ele>
        <time>2022-10-06T11:57:29Z</time>
      </trkpt>
      <trkpt lat="44.793" lon="-0.12086">
        <ele>78.3</ele>
        <time>2022-10-06T11:57:30Z</time>
      </trkpt>
      <trkpt lat="44.79299" lon="-0.12085">
        <ele>78.3</ele>
        <time>2022-10-06T11:57:31Z</time>
      </trkpt>
      <trkpt lat="44.79299" lon="-0.12084">
        <ele>78.2</ele>
        <time>2022-10-06T11:57:32Z</time>
      </trkpt>
      <trkpt lat="44.79297" lon="-0.12083">
        <ele>78.2</ele>
        <time>2022-10-06T11:57:33Z</time>
      </trkpt>
      <trkpt lat="44.79296" lon="-0.12082">
        <ele>78.1</ele>
        <time>2022-10-06T11:57:34Z</time>
      </trkpt>
      <trkpt lat="44.79296" lon="-0.12081">
        <ele>78.1</ele>
        <time>2022-10-06T11:57:35Z</time>
      </trkpt>
      <trkpt lat="44.79295" lon="-0.12081">
        <ele>78.1</ele>
        <time>2022-10-06T11:57:36Z</time>
      </trkpt>
      <trkpt lat="44.79294" lon="-0.1208">
        <ele>78</ele>
        <time>2022-10-06T11:57:37Z</time>
      </trkpt>
      <trkpt lat="44.79293" lon="-0.12079">
        <ele>78</ele>
        <time>2022-10-06T11:57:38Z</time>
      </trkpt>
      <trkpt lat="44.79291" lon="-0.12077">
        <ele>77.9</ele>
        <time>2022-10-06T11:57:39Z</time>
      </trkpt>
      <trkpt lat="44.7929" lon="-0.12076">
        <ele>77.9</ele>
        <time>2022-10-06T11:57:40Z</time>
      </trkpt>
      <trkpt lat="44.7929" lon="-0.12076">
        <ele>77.8</ele>
        <time>2022-10-06T11:57:41Z</time>
      </trkpt>
      <trkpt lat="44.79288" lon="-0.12074">
        <ele>77.8</ele>
        <time>2022-10-06T11:57:42Z</time>
      </trkpt>
      <trkpt lat="44.79287" lon="-0.12074">
        <ele>77.7</ele>
        <time>2022-10-06T11:57:43Z</time>
      </trkpt>
      <trkpt lat="44.79286" lon="-0.12073">
        <ele>77.7</ele>
        <time>2022-10-06T11:57:44Z</time>
      </trkpt>
      <trkpt lat="44.79285" lon="-0.12072">
        <ele>77.6</ele>
        <time>2022-10-06T11:57:45Z</time>
      </trkpt>
      <trkpt lat="44.79284" lon="-0.12071">
        <ele>77.6</ele>
        <time>2022-10-06T11:57:46Z</time>
      </trkpt>
      <trkpt lat="44.79283" lon="-0.1207">
        <ele>77.5</ele>
        <time>2022-10-06T11:57:47Z</time>
      </trkpt>
      <trkpt lat="44.79282" lon="-0.12069">
        <ele>77.5</ele>
        <time>2022-10-06T11:57:48Z</time>
      </trkpt>
      <trkpt lat="44.79281" lon="-0.12068">
        <ele>77.5</ele>
        <time>2022-10-06T11:57:49Z</time>
      </trkpt>
      <trkpt lat="44.79279" lon="-0.12065">
        <ele>77.4</ele>
        <time>2022-10-06T11:57:50Z</time>
      </trkpt>
      <trkpt lat="44.79279" lon="-0.12065">
        <ele>77.3</ele>
        <time>2022-10-06T11:57:51Z</time>
      </trkpt>
      <trkpt lat="44.79278" lon="-0.12065">
        <ele>77.3</ele>
        <time>2022-10-06T11:57:52Z</time>
      </trkpt>
      <trkpt lat="44.79277" lon="-0.12064">
        <ele>77.3</ele>
        <time>2022-10-06T11:57:53Z</time>
      </trkpt>
      <trkpt lat="44.79277" lon="-0.12063">
        <ele>77.2</ele>
        <time>2022-10-06T11:57:54Z</time>
      </trkpt>
      <trkpt lat="44.79275" lon="-0.12062">
        <ele>77.2</ele>
        <time>2022-10-06T11:57:55Z</time>
      </trkpt>
      <trkpt lat="44.79275" lon="-0.12061">
        <ele>77.1</ele>
        <time>2022-10-06T11:57:56Z</time>
      </trkpt>
      <trkpt lat="44.79274" lon="-0.1206">
        <ele>77.1</ele>
        <time>2022-10-06T11:57:57Z</time>
      </trkpt>
      <trkpt lat="44.79273" lon="-0.12059">
        <ele>77.1</ele>
        <time>2022-10-06T11:57:58Z</time>
      </trkpt>
      <trkpt lat="44.79272" lon="-0.12058">
        <ele>77</ele>
        <time>2022-10-06T11:57:59Z</time>
      </trkpt>
      <trkpt lat="44.7927" lon="-0.12057">
        <ele>76.9</ele>
        <time>2022-10-06T11:58:00Z</time>
      </trkpt>
      <trkpt lat="44.79269" lon="-0.12056">
        <ele>76.9</ele>
        <time>2022-10-06T11:58:01Z</time>
      </trkpt>
      <trkpt lat="44.79269" lon="-0.12055">
        <ele>76.8</ele>
        <time>2022-10-06T11:58:02Z</time>
      </trkpt>
      <trkpt lat="44.79268" lon="-0.12055">
        <ele>76.8</ele>
        <time>2022-10-06T11:58:03Z</time>
      </trkpt>
      <trkpt lat="44.79267" lon="-0.12054">
        <ele>76.7</ele>
        <time>2022-10-06T11:58:04Z</time>
      </trkpt>
      <trkpt lat="44.79266" lon="-0.12052">
        <ele>76.7</ele>
        <time>2022-10-06T11:58:05Z</time>
      </trkpt>
      <trkpt lat="44.79264" lon="-0.12051">
        <ele>76.6</ele>
        <time>2022-10-06T11:58:06Z</time>
      </trkpt>
      <trkpt lat="44.79263" lon="-0.1205">
        <ele>76.6</ele>
        <time>2022-10-06T11:58:07Z</time>
      </trkpt>
      <trkpt lat="44.79262" lon="-0.1205">
        <ele>76.5</ele>
        <time>2022-10-06T11:58:08Z</time>
      </trkpt>
      <trkpt lat="44.79261" lon="-0.12049">
        <ele>76.5</ele>
        <time>2022-10-06T11:58:09Z</time>
      </trkpt>
      <trkpt lat="44.7926" lon="-0.12047">
        <ele>76.4</ele>
        <time>2022-10-06T11:58:10Z</time>
      </trkpt>
      <trkpt lat="44.79259" lon="-0.12047">
        <ele>76.3</ele>
        <time>2022-10-06T11:58:11Z</time>
      </trkpt>
      <trkpt lat="44.79257" lon="-0.12046">
        <ele>76.3</ele>
        <time>2022-10-06T11:58:12Z</time>
      </trkpt>
      <trkpt lat="44.79257" lon="-0.12045">
        <ele>76.3</ele>
        <time>2022-10-06T11:58:13Z</time>
      </trkpt>
      <trkpt lat="44.79256" lon="-0.12044">
        <ele>76.2</ele>
        <time>2022-10-06T11:58:14Z</time>
      </trkpt>
      <trkpt lat="44.79254" lon="-0.12042">
        <ele>76.1</ele>
        <time>2022-10-06T11:58:15Z</time>
      </trkpt>
      <trkpt lat="44.79254" lon="-0.12042">
        <ele>76.1</ele>
        <time>2022-10-06T11:58:16Z</time>
      </trkpt>
      <trkpt lat="44.79253" lon="-0.12041">
        <ele>76.1</ele>
        <time>2022-10-06T11:58:17Z</time>
      </trkpt>
      <trkpt lat="44.79252" lon="-0.1204">
        <ele>76</ele>
        <time>2022-10-06T11:58:18Z</time>
      </trkpt>
      <trkpt lat="44.79251" lon="-0.12039">
        <ele>76</ele>
        <time>2022-10-06T11:58:19Z</time>
      </trkpt>
      <trkpt lat="44.79249" lon="-0.12039">
        <ele>75.9</ele>
        <time>2022-10-06T11:58:20Z</time>
      </trkpt>
      <trkpt lat="44.79249" lon="-0.12038">
        <ele>75.9</ele>
        <time>2022-10-06T11:58:21Z</time>
      </trkpt>
      <trkpt lat="44.79248" lon="-0.12038">
        <ele>75.9</ele>
        <time>2022-10-06T11:58:22Z</time>
      </trkpt>
      <trkpt lat="44.79247" lon="-0.12037">
        <ele>75.8</ele>
        <time>2022-10-06T11:58:23Z</time>
      </trkpt>
      <trkpt lat="44.79246" lon="-0.12035">
        <ele>75.8</ele>
        <time>2022-10-06T11:58:24Z</time>
      </trkpt>
      <trkpt lat="44.79245" lon="-0.12034">
        <ele>75.7</ele>
        <time>2022-10-06T11:58:25Z</time>
      </trkpt>
      <trkpt lat="44.79244" lon="-0.12034">
        <ele>75.7</ele>
        <time>2022-10-06T11:58:26Z</time>
      </trkpt>
      <trkpt lat="44.79243" lon="-0.12033">
        <ele>75.7</ele>
        <time>2022-10-06T11:58:27Z</time>
      </trkpt>
      <trkpt lat="44.79242" lon="-0.12032">
        <ele>75.6</ele>
        <time>2022-10-06T11:58:28Z</time>
      </trkpt>
      <trkpt lat="44.79241" lon="-0.12031">
        <ele>75.5</ele>
        <time>2022-10-06T11:58:29Z</time>
      </trkpt>
      <trkpt lat="44.79239" lon="-0.1203">
        <ele>75.5</ele>
        <time>2022-10-06T11:58:30Z</time>
      </trkpt>
      <trkpt lat="44.79239" lon="-0.12029">
        <ele>75.4</ele>
        <time>2022-10-06T11:58:31Z</time>
      </trkpt>
      <trkpt lat="44.79238" lon="-0.12028">
        <ele>75.4</ele>
        <time>2022-10-06T11:58:32Z</time>
      </trkpt>
      <trkpt lat="44.79237" lon="-0.12027">
        <ele>75.4</ele>
        <time>2022-10-06T11:58:33Z</time>
      </trkpt>
      <trkpt lat="44.79236" lon="-0.12026">
        <ele>75.3</ele>
        <time>2022-10-06T11:58:34Z</time>
      </trkpt>
      <trkpt lat="44.79234" lon="-0.12025">
        <ele>75.2</ele>
        <time>2022-10-06T11:58:35Z</time>
      </trkpt>
      <trkpt lat="44.79233" lon="-0.12024">
        <ele>75.2</ele>
        <time>2022-10-06T11:58:36Z</time>
      </trkpt>
      <trkpt lat="44.79233" lon="-0.12024">
        <ele>75.2</ele>
        <time>2022-10-06T11:58:37Z</time>
      </trkpt>
      <trkpt lat="44.79231" lon="-0.12022">
        <ele>75.1</ele>
        <time>2022-10-06T11:58:38Z</time>
      </trkpt>
      <trkpt lat="44.7923" lon="-0.12022">
        <ele>75</ele>
        <time>2022-10-06T11:58:39Z</time>
      </trkpt>
      <trkpt lat="44.79229" lon="-0.12021">
        <ele>75</ele>
        <time>2022-10-06T11:58:40Z</time>
      </trkpt>
      <trkpt lat="44.79228" lon="-0.1202">
        <ele>74.9</ele>
        <time>2022-10-06T11:58:41Z</time>
      </trkpt>
      <trkpt lat="44.79227" lon="-0.12019">
        <ele>74.9</ele>
        <time>2022-10-06T11:58:42Z</time>
      </trkpt>
      <trkpt lat="44.79226" lon="-0.12018">
        <ele>74.9</ele>
        <time>2022-10-06T11:58:43Z</time>
      </trkpt>
      <trkpt lat="44.79225" lon="-0.12017">
        <ele>74.8</ele>
        <time>2022-10-06T11:58:44Z</time>
      </trkpt>
      <trkpt lat="44.79224" lon="-0.12016">
        <ele>74.8</ele>
        <time>2022-10-06T11:58:45Z</time>
      </trkpt>
      <trkpt lat="44.79224" lon="-0.12015">
        <ele>74.7</ele>
        <time>2022-10-06T11:58:46Z</time>
      </trkpt>
      <trkpt lat="44.79223" lon="-0.12015">
        <ele>74.7</ele>
        <time>2022-10-06T11:58:47Z</time>
      </trkpt>
      <trkpt lat="44.79222" lon="-0.12014">
        <ele>74.7</ele>
        <time>2022-10-06T11:58:48Z</time>
      </trkpt>
      <trkpt lat="44.7922" lon="-0.12013">
        <ele>74.6</ele>
        <time>2022-10-06T11:58:49Z</time>
      </trkpt>
      <trkpt lat="44.79219" lon="-0.12012">
        <ele>74.6</ele>
        <time>2022-10-06T11:58:50Z</time>
      </trkpt>
      <trkpt lat="44.79218" lon="-0.12012">
        <ele>74.5</ele>
        <time>2022-10-06T11:58:51Z</time>
      </trkpt>
      <trkpt lat="44.79217" lon="-0.12011">
        <ele>74.5</ele>
        <time>2022-10-06T11:58:52Z</time>
      </trkpt>
      <trkpt lat="44.79217" lon="-0.1201">
        <ele>74.4</ele>
        <time>2022-10-06T11:58:53Z</time>
      </trkpt>
      <trkpt lat="44.79216" lon="-0.12009">
        <ele>74.4</ele>
        <time>2022-10-06T11:58:54Z</time>
      </trkpt>
      <trkpt lat="44.79214" lon="-0.12008">
        <ele>74.4</ele>
        <time>2022-10-06T11:58:55Z</time>
      </trkpt>
      <trkpt lat="44.79214" lon="-0.12008">
        <ele>74.3</ele>
        <time>2022-10-06T11:58:56Z</time>
      </trkpt>
      <trkpt lat="44.79213" lon="-0.12007">
        <ele>74.3</ele>
        <time>2022-10-06T11:58:57Z</time>
      </trkpt>
      <trkpt lat="44.79212" lon="-0.12007">
        <ele>74.2</ele>
        <time>2022-10-06T11:58:58Z</time>
      </trkpt>
      <trkpt lat="44.79211" lon="-0.12007">
        <ele>74.2</ele>
        <time>2022-10-06T11:58:59Z</time>
      </trkpt>
      <trkpt lat="44.79209" lon="-0.12008">
        <ele>74.2</ele>
        <time>2022-10-06T11:59:00Z</time>
      </trkpt>
      <trkpt lat="44.79209" lon="-0.12009">
        <ele>74.1</ele>
        <time>2022-10-06T11:59:01Z</time>
      </trkpt>
      <trkpt lat="44.79208" lon="-0.1201">
        <ele>74.1</ele>
        <time>2022-10-06T11:59:02Z</time>
      </trkpt>
      <trkpt lat="44.79208" lon="-0.1201">
        <ele>74.1</ele>
        <time>2022-10-06T11:59:03Z</time>
      </trkpt>
      <trkpt lat="44.79207" lon="-0.1201">
        <ele>74.1</ele>
        <time>2022-10-06T11:59:04Z</time>
      </trkpt>
      <trkpt lat="44.79207" lon="-0.1201">
        <ele>74.1</ele>
        <time>2022-10-06T11:59:05Z</time>
      </trkpt>
      <trkpt lat="44.79206" lon="-0.1201">
        <ele>74</ele>
        <time>2022-10-06T11:59:06Z</time>
      </trkpt>
      <trkpt lat="44.79206" lon="-0.1201">
        <ele>74</ele>
        <time>2022-10-06T11:59:07Z</time>
      </trkpt>
      <trkpt lat="44.79206" lon="-0.1201">
        <ele>74</ele>
        <time>2022-10-06T11:59:08Z</time>
      </trkpt>
      <trkpt lat="44.79205" lon="-0.12009">
        <ele>74</ele>
        <time>2022-10-06T11:59:09Z</time>
      </trkpt>
      <trkpt lat="44.79205" lon="-0.12009">
        <ele>74</ele>
        <time>2022-10-06T11:59:10Z</time>
      </trkpt>
      <trkpt lat="44.79205" lon="-0.12009">
        <ele>74</ele>
        <time>2022-10-06T11:59:11Z</time>
      </trkpt>
      <trkpt lat="44.79204" lon="-0.12009">
        <ele>74</ele>
        <time>2022-10-06T11:59:12Z</time>
      </trkpt>
      <trkpt lat="44.79204" lon="-0.12008">
        <ele>74</ele>
        <time>2022-10-06T11:59:13Z</time>
      </trkpt>
      <trkpt lat="44.79204" lon="-0.12008">
        <ele>74</ele>
        <time>2022-10-06T11:59:14Z</time>
      </trkpt>
      <trkpt lat="44.79204" lon="-0.12008">
        <ele>73.9</ele>
        <time>2022-10-06T11:59:15Z</time>
      </trkpt>
      <trkpt lat="44.79203" lon="-0.12007">
        <ele>73.9</ele>
        <time>2022-10-06T11:59:16Z</time>
      </trkpt>
      <trkpt lat="44.79202" lon="-0.12006">
        <ele>73.9</ele>
        <time>2022-10-06T11:59:17Z</time>
      </trkpt>
      <trkpt lat="44.79201" lon="-0.12005">
        <ele>73.9</ele>
        <time>2022-10-06T11:59:18Z</time>
      </trkpt>
      <trkpt lat="44.79201" lon="-0.12004">
        <ele>73.8</ele>
        <time>2022-10-06T11:59:19Z</time>
      </trkpt>
      <trkpt lat="44.792" lon="-0.12003">
        <ele>73.8</ele>
        <time>2022-10-06T11:59:20Z</time>
      </trkpt>
      <trkpt lat="44.79199" lon="-0.12002">
        <ele>73.8</ele>
        <time>2022-10-06T11:59:21Z</time>
      </trkpt>
      <trkpt lat="44.79198" lon="-0.12001">
        <ele>73.7</ele>
        <time>2022-10-06T11:59:22Z</time>
      </trkpt>
      <trkpt lat="44.79197" lon="-0.12">
        <ele>73.7</ele>
        <time>2022-10-06T11:59:23Z</time>
      </trkpt>
      <trkpt lat="44.79196" lon="-0.11999">
        <ele>73.7</ele>
        <time>2022-10-06T11:59:24Z</time>
      </trkpt>
      <trkpt lat="44.79195" lon="-0.11997">
        <ele>73.6</ele>
        <time>2022-10-06T11:59:25Z</time>
      </trkpt>
      <trkpt lat="44.79194" lon="-0.11996">
        <ele>73.6</ele>
        <time>2022-10-06T11:59:26Z</time>
      </trkpt>
      <trkpt lat="44.79194" lon="-0.11996">
        <ele>73.6</ele>
        <time>2022-10-06T11:59:27Z</time>
      </trkpt>
      <trkpt lat="44.79192" lon="-0.11994">
        <ele>73.5</ele>
        <time>2022-10-06T11:59:28Z</time>
      </trkpt>
      <trkpt lat="44.79191" lon="-0.11993">
        <ele>73.5</ele>
        <time>2022-10-06T11:59:29Z</time>
      </trkpt>
      <trkpt lat="44.7919" lon="-0.11993">
        <ele>73.5</ele>
        <time>2022-10-06T11:59:30Z</time>
      </trkpt>
      <trkpt lat="44.79189" lon="-0.11992">
        <ele>73.5</ele>
        <time>2022-10-06T11:59:31Z</time>
      </trkpt>
      <trkpt lat="44.79188" lon="-0.11991">
        <ele>73.4</ele>
        <time>2022-10-06T11:59:32Z</time>
      </trkpt>
      <trkpt lat="44.79187" lon="-0.1199">
        <ele>73.4</ele>
        <time>2022-10-06T11:59:33Z</time>
      </trkpt>
      <trkpt lat="44.79187" lon="-0.11989">
        <ele>73.4</ele>
        <time>2022-10-06T11:59:34Z</time>
      </trkpt>
      <trkpt lat="44.79185" lon="-0.11988">
        <ele>73.4</ele>
        <time>2022-10-06T11:59:35Z</time>
      </trkpt>
      <trkpt lat="44.79184" lon="-0.11987">
        <ele>73.4</ele>
        <time>2022-10-06T11:59:36Z</time>
      </trkpt>
      <trkpt lat="44.79184" lon="-0.11986">
        <ele>73.3</ele>
        <time>2022-10-06T11:59:37Z</time>
      </trkpt>
      <trkpt lat="44.79183" lon="-0.11985">
        <ele>73.3</ele>
        <time>2022-10-06T11:59:38Z</time>
      </trkpt>
      <trkpt lat="44.79182" lon="-0.11984">
        <ele>73.3</ele>
        <time>2022-10-06T11:59:39Z</time>
      </trkpt>
      <trkpt lat="44.79181" lon="-0.11982">
        <ele>73.3</ele>
        <time>2022-10-06T11:59:40Z</time>
      </trkpt>
      <trkpt lat="44.7918" lon="-0.11981">
        <ele>73.2</ele>
        <time>2022-10-06T11:59:41Z</time>
      </trkpt>
      <trkpt lat="44.7918" lon="-0.1198">
        <ele>73.2</ele>
        <time>2022-10-06T11:59:42Z</time>
      </trkpt>
      <trkpt lat="44.79178" lon="-0.11979">
        <ele>73.2</ele>
        <time>2022-10-06T11:59:43Z</time>
      </trkpt>
      <trkpt lat="44.79178" lon="-0.11978">
        <ele>73.2</ele>
        <time>2022-10-06T11:59:44Z</time>
      </trkpt>
      <trkpt lat="44.79176" lon="-0.11977">
        <ele>73.1</ele>
        <time>2022-10-06T11:59:45Z</time>
      </trkpt>
      <trkpt lat="44.79175" lon="-0.11976">
        <ele>73.1</ele>
        <time>2022-10-06T11:59:46Z</time>
      </trkpt>
      <trkpt lat="44.79175" lon="-0.11975">
        <ele>73.1</ele>
        <time>2022-10-06T11:59:47Z</time>
      </trkpt>
      <trkpt lat="44.79174" lon="-0.11974">
        <ele>73.1</ele>
        <time>2022-10-06T11:59:48Z</time>
      </trkpt>
      <trkpt lat="44.79173" lon="-0.11974">
        <ele>73.1</ele>
        <time>2022-10-06T11:59:49Z</time>
      </trkpt>
      <trkpt lat="44.79171" lon="-0.11972">
        <ele>73</ele>
        <time>2022-10-06T11:59:50Z</time>
      </trkpt>
      <trkpt lat="44.79169" lon="-0.11971">
        <ele>73</ele>
        <time>2022-10-06T11:59:51Z</time>
      </trkpt>
      <trkpt lat="44.79169" lon="-0.1197">
        <ele>73</ele>
        <time>2022-10-06T11:59:52Z</time>
      </trkpt>
      <trkpt lat="44.79168" lon="-0.1197">
        <ele>73</ele>
        <time>2022-10-06T11:59:53Z</time>
      </trkpt>
      <trkpt lat="44.79166" lon="-0.11968">
        <ele>72.9</ele>
        <time>2022-10-06T11:59:54Z</time>
      </trkpt>
      <trkpt lat="44.79165" lon="-0.11967">
        <ele>72.9</ele>
        <time>2022-10-06T11:59:55Z</time>
      </trkpt>
      <trkpt lat="44.79165" lon="-0.11967">
        <ele>72.9</ele>
        <time>2022-10-06T11:59:56Z</time>
      </trkpt>
      <trkpt lat="44.79163" lon="-0.11965">
        <ele>72.9</ele>
        <time>2022-10-06T11:59:57Z</time>
      </trkpt>
      <trkpt lat="44.79162" lon="-0.11964">
        <ele>72.9</ele>
        <time>2022-10-06T11:59:58Z</time>
      </trkpt>
      <trkpt lat="44.79162" lon="-0.11964">
        <ele>72.8</ele>
        <time>2022-10-06T11:59:59Z</time>
      </trkpt>
      <trkpt lat="44.7916" lon="-0.11962">
        <ele>72.8</ele>
        <time>2022-10-06T12:00:00Z</time>
      </trkpt>
      <trkpt lat="44.79159" lon="-0.11962">
        <ele>72.8</ele>
        <time>2022-10-06T12:00:01Z</time>
      </trkpt>
      <trkpt lat="44.79158" lon="-0.11961">
        <ele>72.8</ele>
        <time>2022-10-06T12:00:02Z</time>
      </trkpt>
      <trkpt lat="44.79156" lon="-0.11959">
        <ele>72.7</ele>
        <time>2022-10-06T12:00:03Z</time>
      </trkpt>
      <trkpt lat="44.79155" lon="-0.11959">
        <ele>72.7</ele>
        <time>2022-10-06T12:00:04Z</time>
      </trkpt>
      <trkpt lat="44.79154" lon="-0.11958">
        <ele>72.7</ele>
        <time>2022-10-06T12:00:05Z</time>
      </trkpt>
      <trkpt lat="44.79154" lon="-0.11957">
        <ele>72.7</ele>
        <time>2022-10-06T12:00:06Z</time>
      </trkpt>
      <trkpt lat="44.79153" lon="-0.11956">
        <ele>72.7</ele>
        <time>2022-10-06T12:00:07Z</time>
      </trkpt>
      <trkpt lat="44.79152" lon="-0.11955">
        <ele>72.6</ele>
        <time>2022-10-06T12:00:08Z</time>
      </trkpt>
      <trkpt lat="44.79151" lon="-0.11954">
        <ele>72.6</ele>
        <time>2022-10-06T12:00:09Z</time>
      </trkpt>
      <trkpt lat="44.79149" lon="-0.11953">
        <ele>72.6</ele>
        <time>2022-10-06T12:00:10Z</time>
      </trkpt>
      <trkpt lat="44.79149" lon="-0.11952">
        <ele>72.6</ele>
        <time>2022-10-06T12:00:11Z</time>
      </trkpt>
      <trkpt lat="44.79147" lon="-0.11951">
        <ele>72.5</ele>
        <time>2022-10-06T12:00:12Z</time>
      </trkpt>
      <trkpt lat="44.79147" lon="-0.1195">
        <ele>72.5</ele>
        <time>2022-10-06T12:00:13Z</time>
      </trkpt>
      <trkpt lat="44.79144" lon="-0.11948">
        <ele>72.5</ele>
        <time>2022-10-06T12:00:14Z</time>
      </trkpt>
      <trkpt lat="44.79143" lon="-0.11947">
        <ele>72.5</ele>
        <time>2022-10-06T12:00:15Z</time>
      </trkpt>
      <trkpt lat="44.79142" lon="-0.11947">
        <ele>72.4</ele>
        <time>2022-10-06T12:00:16Z</time>
      </trkpt>
      <trkpt lat="44.79141" lon="-0.11946">
        <ele>72.4</ele>
        <time>2022-10-06T12:00:17Z</time>
      </trkpt>
      <trkpt lat="44.7914" lon="-0.11945">
        <ele>72.4</ele>
        <time>2022-10-06T12:00:18Z</time>
      </trkpt>
      <trkpt lat="44.79139" lon="-0.11944">
        <ele>72.4</ele>
        <time>2022-10-06T12:00:19Z</time>
      </trkpt>
      <trkpt lat="44.79138" lon="-0.11942">
        <ele>72.4</ele>
        <time>2022-10-06T12:00:20Z</time>
      </trkpt>
      <trkpt lat="44.79137" lon="-0.1194">
        <ele>72.3</ele>
        <time>2022-10-06T12:00:21Z</time>
      </trkpt>
      <trkpt lat="44.79137" lon="-0.1194">
        <ele>72.3</ele>
        <time>2022-10-06T12:00:22Z</time>
      </trkpt>
      <trkpt lat="44.79136" lon="-0.11939">
        <ele>72.3</ele>
        <time>2022-10-06T12:00:23Z</time>
      </trkpt>
      <trkpt lat="44.79136" lon="-0.11938">
        <ele>72.3</ele>
        <time>2022-10-06T12:00:24Z</time>
      </trkpt>
      <trkpt lat="44.79134" lon="-0.11937">
        <ele>72.3</ele>
        <time>2022-10-06T12:00:25Z</time>
      </trkpt>
      <trkpt lat="44.79133" lon="-0.11936">
        <ele>72.3</ele>
        <time>2022-10-06T12:00:26Z</time>
      </trkpt>
      <trkpt lat="44.79132" lon="-0.11936">
        <ele>72.3</ele>
        <time>2022-10-06T12:00:27Z</time>
      </trkpt>
      <trkpt lat="44.7913" lon="-0.11934">
        <ele>72.2</ele>
        <time>2022-10-06T12:00:28Z</time>
      </trkpt>
      <trkpt lat="44.79129" lon="-0.11934">
        <ele>72.2</ele>
        <time>2022-10-06T12:00:29Z</time>
      </trkpt>
      <trkpt lat="44.79128" lon="-0.11933">
        <ele>72.2</ele>
        <time>2022-10-06T12:00:30Z</time>
      </trkpt>
      <trkpt lat="44.79127" lon="-0.11932">
        <ele>72.2</ele>
        <time>2022-10-06T12:00:31Z</time>
      </trkpt>
      <trkpt lat="44.79126" lon="-0.11931">
        <ele>72.2</ele>
        <time>2022-10-06T12:00:32Z</time>
      </trkpt>
      <trkpt lat="44.79125" lon="-0.11931">
        <ele>72.2</ele>
        <time>2022-10-06T12:00:33Z</time>
      </trkpt>
      <trkpt lat="44.79125" lon="-0.1193">
        <ele>72.2</ele>
        <time>2022-10-06T12:00:34Z</time>
      </trkpt>
      <trkpt lat="44.79123" lon="-0.11928">
        <ele>72.1</ele>
        <time>2022-10-06T12:00:35Z</time>
      </trkpt>
      <trkpt lat="44.79123" lon="-0.11927">
        <ele>72.1</ele>
        <time>2022-10-06T12:00:36Z</time>
      </trkpt>
      <trkpt lat="44.79122" lon="-0.11926">
        <ele>72.1</ele>
        <time>2022-10-06T12:00:37Z</time>
      </trkpt>
      <trkpt lat="44.79121" lon="-0.11924">
        <ele>72.1</ele>
        <time>2022-10-06T12:00:38Z</time>
      </trkpt>
      <trkpt lat="44.79121" lon="-0.11923">
        <ele>72.1</ele>
        <time>2022-10-06T12:00:39Z</time>
      </trkpt>
      <trkpt lat="44.79119" lon="-0.11921">
        <ele>72.1</ele>
        <time>2022-10-06T12:00:40Z</time>
      </trkpt>
      <trkpt lat="44.79118" lon="-0.1192">
        <ele>72.1</ele>
        <time>2022-10-06T12:00:41Z</time>
      </trkpt>
      <trkpt lat="44.79117" lon="-0.11918">
        <ele>72</ele>
        <time>2022-10-06T12:00:42Z</time>
      </trkpt>
      <trkpt lat="44.79116" lon="-0.11917">
        <ele>72</ele>
        <time>2022-10-06T12:00:43Z</time>
      </trkpt>
      <trkpt lat="44.79115" lon="-0.11917">
        <ele>72</ele>
        <time>2022-10-06T12:00:44Z</time>
      </trkpt>
      <trkpt lat="44.79114" lon="-0.11915">
        <ele>72</ele>
        <time>2022-10-06T12:00:45Z</time>
      </trkpt>
      <trkpt lat="44.79113" lon="-0.11914">
        <ele>72</ele>
        <time>2022-10-06T12:00:46Z</time>
      </trkpt>
      <trkpt lat="44.79112" lon="-0.11912">
        <ele>72</ele>
        <time>2022-10-06T12:00:47Z</time>
      </trkpt>
      <trkpt lat="44.79111" lon="-0.11911">
        <ele>72</ele>
        <time>2022-10-06T12:00:48Z</time>
      </trkpt>
      <trkpt lat="44.7911" lon="-0.11911">
        <ele>72</ele>
        <time>2022-10-06T12:00:49Z</time>
      </trkpt>
      <trkpt lat="44.79108" lon="-0.11908">
        <ele>71.9</ele>
        <time>2022-10-06T12:00:50Z</time>
      </trkpt>
      <trkpt lat="44.79108" lon="-0.11908">
        <ele>71.9</ele>
        <time>2022-10-06T12:00:51Z</time>
      </trkpt>
      <trkpt lat="44.79108" lon="-0.11907">
        <ele>71.9</ele>
        <time>2022-10-06T12:00:52Z</time>
      </trkpt>
      <trkpt lat="44.79105" lon="-0.11905">
        <ele>71.9</ele>
        <time>2022-10-06T12:00:53Z</time>
      </trkpt>
      <trkpt lat="44.79105" lon="-0.11905">
        <ele>71.9</ele>
        <time>2022-10-06T12:00:54Z</time>
      </trkpt>
      <trkpt lat="44.79104" lon="-0.11904">
        <ele>71.9</ele>
        <time>2022-10-06T12:00:55Z</time>
      </trkpt>
      <trkpt lat="44.79103" lon="-0.11903">
        <ele>71.8</ele>
        <time>2022-10-06T12:00:56Z</time>
      </trkpt>
      <trkpt lat="44.79102" lon="-0.11903">
        <ele>71.8</ele>
        <time>2022-10-06T12:00:57Z</time>
      </trkpt>
      <trkpt lat="44.79101" lon="-0.11902">
        <ele>71.8</ele>
        <time>2022-10-06T12:00:58Z</time>
      </trkpt>
      <trkpt lat="44.79099" lon="-0.11901">
        <ele>71.8</ele>
        <time>2022-10-06T12:00:59Z</time>
      </trkpt>
      <trkpt lat="44.79097" lon="-0.119">
        <ele>71.8</ele>
        <time>2022-10-06T12:01:00Z</time>
      </trkpt>
      <trkpt lat="44.79097" lon="-0.11899">
        <ele>71.8</ele>
        <time>2022-10-06T12:01:01Z</time>
      </trkpt>
      <trkpt lat="44.79096" lon="-0.11898">
        <ele>71.8</ele>
        <time>2022-10-06T12:01:02Z</time>
      </trkpt>
      <trkpt lat="44.79095" lon="-0.11897">
        <ele>71.7</ele>
        <time>2022-10-06T12:01:03Z</time>
      </trkpt>
      <trkpt lat="44.79094" lon="-0.11896">
        <ele>71.7</ele>
        <time>2022-10-06T12:01:04Z</time>
      </trkpt>
      <trkpt lat="44.79092" lon="-0.11895">
        <ele>71.7</ele>
        <time>2022-10-06T12:01:05Z</time>
      </trkpt>
      <trkpt lat="44.79092" lon="-0.11895">
        <ele>71.7</ele>
        <time>2022-10-06T12:01:06Z</time>
      </trkpt>
      <trkpt lat="44.79091" lon="-0.11894">
        <ele>71.7</ele>
        <time>2022-10-06T12:01:07Z</time>
      </trkpt>
      <trkpt lat="44.7909" lon="-0.11893">
        <ele>71.7</ele>
        <time>2022-10-06T12:01:08Z</time>
      </trkpt>
      <trkpt lat="44.79089" lon="-0.11892">
        <ele>71.7</ele>
        <time>2022-10-06T12:01:09Z</time>
      </trkpt>
      <trkpt lat="44.79087" lon="-0.11891">
        <ele>71.6</ele>
        <time>2022-10-06T12:01:10Z</time>
      </trkpt>
      <trkpt lat="44.79085" lon="-0.1189">
        <ele>71.6</ele>
        <time>2022-10-06T12:01:11Z</time>
      </trkpt>
      <trkpt lat="44.79084" lon="-0.11889">
        <ele>71.6</ele>
        <time>2022-10-06T12:01:12Z</time>
      </trkpt>
      <trkpt lat="44.79084" lon="-0.11889">
        <ele>71.6</ele>
        <time>2022-10-06T12:01:13Z</time>
      </trkpt>
      <trkpt lat="44.79083" lon="-0.11888">
        <ele>71.6</ele>
        <time>2022-10-06T12:01:14Z</time>
      </trkpt>
      <trkpt lat="44.79081" lon="-0.11887">
        <ele>71.5</ele>
        <time>2022-10-06T12:01:15Z</time>
      </trkpt>
      <trkpt lat="44.7908" lon="-0.11886">
        <ele>71.5</ele>
        <time>2022-10-06T12:01:16Z</time>
      </trkpt>
      <trkpt lat="44.79079" lon="-0.11885">
        <ele>71.5</ele>
        <time>2022-10-06T12:01:17Z</time>
      </trkpt>
      <trkpt lat="44.79078" lon="-0.11884">
        <ele>71.5</ele>
        <time>2022-10-06T12:01:18Z</time>
      </trkpt>
      <trkpt lat="44.79077" lon="-0.11883">
        <ele>71.5</ele>
        <time>2022-10-06T12:01:19Z</time>
      </trkpt>
      <trkpt lat="44.79076" lon="-0.11882">
        <ele>71.4</ele>
        <time>2022-10-06T12:01:20Z</time>
      </trkpt>
      <trkpt lat="44.79074" lon="-0.11881">
        <ele>71.4</ele>
        <time>2022-10-06T12:01:21Z</time>
      </trkpt>
      <trkpt lat="44.79073" lon="-0.1188">
        <ele>71.4</ele>
        <time>2022-10-06T12:01:22Z</time>
      </trkpt>
      <trkpt lat="44.79072" lon="-0.11878">
        <ele>71.3</ele>
        <time>2022-10-06T12:01:23Z</time>
      </trkpt>
      <trkpt lat="44.79071" lon="-0.11878">
        <ele>71.3</ele>
        <time>2022-10-06T12:01:24Z</time>
      </trkpt>
      <trkpt lat="44.7907" lon="-0.11877">
        <ele>71.3</ele>
        <time>2022-10-06T12:01:25Z</time>
      </trkpt>
      <trkpt lat="44.79069" lon="-0.11875">
        <ele>71.2</ele>
        <time>2022-10-06T12:01:26Z</time>
      </trkpt>
      <trkpt lat="44.79067" lon="-0.11874">
        <ele>71.2</ele>
        <time>2022-10-06T12:01:27Z</time>
      </trkpt>
      <trkpt lat="44.79066" lon="-0.11872">
        <ele>71.2</ele>
        <time>2022-10-06T12:01:28Z</time>
      </trkpt>
      <trkpt lat="44.79065" lon="-0.11871">
        <ele>71.1</ele>
        <time>2022-10-06T12:01:29Z</time>
      </trkpt>
      <trkpt lat="44.79064" lon="-0.11871">
        <ele>71.1</ele>
        <time>2022-10-06T12:01:30Z</time>
      </trkpt>
      <trkpt lat="44.79063" lon="-0.1187">
        <ele>71.1</ele>
        <time>2022-10-06T12:01:31Z</time>
      </trkpt>
      <trkpt lat="44.79062" lon="-0.11869">
        <ele>71</ele>
        <time>2022-10-06T12:01:32Z</time>
      </trkpt>
      <trkpt lat="44.7906" lon="-0.11868">
        <ele>71</ele>
        <time>2022-10-06T12:01:33Z</time>
      </trkpt>
      <trkpt lat="44.79059" lon="-0.11867">
        <ele>71</ele>
        <time>2022-10-06T12:01:34Z</time>
      </trkpt>
      <trkpt lat="44.79058" lon="-0.11867">
        <ele>71</ele>
        <time>2022-10-06T12:01:35Z</time>
      </trkpt>
      <trkpt lat="44.79056" lon="-0.11865">
        <ele>70.9</ele>
        <time>2022-10-06T12:01:36Z</time>
      </trkpt>
      <trkpt lat="44.79056" lon="-0.11865">
        <ele>70.9</ele>
        <time>2022-10-06T12:01:37Z</time>
      </trkpt>
      <trkpt lat="44.79055" lon="-0.11864">
        <ele>70.9</ele>
        <time>2022-10-06T12:01:38Z</time>
      </trkpt>
      <trkpt lat="44.79053" lon="-0.11862">
        <ele>70.8</ele>
        <time>2022-10-06T12:01:39Z</time>
      </trkpt>
      <trkpt lat="44.79052" lon="-0.11862">
        <ele>70.8</ele>
        <time>2022-10-06T12:01:40Z</time>
      </trkpt>
      <trkpt lat="44.79051" lon="-0.11861">
        <ele>70.8</ele>
        <time>2022-10-06T12:01:41Z</time>
      </trkpt>
      <trkpt lat="44.79051" lon="-0.11861">
        <ele>70.7</ele>
        <time>2022-10-06T12:01:42Z</time>
      </trkpt>
      <trkpt lat="44.7905" lon="-0.11859">
        <ele>70.7</ele>
        <time>2022-10-06T12:01:43Z</time>
      </trkpt>
      <trkpt lat="44.79049" lon="-0.11858">
        <ele>70.7</ele>
        <time>2022-10-06T12:01:44Z</time>
      </trkpt>
      <trkpt lat="44.79047" lon="-0.11857">
        <ele>70.6</ele>
        <time>2022-10-06T12:01:45Z</time>
      </trkpt>
      <trkpt lat="44.79046" lon="-0.11856">
        <ele>70.6</ele>
        <time>2022-10-06T12:01:46Z</time>
      </trkpt>
      <trkpt lat="44.79045" lon="-0.11855">
        <ele>70.6</ele>
        <time>2022-10-06T12:01:47Z</time>
      </trkpt>
      <trkpt lat="44.79044" lon="-0.11854">
        <ele>70.5</ele>
        <time>2022-10-06T12:01:48Z</time>
      </trkpt>
      <trkpt lat="44.79043" lon="-0.11853">
        <ele>70.5</ele>
        <time>2022-10-06T12:01:49Z</time>
      </trkpt>
      <trkpt lat="44.79042" lon="-0.11852">
        <ele>70.5</ele>
        <time>2022-10-06T12:01:50Z</time>
      </trkpt>
      <trkpt lat="44.79041" lon="-0.11851">
        <ele>70.4</ele>
        <time>2022-10-06T12:01:51Z</time>
      </trkpt>
      <trkpt lat="44.7904" lon="-0.1185">
        <ele>70.4</ele>
        <time>2022-10-06T12:01:52Z</time>
      </trkpt>
      <trkpt lat="44.79039" lon="-0.11849">
        <ele>70.4</ele>
        <time>2022-10-06T12:01:53Z</time>
      </trkpt>
      <trkpt lat="44.79038" lon="-0.11848">
        <ele>70.3</ele>
        <time>2022-10-06T12:01:54Z</time>
      </trkpt>
      <trkpt lat="44.79036" lon="-0.11847">
        <ele>70.3</ele>
        <time>2022-10-06T12:01:55Z</time>
      </trkpt>
      <trkpt lat="44.79035" lon="-0.11847">
        <ele>70.3</ele>
        <time>2022-10-06T12:01:56Z</time>
      </trkpt>
      <trkpt lat="44.79035" lon="-0.11846">
        <ele>70.2</ele>
        <time>2022-10-06T12:01:57Z</time>
      </trkpt>
      <trkpt lat="44.79033" lon="-0.11844">
        <ele>70.2</ele>
        <time>2022-10-06T12:01:58Z</time>
      </trkpt>
      <trkpt lat="44.79032" lon="-0.11844">
        <ele>70.2</ele>
        <time>2022-10-06T12:01:59Z</time>
      </trkpt>
      <trkpt lat="44.79032" lon="-0.11843">
        <ele>70.1</ele>
        <time>2022-10-06T12:02:00Z</time>
      </trkpt>
      <trkpt lat="44.7903" lon="-0.11841">
        <ele>70.1</ele>
        <time>2022-10-06T12:02:01Z</time>
      </trkpt>
      <trkpt lat="44.79029" lon="-0.11841">
        <ele>70</ele>
        <time>2022-10-06T12:02:02Z</time>
      </trkpt>
      <trkpt lat="44.79029" lon="-0.1184">
        <ele>70</ele>
        <time>2022-10-06T12:02:03Z</time>
      </trkpt>
      <trkpt lat="44.79027" lon="-0.11838">
        <ele>69.9</ele>
        <time>2022-10-06T12:02:04Z</time>
      </trkpt>
      <trkpt lat="44.79026" lon="-0.11838">
        <ele>69.9</ele>
        <time>2022-10-06T12:02:05Z</time>
      </trkpt>
      <trkpt lat="44.79025" lon="-0.11837">
        <ele>69.9</ele>
        <time>2022-10-06T12:02:06Z</time>
      </trkpt>
      <trkpt lat="44.79024" lon="-0.11836">
        <ele>69.8</ele>
        <time>2022-10-06T12:02:07Z</time>
      </trkpt>
      <trkpt lat="44.79023" lon="-0.11836">
        <ele>69.8</ele>
        <time>2022-10-06T12:02:08Z</time>
      </trkpt>
      <trkpt lat="44.79022" lon="-0.11835">
        <ele>69.8</ele>
        <time>2022-10-06T12:02:09Z</time>
      </trkpt>
      <trkpt lat="44.7902" lon="-0.11832">
        <ele>69.7</ele>
        <time>2022-10-06T12:02:10Z</time>
      </trkpt>
      <trkpt lat="44.79019" lon="-0.11831">
        <ele>69.6</ele>
        <time>2022-10-06T12:02:11Z</time>
      </trkpt>
      <trkpt lat="44.79018" lon="-0.11831">
        <ele>69.6</ele>
        <time>2022-10-06T12:02:12Z</time>
      </trkpt>
      <trkpt lat="44.79017" lon="-0.1183">
        <ele>69.6</ele>
        <time>2022-10-06T12:02:13Z</time>
      </trkpt>
      <trkpt lat="44.79016" lon="-0.11829">
        <ele>69.5</ele>
        <time>2022-10-06T12:02:14Z</time>
      </trkpt>
      <trkpt lat="44.79015" lon="-0.11828">
        <ele>69.5</ele>
        <time>2022-10-06T12:02:15Z</time>
      </trkpt>
      <trkpt lat="44.79014" lon="-0.11827">
        <ele>69.4</ele>
        <time>2022-10-06T12:02:16Z</time>
      </trkpt>
      <trkpt lat="44.79012" lon="-0.11825">
        <ele>69.3</ele>
        <time>2022-10-06T12:02:17Z</time>
      </trkpt>
      <trkpt lat="44.79011" lon="-0.11824">
        <ele>69.3</ele>
        <time>2022-10-06T12:02:18Z</time>
      </trkpt>
      <trkpt lat="44.79011" lon="-0.11823">
        <ele>69.3</ele>
        <time>2022-10-06T12:02:19Z</time>
      </trkpt>
      <trkpt lat="44.79009" lon="-0.11821">
        <ele>69.2</ele>
        <time>2022-10-06T12:02:20Z</time>
      </trkpt>
      <trkpt lat="44.79008" lon="-0.11819">
        <ele>69.1</ele>
        <time>2022-10-06T12:02:21Z</time>
      </trkpt>
      <trkpt lat="44.79007" lon="-0.11819">
        <ele>69.1</ele>
        <time>2022-10-06T12:02:22Z</time>
      </trkpt>
      <trkpt lat="44.79006" lon="-0.11818">
        <ele>69.1</ele>
        <time>2022-10-06T12:02:23Z</time>
      </trkpt>
      <trkpt lat="44.79006" lon="-0.11817">
        <ele>69</ele>
        <time>2022-10-06T12:02:24Z</time>
      </trkpt>
      <trkpt lat="44.79003" lon="-0.11815">
        <ele>68.9</ele>
        <time>2022-10-06T12:02:25Z</time>
      </trkpt>
      <trkpt lat="44.79002" lon="-0.11814">
        <ele>68.9</ele>
        <time>2022-10-06T12:02:26Z</time>
      </trkpt>
      <trkpt lat="44.79002" lon="-0.11814">
        <ele>68.9</ele>
        <time>2022-10-06T12:02:27Z</time>
      </trkpt>
      <trkpt lat="44.79001" lon="-0.11813">
        <ele>68.8</ele>
        <time>2022-10-06T12:02:28Z</time>
      </trkpt>
      <trkpt lat="44.78999" lon="-0.11812">
        <ele>68.7</ele>
        <time>2022-10-06T12:02:30Z</time>
      </trkpt>
      <trkpt lat="44.78996" lon="-0.1181">
        <ele>68.6</ele>
        <time>2022-10-06T12:02:32Z</time>
      </trkpt>
      <trkpt lat="44.78995" lon="-0.11808">
        <ele>68.6</ele>
        <time>2022-10-06T12:02:33Z</time>
      </trkpt>
      <trkpt lat="44.78994" lon="-0.11807">
        <ele>68.5</ele>
        <time>2022-10-06T12:02:34Z</time>
      </trkpt>
      <trkpt lat="44.78993" lon="-0.11806">
        <ele>68.5</ele>
        <time>2022-10-06T12:02:35Z</time>
      </trkpt>
      <trkpt lat="44.78992" lon="-0.11805">
        <ele>68.5</ele>
        <time>2022-10-06T12:02:36Z</time>
      </trkpt>
      <trkpt lat="44.78991" lon="-0.11804">
        <ele>68.4</ele>
        <time>2022-10-06T12:02:37Z</time>
      </trkpt>
      <trkpt lat="44.7899" lon="-0.11803">
        <ele>68.4</ele>
        <time>2022-10-06T12:02:38Z</time>
      </trkpt>
      <trkpt lat="44.7899" lon="-0.11802">
        <ele>68.3</ele>
        <time>2022-10-06T12:02:39Z</time>
      </trkpt>
      <trkpt lat="44.78989" lon="-0.11801">
        <ele>68.3</ele>
        <time>2022-10-06T12:02:40Z</time>
      </trkpt>
      <trkpt lat="44.78988" lon="-0.118">
        <ele>68.3</ele>
        <time>2022-10-06T12:02:41Z</time>
      </trkpt>
      <trkpt lat="44.78986" lon="-0.11798">
        <ele>68.2</ele>
        <time>2022-10-06T12:02:42Z</time>
      </trkpt>
      <trkpt lat="44.78985" lon="-0.11797">
        <ele>68.2</ele>
        <time>2022-10-06T12:02:43Z</time>
      </trkpt>
      <trkpt lat="44.78985" lon="-0.11797">
        <ele>68.1</ele>
        <time>2022-10-06T12:02:44Z</time>
      </trkpt>
      <trkpt lat="44.78984" lon="-0.11796">
        <ele>68.1</ele>
        <time>2022-10-06T12:02:45Z</time>
      </trkpt>
      <trkpt lat="44.78982" lon="-0.11795">
        <ele>68</ele>
        <time>2022-10-06T12:02:46Z</time>
      </trkpt>
      <trkpt lat="44.78981" lon="-0.11794">
        <ele>68</ele>
        <time>2022-10-06T12:02:47Z</time>
      </trkpt>
      <trkpt lat="44.7898" lon="-0.11792">
        <ele>68</ele>
        <time>2022-10-06T12:02:48Z</time>
      </trkpt>
      <trkpt lat="44.78979" lon="-0.11792">
        <ele>67.9</ele>
        <time>2022-10-06T12:02:49Z</time>
      </trkpt>
      <trkpt lat="44.78978" lon="-0.11791">
        <ele>67.9</ele>
        <time>2022-10-06T12:02:50Z</time>
      </trkpt>
      <trkpt lat="44.78977" lon="-0.1179">
        <ele>67.9</ele>
        <time>2022-10-06T12:02:51Z</time>
      </trkpt>
      <trkpt lat="44.78976" lon="-0.11788">
        <ele>67.8</ele>
        <time>2022-10-06T12:02:52Z</time>
      </trkpt>
      <trkpt lat="44.78975" lon="-0.11788">
        <ele>67.8</ele>
        <time>2022-10-06T12:02:53Z</time>
      </trkpt>
      <trkpt lat="44.78974" lon="-0.11787">
        <ele>67.7</ele>
        <time>2022-10-06T12:02:54Z</time>
      </trkpt>
      <trkpt lat="44.78973" lon="-0.11786">
        <ele>67.7</ele>
        <time>2022-10-06T12:02:55Z</time>
      </trkpt>
      <trkpt lat="44.78972" lon="-0.11784">
        <ele>67.6</ele>
        <time>2022-10-06T12:02:56Z</time>
      </trkpt>
      <trkpt lat="44.78971" lon="-0.11784">
        <ele>67.6</ele>
        <time>2022-10-06T12:02:57Z</time>
      </trkpt>
      <trkpt lat="44.7897" lon="-0.11783">
        <ele>67.6</ele>
        <time>2022-10-06T12:02:58Z</time>
      </trkpt>
      <trkpt lat="44.78969" lon="-0.11782">
        <ele>67.6</ele>
        <time>2022-10-06T12:02:59Z</time>
      </trkpt>
      <trkpt lat="44.78968" lon="-0.11781">
        <ele>67.5</ele>
        <time>2022-10-06T12:03:00Z</time>
      </trkpt>
      <trkpt lat="44.78967" lon="-0.11779">
        <ele>67.5</ele>
        <time>2022-10-06T12:03:01Z</time>
      </trkpt>
      <trkpt lat="44.78966" lon="-0.11779">
        <ele>67.4</ele>
        <time>2022-10-06T12:03:02Z</time>
      </trkpt>
      <trkpt lat="44.78965" lon="-0.11778">
        <ele>67.4</ele>
        <time>2022-10-06T12:03:03Z</time>
      </trkpt>
      <trkpt lat="44.78964" lon="-0.11777">
        <ele>67.4</ele>
        <time>2022-10-06T12:03:04Z</time>
      </trkpt>
      <trkpt lat="44.78964" lon="-0.11776">
        <ele>67.3</ele>
        <time>2022-10-06T12:03:05Z</time>
      </trkpt>
      <trkpt lat="44.78963" lon="-0.11775">
        <ele>67.3</ele>
        <time>2022-10-06T12:03:06Z</time>
      </trkpt>
      <trkpt lat="44.78962" lon="-0.11774">
        <ele>67.3</ele>
        <time>2022-10-06T12:03:07Z</time>
      </trkpt>
      <trkpt lat="44.7896" lon="-0.11772">
        <ele>67.2</ele>
        <time>2022-10-06T12:03:08Z</time>
      </trkpt>
      <trkpt lat="44.78959" lon="-0.11772">
        <ele>67.2</ele>
        <time>2022-10-06T12:03:09Z</time>
      </trkpt>
      <trkpt lat="44.78958" lon="-0.11771">
        <ele>67.1</ele>
        <time>2022-10-06T12:03:10Z</time>
      </trkpt>
      <trkpt lat="44.78957" lon="-0.1177">
        <ele>67.1</ele>
        <time>2022-10-06T12:03:11Z</time>
      </trkpt>
      <trkpt lat="44.78956" lon="-0.11769">
        <ele>67.1</ele>
        <time>2022-10-06T12:03:12Z</time>
      </trkpt>
      <trkpt lat="44.78955" lon="-0.11768">
        <ele>67</ele>
        <time>2022-10-06T12:03:13Z</time>
      </trkpt>
      <trkpt lat="44.78954" lon="-0.11767">
        <ele>67</ele>
        <time>2022-10-06T12:03:14Z</time>
      </trkpt>
      <trkpt lat="44.78952" lon="-0.11766">
        <ele>67</ele>
        <time>2022-10-06T12:03:15Z</time>
      </trkpt>
      <trkpt lat="44.78951" lon="-0.11765">
        <ele>66.9</ele>
        <time>2022-10-06T12:03:16Z</time>
      </trkpt>
      <trkpt lat="44.78951" lon="-0.11764">
        <ele>66.9</ele>
        <time>2022-10-06T12:03:17Z</time>
      </trkpt>
      <trkpt lat="44.7895" lon="-0.11763">
        <ele>66.9</ele>
        <time>2022-10-06T12:03:18Z</time>
      </trkpt>
      <trkpt lat="44.78949" lon="-0.11762">
        <ele>66.8</ele>
        <time>2022-10-06T12:03:19Z</time>
      </trkpt>
      <trkpt lat="44.78947" lon="-0.1176">
        <ele>66.8</ele>
        <time>2022-10-06T12:03:20Z</time>
      </trkpt>
      <trkpt lat="44.78946" lon="-0.11759">
        <ele>66.8</ele>
        <time>2022-10-06T12:03:21Z</time>
      </trkpt>
      <trkpt lat="44.78945" lon="-0.11758">
        <ele>66.8</ele>
        <time>2022-10-06T12:03:22Z</time>
      </trkpt>
      <trkpt lat="44.78944" lon="-0.11758">
        <ele>66.8</ele>
        <time>2022-10-06T12:03:23Z</time>
      </trkpt>
      <trkpt lat="44.78944" lon="-0.11757">
        <ele>66.7</ele>
        <time>2022-10-06T12:03:24Z</time>
      </trkpt>
      <trkpt lat="44.78941" lon="-0.11756">
        <ele>66.7</ele>
        <time>2022-10-06T12:03:25Z</time>
      </trkpt>
      <trkpt lat="44.78941" lon="-0.11755">
        <ele>66.7</ele>
        <time>2022-10-06T12:03:26Z</time>
      </trkpt>
      <trkpt lat="44.78941" lon="-0.11754">
        <ele>66.7</ele>
        <time>2022-10-06T12:03:27Z</time>
      </trkpt>
      <trkpt lat="44.7894" lon="-0.11753">
        <ele>66.7</ele>
        <time>2022-10-06T12:03:28Z</time>
      </trkpt>
      <trkpt lat="44.78939" lon="-0.11752">
        <ele>66.7</ele>
        <time>2022-10-06T12:03:29Z</time>
      </trkpt>
      <trkpt lat="44.78937" lon="-0.11751">
        <ele>66.6</ele>
        <time>2022-10-06T12:03:30Z</time>
      </trkpt>
      <trkpt lat="44.78937" lon="-0.1175">
        <ele>66.6</ele>
        <time>2022-10-06T12:03:31Z</time>
      </trkpt>
      <trkpt lat="44.78936" lon="-0.11749">
        <ele>66.6</ele>
        <time>2022-10-06T12:03:32Z</time>
      </trkpt>
      <trkpt lat="44.78935" lon="-0.11748">
        <ele>66.6</ele>
        <time>2022-10-06T12:03:33Z</time>
      </trkpt>
      <trkpt lat="44.78934" lon="-0.11747">
        <ele>66.6</ele>
        <time>2022-10-06T12:03:34Z</time>
      </trkpt>
      <trkpt lat="44.78933" lon="-0.11746">
        <ele>66.6</ele>
        <time>2022-10-06T12:03:35Z</time>
      </trkpt>
      <trkpt lat="44.78931" lon="-0.11744">
        <ele>66.6</ele>
        <time>2022-10-06T12:03:36Z</time>
      </trkpt>
      <trkpt lat="44.78931" lon="-0.11743">
        <ele>66.6</ele>
        <time>2022-10-06T12:03:37Z</time>
      </trkpt>
      <trkpt lat="44.7893" lon="-0.11742">
        <ele>66.6</ele>
        <time>2022-10-06T12:03:38Z</time>
      </trkpt>
      <trkpt lat="44.78929" lon="-0.11741">
        <ele>66.6</ele>
        <time>2022-10-06T12:03:39Z</time>
      </trkpt>
      <trkpt lat="44.78928" lon="-0.1174">
        <ele>66.6</ele>
        <time>2022-10-06T12:03:40Z</time>
      </trkpt>
      <trkpt lat="44.78927" lon="-0.11739">
        <ele>66.6</ele>
        <time>2022-10-06T12:03:41Z</time>
      </trkpt>
      <trkpt lat="44.78927" lon="-0.11739">
        <ele>66.6</ele>
        <time>2022-10-06T12:03:42Z</time>
      </trkpt>
      <trkpt lat="44.78925" lon="-0.11737">
        <ele>66.6</ele>
        <time>2022-10-06T12:03:43Z</time>
      </trkpt>
      <trkpt lat="44.78925" lon="-0.11736">
        <ele>66.6</ele>
        <time>2022-10-06T12:03:44Z</time>
      </trkpt>
      <trkpt lat="44.78924" lon="-0.11735">
        <ele>66.7</ele>
        <time>2022-10-06T12:03:45Z</time>
      </trkpt>
      <trkpt lat="44.78923" lon="-0.11734">
        <ele>66.7</ele>
        <time>2022-10-06T12:03:46Z</time>
      </trkpt>
      <trkpt lat="44.78922" lon="-0.11733">
        <ele>66.7</ele>
        <time>2022-10-06T12:03:47Z</time>
      </trkpt>
      <trkpt lat="44.7892" lon="-0.11733">
        <ele>66.7</ele>
        <time>2022-10-06T12:03:48Z</time>
      </trkpt>
      <trkpt lat="44.78919" lon="-0.11732">
        <ele>66.7</ele>
        <time>2022-10-06T12:03:49Z</time>
      </trkpt>
      <trkpt lat="44.78919" lon="-0.11732">
        <ele>66.7</ele>
        <time>2022-10-06T12:03:50Z</time>
      </trkpt>
      <trkpt lat="44.78918" lon="-0.11732">
        <ele>66.7</ele>
        <time>2022-10-06T12:03:51Z</time>
      </trkpt>
      <trkpt lat="44.78917" lon="-0.11731">
        <ele>66.7</ele>
        <time>2022-10-06T12:03:52Z</time>
      </trkpt>
      <trkpt lat="44.78916" lon="-0.1173">
        <ele>66.7</ele>
        <time>2022-10-06T12:03:53Z</time>
      </trkpt>
      <trkpt lat="44.78915" lon="-0.11729">
        <ele>66.7</ele>
        <time>2022-10-06T12:03:54Z</time>
      </trkpt>
      <trkpt lat="44.78914" lon="-0.11729">
        <ele>66.7</ele>
        <time>2022-10-06T12:03:55Z</time>
      </trkpt>
      <trkpt lat="44.78913" lon="-0.11729">
        <ele>66.8</ele>
        <time>2022-10-06T12:03:56Z</time>
      </trkpt>
      <trkpt lat="44.78912" lon="-0.11729">
        <ele>66.8</ele>
        <time>2022-10-06T12:03:57Z</time>
      </trkpt>
      <trkpt lat="44.7891" lon="-0.1173">
        <ele>66.8</ele>
        <time>2022-10-06T12:03:58Z</time>
      </trkpt>
      <trkpt lat="44.78909" lon="-0.1173">
        <ele>66.8</ele>
        <time>2022-10-06T12:03:59Z</time>
      </trkpt>
      <trkpt lat="44.78908" lon="-0.11731">
        <ele>66.8</ele>
        <time>2022-10-06T12:04:00Z</time>
      </trkpt>
      <trkpt lat="44.78907" lon="-0.1173">
        <ele>66.8</ele>
        <time>2022-10-06T12:04:01Z</time>
      </trkpt>
      <trkpt lat="44.78905" lon="-0.1173">
        <ele>66.9</ele>
        <time>2022-10-06T12:04:02Z</time>
      </trkpt>
      <trkpt lat="44.78904" lon="-0.11729">
        <ele>66.9</ele>
        <time>2022-10-06T12:04:03Z</time>
      </trkpt>
      <trkpt lat="44.78903" lon="-0.11729">
        <ele>66.9</ele>
        <time>2022-10-06T12:04:04Z</time>
      </trkpt>
      <trkpt lat="44.78902" lon="-0.11728">
        <ele>66.9</ele>
        <time>2022-10-06T12:04:05Z</time>
      </trkpt>
      <trkpt lat="44.78902" lon="-0.11728">
        <ele>66.9</ele>
        <time>2022-10-06T12:04:06Z</time>
      </trkpt>
      <trkpt lat="44.78901" lon="-0.11727">
        <ele>66.9</ele>
        <time>2022-10-06T12:04:07Z</time>
      </trkpt>
      <trkpt lat="44.78899" lon="-0.11726">
        <ele>67</ele>
        <time>2022-10-06T12:04:08Z</time>
      </trkpt>
      <trkpt lat="44.78898" lon="-0.11725">
        <ele>67</ele>
        <time>2022-10-06T12:04:09Z</time>
      </trkpt>
      <trkpt lat="44.78898" lon="-0.11725">
        <ele>67</ele>
        <time>2022-10-06T12:04:10Z</time>
      </trkpt>
      <trkpt lat="44.78898" lon="-0.11724">
        <ele>67</ele>
        <time>2022-10-06T12:04:11Z</time>
      </trkpt>
      <trkpt lat="44.78897" lon="-0.11723">
        <ele>67</ele>
        <time>2022-10-06T12:04:12Z</time>
      </trkpt>
      <trkpt lat="44.78895" lon="-0.11721">
        <ele>67.1</ele>
        <time>2022-10-06T12:04:13Z</time>
      </trkpt>
      <trkpt lat="44.78893" lon="-0.1172">
        <ele>67.1</ele>
        <time>2022-10-06T12:04:14Z</time>
      </trkpt>
      <trkpt lat="44.78893" lon="-0.11719">
        <ele>67.1</ele>
        <time>2022-10-06T12:04:15Z</time>
      </trkpt>
      <trkpt lat="44.78892" lon="-0.11718">
        <ele>67.1</ele>
        <time>2022-10-06T12:04:16Z</time>
      </trkpt>
      <trkpt lat="44.78891" lon="-0.11717">
        <ele>67.2</ele>
        <time>2022-10-06T12:04:17Z</time>
      </trkpt>
      <trkpt lat="44.78889" lon="-0.11716">
        <ele>67.2</ele>
        <time>2022-10-06T12:04:18Z</time>
      </trkpt>
      <trkpt lat="44.78888" lon="-0.11715">
        <ele>67.2</ele>
        <time>2022-10-06T12:04:19Z</time>
      </trkpt>
      <trkpt lat="44.78887" lon="-0.11714">
        <ele>67.3</ele>
        <time>2022-10-06T12:04:20Z</time>
      </trkpt>
      <trkpt lat="44.78886" lon="-0.11714">
        <ele>67.3</ele>
        <time>2022-10-06T12:04:21Z</time>
      </trkpt>
      <trkpt lat="44.78884" lon="-0.11712">
        <ele>67.3</ele>
        <time>2022-10-06T12:04:22Z</time>
      </trkpt>
      <trkpt lat="44.78884" lon="-0.11711">
        <ele>67.4</ele>
        <time>2022-10-06T12:04:23Z</time>
      </trkpt>
      <trkpt lat="44.78883" lon="-0.1171">
        <ele>67.4</ele>
        <time>2022-10-06T12:04:24Z</time>
      </trkpt>
      <trkpt lat="44.78882" lon="-0.11709">
        <ele>67.4</ele>
        <time>2022-10-06T12:04:25Z</time>
      </trkpt>
      <trkpt lat="44.78881" lon="-0.11708">
        <ele>67.5</ele>
        <time>2022-10-06T12:04:26Z</time>
      </trkpt>
      <trkpt lat="44.7888" lon="-0.11707">
        <ele>67.5</ele>
        <time>2022-10-06T12:04:27Z</time>
      </trkpt>
      <trkpt lat="44.78879" lon="-0.11706">
        <ele>67.5</ele>
        <time>2022-10-06T12:04:28Z</time>
      </trkpt>
      <trkpt lat="44.78878" lon="-0.11706">
        <ele>67.6</ele>
        <time>2022-10-06T12:04:29Z</time>
      </trkpt>
      <trkpt lat="44.78877" lon="-0.11706">
        <ele>67.6</ele>
        <time>2022-10-06T12:04:30Z</time>
      </trkpt>
      <trkpt lat="44.78875" lon="-0.11707">
        <ele>67.9</ele>
        <time>2022-10-06T12:04:31Z</time>
      </trkpt>
      <trkpt lat="44.78874" lon="-0.11707">
        <ele>67.8</ele>
        <time>2022-10-06T12:04:32Z</time>
      </trkpt>
      <trkpt lat="44.78873" lon="-0.11707">
        <ele>67.8</ele>
        <time>2022-10-06T12:04:33Z</time>
      </trkpt>
      <trkpt lat="44.78871" lon="-0.11709">
        <ele>67.7</ele>
        <time>2022-10-06T12:04:34Z</time>
      </trkpt>
      <trkpt lat="44.7887" lon="-0.1171">
        <ele>67.6</ele>
        <time>2022-10-06T12:04:35Z</time>
      </trkpt>
      <trkpt lat="44.78869" lon="-0.1171">
        <ele>67.6</ele>
        <time>2022-10-06T12:04:36Z</time>
      </trkpt>
      <trkpt lat="44.78868" lon="-0.1171">
        <ele>67.5</ele>
        <time>2022-10-06T12:04:37Z</time>
      </trkpt>
      <trkpt lat="44.78866" lon="-0.11711">
        <ele>67.4</ele>
        <time>2022-10-06T12:04:38Z</time>
      </trkpt>
      <trkpt lat="44.78865" lon="-0.11712">
        <ele>67.3</ele>
        <time>2022-10-06T12:04:39Z</time>
      </trkpt>
      <trkpt lat="44.78864" lon="-0.11713">
        <ele>67.2</ele>
        <time>2022-10-06T12:04:40Z</time>
      </trkpt>
      <trkpt lat="44.78863" lon="-0.11713">
        <ele>67.2</ele>
        <time>2022-10-06T12:04:41Z</time>
      </trkpt>
      <trkpt lat="44.78862" lon="-0.11715">
        <ele>67.1</ele>
        <time>2022-10-06T12:04:42Z</time>
      </trkpt>
      <trkpt lat="44.7886" lon="-0.11715">
        <ele>67</ele>
        <time>2022-10-06T12:04:43Z</time>
      </trkpt>
      <trkpt lat="44.78859" lon="-0.11716">
        <ele>66.9</ele>
        <time>2022-10-06T12:04:44Z</time>
      </trkpt>
      <trkpt lat="44.78858" lon="-0.11717">
        <ele>66.9</ele>
        <time>2022-10-06T12:04:45Z</time>
      </trkpt>
      <trkpt lat="44.78857" lon="-0.11718">
        <ele>66.8</ele>
        <time>2022-10-06T12:04:46Z</time>
      </trkpt>
      <trkpt lat="44.78856" lon="-0.11721">
        <ele>66.7</ele>
        <time>2022-10-06T12:04:47Z</time>
      </trkpt>
      <trkpt lat="44.78856" lon="-0.11723">
        <ele>66.6</ele>
        <time>2022-10-06T12:04:48Z</time>
      </trkpt>
      <trkpt lat="44.78856" lon="-0.11724">
        <ele>66.6</ele>
        <time>2022-10-06T12:04:49Z</time>
      </trkpt>
      <trkpt lat="44.78856" lon="-0.11725">
        <ele>66.5</ele>
        <time>2022-10-06T12:04:50Z</time>
      </trkpt>
      <trkpt lat="44.78856" lon="-0.11727">
        <ele>66.5</ele>
        <time>2022-10-06T12:04:51Z</time>
      </trkpt>
      <trkpt lat="44.78856" lon="-0.11729">
        <ele>66.4</ele>
        <time>2022-10-06T12:04:52Z</time>
      </trkpt>
      <trkpt lat="44.78856" lon="-0.11731">
        <ele>66.3</ele>
        <time>2022-10-06T12:04:53Z</time>
      </trkpt>
      <trkpt lat="44.78856" lon="-0.11733">
        <ele>66.3</ele>
        <time>2022-10-06T12:04:54Z</time>
      </trkpt>
      <trkpt lat="44.78856" lon="-0.11734">
        <ele>66.2</ele>
        <time>2022-10-06T12:04:55Z</time>
      </trkpt>
      <trkpt lat="44.78856" lon="-0.11735">
        <ele>66.2</ele>
        <time>2022-10-06T12:04:56Z</time>
      </trkpt>
      <trkpt lat="44.78857" lon="-0.11737">
        <ele>66.1</ele>
        <time>2022-10-06T12:04:57Z</time>
      </trkpt>
      <trkpt lat="44.78857" lon="-0.11738">
        <ele>66.1</ele>
        <time>2022-10-06T12:04:58Z</time>
      </trkpt>
      <trkpt lat="44.78858" lon="-0.11739">
        <ele>66</ele>
        <time>2022-10-06T12:04:59Z</time>
      </trkpt>
      <trkpt lat="44.78858" lon="-0.11739">
        <ele>66</ele>
        <time>2022-10-06T12:05:00Z</time>
      </trkpt>
      <trkpt lat="44.78858" lon="-0.11739">
        <ele>66</ele>
        <time>2022-10-06T12:05:01Z</time>
      </trkpt>
      <trkpt lat="44.78859" lon="-0.11739">
        <ele>66</ele>
        <time>2022-10-06T12:05:02Z</time>
      </trkpt>
      <trkpt lat="44.78859" lon="-0.11739">
        <ele>66</ele>
        <time>2022-10-06T12:05:03Z</time>
      </trkpt>
      <trkpt lat="44.78859" lon="-0.11739">
        <ele>66</ele>
        <time>2022-10-06T12:05:04Z</time>
      </trkpt>
      <trkpt lat="44.78859" lon="-0.11739">
        <ele>66</ele>
        <time>2022-10-06T12:05:05Z</time>
      </trkpt>
      <trkpt lat="44.78859" lon="-0.11739">
        <ele>66</ele>
        <time>2022-10-06T12:05:06Z</time>
      </trkpt>
      <trkpt lat="44.78859" lon="-0.11739">
        <ele>66</ele>
        <time>2022-10-06T12:05:07Z</time>
      </trkpt>
      <trkpt lat="44.78859" lon="-0.11739">
        <ele>66</ele>
        <time>2022-10-06T12:05:08Z</time>
      </trkpt>
      <trkpt lat="44.78859" lon="-0.11738">
        <ele>66</ele>
        <time>2022-10-06T12:05:09Z</time>
      </trkpt>
      <trkpt lat="44.78859" lon="-0.11738">
        <ele>66</ele>
        <time>2022-10-06T12:05:10Z</time>
      </trkpt>
      <trkpt lat="44.78859" lon="-0.11737">
        <ele>65.9</ele>
        <time>2022-10-06T12:05:11Z</time>
      </trkpt>
      <trkpt lat="44.78859" lon="-0.11738">
        <ele>65.9</ele>
        <time>2022-10-06T12:05:12Z</time>
      </trkpt>
      <trkpt lat="44.78859" lon="-0.11738">
        <ele>65.9</ele>
        <time>2022-10-06T12:05:13Z</time>
      </trkpt>
      <trkpt lat="44.78859" lon="-0.11738">
        <ele>65.9</ele>
        <time>2022-10-06T12:05:14Z</time>
      </trkpt>
      <trkpt lat="44.78859" lon="-0.11738">
        <ele>65.9</ele>
        <time>2022-10-06T12:05:15Z</time>
      </trkpt>
      <trkpt lat="44.78859" lon="-0.11738">
        <ele>65.9</ele>
        <time>2022-10-06T12:05:16Z</time>
      </trkpt>
      <trkpt lat="44.78859" lon="-0.11738">
        <ele>65.9</ele>
        <time>2022-10-06T12:05:17Z</time>
      </trkpt>
      <trkpt lat="44.78859" lon="-0.11738">
        <ele>65.9</ele>
        <time>2022-10-06T12:05:18Z</time>
      </trkpt>
      <trkpt lat="44.78859" lon="-0.11737">
        <ele>65.9</ele>
        <time>2022-10-06T12:05:19Z</time>
      </trkpt>
      <trkpt lat="44.78859" lon="-0.11737">
        <ele>65.9</ele>
        <time>2022-10-06T12:05:20Z</time>
      </trkpt>
      <trkpt lat="44.78859" lon="-0.11737">
        <ele>65.9</ele>
        <time>2022-10-06T12:05:21Z</time>
      </trkpt>
      <trkpt lat="44.78859" lon="-0.11737">
        <ele>65.9</ele>
        <time>2022-10-06T12:05:22Z</time>
      </trkpt>
      <trkpt lat="44.78859" lon="-0.11737">
        <ele>65.9</ele>
        <time>2022-10-06T12:05:23Z</time>
      </trkpt>
      <trkpt lat="44.78859" lon="-0.11737">
        <ele>65.9</ele>
        <time>2022-10-06T12:05:24Z</time>
      </trkpt>
      <trkpt lat="44.78859" lon="-0.11737">
        <ele>65.9</ele>
        <time>2022-10-06T12:05:25Z</time>
      </trkpt>
      <trkpt lat="44.78859" lon="-0.11737">
        <ele>65.9</ele>
        <time>2022-10-06T12:05:26Z</time>
      </trkpt>
      <trkpt lat="44.78859" lon="-0.11737">
        <ele>65.9</ele>
        <time>2022-10-06T12:05:27Z</time>
      </trkpt>
      <trkpt lat="44.78859" lon="-0.11737">
        <ele>65.9</ele>
        <time>2022-10-06T12:05:28Z</time>
      </trkpt>
      <trkpt lat="44.78859" lon="-0.11737">
        <ele>65.9</ele>
        <time>2022-10-06T12:05:29Z</time>
      </trkpt>
      <trkpt lat="44.78859" lon="-0.11737">
        <ele>65.9</ele>
        <time>2022-10-06T12:05:30Z</time>
      </trkpt>
      <trkpt lat="44.78859" lon="-0.11737">
        <ele>65.9</ele>
        <time>2022-10-06T12:05:31Z</time>
      </trkpt>
      <trkpt lat="44.78859" lon="-0.11737">
        <ele>65.9</ele>
        <time>2022-10-06T12:05:32Z</time>
      </trkpt>
      <trkpt lat="44.78859" lon="-0.11737">
        <ele>65.9</ele>
        <time>2022-10-06T12:05:33Z</time>
      </trkpt>
      <trkpt lat="44.78859" lon="-0.11737">
        <ele>65.9</ele>
        <time>2022-10-06T12:05:34Z</time>
      </trkpt>
      <trkpt lat="44.78859" lon="-0.11737">
        <ele>65.9</ele>
        <time>2022-10-06T12:05:35Z</time>
      </trkpt>
      <trkpt lat="44.78859" lon="-0.11737">
        <ele>65.9</ele>
        <time>2022-10-06T12:05:36Z</time>
      </trkpt>
      <trkpt lat="44.78859" lon="-0.11737">
        <ele>65.9</ele>
        <time>2022-10-06T12:05:37Z</time>
      </trkpt>
      <trkpt lat="44.78859" lon="-0.11737">
        <ele>65.9</ele>
        <time>2022-10-06T12:05:38Z</time>
      </trkpt>
      <trkpt lat="44.78859" lon="-0.11737">
        <ele>65.9</ele>
        <time>2022-10-06T12:05:39Z</time>
      </trkpt>
      <trkpt lat="44.78859" lon="-0.11737">
        <ele>65.9</ele>
        <time>2022-10-06T12:05:40Z</time>
      </trkpt>
      <trkpt lat="44.78859" lon="-0.11737">
        <ele>65.9</ele>
        <time>2022-10-06T12:05:41Z</time>
      </trkpt>
      <trkpt lat="44.78859" lon="-0.11737">
        <ele>65.9</ele>
        <time>2022-10-06T12:05:42Z</time>
      </trkpt>
      <trkpt lat="44.78859" lon="-0.11738">
        <ele>65.9</ele>
        <time>2022-10-06T12:05:43Z</time>
      </trkpt>
      <trkpt lat="44.78859" lon="-0.11739">
        <ele>65.9</ele>
        <time>2022-10-06T12:05:44Z</time>
      </trkpt>
      <trkpt lat="44.78859" lon="-0.1174">
        <ele>65.9</ele>
        <time>2022-10-06T12:05:45Z</time>
      </trkpt>
      <trkpt lat="44.78859" lon="-0.11741">
        <ele>65.8</ele>
        <time>2022-10-06T12:05:46Z</time>
      </trkpt>
      <trkpt lat="44.7886" lon="-0.11742">
        <ele>65.8</ele>
        <time>2022-10-06T12:05:47Z</time>
      </trkpt>
      <trkpt lat="44.7886" lon="-0.11744">
        <ele>65.7</ele>
        <time>2022-10-06T12:05:48Z</time>
      </trkpt>
      <trkpt lat="44.7886" lon="-0.11745">
        <ele>65.7</ele>
        <time>2022-10-06T12:05:49Z</time>
      </trkpt>
      <trkpt lat="44.7886" lon="-0.11747">
        <ele>65.6</ele>
        <time>2022-10-06T12:05:50Z</time>
      </trkpt>
      <trkpt lat="44.78859" lon="-0.11748">
        <ele>65.5</ele>
        <time>2022-10-06T12:05:51Z</time>
      </trkpt>
      <trkpt lat="44.78859" lon="-0.1175">
        <ele>65.5</ele>
        <time>2022-10-06T12:05:52Z</time>
      </trkpt>
      <trkpt lat="44.78859" lon="-0.11751">
        <ele>65.4</ele>
        <time>2022-10-06T12:05:53Z</time>
      </trkpt>
      <trkpt lat="44.78859" lon="-0.11753">
        <ele>65.4</ele>
        <time>2022-10-06T12:05:54Z</time>
      </trkpt>
      <trkpt lat="44.78859" lon="-0.11755">
        <ele>65.3</ele>
        <time>2022-10-06T12:05:55Z</time>
      </trkpt>
      <trkpt lat="44.78859" lon="-0.11756">
        <ele>65.3</ele>
        <time>2022-10-06T12:05:56Z</time>
      </trkpt>
      <trkpt lat="44.78859" lon="-0.11759">
        <ele>65.2</ele>
        <time>2022-10-06T12:05:57Z</time>
      </trkpt>
      <trkpt lat="44.78859" lon="-0.1176">
        <ele>65.1</ele>
        <time>2022-10-06T12:05:58Z</time>
      </trkpt>
      <trkpt lat="44.78859" lon="-0.11762">
        <ele>65.1</ele>
        <time>2022-10-06T12:05:59Z</time>
      </trkpt>
      <trkpt lat="44.78859" lon="-0.11763">
        <ele>65.1</ele>
        <time>2022-10-06T12:06:00Z</time>
      </trkpt>
      <trkpt lat="44.78859" lon="-0.11765">
        <ele>65</ele>
        <time>2022-10-06T12:06:01Z</time>
      </trkpt>
      <trkpt lat="44.78859" lon="-0.11766">
        <ele>64.9</ele>
        <time>2022-10-06T12:06:02Z</time>
      </trkpt>
      <trkpt lat="44.7886" lon="-0.11768">
        <ele>64.9</ele>
        <time>2022-10-06T12:06:03Z</time>
      </trkpt>
      <trkpt lat="44.78861" lon="-0.1177">
        <ele>64.8</ele>
        <time>2022-10-06T12:06:04Z</time>
      </trkpt>
      <trkpt lat="44.78862" lon="-0.11773">
        <ele>64.7</ele>
        <time>2022-10-06T12:06:05Z</time>
      </trkpt>
      <trkpt lat="44.78862" lon="-0.11774">
        <ele>64.7</ele>
        <time>2022-10-06T12:06:06Z</time>
      </trkpt>
      <trkpt lat="44.78862" lon="-0.11775">
        <ele>64.6</ele>
        <time>2022-10-06T12:06:07Z</time>
      </trkpt>
      <trkpt lat="44.78862" lon="-0.11777">
        <ele>64.6</ele>
        <time>2022-10-06T12:06:08Z</time>
      </trkpt>
      <trkpt lat="44.78863" lon="-0.11778">
        <ele>64.5</ele>
        <time>2022-10-06T12:06:09Z</time>
      </trkpt>
      <trkpt lat="44.78863" lon="-0.11779">
        <ele>64.4</ele>
        <time>2022-10-06T12:06:10Z</time>
      </trkpt>
      <trkpt lat="44.78863" lon="-0.11782">
        <ele>64.4</ele>
        <time>2022-10-06T12:06:11Z</time>
      </trkpt>
      <trkpt lat="44.78863" lon="-0.11784">
        <ele>64.3</ele>
        <time>2022-10-06T12:06:12Z</time>
      </trkpt>
      <trkpt lat="44.78862" lon="-0.11786">
        <ele>64.2</ele>
        <time>2022-10-06T12:06:13Z</time>
      </trkpt>
      <trkpt lat="44.78862" lon="-0.11788">
        <ele>64.1</ele>
        <time>2022-10-06T12:06:14Z</time>
      </trkpt>
      <trkpt lat="44.78862" lon="-0.11791">
        <ele>64.1</ele>
        <time>2022-10-06T12:06:15Z</time>
      </trkpt>
      <trkpt lat="44.78862" lon="-0.11792">
        <ele>64</ele>
        <time>2022-10-06T12:06:16Z</time>
      </trkpt>
      <trkpt lat="44.78863" lon="-0.11794">
        <ele>64</ele>
        <time>2022-10-06T12:06:17Z</time>
      </trkpt>
      <trkpt lat="44.78862" lon="-0.11796">
        <ele>63.9</ele>
        <time>2022-10-06T12:06:18Z</time>
      </trkpt>
      <trkpt lat="44.78862" lon="-0.11798">
        <ele>63.9</ele>
        <time>2022-10-06T12:06:19Z</time>
      </trkpt>
      <trkpt lat="44.78862" lon="-0.11799">
        <ele>63.8</ele>
        <time>2022-10-06T12:06:20Z</time>
      </trkpt>
      <trkpt lat="44.78863" lon="-0.11801">
        <ele>63.8</ele>
        <time>2022-10-06T12:06:21Z</time>
      </trkpt>
      <trkpt lat="44.78863" lon="-0.11803">
        <ele>63.7</ele>
        <time>2022-10-06T12:06:22Z</time>
      </trkpt>
      <trkpt lat="44.78863" lon="-0.11804">
        <ele>63.7</ele>
        <time>2022-10-06T12:06:23Z</time>
      </trkpt>
      <trkpt lat="44.78864" lon="-0.11807">
        <ele>63.6</ele>
        <time>2022-10-06T12:06:24Z</time>
      </trkpt>
      <trkpt lat="44.78864" lon="-0.11808">
        <ele>63.6</ele>
        <time>2022-10-06T12:06:25Z</time>
      </trkpt>
      <trkpt lat="44.78864" lon="-0.1181">
        <ele>63.5</ele>
        <time>2022-10-06T12:06:26Z</time>
      </trkpt>
      <trkpt lat="44.78864" lon="-0.11811">
        <ele>63.5</ele>
        <time>2022-10-06T12:06:27Z</time>
      </trkpt>
      <trkpt lat="44.78864" lon="-0.11813">
        <ele>63.4</ele>
        <time>2022-10-06T12:06:28Z</time>
      </trkpt>
      <trkpt lat="44.78865" lon="-0.11815">
        <ele>63.4</ele>
        <time>2022-10-06T12:06:29Z</time>
      </trkpt>
      <trkpt lat="44.78865" lon="-0.11816">
        <ele>63.3</ele>
        <time>2022-10-06T12:06:30Z</time>
      </trkpt>
      <trkpt lat="44.78865" lon="-0.11818">
        <ele>63.3</ele>
        <time>2022-10-06T12:06:31Z</time>
      </trkpt>
      <trkpt lat="44.78865" lon="-0.11819">
        <ele>63.3</ele>
        <time>2022-10-06T12:06:32Z</time>
      </trkpt>
      <trkpt lat="44.78866" lon="-0.11821">
        <ele>63.2</ele>
        <time>2022-10-06T12:06:33Z</time>
      </trkpt>
      <trkpt lat="44.78866" lon="-0.11824">
        <ele>63.2</ele>
        <time>2022-10-06T12:06:34Z</time>
      </trkpt>
      <trkpt lat="44.78866" lon="-0.11825">
        <ele>63.1</ele>
        <time>2022-10-06T12:06:35Z</time>
      </trkpt>
      <trkpt lat="44.78866" lon="-0.11827">
        <ele>63.1</ele>
        <time>2022-10-06T12:06:36Z</time>
      </trkpt>
      <trkpt lat="44.78867" lon="-0.11828">
        <ele>63</ele>
        <time>2022-10-06T12:06:37Z</time>
      </trkpt>
      <trkpt lat="44.78867" lon="-0.1183">
        <ele>63</ele>
        <time>2022-10-06T12:06:38Z</time>
      </trkpt>
      <trkpt lat="44.78868" lon="-0.11832">
        <ele>63</ele>
        <time>2022-10-06T12:06:39Z</time>
      </trkpt>
      <trkpt lat="44.78869" lon="-0.11835">
        <ele>62.9</ele>
        <time>2022-10-06T12:06:40Z</time>
      </trkpt>
      <trkpt lat="44.78869" lon="-0.11836">
        <ele>62.9</ele>
        <time>2022-10-06T12:06:41Z</time>
      </trkpt>
      <trkpt lat="44.78869" lon="-0.11837">
        <ele>62.8</ele>
        <time>2022-10-06T12:06:42Z</time>
      </trkpt>
      <trkpt lat="44.78869" lon="-0.11839">
        <ele>62.8</ele>
        <time>2022-10-06T12:06:43Z</time>
      </trkpt>
      <trkpt lat="44.78869" lon="-0.11841">
        <ele>62.8</ele>
        <time>2022-10-06T12:06:44Z</time>
      </trkpt>
      <trkpt lat="44.7887" lon="-0.11843">
        <ele>62.7</ele>
        <time>2022-10-06T12:06:45Z</time>
      </trkpt>
      <trkpt lat="44.7887" lon="-0.11844">
        <ele>62.7</ele>
        <time>2022-10-06T12:06:46Z</time>
      </trkpt>
      <trkpt lat="44.7887" lon="-0.11846">
        <ele>62.7</ele>
        <time>2022-10-06T12:06:47Z</time>
      </trkpt>
      <trkpt lat="44.7887" lon="-0.11848">
        <ele>62.6</ele>
        <time>2022-10-06T12:06:48Z</time>
      </trkpt>
      <trkpt lat="44.7887" lon="-0.1185">
        <ele>62.6</ele>
        <time>2022-10-06T12:06:49Z</time>
      </trkpt>
      <trkpt lat="44.7887" lon="-0.11853">
        <ele>62.5</ele>
        <time>2022-10-06T12:06:50Z</time>
      </trkpt>
      <trkpt lat="44.7887" lon="-0.11854">
        <ele>62.5</ele>
        <time>2022-10-06T12:06:51Z</time>
      </trkpt>
      <trkpt lat="44.7887" lon="-0.11855">
        <ele>62.5</ele>
        <time>2022-10-06T12:06:52Z</time>
      </trkpt>
      <trkpt lat="44.7887" lon="-0.11857">
        <ele>62.4</ele>
        <time>2022-10-06T12:06:53Z</time>
      </trkpt>
      <trkpt lat="44.7887" lon="-0.11859">
        <ele>62.4</ele>
        <time>2022-10-06T12:06:54Z</time>
      </trkpt>
      <trkpt lat="44.7887" lon="-0.11862">
        <ele>62.3</ele>
        <time>2022-10-06T12:06:55Z</time>
      </trkpt>
      <trkpt lat="44.7887" lon="-0.11863">
        <ele>62.3</ele>
        <time>2022-10-06T12:06:56Z</time>
      </trkpt>
      <trkpt lat="44.7887" lon="-0.11864">
        <ele>62.3</ele>
        <time>2022-10-06T12:06:57Z</time>
      </trkpt>
      <trkpt lat="44.7887" lon="-0.11866">
        <ele>62.2</ele>
        <time>2022-10-06T12:06:58Z</time>
      </trkpt>
      <trkpt lat="44.7887" lon="-0.11868">
        <ele>62.2</ele>
        <time>2022-10-06T12:06:59Z</time>
      </trkpt>
      <trkpt lat="44.7887" lon="-0.11871">
        <ele>62.1</ele>
        <time>2022-10-06T12:07:00Z</time>
      </trkpt>
      <trkpt lat="44.7887" lon="-0.11872">
        <ele>62.1</ele>
        <time>2022-10-06T12:07:01Z</time>
      </trkpt>
      <trkpt lat="44.78869" lon="-0.11873">
        <ele>62.1</ele>
        <time>2022-10-06T12:07:02Z</time>
      </trkpt>
      <trkpt lat="44.78869" lon="-0.11875">
        <ele>62.1</ele>
        <time>2022-10-06T12:07:03Z</time>
      </trkpt>
      <trkpt lat="44.78869" lon="-0.11878">
        <ele>62</ele>
        <time>2022-10-06T12:07:04Z</time>
      </trkpt>
      <trkpt lat="44.78869" lon="-0.11879">
        <ele>62</ele>
        <time>2022-10-06T12:07:05Z</time>
      </trkpt>
      <trkpt lat="44.78869" lon="-0.1188">
        <ele>62</ele>
        <time>2022-10-06T12:07:06Z</time>
      </trkpt>
      <trkpt lat="44.78869" lon="-0.11882">
        <ele>62</ele>
        <time>2022-10-06T12:07:07Z</time>
      </trkpt>
      <trkpt lat="44.78869" lon="-0.11884">
        <ele>61.9</ele>
        <time>2022-10-06T12:07:08Z</time>
      </trkpt>
      <trkpt lat="44.78869" lon="-0.11886">
        <ele>61.9</ele>
        <time>2022-10-06T12:07:09Z</time>
      </trkpt>
      <trkpt lat="44.78868" lon="-0.11889">
        <ele>61.8</ele>
        <time>2022-10-06T12:07:10Z</time>
      </trkpt>
      <trkpt lat="44.78868" lon="-0.1189">
        <ele>61.8</ele>
        <time>2022-10-06T12:07:11Z</time>
      </trkpt>
      <trkpt lat="44.78868" lon="-0.11891">
        <ele>61.8</ele>
        <time>2022-10-06T12:07:12Z</time>
      </trkpt>
      <trkpt lat="44.78868" lon="-0.11893">
        <ele>61.8</ele>
        <time>2022-10-06T12:07:13Z</time>
      </trkpt>
      <trkpt lat="44.78867" lon="-0.11895">
        <ele>61.7</ele>
        <time>2022-10-06T12:07:14Z</time>
      </trkpt>
      <trkpt lat="44.78867" lon="-0.11896">
        <ele>61.7</ele>
        <time>2022-10-06T12:07:15Z</time>
      </trkpt>
      <trkpt lat="44.78867" lon="-0.11898">
        <ele>61.7</ele>
        <time>2022-10-06T12:07:16Z</time>
      </trkpt>
      <trkpt lat="44.78866" lon="-0.11899">
        <ele>61.7</ele>
        <time>2022-10-06T12:07:17Z</time>
      </trkpt>
      <trkpt lat="44.78866" lon="-0.11901">
        <ele>61.6</ele>
        <time>2022-10-06T12:07:18Z</time>
      </trkpt>
      <trkpt lat="44.78865" lon="-0.11903">
        <ele>61.6</ele>
        <time>2022-10-06T12:07:19Z</time>
      </trkpt>
      <trkpt lat="44.78864" lon="-0.11904">
        <ele>61.6</ele>
        <time>2022-10-06T12:07:20Z</time>
      </trkpt>
      <trkpt lat="44.78864" lon="-0.11905">
        <ele>61.5</ele>
        <time>2022-10-06T12:07:21Z</time>
      </trkpt>
      <trkpt lat="44.78863" lon="-0.11907">
        <ele>61.5</ele>
        <time>2022-10-06T12:07:22Z</time>
      </trkpt>
      <trkpt lat="44.78863" lon="-0.11908">
        <ele>61.5</ele>
        <time>2022-10-06T12:07:23Z</time>
      </trkpt>
      <trkpt lat="44.78863" lon="-0.1191">
        <ele>61.4</ele>
        <time>2022-10-06T12:07:24Z</time>
      </trkpt>
      <trkpt lat="44.78863" lon="-0.11912">
        <ele>61.4</ele>
        <time>2022-10-06T12:07:25Z</time>
      </trkpt>
      <trkpt lat="44.78863" lon="-0.11913">
        <ele>61.4</ele>
        <time>2022-10-06T12:07:26Z</time>
      </trkpt>
      <trkpt lat="44.78862" lon="-0.11915">
        <ele>61.3</ele>
        <time>2022-10-06T12:07:27Z</time>
      </trkpt>
      <trkpt lat="44.78862" lon="-0.11917">
        <ele>61.3</ele>
        <time>2022-10-06T12:07:28Z</time>
      </trkpt>
      <trkpt lat="44.78861" lon="-0.11919">
        <ele>61.2</ele>
        <time>2022-10-06T12:07:29Z</time>
      </trkpt>
      <trkpt lat="44.78861" lon="-0.1192">
        <ele>61.2</ele>
        <time>2022-10-06T12:07:30Z</time>
      </trkpt>
      <trkpt lat="44.78861" lon="-0.11921">
        <ele>61.2</ele>
        <time>2022-10-06T12:07:31Z</time>
      </trkpt>
      <trkpt lat="44.7886" lon="-0.11923">
        <ele>61.1</ele>
        <time>2022-10-06T12:07:32Z</time>
      </trkpt>
      <trkpt lat="44.7886" lon="-0.11925">
        <ele>61.1</ele>
        <time>2022-10-06T12:07:33Z</time>
      </trkpt>
      <trkpt lat="44.7886" lon="-0.11927">
        <ele>61</ele>
        <time>2022-10-06T12:07:34Z</time>
      </trkpt>
      <trkpt lat="44.7886" lon="-0.11929">
        <ele>61</ele>
        <time>2022-10-06T12:07:35Z</time>
      </trkpt>
      <trkpt lat="44.78859" lon="-0.11932">
        <ele>60.9</ele>
        <time>2022-10-06T12:07:36Z</time>
      </trkpt>
      <trkpt lat="44.78859" lon="-0.11935">
        <ele>60.8</ele>
        <time>2022-10-06T12:07:37Z</time>
      </trkpt>
      <trkpt lat="44.78859" lon="-0.11936">
        <ele>60.8</ele>
        <time>2022-10-06T12:07:38Z</time>
      </trkpt>
      <trkpt lat="44.78859" lon="-0.11938">
        <ele>60.7</ele>
        <time>2022-10-06T12:07:39Z</time>
      </trkpt>
      <trkpt lat="44.78859" lon="-0.11939">
        <ele>60.7</ele>
        <time>2022-10-06T12:07:40Z</time>
      </trkpt>
      <trkpt lat="44.78859" lon="-0.1194">
        <ele>60.7</ele>
        <time>2022-10-06T12:07:41Z</time>
      </trkpt>
      <trkpt lat="44.78859" lon="-0.11942">
        <ele>60.6</ele>
        <time>2022-10-06T12:07:42Z</time>
      </trkpt>
      <trkpt lat="44.78859" lon="-0.11943">
        <ele>60.6</ele>
        <time>2022-10-06T12:07:43Z</time>
      </trkpt>
      <trkpt lat="44.78858" lon="-0.11945">
        <ele>60.5</ele>
        <time>2022-10-06T12:07:44Z</time>
      </trkpt>
      <trkpt lat="44.78858" lon="-0.11947">
        <ele>60.5</ele>
        <time>2022-10-06T12:07:45Z</time>
      </trkpt>
      <trkpt lat="44.78857" lon="-0.11948">
        <ele>60.5</ele>
        <time>2022-10-06T12:07:46Z</time>
      </trkpt>
      <trkpt lat="44.78856" lon="-0.11949">
        <ele>60.4</ele>
        <time>2022-10-06T12:07:47Z</time>
      </trkpt>
      <trkpt lat="44.78856" lon="-0.11949">
        <ele>60.4</ele>
        <time>2022-10-06T12:07:48Z</time>
      </trkpt>
      <trkpt lat="44.78855" lon="-0.11949">
        <ele>60.4</ele>
        <time>2022-10-06T12:07:49Z</time>
      </trkpt>
      <trkpt lat="44.78854" lon="-0.11947">
        <ele>60.3</ele>
        <time>2022-10-06T12:07:50Z</time>
      </trkpt>
      <trkpt lat="44.78853" lon="-0.11946">
        <ele>60.3</ele>
        <time>2022-10-06T12:07:51Z</time>
      </trkpt>
      <trkpt lat="44.78853" lon="-0.11945">
        <ele>60.2</ele>
        <time>2022-10-06T12:07:52Z</time>
      </trkpt>
      <trkpt lat="44.78853" lon="-0.11943">
        <ele>60.2</ele>
        <time>2022-10-06T12:07:53Z</time>
      </trkpt>
      <trkpt lat="44.78853" lon="-0.11943">
        <ele>60.2</ele>
        <time>2022-10-06T12:07:54Z</time>
      </trkpt>
      <trkpt lat="44.78853" lon="-0.11943">
        <ele>60.2</ele>
        <time>2022-10-06T12:07:55Z</time>
      </trkpt>
      <trkpt lat="44.78854" lon="-0.11943">
        <ele>60.2</ele>
        <time>2022-10-06T12:07:56Z</time>
      </trkpt>
      <trkpt lat="44.78856" lon="-0.11942">
        <ele>60.1</ele>
        <time>2022-10-06T12:07:57Z</time>
      </trkpt>
      <trkpt lat="44.78858" lon="-0.1194">
        <ele>60</ele>
        <time>2022-10-06T12:07:58Z</time>
      </trkpt>
      <trkpt lat="44.78859" lon="-0.1194">
        <ele>60</ele>
        <time>2022-10-06T12:07:59Z</time>
      </trkpt>
      <trkpt lat="44.7886" lon="-0.11942">
        <ele>59.9</ele>
        <time>2022-10-06T12:08:00Z</time>
      </trkpt>
      <trkpt lat="44.78861" lon="-0.11944">
        <ele>59.9</ele>
        <time>2022-10-06T12:08:01Z</time>
      </trkpt>
      <trkpt lat="44.7886" lon="-0.1195">
        <ele>59.8</ele>
        <time>2022-10-06T12:08:02Z</time>
      </trkpt>
      <trkpt lat="44.7886" lon="-0.11951">
        <ele>59.7</ele>
        <time>2022-10-06T12:08:03Z</time>
      </trkpt>
      <trkpt lat="44.7886" lon="-0.11953">
        <ele>59.7</ele>
        <time>2022-10-06T12:08:04Z</time>
      </trkpt>
      <trkpt lat="44.78859" lon="-0.11954">
        <ele>59.7</ele>
        <time>2022-10-06T12:08:05Z</time>
      </trkpt>
      <trkpt lat="44.78859" lon="-0.11955">
        <ele>59.6</ele>
        <time>2022-10-06T12:08:06Z</time>
      </trkpt>
      <trkpt lat="44.78859" lon="-0.11959">
        <ele>59.6</ele>
        <time>2022-10-06T12:08:07Z</time>
      </trkpt>
      <trkpt lat="44.78859" lon="-0.11961">
        <ele>59.5</ele>
        <time>2022-10-06T12:08:08Z</time>
      </trkpt>
      <trkpt lat="44.78859" lon="-0.11963">
        <ele>59.5</ele>
        <time>2022-10-06T12:08:09Z</time>
      </trkpt>
      <trkpt lat="44.78859" lon="-0.11964">
        <ele>59.5</ele>
        <time>2022-10-06T12:08:10Z</time>
      </trkpt>
      <trkpt lat="44.78859" lon="-0.11966">
        <ele>59.5</ele>
        <time>2022-10-06T12:08:11Z</time>
      </trkpt>
      <trkpt lat="44.78859" lon="-0.11967">
        <ele>59.4</ele>
        <time>2022-10-06T12:08:12Z</time>
      </trkpt>
      <trkpt lat="44.78858" lon="-0.11968">
        <ele>59.4</ele>
        <time>2022-10-06T12:08:13Z</time>
      </trkpt>
      <trkpt lat="44.78858" lon="-0.1197">
        <ele>59.4</ele>
        <time>2022-10-06T12:08:14Z</time>
      </trkpt>
      <trkpt lat="44.78858" lon="-0.11971">
        <ele>59.4</ele>
        <time>2022-10-06T12:08:15Z</time>
      </trkpt>
      <trkpt lat="44.78858" lon="-0.11973">
        <ele>59.3</ele>
        <time>2022-10-06T12:08:16Z</time>
      </trkpt>
      <trkpt lat="44.78858" lon="-0.11973">
        <ele>59.3</ele>
        <time>2022-10-06T12:08:17Z</time>
      </trkpt>
      <trkpt lat="44.78858" lon="-0.11974">
        <ele>59.3</ele>
        <time>2022-10-06T12:08:18Z</time>
      </trkpt>
      <trkpt lat="44.78858" lon="-0.11975">
        <ele>59.3</ele>
        <time>2022-10-06T12:08:19Z</time>
      </trkpt>
      <trkpt lat="44.78857" lon="-0.11975">
        <ele>59.2</ele>
        <time>2022-10-06T12:08:20Z</time>
      </trkpt>
      <trkpt lat="44.78857" lon="-0.11976">
        <ele>59.2</ele>
        <time>2022-10-06T12:08:21Z</time>
      </trkpt>
      <trkpt lat="44.78857" lon="-0.11977">
        <ele>59.2</ele>
        <time>2022-10-06T12:08:22Z</time>
      </trkpt>
      <trkpt lat="44.78857" lon="-0.11979">
        <ele>59.1</ele>
        <time>2022-10-06T12:08:23Z</time>
      </trkpt>
      <trkpt lat="44.78857" lon="-0.1198">
        <ele>59.1</ele>
        <time>2022-10-06T12:08:24Z</time>
      </trkpt>
      <trkpt lat="44.78856" lon="-0.11982">
        <ele>59.1</ele>
        <time>2022-10-06T12:08:25Z</time>
      </trkpt>
      <trkpt lat="44.78856" lon="-0.11983">
        <ele>59</ele>
        <time>2022-10-06T12:08:26Z</time>
      </trkpt>
      <trkpt lat="44.78856" lon="-0.11986">
        <ele>58.9</ele>
        <time>2022-10-06T12:08:27Z</time>
      </trkpt>
      <trkpt lat="44.78856" lon="-0.11987">
        <ele>58.9</ele>
        <time>2022-10-06T12:08:28Z</time>
      </trkpt>
      <trkpt lat="44.78856" lon="-0.11989">
        <ele>58.8</ele>
        <time>2022-10-06T12:08:29Z</time>
      </trkpt>
      <trkpt lat="44.78855" lon="-0.11991">
        <ele>58.7</ele>
        <time>2022-10-06T12:08:30Z</time>
      </trkpt>
      <trkpt lat="44.78855" lon="-0.11992">
        <ele>58.7</ele>
        <time>2022-10-06T12:08:31Z</time>
      </trkpt>
      <trkpt lat="44.78855" lon="-0.11996">
        <ele>58.5</ele>
        <time>2022-10-06T12:08:32Z</time>
      </trkpt>
      <trkpt lat="44.78855" lon="-0.11998">
        <ele>58.5</ele>
        <time>2022-10-06T12:08:33Z</time>
      </trkpt>
      <trkpt lat="44.78855" lon="-0.11999">
        <ele>58.4</ele>
        <time>2022-10-06T12:08:34Z</time>
      </trkpt>
      <trkpt lat="44.78855" lon="-0.12">
        <ele>58.4</ele>
        <time>2022-10-06T12:08:35Z</time>
      </trkpt>
      <trkpt lat="44.78855" lon="-0.12001">
        <ele>58.3</ele>
        <time>2022-10-06T12:08:36Z</time>
      </trkpt>
      <trkpt lat="44.78854" lon="-0.12003">
        <ele>58.3</ele>
        <time>2022-10-06T12:08:37Z</time>
      </trkpt>
      <trkpt lat="44.78854" lon="-0.12004">
        <ele>58.2</ele>
        <time>2022-10-06T12:08:38Z</time>
      </trkpt>
      <trkpt lat="44.78854" lon="-0.12005">
        <ele>58.1</ele>
        <time>2022-10-06T12:08:39Z</time>
      </trkpt>
      <trkpt lat="44.78853" lon="-0.12007">
        <ele>58.1</ele>
        <time>2022-10-06T12:08:40Z</time>
      </trkpt>
      <trkpt lat="44.78854" lon="-0.12008">
        <ele>58</ele>
        <time>2022-10-06T12:08:41Z</time>
      </trkpt>
      <trkpt lat="44.78854" lon="-0.1201">
        <ele>57.9</ele>
        <time>2022-10-06T12:08:42Z</time>
      </trkpt>
      <trkpt lat="44.78854" lon="-0.12012">
        <ele>57.9</ele>
        <time>2022-10-06T12:08:43Z</time>
      </trkpt>
      <trkpt lat="44.78854" lon="-0.12013">
        <ele>57.8</ele>
        <time>2022-10-06T12:08:44Z</time>
      </trkpt>
      <trkpt lat="44.78854" lon="-0.12013">
        <ele>57.8</ele>
        <time>2022-10-06T12:08:45Z</time>
      </trkpt>
      <trkpt lat="44.78854" lon="-0.12014">
        <ele>57.8</ele>
        <time>2022-10-06T12:08:46Z</time>
      </trkpt>
      <trkpt lat="44.78854" lon="-0.12016">
        <ele>57.7</ele>
        <time>2022-10-06T12:08:47Z</time>
      </trkpt>
      <trkpt lat="44.78854" lon="-0.12017">
        <ele>57.6</ele>
        <time>2022-10-06T12:08:48Z</time>
      </trkpt>
      <trkpt lat="44.78854" lon="-0.12018">
        <ele>57.6</ele>
        <time>2022-10-06T12:08:49Z</time>
      </trkpt>
      <trkpt lat="44.78854" lon="-0.12019">
        <ele>57.6</ele>
        <time>2022-10-06T12:08:50Z</time>
      </trkpt>
      <trkpt lat="44.78854" lon="-0.12021">
        <ele>57.5</ele>
        <time>2022-10-06T12:08:51Z</time>
      </trkpt>
      <trkpt lat="44.78854" lon="-0.12023">
        <ele>57.4</ele>
        <time>2022-10-06T12:08:52Z</time>
      </trkpt>
      <trkpt lat="44.78854" lon="-0.12024">
        <ele>57.4</ele>
        <time>2022-10-06T12:08:53Z</time>
      </trkpt>
      <trkpt lat="44.78854" lon="-0.12025">
        <ele>57.3</ele>
        <time>2022-10-06T12:08:54Z</time>
      </trkpt>
      <trkpt lat="44.78854" lon="-0.12027">
        <ele>57.2</ele>
        <time>2022-10-06T12:08:55Z</time>
      </trkpt>
      <trkpt lat="44.78854" lon="-0.12029">
        <ele>57.2</ele>
        <time>2022-10-06T12:08:56Z</time>
      </trkpt>
      <trkpt lat="44.78854" lon="-0.12031">
        <ele>57.1</ele>
        <time>2022-10-06T12:08:57Z</time>
      </trkpt>
      <trkpt lat="44.78854" lon="-0.12032">
        <ele>57</ele>
        <time>2022-10-06T12:08:58Z</time>
      </trkpt>
      <trkpt lat="44.78854" lon="-0.12033">
        <ele>57</ele>
        <time>2022-10-06T12:08:59Z</time>
      </trkpt>
      <trkpt lat="44.78853" lon="-0.12036">
        <ele>56.9</ele>
        <time>2022-10-06T12:09:00Z</time>
      </trkpt>
      <trkpt lat="44.78853" lon="-0.12037">
        <ele>56.8</ele>
        <time>2022-10-06T12:09:01Z</time>
      </trkpt>
      <trkpt lat="44.78853" lon="-0.12039">
        <ele>56.8</ele>
        <time>2022-10-06T12:09:02Z</time>
      </trkpt>
      <trkpt lat="44.78853" lon="-0.12039">
        <ele>56.7</ele>
        <time>2022-10-06T12:09:03Z</time>
      </trkpt>
      <trkpt lat="44.78853" lon="-0.1204">
        <ele>56.7</ele>
        <time>2022-10-06T12:09:04Z</time>
      </trkpt>
      <trkpt lat="44.78853" lon="-0.12042">
        <ele>56.6</ele>
        <time>2022-10-06T12:09:05Z</time>
      </trkpt>
      <trkpt lat="44.78853" lon="-0.12043">
        <ele>56.6</ele>
        <time>2022-10-06T12:09:06Z</time>
      </trkpt>
      <trkpt lat="44.78853" lon="-0.12047">
        <ele>56.4</ele>
        <time>2022-10-06T12:09:07Z</time>
      </trkpt>
      <trkpt lat="44.78853" lon="-0.12048">
        <ele>56.4</ele>
        <time>2022-10-06T12:09:08Z</time>
      </trkpt>
      <trkpt lat="44.78853" lon="-0.12048">
        <ele>56.4</ele>
        <time>2022-10-06T12:09:09Z</time>
      </trkpt>
      <trkpt lat="44.78853" lon="-0.1205">
        <ele>56.3</ele>
        <time>2022-10-06T12:09:10Z</time>
      </trkpt>
      <trkpt lat="44.78853" lon="-0.12051">
        <ele>56.3</ele>
        <time>2022-10-06T12:09:11Z</time>
      </trkpt>
      <trkpt lat="44.78853" lon="-0.12052">
        <ele>56.3</ele>
        <time>2022-10-06T12:09:12Z</time>
      </trkpt>
      <trkpt lat="44.78853" lon="-0.12052">
        <ele>56.2</ele>
        <time>2022-10-06T12:09:13Z</time>
      </trkpt>
      <trkpt lat="44.78853" lon="-0.12053">
        <ele>56.2</ele>
        <time>2022-10-06T12:09:14Z</time>
      </trkpt>
      <trkpt lat="44.78854" lon="-0.12054">
        <ele>56.1</ele>
        <time>2022-10-06T12:09:15Z</time>
      </trkpt>
      <trkpt lat="44.78853" lon="-0.12056">
        <ele>56.1</ele>
        <time>2022-10-06T12:09:16Z</time>
      </trkpt>
      <trkpt lat="44.78853" lon="-0.12058">
        <ele>56</ele>
        <time>2022-10-06T12:09:17Z</time>
      </trkpt>
      <trkpt lat="44.78853" lon="-0.12059">
        <ele>56</ele>
        <time>2022-10-06T12:09:18Z</time>
      </trkpt>
      <trkpt lat="44.78853" lon="-0.1206">
        <ele>55.9</ele>
        <time>2022-10-06T12:09:19Z</time>
      </trkpt>
      <trkpt lat="44.78853" lon="-0.12062">
        <ele>55.9</ele>
        <time>2022-10-06T12:09:20Z</time>
      </trkpt>
      <trkpt lat="44.78853" lon="-0.12063">
        <ele>55.8</ele>
        <time>2022-10-06T12:09:21Z</time>
      </trkpt>
      <trkpt lat="44.78853" lon="-0.12065">
        <ele>55.7</ele>
        <time>2022-10-06T12:09:22Z</time>
      </trkpt>
      <trkpt lat="44.78853" lon="-0.12067">
        <ele>55.7</ele>
        <time>2022-10-06T12:09:23Z</time>
      </trkpt>
      <trkpt lat="44.78853" lon="-0.12069">
        <ele>55.6</ele>
        <time>2022-10-06T12:09:24Z</time>
      </trkpt>
      <trkpt lat="44.78853" lon="-0.12071">
        <ele>55.5</ele>
        <time>2022-10-06T12:09:25Z</time>
      </trkpt>
      <trkpt lat="44.78853" lon="-0.12072">
        <ele>55.5</ele>
        <time>2022-10-06T12:09:26Z</time>
      </trkpt>
      <trkpt lat="44.78854" lon="-0.12075">
        <ele>55.4</ele>
        <time>2022-10-06T12:09:27Z</time>
      </trkpt>
      <trkpt lat="44.78854" lon="-0.12076">
        <ele>55.3</ele>
        <time>2022-10-06T12:09:28Z</time>
      </trkpt>
      <trkpt lat="44.78855" lon="-0.12077">
        <ele>55.3</ele>
        <time>2022-10-06T12:09:29Z</time>
      </trkpt>
      <trkpt lat="44.78856" lon="-0.12078">
        <ele>55.2</ele>
        <time>2022-10-06T12:09:30Z</time>
      </trkpt>
      <trkpt lat="44.78856" lon="-0.1208">
        <ele>55.1</ele>
        <time>2022-10-06T12:09:31Z</time>
      </trkpt>
      <trkpt lat="44.78857" lon="-0.12083">
        <ele>55</ele>
        <time>2022-10-06T12:09:32Z</time>
      </trkpt>
      <trkpt lat="44.78857" lon="-0.12084">
        <ele>55</ele>
        <time>2022-10-06T12:09:33Z</time>
      </trkpt>
      <trkpt lat="44.78857" lon="-0.12084">
        <ele>55</ele>
        <time>2022-10-06T12:09:34Z</time>
      </trkpt>
      <trkpt lat="44.78857" lon="-0.12084">
        <ele>54.9</ele>
        <time>2022-10-06T12:09:35Z</time>
      </trkpt>
      <trkpt lat="44.78857" lon="-0.12084">
        <ele>54.9</ele>
        <time>2022-10-06T12:09:36Z</time>
      </trkpt>
      <trkpt lat="44.78856" lon="-0.12085">
        <ele>54.9</ele>
        <time>2022-10-06T12:09:37Z</time>
      </trkpt>
      <trkpt lat="44.78856" lon="-0.12086">
        <ele>54.9</ele>
        <time>2022-10-06T12:09:38Z</time>
      </trkpt>
      <trkpt lat="44.78856" lon="-0.12087">
        <ele>54.8</ele>
        <time>2022-10-06T12:09:39Z</time>
      </trkpt>
      <trkpt lat="44.78856" lon="-0.12088">
        <ele>54.8</ele>
        <time>2022-10-06T12:09:40Z</time>
      </trkpt>
      <trkpt lat="44.78856" lon="-0.1209">
        <ele>54.7</ele>
        <time>2022-10-06T12:09:41Z</time>
      </trkpt>
      <trkpt lat="44.78857" lon="-0.12092">
        <ele>54.6</ele>
        <time>2022-10-06T12:09:42Z</time>
      </trkpt>
      <trkpt lat="44.78857" lon="-0.12093">
        <ele>54.6</ele>
        <time>2022-10-06T12:09:43Z</time>
      </trkpt>
      <trkpt lat="44.78858" lon="-0.12094">
        <ele>54.5</ele>
        <time>2022-10-06T12:09:44Z</time>
      </trkpt>
      <trkpt lat="44.78859" lon="-0.12095">
        <ele>54.5</ele>
        <time>2022-10-06T12:09:45Z</time>
      </trkpt>
      <trkpt lat="44.78859" lon="-0.12096">
        <ele>54.4</ele>
        <time>2022-10-06T12:09:46Z</time>
      </trkpt>
      <trkpt lat="44.78859" lon="-0.12098">
        <ele>54.3</ele>
        <time>2022-10-06T12:09:47Z</time>
      </trkpt>
      <trkpt lat="44.78859" lon="-0.12099">
        <ele>54.3</ele>
        <time>2022-10-06T12:09:48Z</time>
      </trkpt>
      <trkpt lat="44.78859" lon="-0.12101">
        <ele>54.2</ele>
        <time>2022-10-06T12:09:49Z</time>
      </trkpt>
      <trkpt lat="44.78858" lon="-0.12102">
        <ele>54.2</ele>
        <time>2022-10-06T12:09:50Z</time>
      </trkpt>
      <trkpt lat="44.78858" lon="-0.12103">
        <ele>54.1</ele>
        <time>2022-10-06T12:09:51Z</time>
      </trkpt>
      <trkpt lat="44.78858" lon="-0.12105">
        <ele>54.1</ele>
        <time>2022-10-06T12:09:52Z</time>
      </trkpt>
      <trkpt lat="44.78857" lon="-0.12107">
        <ele>54</ele>
        <time>2022-10-06T12:09:53Z</time>
      </trkpt>
      <trkpt lat="44.78857" lon="-0.12108">
        <ele>54</ele>
        <time>2022-10-06T12:09:54Z</time>
      </trkpt>
      <trkpt lat="44.78857" lon="-0.12111">
        <ele>53.9</ele>
        <time>2022-10-06T12:09:55Z</time>
      </trkpt>
      <trkpt lat="44.78856" lon="-0.12112">
        <ele>53.8</ele>
        <time>2022-10-06T12:09:56Z</time>
      </trkpt>
      <trkpt lat="44.78856" lon="-0.12113">
        <ele>53.8</ele>
        <time>2022-10-06T12:09:57Z</time>
      </trkpt>
      <trkpt lat="44.78856" lon="-0.12115">
        <ele>53.7</ele>
        <time>2022-10-06T12:09:58Z</time>
      </trkpt>
      <trkpt lat="44.78856" lon="-0.12116">
        <ele>53.7</ele>
        <time>2022-10-06T12:09:59Z</time>
      </trkpt>
      <trkpt lat="44.78855" lon="-0.12117">
        <ele>53.6</ele>
        <time>2022-10-06T12:10:00Z</time>
      </trkpt>
      <trkpt lat="44.78855" lon="-0.12118">
        <ele>53.6</ele>
        <time>2022-10-06T12:10:01Z</time>
      </trkpt>
      <trkpt lat="44.78855" lon="-0.1212">
        <ele>53.5</ele>
        <time>2022-10-06T12:10:02Z</time>
      </trkpt>
      <trkpt lat="44.78855" lon="-0.12121">
        <ele>53.5</ele>
        <time>2022-10-06T12:10:03Z</time>
      </trkpt>
      <trkpt lat="44.78855" lon="-0.12122">
        <ele>53.4</ele>
        <time>2022-10-06T12:10:04Z</time>
      </trkpt>
      <trkpt lat="44.78854" lon="-0.12125">
        <ele>53.3</ele>
        <time>2022-10-06T12:10:05Z</time>
      </trkpt>
      <trkpt lat="44.78854" lon="-0.12126">
        <ele>53.3</ele>
        <time>2022-10-06T12:10:06Z</time>
      </trkpt>
      <trkpt lat="44.78854" lon="-0.12127">
        <ele>53.2</ele>
        <time>2022-10-06T12:10:07Z</time>
      </trkpt>
      <trkpt lat="44.78853" lon="-0.1213">
        <ele>53.1</ele>
        <time>2022-10-06T12:10:08Z</time>
      </trkpt>
      <trkpt lat="44.78853" lon="-0.12131">
        <ele>53.1</ele>
        <time>2022-10-06T12:10:09Z</time>
      </trkpt>
      <trkpt lat="44.78853" lon="-0.12132">
        <ele>53.1</ele>
        <time>2022-10-06T12:10:10Z</time>
      </trkpt>
      <trkpt lat="44.78853" lon="-0.12133">
        <ele>53</ele>
        <time>2022-10-06T12:10:11Z</time>
      </trkpt>
      <trkpt lat="44.78852" lon="-0.12135">
        <ele>52.9</ele>
        <time>2022-10-06T12:10:12Z</time>
      </trkpt>
      <trkpt lat="44.78852" lon="-0.12136">
        <ele>52.9</ele>
        <time>2022-10-06T12:10:13Z</time>
      </trkpt>
      <trkpt lat="44.78852" lon="-0.12137">
        <ele>52.8</ele>
        <time>2022-10-06T12:10:14Z</time>
      </trkpt>
      <trkpt lat="44.78851" lon="-0.1214">
        <ele>52.7</ele>
        <time>2022-10-06T12:10:15Z</time>
      </trkpt>
      <trkpt lat="44.78851" lon="-0.12142">
        <ele>52.6</ele>
        <time>2022-10-06T12:10:16Z</time>
      </trkpt>
      <trkpt lat="44.78851" lon="-0.12144">
        <ele>52.6</ele>
        <time>2022-10-06T12:10:17Z</time>
      </trkpt>
      <trkpt lat="44.78851" lon="-0.12145">
        <ele>52.5</ele>
        <time>2022-10-06T12:10:18Z</time>
      </trkpt>
      <trkpt lat="44.7885" lon="-0.12146">
        <ele>52.5</ele>
        <time>2022-10-06T12:10:19Z</time>
      </trkpt>
      <trkpt lat="44.7885" lon="-0.12148">
        <ele>52.4</ele>
        <time>2022-10-06T12:10:20Z</time>
      </trkpt>
      <trkpt lat="44.78849" lon="-0.12149">
        <ele>52.3</ele>
        <time>2022-10-06T12:10:21Z</time>
      </trkpt>
      <trkpt lat="44.78848" lon="-0.12151">
        <ele>52.2</ele>
        <time>2022-10-06T12:10:22Z</time>
      </trkpt>
      <trkpt lat="44.78848" lon="-0.12152">
        <ele>52.2</ele>
        <time>2022-10-06T12:10:23Z</time>
      </trkpt>
      <trkpt lat="44.78848" lon="-0.12153">
        <ele>52.1</ele>
        <time>2022-10-06T12:10:24Z</time>
      </trkpt>
      <trkpt lat="44.78847" lon="-0.12154">
        <ele>52.1</ele>
        <time>2022-10-06T12:10:25Z</time>
      </trkpt>
      <trkpt lat="44.78847" lon="-0.12156">
        <ele>52</ele>
        <time>2022-10-06T12:10:26Z</time>
      </trkpt>
      <trkpt lat="44.78846" lon="-0.12158">
        <ele>51.9</ele>
        <time>2022-10-06T12:10:27Z</time>
      </trkpt>
      <trkpt lat="44.78846" lon="-0.12159">
        <ele>51.9</ele>
        <time>2022-10-06T12:10:28Z</time>
      </trkpt>
      <trkpt lat="44.78845" lon="-0.1216">
        <ele>51.8</ele>
        <time>2022-10-06T12:10:29Z</time>
      </trkpt>
      <trkpt lat="44.78844" lon="-0.12161">
        <ele>51.7</ele>
        <time>2022-10-06T12:10:30Z</time>
      </trkpt>
      <trkpt lat="44.78844" lon="-0.12162">
        <ele>51.7</ele>
        <time>2022-10-06T12:10:31Z</time>
      </trkpt>
      <trkpt lat="44.78843" lon="-0.12164">
        <ele>51.6</ele>
        <time>2022-10-06T12:10:32Z</time>
      </trkpt>
      <trkpt lat="44.78842" lon="-0.12165">
        <ele>51.5</ele>
        <time>2022-10-06T12:10:33Z</time>
      </trkpt>
      <trkpt lat="44.78842" lon="-0.12166">
        <ele>51.5</ele>
        <time>2022-10-06T12:10:34Z</time>
      </trkpt>
      <trkpt lat="44.78841" lon="-0.12167">
        <ele>51.4</ele>
        <time>2022-10-06T12:10:35Z</time>
      </trkpt>
      <trkpt lat="44.78841" lon="-0.12168">
        <ele>51.3</ele>
        <time>2022-10-06T12:10:36Z</time>
      </trkpt>
      <trkpt lat="44.7884" lon="-0.1217">
        <ele>51.2</ele>
        <time>2022-10-06T12:10:37Z</time>
      </trkpt>
      <trkpt lat="44.78839" lon="-0.12171">
        <ele>51.2</ele>
        <time>2022-10-06T12:10:38Z</time>
      </trkpt>
      <trkpt lat="44.78839" lon="-0.12172">
        <ele>51.1</ele>
        <time>2022-10-06T12:10:39Z</time>
      </trkpt>
      <trkpt lat="44.78838" lon="-0.12173">
        <ele>51.1</ele>
        <time>2022-10-06T12:10:40Z</time>
      </trkpt>
      <trkpt lat="44.78837" lon="-0.12174">
        <ele>51</ele>
        <time>2022-10-06T12:10:41Z</time>
      </trkpt>
      <trkpt lat="44.78836" lon="-0.12177">
        <ele>50.9</ele>
        <time>2022-10-06T12:10:42Z</time>
      </trkpt>
      <trkpt lat="44.78835" lon="-0.12178">
        <ele>50.8</ele>
        <time>2022-10-06T12:10:43Z</time>
      </trkpt>
      <trkpt lat="44.78835" lon="-0.12179">
        <ele>50.8</ele>
        <time>2022-10-06T12:10:44Z</time>
      </trkpt>
      <trkpt lat="44.78833" lon="-0.12181">
        <ele>50.6</ele>
        <time>2022-10-06T12:10:45Z</time>
      </trkpt>
      <trkpt lat="44.78833" lon="-0.12182">
        <ele>50.6</ele>
        <time>2022-10-06T12:10:46Z</time>
      </trkpt>
      <trkpt lat="44.78832" lon="-0.12183">
        <ele>50.5</ele>
        <time>2022-10-06T12:10:47Z</time>
      </trkpt>
      <trkpt lat="44.78831" lon="-0.12184">
        <ele>50.4</ele>
        <time>2022-10-06T12:10:48Z</time>
      </trkpt>
      <trkpt lat="44.7883" lon="-0.12185">
        <ele>50.4</ele>
        <time>2022-10-06T12:10:49Z</time>
      </trkpt>
      <trkpt lat="44.7883" lon="-0.12186">
        <ele>50.3</ele>
        <time>2022-10-06T12:10:50Z</time>
      </trkpt>
      <trkpt lat="44.78829" lon="-0.12187">
        <ele>50.2</ele>
        <time>2022-10-06T12:10:51Z</time>
      </trkpt>
      <trkpt lat="44.78827" lon="-0.12188">
        <ele>50.1</ele>
        <time>2022-10-06T12:10:52Z</time>
      </trkpt>
      <trkpt lat="44.78827" lon="-0.12189">
        <ele>50</ele>
        <time>2022-10-06T12:10:53Z</time>
      </trkpt>
      <trkpt lat="44.78826" lon="-0.1219">
        <ele>50</ele>
        <time>2022-10-06T12:10:54Z</time>
      </trkpt>
      <trkpt lat="44.78825" lon="-0.12191">
        <ele>49.9</ele>
        <time>2022-10-06T12:10:55Z</time>
      </trkpt>
      <trkpt lat="44.78824" lon="-0.12191">
        <ele>49.8</ele>
        <time>2022-10-06T12:10:56Z</time>
      </trkpt>
      <trkpt lat="44.78823" lon="-0.12193">
        <ele>49.7</ele>
        <time>2022-10-06T12:10:57Z</time>
      </trkpt>
      <trkpt lat="44.78823" lon="-0.12193">
        <ele>49.7</ele>
        <time>2022-10-06T12:10:58Z</time>
      </trkpt>
      <trkpt lat="44.78822" lon="-0.12193">
        <ele>49.6</ele>
        <time>2022-10-06T12:10:59Z</time>
      </trkpt>
      <trkpt lat="44.7882" lon="-0.12195">
        <ele>49.5</ele>
        <time>2022-10-06T12:11:00Z</time>
      </trkpt>
      <trkpt lat="44.78819" lon="-0.12196">
        <ele>49.4</ele>
        <time>2022-10-06T12:11:01Z</time>
      </trkpt>
      <trkpt lat="44.78818" lon="-0.12196">
        <ele>49.3</ele>
        <time>2022-10-06T12:11:02Z</time>
      </trkpt>
      <trkpt lat="44.78818" lon="-0.12197">
        <ele>49.3</ele>
        <time>2022-10-06T12:11:03Z</time>
      </trkpt>
      <trkpt lat="44.78817" lon="-0.12198">
        <ele>49.2</ele>
        <time>2022-10-06T12:11:04Z</time>
      </trkpt>
      <trkpt lat="44.78816" lon="-0.12199">
        <ele>49.1</ele>
        <time>2022-10-06T12:11:05Z</time>
      </trkpt>
      <trkpt lat="44.78814" lon="-0.122">
        <ele>49</ele>
        <time>2022-10-06T12:11:06Z</time>
      </trkpt>
      <trkpt lat="44.78814" lon="-0.12201">
        <ele>48.9</ele>
        <time>2022-10-06T12:11:07Z</time>
      </trkpt>
      <trkpt lat="44.78813" lon="-0.12202">
        <ele>48.8</ele>
        <time>2022-10-06T12:11:08Z</time>
      </trkpt>
      <trkpt lat="44.78812" lon="-0.12204">
        <ele>48.7</ele>
        <time>2022-10-06T12:11:09Z</time>
      </trkpt>
      <trkpt lat="44.78811" lon="-0.12205">
        <ele>48.6</ele>
        <time>2022-10-06T12:11:10Z</time>
      </trkpt>
      <trkpt lat="44.78811" lon="-0.12206">
        <ele>48.6</ele>
        <time>2022-10-06T12:11:11Z</time>
      </trkpt>
      <trkpt lat="44.7881" lon="-0.12208">
        <ele>48.4</ele>
        <time>2022-10-06T12:11:12Z</time>
      </trkpt>
      <trkpt lat="44.78809" lon="-0.12209">
        <ele>48.4</ele>
        <time>2022-10-06T12:11:13Z</time>
      </trkpt>
      <trkpt lat="44.78809" lon="-0.1221">
        <ele>48.3</ele>
        <time>2022-10-06T12:11:14Z</time>
      </trkpt>
      <trkpt lat="44.78808" lon="-0.12212">
        <ele>48.2</ele>
        <time>2022-10-06T12:11:15Z</time>
      </trkpt>
      <trkpt lat="44.78807" lon="-0.12213">
        <ele>48.1</ele>
        <time>2022-10-06T12:11:16Z</time>
      </trkpt>
      <trkpt lat="44.78805" lon="-0.12214">
        <ele>48</ele>
        <time>2022-10-06T12:11:17Z</time>
      </trkpt>
      <trkpt lat="44.78805" lon="-0.12215">
        <ele>47.9</ele>
        <time>2022-10-06T12:11:18Z</time>
      </trkpt>
      <trkpt lat="44.78804" lon="-0.12216">
        <ele>47.8</ele>
        <time>2022-10-06T12:11:19Z</time>
      </trkpt>
      <trkpt lat="44.78803" lon="-0.12217">
        <ele>47.7</ele>
        <time>2022-10-06T12:11:20Z</time>
      </trkpt>
      <trkpt lat="44.78802" lon="-0.12218">
        <ele>47.6</ele>
        <time>2022-10-06T12:11:21Z</time>
      </trkpt>
      <trkpt lat="44.78801" lon="-0.12221">
        <ele>47.5</ele>
        <time>2022-10-06T12:11:22Z</time>
      </trkpt>
      <trkpt lat="44.788" lon="-0.12222">
        <ele>47.4</ele>
        <time>2022-10-06T12:11:23Z</time>
      </trkpt>
      <trkpt lat="44.78799" lon="-0.12224">
        <ele>47.3</ele>
        <time>2022-10-06T12:11:24Z</time>
      </trkpt>
      <trkpt lat="44.78799" lon="-0.12225">
        <ele>47.2</ele>
        <time>2022-10-06T12:11:25Z</time>
      </trkpt>
      <trkpt lat="44.78798" lon="-0.12226">
        <ele>47.2</ele>
        <time>2022-10-06T12:11:26Z</time>
      </trkpt>
      <trkpt lat="44.78796" lon="-0.12228">
        <ele>47</ele>
        <time>2022-10-06T12:11:27Z</time>
      </trkpt>
      <trkpt lat="44.78796" lon="-0.12229">
        <ele>46.9</ele>
        <time>2022-10-06T12:11:28Z</time>
      </trkpt>
      <trkpt lat="44.78795" lon="-0.12231">
        <ele>46.8</ele>
        <time>2022-10-06T12:11:29Z</time>
      </trkpt>
      <trkpt lat="44.78794" lon="-0.12232">
        <ele>46.7</ele>
        <time>2022-10-06T12:11:30Z</time>
      </trkpt>
      <trkpt lat="44.78793" lon="-0.12233">
        <ele>46.6</ele>
        <time>2022-10-06T12:11:31Z</time>
      </trkpt>
      <trkpt lat="44.78792" lon="-0.12236">
        <ele>46.5</ele>
        <time>2022-10-06T12:11:32Z</time>
      </trkpt>
      <trkpt lat="44.78791" lon="-0.12237">
        <ele>46.4</ele>
        <time>2022-10-06T12:11:33Z</time>
      </trkpt>
      <trkpt lat="44.7879" lon="-0.12239">
        <ele>46.3</ele>
        <time>2022-10-06T12:11:34Z</time>
      </trkpt>
      <trkpt lat="44.7879" lon="-0.1224">
        <ele>46.3</ele>
        <time>2022-10-06T12:11:35Z</time>
      </trkpt>
      <trkpt lat="44.78789" lon="-0.12241">
        <ele>46.2</ele>
        <time>2022-10-06T12:11:36Z</time>
      </trkpt>
      <trkpt lat="44.78788" lon="-0.12244">
        <ele>46</ele>
        <time>2022-10-06T12:11:37Z</time>
      </trkpt>
      <trkpt lat="44.78788" lon="-0.12245">
        <ele>46</ele>
        <time>2022-10-06T12:11:38Z</time>
      </trkpt>
      <trkpt lat="44.78787" lon="-0.12247">
        <ele>45.9</ele>
        <time>2022-10-06T12:11:39Z</time>
      </trkpt>
      <trkpt lat="44.78786" lon="-0.12248">
        <ele>45.8</ele>
        <time>2022-10-06T12:11:40Z</time>
      </trkpt>
      <trkpt lat="44.78786" lon="-0.12249">
        <ele>45.7</ele>
        <time>2022-10-06T12:11:41Z</time>
      </trkpt>
      <trkpt lat="44.78784" lon="-0.12252">
        <ele>45.6</ele>
        <time>2022-10-06T12:11:42Z</time>
      </trkpt>
      <trkpt lat="44.78784" lon="-0.12253">
        <ele>45.6</ele>
        <time>2022-10-06T12:11:43Z</time>
      </trkpt>
      <trkpt lat="44.78783" lon="-0.12256">
        <ele>45.4</ele>
        <time>2022-10-06T12:11:44Z</time>
      </trkpt>
      <trkpt lat="44.78782" lon="-0.12257">
        <ele>45.4</ele>
        <time>2022-10-06T12:11:45Z</time>
      </trkpt>
      <trkpt lat="44.78782" lon="-0.12258">
        <ele>45.3</ele>
        <time>2022-10-06T12:11:46Z</time>
      </trkpt>
      <trkpt lat="44.7878" lon="-0.1226">
        <ele>45.2</ele>
        <time>2022-10-06T12:11:47Z</time>
      </trkpt>
      <trkpt lat="44.7878" lon="-0.12261">
        <ele>45.1</ele>
        <time>2022-10-06T12:11:48Z</time>
      </trkpt>
      <trkpt lat="44.78779" lon="-0.12262">
        <ele>45.1</ele>
        <time>2022-10-06T12:11:49Z</time>
      </trkpt>
      <trkpt lat="44.78778" lon="-0.12263">
        <ele>45</ele>
        <time>2022-10-06T12:11:50Z</time>
      </trkpt>
      <trkpt lat="44.78777" lon="-0.12264">
        <ele>44.9</ele>
        <time>2022-10-06T12:11:51Z</time>
      </trkpt>
      <trkpt lat="44.78776" lon="-0.12265">
        <ele>44.8</ele>
        <time>2022-10-06T12:11:52Z</time>
      </trkpt>
      <trkpt lat="44.78774" lon="-0.12267">
        <ele>44.7</ele>
        <time>2022-10-06T12:11:53Z</time>
      </trkpt>
      <trkpt lat="44.78772" lon="-0.12269">
        <ele>44.6</ele>
        <time>2022-10-06T12:11:54Z</time>
      </trkpt>
      <trkpt lat="44.78771" lon="-0.12269">
        <ele>44.5</ele>
        <time>2022-10-06T12:11:55Z</time>
      </trkpt>
      <trkpt lat="44.78771" lon="-0.1227">
        <ele>44.5</ele>
        <time>2022-10-06T12:11:56Z</time>
      </trkpt>
      <trkpt lat="44.7877" lon="-0.12271">
        <ele>44.4</ele>
        <time>2022-10-06T12:11:57Z</time>
      </trkpt>
      <trkpt lat="44.78768" lon="-0.12272">
        <ele>44.3</ele>
        <time>2022-10-06T12:11:58Z</time>
      </trkpt>
      <trkpt lat="44.78766" lon="-0.12273">
        <ele>44.2</ele>
        <time>2022-10-06T12:11:59Z</time>
      </trkpt>
      <trkpt lat="44.78765" lon="-0.12273">
        <ele>44.1</ele>
        <time>2022-10-06T12:12:00Z</time>
      </trkpt>
      <trkpt lat="44.78765" lon="-0.12274">
        <ele>44</ele>
        <time>2022-10-06T12:12:01Z</time>
      </trkpt>
      <trkpt lat="44.78763" lon="-0.12274">
        <ele>44</ele>
        <time>2022-10-06T12:12:02Z</time>
      </trkpt>
      <trkpt lat="44.78762" lon="-0.12275">
        <ele>43.8</ele>
        <time>2022-10-06T12:12:03Z</time>
      </trkpt>
      <trkpt lat="44.78761" lon="-0.12275">
        <ele>43.8</ele>
        <time>2022-10-06T12:12:04Z</time>
      </trkpt>
      <trkpt lat="44.7876" lon="-0.12275">
        <ele>43.7</ele>
        <time>2022-10-06T12:12:05Z</time>
      </trkpt>
      <trkpt lat="44.78758" lon="-0.12275">
        <ele>43.6</ele>
        <time>2022-10-06T12:12:06Z</time>
      </trkpt>
      <trkpt lat="44.78757" lon="-0.12275">
        <ele>43.5</ele>
        <time>2022-10-06T12:12:07Z</time>
      </trkpt>
      <trkpt lat="44.78755" lon="-0.12276">
        <ele>43.4</ele>
        <time>2022-10-06T12:12:08Z</time>
      </trkpt>
      <trkpt lat="44.78754" lon="-0.12276">
        <ele>43.4</ele>
        <time>2022-10-06T12:12:09Z</time>
      </trkpt>
      <trkpt lat="44.78753" lon="-0.12276">
        <ele>43.3</ele>
        <time>2022-10-06T12:12:10Z</time>
      </trkpt>
      <trkpt lat="44.78752" lon="-0.12276">
        <ele>43.2</ele>
        <time>2022-10-06T12:12:11Z</time>
      </trkpt>
      <trkpt lat="44.78751" lon="-0.12276">
        <ele>43.1</ele>
        <time>2022-10-06T12:12:12Z</time>
      </trkpt>
      <trkpt lat="44.78749" lon="-0.12276">
        <ele>43</ele>
        <time>2022-10-06T12:12:13Z</time>
      </trkpt>
      <trkpt lat="44.78748" lon="-0.12276">
        <ele>43</ele>
        <time>2022-10-06T12:12:14Z</time>
      </trkpt>
      <trkpt lat="44.78747" lon="-0.12276">
        <ele>42.9</ele>
        <time>2022-10-06T12:12:15Z</time>
      </trkpt>
      <trkpt lat="44.78746" lon="-0.12276">
        <ele>42.8</ele>
        <time>2022-10-06T12:12:16Z</time>
      </trkpt>
      <trkpt lat="44.78744" lon="-0.12276">
        <ele>42.7</ele>
        <time>2022-10-06T12:12:17Z</time>
      </trkpt>
      <trkpt lat="44.78743" lon="-0.12276">
        <ele>42.6</ele>
        <time>2022-10-06T12:12:18Z</time>
      </trkpt>
      <trkpt lat="44.78742" lon="-0.12276">
        <ele>42.6</ele>
        <time>2022-10-06T12:12:19Z</time>
      </trkpt>
      <trkpt lat="44.78741" lon="-0.12276">
        <ele>42.5</ele>
        <time>2022-10-06T12:12:20Z</time>
      </trkpt>
      <trkpt lat="44.78739" lon="-0.12276">
        <ele>42.4</ele>
        <time>2022-10-06T12:12:21Z</time>
      </trkpt>
      <trkpt lat="44.78738" lon="-0.12277">
        <ele>42.3</ele>
        <time>2022-10-06T12:12:22Z</time>
      </trkpt>
      <trkpt lat="44.78737" lon="-0.12277">
        <ele>42.2</ele>
        <time>2022-10-06T12:12:23Z</time>
      </trkpt>
      <trkpt lat="44.78735" lon="-0.12277">
        <ele>42.1</ele>
        <time>2022-10-06T12:12:24Z</time>
      </trkpt>
      <trkpt lat="44.78734" lon="-0.12277">
        <ele>42.1</ele>
        <time>2022-10-06T12:12:25Z</time>
      </trkpt>
      <trkpt lat="44.78733" lon="-0.12278">
        <ele>42</ele>
        <time>2022-10-06T12:12:26Z</time>
      </trkpt>
      <trkpt lat="44.78732" lon="-0.12278">
        <ele>41.9</ele>
        <time>2022-10-06T12:12:27Z</time>
      </trkpt>
      <trkpt lat="44.7873" lon="-0.12278">
        <ele>41.8</ele>
        <time>2022-10-06T12:12:28Z</time>
      </trkpt>
      <trkpt lat="44.78728" lon="-0.12279">
        <ele>41.7</ele>
        <time>2022-10-06T12:12:29Z</time>
      </trkpt>
      <trkpt lat="44.78727" lon="-0.12279">
        <ele>41.6</ele>
        <time>2022-10-06T12:12:30Z</time>
      </trkpt>
      <trkpt lat="44.78726" lon="-0.1228">
        <ele>41.6</ele>
        <time>2022-10-06T12:12:31Z</time>
      </trkpt>
      <trkpt lat="44.78725" lon="-0.1228">
        <ele>41.5</ele>
        <time>2022-10-06T12:12:32Z</time>
      </trkpt>
      <trkpt lat="44.78723" lon="-0.12281">
        <ele>41.4</ele>
        <time>2022-10-06T12:12:33Z</time>
      </trkpt>
      <trkpt lat="44.78722" lon="-0.12281">
        <ele>41.3</ele>
        <time>2022-10-06T12:12:34Z</time>
      </trkpt>
      <trkpt lat="44.78721" lon="-0.12282">
        <ele>41.2</ele>
        <time>2022-10-06T12:12:35Z</time>
      </trkpt>
      <trkpt lat="44.7872" lon="-0.12283">
        <ele>41.2</ele>
        <time>2022-10-06T12:12:36Z</time>
      </trkpt>
      <trkpt lat="44.78719" lon="-0.12284">
        <ele>41.1</ele>
        <time>2022-10-06T12:12:37Z</time>
      </trkpt>
      <trkpt lat="44.78718" lon="-0.12285">
        <ele>41</ele>
        <time>2022-10-06T12:12:38Z</time>
      </trkpt>
      <trkpt lat="44.78717" lon="-0.12285">
        <ele>40.9</ele>
        <time>2022-10-06T12:12:39Z</time>
      </trkpt>
      <trkpt lat="44.78716" lon="-0.12286">
        <ele>40.9</ele>
        <time>2022-10-06T12:12:40Z</time>
      </trkpt>
      <trkpt lat="44.78715" lon="-0.12287">
        <ele>40.8</ele>
        <time>2022-10-06T12:12:41Z</time>
      </trkpt>
      <trkpt lat="44.78713" lon="-0.12288">
        <ele>40.7</ele>
        <time>2022-10-06T12:12:42Z</time>
      </trkpt>
      <trkpt lat="44.78712" lon="-0.12289">
        <ele>40.6</ele>
        <time>2022-10-06T12:12:43Z</time>
      </trkpt>
      <trkpt lat="44.78711" lon="-0.12289">
        <ele>40.6</ele>
        <time>2022-10-06T12:12:44Z</time>
      </trkpt>
      <trkpt lat="44.7871" lon="-0.1229">
        <ele>40.5</ele>
        <time>2022-10-06T12:12:45Z</time>
      </trkpt>
      <trkpt lat="44.78709" lon="-0.12291">
        <ele>40.4</ele>
        <time>2022-10-06T12:12:46Z</time>
      </trkpt>
      <trkpt lat="44.78708" lon="-0.12292">
        <ele>40.3</ele>
        <time>2022-10-06T12:12:47Z</time>
      </trkpt>
      <trkpt lat="44.78707" lon="-0.12293">
        <ele>40.2</ele>
        <time>2022-10-06T12:12:48Z</time>
      </trkpt>
      <trkpt lat="44.78706" lon="-0.12294">
        <ele>40.2</ele>
        <time>2022-10-06T12:12:49Z</time>
      </trkpt>
      <trkpt lat="44.78705" lon="-0.12295">
        <ele>40.1</ele>
        <time>2022-10-06T12:12:50Z</time>
      </trkpt>
      <trkpt lat="44.78704" lon="-0.12296">
        <ele>40.1</ele>
        <time>2022-10-06T12:12:51Z</time>
      </trkpt>
      <trkpt lat="44.78703" lon="-0.12297">
        <ele>40</ele>
        <time>2022-10-06T12:12:52Z</time>
      </trkpt>
      <trkpt lat="44.78702" lon="-0.12298">
        <ele>39.9</ele>
        <time>2022-10-06T12:12:53Z</time>
      </trkpt>
      <trkpt lat="44.78701" lon="-0.12299">
        <ele>39.8</ele>
        <time>2022-10-06T12:12:54Z</time>
      </trkpt>
      <trkpt lat="44.787" lon="-0.123">
        <ele>39.8</ele>
        <time>2022-10-06T12:12:55Z</time>
      </trkpt>
      <trkpt lat="44.78699" lon="-0.12301">
        <ele>39.7</ele>
        <time>2022-10-06T12:12:56Z</time>
      </trkpt>
      <trkpt lat="44.78698" lon="-0.12301">
        <ele>39.6</ele>
        <time>2022-10-06T12:12:57Z</time>
      </trkpt>
      <trkpt lat="44.78696" lon="-0.12303">
        <ele>39.5</ele>
        <time>2022-10-06T12:12:58Z</time>
      </trkpt>
      <trkpt lat="44.78696" lon="-0.12303">
        <ele>39.5</ele>
        <time>2022-10-06T12:12:59Z</time>
      </trkpt>
      <trkpt lat="44.78695" lon="-0.12304">
        <ele>39.4</ele>
        <time>2022-10-06T12:13:00Z</time>
      </trkpt>
      <trkpt lat="44.78694" lon="-0.12305">
        <ele>39.3</ele>
        <time>2022-10-06T12:13:01Z</time>
      </trkpt>
      <trkpt lat="44.78692" lon="-0.12307">
        <ele>39.2</ele>
        <time>2022-10-06T12:13:02Z</time>
      </trkpt>
      <trkpt lat="44.78691" lon="-0.12308">
        <ele>39.1</ele>
        <time>2022-10-06T12:13:03Z</time>
      </trkpt>
      <trkpt lat="44.7869" lon="-0.12308">
        <ele>39.1</ele>
        <time>2022-10-06T12:13:04Z</time>
      </trkpt>
      <trkpt lat="44.78689" lon="-0.12309">
        <ele>39</ele>
        <time>2022-10-06T12:13:05Z</time>
      </trkpt>
      <trkpt lat="44.78688" lon="-0.1231">
        <ele>39</ele>
        <time>2022-10-06T12:13:06Z</time>
      </trkpt>
      <trkpt lat="44.78687" lon="-0.12311">
        <ele>38.9</ele>
        <time>2022-10-06T12:13:07Z</time>
      </trkpt>
      <trkpt lat="44.78685" lon="-0.12312">
        <ele>38.8</ele>
        <time>2022-10-06T12:13:08Z</time>
      </trkpt>
      <trkpt lat="44.78685" lon="-0.12313">
        <ele>38.7</ele>
        <time>2022-10-06T12:13:09Z</time>
      </trkpt>
      <trkpt lat="44.78684" lon="-0.12314">
        <ele>38.7</ele>
        <time>2022-10-06T12:13:10Z</time>
      </trkpt>
      <trkpt lat="44.78683" lon="-0.12314">
        <ele>38.6</ele>
        <time>2022-10-06T12:13:11Z</time>
      </trkpt>
      <trkpt lat="44.78681" lon="-0.12316">
        <ele>38.5</ele>
        <time>2022-10-06T12:13:12Z</time>
      </trkpt>
      <trkpt lat="44.7868" lon="-0.12317">
        <ele>38.4</ele>
        <time>2022-10-06T12:13:13Z</time>
      </trkpt>
      <trkpt lat="44.78679" lon="-0.12318">
        <ele>38.3</ele>
        <time>2022-10-06T12:13:14Z</time>
      </trkpt>
      <trkpt lat="44.78678" lon="-0.12319">
        <ele>38.3</ele>
        <time>2022-10-06T12:13:15Z</time>
      </trkpt>
      <trkpt lat="44.78677" lon="-0.12319">
        <ele>38.2</ele>
        <time>2022-10-06T12:13:16Z</time>
      </trkpt>
      <trkpt lat="44.78676" lon="-0.1232">
        <ele>38.1</ele>
        <time>2022-10-06T12:13:17Z</time>
      </trkpt>
      <trkpt lat="44.78674" lon="-0.12322">
        <ele>38</ele>
        <time>2022-10-06T12:13:18Z</time>
      </trkpt>
      <trkpt lat="44.78673" lon="-0.12322">
        <ele>38</ele>
        <time>2022-10-06T12:13:19Z</time>
      </trkpt>
      <trkpt lat="44.78672" lon="-0.12323">
        <ele>37.9</ele>
        <time>2022-10-06T12:13:20Z</time>
      </trkpt>
      <trkpt lat="44.78671" lon="-0.12323">
        <ele>37.9</ele>
        <time>2022-10-06T12:13:21Z</time>
      </trkpt>
      <trkpt lat="44.7867" lon="-0.12324">
        <ele>37.8</ele>
        <time>2022-10-06T12:13:22Z</time>
      </trkpt>
      <trkpt lat="44.78669" lon="-0.12324">
        <ele>37.7</ele>
        <time>2022-10-06T12:13:23Z</time>
      </trkpt>
      <trkpt lat="44.78668" lon="-0.12325">
        <ele>37.6</ele>
        <time>2022-10-06T12:13:24Z</time>
      </trkpt>
      <trkpt lat="44.78667" lon="-0.12325">
        <ele>37.6</ele>
        <time>2022-10-06T12:13:25Z</time>
      </trkpt>
      <trkpt lat="44.78665" lon="-0.12326">
        <ele>37.5</ele>
        <time>2022-10-06T12:13:26Z</time>
      </trkpt>
      <trkpt lat="44.78663" lon="-0.12327">
        <ele>37.4</ele>
        <time>2022-10-06T12:13:27Z</time>
      </trkpt>
      <trkpt lat="44.78662" lon="-0.12328">
        <ele>37.3</ele>
        <time>2022-10-06T12:13:28Z</time>
      </trkpt>
      <trkpt lat="44.78661" lon="-0.12328">
        <ele>37.3</ele>
        <time>2022-10-06T12:13:29Z</time>
      </trkpt>
      <trkpt lat="44.7866" lon="-0.12329">
        <ele>37.2</ele>
        <time>2022-10-06T12:13:30Z</time>
      </trkpt>
      <trkpt lat="44.78659" lon="-0.1233">
        <ele>37.1</ele>
        <time>2022-10-06T12:13:31Z</time>
      </trkpt>
      <trkpt lat="44.78658" lon="-0.1233">
        <ele>37.1</ele>
        <time>2022-10-06T12:13:32Z</time>
      </trkpt>
      <trkpt lat="44.78657" lon="-0.12331">
        <ele>37</ele>
        <time>2022-10-06T12:13:33Z</time>
      </trkpt>
      <trkpt lat="44.78656" lon="-0.12332">
        <ele>36.9</ele>
        <time>2022-10-06T12:13:34Z</time>
      </trkpt>
      <trkpt lat="44.78654" lon="-0.12333">
        <ele>36.8</ele>
        <time>2022-10-06T12:13:35Z</time>
      </trkpt>
      <trkpt lat="44.78653" lon="-0.12333">
        <ele>36.7</ele>
        <time>2022-10-06T12:13:36Z</time>
      </trkpt>
      <trkpt lat="44.78652" lon="-0.12333">
        <ele>36.7</ele>
        <time>2022-10-06T12:13:37Z</time>
      </trkpt>
      <trkpt lat="44.7865" lon="-0.12335">
        <ele>36.5</ele>
        <time>2022-10-06T12:13:38Z</time>
      </trkpt>
      <trkpt lat="44.78649" lon="-0.12335">
        <ele>36.5</ele>
        <time>2022-10-06T12:13:39Z</time>
      </trkpt>
      <trkpt lat="44.78647" lon="-0.12336">
        <ele>36.3</ele>
        <time>2022-10-06T12:13:40Z</time>
      </trkpt>
      <trkpt lat="44.78646" lon="-0.12336">
        <ele>36.3</ele>
        <time>2022-10-06T12:13:41Z</time>
      </trkpt>
      <trkpt lat="44.78646" lon="-0.12337">
        <ele>36.2</ele>
        <time>2022-10-06T12:13:42Z</time>
      </trkpt>
      <trkpt lat="44.78643" lon="-0.12337">
        <ele>36.1</ele>
        <time>2022-10-06T12:13:43Z</time>
      </trkpt>
      <trkpt lat="44.78643" lon="-0.12337">
        <ele>36</ele>
        <time>2022-10-06T12:13:44Z</time>
      </trkpt>
      <trkpt lat="44.78641" lon="-0.12338">
        <ele>36</ele>
        <time>2022-10-06T12:13:45Z</time>
      </trkpt>
      <trkpt lat="44.7864" lon="-0.12339">
        <ele>35.9</ele>
        <time>2022-10-06T12:13:46Z</time>
      </trkpt>
      <trkpt lat="44.78638" lon="-0.12339">
        <ele>35.8</ele>
        <time>2022-10-06T12:13:47Z</time>
      </trkpt>
      <trkpt lat="44.78636" lon="-0.12339">
        <ele>35.7</ele>
        <time>2022-10-06T12:13:48Z</time>
      </trkpt>
      <trkpt lat="44.78636" lon="-0.12339">
        <ele>35.7</ele>
        <time>2022-10-06T12:13:49Z</time>
      </trkpt>
      <trkpt lat="44.78635" lon="-0.12339">
        <ele>35.7</ele>
        <time>2022-10-06T12:13:50Z</time>
      </trkpt>
      <trkpt lat="44.78633" lon="-0.12339">
        <ele>35.7</ele>
        <time>2022-10-06T12:13:51Z</time>
      </trkpt>
      <trkpt lat="44.78632" lon="-0.1234">
        <ele>35.6</ele>
        <time>2022-10-06T12:13:52Z</time>
      </trkpt>
      <trkpt lat="44.7863" lon="-0.1234">
        <ele>35.6</ele>
        <time>2022-10-06T12:13:53Z</time>
      </trkpt>
      <trkpt lat="44.78629" lon="-0.1234">
        <ele>35.5</ele>
        <time>2022-10-06T12:13:54Z</time>
      </trkpt>
      <trkpt lat="44.78628" lon="-0.1234">
        <ele>35.5</ele>
        <time>2022-10-06T12:13:55Z</time>
      </trkpt>
      <trkpt lat="44.78627" lon="-0.1234">
        <ele>35.5</ele>
        <time>2022-10-06T12:13:56Z</time>
      </trkpt>
      <trkpt lat="44.78625" lon="-0.1234">
        <ele>35.4</ele>
        <time>2022-10-06T12:13:57Z</time>
      </trkpt>
      <trkpt lat="44.78623" lon="-0.1234">
        <ele>35.4</ele>
        <time>2022-10-06T12:13:58Z</time>
      </trkpt>
      <trkpt lat="44.78622" lon="-0.1234">
        <ele>35.4</ele>
        <time>2022-10-06T12:13:59Z</time>
      </trkpt>
      <trkpt lat="44.78621" lon="-0.12341">
        <ele>35.3</ele>
        <time>2022-10-06T12:14:00Z</time>
      </trkpt>
      <trkpt lat="44.7862" lon="-0.12341">
        <ele>35.3</ele>
        <time>2022-10-06T12:14:01Z</time>
      </trkpt>
      <trkpt lat="44.78619" lon="-0.12341">
        <ele>35.3</ele>
        <time>2022-10-06T12:14:02Z</time>
      </trkpt>
      <trkpt lat="44.78617" lon="-0.12341">
        <ele>35.2</ele>
        <time>2022-10-06T12:14:03Z</time>
      </trkpt>
      <trkpt lat="44.78615" lon="-0.12341">
        <ele>35.2</ele>
        <time>2022-10-06T12:14:04Z</time>
      </trkpt>
      <trkpt lat="44.78614" lon="-0.12341">
        <ele>35.2</ele>
        <time>2022-10-06T12:14:05Z</time>
      </trkpt>
      <trkpt lat="44.78613" lon="-0.12341">
        <ele>35.2</ele>
        <time>2022-10-06T12:14:06Z</time>
      </trkpt>
      <trkpt lat="44.78612" lon="-0.12341">
        <ele>35.1</ele>
        <time>2022-10-06T12:14:07Z</time>
      </trkpt>
      <trkpt lat="44.7861" lon="-0.12341">
        <ele>35.1</ele>
        <time>2022-10-06T12:14:08Z</time>
      </trkpt>
      <trkpt lat="44.78608" lon="-0.12342">
        <ele>35</ele>
        <time>2022-10-06T12:14:09Z</time>
      </trkpt>
      <trkpt lat="44.78607" lon="-0.12342">
        <ele>35</ele>
        <time>2022-10-06T12:14:10Z</time>
      </trkpt>
      <trkpt lat="44.78606" lon="-0.12342">
        <ele>35</ele>
        <time>2022-10-06T12:14:11Z</time>
      </trkpt>
      <trkpt lat="44.78605" lon="-0.12343">
        <ele>35</ele>
        <time>2022-10-06T12:14:12Z</time>
      </trkpt>
      <trkpt lat="44.78603" lon="-0.12343">
        <ele>34.9</ele>
        <time>2022-10-06T12:14:13Z</time>
      </trkpt>
      <trkpt lat="44.78601" lon="-0.12343">
        <ele>34.9</ele>
        <time>2022-10-06T12:14:14Z</time>
      </trkpt>
      <trkpt lat="44.786" lon="-0.12343">
        <ele>34.9</ele>
        <time>2022-10-06T12:14:15Z</time>
      </trkpt>
      <trkpt lat="44.786" lon="-0.12344">
        <ele>34.9</ele>
        <time>2022-10-06T12:14:16Z</time>
      </trkpt>
      <trkpt lat="44.78598" lon="-0.12344">
        <ele>34.8</ele>
        <time>2022-10-06T12:14:17Z</time>
      </trkpt>
      <trkpt lat="44.78597" lon="-0.12345">
        <ele>34.8</ele>
        <time>2022-10-06T12:14:18Z</time>
      </trkpt>
      <trkpt lat="44.78596" lon="-0.12346">
        <ele>34.8</ele>
        <time>2022-10-06T12:14:19Z</time>
      </trkpt>
      <trkpt lat="44.78595" lon="-0.12347">
        <ele>34.7</ele>
        <time>2022-10-06T12:14:20Z</time>
      </trkpt>
      <trkpt lat="44.78594" lon="-0.12348">
        <ele>34.7</ele>
        <time>2022-10-06T12:14:21Z</time>
      </trkpt>
      <trkpt lat="44.78593" lon="-0.12349">
        <ele>34.7</ele>
        <time>2022-10-06T12:14:22Z</time>
      </trkpt>
      <trkpt lat="44.78591" lon="-0.1235">
        <ele>34.6</ele>
        <time>2022-10-06T12:14:23Z</time>
      </trkpt>
      <trkpt lat="44.7859" lon="-0.12351">
        <ele>34.6</ele>
        <time>2022-10-06T12:14:24Z</time>
      </trkpt>
      <trkpt lat="44.7859" lon="-0.12352">
        <ele>34.6</ele>
        <time>2022-10-06T12:14:25Z</time>
      </trkpt>
      <trkpt lat="44.78588" lon="-0.12353">
        <ele>34.5</ele>
        <time>2022-10-06T12:14:26Z</time>
      </trkpt>
      <trkpt lat="44.78587" lon="-0.12354">
        <ele>34.5</ele>
        <time>2022-10-06T12:14:27Z</time>
      </trkpt>
      <trkpt lat="44.78586" lon="-0.12356">
        <ele>34.5</ele>
        <time>2022-10-06T12:14:28Z</time>
      </trkpt>
      <trkpt lat="44.78585" lon="-0.12357">
        <ele>34.4</ele>
        <time>2022-10-06T12:14:29Z</time>
      </trkpt>
      <trkpt lat="44.78585" lon="-0.12358">
        <ele>34.4</ele>
        <time>2022-10-06T12:14:30Z</time>
      </trkpt>
      <trkpt lat="44.78584" lon="-0.1236">
        <ele>34.4</ele>
        <time>2022-10-06T12:14:31Z</time>
      </trkpt>
      <trkpt lat="44.78583" lon="-0.12361">
        <ele>34.4</ele>
        <time>2022-10-06T12:14:32Z</time>
      </trkpt>
      <trkpt lat="44.78582" lon="-0.12363">
        <ele>34.3</ele>
        <time>2022-10-06T12:14:33Z</time>
      </trkpt>
      <trkpt lat="44.78581" lon="-0.12363">
        <ele>34.3</ele>
        <time>2022-10-06T12:14:34Z</time>
      </trkpt>
      <trkpt lat="44.7858" lon="-0.12365">
        <ele>34.3</ele>
        <time>2022-10-06T12:14:35Z</time>
      </trkpt>
      <trkpt lat="44.7858" lon="-0.12366">
        <ele>34.2</ele>
        <time>2022-10-06T12:14:36Z</time>
      </trkpt>
      <trkpt lat="44.78579" lon="-0.12368">
        <ele>34.2</ele>
        <time>2022-10-06T12:14:37Z</time>
      </trkpt>
      <trkpt lat="44.78578" lon="-0.1237">
        <ele>34.2</ele>
        <time>2022-10-06T12:14:38Z</time>
      </trkpt>
      <trkpt lat="44.78578" lon="-0.12371">
        <ele>34.1</ele>
        <time>2022-10-06T12:14:39Z</time>
      </trkpt>
      <trkpt lat="44.78577" lon="-0.12372">
        <ele>34.1</ele>
        <time>2022-10-06T12:14:40Z</time>
      </trkpt>
      <trkpt lat="44.78577" lon="-0.12374">
        <ele>34.1</ele>
        <time>2022-10-06T12:14:41Z</time>
      </trkpt>
      <trkpt lat="44.78576" lon="-0.12375">
        <ele>34.1</ele>
        <time>2022-10-06T12:14:42Z</time>
      </trkpt>
      <trkpt lat="44.78575" lon="-0.12377">
        <ele>34</ele>
        <time>2022-10-06T12:14:43Z</time>
      </trkpt>
      <trkpt lat="44.78574" lon="-0.12378">
        <ele>34</ele>
        <time>2022-10-06T12:14:44Z</time>
      </trkpt>
      <trkpt lat="44.78574" lon="-0.1238">
        <ele>34</ele>
        <time>2022-10-06T12:14:45Z</time>
      </trkpt>
      <trkpt lat="44.78573" lon="-0.12381">
        <ele>34</ele>
        <time>2022-10-06T12:14:46Z</time>
      </trkpt>
      <trkpt lat="44.78571" lon="-0.12384">
        <ele>33.9</ele>
        <time>2022-10-06T12:14:47Z</time>
      </trkpt>
      <trkpt lat="44.78571" lon="-0.12386">
        <ele>33.9</ele>
        <time>2022-10-06T12:14:48Z</time>
      </trkpt>
      <trkpt lat="44.7857" lon="-0.12386">
        <ele>33.9</ele>
        <time>2022-10-06T12:14:49Z</time>
      </trkpt>
      <trkpt lat="44.7857" lon="-0.12387">
        <ele>33.9</ele>
        <time>2022-10-06T12:14:50Z</time>
      </trkpt>
      <trkpt lat="44.78569" lon="-0.12389">
        <ele>33.9</ele>
        <time>2022-10-06T12:14:51Z</time>
      </trkpt>
      <trkpt lat="44.78569" lon="-0.12391">
        <ele>33.9</ele>
        <time>2022-10-06T12:14:52Z</time>
      </trkpt>
      <trkpt lat="44.78568" lon="-0.12394">
        <ele>33.8</ele>
        <time>2022-10-06T12:14:53Z</time>
      </trkpt>
      <trkpt lat="44.78568" lon="-0.12394">
        <ele>33.8</ele>
        <time>2022-10-06T12:14:54Z</time>
      </trkpt>
      <trkpt lat="44.78567" lon="-0.12396">
        <ele>33.8</ele>
        <time>2022-10-06T12:14:55Z</time>
      </trkpt>
      <trkpt lat="44.78567" lon="-0.12397">
        <ele>33.8</ele>
        <time>2022-10-06T12:14:56Z</time>
      </trkpt>
      <trkpt lat="44.78566" lon="-0.12399">
        <ele>33.8</ele>
        <time>2022-10-06T12:14:57Z</time>
      </trkpt>
      <trkpt lat="44.78565" lon="-0.12401">
        <ele>33.8</ele>
        <time>2022-10-06T12:14:58Z</time>
      </trkpt>
      <trkpt lat="44.78565" lon="-0.12402">
        <ele>33.8</ele>
        <time>2022-10-06T12:14:59Z</time>
      </trkpt>
      <trkpt lat="44.78564" lon="-0.12403">
        <ele>33.8</ele>
        <time>2022-10-06T12:15:00Z</time>
      </trkpt>
      <trkpt lat="44.78564" lon="-0.12405">
        <ele>33.8</ele>
        <time>2022-10-06T12:15:01Z</time>
      </trkpt>
      <trkpt lat="44.78563" lon="-0.12408">
        <ele>33.7</ele>
        <time>2022-10-06T12:15:02Z</time>
      </trkpt>
      <trkpt lat="44.78562" lon="-0.12409">
        <ele>33.7</ele>
        <time>2022-10-06T12:15:03Z</time>
      </trkpt>
      <trkpt lat="44.78562" lon="-0.1241">
        <ele>33.7</ele>
        <time>2022-10-06T12:15:04Z</time>
      </trkpt>
      <trkpt lat="44.78561" lon="-0.12412">
        <ele>33.7</ele>
        <time>2022-10-06T12:15:05Z</time>
      </trkpt>
      <trkpt lat="44.78561" lon="-0.12413">
        <ele>33.7</ele>
        <time>2022-10-06T12:15:06Z</time>
      </trkpt>
      <trkpt lat="44.7856" lon="-0.12416">
        <ele>33.7</ele>
        <time>2022-10-06T12:15:07Z</time>
      </trkpt>
      <trkpt lat="44.7856" lon="-0.12417">
        <ele>33.7</ele>
        <time>2022-10-06T12:15:08Z</time>
      </trkpt>
      <trkpt lat="44.78559" lon="-0.12418">
        <ele>33.7</ele>
        <time>2022-10-06T12:15:09Z</time>
      </trkpt>
      <trkpt lat="44.78558" lon="-0.12421">
        <ele>33.7</ele>
        <time>2022-10-06T12:15:10Z</time>
      </trkpt>
      <trkpt lat="44.78558" lon="-0.12422">
        <ele>33.7</ele>
        <time>2022-10-06T12:15:11Z</time>
      </trkpt>
      <trkpt lat="44.78558" lon="-0.12423">
        <ele>33.7</ele>
        <time>2022-10-06T12:15:12Z</time>
      </trkpt>
      <trkpt lat="44.78557" lon="-0.12425">
        <ele>33.7</ele>
        <time>2022-10-06T12:15:13Z</time>
      </trkpt>
      <trkpt lat="44.78556" lon="-0.12427">
        <ele>33.7</ele>
        <time>2022-10-06T12:15:14Z</time>
      </trkpt>
      <trkpt lat="44.78556" lon="-0.12429">
        <ele>33.7</ele>
        <time>2022-10-06T12:15:15Z</time>
      </trkpt>
      <trkpt lat="44.78555" lon="-0.1243">
        <ele>33.6</ele>
        <time>2022-10-06T12:15:16Z</time>
      </trkpt>
      <trkpt lat="44.78554" lon="-0.12433">
        <ele>33.6</ele>
        <time>2022-10-06T12:15:17Z</time>
      </trkpt>
      <trkpt lat="44.78554" lon="-0.12434">
        <ele>33.6</ele>
        <time>2022-10-06T12:15:18Z</time>
      </trkpt>
      <trkpt lat="44.78553" lon="-0.12435">
        <ele>33.6</ele>
        <time>2022-10-06T12:15:19Z</time>
      </trkpt>
      <trkpt lat="44.78552" lon="-0.12437">
        <ele>33.6</ele>
        <time>2022-10-06T12:15:20Z</time>
      </trkpt>
      <trkpt lat="44.78551" lon="-0.12438">
        <ele>33.6</ele>
        <time>2022-10-06T12:15:21Z</time>
      </trkpt>
      <trkpt lat="44.78551" lon="-0.12439">
        <ele>33.6</ele>
        <time>2022-10-06T12:15:22Z</time>
      </trkpt>
      <trkpt lat="44.7855" lon="-0.12442">
        <ele>33.6</ele>
        <time>2022-10-06T12:15:23Z</time>
      </trkpt>
      <trkpt lat="44.78549" lon="-0.12443">
        <ele>33.6</ele>
        <time>2022-10-06T12:15:24Z</time>
      </trkpt>
      <trkpt lat="44.78549" lon="-0.12444">
        <ele>33.6</ele>
        <time>2022-10-06T12:15:25Z</time>
      </trkpt>
      <trkpt lat="44.78548" lon="-0.12447">
        <ele>33.6</ele>
        <time>2022-10-06T12:15:26Z</time>
      </trkpt>
      <trkpt lat="44.78547" lon="-0.12448">
        <ele>33.6</ele>
        <time>2022-10-06T12:15:27Z</time>
      </trkpt>
      <trkpt lat="44.78547" lon="-0.1245">
        <ele>33.6</ele>
        <time>2022-10-06T12:15:28Z</time>
      </trkpt>
      <trkpt lat="44.78547" lon="-0.12451">
        <ele>33.6</ele>
        <time>2022-10-06T12:15:29Z</time>
      </trkpt>
      <trkpt lat="44.78546" lon="-0.12452">
        <ele>33.6</ele>
        <time>2022-10-06T12:15:30Z</time>
      </trkpt>
      <trkpt lat="44.78545" lon="-0.12453">
        <ele>33.6</ele>
        <time>2022-10-06T12:15:31Z</time>
      </trkpt>
      <trkpt lat="44.78544" lon="-0.12456">
        <ele>33.6</ele>
        <time>2022-10-06T12:15:32Z</time>
      </trkpt>
      <trkpt lat="44.78544" lon="-0.12458">
        <ele>33.6</ele>
        <time>2022-10-06T12:15:33Z</time>
      </trkpt>
      <trkpt lat="44.78543" lon="-0.12459">
        <ele>33.6</ele>
        <time>2022-10-06T12:15:34Z</time>
      </trkpt>
      <trkpt lat="44.78543" lon="-0.12461">
        <ele>33.6</ele>
        <time>2022-10-06T12:15:35Z</time>
      </trkpt>
      <trkpt lat="44.78542" lon="-0.12462">
        <ele>33.6</ele>
        <time>2022-10-06T12:15:36Z</time>
      </trkpt>
      <trkpt lat="44.78542" lon="-0.12464">
        <ele>33.6</ele>
        <time>2022-10-06T12:15:37Z</time>
      </trkpt>
      <trkpt lat="44.78541" lon="-0.12466">
        <ele>33.6</ele>
        <time>2022-10-06T12:15:38Z</time>
      </trkpt>
      <trkpt lat="44.7854" lon="-0.12469">
        <ele>33.6</ele>
        <time>2022-10-06T12:15:39Z</time>
      </trkpt>
      <trkpt lat="44.7854" lon="-0.1247">
        <ele>33.6</ele>
        <time>2022-10-06T12:15:40Z</time>
      </trkpt>
      <trkpt lat="44.78539" lon="-0.12471">
        <ele>33.6</ele>
        <time>2022-10-06T12:15:41Z</time>
      </trkpt>
      <trkpt lat="44.78539" lon="-0.12473">
        <ele>33.6</ele>
        <time>2022-10-06T12:15:42Z</time>
      </trkpt>
      <trkpt lat="44.78538" lon="-0.12475">
        <ele>33.6</ele>
        <time>2022-10-06T12:15:43Z</time>
      </trkpt>
      <trkpt lat="44.78537" lon="-0.12476">
        <ele>33.6</ele>
        <time>2022-10-06T12:15:44Z</time>
      </trkpt>
      <trkpt lat="44.78537" lon="-0.12478">
        <ele>33.6</ele>
        <time>2022-10-06T12:15:45Z</time>
      </trkpt>
      <trkpt lat="44.78536" lon="-0.12479">
        <ele>33.6</ele>
        <time>2022-10-06T12:15:46Z</time>
      </trkpt>
      <trkpt lat="44.78536" lon="-0.12481">
        <ele>33.6</ele>
        <time>2022-10-06T12:15:47Z</time>
      </trkpt>
      <trkpt lat="44.78535" lon="-0.12484">
        <ele>33.6</ele>
        <time>2022-10-06T12:15:48Z</time>
      </trkpt>
      <trkpt lat="44.78534" lon="-0.12485">
        <ele>33.6</ele>
        <time>2022-10-06T12:15:49Z</time>
      </trkpt>
      <trkpt lat="44.78534" lon="-0.12487">
        <ele>33.6</ele>
        <time>2022-10-06T12:15:50Z</time>
      </trkpt>
      <trkpt lat="44.78534" lon="-0.12488">
        <ele>33.6</ele>
        <time>2022-10-06T12:15:51Z</time>
      </trkpt>
      <trkpt lat="44.78533" lon="-0.1249">
        <ele>33.6</ele>
        <time>2022-10-06T12:15:52Z</time>
      </trkpt>
      <trkpt lat="44.78532" lon="-0.12492">
        <ele>33.6</ele>
        <time>2022-10-06T12:15:53Z</time>
      </trkpt>
      <trkpt lat="44.78532" lon="-0.12494">
        <ele>33.6</ele>
        <time>2022-10-06T12:15:54Z</time>
      </trkpt>
      <trkpt lat="44.78532" lon="-0.12495">
        <ele>33.6</ele>
        <time>2022-10-06T12:15:55Z</time>
      </trkpt>
      <trkpt lat="44.78532" lon="-0.12497">
        <ele>33.6</ele>
        <time>2022-10-06T12:15:56Z</time>
      </trkpt>
      <trkpt lat="44.78531" lon="-0.125">
        <ele>33.6</ele>
        <time>2022-10-06T12:15:57Z</time>
      </trkpt>
      <trkpt lat="44.78531" lon="-0.12502">
        <ele>33.6</ele>
        <time>2022-10-06T12:15:58Z</time>
      </trkpt>
      <trkpt lat="44.7853" lon="-0.12503">
        <ele>33.6</ele>
        <time>2022-10-06T12:15:59Z</time>
      </trkpt>
      <trkpt lat="44.7853" lon="-0.12504">
        <ele>33.6</ele>
        <time>2022-10-06T12:16:00Z</time>
      </trkpt>
      <trkpt lat="44.7853" lon="-0.12506">
        <ele>33.7</ele>
        <time>2022-10-06T12:16:01Z</time>
      </trkpt>
      <trkpt lat="44.78529" lon="-0.12509">
        <ele>33.7</ele>
        <time>2022-10-06T12:16:02Z</time>
      </trkpt>
      <trkpt lat="44.78529" lon="-0.1251">
        <ele>33.7</ele>
        <time>2022-10-06T12:16:03Z</time>
      </trkpt>
      <trkpt lat="44.78528" lon="-0.12511">
        <ele>33.7</ele>
        <time>2022-10-06T12:16:04Z</time>
      </trkpt>
      <trkpt lat="44.78528" lon="-0.12513">
        <ele>33.7</ele>
        <time>2022-10-06T12:16:05Z</time>
      </trkpt>
      <trkpt lat="44.78528" lon="-0.12514">
        <ele>33.7</ele>
        <time>2022-10-06T12:16:06Z</time>
      </trkpt>
      <trkpt lat="44.78528" lon="-0.12516">
        <ele>33.7</ele>
        <time>2022-10-06T12:16:07Z</time>
      </trkpt>
      <trkpt lat="44.78528" lon="-0.12518">
        <ele>33.7</ele>
        <time>2022-10-06T12:16:08Z</time>
      </trkpt>
      <trkpt lat="44.78527" lon="-0.1252">
        <ele>33.7</ele>
        <time>2022-10-06T12:16:09Z</time>
      </trkpt>
      <trkpt lat="44.78527" lon="-0.12522">
        <ele>33.7</ele>
        <time>2022-10-06T12:16:10Z</time>
      </trkpt>
      <trkpt lat="44.78527" lon="-0.12523">
        <ele>33.7</ele>
        <time>2022-10-06T12:16:11Z</time>
      </trkpt>
      <trkpt lat="44.78527" lon="-0.12525">
        <ele>33.7</ele>
        <time>2022-10-06T12:16:12Z</time>
      </trkpt>
      <trkpt lat="44.78527" lon="-0.12527">
        <ele>33.7</ele>
        <time>2022-10-06T12:16:13Z</time>
      </trkpt>
      <trkpt lat="44.78527" lon="-0.1253">
        <ele>33.8</ele>
        <time>2022-10-06T12:16:14Z</time>
      </trkpt>
      <trkpt lat="44.78526" lon="-0.12532">
        <ele>33.8</ele>
        <time>2022-10-06T12:16:15Z</time>
      </trkpt>
      <trkpt lat="44.78526" lon="-0.12534">
        <ele>33.8</ele>
        <time>2022-10-06T12:16:16Z</time>
      </trkpt>
      <trkpt lat="44.78526" lon="-0.12535">
        <ele>33.8</ele>
        <time>2022-10-06T12:16:17Z</time>
      </trkpt>
      <trkpt lat="44.78525" lon="-0.12537">
        <ele>33.8</ele>
        <time>2022-10-06T12:16:18Z</time>
      </trkpt>
      <trkpt lat="44.78525" lon="-0.12539">
        <ele>33.8</ele>
        <time>2022-10-06T12:16:19Z</time>
      </trkpt>
      <trkpt lat="44.78525" lon="-0.12542">
        <ele>33.8</ele>
        <time>2022-10-06T12:16:20Z</time>
      </trkpt>
      <trkpt lat="44.78525" lon="-0.12543">
        <ele>33.8</ele>
        <time>2022-10-06T12:16:21Z</time>
      </trkpt>
      <trkpt lat="44.78525" lon="-0.12544">
        <ele>33.9</ele>
        <time>2022-10-06T12:16:22Z</time>
      </trkpt>
      <trkpt lat="44.78525" lon="-0.12546">
        <ele>33.9</ele>
        <time>2022-10-06T12:16:23Z</time>
      </trkpt>
      <trkpt lat="44.78524" lon="-0.12548">
        <ele>33.9</ele>
        <time>2022-10-06T12:16:24Z</time>
      </trkpt>
      <trkpt lat="44.78524" lon="-0.12551">
        <ele>33.9</ele>
        <time>2022-10-06T12:16:25Z</time>
      </trkpt>
      <trkpt lat="44.78524" lon="-0.12552">
        <ele>33.9</ele>
        <time>2022-10-06T12:16:26Z</time>
      </trkpt>
      <trkpt lat="44.78524" lon="-0.12554">
        <ele>33.9</ele>
        <time>2022-10-06T12:16:27Z</time>
      </trkpt>
      <trkpt lat="44.78524" lon="-0.12555">
        <ele>34</ele>
        <time>2022-10-06T12:16:28Z</time>
      </trkpt>
      <trkpt lat="44.78524" lon="-0.12558">
        <ele>34</ele>
        <time>2022-10-06T12:16:29Z</time>
      </trkpt>
      <trkpt lat="44.78523" lon="-0.12559">
        <ele>34</ele>
        <time>2022-10-06T12:16:30Z</time>
      </trkpt>
      <trkpt lat="44.78523" lon="-0.12561">
        <ele>34</ele>
        <time>2022-10-06T12:16:31Z</time>
      </trkpt>
      <trkpt lat="44.78522" lon="-0.12563">
        <ele>34</ele>
        <time>2022-10-06T12:16:32Z</time>
      </trkpt>
      <trkpt lat="44.78522" lon="-0.12564">
        <ele>34.1</ele>
        <time>2022-10-06T12:16:33Z</time>
      </trkpt>
      <trkpt lat="44.78521" lon="-0.12566">
        <ele>34.1</ele>
        <time>2022-10-06T12:16:34Z</time>
      </trkpt>
      <trkpt lat="44.78521" lon="-0.12567">
        <ele>34.1</ele>
        <time>2022-10-06T12:16:35Z</time>
      </trkpt>
      <trkpt lat="44.7852" lon="-0.12569">
        <ele>34.1</ele>
        <time>2022-10-06T12:16:36Z</time>
      </trkpt>
      <trkpt lat="44.78519" lon="-0.1257">
        <ele>34.1</ele>
        <time>2022-10-06T12:16:37Z</time>
      </trkpt>
      <trkpt lat="44.78518" lon="-0.12571">
        <ele>34.2</ele>
        <time>2022-10-06T12:16:38Z</time>
      </trkpt>
      <trkpt lat="44.78516" lon="-0.12572">
        <ele>34.3</ele>
        <time>2022-10-06T12:16:39Z</time>
      </trkpt>
      <trkpt lat="44.78515" lon="-0.12573">
        <ele>34.3</ele>
        <time>2022-10-06T12:16:40Z</time>
      </trkpt>
      <trkpt lat="44.78514" lon="-0.12574">
        <ele>34.3</ele>
        <time>2022-10-06T12:16:41Z</time>
      </trkpt>
      <trkpt lat="44.78513" lon="-0.12574">
        <ele>34.3</ele>
        <time>2022-10-06T12:16:42Z</time>
      </trkpt>
      <trkpt lat="44.78512" lon="-0.12574">
        <ele>34.3</ele>
        <time>2022-10-06T12:16:43Z</time>
      </trkpt>
      <trkpt lat="44.7851" lon="-0.12574">
        <ele>34.3</ele>
        <time>2022-10-06T12:16:44Z</time>
      </trkpt>
      <trkpt lat="44.7851" lon="-0.12573">
        <ele>34.3</ele>
        <time>2022-10-06T12:16:45Z</time>
      </trkpt>
      <trkpt lat="44.78511" lon="-0.12571">
        <ele>34.3</ele>
        <time>2022-10-06T12:16:47Z</time>
      </trkpt>
      <trkpt lat="44.78511" lon="-0.12571">
        <ele>34.3</ele>
        <time>2022-10-06T12:16:48Z</time>
      </trkpt>
      <trkpt lat="44.78513" lon="-0.12571">
        <ele>34.4</ele>
        <time>2022-10-06T12:16:49Z</time>
      </trkpt>
      <trkpt lat="44.78513" lon="-0.12571">
        <ele>34.4</ele>
        <time>2022-10-06T12:16:50Z</time>
      </trkpt>
      <trkpt lat="44.78513" lon="-0.12571">
        <ele>34.4</ele>
        <time>2022-10-06T12:16:51Z</time>
      </trkpt>
      <trkpt lat="44.78513" lon="-0.12571">
        <ele>34.4</ele>
        <time>2022-10-06T12:16:52Z</time>
      </trkpt>
      <trkpt lat="44.78513" lon="-0.12571">
        <ele>34.4</ele>
        <time>2022-10-06T12:16:53Z</time>
      </trkpt>
      <trkpt lat="44.78513" lon="-0.12571">
        <ele>34.4</ele>
        <time>2022-10-06T12:16:54Z</time>
      </trkpt>
      <trkpt lat="44.78512" lon="-0.12571">
        <ele>34.4</ele>
        <time>2022-10-06T12:16:55Z</time>
      </trkpt>
      <trkpt lat="44.78512" lon="-0.12571">
        <ele>34.4</ele>
        <time>2022-10-06T12:16:56Z</time>
      </trkpt>
      <trkpt lat="44.78511" lon="-0.12571">
        <ele>34.4</ele>
        <time>2022-10-06T12:16:57Z</time>
      </trkpt>
      <trkpt lat="44.7851" lon="-0.12571">
        <ele>34.4</ele>
        <time>2022-10-06T12:16:58Z</time>
      </trkpt>
      <trkpt lat="44.78509" lon="-0.12571">
        <ele>34.4</ele>
        <time>2022-10-06T12:16:59Z</time>
      </trkpt>
      <trkpt lat="44.78507" lon="-0.1257">
        <ele>34.4</ele>
        <time>2022-10-06T12:17:00Z</time>
      </trkpt>
      <trkpt lat="44.78506" lon="-0.12569">
        <ele>34.4</ele>
        <time>2022-10-06T12:17:01Z</time>
      </trkpt>
      <trkpt lat="44.78505" lon="-0.12568">
        <ele>34.4</ele>
        <time>2022-10-06T12:17:02Z</time>
      </trkpt>
      <trkpt lat="44.78504" lon="-0.12568">
        <ele>34.4</ele>
        <time>2022-10-06T12:17:03Z</time>
      </trkpt>
      <trkpt lat="44.78502" lon="-0.12566">
        <ele>34.4</ele>
        <time>2022-10-06T12:17:04Z</time>
      </trkpt>
      <trkpt lat="44.78502" lon="-0.12566">
        <ele>34.4</ele>
        <time>2022-10-06T12:17:05Z</time>
      </trkpt>
      <trkpt lat="44.78501" lon="-0.12565">
        <ele>34.5</ele>
        <time>2022-10-06T12:17:06Z</time>
      </trkpt>
      <trkpt lat="44.785" lon="-0.12564">
        <ele>34.5</ele>
        <time>2022-10-06T12:17:07Z</time>
      </trkpt>
      <trkpt lat="44.78499" lon="-0.12563">
        <ele>34.5</ele>
        <time>2022-10-06T12:17:08Z</time>
      </trkpt>
      <trkpt lat="44.78496" lon="-0.12562">
        <ele>34.6</ele>
        <time>2022-10-06T12:17:09Z</time>
      </trkpt>
      <trkpt lat="44.78495" lon="-0.12562">
        <ele>34.6</ele>
        <time>2022-10-06T12:17:10Z</time>
      </trkpt>
      <trkpt lat="44.78494" lon="-0.12561">
        <ele>34.6</ele>
        <time>2022-10-06T12:17:11Z</time>
      </trkpt>
      <trkpt lat="44.78492" lon="-0.1256">
        <ele>34.7</ele>
        <time>2022-10-06T12:17:12Z</time>
      </trkpt>
      <trkpt lat="44.78491" lon="-0.12559">
        <ele>34.7</ele>
        <time>2022-10-06T12:17:13Z</time>
      </trkpt>
      <trkpt lat="44.7849" lon="-0.12558">
        <ele>34.8</ele>
        <time>2022-10-06T12:17:14Z</time>
      </trkpt>
      <trkpt lat="44.78489" lon="-0.12557">
        <ele>34.8</ele>
        <time>2022-10-06T12:17:15Z</time>
      </trkpt>
      <trkpt lat="44.78488" lon="-0.12557">
        <ele>34.8</ele>
        <time>2022-10-06T12:17:16Z</time>
      </trkpt>
      <trkpt lat="44.78487" lon="-0.12555">
        <ele>34.9</ele>
        <time>2022-10-06T12:17:17Z</time>
      </trkpt>
      <trkpt lat="44.78485" lon="-0.12553">
        <ele>35</ele>
        <time>2022-10-06T12:17:18Z</time>
      </trkpt>
      <trkpt lat="44.78484" lon="-0.12553">
        <ele>35</ele>
        <time>2022-10-06T12:17:19Z</time>
      </trkpt>
      <trkpt lat="44.78483" lon="-0.12552">
        <ele>35</ele>
        <time>2022-10-06T12:17:20Z</time>
      </trkpt>
      <trkpt lat="44.78483" lon="-0.12551">
        <ele>35.1</ele>
        <time>2022-10-06T12:17:21Z</time>
      </trkpt>
      <trkpt lat="44.78482" lon="-0.1255">
        <ele>35.1</ele>
        <time>2022-10-06T12:17:22Z</time>
      </trkpt>
      <trkpt lat="44.78481" lon="-0.12549">
        <ele>35.1</ele>
        <time>2022-10-06T12:17:23Z</time>
      </trkpt>
      <trkpt lat="44.78479" lon="-0.12547">
        <ele>35.2</ele>
        <time>2022-10-06T12:17:24Z</time>
      </trkpt>
      <trkpt lat="44.78478" lon="-0.12546">
        <ele>35.3</ele>
        <time>2022-10-06T12:17:25Z</time>
      </trkpt>
      <trkpt lat="44.78478" lon="-0.12545">
        <ele>35.3</ele>
        <time>2022-10-06T12:17:26Z</time>
      </trkpt>
      <trkpt lat="44.78477" lon="-0.12544">
        <ele>35.3</ele>
        <time>2022-10-06T12:17:27Z</time>
      </trkpt>
      <trkpt lat="44.78475" lon="-0.12542">
        <ele>35.4</ele>
        <time>2022-10-06T12:17:28Z</time>
      </trkpt>
      <trkpt lat="44.78475" lon="-0.12541">
        <ele>35.5</ele>
        <time>2022-10-06T12:17:29Z</time>
      </trkpt>
      <trkpt lat="44.78474" lon="-0.1254">
        <ele>35.5</ele>
        <time>2022-10-06T12:17:30Z</time>
      </trkpt>
      <trkpt lat="44.78473" lon="-0.12539">
        <ele>35.5</ele>
        <time>2022-10-06T12:17:31Z</time>
      </trkpt>
      <trkpt lat="44.78472" lon="-0.12538">
        <ele>35.6</ele>
        <time>2022-10-06T12:17:32Z</time>
      </trkpt>
      <trkpt lat="44.78471" lon="-0.12536">
        <ele>35.7</ele>
        <time>2022-10-06T12:17:33Z</time>
      </trkpt>
      <trkpt lat="44.7847" lon="-0.12536">
        <ele>35.7</ele>
        <time>2022-10-06T12:17:34Z</time>
      </trkpt>
      <trkpt lat="44.78469" lon="-0.12534">
        <ele>35.8</ele>
        <time>2022-10-06T12:17:35Z</time>
      </trkpt>
      <trkpt lat="44.78468" lon="-0.12533">
        <ele>35.8</ele>
        <time>2022-10-06T12:17:36Z</time>
      </trkpt>
      <trkpt lat="44.78467" lon="-0.12532">
        <ele>35.9</ele>
        <time>2022-10-06T12:17:37Z</time>
      </trkpt>
      <trkpt lat="44.78466" lon="-0.12531">
        <ele>36</ele>
        <time>2022-10-06T12:17:38Z</time>
      </trkpt>
      <trkpt lat="44.78465" lon="-0.1253">
        <ele>36</ele>
        <time>2022-10-06T12:17:39Z</time>
      </trkpt>
      <trkpt lat="44.78464" lon="-0.12529">
        <ele>36</ele>
        <time>2022-10-06T12:17:40Z</time>
      </trkpt>
      <trkpt lat="44.78464" lon="-0.12528">
        <ele>36.1</ele>
        <time>2022-10-06T12:17:41Z</time>
      </trkpt>
      <trkpt lat="44.78463" lon="-0.12527">
        <ele>36.2</ele>
        <time>2022-10-06T12:17:42Z</time>
      </trkpt>
      <trkpt lat="44.78462" lon="-0.12525">
        <ele>36.2</ele>
        <time>2022-10-06T12:17:43Z</time>
      </trkpt>
      <trkpt lat="44.78461" lon="-0.12524">
        <ele>36.3</ele>
        <time>2022-10-06T12:17:44Z</time>
      </trkpt>
      <trkpt lat="44.78461" lon="-0.12522">
        <ele>36.3</ele>
        <time>2022-10-06T12:17:45Z</time>
      </trkpt>
      <trkpt lat="44.78459" lon="-0.12521">
        <ele>36.4</ele>
        <time>2022-10-06T12:17:46Z</time>
      </trkpt>
      <trkpt lat="44.78459" lon="-0.1252">
        <ele>36.4</ele>
        <time>2022-10-06T12:17:47Z</time>
      </trkpt>
      <trkpt lat="44.78457" lon="-0.12519">
        <ele>36.5</ele>
        <time>2022-10-06T12:17:48Z</time>
      </trkpt>
      <trkpt lat="44.78456" lon="-0.12519">
        <ele>36.6</ele>
        <time>2022-10-06T12:17:49Z</time>
      </trkpt>
      <trkpt lat="44.78455" lon="-0.12518">
        <ele>36.6</ele>
        <time>2022-10-06T12:17:50Z</time>
      </trkpt>
      <trkpt lat="44.78454" lon="-0.12516">
        <ele>36.7</ele>
        <time>2022-10-06T12:17:51Z</time>
      </trkpt>
      <trkpt lat="44.78453" lon="-0.12515">
        <ele>36.7</ele>
        <time>2022-10-06T12:17:52Z</time>
      </trkpt>
      <trkpt lat="44.78452" lon="-0.12513">
        <ele>36.9</ele>
        <time>2022-10-06T12:17:53Z</time>
      </trkpt>
      <trkpt lat="44.78452" lon="-0.12512">
        <ele>36.9</ele>
        <time>2022-10-06T12:17:54Z</time>
      </trkpt>
      <trkpt lat="44.78451" lon="-0.12512">
        <ele>36.9</ele>
        <time>2022-10-06T12:17:55Z</time>
      </trkpt>
      <trkpt lat="44.78449" lon="-0.12511">
        <ele>37</ele>
        <time>2022-10-06T12:17:56Z</time>
      </trkpt>
      <trkpt lat="44.78448" lon="-0.12509">
        <ele>37.1</ele>
        <time>2022-10-06T12:17:57Z</time>
      </trkpt>
      <trkpt lat="44.78447" lon="-0.12509">
        <ele>37.2</ele>
        <time>2022-10-06T12:17:58Z</time>
      </trkpt>
      <trkpt lat="44.78446" lon="-0.12508">
        <ele>37.2</ele>
        <time>2022-10-06T12:17:59Z</time>
      </trkpt>
      <trkpt lat="44.78444" lon="-0.12507">
        <ele>37.3</ele>
        <time>2022-10-06T12:18:00Z</time>
      </trkpt>
      <trkpt lat="44.78444" lon="-0.12507">
        <ele>37.3</ele>
        <time>2022-10-06T12:18:01Z</time>
      </trkpt>
      <trkpt lat="44.78443" lon="-0.12505">
        <ele>37.4</ele>
        <time>2022-10-06T12:18:02Z</time>
      </trkpt>
      <trkpt lat="44.78442" lon="-0.12504">
        <ele>37.5</ele>
        <time>2022-10-06T12:18:03Z</time>
      </trkpt>
      <trkpt lat="44.78441" lon="-0.12504">
        <ele>37.5</ele>
        <time>2022-10-06T12:18:04Z</time>
      </trkpt>
      <trkpt lat="44.7844" lon="-0.12503">
        <ele>37.6</ele>
        <time>2022-10-06T12:18:05Z</time>
      </trkpt>
      <trkpt lat="44.78439" lon="-0.12502">
        <ele>37.7</ele>
        <time>2022-10-06T12:18:06Z</time>
      </trkpt>
      <trkpt lat="44.78438" lon="-0.12501">
        <ele>37.7</ele>
        <time>2022-10-06T12:18:07Z</time>
      </trkpt>
      <trkpt lat="44.78436" lon="-0.12499">
        <ele>37.8</ele>
        <time>2022-10-06T12:18:08Z</time>
      </trkpt>
      <trkpt lat="44.78435" lon="-0.12498">
        <ele>37.9</ele>
        <time>2022-10-06T12:18:09Z</time>
      </trkpt>
      <trkpt lat="44.78435" lon="-0.12497">
        <ele>37.9</ele>
        <time>2022-10-06T12:18:10Z</time>
      </trkpt>
      <trkpt lat="44.78434" lon="-0.12497">
        <ele>38</ele>
        <time>2022-10-06T12:18:11Z</time>
      </trkpt>
      <trkpt lat="44.78433" lon="-0.12496">
        <ele>38</ele>
        <time>2022-10-06T12:18:12Z</time>
      </trkpt>
      <trkpt lat="44.78432" lon="-0.12494">
        <ele>38.2</ele>
        <time>2022-10-06T12:18:13Z</time>
      </trkpt>
      <trkpt lat="44.78431" lon="-0.12494">
        <ele>38.2</ele>
        <time>2022-10-06T12:18:14Z</time>
      </trkpt>
      <trkpt lat="44.7843" lon="-0.12493">
        <ele>38.2</ele>
        <time>2022-10-06T12:18:15Z</time>
      </trkpt>
      <trkpt lat="44.78428" lon="-0.12491">
        <ele>38.4</ele>
        <time>2022-10-06T12:18:16Z</time>
      </trkpt>
      <trkpt lat="44.78427" lon="-0.12491">
        <ele>38.4</ele>
        <time>2022-10-06T12:18:17Z</time>
      </trkpt>
      <trkpt lat="44.78426" lon="-0.1249">
        <ele>38.5</ele>
        <time>2022-10-06T12:18:18Z</time>
      </trkpt>
      <trkpt lat="44.78426" lon="-0.1249">
        <ele>38.5</ele>
        <time>2022-10-06T12:18:19Z</time>
      </trkpt>
      <trkpt lat="44.78425" lon="-0.12489">
        <ele>38.6</ele>
        <time>2022-10-06T12:18:20Z</time>
      </trkpt>
      <trkpt lat="44.78424" lon="-0.12489">
        <ele>38.6</ele>
        <time>2022-10-06T12:18:21Z</time>
      </trkpt>
      <trkpt lat="44.78423" lon="-0.12488">
        <ele>38.7</ele>
        <time>2022-10-06T12:18:22Z</time>
      </trkpt>
      <trkpt lat="44.78421" lon="-0.12487">
        <ele>38.8</ele>
        <time>2022-10-06T12:18:23Z</time>
      </trkpt>
      <trkpt lat="44.78421" lon="-0.12486">
        <ele>38.8</ele>
        <time>2022-10-06T12:18:24Z</time>
      </trkpt>
      <trkpt lat="44.7842" lon="-0.12486">
        <ele>38.9</ele>
        <time>2022-10-06T12:18:25Z</time>
      </trkpt>
      <trkpt lat="44.78419" lon="-0.12485">
        <ele>38.9</ele>
        <time>2022-10-06T12:18:26Z</time>
      </trkpt>
      <trkpt lat="44.78417" lon="-0.12484">
        <ele>39</ele>
        <time>2022-10-06T12:18:27Z</time>
      </trkpt>
      <trkpt lat="44.78416" lon="-0.12483">
        <ele>39.1</ele>
        <time>2022-10-06T12:18:28Z</time>
      </trkpt>
      <trkpt lat="44.78415" lon="-0.12482">
        <ele>39.2</ele>
        <time>2022-10-06T12:18:29Z</time>
      </trkpt>
      <trkpt lat="44.78414" lon="-0.12482">
        <ele>39.2</ele>
        <time>2022-10-06T12:18:30Z</time>
      </trkpt>
      <trkpt lat="44.78413" lon="-0.12481">
        <ele>39.3</ele>
        <time>2022-10-06T12:18:31Z</time>
      </trkpt>
      <trkpt lat="44.78413" lon="-0.1248">
        <ele>39.3</ele>
        <time>2022-10-06T12:18:32Z</time>
      </trkpt>
      <trkpt lat="44.78411" lon="-0.12478">
        <ele>39.4</ele>
        <time>2022-10-06T12:18:33Z</time>
      </trkpt>
      <trkpt lat="44.78411" lon="-0.12478">
        <ele>39.4</ele>
        <time>2022-10-06T12:18:34Z</time>
      </trkpt>
      <trkpt lat="44.7841" lon="-0.12477">
        <ele>39.5</ele>
        <time>2022-10-06T12:18:35Z</time>
      </trkpt>
      <trkpt lat="44.78409" lon="-0.12476">
        <ele>39.6</ele>
        <time>2022-10-06T12:18:36Z</time>
      </trkpt>
      <trkpt lat="44.78408" lon="-0.12475">
        <ele>39.6</ele>
        <time>2022-10-06T12:18:37Z</time>
      </trkpt>
      <trkpt lat="44.78407" lon="-0.12475">
        <ele>39.7</ele>
        <time>2022-10-06T12:18:38Z</time>
      </trkpt>
      <trkpt lat="44.78406" lon="-0.12474">
        <ele>39.7</ele>
        <time>2022-10-06T12:18:39Z</time>
      </trkpt>
      <trkpt lat="44.78405" lon="-0.12473">
        <ele>39.8</ele>
        <time>2022-10-06T12:18:40Z</time>
      </trkpt>
      <trkpt lat="44.78404" lon="-0.12473">
        <ele>39.8</ele>
        <time>2022-10-06T12:18:41Z</time>
      </trkpt>
      <trkpt lat="44.78403" lon="-0.12473">
        <ele>39.9</ele>
        <time>2022-10-06T12:18:42Z</time>
      </trkpt>
      <trkpt lat="44.78401" lon="-0.12472">
        <ele>40</ele>
        <time>2022-10-06T12:18:43Z</time>
      </trkpt>
      <trkpt lat="44.78401" lon="-0.12472">
        <ele>40</ele>
        <time>2022-10-06T12:18:44Z</time>
      </trkpt>
      <trkpt lat="44.784" lon="-0.12472">
        <ele>40.1</ele>
        <time>2022-10-06T12:18:45Z</time>
      </trkpt>
      <trkpt lat="44.78399" lon="-0.12472">
        <ele>40.1</ele>
        <time>2022-10-06T12:18:46Z</time>
      </trkpt>
      <trkpt lat="44.78398" lon="-0.12472">
        <ele>40.2</ele>
        <time>2022-10-06T12:18:47Z</time>
      </trkpt>
      <trkpt lat="44.78396" lon="-0.12472">
        <ele>40.3</ele>
        <time>2022-10-06T12:18:48Z</time>
      </trkpt>
      <trkpt lat="44.78396" lon="-0.12471">
        <ele>40.3</ele>
        <time>2022-10-06T12:18:49Z</time>
      </trkpt>
      <trkpt lat="44.78394" lon="-0.12471">
        <ele>40.4</ele>
        <time>2022-10-06T12:18:50Z</time>
      </trkpt>
      <trkpt lat="44.78392" lon="-0.12471">
        <ele>40.5</ele>
        <time>2022-10-06T12:18:51Z</time>
      </trkpt>
      <trkpt lat="44.78391" lon="-0.12471">
        <ele>40.6</ele>
        <time>2022-10-06T12:18:52Z</time>
      </trkpt>
      <trkpt lat="44.7839" lon="-0.12471">
        <ele>40.7</ele>
        <time>2022-10-06T12:18:53Z</time>
      </trkpt>
      <trkpt lat="44.78389" lon="-0.1247">
        <ele>40.7</ele>
        <time>2022-10-06T12:18:54Z</time>
      </trkpt>
      <trkpt lat="44.78388" lon="-0.1247">
        <ele>40.8</ele>
        <time>2022-10-06T12:18:55Z</time>
      </trkpt>
      <trkpt lat="44.78387" lon="-0.1247">
        <ele>40.8</ele>
        <time>2022-10-06T12:18:56Z</time>
      </trkpt>
      <trkpt lat="44.78386" lon="-0.1247">
        <ele>40.9</ele>
        <time>2022-10-06T12:18:57Z</time>
      </trkpt>
      <trkpt lat="44.78384" lon="-0.12469">
        <ele>41</ele>
        <time>2022-10-06T12:18:58Z</time>
      </trkpt>
      <trkpt lat="44.78383" lon="-0.12469">
        <ele>41</ele>
        <time>2022-10-06T12:18:59Z</time>
      </trkpt>
      <trkpt lat="44.78383" lon="-0.12469">
        <ele>41.1</ele>
        <time>2022-10-06T12:19:00Z</time>
      </trkpt>
      <trkpt lat="44.78381" lon="-0.12469">
        <ele>41.2</ele>
        <time>2022-10-06T12:19:01Z</time>
      </trkpt>
      <trkpt lat="44.7838" lon="-0.12469">
        <ele>41.2</ele>
        <time>2022-10-06T12:19:02Z</time>
      </trkpt>
      <trkpt lat="44.78379" lon="-0.12469">
        <ele>41.3</ele>
        <time>2022-10-06T12:19:03Z</time>
      </trkpt>
      <trkpt lat="44.78378" lon="-0.12469">
        <ele>41.4</ele>
        <time>2022-10-06T12:19:04Z</time>
      </trkpt>
      <trkpt lat="44.78377" lon="-0.12469">
        <ele>41.4</ele>
        <time>2022-10-06T12:19:05Z</time>
      </trkpt>
      <trkpt lat="44.78376" lon="-0.12469">
        <ele>41.5</ele>
        <time>2022-10-06T12:19:06Z</time>
      </trkpt>
      <trkpt lat="44.78375" lon="-0.12469">
        <ele>41.6</ele>
        <time>2022-10-06T12:19:07Z</time>
      </trkpt>
      <trkpt lat="44.78373" lon="-0.1247">
        <ele>41.7</ele>
        <time>2022-10-06T12:19:08Z</time>
      </trkpt>
      <trkpt lat="44.78372" lon="-0.12471">
        <ele>41.7</ele>
        <time>2022-10-06T12:19:09Z</time>
      </trkpt>
      <trkpt lat="44.78371" lon="-0.12472">
        <ele>41.8</ele>
        <time>2022-10-06T12:19:10Z</time>
      </trkpt>
      <trkpt lat="44.7837" lon="-0.12472">
        <ele>41.9</ele>
        <time>2022-10-06T12:19:11Z</time>
      </trkpt>
      <trkpt lat="44.78369" lon="-0.12473">
        <ele>41.9</ele>
        <time>2022-10-06T12:19:12Z</time>
      </trkpt>
      <trkpt lat="44.78367" lon="-0.12473">
        <ele>42.1</ele>
        <time>2022-10-06T12:19:13Z</time>
      </trkpt>
      <trkpt lat="44.78365" lon="-0.12474">
        <ele>42.1</ele>
        <time>2022-10-06T12:19:14Z</time>
      </trkpt>
      <trkpt lat="44.78364" lon="-0.12474">
        <ele>42.2</ele>
        <time>2022-10-06T12:19:15Z</time>
      </trkpt>
      <trkpt lat="44.78364" lon="-0.12475">
        <ele>42.3</ele>
        <time>2022-10-06T12:19:16Z</time>
      </trkpt>
      <trkpt lat="44.78363" lon="-0.12475">
        <ele>42.3</ele>
        <time>2022-10-06T12:19:17Z</time>
      </trkpt>
      <trkpt lat="44.78361" lon="-0.12476">
        <ele>42.5</ele>
        <time>2022-10-06T12:19:18Z</time>
      </trkpt>
      <trkpt lat="44.7836" lon="-0.12476">
        <ele>42.5</ele>
        <time>2022-10-06T12:19:19Z</time>
      </trkpt>
      <trkpt lat="44.78358" lon="-0.12477">
        <ele>42.7</ele>
        <time>2022-10-06T12:19:20Z</time>
      </trkpt>
      <trkpt lat="44.78357" lon="-0.12478">
        <ele>42.7</ele>
        <time>2022-10-06T12:19:21Z</time>
      </trkpt>
      <trkpt lat="44.78357" lon="-0.12479">
        <ele>42.8</ele>
        <time>2022-10-06T12:19:22Z</time>
      </trkpt>
      <trkpt lat="44.78355" lon="-0.1248">
        <ele>42.9</ele>
        <time>2022-10-06T12:19:23Z</time>
      </trkpt>
      <trkpt lat="44.78354" lon="-0.1248">
        <ele>43</ele>
        <time>2022-10-06T12:19:24Z</time>
      </trkpt>
      <trkpt lat="44.78353" lon="-0.12481">
        <ele>43</ele>
        <time>2022-10-06T12:19:25Z</time>
      </trkpt>
      <trkpt lat="44.78352" lon="-0.12481">
        <ele>43.1</ele>
        <time>2022-10-06T12:19:26Z</time>
      </trkpt>
      <trkpt lat="44.78351" lon="-0.12482">
        <ele>43.2</ele>
        <time>2022-10-06T12:19:27Z</time>
      </trkpt>
      <trkpt lat="44.78349" lon="-0.12483">
        <ele>43.3</ele>
        <time>2022-10-06T12:19:28Z</time>
      </trkpt>
      <trkpt lat="44.78348" lon="-0.12483">
        <ele>43.4</ele>
        <time>2022-10-06T12:19:29Z</time>
      </trkpt>
      <trkpt lat="44.78346" lon="-0.12484">
        <ele>43.5</ele>
        <time>2022-10-06T12:19:30Z</time>
      </trkpt>
      <trkpt lat="44.78346" lon="-0.12485">
        <ele>43.6</ele>
        <time>2022-10-06T12:19:31Z</time>
      </trkpt>
      <trkpt lat="44.78345" lon="-0.12485">
        <ele>43.6</ele>
        <time>2022-10-06T12:19:32Z</time>
      </trkpt>
      <trkpt lat="44.78343" lon="-0.12486">
        <ele>43.7</ele>
        <time>2022-10-06T12:19:33Z</time>
      </trkpt>
      <trkpt lat="44.78342" lon="-0.12486">
        <ele>43.8</ele>
        <time>2022-10-06T12:19:34Z</time>
      </trkpt>
      <trkpt lat="44.7834" lon="-0.12487">
        <ele>43.9</ele>
        <time>2022-10-06T12:19:35Z</time>
      </trkpt>
      <trkpt lat="44.78339" lon="-0.12488">
        <ele>44</ele>
        <time>2022-10-06T12:19:36Z</time>
      </trkpt>
      <trkpt lat="44.78338" lon="-0.12488">
        <ele>44</ele>
        <time>2022-10-06T12:19:37Z</time>
      </trkpt>
      <trkpt lat="44.78337" lon="-0.12489">
        <ele>44.1</ele>
        <time>2022-10-06T12:19:38Z</time>
      </trkpt>
      <trkpt lat="44.78336" lon="-0.1249">
        <ele>44.2</ele>
        <time>2022-10-06T12:19:39Z</time>
      </trkpt>
      <trkpt lat="44.78334" lon="-0.12491">
        <ele>44.3</ele>
        <time>2022-10-06T12:19:40Z</time>
      </trkpt>
      <trkpt lat="44.78333" lon="-0.12492">
        <ele>44.4</ele>
        <time>2022-10-06T12:19:41Z</time>
      </trkpt>
      <trkpt lat="44.78332" lon="-0.12492">
        <ele>44.5</ele>
        <time>2022-10-06T12:19:42Z</time>
      </trkpt>
      <trkpt lat="44.78331" lon="-0.12493">
        <ele>44.6</ele>
        <time>2022-10-06T12:19:43Z</time>
      </trkpt>
      <trkpt lat="44.78329" lon="-0.12493">
        <ele>44.7</ele>
        <time>2022-10-06T12:19:44Z</time>
      </trkpt>
      <trkpt lat="44.78327" lon="-0.12495">
        <ele>44.8</ele>
        <time>2022-10-06T12:19:45Z</time>
      </trkpt>
      <trkpt lat="44.78326" lon="-0.12495">
        <ele>44.8</ele>
        <time>2022-10-06T12:19:46Z</time>
      </trkpt>
      <trkpt lat="44.78325" lon="-0.12495">
        <ele>44.9</ele>
        <time>2022-10-06T12:19:47Z</time>
      </trkpt>
      <trkpt lat="44.78324" lon="-0.12496">
        <ele>44.9</ele>
        <time>2022-10-06T12:19:48Z</time>
      </trkpt>
      <trkpt lat="44.78323" lon="-0.12497">
        <ele>45</ele>
        <time>2022-10-06T12:19:49Z</time>
      </trkpt>
      <trkpt lat="44.78321" lon="-0.12498">
        <ele>45.1</ele>
        <time>2022-10-06T12:19:50Z</time>
      </trkpt>
      <trkpt lat="44.7832" lon="-0.12498">
        <ele>45.2</ele>
        <time>2022-10-06T12:19:51Z</time>
      </trkpt>
      <trkpt lat="44.78319" lon="-0.12499">
        <ele>45.3</ele>
        <time>2022-10-06T12:19:52Z</time>
      </trkpt>
      <trkpt lat="44.78317" lon="-0.125">
        <ele>45.4</ele>
        <time>2022-10-06T12:19:53Z</time>
      </trkpt>
      <trkpt lat="44.78316" lon="-0.125">
        <ele>45.4</ele>
        <time>2022-10-06T12:19:54Z</time>
      </trkpt>
      <trkpt lat="44.78316" lon="-0.125">
        <ele>45.5</ele>
        <time>2022-10-06T12:19:55Z</time>
      </trkpt>
      <trkpt lat="44.78314" lon="-0.12502">
        <ele>45.6</ele>
        <time>2022-10-06T12:19:56Z</time>
      </trkpt>
      <trkpt lat="44.78313" lon="-0.12502">
        <ele>45.6</ele>
        <time>2022-10-06T12:19:57Z</time>
      </trkpt>
      <trkpt lat="44.78312" lon="-0.12503">
        <ele>45.7</ele>
        <time>2022-10-06T12:19:58Z</time>
      </trkpt>
      <trkpt lat="44.78311" lon="-0.12504">
        <ele>45.8</ele>
        <time>2022-10-06T12:19:59Z</time>
      </trkpt>
      <trkpt lat="44.7831" lon="-0.12505">
        <ele>45.8</ele>
        <time>2022-10-06T12:20:00Z</time>
      </trkpt>
      <trkpt lat="44.78309" lon="-0.12505">
        <ele>45.9</ele>
        <time>2022-10-06T12:20:01Z</time>
      </trkpt>
      <trkpt lat="44.78308" lon="-0.12506">
        <ele>46</ele>
        <time>2022-10-06T12:20:02Z</time>
      </trkpt>
      <trkpt lat="44.78306" lon="-0.12506">
        <ele>46</ele>
        <time>2022-10-06T12:20:03Z</time>
      </trkpt>
      <trkpt lat="44.78304" lon="-0.12508">
        <ele>46.2</ele>
        <time>2022-10-06T12:20:04Z</time>
      </trkpt>
      <trkpt lat="44.78304" lon="-0.12508">
        <ele>46.2</ele>
        <time>2022-10-06T12:20:05Z</time>
      </trkpt>
      <trkpt lat="44.78302" lon="-0.12509">
        <ele>46.3</ele>
        <time>2022-10-06T12:20:06Z</time>
      </trkpt>
      <trkpt lat="44.78301" lon="-0.1251">
        <ele>46.3</ele>
        <time>2022-10-06T12:20:07Z</time>
      </trkpt>
      <trkpt lat="44.783" lon="-0.1251">
        <ele>46.4</ele>
        <time>2022-10-06T12:20:08Z</time>
      </trkpt>
      <trkpt lat="44.78298" lon="-0.12511">
        <ele>46.5</ele>
        <time>2022-10-06T12:20:09Z</time>
      </trkpt>
      <trkpt lat="44.78297" lon="-0.12511">
        <ele>46.6</ele>
        <time>2022-10-06T12:20:10Z</time>
      </trkpt>
      <trkpt lat="44.78296" lon="-0.12511">
        <ele>46.6</ele>
        <time>2022-10-06T12:20:11Z</time>
      </trkpt>
      <trkpt lat="44.78295" lon="-0.12512">
        <ele>46.7</ele>
        <time>2022-10-06T12:20:12Z</time>
      </trkpt>
      <trkpt lat="44.78294" lon="-0.12513">
        <ele>46.7</ele>
        <time>2022-10-06T12:20:13Z</time>
      </trkpt>
      <trkpt lat="44.78292" lon="-0.12514">
        <ele>46.8</ele>
        <time>2022-10-06T12:20:14Z</time>
      </trkpt>
      <trkpt lat="44.78291" lon="-0.12515">
        <ele>46.9</ele>
        <time>2022-10-06T12:20:15Z</time>
      </trkpt>
      <trkpt lat="44.7829" lon="-0.12516">
        <ele>47</ele>
        <time>2022-10-06T12:20:16Z</time>
      </trkpt>
      <trkpt lat="44.78289" lon="-0.12517">
        <ele>47.1</ele>
        <time>2022-10-06T12:20:17Z</time>
      </trkpt>
      <trkpt lat="44.78287" lon="-0.12519">
        <ele>47.2</ele>
        <time>2022-10-06T12:20:18Z</time>
      </trkpt>
      <trkpt lat="44.78286" lon="-0.12519">
        <ele>47.3</ele>
        <time>2022-10-06T12:20:19Z</time>
      </trkpt>
      <trkpt lat="44.78285" lon="-0.1252">
        <ele>47.3</ele>
        <time>2022-10-06T12:20:20Z</time>
      </trkpt>
      <trkpt lat="44.78284" lon="-0.1252">
        <ele>47.4</ele>
        <time>2022-10-06T12:20:21Z</time>
      </trkpt>
      <trkpt lat="44.78283" lon="-0.12521">
        <ele>47.4</ele>
        <time>2022-10-06T12:20:22Z</time>
      </trkpt>
      <trkpt lat="44.78282" lon="-0.12521">
        <ele>47.5</ele>
        <time>2022-10-06T12:20:23Z</time>
      </trkpt>
      <trkpt lat="44.78279" lon="-0.12523">
        <ele>47.7</ele>
        <time>2022-10-06T12:20:24Z</time>
      </trkpt>
      <trkpt lat="44.78277" lon="-0.12524">
        <ele>47.8</ele>
        <time>2022-10-06T12:20:25Z</time>
      </trkpt>
      <trkpt lat="44.78276" lon="-0.12524">
        <ele>47.8</ele>
        <time>2022-10-06T12:20:26Z</time>
      </trkpt>
      <trkpt lat="44.78275" lon="-0.12524">
        <ele>47.9</ele>
        <time>2022-10-06T12:20:27Z</time>
      </trkpt>
      <trkpt lat="44.78274" lon="-0.12525">
        <ele>47.9</ele>
        <time>2022-10-06T12:20:28Z</time>
      </trkpt>
      <trkpt lat="44.78273" lon="-0.12525">
        <ele>48</ele>
        <time>2022-10-06T12:20:29Z</time>
      </trkpt>
      <trkpt lat="44.78272" lon="-0.12526">
        <ele>48</ele>
        <time>2022-10-06T12:20:30Z</time>
      </trkpt>
      <trkpt lat="44.78271" lon="-0.12526">
        <ele>48.1</ele>
        <time>2022-10-06T12:20:31Z</time>
      </trkpt>
      <trkpt lat="44.78271" lon="-0.12527">
        <ele>48.1</ele>
        <time>2022-10-06T12:20:32Z</time>
      </trkpt>
      <trkpt lat="44.78269" lon="-0.12527">
        <ele>48.2</ele>
        <time>2022-10-06T12:20:33Z</time>
      </trkpt>
      <trkpt lat="44.78268" lon="-0.12528">
        <ele>48.3</ele>
        <time>2022-10-06T12:20:34Z</time>
      </trkpt>
      <trkpt lat="44.78267" lon="-0.12529">
        <ele>48.4</ele>
        <time>2022-10-06T12:20:35Z</time>
      </trkpt>
      <trkpt lat="44.78266" lon="-0.1253">
        <ele>48.4</ele>
        <time>2022-10-06T12:20:36Z</time>
      </trkpt>
      <trkpt lat="44.78265" lon="-0.1253">
        <ele>48.5</ele>
        <time>2022-10-06T12:20:37Z</time>
      </trkpt>
      <trkpt lat="44.78264" lon="-0.12531">
        <ele>48.6</ele>
        <time>2022-10-06T12:20:38Z</time>
      </trkpt>
      <trkpt lat="44.78263" lon="-0.12531">
        <ele>48.6</ele>
        <time>2022-10-06T12:20:39Z</time>
      </trkpt>
      <trkpt lat="44.78261" lon="-0.12532">
        <ele>48.7</ele>
        <time>2022-10-06T12:20:40Z</time>
      </trkpt>
      <trkpt lat="44.7826" lon="-0.12533">
        <ele>48.8</ele>
        <time>2022-10-06T12:20:41Z</time>
      </trkpt>
      <trkpt lat="44.78259" lon="-0.12534">
        <ele>48.8</ele>
        <time>2022-10-06T12:20:42Z</time>
      </trkpt>
      <trkpt lat="44.78258" lon="-0.12534">
        <ele>48.9</ele>
        <time>2022-10-06T12:20:43Z</time>
      </trkpt>
      <trkpt lat="44.78256" lon="-0.12536">
        <ele>49</ele>
        <time>2022-10-06T12:20:44Z</time>
      </trkpt>
      <trkpt lat="44.78255" lon="-0.12537">
        <ele>49.1</ele>
        <time>2022-10-06T12:20:45Z</time>
      </trkpt>
      <trkpt lat="44.78254" lon="-0.12537">
        <ele>49.2</ele>
        <time>2022-10-06T12:20:46Z</time>
      </trkpt>
      <trkpt lat="44.78253" lon="-0.12538">
        <ele>49.2</ele>
        <time>2022-10-06T12:20:47Z</time>
      </trkpt>
      <trkpt lat="44.78252" lon="-0.12538">
        <ele>49.3</ele>
        <time>2022-10-06T12:20:48Z</time>
      </trkpt>
      <trkpt lat="44.78252" lon="-0.12538">
        <ele>49.3</ele>
        <time>2022-10-06T12:20:49Z</time>
      </trkpt>
      <trkpt lat="44.78251" lon="-0.12539">
        <ele>49.4</ele>
        <time>2022-10-06T12:20:50Z</time>
      </trkpt>
      <trkpt lat="44.78249" lon="-0.1254">
        <ele>49.5</ele>
        <time>2022-10-06T12:20:51Z</time>
      </trkpt>
      <trkpt lat="44.78248" lon="-0.1254">
        <ele>49.5</ele>
        <time>2022-10-06T12:20:52Z</time>
      </trkpt>
      <trkpt lat="44.78247" lon="-0.12541">
        <ele>49.6</ele>
        <time>2022-10-06T12:20:53Z</time>
      </trkpt>
      <trkpt lat="44.78246" lon="-0.12541">
        <ele>49.7</ele>
        <time>2022-10-06T12:20:54Z</time>
      </trkpt>
      <trkpt lat="44.78245" lon="-0.12542">
        <ele>49.7</ele>
        <time>2022-10-06T12:20:55Z</time>
      </trkpt>
      <trkpt lat="44.78243" lon="-0.12543">
        <ele>49.8</ele>
        <time>2022-10-06T12:20:56Z</time>
      </trkpt>
      <trkpt lat="44.78242" lon="-0.12543">
        <ele>49.9</ele>
        <time>2022-10-06T12:20:57Z</time>
      </trkpt>
      <trkpt lat="44.78242" lon="-0.12544">
        <ele>50</ele>
        <time>2022-10-06T12:20:58Z</time>
      </trkpt>
      <trkpt lat="44.78241" lon="-0.12545">
        <ele>50</ele>
        <time>2022-10-06T12:20:59Z</time>
      </trkpt>
      <trkpt lat="44.78239" lon="-0.12547">
        <ele>50.2</ele>
        <time>2022-10-06T12:21:00Z</time>
      </trkpt>
      <trkpt lat="44.78238" lon="-0.12547">
        <ele>50.2</ele>
        <time>2022-10-06T12:21:01Z</time>
      </trkpt>
      <trkpt lat="44.78237" lon="-0.12548">
        <ele>50.3</ele>
        <time>2022-10-06T12:21:02Z</time>
      </trkpt>
      <trkpt lat="44.78235" lon="-0.12549">
        <ele>50.4</ele>
        <time>2022-10-06T12:21:03Z</time>
      </trkpt>
      <trkpt lat="44.78234" lon="-0.12549">
        <ele>50.4</ele>
        <time>2022-10-06T12:21:04Z</time>
      </trkpt>
      <trkpt lat="44.78233" lon="-0.1255">
        <ele>50.5</ele>
        <time>2022-10-06T12:21:05Z</time>
      </trkpt>
      <trkpt lat="44.78231" lon="-0.12551">
        <ele>50.6</ele>
        <time>2022-10-06T12:21:06Z</time>
      </trkpt>
      <trkpt lat="44.7823" lon="-0.12551">
        <ele>50.7</ele>
        <time>2022-10-06T12:21:07Z</time>
      </trkpt>
      <trkpt lat="44.7823" lon="-0.12552">
        <ele>50.7</ele>
        <time>2022-10-06T12:21:08Z</time>
      </trkpt>
      <trkpt lat="44.78229" lon="-0.12553">
        <ele>50.8</ele>
        <time>2022-10-06T12:21:09Z</time>
      </trkpt>
      <trkpt lat="44.78227" lon="-0.12553">
        <ele>50.9</ele>
        <time>2022-10-06T12:21:10Z</time>
      </trkpt>
      <trkpt lat="44.78225" lon="-0.12554">
        <ele>51</ele>
        <time>2022-10-06T12:21:11Z</time>
      </trkpt>
      <trkpt lat="44.78225" lon="-0.12554">
        <ele>51</ele>
        <time>2022-10-06T12:21:12Z</time>
      </trkpt>
      <trkpt lat="44.78223" lon="-0.12555">
        <ele>51.1</ele>
        <time>2022-10-06T12:21:13Z</time>
      </trkpt>
      <trkpt lat="44.78222" lon="-0.12555">
        <ele>51.2</ele>
        <time>2022-10-06T12:21:14Z</time>
      </trkpt>
      <trkpt lat="44.78221" lon="-0.12556">
        <ele>51.2</ele>
        <time>2022-10-06T12:21:15Z</time>
      </trkpt>
      <trkpt lat="44.78219" lon="-0.12556">
        <ele>51.3</ele>
        <time>2022-10-06T12:21:16Z</time>
      </trkpt>
      <trkpt lat="44.78218" lon="-0.12556">
        <ele>51.4</ele>
        <time>2022-10-06T12:21:17Z</time>
      </trkpt>
      <trkpt lat="44.78217" lon="-0.12556">
        <ele>51.5</ele>
        <time>2022-10-06T12:21:18Z</time>
      </trkpt>
      <trkpt lat="44.78216" lon="-0.12556">
        <ele>51.5</ele>
        <time>2022-10-06T12:21:19Z</time>
      </trkpt>
      <trkpt lat="44.78215" lon="-0.12557">
        <ele>51.6</ele>
        <time>2022-10-06T12:21:20Z</time>
      </trkpt>
      <trkpt lat="44.78213" lon="-0.12557">
        <ele>51.7</ele>
        <time>2022-10-06T12:21:21Z</time>
      </trkpt>
      <trkpt lat="44.78212" lon="-0.12557">
        <ele>51.8</ele>
        <time>2022-10-06T12:21:22Z</time>
      </trkpt>
      <trkpt lat="44.78211" lon="-0.12558">
        <ele>51.8</ele>
        <time>2022-10-06T12:21:23Z</time>
      </trkpt>
      <trkpt lat="44.7821" lon="-0.12558">
        <ele>51.9</ele>
        <time>2022-10-06T12:21:24Z</time>
      </trkpt>
      <trkpt lat="44.78209" lon="-0.12558">
        <ele>52</ele>
        <time>2022-10-06T12:21:25Z</time>
      </trkpt>
      <trkpt lat="44.78207" lon="-0.12559">
        <ele>52</ele>
        <time>2022-10-06T12:21:26Z</time>
      </trkpt>
      <trkpt lat="44.78206" lon="-0.12559">
        <ele>52.1</ele>
        <time>2022-10-06T12:21:27Z</time>
      </trkpt>
      <trkpt lat="44.78205" lon="-0.12559">
        <ele>52.2</ele>
        <time>2022-10-06T12:21:28Z</time>
      </trkpt>
      <trkpt lat="44.78203" lon="-0.12559">
        <ele>52.3</ele>
        <time>2022-10-06T12:21:29Z</time>
      </trkpt>
      <trkpt lat="44.78202" lon="-0.12559">
        <ele>52.3</ele>
        <time>2022-10-06T12:21:30Z</time>
      </trkpt>
      <trkpt lat="44.78201" lon="-0.12559">
        <ele>52.4</ele>
        <time>2022-10-06T12:21:31Z</time>
      </trkpt>
      <trkpt lat="44.782" lon="-0.1256">
        <ele>52.5</ele>
        <time>2022-10-06T12:21:32Z</time>
      </trkpt>
      <trkpt lat="44.78199" lon="-0.1256">
        <ele>52.5</ele>
        <time>2022-10-06T12:21:33Z</time>
      </trkpt>
      <trkpt lat="44.78198" lon="-0.1256">
        <ele>52.6</ele>
        <time>2022-10-06T12:21:34Z</time>
      </trkpt>
      <trkpt lat="44.78196" lon="-0.12561">
        <ele>52.7</ele>
        <time>2022-10-06T12:21:35Z</time>
      </trkpt>
      <trkpt lat="44.78195" lon="-0.12561">
        <ele>52.7</ele>
        <time>2022-10-06T12:21:36Z</time>
      </trkpt>
      <trkpt lat="44.78194" lon="-0.12561">
        <ele>52.8</ele>
        <time>2022-10-06T12:21:37Z</time>
      </trkpt>
      <trkpt lat="44.78192" lon="-0.12561">
        <ele>52.9</ele>
        <time>2022-10-06T12:21:38Z</time>
      </trkpt>
      <trkpt lat="44.78191" lon="-0.12562">
        <ele>52.9</ele>
        <time>2022-10-06T12:21:39Z</time>
      </trkpt>
      <trkpt lat="44.7819" lon="-0.12562">
        <ele>53</ele>
        <time>2022-10-06T12:21:40Z</time>
      </trkpt>
      <trkpt lat="44.78189" lon="-0.12562">
        <ele>53.1</ele>
        <time>2022-10-06T12:21:41Z</time>
      </trkpt>
      <trkpt lat="44.78188" lon="-0.12562">
        <ele>53.1</ele>
        <time>2022-10-06T12:21:42Z</time>
      </trkpt>
      <trkpt lat="44.78186" lon="-0.12562">
        <ele>53.2</ele>
        <time>2022-10-06T12:21:43Z</time>
      </trkpt>
      <trkpt lat="44.78185" lon="-0.12562">
        <ele>53.3</ele>
        <time>2022-10-06T12:21:44Z</time>
      </trkpt>
      <trkpt lat="44.78184" lon="-0.12562">
        <ele>53.3</ele>
        <time>2022-10-06T12:21:45Z</time>
      </trkpt>
      <trkpt lat="44.78182" lon="-0.12561">
        <ele>53.5</ele>
        <time>2022-10-06T12:21:46Z</time>
      </trkpt>
      <trkpt lat="44.78181" lon="-0.12561">
        <ele>53.5</ele>
        <time>2022-10-06T12:21:47Z</time>
      </trkpt>
      <trkpt lat="44.7818" lon="-0.12561">
        <ele>53.6</ele>
        <time>2022-10-06T12:21:48Z</time>
      </trkpt>
      <trkpt lat="44.78178" lon="-0.12561">
        <ele>53.7</ele>
        <time>2022-10-06T12:21:49Z</time>
      </trkpt>
      <trkpt lat="44.78177" lon="-0.12561">
        <ele>53.7</ele>
        <time>2022-10-06T12:21:50Z</time>
      </trkpt>
      <trkpt lat="44.78176" lon="-0.12561">
        <ele>53.8</ele>
        <time>2022-10-06T12:21:51Z</time>
      </trkpt>
      <trkpt lat="44.78174" lon="-0.12561">
        <ele>53.9</ele>
        <time>2022-10-06T12:21:52Z</time>
      </trkpt>
      <trkpt lat="44.78173" lon="-0.1256">
        <ele>54</ele>
        <time>2022-10-06T12:21:53Z</time>
      </trkpt>
      <trkpt lat="44.78172" lon="-0.1256">
        <ele>54</ele>
        <time>2022-10-06T12:21:54Z</time>
      </trkpt>
      <trkpt lat="44.78171" lon="-0.1256">
        <ele>54.1</ele>
        <time>2022-10-06T12:21:55Z</time>
      </trkpt>
      <trkpt lat="44.78169" lon="-0.1256">
        <ele>54.2</ele>
        <time>2022-10-06T12:21:56Z</time>
      </trkpt>
      <trkpt lat="44.78168" lon="-0.1256">
        <ele>54.2</ele>
        <time>2022-10-06T12:21:57Z</time>
      </trkpt>
      <trkpt lat="44.78167" lon="-0.1256">
        <ele>54.3</ele>
        <time>2022-10-06T12:21:58Z</time>
      </trkpt>
      <trkpt lat="44.78166" lon="-0.1256">
        <ele>54.4</ele>
        <time>2022-10-06T12:21:59Z</time>
      </trkpt>
      <trkpt lat="44.78164" lon="-0.12559">
        <ele>54.5</ele>
        <time>2022-10-06T12:22:00Z</time>
      </trkpt>
      <trkpt lat="44.78163" lon="-0.12558">
        <ele>54.6</ele>
        <time>2022-10-06T12:22:01Z</time>
      </trkpt>
      <trkpt lat="44.78162" lon="-0.12558">
        <ele>54.6</ele>
        <time>2022-10-06T12:22:02Z</time>
      </trkpt>
      <trkpt lat="44.78161" lon="-0.12558">
        <ele>54.7</ele>
        <time>2022-10-06T12:22:03Z</time>
      </trkpt>
      <trkpt lat="44.78159" lon="-0.12558">
        <ele>54.8</ele>
        <time>2022-10-06T12:22:04Z</time>
      </trkpt>
      <trkpt lat="44.78158" lon="-0.12557">
        <ele>54.8</ele>
        <time>2022-10-06T12:22:05Z</time>
      </trkpt>
      <trkpt lat="44.78156" lon="-0.12557">
        <ele>54.9</ele>
        <time>2022-10-06T12:22:06Z</time>
      </trkpt>
      <trkpt lat="44.78155" lon="-0.12557">
        <ele>55</ele>
        <time>2022-10-06T12:22:07Z</time>
      </trkpt>
      <trkpt lat="44.78154" lon="-0.12557">
        <ele>55.1</ele>
        <time>2022-10-06T12:22:08Z</time>
      </trkpt>
      <trkpt lat="44.78153" lon="-0.12556">
        <ele>55.1</ele>
        <time>2022-10-06T12:22:09Z</time>
      </trkpt>
      <trkpt lat="44.78151" lon="-0.12556">
        <ele>55.2</ele>
        <time>2022-10-06T12:22:10Z</time>
      </trkpt>
      <trkpt lat="44.7815" lon="-0.12556">
        <ele>55.3</ele>
        <time>2022-10-06T12:22:11Z</time>
      </trkpt>
      <trkpt lat="44.78149" lon="-0.12556">
        <ele>55.4</ele>
        <time>2022-10-06T12:22:12Z</time>
      </trkpt>
      <trkpt lat="44.78148" lon="-0.12555">
        <ele>55.4</ele>
        <time>2022-10-06T12:22:13Z</time>
      </trkpt>
      <trkpt lat="44.78147" lon="-0.12555">
        <ele>55.5</ele>
        <time>2022-10-06T12:22:14Z</time>
      </trkpt>
      <trkpt lat="44.78145" lon="-0.12554">
        <ele>55.6</ele>
        <time>2022-10-06T12:22:15Z</time>
      </trkpt>
      <trkpt lat="44.78144" lon="-0.12553">
        <ele>55.7</ele>
        <time>2022-10-06T12:22:16Z</time>
      </trkpt>
      <trkpt lat="44.78143" lon="-0.12552">
        <ele>55.7</ele>
        <time>2022-10-06T12:22:17Z</time>
      </trkpt>
      <trkpt lat="44.78142" lon="-0.12551">
        <ele>55.8</ele>
        <time>2022-10-06T12:22:18Z</time>
      </trkpt>
      <trkpt lat="44.7814" lon="-0.1255">
        <ele>56</ele>
        <time>2022-10-06T12:22:19Z</time>
      </trkpt>
      <trkpt lat="44.78139" lon="-0.12549">
        <ele>56</ele>
        <time>2022-10-06T12:22:20Z</time>
      </trkpt>
      <trkpt lat="44.78138" lon="-0.12548">
        <ele>56.1</ele>
        <time>2022-10-06T12:22:21Z</time>
      </trkpt>
      <trkpt lat="44.78136" lon="-0.12547">
        <ele>56.2</ele>
        <time>2022-10-06T12:22:22Z</time>
      </trkpt>
      <trkpt lat="44.78136" lon="-0.12547">
        <ele>56.2</ele>
        <time>2022-10-06T12:22:23Z</time>
      </trkpt>
      <trkpt lat="44.78135" lon="-0.12546">
        <ele>56.3</ele>
        <time>2022-10-06T12:22:24Z</time>
      </trkpt>
      <trkpt lat="44.78134" lon="-0.12546">
        <ele>56.3</ele>
        <time>2022-10-06T12:22:25Z</time>
      </trkpt>
      <trkpt lat="44.78132" lon="-0.12544">
        <ele>56.4</ele>
        <time>2022-10-06T12:22:26Z</time>
      </trkpt>
      <trkpt lat="44.78131" lon="-0.12544">
        <ele>56.5</ele>
        <time>2022-10-06T12:22:27Z</time>
      </trkpt>
      <trkpt lat="44.7813" lon="-0.12543">
        <ele>56.6</ele>
        <time>2022-10-06T12:22:28Z</time>
      </trkpt>
      <trkpt lat="44.78129" lon="-0.12543">
        <ele>56.6</ele>
        <time>2022-10-06T12:22:29Z</time>
      </trkpt>
      <trkpt lat="44.78128" lon="-0.12541">
        <ele>56.7</ele>
        <time>2022-10-06T12:22:30Z</time>
      </trkpt>
      <trkpt lat="44.78127" lon="-0.1254">
        <ele>56.8</ele>
        <time>2022-10-06T12:22:31Z</time>
      </trkpt>
      <trkpt lat="44.78125" lon="-0.12538">
        <ele>56.9</ele>
        <time>2022-10-06T12:22:32Z</time>
      </trkpt>
      <trkpt lat="44.78124" lon="-0.12538">
        <ele>57</ele>
        <time>2022-10-06T12:22:33Z</time>
      </trkpt>
      <trkpt lat="44.78124" lon="-0.12537">
        <ele>57</ele>
        <time>2022-10-06T12:22:34Z</time>
      </trkpt>
      <trkpt lat="44.78123" lon="-0.12536">
        <ele>57.1</ele>
        <time>2022-10-06T12:22:35Z</time>
      </trkpt>
      <trkpt lat="44.78121" lon="-0.12534">
        <ele>57.2</ele>
        <time>2022-10-06T12:22:36Z</time>
      </trkpt>
      <trkpt lat="44.78121" lon="-0.12533">
        <ele>57.2</ele>
        <time>2022-10-06T12:22:37Z</time>
      </trkpt>
      <trkpt lat="44.7812" lon="-0.12532">
        <ele>57.3</ele>
        <time>2022-10-06T12:22:38Z</time>
      </trkpt>
      <trkpt lat="44.78119" lon="-0.12531">
        <ele>57.4</ele>
        <time>2022-10-06T12:22:39Z</time>
      </trkpt>
      <trkpt lat="44.78118" lon="-0.1253">
        <ele>57.4</ele>
        <time>2022-10-06T12:22:40Z</time>
      </trkpt>
      <trkpt lat="44.78117" lon="-0.12529">
        <ele>57.5</ele>
        <time>2022-10-06T12:22:41Z</time>
      </trkpt>
      <trkpt lat="44.78116" lon="-0.12528">
        <ele>57.6</ele>
        <time>2022-10-06T12:22:42Z</time>
      </trkpt>
      <trkpt lat="44.78115" lon="-0.12525">
        <ele>57.7</ele>
        <time>2022-10-06T12:22:43Z</time>
      </trkpt>
      <trkpt lat="44.78114" lon="-0.12524">
        <ele>57.8</ele>
        <time>2022-10-06T12:22:44Z</time>
      </trkpt>
      <trkpt lat="44.78113" lon="-0.12523">
        <ele>57.8</ele>
        <time>2022-10-06T12:22:45Z</time>
      </trkpt>
      <trkpt lat="44.78113" lon="-0.12522">
        <ele>57.9</ele>
        <time>2022-10-06T12:22:46Z</time>
      </trkpt>
      <trkpt lat="44.78112" lon="-0.12521">
        <ele>57.9</ele>
        <time>2022-10-06T12:22:47Z</time>
      </trkpt>
      <trkpt lat="44.7811" lon="-0.12519">
        <ele>58</ele>
        <time>2022-10-06T12:22:48Z</time>
      </trkpt>
      <trkpt lat="44.7811" lon="-0.12518">
        <ele>58.1</ele>
        <time>2022-10-06T12:22:49Z</time>
      </trkpt>
      <trkpt lat="44.78109" lon="-0.12517">
        <ele>58.1</ele>
        <time>2022-10-06T12:22:50Z</time>
      </trkpt>
      <trkpt lat="44.78108" lon="-0.12515">
        <ele>58.2</ele>
        <time>2022-10-06T12:22:51Z</time>
      </trkpt>
      <trkpt lat="44.78108" lon="-0.12514">
        <ele>58.3</ele>
        <time>2022-10-06T12:22:52Z</time>
      </trkpt>
      <trkpt lat="44.78107" lon="-0.12513">
        <ele>58.3</ele>
        <time>2022-10-06T12:22:53Z</time>
      </trkpt>
      <trkpt lat="44.78106" lon="-0.1251">
        <ele>58.4</ele>
        <time>2022-10-06T12:22:54Z</time>
      </trkpt>
      <trkpt lat="44.78106" lon="-0.12509">
        <ele>58.5</ele>
        <time>2022-10-06T12:22:55Z</time>
      </trkpt>
      <trkpt lat="44.78105" lon="-0.12508">
        <ele>58.5</ele>
        <time>2022-10-06T12:22:56Z</time>
      </trkpt>
      <trkpt lat="44.78104" lon="-0.12507">
        <ele>58.6</ele>
        <time>2022-10-06T12:22:57Z</time>
      </trkpt>
      <trkpt lat="44.78103" lon="-0.12505">
        <ele>58.7</ele>
        <time>2022-10-06T12:22:58Z</time>
      </trkpt>
      <trkpt lat="44.78102" lon="-0.12503">
        <ele>58.8</ele>
        <time>2022-10-06T12:22:59Z</time>
      </trkpt>
      <trkpt lat="44.78102" lon="-0.12502">
        <ele>58.8</ele>
        <time>2022-10-06T12:23:00Z</time>
      </trkpt>
      <trkpt lat="44.78101" lon="-0.12501">
        <ele>58.8</ele>
        <time>2022-10-06T12:23:01Z</time>
      </trkpt>
      <trkpt lat="44.78101" lon="-0.12501">
        <ele>58.9</ele>
        <time>2022-10-06T12:23:02Z</time>
      </trkpt>
      <trkpt lat="44.781" lon="-0.125">
        <ele>58.9</ele>
        <time>2022-10-06T12:23:03Z</time>
      </trkpt>
      <trkpt lat="44.78099" lon="-0.125">
        <ele>59</ele>
        <time>2022-10-06T12:23:04Z</time>
      </trkpt>
      <trkpt lat="44.78098" lon="-0.12501">
        <ele>59</ele>
        <time>2022-10-06T12:23:05Z</time>
      </trkpt>
      <trkpt lat="44.78097" lon="-0.12501">
        <ele>59.1</ele>
        <time>2022-10-06T12:23:06Z</time>
      </trkpt>
      <trkpt lat="44.78096" lon="-0.12501">
        <ele>59.1</ele>
        <time>2022-10-06T12:23:07Z</time>
      </trkpt>
      <trkpt lat="44.78095" lon="-0.125">
        <ele>59.2</ele>
        <time>2022-10-06T12:23:08Z</time>
      </trkpt>
      <trkpt lat="44.78094" lon="-0.12499">
        <ele>59.2</ele>
        <time>2022-10-06T12:23:09Z</time>
      </trkpt>
      <trkpt lat="44.78094" lon="-0.12499">
        <ele>59.3</ele>
        <time>2022-10-06T12:23:10Z</time>
      </trkpt>
      <trkpt lat="44.78094" lon="-0.12499">
        <ele>59.3</ele>
        <time>2022-10-06T12:23:11Z</time>
      </trkpt>
      <trkpt lat="44.78094" lon="-0.12499">
        <ele>59.3</ele>
        <time>2022-10-06T12:23:12Z</time>
      </trkpt>
      <trkpt lat="44.78093" lon="-0.12498">
        <ele>59.3</ele>
        <time>2022-10-06T12:23:13Z</time>
      </trkpt>
      <trkpt lat="44.78093" lon="-0.12498">
        <ele>59.3</ele>
        <time>2022-10-06T12:23:14Z</time>
      </trkpt>
      <trkpt lat="44.78092" lon="-0.12497">
        <ele>59.4</ele>
        <time>2022-10-06T12:23:15Z</time>
      </trkpt>
      <trkpt lat="44.78092" lon="-0.12496">
        <ele>59.4</ele>
        <time>2022-10-06T12:23:16Z</time>
      </trkpt>
      <trkpt lat="44.78091" lon="-0.12495">
        <ele>59.5</ele>
        <time>2022-10-06T12:23:17Z</time>
      </trkpt>
      <trkpt lat="44.78091" lon="-0.12494">
        <ele>59.5</ele>
        <time>2022-10-06T12:23:18Z</time>
      </trkpt>
      <trkpt lat="44.7809" lon="-0.12492">
        <ele>59.6</ele>
        <time>2022-10-06T12:23:19Z</time>
      </trkpt>
      <trkpt lat="44.7809" lon="-0.12491">
        <ele>59.6</ele>
        <time>2022-10-06T12:23:20Z</time>
      </trkpt>
      <trkpt lat="44.78089" lon="-0.12491">
        <ele>59.6</ele>
        <time>2022-10-06T12:23:21Z</time>
      </trkpt>
      <trkpt lat="44.78088" lon="-0.1249">
        <ele>59.7</ele>
        <time>2022-10-06T12:23:22Z</time>
      </trkpt>
      <trkpt lat="44.78088" lon="-0.1249">
        <ele>59.7</ele>
        <time>2022-10-06T12:23:23Z</time>
      </trkpt>
      <trkpt lat="44.78087" lon="-0.12489">
        <ele>59.8</ele>
        <time>2022-10-06T12:23:24Z</time>
      </trkpt>
      <trkpt lat="44.78087" lon="-0.1249">
        <ele>59.8</ele>
        <time>2022-10-06T12:23:25Z</time>
      </trkpt>
      <trkpt lat="44.78087" lon="-0.1249">
        <ele>59.8</ele>
        <time>2022-10-06T12:23:26Z</time>
      </trkpt>
      <trkpt lat="44.78087" lon="-0.1249">
        <ele>59.8</ele>
        <time>2022-10-06T12:23:27Z</time>
      </trkpt>
      <trkpt lat="44.78087" lon="-0.1249">
        <ele>59.8</ele>
        <time>2022-10-06T12:23:28Z</time>
      </trkpt>
      <trkpt lat="44.78087" lon="-0.1249">
        <ele>59.8</ele>
        <time>2022-10-06T12:23:29Z</time>
      </trkpt>
      <trkpt lat="44.78087" lon="-0.12489">
        <ele>59.9</ele>
        <time>2022-10-06T12:23:30Z</time>
      </trkpt>
      <trkpt lat="44.78087" lon="-0.12488">
        <ele>59.9</ele>
        <time>2022-10-06T12:23:31Z</time>
      </trkpt>
      <trkpt lat="44.78088" lon="-0.12487">
        <ele>60</ele>
        <time>2022-10-06T12:23:32Z</time>
      </trkpt>
      <trkpt lat="44.78088" lon="-0.12485">
        <ele>60</ele>
        <time>2022-10-06T12:23:33Z</time>
      </trkpt>
      <trkpt lat="44.78088" lon="-0.12483">
        <ele>60.1</ele>
        <time>2022-10-06T12:23:34Z</time>
      </trkpt>
      <trkpt lat="44.78088" lon="-0.12482">
        <ele>60.1</ele>
        <time>2022-10-06T12:23:35Z</time>
      </trkpt>
      <trkpt lat="44.78088" lon="-0.1248">
        <ele>60.2</ele>
        <time>2022-10-06T12:23:36Z</time>
      </trkpt>
      <trkpt lat="44.78087" lon="-0.12479">
        <ele>60.2</ele>
        <time>2022-10-06T12:23:37Z</time>
      </trkpt>
      <trkpt lat="44.78086" lon="-0.12478">
        <ele>60.3</ele>
        <time>2022-10-06T12:23:38Z</time>
      </trkpt>
      <trkpt lat="44.78085" lon="-0.12477">
        <ele>60.4</ele>
        <time>2022-10-06T12:23:39Z</time>
      </trkpt>
      <trkpt lat="44.78085" lon="-0.12477">
        <ele>60.4</ele>
        <time>2022-10-06T12:23:40Z</time>
      </trkpt>
      <trkpt lat="44.78084" lon="-0.12476">
        <ele>60.4</ele>
        <time>2022-10-06T12:23:41Z</time>
      </trkpt>
      <trkpt lat="44.78084" lon="-0.12475">
        <ele>60.5</ele>
        <time>2022-10-06T12:23:42Z</time>
      </trkpt>
      <trkpt lat="44.78083" lon="-0.12474">
        <ele>60.5</ele>
        <time>2022-10-06T12:23:43Z</time>
      </trkpt>
      <trkpt lat="44.78082" lon="-0.12473">
        <ele>60.6</ele>
        <time>2022-10-06T12:23:44Z</time>
      </trkpt>
      <trkpt lat="44.78081" lon="-0.12472">
        <ele>60.6</ele>
        <time>2022-10-06T12:23:45Z</time>
      </trkpt>
      <trkpt lat="44.78081" lon="-0.12472">
        <ele>60.7</ele>
        <time>2022-10-06T12:23:46Z</time>
      </trkpt>
      <trkpt lat="44.7808" lon="-0.12471">
        <ele>60.7</ele>
        <time>2022-10-06T12:23:47Z</time>
      </trkpt>
      <trkpt lat="44.78079" lon="-0.1247">
        <ele>60.8</ele>
        <time>2022-10-06T12:23:48Z</time>
      </trkpt>
      <trkpt lat="44.78078" lon="-0.12469">
        <ele>60.8</ele>
        <time>2022-10-06T12:23:49Z</time>
      </trkpt>
      <trkpt lat="44.78078" lon="-0.12469">
        <ele>60.9</ele>
        <time>2022-10-06T12:23:50Z</time>
      </trkpt>
      <trkpt lat="44.78077" lon="-0.12468">
        <ele>60.9</ele>
        <time>2022-10-06T12:23:51Z</time>
      </trkpt>
      <trkpt lat="44.78076" lon="-0.12467">
        <ele>60.9</ele>
        <time>2022-10-06T12:23:52Z</time>
      </trkpt>
      <trkpt lat="44.78076" lon="-0.12467">
        <ele>61</ele>
        <time>2022-10-06T12:23:53Z</time>
      </trkpt>
      <trkpt lat="44.78075" lon="-0.12467">
        <ele>61</ele>
        <time>2022-10-06T12:23:54Z</time>
      </trkpt>
      <trkpt lat="44.78074" lon="-0.12467">
        <ele>61.1</ele>
        <time>2022-10-06T12:23:55Z</time>
      </trkpt>
      <trkpt lat="44.78073" lon="-0.12468">
        <ele>61.1</ele>
        <time>2022-10-06T12:23:56Z</time>
      </trkpt>
      <trkpt lat="44.78073" lon="-0.12468">
        <ele>61.1</ele>
        <time>2022-10-06T12:23:57Z</time>
      </trkpt>
      <trkpt lat="44.78072" lon="-0.12469">
        <ele>61.2</ele>
        <time>2022-10-06T12:23:58Z</time>
      </trkpt>
      <trkpt lat="44.78072" lon="-0.12469">
        <ele>61.2</ele>
        <time>2022-10-06T12:23:59Z</time>
      </trkpt>
      <trkpt lat="44.78072" lon="-0.12469">
        <ele>61.2</ele>
        <time>2022-10-06T12:24:00Z</time>
      </trkpt>
      <trkpt lat="44.78073" lon="-0.12469">
        <ele>61.2</ele>
        <time>2022-10-06T12:24:01Z</time>
      </trkpt>
      <trkpt lat="44.78073" lon="-0.12469">
        <ele>61.2</ele>
        <time>2022-10-06T12:24:02Z</time>
      </trkpt>
      <trkpt lat="44.78073" lon="-0.12468">
        <ele>61.3</ele>
        <time>2022-10-06T12:24:03Z</time>
      </trkpt>
      <trkpt lat="44.78073" lon="-0.12467">
        <ele>61.3</ele>
        <time>2022-10-06T12:24:04Z</time>
      </trkpt>
      <trkpt lat="44.78073" lon="-0.12466">
        <ele>61.4</ele>
        <time>2022-10-06T12:24:05Z</time>
      </trkpt>
      <trkpt lat="44.78072" lon="-0.12465">
        <ele>61.4</ele>
        <time>2022-10-06T12:24:06Z</time>
      </trkpt>
      <trkpt lat="44.78072" lon="-0.12464">
        <ele>61.4</ele>
        <time>2022-10-06T12:24:07Z</time>
      </trkpt>
      <trkpt lat="44.78071" lon="-0.12462">
        <ele>61.5</ele>
        <time>2022-10-06T12:24:08Z</time>
      </trkpt>
      <trkpt lat="44.78071" lon="-0.12461">
        <ele>61.5</ele>
        <time>2022-10-06T12:24:09Z</time>
      </trkpt>
      <trkpt lat="44.78071" lon="-0.12459">
        <ele>61.5</ele>
        <time>2022-10-06T12:24:10Z</time>
      </trkpt>
      <trkpt lat="44.78071" lon="-0.12458">
        <ele>61.6</ele>
        <time>2022-10-06T12:24:11Z</time>
      </trkpt>
      <trkpt lat="44.7807" lon="-0.12457">
        <ele>61.6</ele>
        <time>2022-10-06T12:24:12Z</time>
      </trkpt>
      <trkpt lat="44.7807" lon="-0.12456">
        <ele>61.6</ele>
        <time>2022-10-06T12:24:13Z</time>
      </trkpt>
      <trkpt lat="44.78069" lon="-0.12454">
        <ele>61.7</ele>
        <time>2022-10-06T12:24:14Z</time>
      </trkpt>
      <trkpt lat="44.78069" lon="-0.12453">
        <ele>61.7</ele>
        <time>2022-10-06T12:24:15Z</time>
      </trkpt>
      <trkpt lat="44.78068" lon="-0.12452">
        <ele>61.7</ele>
        <time>2022-10-06T12:24:16Z</time>
      </trkpt>
      <trkpt lat="44.78068" lon="-0.1245">
        <ele>61.8</ele>
        <time>2022-10-06T12:24:17Z</time>
      </trkpt>
      <trkpt lat="44.78068" lon="-0.12449">
        <ele>61.8</ele>
        <time>2022-10-06T12:24:18Z</time>
      </trkpt>
      <trkpt lat="44.78068" lon="-0.12448">
        <ele>61.8</ele>
        <time>2022-10-06T12:24:19Z</time>
      </trkpt>
      <trkpt lat="44.78067" lon="-0.12446">
        <ele>61.9</ele>
        <time>2022-10-06T12:24:20Z</time>
      </trkpt>
      <trkpt lat="44.78067" lon="-0.12444">
        <ele>61.9</ele>
        <time>2022-10-06T12:24:21Z</time>
      </trkpt>
      <trkpt lat="44.78067" lon="-0.12443">
        <ele>62</ele>
        <time>2022-10-06T12:24:22Z</time>
      </trkpt>
      <trkpt lat="44.78066" lon="-0.1244">
        <ele>62</ele>
        <time>2022-10-06T12:24:23Z</time>
      </trkpt>
      <trkpt lat="44.78066" lon="-0.12438">
        <ele>62.1</ele>
        <time>2022-10-06T12:24:24Z</time>
      </trkpt>
      <trkpt lat="44.78065" lon="-0.12437">
        <ele>62.1</ele>
        <time>2022-10-06T12:24:25Z</time>
      </trkpt>
      <trkpt lat="44.78065" lon="-0.12436">
        <ele>62.1</ele>
        <time>2022-10-06T12:24:26Z</time>
      </trkpt>
      <trkpt lat="44.78065" lon="-0.12435">
        <ele>62.1</ele>
        <time>2022-10-06T12:24:27Z</time>
      </trkpt>
      <trkpt lat="44.78065" lon="-0.12433">
        <ele>62.2</ele>
        <time>2022-10-06T12:24:28Z</time>
      </trkpt>
      <trkpt lat="44.78064" lon="-0.12432">
        <ele>62.2</ele>
        <time>2022-10-06T12:24:29Z</time>
      </trkpt>
      <trkpt lat="44.78063" lon="-0.12431">
        <ele>62.2</ele>
        <time>2022-10-06T12:24:30Z</time>
      </trkpt>
      <trkpt lat="44.78063" lon="-0.1243">
        <ele>62.3</ele>
        <time>2022-10-06T12:24:31Z</time>
      </trkpt>
      <trkpt lat="44.78061" lon="-0.12428">
        <ele>62.4</ele>
        <time>2022-10-06T12:24:32Z</time>
      </trkpt>
      <trkpt lat="44.78061" lon="-0.12427">
        <ele>62.4</ele>
        <time>2022-10-06T12:24:33Z</time>
      </trkpt>
      <trkpt lat="44.7806" lon="-0.12426">
        <ele>62.4</ele>
        <time>2022-10-06T12:24:34Z</time>
      </trkpt>
      <trkpt lat="44.78059" lon="-0.12424">
        <ele>62.5</ele>
        <time>2022-10-06T12:24:35Z</time>
      </trkpt>
      <trkpt lat="44.78058" lon="-0.12423">
        <ele>62.5</ele>
        <time>2022-10-06T12:24:36Z</time>
      </trkpt>
      <trkpt lat="44.78057" lon="-0.12421">
        <ele>62.6</ele>
        <time>2022-10-06T12:24:37Z</time>
      </trkpt>
      <trkpt lat="44.78057" lon="-0.12419">
        <ele>62.6</ele>
        <time>2022-10-06T12:24:38Z</time>
      </trkpt>
      <trkpt lat="44.78056" lon="-0.12418">
        <ele>62.7</ele>
        <time>2022-10-06T12:24:39Z</time>
      </trkpt>
      <trkpt lat="44.78055" lon="-0.12416">
        <ele>62.7</ele>
        <time>2022-10-06T12:24:40Z</time>
      </trkpt>
      <trkpt lat="44.78054" lon="-0.12415">
        <ele>62.8</ele>
        <time>2022-10-06T12:24:41Z</time>
      </trkpt>
      <trkpt lat="44.78054" lon="-0.12413">
        <ele>62.8</ele>
        <time>2022-10-06T12:24:42Z</time>
      </trkpt>
      <trkpt lat="44.78053" lon="-0.12412">
        <ele>62.8</ele>
        <time>2022-10-06T12:24:43Z</time>
      </trkpt>
      <trkpt lat="44.78052" lon="-0.12411">
        <ele>62.9</ele>
        <time>2022-10-06T12:24:44Z</time>
      </trkpt>
      <trkpt lat="44.78051" lon="-0.1241">
        <ele>62.9</ele>
        <time>2022-10-06T12:24:45Z</time>
      </trkpt>
      <trkpt lat="44.7805" lon="-0.1241">
        <ele>62.9</ele>
        <time>2022-10-06T12:24:46Z</time>
      </trkpt>
      <trkpt lat="44.78048" lon="-0.12409">
        <ele>63</ele>
        <time>2022-10-06T12:24:47Z</time>
      </trkpt>
      <trkpt lat="44.78046" lon="-0.12409">
        <ele>63</ele>
        <time>2022-10-06T12:24:48Z</time>
      </trkpt>
      <trkpt lat="44.78045" lon="-0.12409">
        <ele>63.1</ele>
        <time>2022-10-06T12:24:49Z</time>
      </trkpt>
      <trkpt lat="44.78043" lon="-0.12409">
        <ele>63.1</ele>
        <time>2022-10-06T12:24:50Z</time>
      </trkpt>
      <trkpt lat="44.78042" lon="-0.12409">
        <ele>63.1</ele>
        <time>2022-10-06T12:24:51Z</time>
      </trkpt>
      <trkpt lat="44.78041" lon="-0.12409">
        <ele>63.2</ele>
        <time>2022-10-06T12:24:52Z</time>
      </trkpt>
      <trkpt lat="44.7804" lon="-0.12409">
        <ele>63.2</ele>
        <time>2022-10-06T12:24:53Z</time>
      </trkpt>
      <trkpt lat="44.78039" lon="-0.12409">
        <ele>63.2</ele>
        <time>2022-10-06T12:24:54Z</time>
      </trkpt>
      <trkpt lat="44.78037" lon="-0.12409">
        <ele>63.3</ele>
        <time>2022-10-06T12:24:55Z</time>
      </trkpt>
      <trkpt lat="44.78036" lon="-0.12409">
        <ele>63.3</ele>
        <time>2022-10-06T12:24:56Z</time>
      </trkpt>
      <trkpt lat="44.78035" lon="-0.12408">
        <ele>63.3</ele>
        <time>2022-10-06T12:24:57Z</time>
      </trkpt>
      <trkpt lat="44.78034" lon="-0.12408">
        <ele>63.3</ele>
        <time>2022-10-06T12:24:58Z</time>
      </trkpt>
      <trkpt lat="44.78033" lon="-0.12408">
        <ele>63.4</ele>
        <time>2022-10-06T12:24:59Z</time>
      </trkpt>
      <trkpt lat="44.78031" lon="-0.12408">
        <ele>63.4</ele>
        <time>2022-10-06T12:25:00Z</time>
      </trkpt>
      <trkpt lat="44.7803" lon="-0.12408">
        <ele>63.5</ele>
        <time>2022-10-06T12:25:01Z</time>
      </trkpt>
      <trkpt lat="44.78029" lon="-0.12409">
        <ele>63.5</ele>
        <time>2022-10-06T12:25:02Z</time>
      </trkpt>
      <trkpt lat="44.78028" lon="-0.12409">
        <ele>63.5</ele>
        <time>2022-10-06T12:25:03Z</time>
      </trkpt>
      <trkpt lat="44.78027" lon="-0.12409">
        <ele>63.5</ele>
        <time>2022-10-06T12:25:04Z</time>
      </trkpt>
      <trkpt lat="44.78025" lon="-0.12409">
        <ele>63.6</ele>
        <time>2022-10-06T12:25:05Z</time>
      </trkpt>
      <trkpt lat="44.78024" lon="-0.12409">
        <ele>63.6</ele>
        <time>2022-10-06T12:25:06Z</time>
      </trkpt>
      <trkpt lat="44.78023" lon="-0.12409">
        <ele>63.6</ele>
        <time>2022-10-06T12:25:07Z</time>
      </trkpt>
      <trkpt lat="44.78022" lon="-0.12409">
        <ele>63.6</ele>
        <time>2022-10-06T12:25:08Z</time>
      </trkpt>
      <trkpt lat="44.78021" lon="-0.12409">
        <ele>63.7</ele>
        <time>2022-10-06T12:25:09Z</time>
      </trkpt>
      <trkpt lat="44.78019" lon="-0.12409">
        <ele>63.7</ele>
        <time>2022-10-06T12:25:10Z</time>
      </trkpt>
      <trkpt lat="44.78019" lon="-0.12409">
        <ele>63.7</ele>
        <time>2022-10-06T12:25:11Z</time>
      </trkpt>
      <trkpt lat="44.78018" lon="-0.12409">
        <ele>63.7</ele>
        <time>2022-10-06T12:25:12Z</time>
      </trkpt>
      <trkpt lat="44.78015" lon="-0.1241">
        <ele>63.8</ele>
        <time>2022-10-06T12:25:13Z</time>
      </trkpt>
      <trkpt lat="44.78014" lon="-0.1241">
        <ele>63.8</ele>
        <time>2022-10-06T12:25:14Z</time>
      </trkpt>
      <trkpt lat="44.78013" lon="-0.1241">
        <ele>63.8</ele>
        <time>2022-10-06T12:25:15Z</time>
      </trkpt>
      <trkpt lat="44.78012" lon="-0.12411">
        <ele>63.9</ele>
        <time>2022-10-06T12:25:16Z</time>
      </trkpt>
      <trkpt lat="44.78011" lon="-0.12412">
        <ele>63.9</ele>
        <time>2022-10-06T12:25:17Z</time>
      </trkpt>
      <trkpt lat="44.7801" lon="-0.12412">
        <ele>63.9</ele>
        <time>2022-10-06T12:25:18Z</time>
      </trkpt>
      <trkpt lat="44.78009" lon="-0.12413">
        <ele>63.9</ele>
        <time>2022-10-06T12:25:19Z</time>
      </trkpt>
      <trkpt lat="44.78007" lon="-0.12413">
        <ele>64</ele>
        <time>2022-10-06T12:25:20Z</time>
      </trkpt>
      <trkpt lat="44.78007" lon="-0.12414">
        <ele>64</ele>
        <time>2022-10-06T12:25:21Z</time>
      </trkpt>
      <trkpt lat="44.78006" lon="-0.12415">
        <ele>64</ele>
        <time>2022-10-06T12:25:22Z</time>
      </trkpt>
      <trkpt lat="44.78005" lon="-0.12415">
        <ele>64</ele>
        <time>2022-10-06T12:25:23Z</time>
      </trkpt>
      <trkpt lat="44.78003" lon="-0.12416">
        <ele>64.1</ele>
        <time>2022-10-06T12:25:24Z</time>
      </trkpt>
      <trkpt lat="44.78002" lon="-0.12416">
        <ele>64.1</ele>
        <time>2022-10-06T12:25:25Z</time>
      </trkpt>
      <trkpt lat="44.78001" lon="-0.12416">
        <ele>64.1</ele>
        <time>2022-10-06T12:25:26Z</time>
      </trkpt>
      <trkpt lat="44.78" lon="-0.12416">
        <ele>64.2</ele>
        <time>2022-10-06T12:25:27Z</time>
      </trkpt>
      <trkpt lat="44.77998" lon="-0.12416">
        <ele>64.2</ele>
        <time>2022-10-06T12:25:28Z</time>
      </trkpt>
      <trkpt lat="44.77997" lon="-0.12416">
        <ele>64.3</ele>
        <time>2022-10-06T12:25:29Z</time>
      </trkpt>
      <trkpt lat="44.77996" lon="-0.12417">
        <ele>64.3</ele>
        <time>2022-10-06T12:25:30Z</time>
      </trkpt>
      <trkpt lat="44.77996" lon="-0.12417">
        <ele>64.3</ele>
        <time>2022-10-06T12:25:31Z</time>
      </trkpt>
      <trkpt lat="44.77995" lon="-0.12417">
        <ele>64.3</ele>
        <time>2022-10-06T12:25:32Z</time>
      </trkpt>
      <trkpt lat="44.77993" lon="-0.12418">
        <ele>64.4</ele>
        <time>2022-10-06T12:25:33Z</time>
      </trkpt>
      <trkpt lat="44.77992" lon="-0.12418">
        <ele>64.4</ele>
        <time>2022-10-06T12:25:34Z</time>
      </trkpt>
      <trkpt lat="44.77991" lon="-0.12418">
        <ele>64.5</ele>
        <time>2022-10-06T12:25:35Z</time>
      </trkpt>
      <trkpt lat="44.7799" lon="-0.12419">
        <ele>64.5</ele>
        <time>2022-10-06T12:25:36Z</time>
      </trkpt>
      <trkpt lat="44.77988" lon="-0.12419">
        <ele>64.6</ele>
        <time>2022-10-06T12:25:37Z</time>
      </trkpt>
      <trkpt lat="44.77987" lon="-0.1242">
        <ele>64.6</ele>
        <time>2022-10-06T12:25:38Z</time>
      </trkpt>
      <trkpt lat="44.77986" lon="-0.1242">
        <ele>64.6</ele>
        <time>2022-10-06T12:25:39Z</time>
      </trkpt>
      <trkpt lat="44.77985" lon="-0.1242">
        <ele>64.7</ele>
        <time>2022-10-06T12:25:40Z</time>
      </trkpt>
      <trkpt lat="44.77984" lon="-0.1242">
        <ele>64.7</ele>
        <time>2022-10-06T12:25:41Z</time>
      </trkpt>
      <trkpt lat="44.77984" lon="-0.12421">
        <ele>64.7</ele>
        <time>2022-10-06T12:25:42Z</time>
      </trkpt>
      <trkpt lat="44.77982" lon="-0.12421">
        <ele>64.8</ele>
        <time>2022-10-06T12:25:43Z</time>
      </trkpt>
      <trkpt lat="44.77981" lon="-0.12421">
        <ele>64.9</ele>
        <time>2022-10-06T12:25:44Z</time>
      </trkpt>
      <trkpt lat="44.7798" lon="-0.12421">
        <ele>64.9</ele>
        <time>2022-10-06T12:25:45Z</time>
      </trkpt>
      <trkpt lat="44.77979" lon="-0.12422">
        <ele>64.9</ele>
        <time>2022-10-06T12:25:46Z</time>
      </trkpt>
      <trkpt lat="44.77978" lon="-0.12422">
        <ele>65</ele>
        <time>2022-10-06T12:25:47Z</time>
      </trkpt>
      <trkpt lat="44.77977" lon="-0.12423">
        <ele>65</ele>
        <time>2022-10-06T12:25:48Z</time>
      </trkpt>
      <trkpt lat="44.77976" lon="-0.12423">
        <ele>65</ele>
        <time>2022-10-06T12:25:49Z</time>
      </trkpt>
      <trkpt lat="44.77974" lon="-0.12424">
        <ele>65.1</ele>
        <time>2022-10-06T12:25:50Z</time>
      </trkpt>
      <trkpt lat="44.77973" lon="-0.12425">
        <ele>65.2</ele>
        <time>2022-10-06T12:25:51Z</time>
      </trkpt>
      <trkpt lat="44.77973" lon="-0.12425">
        <ele>65.2</ele>
        <time>2022-10-06T12:25:52Z</time>
      </trkpt>
      <trkpt lat="44.7797" lon="-0.12426">
        <ele>65.3</ele>
        <time>2022-10-06T12:25:53Z</time>
      </trkpt>
      <trkpt lat="44.7797" lon="-0.12427">
        <ele>65.4</ele>
        <time>2022-10-06T12:25:54Z</time>
      </trkpt>
      <trkpt lat="44.77968" lon="-0.12427">
        <ele>65.5</ele>
        <time>2022-10-06T12:25:55Z</time>
      </trkpt>
      <trkpt lat="44.77968" lon="-0.12428">
        <ele>65.5</ele>
        <time>2022-10-06T12:25:56Z</time>
      </trkpt>
      <trkpt lat="44.77967" lon="-0.12429">
        <ele>65.6</ele>
        <time>2022-10-06T12:25:57Z</time>
      </trkpt>
      <trkpt lat="44.77966" lon="-0.1243">
        <ele>65.6</ele>
        <time>2022-10-06T12:25:58Z</time>
      </trkpt>
      <trkpt lat="44.77965" lon="-0.12431">
        <ele>65.7</ele>
        <time>2022-10-06T12:25:59Z</time>
      </trkpt>
      <trkpt lat="44.77964" lon="-0.12432">
        <ele>65.8</ele>
        <time>2022-10-06T12:26:00Z</time>
      </trkpt>
      <trkpt lat="44.77962" lon="-0.12434">
        <ele>65.9</ele>
        <time>2022-10-06T12:26:01Z</time>
      </trkpt>
      <trkpt lat="44.77961" lon="-0.12435">
        <ele>66</ele>
        <time>2022-10-06T12:26:02Z</time>
      </trkpt>
      <trkpt lat="44.7796" lon="-0.12436">
        <ele>66</ele>
        <time>2022-10-06T12:26:03Z</time>
      </trkpt>
      <trkpt lat="44.77958" lon="-0.12439">
        <ele>66.2</ele>
        <time>2022-10-06T12:26:04Z</time>
      </trkpt>
      <trkpt lat="44.77957" lon="-0.12439">
        <ele>66.3</ele>
        <time>2022-10-06T12:26:05Z</time>
      </trkpt>
      <trkpt lat="44.77956" lon="-0.12442">
        <ele>66.4</ele>
        <time>2022-10-06T12:26:06Z</time>
      </trkpt>
      <trkpt lat="44.77956" lon="-0.12443">
        <ele>66.4</ele>
        <time>2022-10-06T12:26:07Z</time>
      </trkpt>
      <trkpt lat="44.77955" lon="-0.12444">
        <ele>66.8</ele>
        <time>2022-10-06T12:26:08Z</time>
      </trkpt>
      <trkpt lat="44.77955" lon="-0.12446">
        <ele>66.8</ele>
        <time>2022-10-06T12:26:09Z</time>
      </trkpt>
      <trkpt lat="44.77956" lon="-0.12448">
        <ele>66.8</ele>
        <time>2022-10-06T12:26:10Z</time>
      </trkpt>
      <trkpt lat="44.77956" lon="-0.12449">
        <ele>66.9</ele>
        <time>2022-10-06T12:26:11Z</time>
      </trkpt>
      <trkpt lat="44.77957" lon="-0.12451">
        <ele>66.9</ele>
        <time>2022-10-06T12:26:12Z</time>
      </trkpt>
      <trkpt lat="44.77958" lon="-0.12452">
        <ele>66.9</ele>
        <time>2022-10-06T12:26:13Z</time>
      </trkpt>
      <trkpt lat="44.77959" lon="-0.12453">
        <ele>66.9</ele>
        <time>2022-10-06T12:26:14Z</time>
      </trkpt>
      <trkpt lat="44.77959" lon="-0.12456">
        <ele>66.9</ele>
        <time>2022-10-06T12:26:15Z</time>
      </trkpt>
      <trkpt lat="44.7796" lon="-0.12457">
        <ele>66.9</ele>
        <time>2022-10-06T12:26:16Z</time>
      </trkpt>
      <trkpt lat="44.7796" lon="-0.12458">
        <ele>66.9</ele>
        <time>2022-10-06T12:26:17Z</time>
      </trkpt>
      <trkpt lat="44.77961" lon="-0.1246">
        <ele>66.9</ele>
        <time>2022-10-06T12:26:18Z</time>
      </trkpt>
      <trkpt lat="44.77962" lon="-0.12461">
        <ele>66.9</ele>
        <time>2022-10-06T12:26:19Z</time>
      </trkpt>
      <trkpt lat="44.77963" lon="-0.12462">
        <ele>66.9</ele>
        <time>2022-10-06T12:26:20Z</time>
      </trkpt>
      <trkpt lat="44.77963" lon="-0.12463">
        <ele>66.9</ele>
        <time>2022-10-06T12:26:21Z</time>
      </trkpt>
      <trkpt lat="44.77964" lon="-0.12464">
        <ele>66.9</ele>
        <time>2022-10-06T12:26:22Z</time>
      </trkpt>
      <trkpt lat="44.77965" lon="-0.12466">
        <ele>67</ele>
        <time>2022-10-06T12:26:23Z</time>
      </trkpt>
      <trkpt lat="44.77966" lon="-0.12467">
        <ele>67</ele>
        <time>2022-10-06T12:26:24Z</time>
      </trkpt>
      <trkpt lat="44.77967" lon="-0.12469">
        <ele>67</ele>
        <time>2022-10-06T12:26:25Z</time>
      </trkpt>
      <trkpt lat="44.77968" lon="-0.12469">
        <ele>67</ele>
        <time>2022-10-06T12:26:26Z</time>
      </trkpt>
      <trkpt lat="44.77968" lon="-0.1247">
        <ele>67</ele>
        <time>2022-10-06T12:26:27Z</time>
      </trkpt>
      <trkpt lat="44.77969" lon="-0.12471">
        <ele>67</ele>
        <time>2022-10-06T12:26:28Z</time>
      </trkpt>
      <trkpt lat="44.7797" lon="-0.12472">
        <ele>67</ele>
        <time>2022-10-06T12:26:29Z</time>
      </trkpt>
      <trkpt lat="44.7797" lon="-0.12474">
        <ele>67</ele>
        <time>2022-10-06T12:26:30Z</time>
      </trkpt>
      <trkpt lat="44.77971" lon="-0.12475">
        <ele>67</ele>
        <time>2022-10-06T12:26:31Z</time>
      </trkpt>
      <trkpt lat="44.77971" lon="-0.12477">
        <ele>67</ele>
        <time>2022-10-06T12:26:32Z</time>
      </trkpt>
      <trkpt lat="44.77971" lon="-0.12478">
        <ele>67</ele>
        <time>2022-10-06T12:26:33Z</time>
      </trkpt>
      <trkpt lat="44.77971" lon="-0.1248">
        <ele>67</ele>
        <time>2022-10-06T12:26:34Z</time>
      </trkpt>
      <trkpt lat="44.77971" lon="-0.12483">
        <ele>67</ele>
        <time>2022-10-06T12:26:35Z</time>
      </trkpt>
      <trkpt lat="44.77971" lon="-0.12483">
        <ele>67.1</ele>
        <time>2022-10-06T12:26:36Z</time>
      </trkpt>
      <trkpt lat="44.77971" lon="-0.12485">
        <ele>67.1</ele>
        <time>2022-10-06T12:26:37Z</time>
      </trkpt>
      <trkpt lat="44.77972" lon="-0.12486">
        <ele>67.1</ele>
        <time>2022-10-06T12:26:38Z</time>
      </trkpt>
      <trkpt lat="44.77972" lon="-0.12488">
        <ele>67.1</ele>
        <time>2022-10-06T12:26:39Z</time>
      </trkpt>
      <trkpt lat="44.77972" lon="-0.1249">
        <ele>67.1</ele>
        <time>2022-10-06T12:26:40Z</time>
      </trkpt>
      <trkpt lat="44.77972" lon="-0.12491">
        <ele>67.1</ele>
        <time>2022-10-06T12:26:41Z</time>
      </trkpt>
      <trkpt lat="44.77972" lon="-0.12494">
        <ele>67.1</ele>
        <time>2022-10-06T12:26:42Z</time>
      </trkpt>
      <trkpt lat="44.77972" lon="-0.12495">
        <ele>67.1</ele>
        <time>2022-10-06T12:26:43Z</time>
      </trkpt>
      <trkpt lat="44.77973" lon="-0.12496">
        <ele>67.1</ele>
        <time>2022-10-06T12:26:44Z</time>
      </trkpt>
      <trkpt lat="44.77973" lon="-0.12497">
        <ele>67.1</ele>
        <time>2022-10-06T12:26:45Z</time>
      </trkpt>
      <trkpt lat="44.77973" lon="-0.12498">
        <ele>67.1</ele>
        <time>2022-10-06T12:26:46Z</time>
      </trkpt>
      <trkpt lat="44.77974" lon="-0.12499">
        <ele>67.1</ele>
        <time>2022-10-06T12:26:47Z</time>
      </trkpt>
      <trkpt lat="44.77975" lon="-0.125">
        <ele>67.1</ele>
        <time>2022-10-06T12:26:48Z</time>
      </trkpt>
      <trkpt lat="44.77976" lon="-0.12502">
        <ele>67.2</ele>
        <time>2022-10-06T12:26:49Z</time>
      </trkpt>
      <trkpt lat="44.77977" lon="-0.12503">
        <ele>67.2</ele>
        <time>2022-10-06T12:26:50Z</time>
      </trkpt>
      <trkpt lat="44.77977" lon="-0.12504">
        <ele>67.2</ele>
        <time>2022-10-06T12:26:51Z</time>
      </trkpt>
      <trkpt lat="44.77977" lon="-0.12505">
        <ele>67.2</ele>
        <time>2022-10-06T12:26:52Z</time>
      </trkpt>
      <trkpt lat="44.77978" lon="-0.12506">
        <ele>67.2</ele>
        <time>2022-10-06T12:26:53Z</time>
      </trkpt>
      <trkpt lat="44.77979" lon="-0.12507">
        <ele>67.2</ele>
        <time>2022-10-06T12:26:54Z</time>
      </trkpt>
      <trkpt lat="44.7798" lon="-0.12509">
        <ele>67.2</ele>
        <time>2022-10-06T12:26:55Z</time>
      </trkpt>
      <trkpt lat="44.7798" lon="-0.1251">
        <ele>67.2</ele>
        <time>2022-10-06T12:26:56Z</time>
      </trkpt>
      <trkpt lat="44.77981" lon="-0.12512">
        <ele>67.2</ele>
        <time>2022-10-06T12:26:57Z</time>
      </trkpt>
      <trkpt lat="44.77981" lon="-0.12514">
        <ele>67.2</ele>
        <time>2022-10-06T12:26:58Z</time>
      </trkpt>
      <trkpt lat="44.77982" lon="-0.12516">
        <ele>67.2</ele>
        <time>2022-10-06T12:26:59Z</time>
      </trkpt>
      <trkpt lat="44.77982" lon="-0.12517">
        <ele>67.2</ele>
        <time>2022-10-06T12:27:00Z</time>
      </trkpt>
      <trkpt lat="44.77982" lon="-0.1252">
        <ele>67.2</ele>
        <time>2022-10-06T12:27:01Z</time>
      </trkpt>
      <trkpt lat="44.77982" lon="-0.12521">
        <ele>67.2</ele>
        <time>2022-10-06T12:27:02Z</time>
      </trkpt>
      <trkpt lat="44.77981" lon="-0.12523">
        <ele>67.2</ele>
        <time>2022-10-06T12:27:03Z</time>
      </trkpt>
      <trkpt lat="44.7798" lon="-0.12524">
        <ele>67.2</ele>
        <time>2022-10-06T12:27:04Z</time>
      </trkpt>
      <trkpt lat="44.77979" lon="-0.12526">
        <ele>67.2</ele>
        <time>2022-10-06T12:27:05Z</time>
      </trkpt>
      <trkpt lat="44.77978" lon="-0.12528">
        <ele>67.2</ele>
        <time>2022-10-06T12:27:06Z</time>
      </trkpt>
      <trkpt lat="44.77977" lon="-0.1253">
        <ele>67.2</ele>
        <time>2022-10-06T12:27:07Z</time>
      </trkpt>
      <trkpt lat="44.77976" lon="-0.12531">
        <ele>67.2</ele>
        <time>2022-10-06T12:27:08Z</time>
      </trkpt>
      <trkpt lat="44.77975" lon="-0.12532">
        <ele>67.2</ele>
        <time>2022-10-06T12:27:09Z</time>
      </trkpt>
      <trkpt lat="44.77974" lon="-0.12534">
        <ele>67.2</ele>
        <time>2022-10-06T12:27:10Z</time>
      </trkpt>
      <trkpt lat="44.77973" lon="-0.12535">
        <ele>67.2</ele>
        <time>2022-10-06T12:27:11Z</time>
      </trkpt>
      <trkpt lat="44.77972" lon="-0.12537">
        <ele>67.2</ele>
        <time>2022-10-06T12:27:12Z</time>
      </trkpt>
      <trkpt lat="44.77972" lon="-0.1254">
        <ele>67.2</ele>
        <time>2022-10-06T12:27:13Z</time>
      </trkpt>
      <trkpt lat="44.77971" lon="-0.12541">
        <ele>67.2</ele>
        <time>2022-10-06T12:27:14Z</time>
      </trkpt>
      <trkpt lat="44.77971" lon="-0.12542">
        <ele>67.2</ele>
        <time>2022-10-06T12:27:15Z</time>
      </trkpt>
      <trkpt lat="44.7797" lon="-0.12545">
        <ele>67.1</ele>
        <time>2022-10-06T12:27:16Z</time>
      </trkpt>
      <trkpt lat="44.7797" lon="-0.12546">
        <ele>67.1</ele>
        <time>2022-10-06T12:27:17Z</time>
      </trkpt>
      <trkpt lat="44.7797" lon="-0.12547">
        <ele>67.1</ele>
        <time>2022-10-06T12:27:18Z</time>
      </trkpt>
      <trkpt lat="44.77969" lon="-0.1255">
        <ele>67.1</ele>
        <time>2022-10-06T12:27:19Z</time>
      </trkpt>
      <trkpt lat="44.77968" lon="-0.12551">
        <ele>67.1</ele>
        <time>2022-10-06T12:27:20Z</time>
      </trkpt>
      <trkpt lat="44.77967" lon="-0.12552">
        <ele>67.1</ele>
        <time>2022-10-06T12:27:21Z</time>
      </trkpt>
      <trkpt lat="44.77967" lon="-0.12553">
        <ele>67</ele>
        <time>2022-10-06T12:27:22Z</time>
      </trkpt>
      <trkpt lat="44.77966" lon="-0.12555">
        <ele>67</ele>
        <time>2022-10-06T12:27:23Z</time>
      </trkpt>
      <trkpt lat="44.77966" lon="-0.12556">
        <ele>67</ele>
        <time>2022-10-06T12:27:24Z</time>
      </trkpt>
      <trkpt lat="44.77965" lon="-0.12558">
        <ele>66.9</ele>
        <time>2022-10-06T12:27:25Z</time>
      </trkpt>
      <trkpt lat="44.77965" lon="-0.12561">
        <ele>66.9</ele>
        <time>2022-10-06T12:27:26Z</time>
      </trkpt>
      <trkpt lat="44.77964" lon="-0.12563">
        <ele>66.9</ele>
        <time>2022-10-06T12:27:27Z</time>
      </trkpt>
      <trkpt lat="44.77963" lon="-0.12564">
        <ele>66.8</ele>
        <time>2022-10-06T12:27:28Z</time>
      </trkpt>
      <trkpt lat="44.77963" lon="-0.12566">
        <ele>66.8</ele>
        <time>2022-10-06T12:27:29Z</time>
      </trkpt>
      <trkpt lat="44.77962" lon="-0.12568">
        <ele>66.8</ele>
        <time>2022-10-06T12:27:30Z</time>
      </trkpt>
      <trkpt lat="44.77961" lon="-0.1257">
        <ele>66.7</ele>
        <time>2022-10-06T12:27:31Z</time>
      </trkpt>
      <trkpt lat="44.7796" lon="-0.12571">
        <ele>66.7</ele>
        <time>2022-10-06T12:27:32Z</time>
      </trkpt>
      <trkpt lat="44.77959" lon="-0.12574">
        <ele>66.7</ele>
        <time>2022-10-06T12:27:33Z</time>
      </trkpt>
      <trkpt lat="44.77958" lon="-0.12575">
        <ele>66.7</ele>
        <time>2022-10-06T12:27:34Z</time>
      </trkpt>
      <trkpt lat="44.77958" lon="-0.12576">
        <ele>66.6</ele>
        <time>2022-10-06T12:27:35Z</time>
      </trkpt>
      <trkpt lat="44.77956" lon="-0.12578">
        <ele>66.6</ele>
        <time>2022-10-06T12:27:36Z</time>
      </trkpt>
      <trkpt lat="44.77956" lon="-0.1258">
        <ele>66.6</ele>
        <time>2022-10-06T12:27:37Z</time>
      </trkpt>
      <trkpt lat="44.77955" lon="-0.12581">
        <ele>66.5</ele>
        <time>2022-10-06T12:27:38Z</time>
      </trkpt>
      <trkpt lat="44.77954" lon="-0.12583">
        <ele>66.5</ele>
        <time>2022-10-06T12:27:39Z</time>
      </trkpt>
      <trkpt lat="44.77952" lon="-0.12586">
        <ele>66.4</ele>
        <time>2022-10-06T12:27:40Z</time>
      </trkpt>
      <trkpt lat="44.77952" lon="-0.12587">
        <ele>66.4</ele>
        <time>2022-10-06T12:27:41Z</time>
      </trkpt>
      <trkpt lat="44.7795" lon="-0.1259">
        <ele>66.4</ele>
        <time>2022-10-06T12:27:42Z</time>
      </trkpt>
      <trkpt lat="44.7795" lon="-0.12591">
        <ele>66.4</ele>
        <time>2022-10-06T12:27:43Z</time>
      </trkpt>
      <trkpt lat="44.7795" lon="-0.12592">
        <ele>66.3</ele>
        <time>2022-10-06T12:27:44Z</time>
      </trkpt>
      <trkpt lat="44.77949" lon="-0.12594">
        <ele>66.3</ele>
        <time>2022-10-06T12:27:45Z</time>
      </trkpt>
      <trkpt lat="44.77949" lon="-0.12596">
        <ele>66.1</ele>
        <time>2022-10-06T12:27:46Z</time>
      </trkpt>
      <trkpt lat="44.77948" lon="-0.12597">
        <ele>66</ele>
        <time>2022-10-06T12:27:47Z</time>
      </trkpt>
      <trkpt lat="44.77948" lon="-0.12599">
        <ele>65.9</ele>
        <time>2022-10-06T12:27:48Z</time>
      </trkpt>
      <trkpt lat="44.77949" lon="-0.126">
        <ele>65.9</ele>
        <time>2022-10-06T12:27:49Z</time>
      </trkpt>
      <trkpt lat="44.77949" lon="-0.12602">
        <ele>65.8</ele>
        <time>2022-10-06T12:27:50Z</time>
      </trkpt>
      <trkpt lat="44.77949" lon="-0.12604">
        <ele>65.7</ele>
        <time>2022-10-06T12:27:51Z</time>
      </trkpt>
      <trkpt lat="44.7795" lon="-0.12605">
        <ele>65.7</ele>
        <time>2022-10-06T12:27:52Z</time>
      </trkpt>
      <trkpt lat="44.7795" lon="-0.12606">
        <ele>65.6</ele>
        <time>2022-10-06T12:27:53Z</time>
      </trkpt>
      <trkpt lat="44.7795" lon="-0.12608">
        <ele>65.5</ele>
        <time>2022-10-06T12:27:54Z</time>
      </trkpt>
      <trkpt lat="44.77951" lon="-0.1261">
        <ele>65.4</ele>
        <time>2022-10-06T12:27:55Z</time>
      </trkpt>
      <trkpt lat="44.77951" lon="-0.12612">
        <ele>65.3</ele>
        <time>2022-10-06T12:27:56Z</time>
      </trkpt>
      <trkpt lat="44.77951" lon="-0.12613">
        <ele>65.2</ele>
        <time>2022-10-06T12:27:57Z</time>
      </trkpt>
      <trkpt lat="44.77952" lon="-0.12614">
        <ele>65.2</ele>
        <time>2022-10-06T12:27:58Z</time>
      </trkpt>
      <trkpt lat="44.77952" lon="-0.12616">
        <ele>65.1</ele>
        <time>2022-10-06T12:27:59Z</time>
      </trkpt>
      <trkpt lat="44.77952" lon="-0.12618">
        <ele>65</ele>
        <time>2022-10-06T12:28:00Z</time>
      </trkpt>
      <trkpt lat="44.77953" lon="-0.12621">
        <ele>64.9</ele>
        <time>2022-10-06T12:28:01Z</time>
      </trkpt>
      <trkpt lat="44.77953" lon="-0.12622">
        <ele>64.8</ele>
        <time>2022-10-06T12:28:02Z</time>
      </trkpt>
      <trkpt lat="44.77953" lon="-0.12623">
        <ele>64.8</ele>
        <time>2022-10-06T12:28:03Z</time>
      </trkpt>
      <trkpt lat="44.77954" lon="-0.12625">
        <ele>64.7</ele>
        <time>2022-10-06T12:28:04Z</time>
      </trkpt>
      <trkpt lat="44.77954" lon="-0.12627">
        <ele>64.6</ele>
        <time>2022-10-06T12:28:05Z</time>
      </trkpt>
      <trkpt lat="44.77954" lon="-0.12628">
        <ele>64.6</ele>
        <time>2022-10-06T12:28:06Z</time>
      </trkpt>
      <trkpt lat="44.77955" lon="-0.1263">
        <ele>64.5</ele>
        <time>2022-10-06T12:28:07Z</time>
      </trkpt>
      <trkpt lat="44.77955" lon="-0.12632">
        <ele>64.4</ele>
        <time>2022-10-06T12:28:08Z</time>
      </trkpt>
      <trkpt lat="44.77956" lon="-0.12635">
        <ele>64.3</ele>
        <time>2022-10-06T12:28:09Z</time>
      </trkpt>
      <trkpt lat="44.77956" lon="-0.12636">
        <ele>64.2</ele>
        <time>2022-10-06T12:28:10Z</time>
      </trkpt>
      <trkpt lat="44.77956" lon="-0.12637">
        <ele>64.2</ele>
        <time>2022-10-06T12:28:11Z</time>
      </trkpt>
      <trkpt lat="44.77956" lon="-0.1264">
        <ele>64</ele>
        <time>2022-10-06T12:28:12Z</time>
      </trkpt>
      <trkpt lat="44.77956" lon="-0.12641">
        <ele>64</ele>
        <time>2022-10-06T12:28:13Z</time>
      </trkpt>
      <trkpt lat="44.77956" lon="-0.12642">
        <ele>64</ele>
        <time>2022-10-06T12:28:14Z</time>
      </trkpt>
      <trkpt lat="44.77956" lon="-0.12645">
        <ele>63.8</ele>
        <time>2022-10-06T12:28:15Z</time>
      </trkpt>
      <trkpt lat="44.77957" lon="-0.12646">
        <ele>63.8</ele>
        <time>2022-10-06T12:28:16Z</time>
      </trkpt>
      <trkpt lat="44.77957" lon="-0.12647">
        <ele>63.7</ele>
        <time>2022-10-06T12:28:17Z</time>
      </trkpt>
      <trkpt lat="44.77957" lon="-0.12649">
        <ele>63.7</ele>
        <time>2022-10-06T12:28:18Z</time>
      </trkpt>
      <trkpt lat="44.77957" lon="-0.12651">
        <ele>63.6</ele>
        <time>2022-10-06T12:28:19Z</time>
      </trkpt>
      <trkpt lat="44.77957" lon="-0.12652">
        <ele>63.6</ele>
        <time>2022-10-06T12:28:20Z</time>
      </trkpt>
      <trkpt lat="44.77957" lon="-0.12655">
        <ele>63.4</ele>
        <time>2022-10-06T12:28:21Z</time>
      </trkpt>
      <trkpt lat="44.77957" lon="-0.12657">
        <ele>63.4</ele>
        <time>2022-10-06T12:28:22Z</time>
      </trkpt>
      <trkpt lat="44.77957" lon="-0.12658">
        <ele>63.3</ele>
        <time>2022-10-06T12:28:23Z</time>
      </trkpt>
      <trkpt lat="44.77958" lon="-0.12659">
        <ele>63.3</ele>
        <time>2022-10-06T12:28:24Z</time>
      </trkpt>
      <trkpt lat="44.77958" lon="-0.12661">
        <ele>63.2</ele>
        <time>2022-10-06T12:28:25Z</time>
      </trkpt>
      <trkpt lat="44.77958" lon="-0.12663">
        <ele>63.2</ele>
        <time>2022-10-06T12:28:26Z</time>
      </trkpt>
      <trkpt lat="44.77958" lon="-0.12664">
        <ele>63.1</ele>
        <time>2022-10-06T12:28:27Z</time>
      </trkpt>
      <trkpt lat="44.77959" lon="-0.12666">
        <ele>63.1</ele>
        <time>2022-10-06T12:28:28Z</time>
      </trkpt>
      <trkpt lat="44.77959" lon="-0.12668">
        <ele>63</ele>
        <time>2022-10-06T12:28:29Z</time>
      </trkpt>
      <trkpt lat="44.77959" lon="-0.12669">
        <ele>63</ele>
        <time>2022-10-06T12:28:30Z</time>
      </trkpt>
      <trkpt lat="44.7796" lon="-0.12671">
        <ele>62.9</ele>
        <time>2022-10-06T12:28:31Z</time>
      </trkpt>
      <trkpt lat="44.7796" lon="-0.12672">
        <ele>62.9</ele>
        <time>2022-10-06T12:28:32Z</time>
      </trkpt>
      <trkpt lat="44.7796" lon="-0.12672">
        <ele>62.9</ele>
        <time>2022-10-06T12:28:33Z</time>
      </trkpt>
      <trkpt lat="44.7796" lon="-0.12673">
        <ele>62.9</ele>
        <time>2022-10-06T12:28:34Z</time>
      </trkpt>
      <trkpt lat="44.7796" lon="-0.12671">
        <ele>62.8</ele>
        <time>2022-10-06T12:28:35Z</time>
      </trkpt>
      <trkpt lat="44.7796" lon="-0.12672">
        <ele>62.8</ele>
        <time>2022-10-06T12:28:36Z</time>
      </trkpt>
      <trkpt lat="44.7796" lon="-0.12673">
        <ele>62.8</ele>
        <time>2022-10-06T12:28:37Z</time>
      </trkpt>
      <trkpt lat="44.7796" lon="-0.12674">
        <ele>62.8</ele>
        <time>2022-10-06T12:28:38Z</time>
      </trkpt>
      <trkpt lat="44.7796" lon="-0.12676">
        <ele>62.7</ele>
        <time>2022-10-06T12:28:39Z</time>
      </trkpt>
      <trkpt lat="44.77961" lon="-0.12678">
        <ele>62.7</ele>
        <time>2022-10-06T12:28:40Z</time>
      </trkpt>
      <trkpt lat="44.77961" lon="-0.1268">
        <ele>62.6</ele>
        <time>2022-10-06T12:28:41Z</time>
      </trkpt>
      <trkpt lat="44.77962" lon="-0.12683">
        <ele>62.6</ele>
        <time>2022-10-06T12:28:42Z</time>
      </trkpt>
      <trkpt lat="44.77962" lon="-0.12684">
        <ele>62.6</ele>
        <time>2022-10-06T12:28:43Z</time>
      </trkpt>
      <trkpt lat="44.77962" lon="-0.12685">
        <ele>62.5</ele>
        <time>2022-10-06T12:28:44Z</time>
      </trkpt>
      <trkpt lat="44.77962" lon="-0.12686">
        <ele>62.5</ele>
        <time>2022-10-06T12:28:45Z</time>
      </trkpt>
      <trkpt lat="44.77961" lon="-0.12688">
        <ele>62.5</ele>
        <time>2022-10-06T12:28:46Z</time>
      </trkpt>
      <trkpt lat="44.77961" lon="-0.12689">
        <ele>62.4</ele>
        <time>2022-10-06T12:28:47Z</time>
      </trkpt>
      <trkpt lat="44.7796" lon="-0.12691">
        <ele>62.4</ele>
        <time>2022-10-06T12:28:48Z</time>
      </trkpt>
      <trkpt lat="44.77959" lon="-0.12692">
        <ele>62.3</ele>
        <time>2022-10-06T12:28:49Z</time>
      </trkpt>
      <trkpt lat="44.77957" lon="-0.12693">
        <ele>62.3</ele>
        <time>2022-10-06T12:28:50Z</time>
      </trkpt>
      <trkpt lat="44.77956" lon="-0.12694">
        <ele>62.2</ele>
        <time>2022-10-06T12:28:51Z</time>
      </trkpt>
      <trkpt lat="44.77955" lon="-0.12694">
        <ele>62.2</ele>
        <time>2022-10-06T12:28:52Z</time>
      </trkpt>
      <trkpt lat="44.77953" lon="-0.12695">
        <ele>62.2</ele>
        <time>2022-10-06T12:28:53Z</time>
      </trkpt>
      <trkpt lat="44.77952" lon="-0.12695">
        <ele>62.1</ele>
        <time>2022-10-06T12:28:54Z</time>
      </trkpt>
      <trkpt lat="44.77952" lon="-0.12695">
        <ele>62.1</ele>
        <time>2022-10-06T12:28:55Z</time>
      </trkpt>
      <trkpt lat="44.7795" lon="-0.12696">
        <ele>62</ele>
        <time>2022-10-06T12:28:56Z</time>
      </trkpt>
      <trkpt lat="44.77949" lon="-0.12696">
        <ele>62</ele>
        <time>2022-10-06T12:28:57Z</time>
      </trkpt>
      <trkpt lat="44.77948" lon="-0.12697">
        <ele>62</ele>
        <time>2022-10-06T12:28:58Z</time>
      </trkpt>
      <trkpt lat="44.77947" lon="-0.12697">
        <ele>62</ele>
        <time>2022-10-06T12:28:59Z</time>
      </trkpt>
      <trkpt lat="44.77946" lon="-0.12697">
        <ele>61.9</ele>
        <time>2022-10-06T12:29:00Z</time>
      </trkpt>
      <trkpt lat="44.77945" lon="-0.12697">
        <ele>61.9</ele>
        <time>2022-10-06T12:29:01Z</time>
      </trkpt>
      <trkpt lat="44.77943" lon="-0.12698">
        <ele>61.9</ele>
        <time>2022-10-06T12:29:02Z</time>
      </trkpt>
      <trkpt lat="44.77942" lon="-0.12698">
        <ele>61.8</ele>
        <time>2022-10-06T12:29:03Z</time>
      </trkpt>
      <trkpt lat="44.77941" lon="-0.12698">
        <ele>61.8</ele>
        <time>2022-10-06T12:29:04Z</time>
      </trkpt>
      <trkpt lat="44.7794" lon="-0.12699">
        <ele>61.8</ele>
        <time>2022-10-06T12:29:05Z</time>
      </trkpt>
      <trkpt lat="44.77939" lon="-0.12699">
        <ele>61.7</ele>
        <time>2022-10-06T12:29:06Z</time>
      </trkpt>
      <trkpt lat="44.77937" lon="-0.12699">
        <ele>61.7</ele>
        <time>2022-10-06T12:29:07Z</time>
      </trkpt>
      <trkpt lat="44.77936" lon="-0.127">
        <ele>61.6</ele>
        <time>2022-10-06T12:29:08Z</time>
      </trkpt>
      <trkpt lat="44.77934" lon="-0.12702">
        <ele>61.5</ele>
        <time>2022-10-06T12:29:09Z</time>
      </trkpt>
      <trkpt lat="44.77933" lon="-0.12703">
        <ele>61.5</ele>
        <time>2022-10-06T12:29:10Z</time>
      </trkpt>
      <trkpt lat="44.77932" lon="-0.12703">
        <ele>61.5</ele>
        <time>2022-10-06T12:29:11Z</time>
      </trkpt>
      <trkpt lat="44.77931" lon="-0.12704">
        <ele>61.4</ele>
        <time>2022-10-06T12:29:12Z</time>
      </trkpt>
      <trkpt lat="44.77929" lon="-0.12705">
        <ele>61.4</ele>
        <time>2022-10-06T12:29:13Z</time>
      </trkpt>
      <trkpt lat="44.77928" lon="-0.12707">
        <ele>61.3</ele>
        <time>2022-10-06T12:29:14Z</time>
      </trkpt>
      <trkpt lat="44.77926" lon="-0.12708">
        <ele>61.2</ele>
        <time>2022-10-06T12:29:15Z</time>
      </trkpt>
      <trkpt lat="44.77924" lon="-0.12709">
        <ele>61.1</ele>
        <time>2022-10-06T12:29:16Z</time>
      </trkpt>
      <trkpt lat="44.77923" lon="-0.1271">
        <ele>61</ele>
        <time>2022-10-06T12:29:17Z</time>
      </trkpt>
      <trkpt lat="44.77922" lon="-0.12711">
        <ele>61</ele>
        <time>2022-10-06T12:29:18Z</time>
      </trkpt>
      <trkpt lat="44.77921" lon="-0.12712">
        <ele>60.8</ele>
        <time>2022-10-06T12:29:19Z</time>
      </trkpt>
      <trkpt lat="44.7792" lon="-0.12712">
        <ele>60.8</ele>
        <time>2022-10-06T12:29:20Z</time>
      </trkpt>
      <trkpt lat="44.77919" lon="-0.12713">
        <ele>60.7</ele>
        <time>2022-10-06T12:29:21Z</time>
      </trkpt>
      <trkpt lat="44.77918" lon="-0.12714">
        <ele>60.7</ele>
        <time>2022-10-06T12:29:22Z</time>
      </trkpt>
      <trkpt lat="44.77917" lon="-0.12715">
        <ele>60.6</ele>
        <time>2022-10-06T12:29:23Z</time>
      </trkpt>
      <trkpt lat="44.77916" lon="-0.12715">
        <ele>60.5</ele>
        <time>2022-10-06T12:29:24Z</time>
      </trkpt>
      <trkpt lat="44.77915" lon="-0.12716">
        <ele>60.5</ele>
        <time>2022-10-06T12:29:25Z</time>
      </trkpt>
      <trkpt lat="44.77914" lon="-0.12717">
        <ele>60.4</ele>
        <time>2022-10-06T12:29:26Z</time>
      </trkpt>
      <trkpt lat="44.77913" lon="-0.12718">
        <ele>60.3</ele>
        <time>2022-10-06T12:29:27Z</time>
      </trkpt>
      <trkpt lat="44.77911" lon="-0.12719">
        <ele>60.2</ele>
        <time>2022-10-06T12:29:28Z</time>
      </trkpt>
      <trkpt lat="44.77911" lon="-0.1272">
        <ele>60.1</ele>
        <time>2022-10-06T12:29:29Z</time>
      </trkpt>
      <trkpt lat="44.7791" lon="-0.12721">
        <ele>60</ele>
        <time>2022-10-06T12:29:30Z</time>
      </trkpt>
      <trkpt lat="44.77908" lon="-0.12722">
        <ele>59.9</ele>
        <time>2022-10-06T12:29:31Z</time>
      </trkpt>
      <trkpt lat="44.77907" lon="-0.12723">
        <ele>59.9</ele>
        <time>2022-10-06T12:29:32Z</time>
      </trkpt>
      <trkpt lat="44.77906" lon="-0.12724">
        <ele>59.8</ele>
        <time>2022-10-06T12:29:33Z</time>
      </trkpt>
      <trkpt lat="44.77904" lon="-0.12725">
        <ele>59.6</ele>
        <time>2022-10-06T12:29:34Z</time>
      </trkpt>
      <trkpt lat="44.77903" lon="-0.12726">
        <ele>59.6</ele>
        <time>2022-10-06T12:29:35Z</time>
      </trkpt>
      <trkpt lat="44.77903" lon="-0.12727">
        <ele>59.5</ele>
        <time>2022-10-06T12:29:36Z</time>
      </trkpt>
      <trkpt lat="44.77902" lon="-0.12728">
        <ele>59.4</ele>
        <time>2022-10-06T12:29:37Z</time>
      </trkpt>
      <trkpt lat="44.779" lon="-0.12729">
        <ele>59.3</ele>
        <time>2022-10-06T12:29:38Z</time>
      </trkpt>
      <trkpt lat="44.77899" lon="-0.12729">
        <ele>59.2</ele>
        <time>2022-10-06T12:29:39Z</time>
      </trkpt>
      <trkpt lat="44.77898" lon="-0.1273">
        <ele>59.1</ele>
        <time>2022-10-06T12:29:40Z</time>
      </trkpt>
      <trkpt lat="44.77897" lon="-0.12731">
        <ele>59</ele>
        <time>2022-10-06T12:29:41Z</time>
      </trkpt>
      <trkpt lat="44.77896" lon="-0.12732">
        <ele>58.9</ele>
        <time>2022-10-06T12:29:42Z</time>
      </trkpt>
      <trkpt lat="44.77894" lon="-0.12733">
        <ele>58.8</ele>
        <time>2022-10-06T12:29:43Z</time>
      </trkpt>
      <trkpt lat="44.77893" lon="-0.12734">
        <ele>58.7</ele>
        <time>2022-10-06T12:29:44Z</time>
      </trkpt>
      <trkpt lat="44.77892" lon="-0.12735">
        <ele>58.6</ele>
        <time>2022-10-06T12:29:45Z</time>
      </trkpt>
      <trkpt lat="44.77891" lon="-0.12735">
        <ele>58.6</ele>
        <time>2022-10-06T12:29:46Z</time>
      </trkpt>
      <trkpt lat="44.7789" lon="-0.12736">
        <ele>58.5</ele>
        <time>2022-10-06T12:29:47Z</time>
      </trkpt>
      <trkpt lat="44.77889" lon="-0.12737">
        <ele>58.3</ele>
        <time>2022-10-06T12:29:48Z</time>
      </trkpt>
      <trkpt lat="44.77888" lon="-0.12738">
        <ele>58.3</ele>
        <time>2022-10-06T12:29:49Z</time>
      </trkpt>
      <trkpt lat="44.77887" lon="-0.12739">
        <ele>58.2</ele>
        <time>2022-10-06T12:29:50Z</time>
      </trkpt>
      <trkpt lat="44.77886" lon="-0.1274">
        <ele>58.1</ele>
        <time>2022-10-06T12:29:51Z</time>
      </trkpt>
      <trkpt lat="44.77885" lon="-0.12741">
        <ele>58</ele>
        <time>2022-10-06T12:29:52Z</time>
      </trkpt>
      <trkpt lat="44.77884" lon="-0.12743">
        <ele>57.8</ele>
        <time>2022-10-06T12:29:53Z</time>
      </trkpt>
      <trkpt lat="44.77883" lon="-0.12744">
        <ele>57.8</ele>
        <time>2022-10-06T12:29:54Z</time>
      </trkpt>
      <trkpt lat="44.77882" lon="-0.12745">
        <ele>57.7</ele>
        <time>2022-10-06T12:29:55Z</time>
      </trkpt>
      <trkpt lat="44.77882" lon="-0.12747">
        <ele>57.6</ele>
        <time>2022-10-06T12:29:56Z</time>
      </trkpt>
      <trkpt lat="44.77881" lon="-0.12748">
        <ele>57.5</ele>
        <time>2022-10-06T12:29:57Z</time>
      </trkpt>
      <trkpt lat="44.77879" lon="-0.12749">
        <ele>57.4</ele>
        <time>2022-10-06T12:29:58Z</time>
      </trkpt>
      <trkpt lat="44.77878" lon="-0.12751">
        <ele>57.2</ele>
        <time>2022-10-06T12:29:59Z</time>
      </trkpt>
      <trkpt lat="44.77877" lon="-0.12751">
        <ele>57.2</ele>
        <time>2022-10-06T12:30:00Z</time>
      </trkpt>
      <trkpt lat="44.77876" lon="-0.12752">
        <ele>57.1</ele>
        <time>2022-10-06T12:30:01Z</time>
      </trkpt>
      <trkpt lat="44.77875" lon="-0.12753">
        <ele>57</ele>
        <time>2022-10-06T12:30:02Z</time>
      </trkpt>
      <trkpt lat="44.77874" lon="-0.12754">
        <ele>56.9</ele>
        <time>2022-10-06T12:30:03Z</time>
      </trkpt>
      <trkpt lat="44.77873" lon="-0.12754">
        <ele>56.9</ele>
        <time>2022-10-06T12:30:04Z</time>
      </trkpt>
      <trkpt lat="44.77872" lon="-0.12755">
        <ele>56.8</ele>
        <time>2022-10-06T12:30:05Z</time>
      </trkpt>
      <trkpt lat="44.77871" lon="-0.12756">
        <ele>56.7</ele>
        <time>2022-10-06T12:30:06Z</time>
      </trkpt>
      <trkpt lat="44.77869" lon="-0.12758">
        <ele>56.5</ele>
        <time>2022-10-06T12:30:07Z</time>
      </trkpt>
      <trkpt lat="44.77868" lon="-0.12759">
        <ele>56.4</ele>
        <time>2022-10-06T12:30:08Z</time>
      </trkpt>
      <trkpt lat="44.77867" lon="-0.12761">
        <ele>56.4</ele>
        <time>2022-10-06T12:30:09Z</time>
      </trkpt>
      <trkpt lat="44.77867" lon="-0.12761">
        <ele>56.3</ele>
        <time>2022-10-06T12:30:10Z</time>
      </trkpt>
      <trkpt lat="44.77866" lon="-0.12763">
        <ele>56.2</ele>
        <time>2022-10-06T12:30:11Z</time>
      </trkpt>
      <trkpt lat="44.77865" lon="-0.12764">
        <ele>56.1</ele>
        <time>2022-10-06T12:30:12Z</time>
      </trkpt>
      <trkpt lat="44.77863" lon="-0.12767">
        <ele>56</ele>
        <time>2022-10-06T12:30:13Z</time>
      </trkpt>
      <trkpt lat="44.77863" lon="-0.12768">
        <ele>55.9</ele>
        <time>2022-10-06T12:30:14Z</time>
      </trkpt>
      <trkpt lat="44.77861" lon="-0.1277">
        <ele>55.7</ele>
        <time>2022-10-06T12:30:15Z</time>
      </trkpt>
      <trkpt lat="44.77861" lon="-0.12771">
        <ele>55.7</ele>
        <time>2022-10-06T12:30:16Z</time>
      </trkpt>
      <trkpt lat="44.7786" lon="-0.12771">
        <ele>55.6</ele>
        <time>2022-10-06T12:30:17Z</time>
      </trkpt>
      <trkpt lat="44.77859" lon="-0.12773">
        <ele>55.5</ele>
        <time>2022-10-06T12:30:18Z</time>
      </trkpt>
      <trkpt lat="44.77858" lon="-0.12776">
        <ele>55.4</ele>
        <time>2022-10-06T12:30:19Z</time>
      </trkpt>
      <trkpt lat="44.77858" lon="-0.12778">
        <ele>55.2</ele>
        <time>2022-10-06T12:30:20Z</time>
      </trkpt>
      <trkpt lat="44.77858" lon="-0.1278">
        <ele>55.2</ele>
        <time>2022-10-06T12:30:21Z</time>
      </trkpt>
      <trkpt lat="44.77857" lon="-0.12781">
        <ele>55.1</ele>
        <time>2022-10-06T12:30:22Z</time>
      </trkpt>
      <trkpt lat="44.77857" lon="-0.12783">
        <ele>55</ele>
        <time>2022-10-06T12:30:23Z</time>
      </trkpt>
      <trkpt lat="44.77856" lon="-0.12785">
        <ele>54.9</ele>
        <time>2022-10-06T12:30:24Z</time>
      </trkpt>
      <trkpt lat="44.77855" lon="-0.12788">
        <ele>54.7</ele>
        <time>2022-10-06T12:30:25Z</time>
      </trkpt>
      <trkpt lat="44.77855" lon="-0.12789">
        <ele>54.7</ele>
        <time>2022-10-06T12:30:26Z</time>
      </trkpt>
      <trkpt lat="44.77855" lon="-0.1279">
        <ele>54.6</ele>
        <time>2022-10-06T12:30:27Z</time>
      </trkpt>
      <trkpt lat="44.77855" lon="-0.12792">
        <ele>54.5</ele>
        <time>2022-10-06T12:30:28Z</time>
      </trkpt>
      <trkpt lat="44.77854" lon="-0.12794">
        <ele>54.4</ele>
        <time>2022-10-06T12:30:29Z</time>
      </trkpt>
      <trkpt lat="44.77854" lon="-0.12797">
        <ele>54.3</ele>
        <time>2022-10-06T12:30:30Z</time>
      </trkpt>
      <trkpt lat="44.77853" lon="-0.12798">
        <ele>54.2</ele>
        <time>2022-10-06T12:30:31Z</time>
      </trkpt>
      <trkpt lat="44.77853" lon="-0.12799">
        <ele>54.2</ele>
        <time>2022-10-06T12:30:32Z</time>
      </trkpt>
      <trkpt lat="44.77852" lon="-0.12801">
        <ele>54.1</ele>
        <time>2022-10-06T12:30:33Z</time>
      </trkpt>
      <trkpt lat="44.77852" lon="-0.12803">
        <ele>54</ele>
        <time>2022-10-06T12:30:34Z</time>
      </trkpt>
      <trkpt lat="44.77852" lon="-0.12804">
        <ele>54</ele>
        <time>2022-10-06T12:30:35Z</time>
      </trkpt>
      <trkpt lat="44.77852" lon="-0.12806">
        <ele>53.9</ele>
        <time>2022-10-06T12:30:36Z</time>
      </trkpt>
      <trkpt lat="44.77852" lon="-0.12808">
        <ele>53.8</ele>
        <time>2022-10-06T12:30:37Z</time>
      </trkpt>
      <trkpt lat="44.77852" lon="-0.12809">
        <ele>53.8</ele>
        <time>2022-10-06T12:30:38Z</time>
      </trkpt>
      <trkpt lat="44.77852" lon="-0.12812">
        <ele>53.7</ele>
        <time>2022-10-06T12:30:39Z</time>
      </trkpt>
      <trkpt lat="44.77852" lon="-0.12813">
        <ele>53.6</ele>
        <time>2022-10-06T12:30:40Z</time>
      </trkpt>
      <trkpt lat="44.77853" lon="-0.12814">
        <ele>53.6</ele>
        <time>2022-10-06T12:30:41Z</time>
      </trkpt>
      <trkpt lat="44.77853" lon="-0.12816">
        <ele>53.5</ele>
        <time>2022-10-06T12:30:42Z</time>
      </trkpt>
      <trkpt lat="44.77853" lon="-0.12818">
        <ele>53.5</ele>
        <time>2022-10-06T12:30:43Z</time>
      </trkpt>
      <trkpt lat="44.77853" lon="-0.1282">
        <ele>53.4</ele>
        <time>2022-10-06T12:30:44Z</time>
      </trkpt>
      <trkpt lat="44.77854" lon="-0.12821">
        <ele>53.4</ele>
        <time>2022-10-06T12:30:45Z</time>
      </trkpt>
      <trkpt lat="44.77854" lon="-0.12823">
        <ele>53.4</ele>
        <time>2022-10-06T12:30:46Z</time>
      </trkpt>
      <trkpt lat="44.77854" lon="-0.12824">
        <ele>53.3</ele>
        <time>2022-10-06T12:30:47Z</time>
      </trkpt>
      <trkpt lat="44.77855" lon="-0.12826">
        <ele>53.3</ele>
        <time>2022-10-06T12:30:48Z</time>
      </trkpt>
      <trkpt lat="44.77855" lon="-0.12828">
        <ele>53.2</ele>
        <time>2022-10-06T12:30:49Z</time>
      </trkpt>
      <trkpt lat="44.77856" lon="-0.12831">
        <ele>53.2</ele>
        <time>2022-10-06T12:30:50Z</time>
      </trkpt>
      <trkpt lat="44.77856" lon="-0.12832">
        <ele>53.2</ele>
        <time>2022-10-06T12:30:51Z</time>
      </trkpt>
      <trkpt lat="44.77857" lon="-0.12833">
        <ele>53.1</ele>
        <time>2022-10-06T12:30:52Z</time>
      </trkpt>
      <trkpt lat="44.77858" lon="-0.12835">
        <ele>53.1</ele>
        <time>2022-10-06T12:30:53Z</time>
      </trkpt>
      <trkpt lat="44.77858" lon="-0.12837">
        <ele>53.1</ele>
        <time>2022-10-06T12:30:54Z</time>
      </trkpt>
      <trkpt lat="44.77859" lon="-0.12838">
        <ele>53.1</ele>
        <time>2022-10-06T12:30:55Z</time>
      </trkpt>
      <trkpt lat="44.77859" lon="-0.12839">
        <ele>53.1</ele>
        <time>2022-10-06T12:30:56Z</time>
      </trkpt>
      <trkpt lat="44.77859" lon="-0.12841">
        <ele>53.1</ele>
        <time>2022-10-06T12:30:57Z</time>
      </trkpt>
      <trkpt lat="44.7786" lon="-0.12843">
        <ele>53.1</ele>
        <time>2022-10-06T12:30:58Z</time>
      </trkpt>
      <trkpt lat="44.77861" lon="-0.12845">
        <ele>53.1</ele>
        <time>2022-10-06T12:30:59Z</time>
      </trkpt>
      <trkpt lat="44.77861" lon="-0.12846">
        <ele>53.1</ele>
        <time>2022-10-06T12:31:00Z</time>
      </trkpt>
      <trkpt lat="44.77862" lon="-0.12847">
        <ele>53.1</ele>
        <time>2022-10-06T12:31:01Z</time>
      </trkpt>
      <trkpt lat="44.77863" lon="-0.12849">
        <ele>53.1</ele>
        <time>2022-10-06T12:31:02Z</time>
      </trkpt>
      <trkpt lat="44.77864" lon="-0.1285">
        <ele>53.1</ele>
        <time>2022-10-06T12:31:03Z</time>
      </trkpt>
      <trkpt lat="44.77865" lon="-0.12852">
        <ele>53.1</ele>
        <time>2022-10-06T12:31:04Z</time>
      </trkpt>
      <trkpt lat="44.77865" lon="-0.12853">
        <ele>53.1</ele>
        <time>2022-10-06T12:31:05Z</time>
      </trkpt>
      <trkpt lat="44.77866" lon="-0.12854">
        <ele>53.2</ele>
        <time>2022-10-06T12:31:06Z</time>
      </trkpt>
      <trkpt lat="44.77867" lon="-0.12855">
        <ele>53.2</ele>
        <time>2022-10-06T12:31:07Z</time>
      </trkpt>
      <trkpt lat="44.77868" lon="-0.12856">
        <ele>53.2</ele>
        <time>2022-10-06T12:31:08Z</time>
      </trkpt>
      <trkpt lat="44.77869" lon="-0.12857">
        <ele>53.2</ele>
        <time>2022-10-06T12:31:09Z</time>
      </trkpt>
      <trkpt lat="44.7787" lon="-0.12858">
        <ele>53.3</ele>
        <time>2022-10-06T12:31:10Z</time>
      </trkpt>
      <trkpt lat="44.77871" lon="-0.12859">
        <ele>53.3</ele>
        <time>2022-10-06T12:31:11Z</time>
      </trkpt>
      <trkpt lat="44.77872" lon="-0.1286">
        <ele>53.3</ele>
        <time>2022-10-06T12:31:12Z</time>
      </trkpt>
      <trkpt lat="44.77873" lon="-0.12861">
        <ele>53.4</ele>
        <time>2022-10-06T12:31:13Z</time>
      </trkpt>
      <trkpt lat="44.77874" lon="-0.12863">
        <ele>53.4</ele>
        <time>2022-10-06T12:31:14Z</time>
      </trkpt>
      <trkpt lat="44.77874" lon="-0.12864">
        <ele>53.4</ele>
        <time>2022-10-06T12:31:15Z</time>
      </trkpt>
      <trkpt lat="44.77875" lon="-0.12865">
        <ele>53.5</ele>
        <time>2022-10-06T12:31:16Z</time>
      </trkpt>
      <trkpt lat="44.77876" lon="-0.12867">
        <ele>53.5</ele>
        <time>2022-10-06T12:31:17Z</time>
      </trkpt>
      <trkpt lat="44.77877" lon="-0.12868">
        <ele>53.6</ele>
        <time>2022-10-06T12:31:18Z</time>
      </trkpt>
      <trkpt lat="44.77877" lon="-0.12869">
        <ele>53.6</ele>
        <time>2022-10-06T12:31:19Z</time>
      </trkpt>
      <trkpt lat="44.77878" lon="-0.1287">
        <ele>53.6</ele>
        <time>2022-10-06T12:31:20Z</time>
      </trkpt>
      <trkpt lat="44.77879" lon="-0.12871">
        <ele>53.7</ele>
        <time>2022-10-06T12:31:21Z</time>
      </trkpt>
      <trkpt lat="44.7788" lon="-0.12872">
        <ele>53.7</ele>
        <time>2022-10-06T12:31:22Z</time>
      </trkpt>
      <trkpt lat="44.77881" lon="-0.12873">
        <ele>53.7</ele>
        <time>2022-10-06T12:31:23Z</time>
      </trkpt>
      <trkpt lat="44.77882" lon="-0.12875">
        <ele>53.8</ele>
        <time>2022-10-06T12:31:24Z</time>
      </trkpt>
      <trkpt lat="44.77882" lon="-0.12876">
        <ele>53.8</ele>
        <time>2022-10-06T12:31:25Z</time>
      </trkpt>
      <trkpt lat="44.77883" lon="-0.12877">
        <ele>53.9</ele>
        <time>2022-10-06T12:31:26Z</time>
      </trkpt>
      <trkpt lat="44.77884" lon="-0.12879">
        <ele>53.9</ele>
        <time>2022-10-06T12:31:27Z</time>
      </trkpt>
      <trkpt lat="44.77884" lon="-0.1288">
        <ele>54</ele>
        <time>2022-10-06T12:31:28Z</time>
      </trkpt>
      <trkpt lat="44.77885" lon="-0.12882">
        <ele>54.1</ele>
        <time>2022-10-06T12:31:29Z</time>
      </trkpt>
      <trkpt lat="44.77886" lon="-0.12883">
        <ele>54.1</ele>
        <time>2022-10-06T12:31:30Z</time>
      </trkpt>
      <trkpt lat="44.77887" lon="-0.12884">
        <ele>54.1</ele>
        <time>2022-10-06T12:31:31Z</time>
      </trkpt>
      <trkpt lat="44.77887" lon="-0.12885">
        <ele>54.2</ele>
        <time>2022-10-06T12:31:32Z</time>
      </trkpt>
      <trkpt lat="44.77888" lon="-0.12888">
        <ele>54.3</ele>
        <time>2022-10-06T12:31:33Z</time>
      </trkpt>
      <trkpt lat="44.77888" lon="-0.12889">
        <ele>54.3</ele>
        <time>2022-10-06T12:31:34Z</time>
      </trkpt>
      <trkpt lat="44.77889" lon="-0.1289">
        <ele>54.4</ele>
        <time>2022-10-06T12:31:35Z</time>
      </trkpt>
      <trkpt lat="44.77889" lon="-0.12891">
        <ele>54.4</ele>
        <time>2022-10-06T12:31:36Z</time>
      </trkpt>
      <trkpt lat="44.7789" lon="-0.12893">
        <ele>54.5</ele>
        <time>2022-10-06T12:31:37Z</time>
      </trkpt>
      <trkpt lat="44.7789" lon="-0.12894">
        <ele>54.6</ele>
        <time>2022-10-06T12:31:38Z</time>
      </trkpt>
      <trkpt lat="44.77891" lon="-0.12897">
        <ele>54.7</ele>
        <time>2022-10-06T12:31:39Z</time>
      </trkpt>
      <trkpt lat="44.77891" lon="-0.12898">
        <ele>54.7</ele>
        <time>2022-10-06T12:31:40Z</time>
      </trkpt>
      <trkpt lat="44.77892" lon="-0.12899">
        <ele>54.8</ele>
        <time>2022-10-06T12:31:41Z</time>
      </trkpt>
      <trkpt lat="44.77893" lon="-0.12901">
        <ele>54.9</ele>
        <time>2022-10-06T12:31:42Z</time>
      </trkpt>
      <trkpt lat="44.77894" lon="-0.12902">
        <ele>54.9</ele>
        <time>2022-10-06T12:31:43Z</time>
      </trkpt>
      <trkpt lat="44.77894" lon="-0.12903">
        <ele>55</ele>
        <time>2022-10-06T12:31:44Z</time>
      </trkpt>
      <trkpt lat="44.77895" lon="-0.12905">
        <ele>55.2</ele>
        <time>2022-10-06T12:31:45Z</time>
      </trkpt>
      <trkpt lat="44.77895" lon="-0.12906">
        <ele>55.2</ele>
        <time>2022-10-06T12:31:46Z</time>
      </trkpt>
      <trkpt lat="44.77896" lon="-0.12907">
        <ele>55.3</ele>
        <time>2022-10-06T12:31:47Z</time>
      </trkpt>
      <trkpt lat="44.77897" lon="-0.12909">
        <ele>55.4</ele>
        <time>2022-10-06T12:31:48Z</time>
      </trkpt>
      <trkpt lat="44.77897" lon="-0.12911">
        <ele>55.5</ele>
        <time>2022-10-06T12:31:49Z</time>
      </trkpt>
      <trkpt lat="44.77897" lon="-0.12912">
        <ele>55.6</ele>
        <time>2022-10-06T12:31:50Z</time>
      </trkpt>
      <trkpt lat="44.77898" lon="-0.12914">
        <ele>55.7</ele>
        <time>2022-10-06T12:31:51Z</time>
      </trkpt>
      <trkpt lat="44.77898" lon="-0.12915">
        <ele>55.8</ele>
        <time>2022-10-06T12:31:52Z</time>
      </trkpt>
      <trkpt lat="44.77899" lon="-0.12916">
        <ele>55.9</ele>
        <time>2022-10-06T12:31:53Z</time>
      </trkpt>
      <trkpt lat="44.779" lon="-0.12918">
        <ele>56</ele>
        <time>2022-10-06T12:31:54Z</time>
      </trkpt>
      <trkpt lat="44.779" lon="-0.12919">
        <ele>56.1</ele>
        <time>2022-10-06T12:31:55Z</time>
      </trkpt>
      <trkpt lat="44.779" lon="-0.12922">
        <ele>56.3</ele>
        <time>2022-10-06T12:31:56Z</time>
      </trkpt>
      <trkpt lat="44.77901" lon="-0.12923">
        <ele>56.3</ele>
        <time>2022-10-06T12:31:57Z</time>
      </trkpt>
      <trkpt lat="44.77901" lon="-0.12924">
        <ele>56.4</ele>
        <time>2022-10-06T12:31:58Z</time>
      </trkpt>
      <trkpt lat="44.77901" lon="-0.12928">
        <ele>56.6</ele>
        <time>2022-10-06T12:31:59Z</time>
      </trkpt>
      <trkpt lat="44.77901" lon="-0.12929">
        <ele>56.7</ele>
        <time>2022-10-06T12:32:00Z</time>
      </trkpt>
      <trkpt lat="44.77901" lon="-0.12929">
        <ele>56.7</ele>
        <time>2022-10-06T12:32:01Z</time>
      </trkpt>
      <trkpt lat="44.77901" lon="-0.12931">
        <ele>56.8</ele>
        <time>2022-10-06T12:32:02Z</time>
      </trkpt>
      <trkpt lat="44.77902" lon="-0.12933">
        <ele>56.9</ele>
        <time>2022-10-06T12:32:03Z</time>
      </trkpt>
      <trkpt lat="44.77902" lon="-0.12934">
        <ele>57</ele>
        <time>2022-10-06T12:32:04Z</time>
      </trkpt>
      <trkpt lat="44.77903" lon="-0.12935">
        <ele>57.1</ele>
        <time>2022-10-06T12:32:05Z</time>
      </trkpt>
      <trkpt lat="44.77903" lon="-0.12936">
        <ele>57.2</ele>
        <time>2022-10-06T12:32:06Z</time>
      </trkpt>
      <trkpt lat="44.77903" lon="-0.12938">
        <ele>57.3</ele>
        <time>2022-10-06T12:32:07Z</time>
      </trkpt>
      <trkpt lat="44.77903" lon="-0.12939">
        <ele>57.3</ele>
        <time>2022-10-06T12:32:08Z</time>
      </trkpt>
      <trkpt lat="44.77903" lon="-0.12941">
        <ele>57.4</ele>
        <time>2022-10-06T12:32:09Z</time>
      </trkpt>
      <trkpt lat="44.77903" lon="-0.12942">
        <ele>57.5</ele>
        <time>2022-10-06T12:32:10Z</time>
      </trkpt>
      <trkpt lat="44.77904" lon="-0.12943">
        <ele>57.6</ele>
        <time>2022-10-06T12:32:11Z</time>
      </trkpt>
      <trkpt lat="44.77904" lon="-0.12945">
        <ele>57.7</ele>
        <time>2022-10-06T12:32:12Z</time>
      </trkpt>
      <trkpt lat="44.77904" lon="-0.12946">
        <ele>57.7</ele>
        <time>2022-10-06T12:32:13Z</time>
      </trkpt>
      <trkpt lat="44.77905" lon="-0.12947">
        <ele>57.8</ele>
        <time>2022-10-06T12:32:14Z</time>
      </trkpt>
      <trkpt lat="44.77905" lon="-0.12948">
        <ele>57.9</ele>
        <time>2022-10-06T12:32:15Z</time>
      </trkpt>
      <trkpt lat="44.77905" lon="-0.12951">
        <ele>58.1</ele>
        <time>2022-10-06T12:32:16Z</time>
      </trkpt>
      <trkpt lat="44.77905" lon="-0.12951">
        <ele>58.1</ele>
        <time>2022-10-06T12:32:17Z</time>
      </trkpt>
      <trkpt lat="44.77905" lon="-0.12952">
        <ele>58.1</ele>
        <time>2022-10-06T12:32:18Z</time>
      </trkpt>
      <trkpt lat="44.77905" lon="-0.12954">
        <ele>58.2</ele>
        <time>2022-10-06T12:32:19Z</time>
      </trkpt>
      <trkpt lat="44.77906" lon="-0.12955">
        <ele>58.3</ele>
        <time>2022-10-06T12:32:20Z</time>
      </trkpt>
      <trkpt lat="44.77906" lon="-0.12957">
        <ele>58.4</ele>
        <time>2022-10-06T12:32:21Z</time>
      </trkpt>
      <trkpt lat="44.77906" lon="-0.12958">
        <ele>58.5</ele>
        <time>2022-10-06T12:32:22Z</time>
      </trkpt>
      <trkpt lat="44.77906" lon="-0.12959">
        <ele>58.5</ele>
        <time>2022-10-06T12:32:23Z</time>
      </trkpt>
      <trkpt lat="44.77905" lon="-0.12961">
        <ele>58.6</ele>
        <time>2022-10-06T12:32:24Z</time>
      </trkpt>
      <trkpt lat="44.77905" lon="-0.12962">
        <ele>58.7</ele>
        <time>2022-10-06T12:32:25Z</time>
      </trkpt>
      <trkpt lat="44.77905" lon="-0.12964">
        <ele>58.8</ele>
        <time>2022-10-06T12:32:26Z</time>
      </trkpt>
      <trkpt lat="44.77905" lon="-0.12967">
        <ele>59</ele>
        <time>2022-10-06T12:32:27Z</time>
      </trkpt>
      <trkpt lat="44.77906" lon="-0.12968">
        <ele>59</ele>
        <time>2022-10-06T12:32:28Z</time>
      </trkpt>
      <trkpt lat="44.77906" lon="-0.1297">
        <ele>59.1</ele>
        <time>2022-10-06T12:32:29Z</time>
      </trkpt>
      <trkpt lat="44.77907" lon="-0.12971">
        <ele>59.2</ele>
        <time>2022-10-06T12:32:30Z</time>
      </trkpt>
      <trkpt lat="44.77907" lon="-0.12972">
        <ele>59.3</ele>
        <time>2022-10-06T12:32:31Z</time>
      </trkpt>
      <trkpt lat="44.77908" lon="-0.12974">
        <ele>59.4</ele>
        <time>2022-10-06T12:32:32Z</time>
      </trkpt>
      <trkpt lat="44.77908" lon="-0.12976">
        <ele>59.5</ele>
        <time>2022-10-06T12:32:33Z</time>
      </trkpt>
      <trkpt lat="44.77909" lon="-0.12977">
        <ele>59.6</ele>
        <time>2022-10-06T12:32:34Z</time>
      </trkpt>
      <trkpt lat="44.77909" lon="-0.12978">
        <ele>59.6</ele>
        <time>2022-10-06T12:32:35Z</time>
      </trkpt>
      <trkpt lat="44.7791" lon="-0.12981">
        <ele>59.8</ele>
        <time>2022-10-06T12:32:36Z</time>
      </trkpt>
      <trkpt lat="44.7791" lon="-0.12982">
        <ele>59.8</ele>
        <time>2022-10-06T12:32:37Z</time>
      </trkpt>
      <trkpt lat="44.7791" lon="-0.12983">
        <ele>59.9</ele>
        <time>2022-10-06T12:32:38Z</time>
      </trkpt>
      <trkpt lat="44.7791" lon="-0.12985">
        <ele>60</ele>
        <time>2022-10-06T12:32:39Z</time>
      </trkpt>
      <trkpt lat="44.77911" lon="-0.12986">
        <ele>60.1</ele>
        <time>2022-10-06T12:32:40Z</time>
      </trkpt>
      <trkpt lat="44.77911" lon="-0.12988">
        <ele>60.2</ele>
        <time>2022-10-06T12:32:41Z</time>
      </trkpt>
      <trkpt lat="44.77912" lon="-0.12991">
        <ele>60.3</ele>
        <time>2022-10-06T12:32:42Z</time>
      </trkpt>
      <trkpt lat="44.77912" lon="-0.12992">
        <ele>60.4</ele>
        <time>2022-10-06T12:32:43Z</time>
      </trkpt>
      <trkpt lat="44.77912" lon="-0.12994">
        <ele>60.5</ele>
        <time>2022-10-06T12:32:44Z</time>
      </trkpt>
      <trkpt lat="44.77913" lon="-0.12994">
        <ele>60.5</ele>
        <time>2022-10-06T12:32:45Z</time>
      </trkpt>
      <trkpt lat="44.77913" lon="-0.12996">
        <ele>60.6</ele>
        <time>2022-10-06T12:32:46Z</time>
      </trkpt>
      <trkpt lat="44.77913" lon="-0.12998">
        <ele>60.7</ele>
        <time>2022-10-06T12:32:47Z</time>
      </trkpt>
      <trkpt lat="44.77913" lon="-0.12999">
        <ele>60.8</ele>
        <time>2022-10-06T12:32:48Z</time>
      </trkpt>
      <trkpt lat="44.77914" lon="-0.13001">
        <ele>60.9</ele>
        <time>2022-10-06T12:32:49Z</time>
      </trkpt>
      <trkpt lat="44.77914" lon="-0.13004">
        <ele>61.1</ele>
        <time>2022-10-06T12:32:50Z</time>
      </trkpt>
      <trkpt lat="44.77914" lon="-0.13005">
        <ele>61.1</ele>
        <time>2022-10-06T12:32:51Z</time>
      </trkpt>
      <trkpt lat="44.77914" lon="-0.13007">
        <ele>61.2</ele>
        <time>2022-10-06T12:32:52Z</time>
      </trkpt>
      <trkpt lat="44.77914" lon="-0.13008">
        <ele>61.3</ele>
        <time>2022-10-06T12:32:53Z</time>
      </trkpt>
      <trkpt lat="44.77915" lon="-0.13011">
        <ele>61.5</ele>
        <time>2022-10-06T12:32:54Z</time>
      </trkpt>
      <trkpt lat="44.77915" lon="-0.13012">
        <ele>61.5</ele>
        <time>2022-10-06T12:32:55Z</time>
      </trkpt>
      <trkpt lat="44.77915" lon="-0.13014">
        <ele>61.6</ele>
        <time>2022-10-06T12:32:56Z</time>
      </trkpt>
      <trkpt lat="44.77915" lon="-0.13016">
        <ele>61.7</ele>
        <time>2022-10-06T12:32:57Z</time>
      </trkpt>
      <trkpt lat="44.77915" lon="-0.13017">
        <ele>61.8</ele>
        <time>2022-10-06T12:32:58Z</time>
      </trkpt>
      <trkpt lat="44.77916" lon="-0.1302">
        <ele>61.9</ele>
        <time>2022-10-06T12:32:59Z</time>
      </trkpt>
      <trkpt lat="44.77916" lon="-0.13021">
        <ele>62</ele>
        <time>2022-10-06T12:33:00Z</time>
      </trkpt>
      <trkpt lat="44.77917" lon="-0.13022">
        <ele>62.1</ele>
        <time>2022-10-06T12:33:01Z</time>
      </trkpt>
      <trkpt lat="44.77917" lon="-0.13023">
        <ele>62.1</ele>
        <time>2022-10-06T12:33:02Z</time>
      </trkpt>
      <trkpt lat="44.77917" lon="-0.13024">
        <ele>62.2</ele>
        <time>2022-10-06T12:33:03Z</time>
      </trkpt>
      <trkpt lat="44.77918" lon="-0.13026">
        <ele>62.3</ele>
        <time>2022-10-06T12:33:04Z</time>
      </trkpt>
      <trkpt lat="44.77918" lon="-0.13027">
        <ele>62.3</ele>
        <time>2022-10-06T12:33:05Z</time>
      </trkpt>
      <trkpt lat="44.77919" lon="-0.13028">
        <ele>62.4</ele>
        <time>2022-10-06T12:33:06Z</time>
      </trkpt>
      <trkpt lat="44.77919" lon="-0.13029">
        <ele>62.5</ele>
        <time>2022-10-06T12:33:07Z</time>
      </trkpt>
      <trkpt lat="44.7792" lon="-0.13031">
        <ele>62.5</ele>
        <time>2022-10-06T12:33:08Z</time>
      </trkpt>
      <trkpt lat="44.7792" lon="-0.13033">
        <ele>62.6</ele>
        <time>2022-10-06T12:33:09Z</time>
      </trkpt>
      <trkpt lat="44.7792" lon="-0.13035">
        <ele>62.8</ele>
        <time>2022-10-06T12:33:10Z</time>
      </trkpt>
      <trkpt lat="44.77921" lon="-0.13036">
        <ele>62.8</ele>
        <time>2022-10-06T12:33:11Z</time>
      </trkpt>
      <trkpt lat="44.77921" lon="-0.13038">
        <ele>62.9</ele>
        <time>2022-10-06T12:33:12Z</time>
      </trkpt>
      <trkpt lat="44.77921" lon="-0.13039">
        <ele>63</ele>
        <time>2022-10-06T12:33:13Z</time>
      </trkpt>
      <trkpt lat="44.77921" lon="-0.13041">
        <ele>63.1</ele>
        <time>2022-10-06T12:33:14Z</time>
      </trkpt>
      <trkpt lat="44.77922" lon="-0.13043">
        <ele>63.2</ele>
        <time>2022-10-06T12:33:15Z</time>
      </trkpt>
      <trkpt lat="44.77922" lon="-0.13045">
        <ele>63.3</ele>
        <time>2022-10-06T12:33:16Z</time>
      </trkpt>
      <trkpt lat="44.77922" lon="-0.13046">
        <ele>63.3</ele>
        <time>2022-10-06T12:33:17Z</time>
      </trkpt>
      <trkpt lat="44.77922" lon="-0.13049">
        <ele>63.5</ele>
        <time>2022-10-06T12:33:18Z</time>
      </trkpt>
      <trkpt lat="44.77922" lon="-0.1305">
        <ele>63.5</ele>
        <time>2022-10-06T12:33:19Z</time>
      </trkpt>
      <trkpt lat="44.77922" lon="-0.13052">
        <ele>63.6</ele>
        <time>2022-10-06T12:33:20Z</time>
      </trkpt>
      <trkpt lat="44.77922" lon="-0.13054">
        <ele>63.7</ele>
        <time>2022-10-06T12:33:21Z</time>
      </trkpt>
      <trkpt lat="44.77922" lon="-0.13056">
        <ele>63.8</ele>
        <time>2022-10-06T12:33:22Z</time>
      </trkpt>
      <trkpt lat="44.77922" lon="-0.13059">
        <ele>64</ele>
        <time>2022-10-06T12:33:23Z</time>
      </trkpt>
      <trkpt lat="44.77922" lon="-0.1306">
        <ele>64</ele>
        <time>2022-10-06T12:33:24Z</time>
      </trkpt>
      <trkpt lat="44.77923" lon="-0.13061">
        <ele>64.1</ele>
        <time>2022-10-06T12:33:25Z</time>
      </trkpt>
      <trkpt lat="44.77923" lon="-0.13063">
        <ele>64.2</ele>
        <time>2022-10-06T12:33:26Z</time>
      </trkpt>
      <trkpt lat="44.77923" lon="-0.13064">
        <ele>64.2</ele>
        <time>2022-10-06T12:33:27Z</time>
      </trkpt>
      <trkpt lat="44.77924" lon="-0.13066">
        <ele>64.3</ele>
        <time>2022-10-06T12:33:28Z</time>
      </trkpt>
      <trkpt lat="44.77924" lon="-0.13067">
        <ele>64.4</ele>
        <time>2022-10-06T12:33:29Z</time>
      </trkpt>
      <trkpt lat="44.77924" lon="-0.13069">
        <ele>64.5</ele>
        <time>2022-10-06T12:33:30Z</time>
      </trkpt>
      <trkpt lat="44.77924" lon="-0.1307">
        <ele>64.6</ele>
        <time>2022-10-06T12:33:31Z</time>
      </trkpt>
      <trkpt lat="44.77925" lon="-0.13072">
        <ele>64.7</ele>
        <time>2022-10-06T12:33:32Z</time>
      </trkpt>
      <trkpt lat="44.77925" lon="-0.13074">
        <ele>64.7</ele>
        <time>2022-10-06T12:33:33Z</time>
      </trkpt>
      <trkpt lat="44.77925" lon="-0.13075">
        <ele>64.8</ele>
        <time>2022-10-06T12:33:34Z</time>
      </trkpt>
      <trkpt lat="44.77925" lon="-0.13078">
        <ele>64.9</ele>
        <time>2022-10-06T12:33:35Z</time>
      </trkpt>
      <trkpt lat="44.77925" lon="-0.13079">
        <ele>65</ele>
        <time>2022-10-06T12:33:36Z</time>
      </trkpt>
      <trkpt lat="44.77925" lon="-0.1308">
        <ele>65.1</ele>
        <time>2022-10-06T12:33:37Z</time>
      </trkpt>
      <trkpt lat="44.77925" lon="-0.13082">
        <ele>65.2</ele>
        <time>2022-10-06T12:33:38Z</time>
      </trkpt>
      <trkpt lat="44.77925" lon="-0.13084">
        <ele>65.2</ele>
        <time>2022-10-06T12:33:39Z</time>
      </trkpt>
      <trkpt lat="44.77926" lon="-0.13086">
        <ele>65.4</ele>
        <time>2022-10-06T12:33:40Z</time>
      </trkpt>
      <trkpt lat="44.77926" lon="-0.13088">
        <ele>65.5</ele>
        <time>2022-10-06T12:33:41Z</time>
      </trkpt>
      <trkpt lat="44.77927" lon="-0.1309">
        <ele>65.6</ele>
        <time>2022-10-06T12:33:42Z</time>
      </trkpt>
      <trkpt lat="44.77927" lon="-0.13093">
        <ele>65.7</ele>
        <time>2022-10-06T12:33:43Z</time>
      </trkpt>
      <trkpt lat="44.77927" lon="-0.13095">
        <ele>65.8</ele>
        <time>2022-10-06T12:33:44Z</time>
      </trkpt>
      <trkpt lat="44.77927" lon="-0.13096">
        <ele>65.8</ele>
        <time>2022-10-06T12:33:45Z</time>
      </trkpt>
      <trkpt lat="44.77927" lon="-0.13097">
        <ele>65.8</ele>
        <time>2022-10-06T12:33:46Z</time>
      </trkpt>
      <trkpt lat="44.77927" lon="-0.13099">
        <ele>65.8</ele>
        <time>2022-10-06T12:33:47Z</time>
      </trkpt>
      <trkpt lat="44.77928" lon="-0.13101">
        <ele>65.7</ele>
        <time>2022-10-06T12:33:48Z</time>
      </trkpt>
      <trkpt lat="44.77928" lon="-0.13103">
        <ele>65.8</ele>
        <time>2022-10-06T12:33:49Z</time>
      </trkpt>
      <trkpt lat="44.77928" lon="-0.13105">
        <ele>65.8</ele>
        <time>2022-10-06T12:33:50Z</time>
      </trkpt>
      <trkpt lat="44.77929" lon="-0.13106">
        <ele>65.9</ele>
        <time>2022-10-06T12:33:51Z</time>
      </trkpt>
      <trkpt lat="44.77929" lon="-0.13108">
        <ele>66</ele>
        <time>2022-10-06T12:33:52Z</time>
      </trkpt>
      <trkpt lat="44.77929" lon="-0.1311">
        <ele>66</ele>
        <time>2022-10-06T12:33:53Z</time>
      </trkpt>
      <trkpt lat="44.77929" lon="-0.13112">
        <ele>66.1</ele>
        <time>2022-10-06T12:33:54Z</time>
      </trkpt>
      <trkpt lat="44.7793" lon="-0.13115">
        <ele>66.2</ele>
        <time>2022-10-06T12:33:55Z</time>
      </trkpt>
      <trkpt lat="44.7793" lon="-0.13116">
        <ele>66.3</ele>
        <time>2022-10-06T12:33:56Z</time>
      </trkpt>
      <trkpt lat="44.7793" lon="-0.13118">
        <ele>66.4</ele>
        <time>2022-10-06T12:33:57Z</time>
      </trkpt>
      <trkpt lat="44.7793" lon="-0.13119">
        <ele>66.4</ele>
        <time>2022-10-06T12:33:58Z</time>
      </trkpt>
      <trkpt lat="44.77931" lon="-0.13121">
        <ele>66.5</ele>
        <time>2022-10-06T12:33:59Z</time>
      </trkpt>
      <trkpt lat="44.77931" lon="-0.13123">
        <ele>66.6</ele>
        <time>2022-10-06T12:34:00Z</time>
      </trkpt>
      <trkpt lat="44.77931" lon="-0.13124">
        <ele>66.7</ele>
        <time>2022-10-06T12:34:01Z</time>
      </trkpt>
      <trkpt lat="44.77931" lon="-0.13126">
        <ele>66.7</ele>
        <time>2022-10-06T12:34:02Z</time>
      </trkpt>
      <trkpt lat="44.77932" lon="-0.13127">
        <ele>66.8</ele>
        <time>2022-10-06T12:34:03Z</time>
      </trkpt>
      <trkpt lat="44.77932" lon="-0.1313">
        <ele>66.9</ele>
        <time>2022-10-06T12:34:04Z</time>
      </trkpt>
      <trkpt lat="44.77932" lon="-0.13132">
        <ele>67</ele>
        <time>2022-10-06T12:34:05Z</time>
      </trkpt>
      <trkpt lat="44.77932" lon="-0.13133">
        <ele>67</ele>
        <time>2022-10-06T12:34:06Z</time>
      </trkpt>
      <trkpt lat="44.77933" lon="-0.13136">
        <ele>67.1</ele>
        <time>2022-10-06T12:34:07Z</time>
      </trkpt>
      <trkpt lat="44.77933" lon="-0.13137">
        <ele>67.2</ele>
        <time>2022-10-06T12:34:08Z</time>
      </trkpt>
      <trkpt lat="44.77933" lon="-0.13138">
        <ele>67.3</ele>
        <time>2022-10-06T12:34:09Z</time>
      </trkpt>
      <trkpt lat="44.77933" lon="-0.13142">
        <ele>67.4</ele>
        <time>2022-10-06T12:34:10Z</time>
      </trkpt>
      <trkpt lat="44.77934" lon="-0.13143">
        <ele>67.4</ele>
        <time>2022-10-06T12:34:11Z</time>
      </trkpt>
      <trkpt lat="44.77934" lon="-0.13144">
        <ele>67.5</ele>
        <time>2022-10-06T12:34:12Z</time>
      </trkpt>
      <trkpt lat="44.77934" lon="-0.13147">
        <ele>67.6</ele>
        <time>2022-10-06T12:34:13Z</time>
      </trkpt>
      <trkpt lat="44.77934" lon="-0.13148">
        <ele>67.7</ele>
        <time>2022-10-06T12:34:14Z</time>
      </trkpt>
      <trkpt lat="44.77934" lon="-0.13149">
        <ele>67.7</ele>
        <time>2022-10-06T12:34:15Z</time>
      </trkpt>
      <trkpt lat="44.77934" lon="-0.13151">
        <ele>67.8</ele>
        <time>2022-10-06T12:34:16Z</time>
      </trkpt>
      <trkpt lat="44.77934" lon="-0.13153">
        <ele>67.9</ele>
        <time>2022-10-06T12:34:17Z</time>
      </trkpt>
      <trkpt lat="44.77935" lon="-0.13155">
        <ele>68</ele>
        <time>2022-10-06T12:34:18Z</time>
      </trkpt>
      <trkpt lat="44.77935" lon="-0.13157">
        <ele>68.1</ele>
        <time>2022-10-06T12:34:19Z</time>
      </trkpt>
      <trkpt lat="44.77935" lon="-0.13159">
        <ele>68.2</ele>
        <time>2022-10-06T12:34:20Z</time>
      </trkpt>
      <trkpt lat="44.77935" lon="-0.13161">
        <ele>68.2</ele>
        <time>2022-10-06T12:34:21Z</time>
      </trkpt>
      <trkpt lat="44.77935" lon="-0.13162">
        <ele>68.3</ele>
        <time>2022-10-06T12:34:22Z</time>
      </trkpt>
      <trkpt lat="44.77935" lon="-0.13164">
        <ele>68.4</ele>
        <time>2022-10-06T12:34:23Z</time>
      </trkpt>
      <trkpt lat="44.77935" lon="-0.13165">
        <ele>68.5</ele>
        <time>2022-10-06T12:34:24Z</time>
      </trkpt>
      <trkpt lat="44.77936" lon="-0.13168">
        <ele>68.6</ele>
        <time>2022-10-06T12:34:25Z</time>
      </trkpt>
      <trkpt lat="44.77936" lon="-0.13169">
        <ele>68.6</ele>
        <time>2022-10-06T12:34:26Z</time>
      </trkpt>
      <trkpt lat="44.77936" lon="-0.13171">
        <ele>68.7</ele>
        <time>2022-10-06T12:34:27Z</time>
      </trkpt>
      <trkpt lat="44.77935" lon="-0.13172">
        <ele>68.8</ele>
        <time>2022-10-06T12:34:28Z</time>
      </trkpt>
      <trkpt lat="44.77935" lon="-0.13174">
        <ele>68.9</ele>
        <time>2022-10-06T12:34:29Z</time>
      </trkpt>
      <trkpt lat="44.77935" lon="-0.13176">
        <ele>69</ele>
        <time>2022-10-06T12:34:30Z</time>
      </trkpt>
      <trkpt lat="44.77935" lon="-0.13177">
        <ele>69</ele>
        <time>2022-10-06T12:34:31Z</time>
      </trkpt>
      <trkpt lat="44.77935" lon="-0.13179">
        <ele>69.1</ele>
        <time>2022-10-06T12:34:32Z</time>
      </trkpt>
      <trkpt lat="44.77935" lon="-0.1318">
        <ele>69.1</ele>
        <time>2022-10-06T12:34:33Z</time>
      </trkpt>
      <trkpt lat="44.77935" lon="-0.13182">
        <ele>69.2</ele>
        <time>2022-10-06T12:34:34Z</time>
      </trkpt>
      <trkpt lat="44.77936" lon="-0.13184">
        <ele>69.3</ele>
        <time>2022-10-06T12:34:35Z</time>
      </trkpt>
      <trkpt lat="44.77936" lon="-0.13185">
        <ele>69.4</ele>
        <time>2022-10-06T12:34:36Z</time>
      </trkpt>
      <trkpt lat="44.77936" lon="-0.13187">
        <ele>69.5</ele>
        <time>2022-10-06T12:34:37Z</time>
      </trkpt>
      <trkpt lat="44.77936" lon="-0.13189">
        <ele>69.5</ele>
        <time>2022-10-06T12:34:38Z</time>
      </trkpt>
      <trkpt lat="44.77936" lon="-0.1319">
        <ele>69.6</ele>
        <time>2022-10-06T12:34:39Z</time>
      </trkpt>
      <trkpt lat="44.77937" lon="-0.13193">
        <ele>69.7</ele>
        <time>2022-10-06T12:34:40Z</time>
      </trkpt>
      <trkpt lat="44.77937" lon="-0.13194">
        <ele>69.8</ele>
        <time>2022-10-06T12:34:41Z</time>
      </trkpt>
      <trkpt lat="44.77937" lon="-0.13196">
        <ele>69.9</ele>
        <time>2022-10-06T12:34:42Z</time>
      </trkpt>
      <trkpt lat="44.77937" lon="-0.13197">
        <ele>69.9</ele>
        <time>2022-10-06T12:34:43Z</time>
      </trkpt>
      <trkpt lat="44.77937" lon="-0.13199">
        <ele>70</ele>
        <time>2022-10-06T12:34:44Z</time>
      </trkpt>
      <trkpt lat="44.77937" lon="-0.13202">
        <ele>70.1</ele>
        <time>2022-10-06T12:34:45Z</time>
      </trkpt>
      <trkpt lat="44.77937" lon="-0.13203">
        <ele>70.2</ele>
        <time>2022-10-06T12:34:46Z</time>
      </trkpt>
      <trkpt lat="44.77937" lon="-0.13204">
        <ele>70.3</ele>
        <time>2022-10-06T12:34:47Z</time>
      </trkpt>
      <trkpt lat="44.77938" lon="-0.13206">
        <ele>70.3</ele>
        <time>2022-10-06T12:34:48Z</time>
      </trkpt>
      <trkpt lat="44.77937" lon="-0.13208">
        <ele>70.4</ele>
        <time>2022-10-06T12:34:49Z</time>
      </trkpt>
      <trkpt lat="44.77938" lon="-0.1321">
        <ele>70.5</ele>
        <time>2022-10-06T12:34:50Z</time>
      </trkpt>
      <trkpt lat="44.77938" lon="-0.13211">
        <ele>70.6</ele>
        <time>2022-10-06T12:34:51Z</time>
      </trkpt>
      <trkpt lat="44.77938" lon="-0.13213">
        <ele>70.6</ele>
        <time>2022-10-06T12:34:52Z</time>
      </trkpt>
      <trkpt lat="44.77938" lon="-0.13214">
        <ele>70.7</ele>
        <time>2022-10-06T12:34:53Z</time>
      </trkpt>
      <trkpt lat="44.77938" lon="-0.13217">
        <ele>70.8</ele>
        <time>2022-10-06T12:34:54Z</time>
      </trkpt>
      <trkpt lat="44.77938" lon="-0.13218">
        <ele>70.9</ele>
        <time>2022-10-06T12:34:55Z</time>
      </trkpt>
      <trkpt lat="44.77938" lon="-0.13219">
        <ele>70.9</ele>
        <time>2022-10-06T12:34:56Z</time>
      </trkpt>
      <trkpt lat="44.77938" lon="-0.13222">
        <ele>71</ele>
        <time>2022-10-06T12:34:57Z</time>
      </trkpt>
      <trkpt lat="44.77939" lon="-0.13223">
        <ele>71.1</ele>
        <time>2022-10-06T12:34:58Z</time>
      </trkpt>
      <trkpt lat="44.77939" lon="-0.13225">
        <ele>71.1</ele>
        <time>2022-10-06T12:34:59Z</time>
      </trkpt>
      <trkpt lat="44.77939" lon="-0.13227">
        <ele>71.3</ele>
        <time>2022-10-06T12:35:00Z</time>
      </trkpt>
      <trkpt lat="44.77939" lon="-0.13229">
        <ele>71.3</ele>
        <time>2022-10-06T12:35:01Z</time>
      </trkpt>
      <trkpt lat="44.77939" lon="-0.13232">
        <ele>71.5</ele>
        <time>2022-10-06T12:35:02Z</time>
      </trkpt>
      <trkpt lat="44.77939" lon="-0.13233">
        <ele>71.5</ele>
        <time>2022-10-06T12:35:03Z</time>
      </trkpt>
      <trkpt lat="44.77939" lon="-0.13234">
        <ele>71.6</ele>
        <time>2022-10-06T12:35:04Z</time>
      </trkpt>
      <trkpt lat="44.77939" lon="-0.13236">
        <ele>71.6</ele>
        <time>2022-10-06T12:35:05Z</time>
      </trkpt>
      <trkpt lat="44.7794" lon="-0.13238">
        <ele>71.7</ele>
        <time>2022-10-06T12:35:06Z</time>
      </trkpt>
      <trkpt lat="44.7794" lon="-0.13239">
        <ele>71.8</ele>
        <time>2022-10-06T12:35:07Z</time>
      </trkpt>
      <trkpt lat="44.7794" lon="-0.13241">
        <ele>71.9</ele>
        <time>2022-10-06T12:35:08Z</time>
      </trkpt>
      <trkpt lat="44.7794" lon="-0.13243">
        <ele>71.9</ele>
        <time>2022-10-06T12:35:09Z</time>
      </trkpt>
      <trkpt lat="44.7794" lon="-0.13245">
        <ele>72</ele>
        <time>2022-10-06T12:35:10Z</time>
      </trkpt>
      <trkpt lat="44.7794" lon="-0.13247">
        <ele>72.1</ele>
        <time>2022-10-06T12:35:11Z</time>
      </trkpt>
      <trkpt lat="44.77941" lon="-0.1325">
        <ele>72.2</ele>
        <time>2022-10-06T12:35:12Z</time>
      </trkpt>
      <trkpt lat="44.77941" lon="-0.13251">
        <ele>72.3</ele>
        <time>2022-10-06T12:35:13Z</time>
      </trkpt>
      <trkpt lat="44.77941" lon="-0.13252">
        <ele>72.3</ele>
        <time>2022-10-06T12:35:14Z</time>
      </trkpt>
      <trkpt lat="44.77942" lon="-0.13256">
        <ele>72.5</ele>
        <time>2022-10-06T12:35:15Z</time>
      </trkpt>
      <trkpt lat="44.77942" lon="-0.13257">
        <ele>72.5</ele>
        <time>2022-10-06T12:35:16Z</time>
      </trkpt>
      <trkpt lat="44.77942" lon="-0.13257">
        <ele>72.6</ele>
        <time>2022-10-06T12:35:17Z</time>
      </trkpt>
      <trkpt lat="44.77942" lon="-0.13259">
        <ele>72.6</ele>
        <time>2022-10-06T12:35:18Z</time>
      </trkpt>
      <trkpt lat="44.77942" lon="-0.13261">
        <ele>72.7</ele>
        <time>2022-10-06T12:35:19Z</time>
      </trkpt>
      <trkpt lat="44.77943" lon="-0.13265">
        <ele>72.9</ele>
        <time>2022-10-06T12:35:20Z</time>
      </trkpt>
      <trkpt lat="44.77943" lon="-0.13265">
        <ele>72.9</ele>
        <time>2022-10-06T12:35:21Z</time>
      </trkpt>
      <trkpt lat="44.77943" lon="-0.13267">
        <ele>72.9</ele>
        <time>2022-10-06T12:35:22Z</time>
      </trkpt>
      <trkpt lat="44.77943" lon="-0.13268">
        <ele>73</ele>
        <time>2022-10-06T12:35:23Z</time>
      </trkpt>
      <trkpt lat="44.77943" lon="-0.1327">
        <ele>73.1</ele>
        <time>2022-10-06T12:35:24Z</time>
      </trkpt>
      <trkpt lat="44.77943" lon="-0.13273">
        <ele>73.2</ele>
        <time>2022-10-06T12:35:25Z</time>
      </trkpt>
      <trkpt lat="44.77943" lon="-0.13274">
        <ele>73.2</ele>
        <time>2022-10-06T12:35:26Z</time>
      </trkpt>
      <trkpt lat="44.77943" lon="-0.13275">
        <ele>73.3</ele>
        <time>2022-10-06T12:35:27Z</time>
      </trkpt>
      <trkpt lat="44.77944" lon="-0.13277">
        <ele>73.4</ele>
        <time>2022-10-06T12:35:28Z</time>
      </trkpt>
      <trkpt lat="44.77944" lon="-0.13279">
        <ele>73.4</ele>
        <time>2022-10-06T12:35:29Z</time>
      </trkpt>
      <trkpt lat="44.77944" lon="-0.13282">
        <ele>73.6</ele>
        <time>2022-10-06T12:35:30Z</time>
      </trkpt>
      <trkpt lat="44.77944" lon="-0.13283">
        <ele>73.6</ele>
        <time>2022-10-06T12:35:31Z</time>
      </trkpt>
      <trkpt lat="44.77944" lon="-0.13285">
        <ele>73.7</ele>
        <time>2022-10-06T12:35:32Z</time>
      </trkpt>
      <trkpt lat="44.77945" lon="-0.13286">
        <ele>73.7</ele>
        <time>2022-10-06T12:35:33Z</time>
      </trkpt>
      <trkpt lat="44.77945" lon="-0.13288">
        <ele>73.8</ele>
        <time>2022-10-06T12:35:34Z</time>
      </trkpt>
      <trkpt lat="44.77945" lon="-0.13291">
        <ele>73.9</ele>
        <time>2022-10-06T12:35:35Z</time>
      </trkpt>
      <trkpt lat="44.77945" lon="-0.13292">
        <ele>74</ele>
        <time>2022-10-06T12:35:36Z</time>
      </trkpt>
      <trkpt lat="44.77945" lon="-0.13293">
        <ele>74</ele>
        <time>2022-10-06T12:35:37Z</time>
      </trkpt>
      <trkpt lat="44.77945" lon="-0.13296">
        <ele>74.1</ele>
        <time>2022-10-06T12:35:38Z</time>
      </trkpt>
      <trkpt lat="44.77945" lon="-0.13298">
        <ele>74.2</ele>
        <time>2022-10-06T12:35:39Z</time>
      </trkpt>
      <trkpt lat="44.77945" lon="-0.13299">
        <ele>74.3</ele>
        <time>2022-10-06T12:35:40Z</time>
      </trkpt>
      <trkpt lat="44.77946" lon="-0.13302">
        <ele>74.4</ele>
        <time>2022-10-06T12:35:41Z</time>
      </trkpt>
      <trkpt lat="44.77946" lon="-0.13303">
        <ele>74.4</ele>
        <time>2022-10-06T12:35:42Z</time>
      </trkpt>
      <trkpt lat="44.77946" lon="-0.13304">
        <ele>74.5</ele>
        <time>2022-10-06T12:35:43Z</time>
      </trkpt>
      <trkpt lat="44.77946" lon="-0.13306">
        <ele>74.6</ele>
        <time>2022-10-06T12:35:44Z</time>
      </trkpt>
      <trkpt lat="44.77946" lon="-0.13309">
        <ele>74.7</ele>
        <time>2022-10-06T12:35:45Z</time>
      </trkpt>
      <trkpt lat="44.77946" lon="-0.13312">
        <ele>74.8</ele>
        <time>2022-10-06T12:35:46Z</time>
      </trkpt>
      <trkpt lat="44.77946" lon="-0.13313">
        <ele>74.8</ele>
        <time>2022-10-06T12:35:47Z</time>
      </trkpt>
      <trkpt lat="44.77946" lon="-0.13314">
        <ele>74.9</ele>
        <time>2022-10-06T12:35:48Z</time>
      </trkpt>
      <trkpt lat="44.77947" lon="-0.13316">
        <ele>74.9</ele>
        <time>2022-10-06T12:35:49Z</time>
      </trkpt>
      <trkpt lat="44.77947" lon="-0.13318">
        <ele>75</ele>
        <time>2022-10-06T12:35:50Z</time>
      </trkpt>
      <trkpt lat="44.77947" lon="-0.13319">
        <ele>75.1</ele>
        <time>2022-10-06T12:35:51Z</time>
      </trkpt>
      <trkpt lat="44.77947" lon="-0.13322">
        <ele>75.2</ele>
        <time>2022-10-06T12:35:52Z</time>
      </trkpt>
      <trkpt lat="44.77947" lon="-0.13323">
        <ele>75.3</ele>
        <time>2022-10-06T12:35:53Z</time>
      </trkpt>
      <trkpt lat="44.77947" lon="-0.13325">
        <ele>75.3</ele>
        <time>2022-10-06T12:35:54Z</time>
      </trkpt>
      <trkpt lat="44.77947" lon="-0.13328">
        <ele>75.4</ele>
        <time>2022-10-06T12:35:55Z</time>
      </trkpt>
      <trkpt lat="44.77947" lon="-0.13329">
        <ele>75.5</ele>
        <time>2022-10-06T12:35:56Z</time>
      </trkpt>
      <trkpt lat="44.77947" lon="-0.1333">
        <ele>75.5</ele>
        <time>2022-10-06T12:35:57Z</time>
      </trkpt>
      <trkpt lat="44.77948" lon="-0.13333">
        <ele>75.6</ele>
        <time>2022-10-06T12:35:58Z</time>
      </trkpt>
      <trkpt lat="44.77948" lon="-0.13334">
        <ele>75.7</ele>
        <time>2022-10-06T12:35:59Z</time>
      </trkpt>
      <trkpt lat="44.77948" lon="-0.13335">
        <ele>75.8</ele>
        <time>2022-10-06T12:36:00Z</time>
      </trkpt>
      <trkpt lat="44.77948" lon="-0.13337">
        <ele>75.8</ele>
        <time>2022-10-06T12:36:01Z</time>
      </trkpt>
      <trkpt lat="44.77948" lon="-0.13338">
        <ele>75.9</ele>
        <time>2022-10-06T12:36:02Z</time>
      </trkpt>
      <trkpt lat="44.77948" lon="-0.1334">
        <ele>76</ele>
        <time>2022-10-06T12:36:03Z</time>
      </trkpt>
      <trkpt lat="44.77948" lon="-0.13342">
        <ele>76</ele>
        <time>2022-10-06T12:36:04Z</time>
      </trkpt>
      <trkpt lat="44.77948" lon="-0.13344">
        <ele>76.1</ele>
        <time>2022-10-06T12:36:05Z</time>
      </trkpt>
      <trkpt lat="44.77948" lon="-0.13346">
        <ele>76.2</ele>
        <time>2022-10-06T12:36:06Z</time>
      </trkpt>
      <trkpt lat="44.77948" lon="-0.13347">
        <ele>76.2</ele>
        <time>2022-10-06T12:36:07Z</time>
      </trkpt>
      <trkpt lat="44.77948" lon="-0.13348">
        <ele>76.3</ele>
        <time>2022-10-06T12:36:08Z</time>
      </trkpt>
      <trkpt lat="44.77948" lon="-0.13351">
        <ele>76.4</ele>
        <time>2022-10-06T12:36:09Z</time>
      </trkpt>
      <trkpt lat="44.77949" lon="-0.13353">
        <ele>76.5</ele>
        <time>2022-10-06T12:36:10Z</time>
      </trkpt>
      <trkpt lat="44.77949" lon="-0.13355">
        <ele>76.6</ele>
        <time>2022-10-06T12:36:11Z</time>
      </trkpt>
      <trkpt lat="44.77949" lon="-0.13356">
        <ele>76.6</ele>
        <time>2022-10-06T12:36:12Z</time>
      </trkpt>
      <trkpt lat="44.77949" lon="-0.13357">
        <ele>76.7</ele>
        <time>2022-10-06T12:36:13Z</time>
      </trkpt>
      <trkpt lat="44.77949" lon="-0.13358">
        <ele>76.7</ele>
        <time>2022-10-06T12:36:14Z</time>
      </trkpt>
      <trkpt lat="44.77949" lon="-0.13361">
        <ele>76.9</ele>
        <time>2022-10-06T12:36:15Z</time>
      </trkpt>
      <trkpt lat="44.7795" lon="-0.13362">
        <ele>76.9</ele>
        <time>2022-10-06T12:36:16Z</time>
      </trkpt>
      <trkpt lat="44.7795" lon="-0.13363">
        <ele>76.9</ele>
        <time>2022-10-06T12:36:17Z</time>
      </trkpt>
      <trkpt lat="44.7795" lon="-0.13366">
        <ele>77</ele>
        <time>2022-10-06T12:36:18Z</time>
      </trkpt>
      <trkpt lat="44.7795" lon="-0.13368">
        <ele>77.1</ele>
        <time>2022-10-06T12:36:19Z</time>
      </trkpt>
      <trkpt lat="44.7795" lon="-0.13369">
        <ele>77.2</ele>
        <time>2022-10-06T12:36:20Z</time>
      </trkpt>
      <trkpt lat="44.7795" lon="-0.1337">
        <ele>77.2</ele>
        <time>2022-10-06T12:36:21Z</time>
      </trkpt>
      <trkpt lat="44.7795" lon="-0.13372">
        <ele>77.3</ele>
        <time>2022-10-06T12:36:22Z</time>
      </trkpt>
      <trkpt lat="44.7795" lon="-0.13374">
        <ele>77.4</ele>
        <time>2022-10-06T12:36:23Z</time>
      </trkpt>
      <trkpt lat="44.7795" lon="-0.13375">
        <ele>77.4</ele>
        <time>2022-10-06T12:36:24Z</time>
      </trkpt>
      <trkpt lat="44.7795" lon="-0.13379">
        <ele>77.6</ele>
        <time>2022-10-06T12:36:25Z</time>
      </trkpt>
      <trkpt lat="44.7795" lon="-0.1338">
        <ele>77.6</ele>
        <time>2022-10-06T12:36:26Z</time>
      </trkpt>
      <trkpt lat="44.7795" lon="-0.13381">
        <ele>77.7</ele>
        <time>2022-10-06T12:36:27Z</time>
      </trkpt>
      <trkpt lat="44.7795" lon="-0.13382">
        <ele>77.7</ele>
        <time>2022-10-06T12:36:28Z</time>
      </trkpt>
      <trkpt lat="44.7795" lon="-0.13384">
        <ele>77.8</ele>
        <time>2022-10-06T12:36:29Z</time>
      </trkpt>
      <trkpt lat="44.7795" lon="-0.13387">
        <ele>77.9</ele>
        <time>2022-10-06T12:36:30Z</time>
      </trkpt>
      <trkpt lat="44.7795" lon="-0.13388">
        <ele>78</ele>
        <time>2022-10-06T12:36:31Z</time>
      </trkpt>
      <trkpt lat="44.77951" lon="-0.13391">
        <ele>78.1</ele>
        <time>2022-10-06T12:36:32Z</time>
      </trkpt>
      <trkpt lat="44.77951" lon="-0.13393">
        <ele>78.2</ele>
        <time>2022-10-06T12:36:33Z</time>
      </trkpt>
      <trkpt lat="44.77952" lon="-0.13395">
        <ele>78.3</ele>
        <time>2022-10-06T12:36:34Z</time>
      </trkpt>
      <trkpt lat="44.77953" lon="-0.13397">
        <ele>78.4</ele>
        <time>2022-10-06T12:36:35Z</time>
      </trkpt>
      <trkpt lat="44.77953" lon="-0.13398">
        <ele>78.5</ele>
        <time>2022-10-06T12:36:36Z</time>
      </trkpt>
      <trkpt lat="44.77954" lon="-0.134">
        <ele>78.5</ele>
        <time>2022-10-06T12:36:37Z</time>
      </trkpt>
      <trkpt lat="44.77954" lon="-0.13402">
        <ele>78.7</ele>
        <time>2022-10-06T12:36:38Z</time>
      </trkpt>
      <trkpt lat="44.77954" lon="-0.13404">
        <ele>78.7</ele>
        <time>2022-10-06T12:36:39Z</time>
      </trkpt>
      <trkpt lat="44.77955" lon="-0.13405">
        <ele>78.8</ele>
        <time>2022-10-06T12:36:40Z</time>
      </trkpt>
      <trkpt lat="44.77955" lon="-0.13407">
        <ele>78.9</ele>
        <time>2022-10-06T12:36:41Z</time>
      </trkpt>
      <trkpt lat="44.77956" lon="-0.13408">
        <ele>79</ele>
        <time>2022-10-06T12:36:42Z</time>
      </trkpt>
      <trkpt lat="44.77956" lon="-0.1341">
        <ele>79.1</ele>
        <time>2022-10-06T12:36:43Z</time>
      </trkpt>
      <trkpt lat="44.77956" lon="-0.13411">
        <ele>79.1</ele>
        <time>2022-10-06T12:36:44Z</time>
      </trkpt>
      <trkpt lat="44.77956" lon="-0.13412">
        <ele>79.2</ele>
        <time>2022-10-06T12:36:45Z</time>
      </trkpt>
      <trkpt lat="44.77957" lon="-0.13414">
        <ele>79.3</ele>
        <time>2022-10-06T12:36:46Z</time>
      </trkpt>
      <trkpt lat="44.77957" lon="-0.13415">
        <ele>79.3</ele>
        <time>2022-10-06T12:36:47Z</time>
      </trkpt>
      <trkpt lat="44.77957" lon="-0.13417">
        <ele>79.4</ele>
        <time>2022-10-06T12:36:48Z</time>
      </trkpt>
      <trkpt lat="44.77957" lon="-0.1342">
        <ele>79.6</ele>
        <time>2022-10-06T12:36:49Z</time>
      </trkpt>
      <trkpt lat="44.77957" lon="-0.13421">
        <ele>79.6</ele>
        <time>2022-10-06T12:36:50Z</time>
      </trkpt>
      <trkpt lat="44.77957" lon="-0.13422">
        <ele>79.7</ele>
        <time>2022-10-06T12:36:51Z</time>
      </trkpt>
      <trkpt lat="44.77957" lon="-0.13424">
        <ele>79.8</ele>
        <time>2022-10-06T12:36:52Z</time>
      </trkpt>
      <trkpt lat="44.77957" lon="-0.13427">
        <ele>79.9</ele>
        <time>2022-10-06T12:36:53Z</time>
      </trkpt>
      <trkpt lat="44.77958" lon="-0.1343">
        <ele>80</ele>
        <time>2022-10-06T12:36:54Z</time>
      </trkpt>
      <trkpt lat="44.77958" lon="-0.13431">
        <ele>80.1</ele>
        <time>2022-10-06T12:36:55Z</time>
      </trkpt>
      <trkpt lat="44.77958" lon="-0.13432">
        <ele>80.2</ele>
        <time>2022-10-06T12:36:56Z</time>
      </trkpt>
      <trkpt lat="44.77958" lon="-0.13434">
        <ele>80.2</ele>
        <time>2022-10-06T12:36:57Z</time>
      </trkpt>
      <trkpt lat="44.77958" lon="-0.13437">
        <ele>80.3</ele>
        <time>2022-10-06T12:36:58Z</time>
      </trkpt>
      <trkpt lat="44.77958" lon="-0.13439">
        <ele>80.5</ele>
        <time>2022-10-06T12:36:59Z</time>
      </trkpt>
      <trkpt lat="44.77958" lon="-0.1344">
        <ele>80.5</ele>
        <time>2022-10-06T12:37:00Z</time>
      </trkpt>
      <trkpt lat="44.77959" lon="-0.13442">
        <ele>80.6</ele>
        <time>2022-10-06T12:37:01Z</time>
      </trkpt>
      <trkpt lat="44.77959" lon="-0.13444">
        <ele>80.7</ele>
        <time>2022-10-06T12:37:02Z</time>
      </trkpt>
      <trkpt lat="44.77959" lon="-0.13446">
        <ele>80.8</ele>
        <time>2022-10-06T12:37:03Z</time>
      </trkpt>
      <trkpt lat="44.77959" lon="-0.13447">
        <ele>80.8</ele>
        <time>2022-10-06T12:37:04Z</time>
      </trkpt>
      <trkpt lat="44.77959" lon="-0.13449">
        <ele>80.9</ele>
        <time>2022-10-06T12:37:05Z</time>
      </trkpt>
      <trkpt lat="44.77959" lon="-0.13451">
        <ele>80.9</ele>
        <time>2022-10-06T12:37:06Z</time>
      </trkpt>
      <trkpt lat="44.7796" lon="-0.13453">
        <ele>81</ele>
        <time>2022-10-06T12:37:07Z</time>
      </trkpt>
      <trkpt lat="44.7796" lon="-0.13455">
        <ele>81.1</ele>
        <time>2022-10-06T12:37:08Z</time>
      </trkpt>
      <trkpt lat="44.7796" lon="-0.13458">
        <ele>81.2</ele>
        <time>2022-10-06T12:37:09Z</time>
      </trkpt>
      <trkpt lat="44.7796" lon="-0.13459">
        <ele>81.3</ele>
        <time>2022-10-06T12:37:10Z</time>
      </trkpt>
      <trkpt lat="44.7796" lon="-0.13461">
        <ele>81.3</ele>
        <time>2022-10-06T12:37:11Z</time>
      </trkpt>
      <trkpt lat="44.77961" lon="-0.13463">
        <ele>81.4</ele>
        <time>2022-10-06T12:37:12Z</time>
      </trkpt>
      <trkpt lat="44.77961" lon="-0.13465">
        <ele>81.5</ele>
        <time>2022-10-06T12:37:13Z</time>
      </trkpt>
      <trkpt lat="44.77961" lon="-0.13466">
        <ele>81.5</ele>
        <time>2022-10-06T12:37:14Z</time>
      </trkpt>
      <trkpt lat="44.77962" lon="-0.13468">
        <ele>81.6</ele>
        <time>2022-10-06T12:37:15Z</time>
      </trkpt>
      <trkpt lat="44.77962" lon="-0.1347">
        <ele>81.7</ele>
        <time>2022-10-06T12:37:16Z</time>
      </trkpt>
      <trkpt lat="44.77962" lon="-0.13471">
        <ele>81.7</ele>
        <time>2022-10-06T12:37:17Z</time>
      </trkpt>
      <trkpt lat="44.77962" lon="-0.13474">
        <ele>81.8</ele>
        <time>2022-10-06T12:37:18Z</time>
      </trkpt>
      <trkpt lat="44.77962" lon="-0.13475">
        <ele>81.9</ele>
        <time>2022-10-06T12:37:19Z</time>
      </trkpt>
      <trkpt lat="44.77962" lon="-0.13477">
        <ele>81.9</ele>
        <time>2022-10-06T12:37:20Z</time>
      </trkpt>
      <trkpt lat="44.77962" lon="-0.13479">
        <ele>82</ele>
        <time>2022-10-06T12:37:21Z</time>
      </trkpt>
      <trkpt lat="44.77963" lon="-0.13483">
        <ele>82.1</ele>
        <time>2022-10-06T12:37:22Z</time>
      </trkpt>
      <trkpt lat="44.77963" lon="-0.13484">
        <ele>82.2</ele>
        <time>2022-10-06T12:37:23Z</time>
      </trkpt>
      <trkpt lat="44.77963" lon="-0.13486">
        <ele>82.3</ele>
        <time>2022-10-06T12:37:24Z</time>
      </trkpt>
      <trkpt lat="44.77963" lon="-0.13487">
        <ele>82.3</ele>
        <time>2022-10-06T12:37:25Z</time>
      </trkpt>
      <trkpt lat="44.77964" lon="-0.13489">
        <ele>82.4</ele>
        <time>2022-10-06T12:37:26Z</time>
      </trkpt>
      <trkpt lat="44.77964" lon="-0.13492">
        <ele>82.5</ele>
        <time>2022-10-06T12:37:27Z</time>
      </trkpt>
      <trkpt lat="44.77964" lon="-0.13494">
        <ele>82.6</ele>
        <time>2022-10-06T12:37:28Z</time>
      </trkpt>
      <trkpt lat="44.77964" lon="-0.13495">
        <ele>82.6</ele>
        <time>2022-10-06T12:37:29Z</time>
      </trkpt>
      <trkpt lat="44.77964" lon="-0.13497">
        <ele>82.7</ele>
        <time>2022-10-06T12:37:30Z</time>
      </trkpt>
      <trkpt lat="44.77964" lon="-0.13499">
        <ele>82.7</ele>
        <time>2022-10-06T12:37:31Z</time>
      </trkpt>
      <trkpt lat="44.77965" lon="-0.13501">
        <ele>82.8</ele>
        <time>2022-10-06T12:37:32Z</time>
      </trkpt>
      <trkpt lat="44.77965" lon="-0.13503">
        <ele>82.9</ele>
        <time>2022-10-06T12:37:33Z</time>
      </trkpt>
      <trkpt lat="44.77966" lon="-0.13506">
        <ele>83</ele>
        <time>2022-10-06T12:37:34Z</time>
      </trkpt>
      <trkpt lat="44.77966" lon="-0.13507">
        <ele>83</ele>
        <time>2022-10-06T12:37:35Z</time>
      </trkpt>
      <trkpt lat="44.77966" lon="-0.13508">
        <ele>83.1</ele>
        <time>2022-10-06T12:37:36Z</time>
      </trkpt>
      <trkpt lat="44.77966" lon="-0.1351">
        <ele>83.1</ele>
        <time>2022-10-06T12:37:37Z</time>
      </trkpt>
      <trkpt lat="44.77966" lon="-0.13513">
        <ele>83.3</ele>
        <time>2022-10-06T12:37:38Z</time>
      </trkpt>
      <trkpt lat="44.77966" lon="-0.13514">
        <ele>83.3</ele>
        <time>2022-10-06T12:37:39Z</time>
      </trkpt>
      <trkpt lat="44.77967" lon="-0.13516">
        <ele>83.4</ele>
        <time>2022-10-06T12:37:40Z</time>
      </trkpt>
      <trkpt lat="44.77967" lon="-0.13518">
        <ele>83.4</ele>
        <time>2022-10-06T12:37:41Z</time>
      </trkpt>
      <trkpt lat="44.77967" lon="-0.13519">
        <ele>83.5</ele>
        <time>2022-10-06T12:37:42Z</time>
      </trkpt>
      <trkpt lat="44.77967" lon="-0.13522">
        <ele>83.6</ele>
        <time>2022-10-06T12:37:43Z</time>
      </trkpt>
      <trkpt lat="44.77967" lon="-0.13523">
        <ele>83.6</ele>
        <time>2022-10-06T12:37:44Z</time>
      </trkpt>
      <trkpt lat="44.77967" lon="-0.13524">
        <ele>83.7</ele>
        <time>2022-10-06T12:37:45Z</time>
      </trkpt>
      <trkpt lat="44.77967" lon="-0.13526">
        <ele>83.7</ele>
        <time>2022-10-06T12:37:46Z</time>
      </trkpt>
      <trkpt lat="44.77967" lon="-0.13528">
        <ele>83.8</ele>
        <time>2022-10-06T12:37:47Z</time>
      </trkpt>
      <trkpt lat="44.77967" lon="-0.1353">
        <ele>83.9</ele>
        <time>2022-10-06T12:37:48Z</time>
      </trkpt>
      <trkpt lat="44.77967" lon="-0.13531">
        <ele>83.9</ele>
        <time>2022-10-06T12:37:49Z</time>
      </trkpt>
      <trkpt lat="44.77967" lon="-0.13533">
        <ele>83.9</ele>
        <time>2022-10-06T12:37:50Z</time>
      </trkpt>
      <trkpt lat="44.77968" lon="-0.13535">
        <ele>84</ele>
        <time>2022-10-06T12:37:51Z</time>
      </trkpt>
      <trkpt lat="44.77968" lon="-0.13536">
        <ele>84.1</ele>
        <time>2022-10-06T12:37:52Z</time>
      </trkpt>
      <trkpt lat="44.77968" lon="-0.13539">
        <ele>84.1</ele>
        <time>2022-10-06T12:37:53Z</time>
      </trkpt>
      <trkpt lat="44.77968" lon="-0.13541">
        <ele>84.2</ele>
        <time>2022-10-06T12:37:54Z</time>
      </trkpt>
      <trkpt lat="44.77968" lon="-0.13543">
        <ele>84.3</ele>
        <time>2022-10-06T12:37:55Z</time>
      </trkpt>
      <trkpt lat="44.77968" lon="-0.13544">
        <ele>84.3</ele>
        <time>2022-10-06T12:37:56Z</time>
      </trkpt>
      <trkpt lat="44.77968" lon="-0.13546">
        <ele>84.4</ele>
        <time>2022-10-06T12:37:57Z</time>
      </trkpt>
      <trkpt lat="44.77968" lon="-0.13548">
        <ele>84.4</ele>
        <time>2022-10-06T12:37:58Z</time>
      </trkpt>
      <trkpt lat="44.77969" lon="-0.13551">
        <ele>84.5</ele>
        <time>2022-10-06T12:37:59Z</time>
      </trkpt>
      <trkpt lat="44.77969" lon="-0.13552">
        <ele>84.6</ele>
        <time>2022-10-06T12:38:00Z</time>
      </trkpt>
      <trkpt lat="44.77969" lon="-0.13554">
        <ele>84.6</ele>
        <time>2022-10-06T12:38:01Z</time>
      </trkpt>
      <trkpt lat="44.77969" lon="-0.13556">
        <ele>84.7</ele>
        <time>2022-10-06T12:38:02Z</time>
      </trkpt>
      <trkpt lat="44.7797" lon="-0.13558">
        <ele>84.7</ele>
        <time>2022-10-06T12:38:03Z</time>
      </trkpt>
      <trkpt lat="44.7797" lon="-0.13561">
        <ele>84.8</ele>
        <time>2022-10-06T12:38:04Z</time>
      </trkpt>
      <trkpt lat="44.7797" lon="-0.13562">
        <ele>84.8</ele>
        <time>2022-10-06T12:38:05Z</time>
      </trkpt>
      <trkpt lat="44.7797" lon="-0.13564">
        <ele>84.9</ele>
        <time>2022-10-06T12:38:06Z</time>
      </trkpt>
      <trkpt lat="44.7797" lon="-0.13566">
        <ele>84.9</ele>
        <time>2022-10-06T12:38:07Z</time>
      </trkpt>
      <trkpt lat="44.77971" lon="-0.13568">
        <ele>85</ele>
        <time>2022-10-06T12:38:08Z</time>
      </trkpt>
      <trkpt lat="44.77971" lon="-0.13569">
        <ele>85</ele>
        <time>2022-10-06T12:38:09Z</time>
      </trkpt>
      <trkpt lat="44.77971" lon="-0.1357">
        <ele>85.1</ele>
        <time>2022-10-06T12:38:10Z</time>
      </trkpt>
      <trkpt lat="44.7797" lon="-0.13572">
        <ele>85.1</ele>
        <time>2022-10-06T12:38:11Z</time>
      </trkpt>
      <trkpt lat="44.77971" lon="-0.13575">
        <ele>85.2</ele>
        <time>2022-10-06T12:38:12Z</time>
      </trkpt>
      <trkpt lat="44.77971" lon="-0.13577">
        <ele>85.2</ele>
        <time>2022-10-06T12:38:13Z</time>
      </trkpt>
      <trkpt lat="44.77971" lon="-0.13578">
        <ele>85.3</ele>
        <time>2022-10-06T12:38:14Z</time>
      </trkpt>
      <trkpt lat="44.77971" lon="-0.13579">
        <ele>85.3</ele>
        <time>2022-10-06T12:38:15Z</time>
      </trkpt>
      <trkpt lat="44.77971" lon="-0.13582">
        <ele>85.4</ele>
        <time>2022-10-06T12:38:16Z</time>
      </trkpt>
      <trkpt lat="44.77971" lon="-0.13583">
        <ele>85.4</ele>
        <time>2022-10-06T12:38:17Z</time>
      </trkpt>
      <trkpt lat="44.77971" lon="-0.13586">
        <ele>85.5</ele>
        <time>2022-10-06T12:38:18Z</time>
      </trkpt>
      <trkpt lat="44.77971" lon="-0.13587">
        <ele>85.5</ele>
        <time>2022-10-06T12:38:19Z</time>
      </trkpt>
      <trkpt lat="44.77971" lon="-0.13589">
        <ele>85.5</ele>
        <time>2022-10-06T12:38:20Z</time>
      </trkpt>
      <trkpt lat="44.77971" lon="-0.13591">
        <ele>85.6</ele>
        <time>2022-10-06T12:38:21Z</time>
      </trkpt>
      <trkpt lat="44.77971" lon="-0.13594">
        <ele>85.6</ele>
        <time>2022-10-06T12:38:22Z</time>
      </trkpt>
      <trkpt lat="44.77971" lon="-0.13596">
        <ele>85.7</ele>
        <time>2022-10-06T12:38:23Z</time>
      </trkpt>
      <trkpt lat="44.7797" lon="-0.13597">
        <ele>85.7</ele>
        <time>2022-10-06T12:38:24Z</time>
      </trkpt>
      <trkpt lat="44.7797" lon="-0.13598">
        <ele>85.7</ele>
        <time>2022-10-06T12:38:25Z</time>
      </trkpt>
      <trkpt lat="44.7797" lon="-0.13599">
        <ele>85.8</ele>
        <time>2022-10-06T12:38:26Z</time>
      </trkpt>
      <trkpt lat="44.7797" lon="-0.136">
        <ele>85.8</ele>
        <time>2022-10-06T12:38:27Z</time>
      </trkpt>
      <trkpt lat="44.7797" lon="-0.13602">
        <ele>85.8</ele>
        <time>2022-10-06T12:38:28Z</time>
      </trkpt>
      <trkpt lat="44.77971" lon="-0.13603">
        <ele>85.8</ele>
        <time>2022-10-06T12:38:29Z</time>
      </trkpt>
      <trkpt lat="44.77971" lon="-0.13605">
        <ele>85.9</ele>
        <time>2022-10-06T12:38:30Z</time>
      </trkpt>
      <trkpt lat="44.77971" lon="-0.13606">
        <ele>85.9</ele>
        <time>2022-10-06T12:38:31Z</time>
      </trkpt>
      <trkpt lat="44.77972" lon="-0.13608">
        <ele>85.9</ele>
        <time>2022-10-06T12:38:32Z</time>
      </trkpt>
      <trkpt lat="44.77972" lon="-0.1361">
        <ele>85.9</ele>
        <time>2022-10-06T12:38:33Z</time>
      </trkpt>
      <trkpt lat="44.77972" lon="-0.13611">
        <ele>86</ele>
        <time>2022-10-06T12:38:34Z</time>
      </trkpt>
      <trkpt lat="44.77972" lon="-0.13613">
        <ele>86</ele>
        <time>2022-10-06T12:38:35Z</time>
      </trkpt>
      <trkpt lat="44.77971" lon="-0.13614">
        <ele>86</ele>
        <time>2022-10-06T12:38:36Z</time>
      </trkpt>
      <trkpt lat="44.77971" lon="-0.13616">
        <ele>86.1</ele>
        <time>2022-10-06T12:38:37Z</time>
      </trkpt>
      <trkpt lat="44.7797" lon="-0.13617">
        <ele>86.1</ele>
        <time>2022-10-06T12:38:38Z</time>
      </trkpt>
      <trkpt lat="44.7797" lon="-0.13619">
        <ele>86.1</ele>
        <time>2022-10-06T12:38:39Z</time>
      </trkpt>
      <trkpt lat="44.77969" lon="-0.13623">
        <ele>86.1</ele>
        <time>2022-10-06T12:38:40Z</time>
      </trkpt>
      <trkpt lat="44.77969" lon="-0.13623">
        <ele>86.1</ele>
        <time>2022-10-06T12:38:41Z</time>
      </trkpt>
      <trkpt lat="44.77969" lon="-0.13624">
        <ele>86.1</ele>
        <time>2022-10-06T12:38:42Z</time>
      </trkpt>
      <trkpt lat="44.77969" lon="-0.13625">
        <ele>86.2</ele>
        <time>2022-10-06T12:38:43Z</time>
      </trkpt>
      <trkpt lat="44.77969" lon="-0.13627">
        <ele>86.2</ele>
        <time>2022-10-06T12:38:44Z</time>
      </trkpt>
      <trkpt lat="44.77969" lon="-0.13628">
        <ele>86.2</ele>
        <time>2022-10-06T12:38:45Z</time>
      </trkpt>
      <trkpt lat="44.7797" lon="-0.13631">
        <ele>86.2</ele>
        <time>2022-10-06T12:38:46Z</time>
      </trkpt>
      <trkpt lat="44.77971" lon="-0.13632">
        <ele>86.2</ele>
        <time>2022-10-06T12:38:47Z</time>
      </trkpt>
      <trkpt lat="44.77971" lon="-0.13633">
        <ele>86.2</ele>
        <time>2022-10-06T12:38:48Z</time>
      </trkpt>
      <trkpt lat="44.77972" lon="-0.13634">
        <ele>86.3</ele>
        <time>2022-10-06T12:38:49Z</time>
      </trkpt>
      <trkpt lat="44.77972" lon="-0.13635">
        <ele>86.3</ele>
        <time>2022-10-06T12:38:50Z</time>
      </trkpt>
      <trkpt lat="44.77972" lon="-0.13637">
        <ele>86.3</ele>
        <time>2022-10-06T12:38:51Z</time>
      </trkpt>
      <trkpt lat="44.77973" lon="-0.13637">
        <ele>86.3</ele>
        <time>2022-10-06T12:38:52Z</time>
      </trkpt>
      <trkpt lat="44.77974" lon="-0.13639">
        <ele>86.3</ele>
        <time>2022-10-06T12:38:53Z</time>
      </trkpt>
      <trkpt lat="44.77974" lon="-0.1364">
        <ele>86.3</ele>
        <time>2022-10-06T12:38:54Z</time>
      </trkpt>
      <trkpt lat="44.77974" lon="-0.1364">
        <ele>86.3</ele>
        <time>2022-10-06T12:38:55Z</time>
      </trkpt>
      <trkpt lat="44.77974" lon="-0.13642">
        <ele>86.3</ele>
        <time>2022-10-06T12:38:56Z</time>
      </trkpt>
      <trkpt lat="44.77974" lon="-0.13644">
        <ele>86.3</ele>
        <time>2022-10-06T12:38:57Z</time>
      </trkpt>
      <trkpt lat="44.77974" lon="-0.13644">
        <ele>86.3</ele>
        <time>2022-10-06T12:38:58Z</time>
      </trkpt>
      <trkpt lat="44.77974" lon="-0.13644">
        <ele>86.3</ele>
        <time>2022-10-06T12:38:59Z</time>
      </trkpt>
      <trkpt lat="44.77973" lon="-0.13643">
        <ele>86.3</ele>
        <time>2022-10-06T12:39:00Z</time>
      </trkpt>
      <trkpt lat="44.77973" lon="-0.13643">
        <ele>86.3</ele>
        <time>2022-10-06T12:39:01Z</time>
      </trkpt>
      <trkpt lat="44.77973" lon="-0.13643">
        <ele>86.3</ele>
        <time>2022-10-06T12:39:02Z</time>
      </trkpt>
      <trkpt lat="44.77973" lon="-0.13644">
        <ele>86.3</ele>
        <time>2022-10-06T12:39:03Z</time>
      </trkpt>
      <trkpt lat="44.77973" lon="-0.13644">
        <ele>86.3</ele>
        <time>2022-10-06T12:39:04Z</time>
      </trkpt>
      <trkpt lat="44.77973" lon="-0.13644">
        <ele>86.3</ele>
        <time>2022-10-06T12:39:05Z</time>
      </trkpt>
      <trkpt lat="44.77973" lon="-0.13644">
        <ele>86.3</ele>
        <time>2022-10-06T12:39:06Z</time>
      </trkpt>
      <trkpt lat="44.77973" lon="-0.13644">
        <ele>86.3</ele>
        <time>2022-10-06T12:39:07Z</time>
      </trkpt>
      <trkpt lat="44.77973" lon="-0.13644">
        <ele>86.3</ele>
        <time>2022-10-06T12:39:08Z</time>
      </trkpt>
      <trkpt lat="44.77973" lon="-0.13644">
        <ele>86.3</ele>
        <time>2022-10-06T12:39:09Z</time>
      </trkpt>
      <trkpt lat="44.77973" lon="-0.13644">
        <ele>86.3</ele>
        <time>2022-10-06T12:39:10Z</time>
      </trkpt>
      <trkpt lat="44.77973" lon="-0.13644">
        <ele>86.3</ele>
        <time>2022-10-06T12:39:11Z</time>
      </trkpt>
      <trkpt lat="44.77973" lon="-0.13644">
        <ele>86.3</ele>
        <time>2022-10-06T12:39:12Z</time>
      </trkpt>
      <trkpt lat="44.77973" lon="-0.13643">
        <ele>86.3</ele>
        <time>2022-10-06T12:39:13Z</time>
      </trkpt>
      <trkpt lat="44.77972" lon="-0.13643">
        <ele>86.3</ele>
        <time>2022-10-06T12:39:14Z</time>
      </trkpt>
      <trkpt lat="44.77972" lon="-0.13643">
        <ele>86.3</ele>
        <time>2022-10-06T12:39:15Z</time>
      </trkpt>
      <trkpt lat="44.77972" lon="-0.13642">
        <ele>86.3</ele>
        <time>2022-10-06T12:39:16Z</time>
      </trkpt>
      <trkpt lat="44.77972" lon="-0.13642">
        <ele>86.4</ele>
        <time>2022-10-06T12:39:17Z</time>
      </trkpt>
      <trkpt lat="44.77972" lon="-0.13641">
        <ele>86.4</ele>
        <time>2022-10-06T12:39:18Z</time>
      </trkpt>
      <trkpt lat="44.77972" lon="-0.13641">
        <ele>86.4</ele>
        <time>2022-10-06T12:39:19Z</time>
      </trkpt>
      <trkpt lat="44.77972" lon="-0.13641">
        <ele>86.4</ele>
        <time>2022-10-06T12:39:20Z</time>
      </trkpt>
      <trkpt lat="44.77972" lon="-0.13641">
        <ele>86.4</ele>
        <time>2022-10-06T12:39:22Z</time>
      </trkpt>
      <trkpt lat="44.77972" lon="-0.13641">
        <ele>86.4</ele>
        <time>2022-10-06T12:39:23Z</time>
      </trkpt>
      <trkpt lat="44.77972" lon="-0.1364">
        <ele>86.4</ele>
        <time>2022-10-06T12:39:24Z</time>
      </trkpt>
      <trkpt lat="44.77972" lon="-0.1364">
        <ele>86.4</ele>
        <time>2022-10-06T12:39:25Z</time>
      </trkpt>
      <trkpt lat="44.77972" lon="-0.1364">
        <ele>86.4</ele>
        <time>2022-10-06T12:39:26Z</time>
      </trkpt>
      <trkpt lat="44.77972" lon="-0.1364">
        <ele>86.4</ele>
        <time>2022-10-06T12:39:27Z</time>
      </trkpt>
      <trkpt lat="44.77972" lon="-0.1364">
        <ele>86.4</ele>
        <time>2022-10-06T12:39:28Z</time>
      </trkpt>
      <trkpt lat="44.77972" lon="-0.1364">
        <ele>86.4</ele>
        <time>2022-10-06T12:39:29Z</time>
      </trkpt>
      <trkpt lat="44.77972" lon="-0.1364">
        <ele>86.4</ele>
        <time>2022-10-06T12:39:30Z</time>
      </trkpt>
      <trkpt lat="44.77972" lon="-0.1364">
        <ele>86.4</ele>
        <time>2022-10-06T12:39:31Z</time>
      </trkpt>
      <trkpt lat="44.77972" lon="-0.1364">
        <ele>86.4</ele>
        <time>2022-10-06T12:39:32Z</time>
      </trkpt>
      <trkpt lat="44.77972" lon="-0.1364">
        <ele>86.4</ele>
        <time>2022-10-06T12:39:33Z</time>
      </trkpt>
      <trkpt lat="44.77972" lon="-0.1364">
        <ele>86.4</ele>
        <time>2022-10-06T12:39:34Z</time>
      </trkpt>
      <trkpt lat="44.77972" lon="-0.1364">
        <ele>86.4</ele>
        <time>2022-10-06T12:39:35Z</time>
      </trkpt>
      <trkpt lat="44.77972" lon="-0.1364">
        <ele>86.4</ele>
        <time>2022-10-06T12:39:36Z</time>
      </trkpt>
      <trkpt lat="44.77972" lon="-0.1364">
        <ele>86.4</ele>
        <time>2022-10-06T12:39:37Z</time>
      </trkpt>
      <trkpt lat="44.77972" lon="-0.1364">
        <ele>86.4</ele>
        <time>2022-10-06T12:39:38Z</time>
      </trkpt>
      <trkpt lat="44.77972" lon="-0.1364">
        <ele>86.4</ele>
        <time>2022-10-06T12:39:39Z</time>
      </trkpt>
      <trkpt lat="44.77972" lon="-0.1364">
        <ele>86.4</ele>
        <time>2022-10-06T12:39:40Z</time>
      </trkpt>
      <trkpt lat="44.77972" lon="-0.1364">
        <ele>86.4</ele>
        <time>2022-10-06T12:39:41Z</time>
      </trkpt>
      <trkpt lat="44.77972" lon="-0.1364">
        <ele>86.4</ele>
        <time>2022-10-06T12:39:42Z</time>
      </trkpt>
      <trkpt lat="44.77972" lon="-0.1364">
        <ele>86.4</ele>
        <time>2022-10-06T12:39:43Z</time>
      </trkpt>
      <trkpt lat="44.77972" lon="-0.1364">
        <ele>86.4</ele>
        <time>2022-10-06T12:39:44Z</time>
      </trkpt>
      <trkpt lat="44.77972" lon="-0.1364">
        <ele>86.4</ele>
        <time>2022-10-06T12:39:45Z</time>
      </trkpt>
      <trkpt lat="44.77972" lon="-0.1364">
        <ele>86.4</ele>
        <time>2022-10-06T12:39:46Z</time>
      </trkpt>
      <trkpt lat="44.77972" lon="-0.1364">
        <ele>86.4</ele>
        <time>2022-10-06T12:39:47Z</time>
      </trkpt>
      <trkpt lat="44.77972" lon="-0.1364">
        <ele>86.4</ele>
        <time>2022-10-06T12:39:48Z</time>
      </trkpt>
      <trkpt lat="44.77972" lon="-0.1364">
        <ele>86.4</ele>
        <time>2022-10-06T12:39:49Z</time>
      </trkpt>
      <trkpt lat="44.77972" lon="-0.1364">
        <ele>86.4</ele>
        <time>2022-10-06T12:39:50Z</time>
      </trkpt>
      <trkpt lat="44.77972" lon="-0.1364">
        <ele>86.4</ele>
        <time>2022-10-06T12:39:51Z</time>
      </trkpt>
      <trkpt lat="44.77972" lon="-0.1364">
        <ele>86.4</ele>
        <time>2022-10-06T12:39:52Z</time>
      </trkpt>
      <trkpt lat="44.77972" lon="-0.1364">
        <ele>86.4</ele>
        <time>2022-10-06T12:39:53Z</time>
      </trkpt>
      <trkpt lat="44.77972" lon="-0.1364">
        <ele>86.4</ele>
        <time>2022-10-06T12:39:54Z</time>
      </trkpt>
      <trkpt lat="44.77972" lon="-0.1364">
        <ele>86.4</ele>
        <time>2022-10-06T12:39:55Z</time>
      </trkpt>
      <trkpt lat="44.77972" lon="-0.1364">
        <ele>86.4</ele>
        <time>2022-10-06T12:39:56Z</time>
      </trkpt>
      <trkpt lat="44.77972" lon="-0.1364">
        <ele>86.4</ele>
        <time>2022-10-06T12:39:57Z</time>
      </trkpt>
      <trkpt lat="44.77972" lon="-0.1364">
        <ele>86.4</ele>
        <time>2022-10-06T12:39:58Z</time>
      </trkpt>
      <trkpt lat="44.77972" lon="-0.1364">
        <ele>86.4</ele>
        <time>2022-10-06T12:39:59Z</time>
      </trkpt>
      <trkpt lat="44.77972" lon="-0.1364">
        <ele>86.4</ele>
        <time>2022-10-06T12:40:00Z</time>
      </trkpt>
      <trkpt lat="44.77972" lon="-0.1364">
        <ele>86.4</ele>
        <time>2022-10-06T12:40:01Z</time>
      </trkpt>
      <trkpt lat="44.77972" lon="-0.1364">
        <ele>86.4</ele>
        <time>2022-10-06T12:40:02Z</time>
      </trkpt>
      <trkpt lat="44.77972" lon="-0.1364">
        <ele>86.4</ele>
        <time>2022-10-06T12:40:03Z</time>
      </trkpt>
      <trkpt lat="44.77972" lon="-0.1364">
        <ele>86.4</ele>
        <time>2022-10-06T12:40:04Z</time>
      </trkpt>
      <trkpt lat="44.77972" lon="-0.1364">
        <ele>86.4</ele>
        <time>2022-10-06T12:40:05Z</time>
      </trkpt>
      <trkpt lat="44.77972" lon="-0.1364">
        <ele>86.4</ele>
        <time>2022-10-06T12:40:06Z</time>
      </trkpt>
      <trkpt lat="44.77972" lon="-0.1364">
        <ele>86.4</ele>
        <time>2022-10-06T12:40:07Z</time>
      </trkpt>
      <trkpt lat="44.77972" lon="-0.13639">
        <ele>86.4</ele>
        <time>2022-10-06T12:40:08Z</time>
      </trkpt>
      <trkpt lat="44.77972" lon="-0.13639">
        <ele>86.4</ele>
        <time>2022-10-06T12:40:09Z</time>
      </trkpt>
      <trkpt lat="44.77972" lon="-0.13639">
        <ele>86.4</ele>
        <time>2022-10-06T12:40:10Z</time>
      </trkpt>
      <trkpt lat="44.77971" lon="-0.13639">
        <ele>86.4</ele>
        <time>2022-10-06T12:40:11Z</time>
      </trkpt>
      <trkpt lat="44.77972" lon="-0.1364">
        <ele>86.4</ele>
        <time>2022-10-06T12:40:12Z</time>
      </trkpt>
      <trkpt lat="44.77972" lon="-0.1364">
        <ele>86.4</ele>
        <time>2022-10-06T12:40:13Z</time>
      </trkpt>
      <trkpt lat="44.77972" lon="-0.13639">
        <ele>86.4</ele>
        <time>2022-10-06T12:40:14Z</time>
      </trkpt>
      <trkpt lat="44.77972" lon="-0.13639">
        <ele>86.4</ele>
        <time>2022-10-06T12:40:15Z</time>
      </trkpt>
      <trkpt lat="44.77973" lon="-0.13638">
        <ele>86.4</ele>
        <time>2022-10-06T12:40:16Z</time>
      </trkpt>
      <trkpt lat="44.77973" lon="-0.13638">
        <ele>86.4</ele>
        <time>2022-10-06T12:40:17Z</time>
      </trkpt>
      <trkpt lat="44.77973" lon="-0.13638">
        <ele>86.4</ele>
        <time>2022-10-06T12:40:18Z</time>
      </trkpt>
      <trkpt lat="44.77973" lon="-0.13638">
        <ele>86.4</ele>
        <time>2022-10-06T12:40:19Z</time>
      </trkpt>
      <trkpt lat="44.77972" lon="-0.13639">
        <ele>86.4</ele>
        <time>2022-10-06T12:40:20Z</time>
      </trkpt>
      <trkpt lat="44.77972" lon="-0.13639">
        <ele>86.4</ele>
        <time>2022-10-06T12:40:21Z</time>
      </trkpt>
      <trkpt lat="44.77972" lon="-0.13639">
        <ele>86.4</ele>
        <time>2022-10-06T12:40:22Z</time>
      </trkpt>
      <trkpt lat="44.77972" lon="-0.13639">
        <ele>86.4</ele>
        <time>2022-10-06T12:40:23Z</time>
      </trkpt>
      <trkpt lat="44.77972" lon="-0.13639">
        <ele>86.4</ele>
        <time>2022-10-06T12:40:24Z</time>
      </trkpt>
      <trkpt lat="44.77972" lon="-0.13639">
        <ele>86.4</ele>
        <time>2022-10-06T12:40:25Z</time>
      </trkpt>
      <trkpt lat="44.77972" lon="-0.13639">
        <ele>86.4</ele>
        <time>2022-10-06T12:40:26Z</time>
      </trkpt>
      <trkpt lat="44.77973" lon="-0.13639">
        <ele>86.4</ele>
        <time>2022-10-06T12:40:27Z</time>
      </trkpt>
      <trkpt lat="44.77973" lon="-0.13639">
        <ele>86.4</ele>
        <time>2022-10-06T12:40:28Z</time>
      </trkpt>
      <trkpt lat="44.77973" lon="-0.13639">
        <ele>86.4</ele>
        <time>2022-10-06T12:40:29Z</time>
      </trkpt>
      <trkpt lat="44.77973" lon="-0.13639">
        <ele>86.4</ele>
        <time>2022-10-06T12:40:30Z</time>
      </trkpt>
      <trkpt lat="44.77973" lon="-0.13639">
        <ele>86.4</ele>
        <time>2022-10-06T12:40:31Z</time>
      </trkpt>
      <trkpt lat="44.77973" lon="-0.13639">
        <ele>86.4</ele>
        <time>2022-10-06T12:40:32Z</time>
      </trkpt>
      <trkpt lat="44.77973" lon="-0.13639">
        <ele>86.4</ele>
        <time>2022-10-06T12:40:33Z</time>
      </trkpt>
      <trkpt lat="44.77973" lon="-0.13639">
        <ele>86.4</ele>
        <time>2022-10-06T12:40:34Z</time>
      </trkpt>
      <trkpt lat="44.77973" lon="-0.13639">
        <ele>86.4</ele>
        <time>2022-10-06T12:40:35Z</time>
      </trkpt>
      <trkpt lat="44.77973" lon="-0.13639">
        <ele>86.4</ele>
        <time>2022-10-06T12:40:36Z</time>
      </trkpt>
      <trkpt lat="44.77973" lon="-0.13639">
        <ele>86.4</ele>
        <time>2022-10-06T12:40:37Z</time>
      </trkpt>
      <trkpt lat="44.77973" lon="-0.13639">
        <ele>86.4</ele>
        <time>2022-10-06T12:40:38Z</time>
      </trkpt>
      <trkpt lat="44.77973" lon="-0.13639">
        <ele>86.4</ele>
        <time>2022-10-06T12:40:39Z</time>
      </trkpt>
      <trkpt lat="44.77973" lon="-0.13639">
        <ele>86.4</ele>
        <time>2022-10-06T12:40:40Z</time>
      </trkpt>
      <trkpt lat="44.77973" lon="-0.13639">
        <ele>86.4</ele>
        <time>2022-10-06T12:40:41Z</time>
      </trkpt>
      <trkpt lat="44.77973" lon="-0.13639">
        <ele>86.4</ele>
        <time>2022-10-06T12:40:42Z</time>
      </trkpt>
      <trkpt lat="44.77973" lon="-0.13639">
        <ele>86.4</ele>
        <time>2022-10-06T12:40:43Z</time>
      </trkpt>
      <trkpt lat="44.77973" lon="-0.13639">
        <ele>86.4</ele>
        <time>2022-10-06T12:40:44Z</time>
      </trkpt>
      <trkpt lat="44.77973" lon="-0.1364">
        <ele>86.4</ele>
        <time>2022-10-06T12:40:45Z</time>
      </trkpt>
      <trkpt lat="44.77974" lon="-0.1364">
        <ele>86.4</ele>
        <time>2022-10-06T12:40:46Z</time>
      </trkpt>
      <trkpt lat="44.77974" lon="-0.13641">
        <ele>86.4</ele>
        <time>2022-10-06T12:40:47Z</time>
      </trkpt>
      <trkpt lat="44.77976" lon="-0.13644">
        <ele>86.4</ele>
        <time>2022-10-06T12:40:48Z</time>
      </trkpt>
      <trkpt lat="44.77976" lon="-0.13645">
        <ele>86.4</ele>
        <time>2022-10-06T12:40:49Z</time>
      </trkpt>
      <trkpt lat="44.77977" lon="-0.13646">
        <ele>86.4</ele>
        <time>2022-10-06T12:40:50Z</time>
      </trkpt>
      <trkpt lat="44.77978" lon="-0.13648">
        <ele>86.4</ele>
        <time>2022-10-06T12:40:51Z</time>
      </trkpt>
      <trkpt lat="44.77978" lon="-0.13649">
        <ele>86.4</ele>
        <time>2022-10-06T12:40:52Z</time>
      </trkpt>
      <trkpt lat="44.77979" lon="-0.1365">
        <ele>86.4</ele>
        <time>2022-10-06T12:40:53Z</time>
      </trkpt>
      <trkpt lat="44.77979" lon="-0.13651">
        <ele>86.4</ele>
        <time>2022-10-06T12:40:54Z</time>
      </trkpt>
      <trkpt lat="44.77979" lon="-0.13652">
        <ele>86.4</ele>
        <time>2022-10-06T12:40:55Z</time>
      </trkpt>
      <trkpt lat="44.7798" lon="-0.13654">
        <ele>86.4</ele>
        <time>2022-10-06T12:40:56Z</time>
      </trkpt>
      <trkpt lat="44.7798" lon="-0.13655">
        <ele>86.4</ele>
        <time>2022-10-06T12:40:57Z</time>
      </trkpt>
      <trkpt lat="44.77981" lon="-0.13657">
        <ele>86.4</ele>
        <time>2022-10-06T12:40:58Z</time>
      </trkpt>
      <trkpt lat="44.77982" lon="-0.13657">
        <ele>86.4</ele>
        <time>2022-10-06T12:40:59Z</time>
      </trkpt>
      <trkpt lat="44.77982" lon="-0.13659">
        <ele>86.4</ele>
        <time>2022-10-06T12:41:00Z</time>
      </trkpt>
      <trkpt lat="44.77983" lon="-0.1366">
        <ele>86.4</ele>
        <time>2022-10-06T12:41:01Z</time>
      </trkpt>
      <trkpt lat="44.77983" lon="-0.13661">
        <ele>86.4</ele>
        <time>2022-10-06T12:41:02Z</time>
      </trkpt>
      <trkpt lat="44.77984" lon="-0.13663">
        <ele>86.4</ele>
        <time>2022-10-06T12:41:03Z</time>
      </trkpt>
      <trkpt lat="44.77985" lon="-0.13664">
        <ele>86.4</ele>
        <time>2022-10-06T12:41:04Z</time>
      </trkpt>
      <trkpt lat="44.77985" lon="-0.13666">
        <ele>86.4</ele>
        <time>2022-10-06T12:41:05Z</time>
      </trkpt>
      <trkpt lat="44.77986" lon="-0.13668">
        <ele>86.4</ele>
        <time>2022-10-06T12:41:06Z</time>
      </trkpt>
      <trkpt lat="44.77986" lon="-0.1367">
        <ele>86.4</ele>
        <time>2022-10-06T12:41:07Z</time>
      </trkpt>
      <trkpt lat="44.77987" lon="-0.13671">
        <ele>86.4</ele>
        <time>2022-10-06T12:41:08Z</time>
      </trkpt>
      <trkpt lat="44.77987" lon="-0.13672">
        <ele>86.4</ele>
        <time>2022-10-06T12:41:09Z</time>
      </trkpt>
      <trkpt lat="44.77988" lon="-0.13673">
        <ele>86.3</ele>
        <time>2022-10-06T12:41:10Z</time>
      </trkpt>
      <trkpt lat="44.77989" lon="-0.13674">
        <ele>86.3</ele>
        <time>2022-10-06T12:41:11Z</time>
      </trkpt>
      <trkpt lat="44.77989" lon="-0.13675">
        <ele>86.3</ele>
        <time>2022-10-06T12:41:12Z</time>
      </trkpt>
      <trkpt lat="44.77989" lon="-0.13677">
        <ele>86.3</ele>
        <time>2022-10-06T12:41:13Z</time>
      </trkpt>
      <trkpt lat="44.7799" lon="-0.13678">
        <ele>86.3</ele>
        <time>2022-10-06T12:41:14Z</time>
      </trkpt>
      <trkpt lat="44.77991" lon="-0.1368">
        <ele>86.3</ele>
        <time>2022-10-06T12:41:15Z</time>
      </trkpt>
      <trkpt lat="44.77992" lon="-0.13681">
        <ele>86.3</ele>
        <time>2022-10-06T12:41:16Z</time>
      </trkpt>
      <trkpt lat="44.77992" lon="-0.13682">
        <ele>86.3</ele>
        <time>2022-10-06T12:41:17Z</time>
      </trkpt>
      <trkpt lat="44.77993" lon="-0.13685">
        <ele>86.2</ele>
        <time>2022-10-06T12:41:18Z</time>
      </trkpt>
      <trkpt lat="44.77994" lon="-0.13686">
        <ele>86.2</ele>
        <time>2022-10-06T12:41:19Z</time>
      </trkpt>
      <trkpt lat="44.77994" lon="-0.13687">
        <ele>86.2</ele>
        <time>2022-10-06T12:41:20Z</time>
      </trkpt>
      <trkpt lat="44.77995" lon="-0.1369">
        <ele>86.2</ele>
        <time>2022-10-06T12:41:21Z</time>
      </trkpt>
      <trkpt lat="44.77995" lon="-0.13691">
        <ele>86.2</ele>
        <time>2022-10-06T12:41:22Z</time>
      </trkpt>
      <trkpt lat="44.77996" lon="-0.13693">
        <ele>86.2</ele>
        <time>2022-10-06T12:41:23Z</time>
      </trkpt>
      <trkpt lat="44.77996" lon="-0.13694">
        <ele>86.1</ele>
        <time>2022-10-06T12:41:24Z</time>
      </trkpt>
      <trkpt lat="44.77996" lon="-0.13696">
        <ele>86.1</ele>
        <time>2022-10-06T12:41:25Z</time>
      </trkpt>
      <trkpt lat="44.77997" lon="-0.13696">
        <ele>86.1</ele>
        <time>2022-10-06T12:41:26Z</time>
      </trkpt>
      <trkpt lat="44.77997" lon="-0.13697">
        <ele>86.1</ele>
        <time>2022-10-06T12:41:27Z</time>
      </trkpt>
      <trkpt lat="44.77998" lon="-0.13699">
        <ele>86.1</ele>
        <time>2022-10-06T12:41:28Z</time>
      </trkpt>
      <trkpt lat="44.77998" lon="-0.137">
        <ele>86.1</ele>
        <time>2022-10-06T12:41:29Z</time>
      </trkpt>
      <trkpt lat="44.77999" lon="-0.13701">
        <ele>86.1</ele>
        <time>2022-10-06T12:41:30Z</time>
      </trkpt>
      <trkpt lat="44.78" lon="-0.13704">
        <ele>86.1</ele>
        <time>2022-10-06T12:41:31Z</time>
      </trkpt>
      <trkpt lat="44.78" lon="-0.13705">
        <ele>86.1</ele>
        <time>2022-10-06T12:41:32Z</time>
      </trkpt>
      <trkpt lat="44.78001" lon="-0.13706">
        <ele>86</ele>
        <time>2022-10-06T12:41:33Z</time>
      </trkpt>
      <trkpt lat="44.78002" lon="-0.13707">
        <ele>86</ele>
        <time>2022-10-06T12:41:34Z</time>
      </trkpt>
      <trkpt lat="44.78002" lon="-0.13708">
        <ele>86</ele>
        <time>2022-10-06T12:41:35Z</time>
      </trkpt>
      <trkpt lat="44.78003" lon="-0.13709">
        <ele>86</ele>
        <time>2022-10-06T12:41:36Z</time>
      </trkpt>
      <trkpt lat="44.78004" lon="-0.1371">
        <ele>85.9</ele>
        <time>2022-10-06T12:41:37Z</time>
      </trkpt>
      <trkpt lat="44.78005" lon="-0.13711">
        <ele>85.9</ele>
        <time>2022-10-06T12:41:38Z</time>
      </trkpt>
      <trkpt lat="44.78006" lon="-0.13713">
        <ele>85.9</ele>
        <time>2022-10-06T12:41:39Z</time>
      </trkpt>
      <trkpt lat="44.78006" lon="-0.13714">
        <ele>85.9</ele>
        <time>2022-10-06T12:41:40Z</time>
      </trkpt>
      <trkpt lat="44.78007" lon="-0.13716">
        <ele>85.8</ele>
        <time>2022-10-06T12:41:41Z</time>
      </trkpt>
      <trkpt lat="44.78007" lon="-0.13717">
        <ele>85.8</ele>
        <time>2022-10-06T12:41:42Z</time>
      </trkpt>
      <trkpt lat="44.78008" lon="-0.1372">
        <ele>85.7</ele>
        <time>2022-10-06T12:41:43Z</time>
      </trkpt>
      <trkpt lat="44.78008" lon="-0.1372">
        <ele>85.7</ele>
        <time>2022-10-06T12:41:44Z</time>
      </trkpt>
      <trkpt lat="44.78009" lon="-0.13722">
        <ele>85.7</ele>
        <time>2022-10-06T12:41:45Z</time>
      </trkpt>
      <trkpt lat="44.78009" lon="-0.13723">
        <ele>85.7</ele>
        <time>2022-10-06T12:41:46Z</time>
      </trkpt>
      <trkpt lat="44.7801" lon="-0.13725">
        <ele>85.7</ele>
        <time>2022-10-06T12:41:47Z</time>
      </trkpt>
      <trkpt lat="44.78011" lon="-0.13727">
        <ele>85.6</ele>
        <time>2022-10-06T12:41:48Z</time>
      </trkpt>
      <trkpt lat="44.78011" lon="-0.13729">
        <ele>85.6</ele>
        <time>2022-10-06T12:41:49Z</time>
      </trkpt>
      <trkpt lat="44.78012" lon="-0.1373">
        <ele>85.5</ele>
        <time>2022-10-06T12:41:50Z</time>
      </trkpt>
      <trkpt lat="44.78012" lon="-0.13731">
        <ele>85.5</ele>
        <time>2022-10-06T12:41:51Z</time>
      </trkpt>
      <trkpt lat="44.78012" lon="-0.13732">
        <ele>85.5</ele>
        <time>2022-10-06T12:41:52Z</time>
      </trkpt>
      <trkpt lat="44.78013" lon="-0.13735">
        <ele>85.5</ele>
        <time>2022-10-06T12:41:53Z</time>
      </trkpt>
      <trkpt lat="44.78014" lon="-0.13736">
        <ele>85.4</ele>
        <time>2022-10-06T12:41:54Z</time>
      </trkpt>
      <trkpt lat="44.78014" lon="-0.13738">
        <ele>85.4</ele>
        <time>2022-10-06T12:41:55Z</time>
      </trkpt>
      <trkpt lat="44.78014" lon="-0.13738">
        <ele>85.4</ele>
        <time>2022-10-06T12:41:56Z</time>
      </trkpt>
      <trkpt lat="44.78015" lon="-0.13739">
        <ele>85.4</ele>
        <time>2022-10-06T12:41:57Z</time>
      </trkpt>
      <trkpt lat="44.78015" lon="-0.1374">
        <ele>85.3</ele>
        <time>2022-10-06T12:41:58Z</time>
      </trkpt>
      <trkpt lat="44.78016" lon="-0.13742">
        <ele>85.3</ele>
        <time>2022-10-06T12:41:59Z</time>
      </trkpt>
      <trkpt lat="44.78016" lon="-0.13743">
        <ele>85.3</ele>
        <time>2022-10-06T12:42:00Z</time>
      </trkpt>
      <trkpt lat="44.78017" lon="-0.13745">
        <ele>85.3</ele>
        <time>2022-10-06T12:42:01Z</time>
      </trkpt>
      <trkpt lat="44.78017" lon="-0.13746">
        <ele>85.2</ele>
        <time>2022-10-06T12:42:02Z</time>
      </trkpt>
      <trkpt lat="44.78018" lon="-0.13749">
        <ele>85.2</ele>
        <time>2022-10-06T12:42:03Z</time>
      </trkpt>
      <trkpt lat="44.78018" lon="-0.1375">
        <ele>85.2</ele>
        <time>2022-10-06T12:42:04Z</time>
      </trkpt>
      <trkpt lat="44.78019" lon="-0.13751">
        <ele>85.2</ele>
        <time>2022-10-06T12:42:05Z</time>
      </trkpt>
      <trkpt lat="44.7802" lon="-0.13754">
        <ele>85.1</ele>
        <time>2022-10-06T12:42:06Z</time>
      </trkpt>
      <trkpt lat="44.7802" lon="-0.13755">
        <ele>85.1</ele>
        <time>2022-10-06T12:42:07Z</time>
      </trkpt>
      <trkpt lat="44.78021" lon="-0.13757">
        <ele>85.1</ele>
        <time>2022-10-06T12:42:08Z</time>
      </trkpt>
      <trkpt lat="44.78021" lon="-0.13758">
        <ele>85</ele>
        <time>2022-10-06T12:42:09Z</time>
      </trkpt>
      <trkpt lat="44.78021" lon="-0.13759">
        <ele>85</ele>
        <time>2022-10-06T12:42:10Z</time>
      </trkpt>
      <trkpt lat="44.78022" lon="-0.13761">
        <ele>85</ele>
        <time>2022-10-06T12:42:11Z</time>
      </trkpt>
      <trkpt lat="44.78022" lon="-0.13762">
        <ele>85</ele>
        <time>2022-10-06T12:42:12Z</time>
      </trkpt>
      <trkpt lat="44.78023" lon="-0.13765">
        <ele>84.9</ele>
        <time>2022-10-06T12:42:13Z</time>
      </trkpt>
      <trkpt lat="44.78023" lon="-0.13767">
        <ele>84.9</ele>
        <time>2022-10-06T12:42:14Z</time>
      </trkpt>
      <trkpt lat="44.78024" lon="-0.13768">
        <ele>84.9</ele>
        <time>2022-10-06T12:42:15Z</time>
      </trkpt>
      <trkpt lat="44.78024" lon="-0.13769">
        <ele>84.9</ele>
        <time>2022-10-06T12:42:16Z</time>
      </trkpt>
      <trkpt lat="44.78024" lon="-0.1377">
        <ele>84.9</ele>
        <time>2022-10-06T12:42:17Z</time>
      </trkpt>
      <trkpt lat="44.78025" lon="-0.13772">
        <ele>84.8</ele>
        <time>2022-10-06T12:42:18Z</time>
      </trkpt>
      <trkpt lat="44.78025" lon="-0.13773">
        <ele>84.8</ele>
        <time>2022-10-06T12:42:19Z</time>
      </trkpt>
      <trkpt lat="44.78026" lon="-0.13775">
        <ele>84.8</ele>
        <time>2022-10-06T12:42:20Z</time>
      </trkpt>
      <trkpt lat="44.78026" lon="-0.13777">
        <ele>84.7</ele>
        <time>2022-10-06T12:42:21Z</time>
      </trkpt>
      <trkpt lat="44.78027" lon="-0.13778">
        <ele>84.7</ele>
        <time>2022-10-06T12:42:22Z</time>
      </trkpt>
      <trkpt lat="44.78027" lon="-0.13779">
        <ele>84.7</ele>
        <time>2022-10-06T12:42:23Z</time>
      </trkpt>
      <trkpt lat="44.78028" lon="-0.13781">
        <ele>84.7</ele>
        <time>2022-10-06T12:42:24Z</time>
      </trkpt>
      <trkpt lat="44.78028" lon="-0.13782">
        <ele>84.7</ele>
        <time>2022-10-06T12:42:25Z</time>
      </trkpt>
      <trkpt lat="44.78028" lon="-0.13784">
        <ele>84.6</ele>
        <time>2022-10-06T12:42:26Z</time>
      </trkpt>
      <trkpt lat="44.7803" lon="-0.13788">
        <ele>84.6</ele>
        <time>2022-10-06T12:42:28Z</time>
      </trkpt>
      <trkpt lat="44.7803" lon="-0.13789">
        <ele>84.6</ele>
        <time>2022-10-06T12:42:29Z</time>
      </trkpt>
      <trkpt lat="44.78031" lon="-0.1379">
        <ele>84.6</ele>
        <time>2022-10-06T12:42:30Z</time>
      </trkpt>
      <trkpt lat="44.78031" lon="-0.13791">
        <ele>84.5</ele>
        <time>2022-10-06T12:42:31Z</time>
      </trkpt>
      <trkpt lat="44.78031" lon="-0.13792">
        <ele>84.5</ele>
        <time>2022-10-06T12:42:32Z</time>
      </trkpt>
      <trkpt lat="44.78032" lon="-0.13795">
        <ele>84.5</ele>
        <time>2022-10-06T12:42:33Z</time>
      </trkpt>
      <trkpt lat="44.78032" lon="-0.13796">
        <ele>84.5</ele>
        <time>2022-10-06T12:42:34Z</time>
      </trkpt>
      <trkpt lat="44.78033" lon="-0.13798">
        <ele>84.5</ele>
        <time>2022-10-06T12:42:35Z</time>
      </trkpt>
      <trkpt lat="44.78033" lon="-0.13799">
        <ele>84.4</ele>
        <time>2022-10-06T12:42:36Z</time>
      </trkpt>
      <trkpt lat="44.78034" lon="-0.13801">
        <ele>84.4</ele>
        <time>2022-10-06T12:42:37Z</time>
      </trkpt>
      <trkpt lat="44.78034" lon="-0.13803">
        <ele>84.4</ele>
        <time>2022-10-06T12:42:38Z</time>
      </trkpt>
      <trkpt lat="44.78035" lon="-0.13804">
        <ele>84.4</ele>
        <time>2022-10-06T12:42:39Z</time>
      </trkpt>
      <trkpt lat="44.78035" lon="-0.13805">
        <ele>84.4</ele>
        <time>2022-10-06T12:42:40Z</time>
      </trkpt>
      <trkpt lat="44.78036" lon="-0.13808">
        <ele>84.4</ele>
        <time>2022-10-06T12:42:41Z</time>
      </trkpt>
      <trkpt lat="44.78036" lon="-0.13809">
        <ele>84.3</ele>
        <time>2022-10-06T12:42:42Z</time>
      </trkpt>
      <trkpt lat="44.78036" lon="-0.13811">
        <ele>84.3</ele>
        <time>2022-10-06T12:42:43Z</time>
      </trkpt>
      <trkpt lat="44.78037" lon="-0.13811">
        <ele>84.3</ele>
        <time>2022-10-06T12:42:44Z</time>
      </trkpt>
      <trkpt lat="44.78037" lon="-0.13812">
        <ele>84.3</ele>
        <time>2022-10-06T12:42:45Z</time>
      </trkpt>
      <trkpt lat="44.78037" lon="-0.13814">
        <ele>84.3</ele>
        <time>2022-10-06T12:42:46Z</time>
      </trkpt>
      <trkpt lat="44.78037" lon="-0.13815">
        <ele>84.3</ele>
        <time>2022-10-06T12:42:47Z</time>
      </trkpt>
      <trkpt lat="44.78038" lon="-0.13818">
        <ele>84.3</ele>
        <time>2022-10-06T12:42:48Z</time>
      </trkpt>
      <trkpt lat="44.78039" lon="-0.13819">
        <ele>84.3</ele>
        <time>2022-10-06T12:42:49Z</time>
      </trkpt>
      <trkpt lat="44.78039" lon="-0.1382">
        <ele>84.2</ele>
        <time>2022-10-06T12:42:50Z</time>
      </trkpt>
      <trkpt lat="44.7804" lon="-0.13823">
        <ele>84.2</ele>
        <time>2022-10-06T12:42:51Z</time>
      </trkpt>
      <trkpt lat="44.7804" lon="-0.13825">
        <ele>84.2</ele>
        <time>2022-10-06T12:42:52Z</time>
      </trkpt>
      <trkpt lat="44.78041" lon="-0.13826">
        <ele>84.2</ele>
        <time>2022-10-06T12:42:53Z</time>
      </trkpt>
      <trkpt lat="44.78041" lon="-0.13827">
        <ele>84.2</ele>
        <time>2022-10-06T12:42:54Z</time>
      </trkpt>
      <trkpt lat="44.78041" lon="-0.13829">
        <ele>84.2</ele>
        <time>2022-10-06T12:42:55Z</time>
      </trkpt>
      <trkpt lat="44.78041" lon="-0.1383">
        <ele>84.2</ele>
        <time>2022-10-06T12:42:56Z</time>
      </trkpt>
      <trkpt lat="44.78042" lon="-0.13832">
        <ele>84.2</ele>
        <time>2022-10-06T12:42:57Z</time>
      </trkpt>
      <trkpt lat="44.78043" lon="-0.13834">
        <ele>84.1</ele>
        <time>2022-10-06T12:42:58Z</time>
      </trkpt>
      <trkpt lat="44.78043" lon="-0.13835">
        <ele>84.1</ele>
        <time>2022-10-06T12:42:59Z</time>
      </trkpt>
      <trkpt lat="44.78043" lon="-0.13837">
        <ele>84.1</ele>
        <time>2022-10-06T12:43:00Z</time>
      </trkpt>
      <trkpt lat="44.78044" lon="-0.13838">
        <ele>84.1</ele>
        <time>2022-10-06T12:43:01Z</time>
      </trkpt>
      <trkpt lat="44.78044" lon="-0.1384">
        <ele>84.1</ele>
        <time>2022-10-06T12:43:02Z</time>
      </trkpt>
      <trkpt lat="44.78045" lon="-0.13842">
        <ele>84.1</ele>
        <time>2022-10-06T12:43:03Z</time>
      </trkpt>
      <trkpt lat="44.78045" lon="-0.13844">
        <ele>84.1</ele>
        <time>2022-10-06T12:43:04Z</time>
      </trkpt>
      <trkpt lat="44.78045" lon="-0.13845">
        <ele>84.1</ele>
        <time>2022-10-06T12:43:05Z</time>
      </trkpt>
      <trkpt lat="44.78046" lon="-0.13846">
        <ele>84</ele>
        <time>2022-10-06T12:43:06Z</time>
      </trkpt>
      <trkpt lat="44.78046" lon="-0.13847">
        <ele>84</ele>
        <time>2022-10-06T12:43:07Z</time>
      </trkpt>
      <trkpt lat="44.78046" lon="-0.1385">
        <ele>84</ele>
        <time>2022-10-06T12:43:08Z</time>
      </trkpt>
      <trkpt lat="44.78047" lon="-0.13851">
        <ele>84</ele>
        <time>2022-10-06T12:43:09Z</time>
      </trkpt>
      <trkpt lat="44.78047" lon="-0.13852">
        <ele>84</ele>
        <time>2022-10-06T12:43:10Z</time>
      </trkpt>
      <trkpt lat="44.78047" lon="-0.13853">
        <ele>84</ele>
        <time>2022-10-06T12:43:11Z</time>
      </trkpt>
      <trkpt lat="44.78048" lon="-0.13854">
        <ele>84</ele>
        <time>2022-10-06T12:43:12Z</time>
      </trkpt>
      <trkpt lat="44.78048" lon="-0.13856">
        <ele>84</ele>
        <time>2022-10-06T12:43:13Z</time>
      </trkpt>
      <trkpt lat="44.78048" lon="-0.13857">
        <ele>84</ele>
        <time>2022-10-06T12:43:14Z</time>
      </trkpt>
      <trkpt lat="44.78049" lon="-0.13858">
        <ele>84</ele>
        <time>2022-10-06T12:43:15Z</time>
      </trkpt>
      <trkpt lat="44.78049" lon="-0.1386">
        <ele>83.9</ele>
        <time>2022-10-06T12:43:16Z</time>
      </trkpt>
      <trkpt lat="44.7805" lon="-0.13861">
        <ele>83.9</ele>
        <time>2022-10-06T12:43:17Z</time>
      </trkpt>
      <trkpt lat="44.78051" lon="-0.13864">
        <ele>83.9</ele>
        <time>2022-10-06T12:43:18Z</time>
      </trkpt>
      <trkpt lat="44.78052" lon="-0.13866">
        <ele>83.9</ele>
        <time>2022-10-06T12:43:19Z</time>
      </trkpt>
      <trkpt lat="44.78052" lon="-0.13867">
        <ele>83.9</ele>
        <time>2022-10-06T12:43:20Z</time>
      </trkpt>
      <trkpt lat="44.78052" lon="-0.13868">
        <ele>83.9</ele>
        <time>2022-10-06T12:43:21Z</time>
      </trkpt>
      <trkpt lat="44.78053" lon="-0.13869">
        <ele>83.9</ele>
        <time>2022-10-06T12:43:22Z</time>
      </trkpt>
      <trkpt lat="44.78054" lon="-0.13871">
        <ele>83.9</ele>
        <time>2022-10-06T12:43:23Z</time>
      </trkpt>
      <trkpt lat="44.78054" lon="-0.13872">
        <ele>83.9</ele>
        <time>2022-10-06T12:43:24Z</time>
      </trkpt>
      <trkpt lat="44.78055" lon="-0.13875">
        <ele>83.9</ele>
        <time>2022-10-06T12:43:25Z</time>
      </trkpt>
      <trkpt lat="44.78055" lon="-0.13876">
        <ele>83.8</ele>
        <time>2022-10-06T12:43:26Z</time>
      </trkpt>
      <trkpt lat="44.78055" lon="-0.13877">
        <ele>83.8</ele>
        <time>2022-10-06T12:43:27Z</time>
      </trkpt>
      <trkpt lat="44.78055" lon="-0.13879">
        <ele>83.8</ele>
        <time>2022-10-06T12:43:28Z</time>
      </trkpt>
      <trkpt lat="44.78056" lon="-0.13881">
        <ele>83.8</ele>
        <time>2022-10-06T12:43:29Z</time>
      </trkpt>
      <trkpt lat="44.78056" lon="-0.13882">
        <ele>83.8</ele>
        <time>2022-10-06T12:43:30Z</time>
      </trkpt>
      <trkpt lat="44.78057" lon="-0.13884">
        <ele>83.8</ele>
        <time>2022-10-06T12:43:31Z</time>
      </trkpt>
      <trkpt lat="44.78057" lon="-0.13885">
        <ele>83.8</ele>
        <time>2022-10-06T12:43:32Z</time>
      </trkpt>
      <trkpt lat="44.78057" lon="-0.13887">
        <ele>83.8</ele>
        <time>2022-10-06T12:43:33Z</time>
      </trkpt>
      <trkpt lat="44.78058" lon="-0.13889">
        <ele>83.8</ele>
        <time>2022-10-06T12:43:34Z</time>
      </trkpt>
      <trkpt lat="44.78058" lon="-0.1389">
        <ele>83.8</ele>
        <time>2022-10-06T12:43:35Z</time>
      </trkpt>
      <trkpt lat="44.78058" lon="-0.13892">
        <ele>83.8</ele>
        <time>2022-10-06T12:43:36Z</time>
      </trkpt>
      <trkpt lat="44.78058" lon="-0.13894">
        <ele>83.7</ele>
        <time>2022-10-06T12:43:37Z</time>
      </trkpt>
      <trkpt lat="44.78059" lon="-0.13895">
        <ele>83.7</ele>
        <time>2022-10-06T12:43:38Z</time>
      </trkpt>
      <trkpt lat="44.78059" lon="-0.13898">
        <ele>83.7</ele>
        <time>2022-10-06T12:43:39Z</time>
      </trkpt>
      <trkpt lat="44.7806" lon="-0.139">
        <ele>83.7</ele>
        <time>2022-10-06T12:43:40Z</time>
      </trkpt>
      <trkpt lat="44.7806" lon="-0.13901">
        <ele>83.7</ele>
        <time>2022-10-06T12:43:41Z</time>
      </trkpt>
      <trkpt lat="44.78061" lon="-0.13903">
        <ele>83.7</ele>
        <time>2022-10-06T12:43:42Z</time>
      </trkpt>
      <trkpt lat="44.78061" lon="-0.13904">
        <ele>83.7</ele>
        <time>2022-10-06T12:43:43Z</time>
      </trkpt>
      <trkpt lat="44.78062" lon="-0.13907">
        <ele>83.7</ele>
        <time>2022-10-06T12:43:44Z</time>
      </trkpt>
      <trkpt lat="44.78062" lon="-0.13908">
        <ele>83.7</ele>
        <time>2022-10-06T12:43:45Z</time>
      </trkpt>
      <trkpt lat="44.78062" lon="-0.1391">
        <ele>83.7</ele>
        <time>2022-10-06T12:43:46Z</time>
      </trkpt>
      <trkpt lat="44.78063" lon="-0.13911">
        <ele>83.7</ele>
        <time>2022-10-06T12:43:47Z</time>
      </trkpt>
      <trkpt lat="44.78064" lon="-0.13913">
        <ele>83.7</ele>
        <time>2022-10-06T12:43:48Z</time>
      </trkpt>
      <trkpt lat="44.78064" lon="-0.13915">
        <ele>83.6</ele>
        <time>2022-10-06T12:43:49Z</time>
      </trkpt>
      <trkpt lat="44.78065" lon="-0.13916">
        <ele>83.6</ele>
        <time>2022-10-06T12:43:50Z</time>
      </trkpt>
      <trkpt lat="44.78065" lon="-0.13918">
        <ele>83.6</ele>
        <time>2022-10-06T12:43:51Z</time>
      </trkpt>
      <trkpt lat="44.78065" lon="-0.1392">
        <ele>83.6</ele>
        <time>2022-10-06T12:43:52Z</time>
      </trkpt>
      <trkpt lat="44.78066" lon="-0.13921">
        <ele>83.6</ele>
        <time>2022-10-06T12:43:53Z</time>
      </trkpt>
      <trkpt lat="44.78066" lon="-0.13923">
        <ele>83.6</ele>
        <time>2022-10-06T12:43:54Z</time>
      </trkpt>
      <trkpt lat="44.78066" lon="-0.13925">
        <ele>83.6</ele>
        <time>2022-10-06T12:43:55Z</time>
      </trkpt>
      <trkpt lat="44.78067" lon="-0.13926">
        <ele>83.6</ele>
        <time>2022-10-06T12:43:56Z</time>
      </trkpt>
      <trkpt lat="44.78067" lon="-0.13928">
        <ele>83.6</ele>
        <time>2022-10-06T12:43:57Z</time>
      </trkpt>
      <trkpt lat="44.78067" lon="-0.1393">
        <ele>83.5</ele>
        <time>2022-10-06T12:43:58Z</time>
      </trkpt>
      <trkpt lat="44.78068" lon="-0.13932">
        <ele>83.5</ele>
        <time>2022-10-06T12:43:59Z</time>
      </trkpt>
      <trkpt lat="44.78068" lon="-0.13933">
        <ele>83.5</ele>
        <time>2022-10-06T12:44:00Z</time>
      </trkpt>
      <trkpt lat="44.78068" lon="-0.13935">
        <ele>83.5</ele>
        <time>2022-10-06T12:44:01Z</time>
      </trkpt>
      <trkpt lat="44.78069" lon="-0.13936">
        <ele>83.5</ele>
        <time>2022-10-06T12:44:02Z</time>
      </trkpt>
      <trkpt lat="44.78069" lon="-0.13938">
        <ele>83.5</ele>
        <time>2022-10-06T12:44:03Z</time>
      </trkpt>
      <trkpt lat="44.7807" lon="-0.1394">
        <ele>83.5</ele>
        <time>2022-10-06T12:44:04Z</time>
      </trkpt>
      <trkpt lat="44.7807" lon="-0.13941">
        <ele>83.4</ele>
        <time>2022-10-06T12:44:05Z</time>
      </trkpt>
      <trkpt lat="44.78071" lon="-0.13943">
        <ele>83.4</ele>
        <time>2022-10-06T12:44:06Z</time>
      </trkpt>
      <trkpt lat="44.78071" lon="-0.13945">
        <ele>83.4</ele>
        <time>2022-10-06T12:44:07Z</time>
      </trkpt>
      <trkpt lat="44.78071" lon="-0.13946">
        <ele>83.4</ele>
        <time>2022-10-06T12:44:08Z</time>
      </trkpt>
      <trkpt lat="44.78071" lon="-0.13949">
        <ele>83.4</ele>
        <time>2022-10-06T12:44:09Z</time>
      </trkpt>
      <trkpt lat="44.78072" lon="-0.13951">
        <ele>83.3</ele>
        <time>2022-10-06T12:44:10Z</time>
      </trkpt>
      <trkpt lat="44.78073" lon="-0.13952">
        <ele>83.3</ele>
        <time>2022-10-06T12:44:11Z</time>
      </trkpt>
      <trkpt lat="44.78073" lon="-0.13954">
        <ele>83.3</ele>
        <time>2022-10-06T12:44:12Z</time>
      </trkpt>
      <trkpt lat="44.78073" lon="-0.13956">
        <ele>83.3</ele>
        <time>2022-10-06T12:44:13Z</time>
      </trkpt>
      <trkpt lat="44.78074" lon="-0.13958">
        <ele>83.3</ele>
        <time>2022-10-06T12:44:14Z</time>
      </trkpt>
      <trkpt lat="44.78075" lon="-0.1396">
        <ele>83.3</ele>
        <time>2022-10-06T12:44:15Z</time>
      </trkpt>
      <trkpt lat="44.78075" lon="-0.13962">
        <ele>83.2</ele>
        <time>2022-10-06T12:44:16Z</time>
      </trkpt>
      <trkpt lat="44.78075" lon="-0.13963">
        <ele>83.2</ele>
        <time>2022-10-06T12:44:17Z</time>
      </trkpt>
      <trkpt lat="44.78076" lon="-0.13965">
        <ele>83.2</ele>
        <time>2022-10-06T12:44:18Z</time>
      </trkpt>
      <trkpt lat="44.78076" lon="-0.13967">
        <ele>83.2</ele>
        <time>2022-10-06T12:44:19Z</time>
      </trkpt>
      <trkpt lat="44.78077" lon="-0.1397">
        <ele>83.1</ele>
        <time>2022-10-06T12:44:20Z</time>
      </trkpt>
      <trkpt lat="44.78078" lon="-0.13971">
        <ele>83.1</ele>
        <time>2022-10-06T12:44:21Z</time>
      </trkpt>
      <trkpt lat="44.78078" lon="-0.13972">
        <ele>83.1</ele>
        <time>2022-10-06T12:44:22Z</time>
      </trkpt>
      <trkpt lat="44.78079" lon="-0.13974">
        <ele>83.1</ele>
        <time>2022-10-06T12:44:23Z</time>
      </trkpt>
      <trkpt lat="44.78079" lon="-0.13976">
        <ele>83.1</ele>
        <time>2022-10-06T12:44:24Z</time>
      </trkpt>
      <trkpt lat="44.7808" lon="-0.13977">
        <ele>83.1</ele>
        <time>2022-10-06T12:44:25Z</time>
      </trkpt>
      <trkpt lat="44.7808" lon="-0.13979">
        <ele>83</ele>
        <time>2022-10-06T12:44:26Z</time>
      </trkpt>
      <trkpt lat="44.7808" lon="-0.1398">
        <ele>83</ele>
        <time>2022-10-06T12:44:27Z</time>
      </trkpt>
      <trkpt lat="44.78081" lon="-0.13982">
        <ele>83</ele>
        <time>2022-10-06T12:44:28Z</time>
      </trkpt>
      <trkpt lat="44.78081" lon="-0.13984">
        <ele>83</ele>
        <time>2022-10-06T12:44:29Z</time>
      </trkpt>
      <trkpt lat="44.78081" lon="-0.13985">
        <ele>83</ele>
        <time>2022-10-06T12:44:30Z</time>
      </trkpt>
      <trkpt lat="44.78081" lon="-0.13987">
        <ele>82.9</ele>
        <time>2022-10-06T12:44:31Z</time>
      </trkpt>
      <trkpt lat="44.78082" lon="-0.13988">
        <ele>82.9</ele>
        <time>2022-10-06T12:44:32Z</time>
      </trkpt>
      <trkpt lat="44.78082" lon="-0.1399">
        <ele>82.9</ele>
        <time>2022-10-06T12:44:33Z</time>
      </trkpt>
      <trkpt lat="44.78083" lon="-0.13992">
        <ele>82.9</ele>
        <time>2022-10-06T12:44:34Z</time>
      </trkpt>
      <trkpt lat="44.78083" lon="-0.13993">
        <ele>82.8</ele>
        <time>2022-10-06T12:44:35Z</time>
      </trkpt>
      <trkpt lat="44.78083" lon="-0.13995">
        <ele>82.8</ele>
        <time>2022-10-06T12:44:36Z</time>
      </trkpt>
      <trkpt lat="44.78084" lon="-0.13997">
        <ele>82.8</ele>
        <time>2022-10-06T12:44:37Z</time>
      </trkpt>
      <trkpt lat="44.78084" lon="-0.13998">
        <ele>82.8</ele>
        <time>2022-10-06T12:44:38Z</time>
      </trkpt>
      <trkpt lat="44.78085" lon="-0.14">
        <ele>82.7</ele>
        <time>2022-10-06T12:44:39Z</time>
      </trkpt>
      <trkpt lat="44.78085" lon="-0.14003">
        <ele>82.7</ele>
        <time>2022-10-06T12:44:40Z</time>
      </trkpt>
      <trkpt lat="44.78085" lon="-0.14004">
        <ele>82.6</ele>
        <time>2022-10-06T12:44:41Z</time>
      </trkpt>
      <trkpt lat="44.78086" lon="-0.14005">
        <ele>82.6</ele>
        <time>2022-10-06T12:44:42Z</time>
      </trkpt>
      <trkpt lat="44.78086" lon="-0.14007">
        <ele>82.6</ele>
        <time>2022-10-06T12:44:43Z</time>
      </trkpt>
      <trkpt lat="44.78087" lon="-0.14009">
        <ele>82.5</ele>
        <time>2022-10-06T12:44:44Z</time>
      </trkpt>
      <trkpt lat="44.78087" lon="-0.14012">
        <ele>82.5</ele>
        <time>2022-10-06T12:44:45Z</time>
      </trkpt>
      <trkpt lat="44.78088" lon="-0.14013">
        <ele>82.5</ele>
        <time>2022-10-06T12:44:46Z</time>
      </trkpt>
      <trkpt lat="44.78088" lon="-0.14014">
        <ele>82.4</ele>
        <time>2022-10-06T12:44:47Z</time>
      </trkpt>
      <trkpt lat="44.78088" lon="-0.14016">
        <ele>82.4</ele>
        <time>2022-10-06T12:44:48Z</time>
      </trkpt>
      <trkpt lat="44.78088" lon="-0.14019">
        <ele>82.3</ele>
        <time>2022-10-06T12:44:49Z</time>
      </trkpt>
      <trkpt lat="44.78089" lon="-0.1402">
        <ele>82.3</ele>
        <time>2022-10-06T12:44:50Z</time>
      </trkpt>
      <trkpt lat="44.78089" lon="-0.14022">
        <ele>82.3</ele>
        <time>2022-10-06T12:44:51Z</time>
      </trkpt>
      <trkpt lat="44.7809" lon="-0.14023">
        <ele>82.2</ele>
        <time>2022-10-06T12:44:52Z</time>
      </trkpt>
      <trkpt lat="44.7809" lon="-0.14025">
        <ele>82.2</ele>
        <time>2022-10-06T12:44:53Z</time>
      </trkpt>
      <trkpt lat="44.78091" lon="-0.14027">
        <ele>82.1</ele>
        <time>2022-10-06T12:44:54Z</time>
      </trkpt>
      <trkpt lat="44.78091" lon="-0.1403">
        <ele>82.1</ele>
        <time>2022-10-06T12:44:55Z</time>
      </trkpt>
      <trkpt lat="44.78092" lon="-0.14031">
        <ele>82</ele>
        <time>2022-10-06T12:44:56Z</time>
      </trkpt>
      <trkpt lat="44.78092" lon="-0.14032">
        <ele>82</ele>
        <time>2022-10-06T12:44:57Z</time>
      </trkpt>
      <trkpt lat="44.78093" lon="-0.14034">
        <ele>81.9</ele>
        <time>2022-10-06T12:44:58Z</time>
      </trkpt>
      <trkpt lat="44.78094" lon="-0.14037">
        <ele>81.9</ele>
        <time>2022-10-06T12:44:59Z</time>
      </trkpt>
      <trkpt lat="44.78094" lon="-0.14038">
        <ele>81.8</ele>
        <time>2022-10-06T12:45:00Z</time>
      </trkpt>
      <trkpt lat="44.78094" lon="-0.14039">
        <ele>81.8</ele>
        <time>2022-10-06T12:45:01Z</time>
      </trkpt>
      <trkpt lat="44.78095" lon="-0.14041">
        <ele>81.8</ele>
        <time>2022-10-06T12:45:02Z</time>
      </trkpt>
      <trkpt lat="44.78095" lon="-0.14044">
        <ele>81.7</ele>
        <time>2022-10-06T12:45:03Z</time>
      </trkpt>
      <trkpt lat="44.78096" lon="-0.14045">
        <ele>81.7</ele>
        <time>2022-10-06T12:45:04Z</time>
      </trkpt>
      <trkpt lat="44.78096" lon="-0.14047">
        <ele>81.6</ele>
        <time>2022-10-06T12:45:05Z</time>
      </trkpt>
      <trkpt lat="44.78097" lon="-0.14049">
        <ele>81.6</ele>
        <time>2022-10-06T12:45:06Z</time>
      </trkpt>
      <trkpt lat="44.78097" lon="-0.1405">
        <ele>81.5</ele>
        <time>2022-10-06T12:45:07Z</time>
      </trkpt>
      <trkpt lat="44.78097" lon="-0.14051">
        <ele>81.5</ele>
        <time>2022-10-06T12:45:08Z</time>
      </trkpt>
      <trkpt lat="44.78097" lon="-0.14052">
        <ele>81.5</ele>
        <time>2022-10-06T12:45:09Z</time>
      </trkpt>
      <trkpt lat="44.78098" lon="-0.14054">
        <ele>81.4</ele>
        <time>2022-10-06T12:45:10Z</time>
      </trkpt>
      <trkpt lat="44.78099" lon="-0.14056">
        <ele>81.4</ele>
        <time>2022-10-06T12:45:11Z</time>
      </trkpt>
      <trkpt lat="44.78099" lon="-0.14058">
        <ele>81.3</ele>
        <time>2022-10-06T12:45:12Z</time>
      </trkpt>
      <trkpt lat="44.781" lon="-0.1406">
        <ele>81.3</ele>
        <time>2022-10-06T12:45:13Z</time>
      </trkpt>
      <trkpt lat="44.781" lon="-0.14062">
        <ele>81.2</ele>
        <time>2022-10-06T12:45:14Z</time>
      </trkpt>
      <trkpt lat="44.78101" lon="-0.14063">
        <ele>81.2</ele>
        <time>2022-10-06T12:45:15Z</time>
      </trkpt>
      <trkpt lat="44.78101" lon="-0.14064">
        <ele>81.2</ele>
        <time>2022-10-06T12:45:16Z</time>
      </trkpt>
      <trkpt lat="44.78102" lon="-0.14068">
        <ele>81.1</ele>
        <time>2022-10-06T12:45:17Z</time>
      </trkpt>
      <trkpt lat="44.78102" lon="-0.14068">
        <ele>81.1</ele>
        <time>2022-10-06T12:45:18Z</time>
      </trkpt>
      <trkpt lat="44.78102" lon="-0.14069">
        <ele>81.1</ele>
        <time>2022-10-06T12:45:19Z</time>
      </trkpt>
      <trkpt lat="44.78103" lon="-0.14072">
        <ele>81</ele>
        <time>2022-10-06T12:45:20Z</time>
      </trkpt>
      <trkpt lat="44.78103" lon="-0.14073">
        <ele>81</ele>
        <time>2022-10-06T12:45:21Z</time>
      </trkpt>
      <trkpt lat="44.78103" lon="-0.14075">
        <ele>81</ele>
        <time>2022-10-06T12:45:22Z</time>
      </trkpt>
      <trkpt lat="44.78104" lon="-0.14076">
        <ele>80.9</ele>
        <time>2022-10-06T12:45:23Z</time>
      </trkpt>
      <trkpt lat="44.78104" lon="-0.14079">
        <ele>80.9</ele>
        <time>2022-10-06T12:45:24Z</time>
      </trkpt>
      <trkpt lat="44.78105" lon="-0.1408">
        <ele>80.8</ele>
        <time>2022-10-06T12:45:25Z</time>
      </trkpt>
      <trkpt lat="44.78105" lon="-0.14082">
        <ele>80.8</ele>
        <time>2022-10-06T12:45:26Z</time>
      </trkpt>
      <trkpt lat="44.78106" lon="-0.14083">
        <ele>80.8</ele>
        <time>2022-10-06T12:45:27Z</time>
      </trkpt>
      <trkpt lat="44.78107" lon="-0.14086">
        <ele>80.7</ele>
        <time>2022-10-06T12:45:28Z</time>
      </trkpt>
      <trkpt lat="44.78107" lon="-0.14088">
        <ele>80.7</ele>
        <time>2022-10-06T12:45:29Z</time>
      </trkpt>
      <trkpt lat="44.78107" lon="-0.14089">
        <ele>80.6</ele>
        <time>2022-10-06T12:45:30Z</time>
      </trkpt>
      <trkpt lat="44.78108" lon="-0.1409">
        <ele>80.6</ele>
        <time>2022-10-06T12:45:31Z</time>
      </trkpt>
      <trkpt lat="44.78108" lon="-0.14091">
        <ele>80.6</ele>
        <time>2022-10-06T12:45:32Z</time>
      </trkpt>
      <trkpt lat="44.78109" lon="-0.14094">
        <ele>80.5</ele>
        <time>2022-10-06T12:45:33Z</time>
      </trkpt>
      <trkpt lat="44.7811" lon="-0.14096">
        <ele>80.5</ele>
        <time>2022-10-06T12:45:34Z</time>
      </trkpt>
      <trkpt lat="44.7811" lon="-0.14097">
        <ele>80.5</ele>
        <time>2022-10-06T12:45:35Z</time>
      </trkpt>
      <trkpt lat="44.7811" lon="-0.14098">
        <ele>80.4</ele>
        <time>2022-10-06T12:45:36Z</time>
      </trkpt>
      <trkpt lat="44.78111" lon="-0.141">
        <ele>80.4</ele>
        <time>2022-10-06T12:45:37Z</time>
      </trkpt>
      <trkpt lat="44.78111" lon="-0.14101">
        <ele>80.4</ele>
        <time>2022-10-06T12:45:38Z</time>
      </trkpt>
      <trkpt lat="44.78112" lon="-0.14103">
        <ele>80.3</ele>
        <time>2022-10-06T12:45:39Z</time>
      </trkpt>
      <trkpt lat="44.78113" lon="-0.14105">
        <ele>80.3</ele>
        <time>2022-10-06T12:45:40Z</time>
      </trkpt>
      <trkpt lat="44.78113" lon="-0.14106">
        <ele>80.3</ele>
        <time>2022-10-06T12:45:41Z</time>
      </trkpt>
      <trkpt lat="44.78114" lon="-0.14108">
        <ele>80.2</ele>
        <time>2022-10-06T12:45:42Z</time>
      </trkpt>
      <trkpt lat="44.78114" lon="-0.1411">
        <ele>80.2</ele>
        <time>2022-10-06T12:45:43Z</time>
      </trkpt>
      <trkpt lat="44.78115" lon="-0.14112">
        <ele>80.2</ele>
        <time>2022-10-06T12:45:44Z</time>
      </trkpt>
      <trkpt lat="44.78116" lon="-0.14114">
        <ele>80.1</ele>
        <time>2022-10-06T12:45:45Z</time>
      </trkpt>
      <trkpt lat="44.78116" lon="-0.14115">
        <ele>80.1</ele>
        <time>2022-10-06T12:45:46Z</time>
      </trkpt>
      <trkpt lat="44.78116" lon="-0.14116">
        <ele>80.1</ele>
        <time>2022-10-06T12:45:47Z</time>
      </trkpt>
      <trkpt lat="44.78117" lon="-0.14118">
        <ele>80.1</ele>
        <time>2022-10-06T12:45:48Z</time>
      </trkpt>
      <trkpt lat="44.78117" lon="-0.1412">
        <ele>80.1</ele>
        <time>2022-10-06T12:45:49Z</time>
      </trkpt>
      <trkpt lat="44.78118" lon="-0.14122">
        <ele>80</ele>
        <time>2022-10-06T12:45:50Z</time>
      </trkpt>
      <trkpt lat="44.78118" lon="-0.14124">
        <ele>80</ele>
        <time>2022-10-06T12:45:51Z</time>
      </trkpt>
      <trkpt lat="44.78119" lon="-0.14126">
        <ele>80</ele>
        <time>2022-10-06T12:45:52Z</time>
      </trkpt>
      <trkpt lat="44.78119" lon="-0.14127">
        <ele>79.9</ele>
        <time>2022-10-06T12:45:53Z</time>
      </trkpt>
      <trkpt lat="44.7812" lon="-0.14129">
        <ele>79.9</ele>
        <time>2022-10-06T12:45:54Z</time>
      </trkpt>
      <trkpt lat="44.7812" lon="-0.14131">
        <ele>79.9</ele>
        <time>2022-10-06T12:45:55Z</time>
      </trkpt>
      <trkpt lat="44.78121" lon="-0.14134">
        <ele>79.8</ele>
        <time>2022-10-06T12:45:56Z</time>
      </trkpt>
      <trkpt lat="44.78121" lon="-0.14135">
        <ele>79.8</ele>
        <time>2022-10-06T12:45:57Z</time>
      </trkpt>
      <trkpt lat="44.78121" lon="-0.14136">
        <ele>79.8</ele>
        <time>2022-10-06T12:45:58Z</time>
      </trkpt>
      <trkpt lat="44.78122" lon="-0.14138">
        <ele>79.8</ele>
        <time>2022-10-06T12:45:59Z</time>
      </trkpt>
      <trkpt lat="44.78122" lon="-0.1414">
        <ele>79.7</ele>
        <time>2022-10-06T12:46:00Z</time>
      </trkpt>
      <trkpt lat="44.78123" lon="-0.14141">
        <ele>79.7</ele>
        <time>2022-10-06T12:46:01Z</time>
      </trkpt>
      <trkpt lat="44.78123" lon="-0.14143">
        <ele>79.7</ele>
        <time>2022-10-06T12:46:02Z</time>
      </trkpt>
      <trkpt lat="44.78124" lon="-0.14145">
        <ele>79.7</ele>
        <time>2022-10-06T12:46:03Z</time>
      </trkpt>
      <trkpt lat="44.78124" lon="-0.14146">
        <ele>79.6</ele>
        <time>2022-10-06T12:46:04Z</time>
      </trkpt>
      <trkpt lat="44.78125" lon="-0.14148">
        <ele>79.6</ele>
        <time>2022-10-06T12:46:05Z</time>
      </trkpt>
      <trkpt lat="44.78125" lon="-0.14149">
        <ele>79.6</ele>
        <time>2022-10-06T12:46:06Z</time>
      </trkpt>
      <trkpt lat="44.78126" lon="-0.14151">
        <ele>79.6</ele>
        <time>2022-10-06T12:46:07Z</time>
      </trkpt>
      <trkpt lat="44.78126" lon="-0.14152">
        <ele>79.6</ele>
        <time>2022-10-06T12:46:08Z</time>
      </trkpt>
      <trkpt lat="44.78127" lon="-0.14154">
        <ele>79.5</ele>
        <time>2022-10-06T12:46:09Z</time>
      </trkpt>
      <trkpt lat="44.78127" lon="-0.14156">
        <ele>79.5</ele>
        <time>2022-10-06T12:46:10Z</time>
      </trkpt>
      <trkpt lat="44.78128" lon="-0.14159">
        <ele>79.5</ele>
        <time>2022-10-06T12:46:11Z</time>
      </trkpt>
      <trkpt lat="44.78128" lon="-0.1416">
        <ele>79.4</ele>
        <time>2022-10-06T12:46:12Z</time>
      </trkpt>
      <trkpt lat="44.78129" lon="-0.14162">
        <ele>79.4</ele>
        <time>2022-10-06T12:46:13Z</time>
      </trkpt>
      <trkpt lat="44.7813" lon="-0.14163">
        <ele>79.4</ele>
        <time>2022-10-06T12:46:14Z</time>
      </trkpt>
      <trkpt lat="44.7813" lon="-0.14165">
        <ele>79.4</ele>
        <time>2022-10-06T12:46:15Z</time>
      </trkpt>
      <trkpt lat="44.78131" lon="-0.14168">
        <ele>79.3</ele>
        <time>2022-10-06T12:46:16Z</time>
      </trkpt>
      <trkpt lat="44.78131" lon="-0.14169">
        <ele>79.3</ele>
        <time>2022-10-06T12:46:17Z</time>
      </trkpt>
      <trkpt lat="44.78132" lon="-0.1417">
        <ele>79.3</ele>
        <time>2022-10-06T12:46:18Z</time>
      </trkpt>
      <trkpt lat="44.78132" lon="-0.14172">
        <ele>79.3</ele>
        <time>2022-10-06T12:46:19Z</time>
      </trkpt>
      <trkpt lat="44.78133" lon="-0.14174">
        <ele>79.3</ele>
        <time>2022-10-06T12:46:20Z</time>
      </trkpt>
      <trkpt lat="44.78133" lon="-0.14175">
        <ele>79.2</ele>
        <time>2022-10-06T12:46:21Z</time>
      </trkpt>
      <trkpt lat="44.78134" lon="-0.14176">
        <ele>79.2</ele>
        <time>2022-10-06T12:46:22Z</time>
      </trkpt>
      <trkpt lat="44.78134" lon="-0.14178">
        <ele>79.2</ele>
        <time>2022-10-06T12:46:23Z</time>
      </trkpt>
      <trkpt lat="44.78135" lon="-0.14181">
        <ele>79.2</ele>
        <time>2022-10-06T12:46:24Z</time>
      </trkpt>
      <trkpt lat="44.78135" lon="-0.14182">
        <ele>79.2</ele>
        <time>2022-10-06T12:46:25Z</time>
      </trkpt>
      <trkpt lat="44.78135" lon="-0.14183">
        <ele>79.1</ele>
        <time>2022-10-06T12:46:26Z</time>
      </trkpt>
      <trkpt lat="44.78136" lon="-0.14185">
        <ele>79.1</ele>
        <time>2022-10-06T12:46:27Z</time>
      </trkpt>
      <trkpt lat="44.78136" lon="-0.14186">
        <ele>79.1</ele>
        <time>2022-10-06T12:46:28Z</time>
      </trkpt>
      <trkpt lat="44.78137" lon="-0.14187">
        <ele>79.1</ele>
        <time>2022-10-06T12:46:29Z</time>
      </trkpt>
      <trkpt lat="44.78138" lon="-0.1419">
        <ele>79.1</ele>
        <time>2022-10-06T12:46:30Z</time>
      </trkpt>
      <trkpt lat="44.78138" lon="-0.14191">
        <ele>79</ele>
        <time>2022-10-06T12:46:31Z</time>
      </trkpt>
      <trkpt lat="44.78138" lon="-0.14192">
        <ele>79</ele>
        <time>2022-10-06T12:46:32Z</time>
      </trkpt>
      <trkpt lat="44.78139" lon="-0.14194">
        <ele>79</ele>
        <time>2022-10-06T12:46:33Z</time>
      </trkpt>
      <trkpt lat="44.7814" lon="-0.14195">
        <ele>79</ele>
        <time>2022-10-06T12:46:34Z</time>
      </trkpt>
      <trkpt lat="44.7814" lon="-0.14198">
        <ele>79</ele>
        <time>2022-10-06T12:46:35Z</time>
      </trkpt>
      <trkpt lat="44.7814" lon="-0.14199">
        <ele>79</ele>
        <time>2022-10-06T12:46:36Z</time>
      </trkpt>
      <trkpt lat="44.78141" lon="-0.14202">
        <ele>78.9</ele>
        <time>2022-10-06T12:46:37Z</time>
      </trkpt>
      <trkpt lat="44.78142" lon="-0.14203">
        <ele>78.9</ele>
        <time>2022-10-06T12:46:38Z</time>
      </trkpt>
      <trkpt lat="44.78142" lon="-0.14204">
        <ele>78.9</ele>
        <time>2022-10-06T12:46:39Z</time>
      </trkpt>
      <trkpt lat="44.78143" lon="-0.14206">
        <ele>78.9</ele>
        <time>2022-10-06T12:46:40Z</time>
      </trkpt>
      <trkpt lat="44.78143" lon="-0.14207">
        <ele>78.9</ele>
        <time>2022-10-06T12:46:41Z</time>
      </trkpt>
      <trkpt lat="44.78144" lon="-0.14208">
        <ele>78.8</ele>
        <time>2022-10-06T12:46:42Z</time>
      </trkpt>
      <trkpt lat="44.78144" lon="-0.14211">
        <ele>78.8</ele>
        <time>2022-10-06T12:46:43Z</time>
      </trkpt>
      <trkpt lat="44.78145" lon="-0.14212">
        <ele>78.8</ele>
        <time>2022-10-06T12:46:44Z</time>
      </trkpt>
      <trkpt lat="44.78145" lon="-0.14213">
        <ele>78.8</ele>
        <time>2022-10-06T12:46:45Z</time>
      </trkpt>
      <trkpt lat="44.78146" lon="-0.14216">
        <ele>78.7</ele>
        <time>2022-10-06T12:46:46Z</time>
      </trkpt>
      <trkpt lat="44.78147" lon="-0.14217">
        <ele>78.7</ele>
        <time>2022-10-06T12:46:47Z</time>
      </trkpt>
      <trkpt lat="44.78147" lon="-0.14218">
        <ele>78.7</ele>
        <time>2022-10-06T12:46:48Z</time>
      </trkpt>
      <trkpt lat="44.78147" lon="-0.1422">
        <ele>78.7</ele>
        <time>2022-10-06T12:46:49Z</time>
      </trkpt>
      <trkpt lat="44.78148" lon="-0.14222">
        <ele>78.6</ele>
        <time>2022-10-06T12:46:50Z</time>
      </trkpt>
      <trkpt lat="44.78149" lon="-0.14223">
        <ele>78.6</ele>
        <time>2022-10-06T12:46:51Z</time>
      </trkpt>
      <trkpt lat="44.78149" lon="-0.14225">
        <ele>78.6</ele>
        <time>2022-10-06T12:46:52Z</time>
      </trkpt>
      <trkpt lat="44.7815" lon="-0.14226">
        <ele>78.6</ele>
        <time>2022-10-06T12:46:53Z</time>
      </trkpt>
      <trkpt lat="44.7815" lon="-0.14228">
        <ele>78.6</ele>
        <time>2022-10-06T12:46:54Z</time>
      </trkpt>
      <trkpt lat="44.78151" lon="-0.1423">
        <ele>78.5</ele>
        <time>2022-10-06T12:46:55Z</time>
      </trkpt>
      <trkpt lat="44.78151" lon="-0.14231">
        <ele>78.5</ele>
        <time>2022-10-06T12:46:56Z</time>
      </trkpt>
      <trkpt lat="44.78152" lon="-0.14233">
        <ele>78.5</ele>
        <time>2022-10-06T12:46:57Z</time>
      </trkpt>
      <trkpt lat="44.78152" lon="-0.14235">
        <ele>78.4</ele>
        <time>2022-10-06T12:46:58Z</time>
      </trkpt>
      <trkpt lat="44.78153" lon="-0.14237">
        <ele>78.4</ele>
        <time>2022-10-06T12:46:59Z</time>
      </trkpt>
      <trkpt lat="44.78153" lon="-0.14238">
        <ele>78.4</ele>
        <time>2022-10-06T12:47:00Z</time>
      </trkpt>
      <trkpt lat="44.78154" lon="-0.1424">
        <ele>78.3</ele>
        <time>2022-10-06T12:47:01Z</time>
      </trkpt>
      <trkpt lat="44.78154" lon="-0.14242">
        <ele>78.3</ele>
        <time>2022-10-06T12:47:02Z</time>
      </trkpt>
      <trkpt lat="44.78155" lon="-0.14243">
        <ele>78.3</ele>
        <time>2022-10-06T12:47:03Z</time>
      </trkpt>
      <trkpt lat="44.78155" lon="-0.14245">
        <ele>78.2</ele>
        <time>2022-10-06T12:47:04Z</time>
      </trkpt>
      <trkpt lat="44.78156" lon="-0.14247">
        <ele>78.2</ele>
        <time>2022-10-06T12:47:05Z</time>
      </trkpt>
      <trkpt lat="44.78156" lon="-0.14248">
        <ele>78.2</ele>
        <time>2022-10-06T12:47:06Z</time>
      </trkpt>
      <trkpt lat="44.78157" lon="-0.1425">
        <ele>78.1</ele>
        <time>2022-10-06T12:47:07Z</time>
      </trkpt>
      <trkpt lat="44.78157" lon="-0.14251">
        <ele>78.1</ele>
        <time>2022-10-06T12:47:08Z</time>
      </trkpt>
      <trkpt lat="44.78157" lon="-0.14253">
        <ele>78.1</ele>
        <time>2022-10-06T12:47:09Z</time>
      </trkpt>
      <trkpt lat="44.78158" lon="-0.14256">
        <ele>78</ele>
        <time>2022-10-06T12:47:10Z</time>
      </trkpt>
      <trkpt lat="44.78158" lon="-0.14257">
        <ele>78</ele>
        <time>2022-10-06T12:47:11Z</time>
      </trkpt>
      <trkpt lat="44.78159" lon="-0.14258">
        <ele>78</ele>
        <time>2022-10-06T12:47:12Z</time>
      </trkpt>
      <trkpt lat="44.78159" lon="-0.14261">
        <ele>77.9</ele>
        <time>2022-10-06T12:47:13Z</time>
      </trkpt>
      <trkpt lat="44.7816" lon="-0.14262">
        <ele>77.9</ele>
        <time>2022-10-06T12:47:14Z</time>
      </trkpt>
      <trkpt lat="44.7816" lon="-0.14264">
        <ele>77.8</ele>
        <time>2022-10-06T12:47:15Z</time>
      </trkpt>
      <trkpt lat="44.7816" lon="-0.14265">
        <ele>77.8</ele>
        <time>2022-10-06T12:47:16Z</time>
      </trkpt>
      <trkpt lat="44.7816" lon="-0.14266">
        <ele>77.8</ele>
        <time>2022-10-06T12:47:17Z</time>
      </trkpt>
      <trkpt lat="44.7816" lon="-0.14268">
        <ele>77.8</ele>
        <time>2022-10-06T12:47:18Z</time>
      </trkpt>
      <trkpt lat="44.78161" lon="-0.14269">
        <ele>77.6</ele>
        <time>2022-10-06T12:47:19Z</time>
      </trkpt>
      <trkpt lat="44.78161" lon="-0.14271">
        <ele>77.6</ele>
        <time>2022-10-06T12:47:20Z</time>
      </trkpt>
      <trkpt lat="44.78161" lon="-0.14273">
        <ele>77.6</ele>
        <time>2022-10-06T12:47:21Z</time>
      </trkpt>
      <trkpt lat="44.78161" lon="-0.14275">
        <ele>77.5</ele>
        <time>2022-10-06T12:47:22Z</time>
      </trkpt>
      <trkpt lat="44.78161" lon="-0.14276">
        <ele>77.5</ele>
        <time>2022-10-06T12:47:23Z</time>
      </trkpt>
      <trkpt lat="44.78162" lon="-0.14278">
        <ele>77.5</ele>
        <time>2022-10-06T12:47:24Z</time>
      </trkpt>
      <trkpt lat="44.78162" lon="-0.1428">
        <ele>77.4</ele>
        <time>2022-10-06T12:47:25Z</time>
      </trkpt>
      <trkpt lat="44.78162" lon="-0.14281">
        <ele>77.4</ele>
        <time>2022-10-06T12:47:26Z</time>
      </trkpt>
      <trkpt lat="44.78163" lon="-0.14283">
        <ele>77.3</ele>
        <time>2022-10-06T12:47:27Z</time>
      </trkpt>
      <trkpt lat="44.78163" lon="-0.14285">
        <ele>77.3</ele>
        <time>2022-10-06T12:47:28Z</time>
      </trkpt>
      <trkpt lat="44.78163" lon="-0.14287">
        <ele>77.2</ele>
        <time>2022-10-06T12:47:29Z</time>
      </trkpt>
      <trkpt lat="44.78164" lon="-0.14289">
        <ele>77.2</ele>
        <time>2022-10-06T12:47:30Z</time>
      </trkpt>
      <trkpt lat="44.78164" lon="-0.1429">
        <ele>77.2</ele>
        <time>2022-10-06T12:47:31Z</time>
      </trkpt>
      <trkpt lat="44.78165" lon="-0.14292">
        <ele>77.1</ele>
        <time>2022-10-06T12:47:32Z</time>
      </trkpt>
      <trkpt lat="44.78165" lon="-0.14293">
        <ele>77.1</ele>
        <time>2022-10-06T12:47:33Z</time>
      </trkpt>
      <trkpt lat="44.78165" lon="-0.14295">
        <ele>77.1</ele>
        <time>2022-10-06T12:47:34Z</time>
      </trkpt>
      <trkpt lat="44.78166" lon="-0.14297">
        <ele>77</ele>
        <time>2022-10-06T12:47:35Z</time>
      </trkpt>
      <trkpt lat="44.78166" lon="-0.14298">
        <ele>77</ele>
        <time>2022-10-06T12:47:36Z</time>
      </trkpt>
      <trkpt lat="44.78166" lon="-0.143">
        <ele>77</ele>
        <time>2022-10-06T12:47:37Z</time>
      </trkpt>
      <trkpt lat="44.78166" lon="-0.14302">
        <ele>76.9</ele>
        <time>2022-10-06T12:47:38Z</time>
      </trkpt>
      <trkpt lat="44.78167" lon="-0.14303">
        <ele>76.9</ele>
        <time>2022-10-06T12:47:39Z</time>
      </trkpt>
      <trkpt lat="44.78167" lon="-0.14306">
        <ele>76.8</ele>
        <time>2022-10-06T12:47:40Z</time>
      </trkpt>
      <trkpt lat="44.78167" lon="-0.14307">
        <ele>76.8</ele>
        <time>2022-10-06T12:47:41Z</time>
      </trkpt>
      <trkpt lat="44.78168" lon="-0.14309">
        <ele>76.8</ele>
        <time>2022-10-06T12:47:42Z</time>
      </trkpt>
      <trkpt lat="44.78168" lon="-0.1431">
        <ele>76.7</ele>
        <time>2022-10-06T12:47:43Z</time>
      </trkpt>
      <trkpt lat="44.78168" lon="-0.14312">
        <ele>76.7</ele>
        <time>2022-10-06T12:47:44Z</time>
      </trkpt>
      <trkpt lat="44.78168" lon="-0.14314">
        <ele>76.7</ele>
        <time>2022-10-06T12:47:45Z</time>
      </trkpt>
      <trkpt lat="44.78169" lon="-0.14317">
        <ele>76.6</ele>
        <time>2022-10-06T12:47:46Z</time>
      </trkpt>
      <trkpt lat="44.78169" lon="-0.14318">
        <ele>76.6</ele>
        <time>2022-10-06T12:47:47Z</time>
      </trkpt>
      <trkpt lat="44.78169" lon="-0.14319">
        <ele>76.6</ele>
        <time>2022-10-06T12:47:48Z</time>
      </trkpt>
      <trkpt lat="44.78169" lon="-0.14321">
        <ele>76.5</ele>
        <time>2022-10-06T12:47:49Z</time>
      </trkpt>
      <trkpt lat="44.78169" lon="-0.14323">
        <ele>76.5</ele>
        <time>2022-10-06T12:47:50Z</time>
      </trkpt>
      <trkpt lat="44.7817" lon="-0.14325">
        <ele>76.5</ele>
        <time>2022-10-06T12:47:51Z</time>
      </trkpt>
      <trkpt lat="44.7817" lon="-0.14326">
        <ele>76.4</ele>
        <time>2022-10-06T12:47:52Z</time>
      </trkpt>
      <trkpt lat="44.7817" lon="-0.14328">
        <ele>76.4</ele>
        <time>2022-10-06T12:47:53Z</time>
      </trkpt>
      <trkpt lat="44.7817" lon="-0.1433">
        <ele>76.4</ele>
        <time>2022-10-06T12:47:54Z</time>
      </trkpt>
      <trkpt lat="44.7817" lon="-0.14333">
        <ele>76.3</ele>
        <time>2022-10-06T12:47:55Z</time>
      </trkpt>
      <trkpt lat="44.7817" lon="-0.14334">
        <ele>76.3</ele>
        <time>2022-10-06T12:47:56Z</time>
      </trkpt>
      <trkpt lat="44.78171" lon="-0.14335">
        <ele>76.2</ele>
        <time>2022-10-06T12:47:57Z</time>
      </trkpt>
      <trkpt lat="44.78171" lon="-0.14337">
        <ele>76.2</ele>
        <time>2022-10-06T12:47:58Z</time>
      </trkpt>
      <trkpt lat="44.78171" lon="-0.14339">
        <ele>76.2</ele>
        <time>2022-10-06T12:47:59Z</time>
      </trkpt>
      <trkpt lat="44.78172" lon="-0.14342">
        <ele>76.1</ele>
        <time>2022-10-06T12:48:00Z</time>
      </trkpt>
      <trkpt lat="44.78171" lon="-0.14344">
        <ele>76.1</ele>
        <time>2022-10-06T12:48:01Z</time>
      </trkpt>
      <trkpt lat="44.78171" lon="-0.14345">
        <ele>76.1</ele>
        <time>2022-10-06T12:48:02Z</time>
      </trkpt>
      <trkpt lat="44.78171" lon="-0.14346">
        <ele>76</ele>
        <time>2022-10-06T12:48:03Z</time>
      </trkpt>
      <trkpt lat="44.78171" lon="-0.14347">
        <ele>76</ele>
        <time>2022-10-06T12:48:04Z</time>
      </trkpt>
      <trkpt lat="44.78171" lon="-0.1435">
        <ele>76</ele>
        <time>2022-10-06T12:48:05Z</time>
      </trkpt>
      <trkpt lat="44.7817" lon="-0.14352">
        <ele>75.9</ele>
        <time>2022-10-06T12:48:06Z</time>
      </trkpt>
      <trkpt lat="44.7817" lon="-0.14353">
        <ele>75.9</ele>
        <time>2022-10-06T12:48:07Z</time>
      </trkpt>
      <trkpt lat="44.7817" lon="-0.14356">
        <ele>75.9</ele>
        <time>2022-10-06T12:48:08Z</time>
      </trkpt>
      <trkpt lat="44.7817" lon="-0.14357">
        <ele>75.8</ele>
        <time>2022-10-06T12:48:09Z</time>
      </trkpt>
      <trkpt lat="44.7817" lon="-0.14358">
        <ele>75.8</ele>
        <time>2022-10-06T12:48:10Z</time>
      </trkpt>
      <trkpt lat="44.7817" lon="-0.1436">
        <ele>75.7</ele>
        <time>2022-10-06T12:48:11Z</time>
      </trkpt>
      <trkpt lat="44.7817" lon="-0.14361">
        <ele>75.7</ele>
        <time>2022-10-06T12:48:12Z</time>
      </trkpt>
      <trkpt lat="44.7817" lon="-0.14363">
        <ele>75.7</ele>
        <time>2022-10-06T12:48:13Z</time>
      </trkpt>
      <trkpt lat="44.7817" lon="-0.14365">
        <ele>75.7</ele>
        <time>2022-10-06T12:48:14Z</time>
      </trkpt>
      <trkpt lat="44.7817" lon="-0.14368">
        <ele>75.7</ele>
        <time>2022-10-06T12:48:15Z</time>
      </trkpt>
      <trkpt lat="44.78171" lon="-0.14369">
        <ele>75.7</ele>
        <time>2022-10-06T12:48:16Z</time>
      </trkpt>
      <trkpt lat="44.7817" lon="-0.1437">
        <ele>75.7</ele>
        <time>2022-10-06T12:48:17Z</time>
      </trkpt>
      <trkpt lat="44.7817" lon="-0.14372">
        <ele>75.6</ele>
        <time>2022-10-06T12:48:18Z</time>
      </trkpt>
      <trkpt lat="44.7817" lon="-0.14374">
        <ele>75.6</ele>
        <time>2022-10-06T12:48:19Z</time>
      </trkpt>
      <trkpt lat="44.7817" lon="-0.14376">
        <ele>75.6</ele>
        <time>2022-10-06T12:48:20Z</time>
      </trkpt>
      <trkpt lat="44.7817" lon="-0.14377">
        <ele>75.6</ele>
        <time>2022-10-06T12:48:21Z</time>
      </trkpt>
      <trkpt lat="44.7817" lon="-0.14379">
        <ele>75.6</ele>
        <time>2022-10-06T12:48:22Z</time>
      </trkpt>
      <trkpt lat="44.7817" lon="-0.14381">
        <ele>75.6</ele>
        <time>2022-10-06T12:48:23Z</time>
      </trkpt>
      <trkpt lat="44.78169" lon="-0.14383">
        <ele>75.6</ele>
        <time>2022-10-06T12:48:24Z</time>
      </trkpt>
      <trkpt lat="44.78169" lon="-0.14384">
        <ele>75.5</ele>
        <time>2022-10-06T12:48:25Z</time>
      </trkpt>
      <trkpt lat="44.78169" lon="-0.14385">
        <ele>75.5</ele>
        <time>2022-10-06T12:48:26Z</time>
      </trkpt>
      <trkpt lat="44.78168" lon="-0.14387">
        <ele>75.5</ele>
        <time>2022-10-06T12:48:27Z</time>
      </trkpt>
      <trkpt lat="44.78168" lon="-0.14389">
        <ele>75.5</ele>
        <time>2022-10-06T12:48:28Z</time>
      </trkpt>
      <trkpt lat="44.78167" lon="-0.1439">
        <ele>75.5</ele>
        <time>2022-10-06T12:48:29Z</time>
      </trkpt>
      <trkpt lat="44.78165" lon="-0.14392">
        <ele>75.5</ele>
        <time>2022-10-06T12:48:30Z</time>
      </trkpt>
      <trkpt lat="44.78165" lon="-0.14392">
        <ele>75.5</ele>
        <time>2022-10-06T12:48:31Z</time>
      </trkpt>
      <trkpt lat="44.78164" lon="-0.14392">
        <ele>75.4</ele>
        <time>2022-10-06T12:48:32Z</time>
      </trkpt>
      <trkpt lat="44.78163" lon="-0.14392">
        <ele>75.4</ele>
        <time>2022-10-06T12:48:33Z</time>
      </trkpt>
      <trkpt lat="44.78161" lon="-0.14392">
        <ele>75.4</ele>
        <time>2022-10-06T12:48:34Z</time>
      </trkpt>
      <trkpt lat="44.7816" lon="-0.14393">
        <ele>75.4</ele>
        <time>2022-10-06T12:48:35Z</time>
      </trkpt>
      <trkpt lat="44.78159" lon="-0.14393">
        <ele>75.4</ele>
        <time>2022-10-06T12:48:36Z</time>
      </trkpt>
      <trkpt lat="44.78159" lon="-0.14395">
        <ele>75.4</ele>
        <time>2022-10-06T12:48:37Z</time>
      </trkpt>
      <trkpt lat="44.78158" lon="-0.14396">
        <ele>75.4</ele>
        <time>2022-10-06T12:48:38Z</time>
      </trkpt>
      <trkpt lat="44.78158" lon="-0.14397">
        <ele>75.4</ele>
        <time>2022-10-06T12:48:39Z</time>
      </trkpt>
      <trkpt lat="44.78158" lon="-0.14399">
        <ele>75.3</ele>
        <time>2022-10-06T12:48:40Z</time>
      </trkpt>
      <trkpt lat="44.78159" lon="-0.144">
        <ele>75.3</ele>
        <time>2022-10-06T12:48:41Z</time>
      </trkpt>
      <trkpt lat="44.78161" lon="-0.144">
        <ele>75.3</ele>
        <time>2022-10-06T12:48:42Z</time>
      </trkpt>
      <trkpt lat="44.78162" lon="-0.144">
        <ele>75.3</ele>
        <time>2022-10-06T12:48:43Z</time>
      </trkpt>
      <trkpt lat="44.78164" lon="-0.144">
        <ele>75.3</ele>
        <time>2022-10-06T12:48:44Z</time>
      </trkpt>
      <trkpt lat="44.78166" lon="-0.144">
        <ele>75.3</ele>
        <time>2022-10-06T12:48:45Z</time>
      </trkpt>
      <trkpt lat="44.78167" lon="-0.14399">
        <ele>75.2</ele>
        <time>2022-10-06T12:48:46Z</time>
      </trkpt>
      <trkpt lat="44.78169" lon="-0.14399">
        <ele>75.2</ele>
        <time>2022-10-06T12:48:47Z</time>
      </trkpt>
      <trkpt lat="44.7817" lon="-0.14398">
        <ele>75.2</ele>
        <time>2022-10-06T12:48:48Z</time>
      </trkpt>
      <trkpt lat="44.78172" lon="-0.14398">
        <ele>75.2</ele>
        <time>2022-10-06T12:48:49Z</time>
      </trkpt>
      <trkpt lat="44.78174" lon="-0.14397">
        <ele>75.1</ele>
        <time>2022-10-06T12:48:50Z</time>
      </trkpt>
      <trkpt lat="44.78176" lon="-0.14396">
        <ele>75</ele>
        <time>2022-10-06T12:48:51Z</time>
      </trkpt>
      <trkpt lat="44.78176" lon="-0.14396">
        <ele>75</ele>
        <time>2022-10-06T12:48:52Z</time>
      </trkpt>
      <trkpt lat="44.78177" lon="-0.14396">
        <ele>75</ele>
        <time>2022-10-06T12:48:53Z</time>
      </trkpt>
      <trkpt lat="44.78179" lon="-0.14395">
        <ele>75</ele>
        <time>2022-10-06T12:48:54Z</time>
      </trkpt>
      <trkpt lat="44.78181" lon="-0.14395">
        <ele>74.9</ele>
        <time>2022-10-06T12:48:55Z</time>
      </trkpt>
      <trkpt lat="44.78182" lon="-0.14395">
        <ele>74.9</ele>
        <time>2022-10-06T12:48:56Z</time>
      </trkpt>
      <trkpt lat="44.78183" lon="-0.14395">
        <ele>74.8</ele>
        <time>2022-10-06T12:48:57Z</time>
      </trkpt>
      <trkpt lat="44.78184" lon="-0.14395">
        <ele>74.8</ele>
        <time>2022-10-06T12:48:58Z</time>
      </trkpt>
      <trkpt lat="44.78185" lon="-0.14395">
        <ele>74.8</ele>
        <time>2022-10-06T12:48:59Z</time>
      </trkpt>
      <trkpt lat="44.78187" lon="-0.14395">
        <ele>74.7</ele>
        <time>2022-10-06T12:49:00Z</time>
      </trkpt>
      <trkpt lat="44.78188" lon="-0.14396">
        <ele>74.7</ele>
        <time>2022-10-06T12:49:01Z</time>
      </trkpt>
      <trkpt lat="44.78189" lon="-0.14396">
        <ele>74.7</ele>
        <time>2022-10-06T12:49:02Z</time>
      </trkpt>
      <trkpt lat="44.7819" lon="-0.14397">
        <ele>74.7</ele>
        <time>2022-10-06T12:49:03Z</time>
      </trkpt>
      <trkpt lat="44.78191" lon="-0.14398">
        <ele>74.6</ele>
        <time>2022-10-06T12:49:04Z</time>
      </trkpt>
      <trkpt lat="44.78192" lon="-0.144">
        <ele>74.6</ele>
        <time>2022-10-06T12:49:05Z</time>
      </trkpt>
      <trkpt lat="44.78193" lon="-0.14402">
        <ele>74.6</ele>
        <time>2022-10-06T12:49:06Z</time>
      </trkpt>
      <trkpt lat="44.78193" lon="-0.14403">
        <ele>74.6</ele>
        <time>2022-10-06T12:49:07Z</time>
      </trkpt>
      <trkpt lat="44.78194" lon="-0.14405">
        <ele>74.5</ele>
        <time>2022-10-06T12:49:08Z</time>
      </trkpt>
      <trkpt lat="44.78195" lon="-0.14408">
        <ele>74.5</ele>
        <time>2022-10-06T12:49:09Z</time>
      </trkpt>
      <trkpt lat="44.78195" lon="-0.1441">
        <ele>74.5</ele>
        <time>2022-10-06T12:49:10Z</time>
      </trkpt>
      <trkpt lat="44.78195" lon="-0.14413">
        <ele>74.4</ele>
        <time>2022-10-06T12:49:11Z</time>
      </trkpt>
      <trkpt lat="44.78195" lon="-0.14414">
        <ele>74.4</ele>
        <time>2022-10-06T12:49:12Z</time>
      </trkpt>
      <trkpt lat="44.78195" lon="-0.14415">
        <ele>74.4</ele>
        <time>2022-10-06T12:49:13Z</time>
      </trkpt>
      <trkpt lat="44.78195" lon="-0.14417">
        <ele>74.4</ele>
        <time>2022-10-06T12:49:14Z</time>
      </trkpt>
      <trkpt lat="44.78195" lon="-0.1442">
        <ele>74.3</ele>
        <time>2022-10-06T12:49:15Z</time>
      </trkpt>
      <trkpt lat="44.78195" lon="-0.14422">
        <ele>74.3</ele>
        <time>2022-10-06T12:49:16Z</time>
      </trkpt>
      <trkpt lat="44.78195" lon="-0.14423">
        <ele>74.3</ele>
        <time>2022-10-06T12:49:17Z</time>
      </trkpt>
      <trkpt lat="44.78195" lon="-0.14425">
        <ele>74.2</ele>
        <time>2022-10-06T12:49:18Z</time>
      </trkpt>
      <trkpt lat="44.78195" lon="-0.14429">
        <ele>74.2</ele>
        <time>2022-10-06T12:49:19Z</time>
      </trkpt>
      <trkpt lat="44.78195" lon="-0.1443">
        <ele>74.2</ele>
        <time>2022-10-06T12:49:20Z</time>
      </trkpt>
      <trkpt lat="44.78195" lon="-0.14433">
        <ele>74.2</ele>
        <time>2022-10-06T12:49:21Z</time>
      </trkpt>
      <trkpt lat="44.78195" lon="-0.14434">
        <ele>74.1</ele>
        <time>2022-10-06T12:49:22Z</time>
      </trkpt>
      <trkpt lat="44.78195" lon="-0.14435">
        <ele>74.1</ele>
        <time>2022-10-06T12:49:23Z</time>
      </trkpt>
      <trkpt lat="44.78195" lon="-0.14438">
        <ele>74.1</ele>
        <time>2022-10-06T12:49:24Z</time>
      </trkpt>
      <trkpt lat="44.78195" lon="-0.14441">
        <ele>74.1</ele>
        <time>2022-10-06T12:49:25Z</time>
      </trkpt>
      <trkpt lat="44.78195" lon="-0.14442">
        <ele>74.1</ele>
        <time>2022-10-06T12:49:26Z</time>
      </trkpt>
      <trkpt lat="44.78195" lon="-0.14443">
        <ele>74.1</ele>
        <time>2022-10-06T12:49:27Z</time>
      </trkpt>
      <trkpt lat="44.78195" lon="-0.14445">
        <ele>74</ele>
        <time>2022-10-06T12:49:28Z</time>
      </trkpt>
      <trkpt lat="44.78195" lon="-0.14449">
        <ele>74</ele>
        <time>2022-10-06T12:49:29Z</time>
      </trkpt>
      <trkpt lat="44.78195" lon="-0.1445">
        <ele>74</ele>
        <time>2022-10-06T12:49:30Z</time>
      </trkpt>
      <trkpt lat="44.78195" lon="-0.14452">
        <ele>74</ele>
        <time>2022-10-06T12:49:31Z</time>
      </trkpt>
      <trkpt lat="44.78194" lon="-0.14453">
        <ele>74</ele>
        <time>2022-10-06T12:49:32Z</time>
      </trkpt>
      <trkpt lat="44.78194" lon="-0.14455">
        <ele>74</ele>
        <time>2022-10-06T12:49:33Z</time>
      </trkpt>
      <trkpt lat="44.78194" lon="-0.14456">
        <ele>74</ele>
        <time>2022-10-06T12:49:34Z</time>
      </trkpt>
      <trkpt lat="44.78194" lon="-0.14458">
        <ele>73.9</ele>
        <time>2022-10-06T12:49:35Z</time>
      </trkpt>
      <trkpt lat="44.78194" lon="-0.1446">
        <ele>73.9</ele>
        <time>2022-10-06T12:49:36Z</time>
      </trkpt>
      <trkpt lat="44.78194" lon="-0.14462">
        <ele>73.9</ele>
        <time>2022-10-06T12:49:37Z</time>
      </trkpt>
      <trkpt lat="44.78194" lon="-0.14463">
        <ele>73.9</ele>
        <time>2022-10-06T12:49:38Z</time>
      </trkpt>
      <trkpt lat="44.78194" lon="-0.14465">
        <ele>73.9</ele>
        <time>2022-10-06T12:49:39Z</time>
      </trkpt>
      <trkpt lat="44.78195" lon="-0.14467">
        <ele>73.9</ele>
        <time>2022-10-06T12:49:40Z</time>
      </trkpt>
      <trkpt lat="44.78195" lon="-0.14469">
        <ele>73.9</ele>
        <time>2022-10-06T12:49:41Z</time>
      </trkpt>
      <trkpt lat="44.78195" lon="-0.1447">
        <ele>73.9</ele>
        <time>2022-10-06T12:49:42Z</time>
      </trkpt>
      <trkpt lat="44.78195" lon="-0.14472">
        <ele>73.9</ele>
        <time>2022-10-06T12:49:43Z</time>
      </trkpt>
      <trkpt lat="44.78195" lon="-0.14474">
        <ele>73.9</ele>
        <time>2022-10-06T12:49:44Z</time>
      </trkpt>
      <trkpt lat="44.78195" lon="-0.14475">
        <ele>73.9</ele>
        <time>2022-10-06T12:49:45Z</time>
      </trkpt>
      <trkpt lat="44.78195" lon="-0.14478">
        <ele>73.9</ele>
        <time>2022-10-06T12:49:46Z</time>
      </trkpt>
      <trkpt lat="44.78195" lon="-0.14479">
        <ele>73.9</ele>
        <time>2022-10-06T12:49:47Z</time>
      </trkpt>
      <trkpt lat="44.78195" lon="-0.14481">
        <ele>73.9</ele>
        <time>2022-10-06T12:49:48Z</time>
      </trkpt>
      <trkpt lat="44.78195" lon="-0.14482">
        <ele>73.9</ele>
        <time>2022-10-06T12:49:49Z</time>
      </trkpt>
      <trkpt lat="44.78196" lon="-0.14484">
        <ele>73.9</ele>
        <time>2022-10-06T12:49:50Z</time>
      </trkpt>
      <trkpt lat="44.78196" lon="-0.14487">
        <ele>73.9</ele>
        <time>2022-10-06T12:49:51Z</time>
      </trkpt>
      <trkpt lat="44.78196" lon="-0.14488">
        <ele>73.9</ele>
        <time>2022-10-06T12:49:52Z</time>
      </trkpt>
      <trkpt lat="44.78196" lon="-0.1449">
        <ele>73.9</ele>
        <time>2022-10-06T12:49:53Z</time>
      </trkpt>
      <trkpt lat="44.78196" lon="-0.14492">
        <ele>73.9</ele>
        <time>2022-10-06T12:49:54Z</time>
      </trkpt>
      <trkpt lat="44.78196" lon="-0.14494">
        <ele>73.9</ele>
        <time>2022-10-06T12:49:55Z</time>
      </trkpt>
      <trkpt lat="44.78196" lon="-0.14496">
        <ele>73.9</ele>
        <time>2022-10-06T12:49:56Z</time>
      </trkpt>
      <trkpt lat="44.78197" lon="-0.14497">
        <ele>73.9</ele>
        <time>2022-10-06T12:49:57Z</time>
      </trkpt>
      <trkpt lat="44.78197" lon="-0.14499">
        <ele>73.9</ele>
        <time>2022-10-06T12:49:58Z</time>
      </trkpt>
      <trkpt lat="44.78197" lon="-0.14501">
        <ele>73.9</ele>
        <time>2022-10-06T12:49:59Z</time>
      </trkpt>
      <trkpt lat="44.78197" lon="-0.14503">
        <ele>73.9</ele>
        <time>2022-10-06T12:50:00Z</time>
      </trkpt>
      <trkpt lat="44.78197" lon="-0.14505">
        <ele>73.9</ele>
        <time>2022-10-06T12:50:01Z</time>
      </trkpt>
      <trkpt lat="44.78197" lon="-0.14508">
        <ele>74</ele>
        <time>2022-10-06T12:50:02Z</time>
      </trkpt>
      <trkpt lat="44.78197" lon="-0.14509">
        <ele>74</ele>
        <time>2022-10-06T12:50:03Z</time>
      </trkpt>
      <trkpt lat="44.78197" lon="-0.1451">
        <ele>74</ele>
        <time>2022-10-06T12:50:04Z</time>
      </trkpt>
      <trkpt lat="44.78197" lon="-0.14512">
        <ele>74</ele>
        <time>2022-10-06T12:50:05Z</time>
      </trkpt>
      <trkpt lat="44.78197" lon="-0.14514">
        <ele>74</ele>
        <time>2022-10-06T12:50:06Z</time>
      </trkpt>
      <trkpt lat="44.78198" lon="-0.14516">
        <ele>74</ele>
        <time>2022-10-06T12:50:07Z</time>
      </trkpt>
      <trkpt lat="44.78198" lon="-0.14517">
        <ele>74</ele>
        <time>2022-10-06T12:50:08Z</time>
      </trkpt>
      <trkpt lat="44.78198" lon="-0.14519">
        <ele>74</ele>
        <time>2022-10-06T12:50:09Z</time>
      </trkpt>
      <trkpt lat="44.78198" lon="-0.14521">
        <ele>74</ele>
        <time>2022-10-06T12:50:10Z</time>
      </trkpt>
      <trkpt lat="44.78199" lon="-0.14524">
        <ele>74.1</ele>
        <time>2022-10-06T12:50:11Z</time>
      </trkpt>
      <trkpt lat="44.78199" lon="-0.14524">
        <ele>74.1</ele>
        <time>2022-10-06T12:50:12Z</time>
      </trkpt>
      <trkpt lat="44.78199" lon="-0.14526">
        <ele>74.1</ele>
        <time>2022-10-06T12:50:13Z</time>
      </trkpt>
      <trkpt lat="44.78199" lon="-0.14528">
        <ele>74.1</ele>
        <time>2022-10-06T12:50:14Z</time>
      </trkpt>
      <trkpt lat="44.78199" lon="-0.1453">
        <ele>74.1</ele>
        <time>2022-10-06T12:50:15Z</time>
      </trkpt>
      <trkpt lat="44.78199" lon="-0.14532">
        <ele>74.1</ele>
        <time>2022-10-06T12:50:16Z</time>
      </trkpt>
      <trkpt lat="44.78199" lon="-0.14533">
        <ele>74.1</ele>
        <time>2022-10-06T12:50:17Z</time>
      </trkpt>
      <trkpt lat="44.78199" lon="-0.14534">
        <ele>74.2</ele>
        <time>2022-10-06T12:50:18Z</time>
      </trkpt>
      <trkpt lat="44.782" lon="-0.14536">
        <ele>74.2</ele>
        <time>2022-10-06T12:50:19Z</time>
      </trkpt>
      <trkpt lat="44.782" lon="-0.14538">
        <ele>74.2</ele>
        <time>2022-10-06T12:50:20Z</time>
      </trkpt>
      <trkpt lat="44.782" lon="-0.14541">
        <ele>74.2</ele>
        <time>2022-10-06T12:50:21Z</time>
      </trkpt>
      <trkpt lat="44.78199" lon="-0.14542">
        <ele>74.2</ele>
        <time>2022-10-06T12:50:22Z</time>
      </trkpt>
      <trkpt lat="44.78199" lon="-0.14543">
        <ele>74.2</ele>
        <time>2022-10-06T12:50:23Z</time>
      </trkpt>
      <trkpt lat="44.78196" lon="-0.14546">
        <ele>74.3</ele>
        <time>2022-10-06T12:50:25Z</time>
      </trkpt>
      <trkpt lat="44.78195" lon="-0.14546">
        <ele>74.3</ele>
        <time>2022-10-06T12:50:26Z</time>
      </trkpt>
      <trkpt lat="44.78194" lon="-0.14547">
        <ele>74.3</ele>
        <time>2022-10-06T12:50:27Z</time>
      </trkpt>
      <trkpt lat="44.78193" lon="-0.14547">
        <ele>74.3</ele>
        <time>2022-10-06T12:50:28Z</time>
      </trkpt>
      <trkpt lat="44.78192" lon="-0.14548">
        <ele>74.4</ele>
        <time>2022-10-06T12:50:29Z</time>
      </trkpt>
      <trkpt lat="44.78191" lon="-0.14549">
        <ele>74.4</ele>
        <time>2022-10-06T12:50:30Z</time>
      </trkpt>
      <trkpt lat="44.7819" lon="-0.1455">
        <ele>74.4</ele>
        <time>2022-10-06T12:50:31Z</time>
      </trkpt>
      <trkpt lat="44.7819" lon="-0.1455">
        <ele>74.4</ele>
        <time>2022-10-06T12:50:32Z</time>
      </trkpt>
      <trkpt lat="44.78189" lon="-0.14552">
        <ele>74.4</ele>
        <time>2022-10-06T12:50:33Z</time>
      </trkpt>
      <trkpt lat="44.7819" lon="-0.14554">
        <ele>74.4</ele>
        <time>2022-10-06T12:50:34Z</time>
      </trkpt>
      <trkpt lat="44.78191" lon="-0.14555">
        <ele>74.5</ele>
        <time>2022-10-06T12:50:35Z</time>
      </trkpt>
      <trkpt lat="44.78191" lon="-0.14557">
        <ele>74.5</ele>
        <time>2022-10-06T12:50:36Z</time>
      </trkpt>
      <trkpt lat="44.78192" lon="-0.14558">
        <ele>74.5</ele>
        <time>2022-10-06T12:50:37Z</time>
      </trkpt>
      <trkpt lat="44.78192" lon="-0.1456">
        <ele>74.5</ele>
        <time>2022-10-06T12:50:38Z</time>
      </trkpt>
      <trkpt lat="44.78192" lon="-0.14561">
        <ele>74.5</ele>
        <time>2022-10-06T12:50:39Z</time>
      </trkpt>
      <trkpt lat="44.78193" lon="-0.14563">
        <ele>74.5</ele>
        <time>2022-10-06T12:50:40Z</time>
      </trkpt>
      <trkpt lat="44.78193" lon="-0.14564">
        <ele>74.6</ele>
        <time>2022-10-06T12:50:41Z</time>
      </trkpt>
      <trkpt lat="44.78194" lon="-0.14565">
        <ele>74.6</ele>
        <time>2022-10-06T12:50:42Z</time>
      </trkpt>
      <trkpt lat="44.78195" lon="-0.14567">
        <ele>74.6</ele>
        <time>2022-10-06T12:50:43Z</time>
      </trkpt>
      <trkpt lat="44.78195" lon="-0.14568">
        <ele>74.6</ele>
        <time>2022-10-06T12:50:44Z</time>
      </trkpt>
      <trkpt lat="44.78196" lon="-0.1457">
        <ele>74.6</ele>
        <time>2022-10-06T12:50:45Z</time>
      </trkpt>
      <trkpt lat="44.78196" lon="-0.14572">
        <ele>74.7</ele>
        <time>2022-10-06T12:50:46Z</time>
      </trkpt>
      <trkpt lat="44.78196" lon="-0.14573">
        <ele>74.7</ele>
        <time>2022-10-06T12:50:47Z</time>
      </trkpt>
      <trkpt lat="44.78197" lon="-0.14576">
        <ele>74.7</ele>
        <time>2022-10-06T12:50:48Z</time>
      </trkpt>
      <trkpt lat="44.78197" lon="-0.14577">
        <ele>74.7</ele>
        <time>2022-10-06T12:50:49Z</time>
      </trkpt>
      <trkpt lat="44.78198" lon="-0.14578">
        <ele>74.7</ele>
        <time>2022-10-06T12:50:50Z</time>
      </trkpt>
      <trkpt lat="44.78198" lon="-0.1458">
        <ele>74.8</ele>
        <time>2022-10-06T12:50:51Z</time>
      </trkpt>
      <trkpt lat="44.78199" lon="-0.14582">
        <ele>74.8</ele>
        <time>2022-10-06T12:50:52Z</time>
      </trkpt>
      <trkpt lat="44.78199" lon="-0.14585">
        <ele>74.8</ele>
        <time>2022-10-06T12:50:53Z</time>
      </trkpt>
      <trkpt lat="44.78199" lon="-0.14586">
        <ele>74.8</ele>
        <time>2022-10-06T12:50:54Z</time>
      </trkpt>
      <trkpt lat="44.782" lon="-0.14587">
        <ele>74.8</ele>
        <time>2022-10-06T12:50:55Z</time>
      </trkpt>
      <trkpt lat="44.782" lon="-0.1459">
        <ele>74.9</ele>
        <time>2022-10-06T12:50:56Z</time>
      </trkpt>
      <trkpt lat="44.782" lon="-0.14591">
        <ele>74.9</ele>
        <time>2022-10-06T12:50:57Z</time>
      </trkpt>
      <trkpt lat="44.782" lon="-0.14592">
        <ele>74.9</ele>
        <time>2022-10-06T12:50:58Z</time>
      </trkpt>
      <trkpt lat="44.782" lon="-0.14593">
        <ele>74.9</ele>
        <time>2022-10-06T12:50:59Z</time>
      </trkpt>
      <trkpt lat="44.782" lon="-0.14595">
        <ele>74.9</ele>
        <time>2022-10-06T12:51:00Z</time>
      </trkpt>
      <trkpt lat="44.782" lon="-0.14597">
        <ele>75</ele>
        <time>2022-10-06T12:51:01Z</time>
      </trkpt>
      <trkpt lat="44.782" lon="-0.14598">
        <ele>75</ele>
        <time>2022-10-06T12:51:02Z</time>
      </trkpt>
      <trkpt lat="44.782" lon="-0.146">
        <ele>75</ele>
        <time>2022-10-06T12:51:03Z</time>
      </trkpt>
      <trkpt lat="44.782" lon="-0.14601">
        <ele>75</ele>
        <time>2022-10-06T12:51:04Z</time>
      </trkpt>
      <trkpt lat="44.782" lon="-0.14602">
        <ele>75</ele>
        <time>2022-10-06T12:51:05Z</time>
      </trkpt>
      <trkpt lat="44.78201" lon="-0.14604">
        <ele>75</ele>
        <time>2022-10-06T12:51:06Z</time>
      </trkpt>
      <trkpt lat="44.78201" lon="-0.14606">
        <ele>75.1</ele>
        <time>2022-10-06T12:51:07Z</time>
      </trkpt>
      <trkpt lat="44.78201" lon="-0.14607">
        <ele>75.1</ele>
        <time>2022-10-06T12:51:08Z</time>
      </trkpt>
      <trkpt lat="44.78202" lon="-0.14609">
        <ele>75.1</ele>
        <time>2022-10-06T12:51:09Z</time>
      </trkpt>
      <trkpt lat="44.78202" lon="-0.14611">
        <ele>75.1</ele>
        <time>2022-10-06T12:51:10Z</time>
      </trkpt>
      <trkpt lat="44.78202" lon="-0.14613">
        <ele>75.1</ele>
        <time>2022-10-06T12:51:11Z</time>
      </trkpt>
      <trkpt lat="44.78202" lon="-0.14614">
        <ele>75.2</ele>
        <time>2022-10-06T12:51:12Z</time>
      </trkpt>
      <trkpt lat="44.78202" lon="-0.14616">
        <ele>75.2</ele>
        <time>2022-10-06T12:51:13Z</time>
      </trkpt>
      <trkpt lat="44.78202" lon="-0.14617">
        <ele>75.2</ele>
        <time>2022-10-06T12:51:14Z</time>
      </trkpt>
      <trkpt lat="44.78202" lon="-0.14618">
        <ele>75.2</ele>
        <time>2022-10-06T12:51:15Z</time>
      </trkpt>
      <trkpt lat="44.78202" lon="-0.1462">
        <ele>75.2</ele>
        <time>2022-10-06T12:51:16Z</time>
      </trkpt>
      <trkpt lat="44.78203" lon="-0.14621">
        <ele>75.2</ele>
        <time>2022-10-06T12:51:17Z</time>
      </trkpt>
      <trkpt lat="44.78203" lon="-0.14622">
        <ele>75.3</ele>
        <time>2022-10-06T12:51:18Z</time>
      </trkpt>
      <trkpt lat="44.78203" lon="-0.14624">
        <ele>75.3</ele>
        <time>2022-10-06T12:51:19Z</time>
      </trkpt>
      <trkpt lat="44.78203" lon="-0.14625">
        <ele>75.3</ele>
        <time>2022-10-06T12:51:20Z</time>
      </trkpt>
      <trkpt lat="44.78203" lon="-0.14627">
        <ele>75.3</ele>
        <time>2022-10-06T12:51:21Z</time>
      </trkpt>
      <trkpt lat="44.78203" lon="-0.14628">
        <ele>75.3</ele>
        <time>2022-10-06T12:51:22Z</time>
      </trkpt>
      <trkpt lat="44.78204" lon="-0.1463">
        <ele>75.3</ele>
        <time>2022-10-06T12:51:23Z</time>
      </trkpt>
      <trkpt lat="44.78204" lon="-0.14631">
        <ele>75.4</ele>
        <time>2022-10-06T12:51:24Z</time>
      </trkpt>
      <trkpt lat="44.78204" lon="-0.14633">
        <ele>75.4</ele>
        <time>2022-10-06T12:51:25Z</time>
      </trkpt>
      <trkpt lat="44.78205" lon="-0.14635">
        <ele>75.4</ele>
        <time>2022-10-06T12:51:26Z</time>
      </trkpt>
      <trkpt lat="44.78205" lon="-0.14637">
        <ele>75.4</ele>
        <time>2022-10-06T12:51:27Z</time>
      </trkpt>
      <trkpt lat="44.78205" lon="-0.14638">
        <ele>75.4</ele>
        <time>2022-10-06T12:51:28Z</time>
      </trkpt>
      <trkpt lat="44.78205" lon="-0.14639">
        <ele>75.5</ele>
        <time>2022-10-06T12:51:29Z</time>
      </trkpt>
      <trkpt lat="44.78205" lon="-0.14641">
        <ele>75.5</ele>
        <time>2022-10-06T12:51:30Z</time>
      </trkpt>
      <trkpt lat="44.78205" lon="-0.14643">
        <ele>75.5</ele>
        <time>2022-10-06T12:51:31Z</time>
      </trkpt>
      <trkpt lat="44.78205" lon="-0.14644">
        <ele>75.5</ele>
        <time>2022-10-06T12:51:32Z</time>
      </trkpt>
      <trkpt lat="44.78206" lon="-0.14645">
        <ele>75.5</ele>
        <time>2022-10-06T12:51:33Z</time>
      </trkpt>
      <trkpt lat="44.78206" lon="-0.14647">
        <ele>75.6</ele>
        <time>2022-10-06T12:51:34Z</time>
      </trkpt>
      <trkpt lat="44.78206" lon="-0.14649">
        <ele>75.6</ele>
        <time>2022-10-06T12:51:35Z</time>
      </trkpt>
      <trkpt lat="44.78206" lon="-0.1465">
        <ele>75.6</ele>
        <time>2022-10-06T12:51:36Z</time>
      </trkpt>
      <trkpt lat="44.78206" lon="-0.14652">
        <ele>75.6</ele>
        <time>2022-10-06T12:51:37Z</time>
      </trkpt>
      <trkpt lat="44.78206" lon="-0.14654">
        <ele>75.6</ele>
        <time>2022-10-06T12:51:38Z</time>
      </trkpt>
      <trkpt lat="44.78206" lon="-0.14655">
        <ele>75.6</ele>
        <time>2022-10-06T12:51:39Z</time>
      </trkpt>
      <trkpt lat="44.78206" lon="-0.14656">
        <ele>75.7</ele>
        <time>2022-10-06T12:51:40Z</time>
      </trkpt>
      <trkpt lat="44.78206" lon="-0.14657">
        <ele>75.7</ele>
        <time>2022-10-06T12:51:41Z</time>
      </trkpt>
      <trkpt lat="44.78206" lon="-0.14659">
        <ele>75.7</ele>
        <time>2022-10-06T12:51:42Z</time>
      </trkpt>
      <trkpt lat="44.78207" lon="-0.14661">
        <ele>75.7</ele>
        <time>2022-10-06T12:51:43Z</time>
      </trkpt>
      <trkpt lat="44.78207" lon="-0.14662">
        <ele>75.7</ele>
        <time>2022-10-06T12:51:44Z</time>
      </trkpt>
      <trkpt lat="44.78207" lon="-0.14664">
        <ele>75.8</ele>
        <time>2022-10-06T12:51:45Z</time>
      </trkpt>
      <trkpt lat="44.78207" lon="-0.14667">
        <ele>75.8</ele>
        <time>2022-10-06T12:51:46Z</time>
      </trkpt>
      <trkpt lat="44.78207" lon="-0.14668">
        <ele>75.8</ele>
        <time>2022-10-06T12:51:47Z</time>
      </trkpt>
      <trkpt lat="44.78207" lon="-0.14669">
        <ele>75.8</ele>
        <time>2022-10-06T12:51:48Z</time>
      </trkpt>
      <trkpt lat="44.78207" lon="-0.14672">
        <ele>75.9</ele>
        <time>2022-10-06T12:51:49Z</time>
      </trkpt>
      <trkpt lat="44.78207" lon="-0.14673">
        <ele>75.9</ele>
        <time>2022-10-06T12:51:50Z</time>
      </trkpt>
      <trkpt lat="44.78207" lon="-0.14674">
        <ele>75.9</ele>
        <time>2022-10-06T12:51:51Z</time>
      </trkpt>
      <trkpt lat="44.78208" lon="-0.14676">
        <ele>75.9</ele>
        <time>2022-10-06T12:51:52Z</time>
      </trkpt>
      <trkpt lat="44.78208" lon="-0.14677">
        <ele>75.9</ele>
        <time>2022-10-06T12:51:53Z</time>
      </trkpt>
      <trkpt lat="44.78208" lon="-0.14678">
        <ele>75.9</ele>
        <time>2022-10-06T12:51:54Z</time>
      </trkpt>
      <trkpt lat="44.78208" lon="-0.1468">
        <ele>76</ele>
        <time>2022-10-06T12:51:55Z</time>
      </trkpt>
      <trkpt lat="44.78208" lon="-0.14683">
        <ele>76</ele>
        <time>2022-10-06T12:51:56Z</time>
      </trkpt>
      <trkpt lat="44.78208" lon="-0.14684">
        <ele>76</ele>
        <time>2022-10-06T12:51:57Z</time>
      </trkpt>
      <trkpt lat="44.78208" lon="-0.14686">
        <ele>76</ele>
        <time>2022-10-06T12:51:58Z</time>
      </trkpt>
      <trkpt lat="44.78208" lon="-0.14687">
        <ele>76.1</ele>
        <time>2022-10-06T12:51:59Z</time>
      </trkpt>
      <trkpt lat="44.78208" lon="-0.14688">
        <ele>76.1</ele>
        <time>2022-10-06T12:52:00Z</time>
      </trkpt>
      <trkpt lat="44.78208" lon="-0.14689">
        <ele>76.1</ele>
        <time>2022-10-06T12:52:01Z</time>
      </trkpt>
      <trkpt lat="44.78208" lon="-0.14691">
        <ele>76.1</ele>
        <time>2022-10-06T12:52:02Z</time>
      </trkpt>
      <trkpt lat="44.78208" lon="-0.14693">
        <ele>76.1</ele>
        <time>2022-10-06T12:52:03Z</time>
      </trkpt>
      <trkpt lat="44.78208" lon="-0.14694">
        <ele>76.1</ele>
        <time>2022-10-06T12:52:04Z</time>
      </trkpt>
      <trkpt lat="44.78208" lon="-0.14696">
        <ele>76.2</ele>
        <time>2022-10-06T12:52:05Z</time>
      </trkpt>
      <trkpt lat="44.78208" lon="-0.14698">
        <ele>76.2</ele>
        <time>2022-10-06T12:52:06Z</time>
      </trkpt>
      <trkpt lat="44.78208" lon="-0.14699">
        <ele>76.2</ele>
        <time>2022-10-06T12:52:07Z</time>
      </trkpt>
      <trkpt lat="44.78208" lon="-0.14701">
        <ele>76.2</ele>
        <time>2022-10-06T12:52:08Z</time>
      </trkpt>
      <trkpt lat="44.78209" lon="-0.14703">
        <ele>76.3</ele>
        <time>2022-10-06T12:52:09Z</time>
      </trkpt>
      <trkpt lat="44.78209" lon="-0.14704">
        <ele>76.3</ele>
        <time>2022-10-06T12:52:10Z</time>
      </trkpt>
      <trkpt lat="44.78209" lon="-0.14706">
        <ele>76.3</ele>
        <time>2022-10-06T12:52:11Z</time>
      </trkpt>
      <trkpt lat="44.78209" lon="-0.14707">
        <ele>76.3</ele>
        <time>2022-10-06T12:52:12Z</time>
      </trkpt>
      <trkpt lat="44.78209" lon="-0.14709">
        <ele>76.3</ele>
        <time>2022-10-06T12:52:13Z</time>
      </trkpt>
      <trkpt lat="44.7821" lon="-0.1471">
        <ele>76.3</ele>
        <time>2022-10-06T12:52:14Z</time>
      </trkpt>
      <trkpt lat="44.7821" lon="-0.14712">
        <ele>76.3</ele>
        <time>2022-10-06T12:52:15Z</time>
      </trkpt>
      <trkpt lat="44.7821" lon="-0.14714">
        <ele>76.4</ele>
        <time>2022-10-06T12:52:16Z</time>
      </trkpt>
      <trkpt lat="44.7821" lon="-0.14715">
        <ele>76.4</ele>
        <time>2022-10-06T12:52:17Z</time>
      </trkpt>
      <trkpt lat="44.78211" lon="-0.14716">
        <ele>76.4</ele>
        <time>2022-10-06T12:52:18Z</time>
      </trkpt>
      <trkpt lat="44.78211" lon="-0.14718">
        <ele>76.4</ele>
        <time>2022-10-06T12:52:19Z</time>
      </trkpt>
      <trkpt lat="44.78211" lon="-0.1472">
        <ele>76.4</ele>
        <time>2022-10-06T12:52:20Z</time>
      </trkpt>
      <trkpt lat="44.78212" lon="-0.14723">
        <ele>76.5</ele>
        <time>2022-10-06T12:52:21Z</time>
      </trkpt>
      <trkpt lat="44.78212" lon="-0.14724">
        <ele>76.5</ele>
        <time>2022-10-06T12:52:22Z</time>
      </trkpt>
      <trkpt lat="44.78212" lon="-0.14725">
        <ele>76.6</ele>
        <time>2022-10-06T12:52:23Z</time>
      </trkpt>
      <trkpt lat="44.78212" lon="-0.14727">
        <ele>76.6</ele>
        <time>2022-10-06T12:52:24Z</time>
      </trkpt>
      <trkpt lat="44.78213" lon="-0.14729">
        <ele>76.6</ele>
        <time>2022-10-06T12:52:25Z</time>
      </trkpt>
      <trkpt lat="44.78213" lon="-0.14732">
        <ele>76.7</ele>
        <time>2022-10-06T12:52:26Z</time>
      </trkpt>
      <trkpt lat="44.78213" lon="-0.14733">
        <ele>76.7</ele>
        <time>2022-10-06T12:52:27Z</time>
      </trkpt>
      <trkpt lat="44.78214" lon="-0.14734">
        <ele>76.7</ele>
        <time>2022-10-06T12:52:28Z</time>
      </trkpt>
      <trkpt lat="44.78214" lon="-0.14735">
        <ele>76.8</ele>
        <time>2022-10-06T12:52:29Z</time>
      </trkpt>
      <trkpt lat="44.78215" lon="-0.14737">
        <ele>76.8</ele>
        <time>2022-10-06T12:52:30Z</time>
      </trkpt>
      <trkpt lat="44.78215" lon="-0.14741">
        <ele>76.8</ele>
        <time>2022-10-06T12:52:31Z</time>
      </trkpt>
      <trkpt lat="44.78215" lon="-0.14741">
        <ele>76.9</ele>
        <time>2022-10-06T12:52:32Z</time>
      </trkpt>
      <trkpt lat="44.78215" lon="-0.14742">
        <ele>76.9</ele>
        <time>2022-10-06T12:52:33Z</time>
      </trkpt>
      <trkpt lat="44.78216" lon="-0.14745">
        <ele>76.9</ele>
        <time>2022-10-06T12:52:34Z</time>
      </trkpt>
      <trkpt lat="44.78216" lon="-0.14747">
        <ele>76.9</ele>
        <time>2022-10-06T12:52:35Z</time>
      </trkpt>
      <trkpt lat="44.78217" lon="-0.14748">
        <ele>76.9</ele>
        <time>2022-10-06T12:52:36Z</time>
      </trkpt>
      <trkpt lat="44.78217" lon="-0.14749">
        <ele>77</ele>
        <time>2022-10-06T12:52:37Z</time>
      </trkpt>
      <trkpt lat="44.78217" lon="-0.1475">
        <ele>77</ele>
        <time>2022-10-06T12:52:38Z</time>
      </trkpt>
      <trkpt lat="44.78218" lon="-0.14752">
        <ele>77</ele>
        <time>2022-10-06T12:52:39Z</time>
      </trkpt>
      <trkpt lat="44.78218" lon="-0.14754">
        <ele>77</ele>
        <time>2022-10-06T12:52:40Z</time>
      </trkpt>
      <trkpt lat="44.78218" lon="-0.14756">
        <ele>77</ele>
        <time>2022-10-06T12:52:41Z</time>
      </trkpt>
      <trkpt lat="44.78219" lon="-0.14757">
        <ele>77</ele>
        <time>2022-10-06T12:52:42Z</time>
      </trkpt>
      <trkpt lat="44.78219" lon="-0.14759">
        <ele>77.1</ele>
        <time>2022-10-06T12:52:43Z</time>
      </trkpt>
      <trkpt lat="44.78219" lon="-0.1476">
        <ele>77.1</ele>
        <time>2022-10-06T12:52:44Z</time>
      </trkpt>
      <trkpt lat="44.7822" lon="-0.14762">
        <ele>77.1</ele>
        <time>2022-10-06T12:52:45Z</time>
      </trkpt>
      <trkpt lat="44.7822" lon="-0.14764">
        <ele>77.1</ele>
        <time>2022-10-06T12:52:46Z</time>
      </trkpt>
      <trkpt lat="44.78221" lon="-0.14766">
        <ele>77.1</ele>
        <time>2022-10-06T12:52:47Z</time>
      </trkpt>
      <trkpt lat="44.78221" lon="-0.14768">
        <ele>77.1</ele>
        <time>2022-10-06T12:52:48Z</time>
      </trkpt>
      <trkpt lat="44.78221" lon="-0.14769">
        <ele>77.2</ele>
        <time>2022-10-06T12:52:49Z</time>
      </trkpt>
      <trkpt lat="44.78222" lon="-0.14771">
        <ele>77.2</ele>
        <time>2022-10-06T12:52:50Z</time>
      </trkpt>
      <trkpt lat="44.78222" lon="-0.14773">
        <ele>77.2</ele>
        <time>2022-10-06T12:52:51Z</time>
      </trkpt>
      <trkpt lat="44.78223" lon="-0.14776">
        <ele>77.2</ele>
        <time>2022-10-06T12:52:52Z</time>
      </trkpt>
      <trkpt lat="44.78223" lon="-0.14777">
        <ele>77.2</ele>
        <time>2022-10-06T12:52:53Z</time>
      </trkpt>
      <trkpt lat="44.78223" lon="-0.14779">
        <ele>77.2</ele>
        <time>2022-10-06T12:52:54Z</time>
      </trkpt>
      <trkpt lat="44.78223" lon="-0.1478">
        <ele>77.2</ele>
        <time>2022-10-06T12:52:55Z</time>
      </trkpt>
      <trkpt lat="44.78224" lon="-0.14783">
        <ele>77.3</ele>
        <time>2022-10-06T12:52:56Z</time>
      </trkpt>
      <trkpt lat="44.78224" lon="-0.14784">
        <ele>77.3</ele>
        <time>2022-10-06T12:52:57Z</time>
      </trkpt>
      <trkpt lat="44.78224" lon="-0.14785">
        <ele>77.3</ele>
        <time>2022-10-06T12:52:58Z</time>
      </trkpt>
      <trkpt lat="44.78225" lon="-0.14787">
        <ele>77.3</ele>
        <time>2022-10-06T12:52:59Z</time>
      </trkpt>
      <trkpt lat="44.78225" lon="-0.14789">
        <ele>77.3</ele>
        <time>2022-10-06T12:53:00Z</time>
      </trkpt>
      <trkpt lat="44.78226" lon="-0.14791">
        <ele>77.3</ele>
        <time>2022-10-06T12:53:01Z</time>
      </trkpt>
      <trkpt lat="44.78226" lon="-0.14792">
        <ele>77.3</ele>
        <time>2022-10-06T12:53:02Z</time>
      </trkpt>
      <trkpt lat="44.78227" lon="-0.14795">
        <ele>77.3</ele>
        <time>2022-10-06T12:53:03Z</time>
      </trkpt>
      <trkpt lat="44.78227" lon="-0.14796">
        <ele>77.3</ele>
        <time>2022-10-06T12:53:04Z</time>
      </trkpt>
      <trkpt lat="44.78228" lon="-0.14797">
        <ele>77.3</ele>
        <time>2022-10-06T12:53:05Z</time>
      </trkpt>
      <trkpt lat="44.78228" lon="-0.148">
        <ele>77.4</ele>
        <time>2022-10-06T12:53:06Z</time>
      </trkpt>
      <trkpt lat="44.78228" lon="-0.14801">
        <ele>77.4</ele>
        <time>2022-10-06T12:53:07Z</time>
      </trkpt>
      <trkpt lat="44.78229" lon="-0.14803">
        <ele>77.4</ele>
        <time>2022-10-06T12:53:08Z</time>
      </trkpt>
      <trkpt lat="44.78229" lon="-0.14805">
        <ele>77.4</ele>
        <time>2022-10-06T12:53:09Z</time>
      </trkpt>
      <trkpt lat="44.78229" lon="-0.14806">
        <ele>77.4</ele>
        <time>2022-10-06T12:53:10Z</time>
      </trkpt>
      <trkpt lat="44.7823" lon="-0.14808">
        <ele>77.4</ele>
        <time>2022-10-06T12:53:11Z</time>
      </trkpt>
      <trkpt lat="44.7823" lon="-0.14809">
        <ele>77.4</ele>
        <time>2022-10-06T12:53:12Z</time>
      </trkpt>
      <trkpt lat="44.7823" lon="-0.14811">
        <ele>77.4</ele>
        <time>2022-10-06T12:53:13Z</time>
      </trkpt>
      <trkpt lat="44.78231" lon="-0.14813">
        <ele>77.4</ele>
        <time>2022-10-06T12:53:14Z</time>
      </trkpt>
      <trkpt lat="44.78231" lon="-0.14814">
        <ele>77.5</ele>
        <time>2022-10-06T12:53:15Z</time>
      </trkpt>
      <trkpt lat="44.78232" lon="-0.14817">
        <ele>77.5</ele>
        <time>2022-10-06T12:53:16Z</time>
      </trkpt>
      <trkpt lat="44.78232" lon="-0.14818">
        <ele>77.5</ele>
        <time>2022-10-06T12:53:17Z</time>
      </trkpt>
      <trkpt lat="44.78232" lon="-0.14819">
        <ele>77.5</ele>
        <time>2022-10-06T12:53:18Z</time>
      </trkpt>
      <trkpt lat="44.78233" lon="-0.14822">
        <ele>77.5</ele>
        <time>2022-10-06T12:53:19Z</time>
      </trkpt>
      <trkpt lat="44.78233" lon="-0.14824">
        <ele>77.5</ele>
        <time>2022-10-06T12:53:20Z</time>
      </trkpt>
      <trkpt lat="44.78234" lon="-0.14825">
        <ele>77.5</ele>
        <time>2022-10-06T12:53:21Z</time>
      </trkpt>
      <trkpt lat="44.78234" lon="-0.14826">
        <ele>77.5</ele>
        <time>2022-10-06T12:53:22Z</time>
      </trkpt>
      <trkpt lat="44.78234" lon="-0.14828">
        <ele>77.5</ele>
        <time>2022-10-06T12:53:23Z</time>
      </trkpt>
      <trkpt lat="44.78234" lon="-0.14829">
        <ele>77.6</ele>
        <time>2022-10-06T12:53:24Z</time>
      </trkpt>
      <trkpt lat="44.78235" lon="-0.14832">
        <ele>77.6</ele>
        <time>2022-10-06T12:53:25Z</time>
      </trkpt>
      <trkpt lat="44.78235" lon="-0.14834">
        <ele>77.6</ele>
        <time>2022-10-06T12:53:26Z</time>
      </trkpt>
      <trkpt lat="44.78236" lon="-0.14835">
        <ele>77.6</ele>
        <time>2022-10-06T12:53:27Z</time>
      </trkpt>
      <trkpt lat="44.78237" lon="-0.14838">
        <ele>77.6</ele>
        <time>2022-10-06T12:53:28Z</time>
      </trkpt>
      <trkpt lat="44.78237" lon="-0.14839">
        <ele>77.6</ele>
        <time>2022-10-06T12:53:29Z</time>
      </trkpt>
      <trkpt lat="44.78237" lon="-0.1484">
        <ele>77.6</ele>
        <time>2022-10-06T12:53:30Z</time>
      </trkpt>
      <trkpt lat="44.78237" lon="-0.14841">
        <ele>77.6</ele>
        <time>2022-10-06T12:53:31Z</time>
      </trkpt>
      <trkpt lat="44.78238" lon="-0.14844">
        <ele>77.7</ele>
        <time>2022-10-06T12:53:32Z</time>
      </trkpt>
      <trkpt lat="44.78238" lon="-0.14845">
        <ele>77.7</ele>
        <time>2022-10-06T12:53:33Z</time>
      </trkpt>
      <trkpt lat="44.78239" lon="-0.14848">
        <ele>77.7</ele>
        <time>2022-10-06T12:53:34Z</time>
      </trkpt>
      <trkpt lat="44.78239" lon="-0.14849">
        <ele>77.7</ele>
        <time>2022-10-06T12:53:35Z</time>
      </trkpt>
      <trkpt lat="44.78239" lon="-0.1485">
        <ele>77.7</ele>
        <time>2022-10-06T12:53:36Z</time>
      </trkpt>
      <trkpt lat="44.78239" lon="-0.14852">
        <ele>77.7</ele>
        <time>2022-10-06T12:53:37Z</time>
      </trkpt>
      <trkpt lat="44.78239" lon="-0.14853">
        <ele>77.7</ele>
        <time>2022-10-06T12:53:38Z</time>
      </trkpt>
      <trkpt lat="44.7824" lon="-0.14855">
        <ele>77.7</ele>
        <time>2022-10-06T12:53:39Z</time>
      </trkpt>
      <trkpt lat="44.7824" lon="-0.14857">
        <ele>77.7</ele>
        <time>2022-10-06T12:53:40Z</time>
      </trkpt>
      <trkpt lat="44.7824" lon="-0.14859">
        <ele>77.7</ele>
        <time>2022-10-06T12:53:41Z</time>
      </trkpt>
      <trkpt lat="44.78241" lon="-0.14862">
        <ele>77.8</ele>
        <time>2022-10-06T12:53:42Z</time>
      </trkpt>
      <trkpt lat="44.78241" lon="-0.14863">
        <ele>77.8</ele>
        <time>2022-10-06T12:53:43Z</time>
      </trkpt>
      <trkpt lat="44.78241" lon="-0.14864">
        <ele>77.8</ele>
        <time>2022-10-06T12:53:44Z</time>
      </trkpt>
      <trkpt lat="44.78241" lon="-0.14867">
        <ele>77.8</ele>
        <time>2022-10-06T12:53:45Z</time>
      </trkpt>
      <trkpt lat="44.78241" lon="-0.14868">
        <ele>77.8</ele>
        <time>2022-10-06T12:53:46Z</time>
      </trkpt>
      <trkpt lat="44.78242" lon="-0.1487">
        <ele>77.8</ele>
        <time>2022-10-06T12:53:47Z</time>
      </trkpt>
      <trkpt lat="44.78242" lon="-0.14871">
        <ele>77.8</ele>
        <time>2022-10-06T12:53:48Z</time>
      </trkpt>
      <trkpt lat="44.78242" lon="-0.14873">
        <ele>77.8</ele>
        <time>2022-10-06T12:53:49Z</time>
      </trkpt>
      <trkpt lat="44.78242" lon="-0.14875">
        <ele>77.8</ele>
        <time>2022-10-06T12:53:50Z</time>
      </trkpt>
      <trkpt lat="44.78242" lon="-0.14877">
        <ele>77.9</ele>
        <time>2022-10-06T12:53:51Z</time>
      </trkpt>
      <trkpt lat="44.78242" lon="-0.14879">
        <ele>77.9</ele>
        <time>2022-10-06T12:53:52Z</time>
      </trkpt>
      <trkpt lat="44.78243" lon="-0.1488">
        <ele>77.9</ele>
        <time>2022-10-06T12:53:53Z</time>
      </trkpt>
      <trkpt lat="44.78243" lon="-0.14882">
        <ele>77.9</ele>
        <time>2022-10-06T12:53:54Z</time>
      </trkpt>
      <trkpt lat="44.78243" lon="-0.14883">
        <ele>77.9</ele>
        <time>2022-10-06T12:53:55Z</time>
      </trkpt>
      <trkpt lat="44.78244" lon="-0.14885">
        <ele>77.9</ele>
        <time>2022-10-06T12:53:56Z</time>
      </trkpt>
      <trkpt lat="44.78244" lon="-0.14887">
        <ele>77.9</ele>
        <time>2022-10-06T12:53:57Z</time>
      </trkpt>
      <trkpt lat="44.78244" lon="-0.14888">
        <ele>77.9</ele>
        <time>2022-10-06T12:53:58Z</time>
      </trkpt>
      <trkpt lat="44.78244" lon="-0.1489">
        <ele>77.9</ele>
        <time>2022-10-06T12:53:59Z</time>
      </trkpt>
      <trkpt lat="44.78244" lon="-0.14892">
        <ele>77.9</ele>
        <time>2022-10-06T12:54:00Z</time>
      </trkpt>
      <trkpt lat="44.78244" lon="-0.14894">
        <ele>77.9</ele>
        <time>2022-10-06T12:54:01Z</time>
      </trkpt>
      <trkpt lat="44.78245" lon="-0.14896">
        <ele>78</ele>
        <time>2022-10-06T12:54:02Z</time>
      </trkpt>
      <trkpt lat="44.78245" lon="-0.14898">
        <ele>78</ele>
        <time>2022-10-06T12:54:03Z</time>
      </trkpt>
      <trkpt lat="44.78245" lon="-0.149">
        <ele>78</ele>
        <time>2022-10-06T12:54:04Z</time>
      </trkpt>
      <trkpt lat="44.78245" lon="-0.14901">
        <ele>78</ele>
        <time>2022-10-06T12:54:05Z</time>
      </trkpt>
      <trkpt lat="44.78245" lon="-0.14903">
        <ele>78</ele>
        <time>2022-10-06T12:54:06Z</time>
      </trkpt>
      <trkpt lat="44.78245" lon="-0.14905">
        <ele>78</ele>
        <time>2022-10-06T12:54:07Z</time>
      </trkpt>
      <trkpt lat="44.78245" lon="-0.14906">
        <ele>78</ele>
        <time>2022-10-06T12:54:08Z</time>
      </trkpt>
      <trkpt lat="44.78246" lon="-0.14908">
        <ele>78</ele>
        <time>2022-10-06T12:54:09Z</time>
      </trkpt>
      <trkpt lat="44.78246" lon="-0.1491">
        <ele>78</ele>
        <time>2022-10-06T12:54:10Z</time>
      </trkpt>
      <trkpt lat="44.78246" lon="-0.14911">
        <ele>78</ele>
        <time>2022-10-06T12:54:11Z</time>
      </trkpt>
      <trkpt lat="44.78246" lon="-0.14914">
        <ele>78</ele>
        <time>2022-10-06T12:54:12Z</time>
      </trkpt>
      <trkpt lat="44.78246" lon="-0.14915">
        <ele>78</ele>
        <time>2022-10-06T12:54:13Z</time>
      </trkpt>
      <trkpt lat="44.78246" lon="-0.14917">
        <ele>78.1</ele>
        <time>2022-10-06T12:54:14Z</time>
      </trkpt>
      <trkpt lat="44.78246" lon="-0.14919">
        <ele>78.1</ele>
        <time>2022-10-06T12:54:15Z</time>
      </trkpt>
      <trkpt lat="44.78247" lon="-0.14921">
        <ele>78.1</ele>
        <time>2022-10-06T12:54:16Z</time>
      </trkpt>
      <trkpt lat="44.78247" lon="-0.14924">
        <ele>78.1</ele>
        <time>2022-10-06T12:54:17Z</time>
      </trkpt>
      <trkpt lat="44.78247" lon="-0.14926">
        <ele>78.1</ele>
        <time>2022-10-06T12:54:18Z</time>
      </trkpt>
      <trkpt lat="44.78248" lon="-0.14927">
        <ele>78.1</ele>
        <time>2022-10-06T12:54:19Z</time>
      </trkpt>
      <trkpt lat="44.78248" lon="-0.14928">
        <ele>78.1</ele>
        <time>2022-10-06T12:54:20Z</time>
      </trkpt>
      <trkpt lat="44.78248" lon="-0.1493">
        <ele>78.1</ele>
        <time>2022-10-06T12:54:21Z</time>
      </trkpt>
      <trkpt lat="44.78248" lon="-0.14932">
        <ele>78.1</ele>
        <time>2022-10-06T12:54:22Z</time>
      </trkpt>
      <trkpt lat="44.78248" lon="-0.14934">
        <ele>78.1</ele>
        <time>2022-10-06T12:54:23Z</time>
      </trkpt>
      <trkpt lat="44.78248" lon="-0.14936">
        <ele>78.1</ele>
        <time>2022-10-06T12:54:24Z</time>
      </trkpt>
      <trkpt lat="44.78248" lon="-0.14937">
        <ele>78.1</ele>
        <time>2022-10-06T12:54:25Z</time>
      </trkpt>
      <trkpt lat="44.78249" lon="-0.14939">
        <ele>78.1</ele>
        <time>2022-10-06T12:54:26Z</time>
      </trkpt>
      <trkpt lat="44.78249" lon="-0.14941">
        <ele>78.1</ele>
        <time>2022-10-06T12:54:27Z</time>
      </trkpt>
      <trkpt lat="44.78249" lon="-0.14943">
        <ele>78.2</ele>
        <time>2022-10-06T12:54:28Z</time>
      </trkpt>
      <trkpt lat="44.78249" lon="-0.14944">
        <ele>78.2</ele>
        <time>2022-10-06T12:54:29Z</time>
      </trkpt>
      <trkpt lat="44.78249" lon="-0.14946">
        <ele>78.2</ele>
        <time>2022-10-06T12:54:30Z</time>
      </trkpt>
      <trkpt lat="44.78249" lon="-0.14949">
        <ele>78.2</ele>
        <time>2022-10-06T12:54:31Z</time>
      </trkpt>
      <trkpt lat="44.78249" lon="-0.1495">
        <ele>78.2</ele>
        <time>2022-10-06T12:54:32Z</time>
      </trkpt>
      <trkpt lat="44.7825" lon="-0.14951">
        <ele>78.2</ele>
        <time>2022-10-06T12:54:33Z</time>
      </trkpt>
      <trkpt lat="44.7825" lon="-0.14953">
        <ele>78.2</ele>
        <time>2022-10-06T12:54:34Z</time>
      </trkpt>
      <trkpt lat="44.7825" lon="-0.14955">
        <ele>78.2</ele>
        <time>2022-10-06T12:54:35Z</time>
      </trkpt>
      <trkpt lat="44.7825" lon="-0.14957">
        <ele>78.2</ele>
        <time>2022-10-06T12:54:36Z</time>
      </trkpt>
      <trkpt lat="44.7825" lon="-0.14959">
        <ele>78.2</ele>
        <time>2022-10-06T12:54:37Z</time>
      </trkpt>
      <trkpt lat="44.78251" lon="-0.14962">
        <ele>78.2</ele>
        <time>2022-10-06T12:54:38Z</time>
      </trkpt>
      <trkpt lat="44.78251" lon="-0.14963">
        <ele>78.2</ele>
        <time>2022-10-06T12:54:39Z</time>
      </trkpt>
      <trkpt lat="44.78251" lon="-0.14964">
        <ele>78.2</ele>
        <time>2022-10-06T12:54:40Z</time>
      </trkpt>
      <trkpt lat="44.78251" lon="-0.14966">
        <ele>78.2</ele>
        <time>2022-10-06T12:54:41Z</time>
      </trkpt>
      <trkpt lat="44.78252" lon="-0.14968">
        <ele>78.2</ele>
        <time>2022-10-06T12:54:42Z</time>
      </trkpt>
      <trkpt lat="44.78252" lon="-0.14971">
        <ele>78.2</ele>
        <time>2022-10-06T12:54:43Z</time>
      </trkpt>
      <trkpt lat="44.78252" lon="-0.14972">
        <ele>78.2</ele>
        <time>2022-10-06T12:54:44Z</time>
      </trkpt>
      <trkpt lat="44.78252" lon="-0.14973">
        <ele>78.2</ele>
        <time>2022-10-06T12:54:45Z</time>
      </trkpt>
      <trkpt lat="44.78252" lon="-0.14975">
        <ele>78.2</ele>
        <time>2022-10-06T12:54:46Z</time>
      </trkpt>
      <trkpt lat="44.78253" lon="-0.14978">
        <ele>78.2</ele>
        <time>2022-10-06T12:54:47Z</time>
      </trkpt>
      <trkpt lat="44.78253" lon="-0.14979">
        <ele>78.2</ele>
        <time>2022-10-06T12:54:48Z</time>
      </trkpt>
      <trkpt lat="44.78253" lon="-0.14981">
        <ele>78.2</ele>
        <time>2022-10-06T12:54:49Z</time>
      </trkpt>
      <trkpt lat="44.78254" lon="-0.14982">
        <ele>78.1</ele>
        <time>2022-10-06T12:54:50Z</time>
      </trkpt>
      <trkpt lat="44.78254" lon="-0.14984">
        <ele>78.1</ele>
        <time>2022-10-06T12:54:51Z</time>
      </trkpt>
      <trkpt lat="44.78255" lon="-0.14986">
        <ele>78.1</ele>
        <time>2022-10-06T12:54:52Z</time>
      </trkpt>
      <trkpt lat="44.78255" lon="-0.14988">
        <ele>78.1</ele>
        <time>2022-10-06T12:54:53Z</time>
      </trkpt>
      <trkpt lat="44.78255" lon="-0.14989">
        <ele>78.1</ele>
        <time>2022-10-06T12:54:54Z</time>
      </trkpt>
      <trkpt lat="44.78256" lon="-0.14991">
        <ele>78.1</ele>
        <time>2022-10-06T12:54:55Z</time>
      </trkpt>
      <trkpt lat="44.78256" lon="-0.14993">
        <ele>78.1</ele>
        <time>2022-10-06T12:54:56Z</time>
      </trkpt>
      <trkpt lat="44.78257" lon="-0.14995">
        <ele>78</ele>
        <time>2022-10-06T12:54:57Z</time>
      </trkpt>
      <trkpt lat="44.78257" lon="-0.14996">
        <ele>78</ele>
        <time>2022-10-06T12:54:58Z</time>
      </trkpt>
      <trkpt lat="44.78257" lon="-0.14998">
        <ele>78</ele>
        <time>2022-10-06T12:54:59Z</time>
      </trkpt>
      <trkpt lat="44.78258" lon="-0.14999">
        <ele>78</ele>
        <time>2022-10-06T12:55:00Z</time>
      </trkpt>
      <trkpt lat="44.78258" lon="-0.15001">
        <ele>78</ele>
        <time>2022-10-06T12:55:01Z</time>
      </trkpt>
      <trkpt lat="44.78258" lon="-0.15004">
        <ele>78</ele>
        <time>2022-10-06T12:55:02Z</time>
      </trkpt>
      <trkpt lat="44.78259" lon="-0.15005">
        <ele>77.9</ele>
        <time>2022-10-06T12:55:03Z</time>
      </trkpt>
      <trkpt lat="44.78259" lon="-0.15007">
        <ele>77.9</ele>
        <time>2022-10-06T12:55:04Z</time>
      </trkpt>
      <trkpt lat="44.78259" lon="-0.15009">
        <ele>77.9</ele>
        <time>2022-10-06T12:55:05Z</time>
      </trkpt>
      <trkpt lat="44.78259" lon="-0.1501">
        <ele>77.9</ele>
        <time>2022-10-06T12:55:06Z</time>
      </trkpt>
      <trkpt lat="44.7826" lon="-0.15013">
        <ele>77.9</ele>
        <time>2022-10-06T12:55:07Z</time>
      </trkpt>
      <trkpt lat="44.7826" lon="-0.15014">
        <ele>77.8</ele>
        <time>2022-10-06T12:55:08Z</time>
      </trkpt>
      <trkpt lat="44.7826" lon="-0.15016">
        <ele>77.8</ele>
        <time>2022-10-06T12:55:09Z</time>
      </trkpt>
      <trkpt lat="44.78261" lon="-0.15018">
        <ele>77.8</ele>
        <time>2022-10-06T12:55:10Z</time>
      </trkpt>
      <trkpt lat="44.78261" lon="-0.15019">
        <ele>77.8</ele>
        <time>2022-10-06T12:55:11Z</time>
      </trkpt>
      <trkpt lat="44.78262" lon="-0.15022">
        <ele>77.7</ele>
        <time>2022-10-06T12:55:12Z</time>
      </trkpt>
      <trkpt lat="44.78262" lon="-0.15023">
        <ele>77.7</ele>
        <time>2022-10-06T12:55:13Z</time>
      </trkpt>
      <trkpt lat="44.78262" lon="-0.15025">
        <ele>77.7</ele>
        <time>2022-10-06T12:55:14Z</time>
      </trkpt>
      <trkpt lat="44.78263" lon="-0.15026">
        <ele>77.7</ele>
        <time>2022-10-06T12:55:15Z</time>
      </trkpt>
      <trkpt lat="44.78263" lon="-0.15028">
        <ele>77.6</ele>
        <time>2022-10-06T12:55:16Z</time>
      </trkpt>
      <trkpt lat="44.78264" lon="-0.1503">
        <ele>77.6</ele>
        <time>2022-10-06T12:55:17Z</time>
      </trkpt>
      <trkpt lat="44.78264" lon="-0.15032">
        <ele>77.6</ele>
        <time>2022-10-06T12:55:18Z</time>
      </trkpt>
      <trkpt lat="44.78264" lon="-0.15033">
        <ele>77.6</ele>
        <time>2022-10-06T12:55:19Z</time>
      </trkpt>
      <trkpt lat="44.78265" lon="-0.15035">
        <ele>77.5</ele>
        <time>2022-10-06T12:55:20Z</time>
      </trkpt>
      <trkpt lat="44.78265" lon="-0.15037">
        <ele>77.5</ele>
        <time>2022-10-06T12:55:21Z</time>
      </trkpt>
      <trkpt lat="44.78265" lon="-0.15039">
        <ele>77.5</ele>
        <time>2022-10-06T12:55:22Z</time>
      </trkpt>
      <trkpt lat="44.78266" lon="-0.15042">
        <ele>77.4</ele>
        <time>2022-10-06T12:55:23Z</time>
      </trkpt>
      <trkpt lat="44.78266" lon="-0.15043">
        <ele>77.4</ele>
        <time>2022-10-06T12:55:24Z</time>
      </trkpt>
      <trkpt lat="44.78266" lon="-0.15044">
        <ele>77.4</ele>
        <time>2022-10-06T12:55:25Z</time>
      </trkpt>
      <trkpt lat="44.78267" lon="-0.15046">
        <ele>77.4</ele>
        <time>2022-10-06T12:55:26Z</time>
      </trkpt>
      <trkpt lat="44.78267" lon="-0.15049">
        <ele>77.3</ele>
        <time>2022-10-06T12:55:27Z</time>
      </trkpt>
      <trkpt lat="44.78267" lon="-0.1505">
        <ele>77.3</ele>
        <time>2022-10-06T12:55:28Z</time>
      </trkpt>
      <trkpt lat="44.78268" lon="-0.15052">
        <ele>77.3</ele>
        <time>2022-10-06T12:55:29Z</time>
      </trkpt>
      <trkpt lat="44.78268" lon="-0.15053">
        <ele>77.2</ele>
        <time>2022-10-06T12:55:30Z</time>
      </trkpt>
      <trkpt lat="44.78269" lon="-0.15057">
        <ele>77.2</ele>
        <time>2022-10-06T12:55:31Z</time>
      </trkpt>
      <trkpt lat="44.78269" lon="-0.15058">
        <ele>77.2</ele>
        <time>2022-10-06T12:55:32Z</time>
      </trkpt>
      <trkpt lat="44.78269" lon="-0.15059">
        <ele>77.2</ele>
        <time>2022-10-06T12:55:33Z</time>
      </trkpt>
      <trkpt lat="44.7827" lon="-0.15061">
        <ele>77.1</ele>
        <time>2022-10-06T12:55:34Z</time>
      </trkpt>
      <trkpt lat="44.7827" lon="-0.15062">
        <ele>77.1</ele>
        <time>2022-10-06T12:55:35Z</time>
      </trkpt>
      <trkpt lat="44.78271" lon="-0.15066">
        <ele>77.1</ele>
        <time>2022-10-06T12:55:36Z</time>
      </trkpt>
      <trkpt lat="44.78272" lon="-0.15067">
        <ele>77</ele>
        <time>2022-10-06T12:55:37Z</time>
      </trkpt>
      <trkpt lat="44.78272" lon="-0.15068">
        <ele>77</ele>
        <time>2022-10-06T12:55:38Z</time>
      </trkpt>
      <trkpt lat="44.78272" lon="-0.1507">
        <ele>77</ele>
        <time>2022-10-06T12:55:39Z</time>
      </trkpt>
      <trkpt lat="44.78272" lon="-0.15071">
        <ele>77</ele>
        <time>2022-10-06T12:55:40Z</time>
      </trkpt>
      <trkpt lat="44.78273" lon="-0.15073">
        <ele>77</ele>
        <time>2022-10-06T12:55:41Z</time>
      </trkpt>
      <trkpt lat="44.78273" lon="-0.15075">
        <ele>76.9</ele>
        <time>2022-10-06T12:55:42Z</time>
      </trkpt>
      <trkpt lat="44.78273" lon="-0.15078">
        <ele>76.9</ele>
        <time>2022-10-06T12:55:43Z</time>
      </trkpt>
      <trkpt lat="44.78274" lon="-0.15079">
        <ele>76.9</ele>
        <time>2022-10-06T12:55:44Z</time>
      </trkpt>
      <trkpt lat="44.78274" lon="-0.15081">
        <ele>76.9</ele>
        <time>2022-10-06T12:55:45Z</time>
      </trkpt>
      <trkpt lat="44.78274" lon="-0.15082">
        <ele>76.8</ele>
        <time>2022-10-06T12:55:46Z</time>
      </trkpt>
      <trkpt lat="44.78274" lon="-0.15085">
        <ele>76.8</ele>
        <time>2022-10-06T12:55:47Z</time>
      </trkpt>
      <trkpt lat="44.78274" lon="-0.15086">
        <ele>76.8</ele>
        <time>2022-10-06T12:55:48Z</time>
      </trkpt>
      <trkpt lat="44.78275" lon="-0.15088">
        <ele>76.7</ele>
        <time>2022-10-06T12:55:49Z</time>
      </trkpt>
      <trkpt lat="44.78275" lon="-0.15089">
        <ele>76.7</ele>
        <time>2022-10-06T12:55:50Z</time>
      </trkpt>
      <trkpt lat="44.78275" lon="-0.15091">
        <ele>76.7</ele>
        <time>2022-10-06T12:55:51Z</time>
      </trkpt>
      <trkpt lat="44.78276" lon="-0.15094">
        <ele>76.6</ele>
        <time>2022-10-06T12:55:52Z</time>
      </trkpt>
      <trkpt lat="44.78276" lon="-0.15095">
        <ele>76.6</ele>
        <time>2022-10-06T12:55:53Z</time>
      </trkpt>
      <trkpt lat="44.78276" lon="-0.15097">
        <ele>76.6</ele>
        <time>2022-10-06T12:55:54Z</time>
      </trkpt>
      <trkpt lat="44.78277" lon="-0.15098">
        <ele>76.6</ele>
        <time>2022-10-06T12:55:55Z</time>
      </trkpt>
      <trkpt lat="44.78277" lon="-0.151">
        <ele>76.5</ele>
        <time>2022-10-06T12:55:56Z</time>
      </trkpt>
      <trkpt lat="44.78277" lon="-0.15103">
        <ele>76.5</ele>
        <time>2022-10-06T12:55:57Z</time>
      </trkpt>
      <trkpt lat="44.78277" lon="-0.15104">
        <ele>76.4</ele>
        <time>2022-10-06T12:55:58Z</time>
      </trkpt>
      <trkpt lat="44.78278" lon="-0.15106">
        <ele>76.4</ele>
        <time>2022-10-06T12:55:59Z</time>
      </trkpt>
      <trkpt lat="44.78278" lon="-0.15107">
        <ele>76.4</ele>
        <time>2022-10-06T12:56:00Z</time>
      </trkpt>
      <trkpt lat="44.78278" lon="-0.15109">
        <ele>76.3</ele>
        <time>2022-10-06T12:56:01Z</time>
      </trkpt>
      <trkpt lat="44.78279" lon="-0.15112">
        <ele>76.3</ele>
        <time>2022-10-06T12:56:02Z</time>
      </trkpt>
      <trkpt lat="44.78279" lon="-0.15113">
        <ele>76.2</ele>
        <time>2022-10-06T12:56:03Z</time>
      </trkpt>
      <trkpt lat="44.7828" lon="-0.15115">
        <ele>76.2</ele>
        <time>2022-10-06T12:56:04Z</time>
      </trkpt>
      <trkpt lat="44.7828" lon="-0.15117">
        <ele>76.2</ele>
        <time>2022-10-06T12:56:05Z</time>
      </trkpt>
      <trkpt lat="44.78281" lon="-0.15118">
        <ele>76.1</ele>
        <time>2022-10-06T12:56:06Z</time>
      </trkpt>
      <trkpt lat="44.78281" lon="-0.15121">
        <ele>76.1</ele>
        <time>2022-10-06T12:56:07Z</time>
      </trkpt>
      <trkpt lat="44.78281" lon="-0.15122">
        <ele>76.1</ele>
        <time>2022-10-06T12:56:08Z</time>
      </trkpt>
      <trkpt lat="44.78282" lon="-0.15124">
        <ele>76</ele>
        <time>2022-10-06T12:56:09Z</time>
      </trkpt>
      <trkpt lat="44.78282" lon="-0.15125">
        <ele>76</ele>
        <time>2022-10-06T12:56:10Z</time>
      </trkpt>
      <trkpt lat="44.78282" lon="-0.15127">
        <ele>75.9</ele>
        <time>2022-10-06T12:56:11Z</time>
      </trkpt>
      <trkpt lat="44.78283" lon="-0.1513">
        <ele>75.9</ele>
        <time>2022-10-06T12:56:12Z</time>
      </trkpt>
      <trkpt lat="44.78283" lon="-0.15131">
        <ele>75.9</ele>
        <time>2022-10-06T12:56:13Z</time>
      </trkpt>
      <trkpt lat="44.78284" lon="-0.15133">
        <ele>75.8</ele>
        <time>2022-10-06T12:56:14Z</time>
      </trkpt>
      <trkpt lat="44.78284" lon="-0.15134">
        <ele>75.8</ele>
        <time>2022-10-06T12:56:15Z</time>
      </trkpt>
      <trkpt lat="44.78284" lon="-0.15138">
        <ele>75.7</ele>
        <time>2022-10-06T12:56:16Z</time>
      </trkpt>
      <trkpt lat="44.78285" lon="-0.1514">
        <ele>75.7</ele>
        <time>2022-10-06T12:56:17Z</time>
      </trkpt>
      <trkpt lat="44.78285" lon="-0.1514">
        <ele>75.7</ele>
        <time>2022-10-06T12:56:18Z</time>
      </trkpt>
      <trkpt lat="44.78285" lon="-0.15142">
        <ele>75.6</ele>
        <time>2022-10-06T12:56:19Z</time>
      </trkpt>
      <trkpt lat="44.78285" lon="-0.15144">
        <ele>75.6</ele>
        <time>2022-10-06T12:56:20Z</time>
      </trkpt>
      <trkpt lat="44.78286" lon="-0.15145">
        <ele>75.5</ele>
        <time>2022-10-06T12:56:21Z</time>
      </trkpt>
      <trkpt lat="44.78286" lon="-0.15147">
        <ele>75.5</ele>
        <time>2022-10-06T12:56:22Z</time>
      </trkpt>
      <trkpt lat="44.78286" lon="-0.1515">
        <ele>75.4</ele>
        <time>2022-10-06T12:56:23Z</time>
      </trkpt>
      <trkpt lat="44.78287" lon="-0.15152">
        <ele>75.4</ele>
        <time>2022-10-06T12:56:24Z</time>
      </trkpt>
      <trkpt lat="44.78287" lon="-0.15153">
        <ele>75.4</ele>
        <time>2022-10-06T12:56:25Z</time>
      </trkpt>
      <trkpt lat="44.78288" lon="-0.15157">
        <ele>75.3</ele>
        <time>2022-10-06T12:56:26Z</time>
      </trkpt>
      <trkpt lat="44.78288" lon="-0.15158">
        <ele>75.2</ele>
        <time>2022-10-06T12:56:27Z</time>
      </trkpt>
      <trkpt lat="44.78288" lon="-0.15159">
        <ele>75.2</ele>
        <time>2022-10-06T12:56:28Z</time>
      </trkpt>
      <trkpt lat="44.78288" lon="-0.1516">
        <ele>75.2</ele>
        <time>2022-10-06T12:56:29Z</time>
      </trkpt>
      <trkpt lat="44.78288" lon="-0.15162">
        <ele>75.1</ele>
        <time>2022-10-06T12:56:30Z</time>
      </trkpt>
      <trkpt lat="44.78289" lon="-0.15164">
        <ele>75.1</ele>
        <time>2022-10-06T12:56:31Z</time>
      </trkpt>
      <trkpt lat="44.78289" lon="-0.15166">
        <ele>75</ele>
        <time>2022-10-06T12:56:32Z</time>
      </trkpt>
      <trkpt lat="44.78289" lon="-0.15167">
        <ele>74.9</ele>
        <time>2022-10-06T12:56:33Z</time>
      </trkpt>
      <trkpt lat="44.78288" lon="-0.15169">
        <ele>74.9</ele>
        <time>2022-10-06T12:56:34Z</time>
      </trkpt>
      <trkpt lat="44.78288" lon="-0.15171">
        <ele>74.8</ele>
        <time>2022-10-06T12:56:35Z</time>
      </trkpt>
      <trkpt lat="44.78288" lon="-0.15173">
        <ele>74.8</ele>
        <time>2022-10-06T12:56:36Z</time>
      </trkpt>
      <trkpt lat="44.78288" lon="-0.15175">
        <ele>74.7</ele>
        <time>2022-10-06T12:56:37Z</time>
      </trkpt>
      <trkpt lat="44.78288" lon="-0.15177">
        <ele>74.6</ele>
        <time>2022-10-06T12:56:38Z</time>
      </trkpt>
      <trkpt lat="44.78287" lon="-0.15179">
        <ele>74.6</ele>
        <time>2022-10-06T12:56:39Z</time>
      </trkpt>
      <trkpt lat="44.78287" lon="-0.1518">
        <ele>74.6</ele>
        <time>2022-10-06T12:56:40Z</time>
      </trkpt>
      <trkpt lat="44.78287" lon="-0.15182">
        <ele>74.5</ele>
        <time>2022-10-06T12:56:41Z</time>
      </trkpt>
      <trkpt lat="44.78287" lon="-0.15185">
        <ele>74.4</ele>
        <time>2022-10-06T12:56:42Z</time>
      </trkpt>
      <trkpt lat="44.78286" lon="-0.15186">
        <ele>74.4</ele>
        <time>2022-10-06T12:56:43Z</time>
      </trkpt>
      <trkpt lat="44.78286" lon="-0.15187">
        <ele>74.3</ele>
        <time>2022-10-06T12:56:44Z</time>
      </trkpt>
      <trkpt lat="44.78286" lon="-0.15189">
        <ele>74.3</ele>
        <time>2022-10-06T12:56:45Z</time>
      </trkpt>
      <trkpt lat="44.78285" lon="-0.1519">
        <ele>74.2</ele>
        <time>2022-10-06T12:56:46Z</time>
      </trkpt>
      <trkpt lat="44.78284" lon="-0.15193">
        <ele>74.1</ele>
        <time>2022-10-06T12:56:47Z</time>
      </trkpt>
      <trkpt lat="44.78284" lon="-0.15193">
        <ele>74.1</ele>
        <time>2022-10-06T12:56:48Z</time>
      </trkpt>
      <trkpt lat="44.78283" lon="-0.15195">
        <ele>74</ele>
        <time>2022-10-06T12:56:49Z</time>
      </trkpt>
      <trkpt lat="44.78283" lon="-0.15196">
        <ele>73.9</ele>
        <time>2022-10-06T12:56:50Z</time>
      </trkpt>
      <trkpt lat="44.78282" lon="-0.15198">
        <ele>73.9</ele>
        <time>2022-10-06T12:56:51Z</time>
      </trkpt>
      <trkpt lat="44.78282" lon="-0.15201">
        <ele>73.7</ele>
        <time>2022-10-06T12:56:52Z</time>
      </trkpt>
      <trkpt lat="44.78281" lon="-0.15203">
        <ele>73.7</ele>
        <time>2022-10-06T12:56:53Z</time>
      </trkpt>
      <trkpt lat="44.78281" lon="-0.15204">
        <ele>73.6</ele>
        <time>2022-10-06T12:56:54Z</time>
      </trkpt>
      <trkpt lat="44.78281" lon="-0.15205">
        <ele>73.6</ele>
        <time>2022-10-06T12:56:55Z</time>
      </trkpt>
      <trkpt lat="44.7828" lon="-0.15206">
        <ele>73.5</ele>
        <time>2022-10-06T12:56:56Z</time>
      </trkpt>
      <trkpt lat="44.78279" lon="-0.15209">
        <ele>73.4</ele>
        <time>2022-10-06T12:56:57Z</time>
      </trkpt>
      <trkpt lat="44.78279" lon="-0.1521">
        <ele>73.4</ele>
        <time>2022-10-06T12:56:58Z</time>
      </trkpt>
      <trkpt lat="44.78279" lon="-0.15211">
        <ele>73.3</ele>
        <time>2022-10-06T12:56:59Z</time>
      </trkpt>
      <trkpt lat="44.78279" lon="-0.15213">
        <ele>73.2</ele>
        <time>2022-10-06T12:57:00Z</time>
      </trkpt>
      <trkpt lat="44.78278" lon="-0.15214">
        <ele>73.2</ele>
        <time>2022-10-06T12:57:01Z</time>
      </trkpt>
      <trkpt lat="44.78277" lon="-0.15217">
        <ele>73</ele>
        <time>2022-10-06T12:57:02Z</time>
      </trkpt>
      <trkpt lat="44.78277" lon="-0.15217">
        <ele>73</ele>
        <time>2022-10-06T12:57:03Z</time>
      </trkpt>
      <trkpt lat="44.78276" lon="-0.15219">
        <ele>72.9</ele>
        <time>2022-10-06T12:57:04Z</time>
      </trkpt>
      <trkpt lat="44.78276" lon="-0.1522">
        <ele>72.9</ele>
        <time>2022-10-06T12:57:05Z</time>
      </trkpt>
      <trkpt lat="44.78275" lon="-0.15222">
        <ele>72.8</ele>
        <time>2022-10-06T12:57:06Z</time>
      </trkpt>
      <trkpt lat="44.78275" lon="-0.15224">
        <ele>72.7</ele>
        <time>2022-10-06T12:57:07Z</time>
      </trkpt>
      <trkpt lat="44.78275" lon="-0.15225">
        <ele>72.7</ele>
        <time>2022-10-06T12:57:08Z</time>
      </trkpt>
      <trkpt lat="44.78274" lon="-0.15226">
        <ele>72.6</ele>
        <time>2022-10-06T12:57:09Z</time>
      </trkpt>
      <trkpt lat="44.78274" lon="-0.15229">
        <ele>72.5</ele>
        <time>2022-10-06T12:57:10Z</time>
      </trkpt>
      <trkpt lat="44.78273" lon="-0.15231">
        <ele>72.4</ele>
        <time>2022-10-06T12:57:11Z</time>
      </trkpt>
      <trkpt lat="44.78272" lon="-0.15232">
        <ele>72.3</ele>
        <time>2022-10-06T12:57:12Z</time>
      </trkpt>
      <trkpt lat="44.78272" lon="-0.15233">
        <ele>72.3</ele>
        <time>2022-10-06T12:57:13Z</time>
      </trkpt>
      <trkpt lat="44.78272" lon="-0.15235">
        <ele>72.2</ele>
        <time>2022-10-06T12:57:14Z</time>
      </trkpt>
      <trkpt lat="44.78271" lon="-0.15237">
        <ele>72.2</ele>
        <time>2022-10-06T12:57:15Z</time>
      </trkpt>
      <trkpt lat="44.78271" lon="-0.15238">
        <ele>72.1</ele>
        <time>2022-10-06T12:57:16Z</time>
      </trkpt>
      <trkpt lat="44.7827" lon="-0.15241">
        <ele>72</ele>
        <time>2022-10-06T12:57:17Z</time>
      </trkpt>
      <trkpt lat="44.7827" lon="-0.15242">
        <ele>72</ele>
        <time>2022-10-06T12:57:18Z</time>
      </trkpt>
      <trkpt lat="44.78269" lon="-0.15243">
        <ele>71.9</ele>
        <time>2022-10-06T12:57:19Z</time>
      </trkpt>
      <trkpt lat="44.78269" lon="-0.15245">
        <ele>71.8</ele>
        <time>2022-10-06T12:57:20Z</time>
      </trkpt>
      <trkpt lat="44.78268" lon="-0.15248">
        <ele>71.7</ele>
        <time>2022-10-06T12:57:21Z</time>
      </trkpt>
      <trkpt lat="44.78268" lon="-0.1525">
        <ele>71.6</ele>
        <time>2022-10-06T12:57:22Z</time>
      </trkpt>
      <trkpt lat="44.78267" lon="-0.1525">
        <ele>71.6</ele>
        <time>2022-10-06T12:57:23Z</time>
      </trkpt>
      <trkpt lat="44.78267" lon="-0.15252">
        <ele>71.5</ele>
        <time>2022-10-06T12:57:24Z</time>
      </trkpt>
      <trkpt lat="44.78267" lon="-0.15254">
        <ele>71.5</ele>
        <time>2022-10-06T12:57:25Z</time>
      </trkpt>
      <trkpt lat="44.78266" lon="-0.15257">
        <ele>71.3</ele>
        <time>2022-10-06T12:57:26Z</time>
      </trkpt>
      <trkpt lat="44.78265" lon="-0.15259">
        <ele>71.3</ele>
        <time>2022-10-06T12:57:27Z</time>
      </trkpt>
      <trkpt lat="44.78265" lon="-0.15261">
        <ele>71.2</ele>
        <time>2022-10-06T12:57:28Z</time>
      </trkpt>
      <trkpt lat="44.78265" lon="-0.15262">
        <ele>71.1</ele>
        <time>2022-10-06T12:57:29Z</time>
      </trkpt>
      <trkpt lat="44.78264" lon="-0.15263">
        <ele>71.1</ele>
        <time>2022-10-06T12:57:30Z</time>
      </trkpt>
      <trkpt lat="44.78264" lon="-0.15264">
        <ele>71</ele>
        <time>2022-10-06T12:57:31Z</time>
      </trkpt>
      <trkpt lat="44.78263" lon="-0.15267">
        <ele>70.9</ele>
        <time>2022-10-06T12:57:32Z</time>
      </trkpt>
      <trkpt lat="44.78262" lon="-0.15268">
        <ele>70.9</ele>
        <time>2022-10-06T12:57:33Z</time>
      </trkpt>
      <trkpt lat="44.78262" lon="-0.15268">
        <ele>70.8</ele>
        <time>2022-10-06T12:57:34Z</time>
      </trkpt>
      <trkpt lat="44.78261" lon="-0.15271">
        <ele>70.7</ele>
        <time>2022-10-06T12:57:35Z</time>
      </trkpt>
      <trkpt lat="44.78261" lon="-0.15272">
        <ele>70.7</ele>
        <time>2022-10-06T12:57:36Z</time>
      </trkpt>
      <trkpt lat="44.7826" lon="-0.15273">
        <ele>70.6</ele>
        <time>2022-10-06T12:57:37Z</time>
      </trkpt>
      <trkpt lat="44.78259" lon="-0.15276">
        <ele>70.5</ele>
        <time>2022-10-06T12:57:38Z</time>
      </trkpt>
      <trkpt lat="44.78259" lon="-0.15277">
        <ele>70.5</ele>
        <time>2022-10-06T12:57:39Z</time>
      </trkpt>
      <trkpt lat="44.78259" lon="-0.15278">
        <ele>70.4</ele>
        <time>2022-10-06T12:57:40Z</time>
      </trkpt>
      <trkpt lat="44.78258" lon="-0.15281">
        <ele>70.3</ele>
        <time>2022-10-06T12:57:41Z</time>
      </trkpt>
      <trkpt lat="44.78258" lon="-0.15282">
        <ele>70.3</ele>
        <time>2022-10-06T12:57:42Z</time>
      </trkpt>
      <trkpt lat="44.78257" lon="-0.15284">
        <ele>70.2</ele>
        <time>2022-10-06T12:57:43Z</time>
      </trkpt>
      <trkpt lat="44.78257" lon="-0.15285">
        <ele>70.1</ele>
        <time>2022-10-06T12:57:44Z</time>
      </trkpt>
      <trkpt lat="44.78256" lon="-0.15287">
        <ele>70.1</ele>
        <time>2022-10-06T12:57:45Z</time>
      </trkpt>
      <trkpt lat="44.78255" lon="-0.15288">
        <ele>70</ele>
        <time>2022-10-06T12:57:46Z</time>
      </trkpt>
      <trkpt lat="44.78255" lon="-0.1529">
        <ele>69.9</ele>
        <time>2022-10-06T12:57:47Z</time>
      </trkpt>
      <trkpt lat="44.78254" lon="-0.15292">
        <ele>69.8</ele>
        <time>2022-10-06T12:57:48Z</time>
      </trkpt>
      <trkpt lat="44.78253" lon="-0.15295">
        <ele>69.7</ele>
        <time>2022-10-06T12:57:49Z</time>
      </trkpt>
      <trkpt lat="44.78253" lon="-0.15296">
        <ele>69.7</ele>
        <time>2022-10-06T12:57:50Z</time>
      </trkpt>
      <trkpt lat="44.78252" lon="-0.15297">
        <ele>69.6</ele>
        <time>2022-10-06T12:57:51Z</time>
      </trkpt>
      <trkpt lat="44.78251" lon="-0.15299">
        <ele>69.6</ele>
        <time>2022-10-06T12:57:52Z</time>
      </trkpt>
      <trkpt lat="44.78251" lon="-0.15301">
        <ele>69.5</ele>
        <time>2022-10-06T12:57:53Z</time>
      </trkpt>
      <trkpt lat="44.7825" lon="-0.15302">
        <ele>69.4</ele>
        <time>2022-10-06T12:57:54Z</time>
      </trkpt>
      <trkpt lat="44.7825" lon="-0.15304">
        <ele>69.3</ele>
        <time>2022-10-06T12:57:55Z</time>
      </trkpt>
      <trkpt lat="44.78249" lon="-0.15305">
        <ele>69.3</ele>
        <time>2022-10-06T12:57:56Z</time>
      </trkpt>
      <trkpt lat="44.78249" lon="-0.15307">
        <ele>69.2</ele>
        <time>2022-10-06T12:57:57Z</time>
      </trkpt>
      <trkpt lat="44.78248" lon="-0.15309">
        <ele>69.1</ele>
        <time>2022-10-06T12:57:58Z</time>
      </trkpt>
      <trkpt lat="44.78247" lon="-0.1531">
        <ele>69.1</ele>
        <time>2022-10-06T12:57:59Z</time>
      </trkpt>
      <trkpt lat="44.78246" lon="-0.15312">
        <ele>69</ele>
        <time>2022-10-06T12:58:00Z</time>
      </trkpt>
      <trkpt lat="44.78246" lon="-0.15313">
        <ele>68.9</ele>
        <time>2022-10-06T12:58:01Z</time>
      </trkpt>
      <trkpt lat="44.78245" lon="-0.15315">
        <ele>68.8</ele>
        <time>2022-10-06T12:58:02Z</time>
      </trkpt>
      <trkpt lat="44.78244" lon="-0.15316">
        <ele>68.8</ele>
        <time>2022-10-06T12:58:03Z</time>
      </trkpt>
      <trkpt lat="44.78244" lon="-0.15317">
        <ele>68.7</ele>
        <time>2022-10-06T12:58:04Z</time>
      </trkpt>
      <trkpt lat="44.78243" lon="-0.1532">
        <ele>68.6</ele>
        <time>2022-10-06T12:58:05Z</time>
      </trkpt>
      <trkpt lat="44.78242" lon="-0.15321">
        <ele>68.6</ele>
        <time>2022-10-06T12:58:06Z</time>
      </trkpt>
      <trkpt lat="44.78242" lon="-0.15322">
        <ele>68.5</ele>
        <time>2022-10-06T12:58:07Z</time>
      </trkpt>
      <trkpt lat="44.7824" lon="-0.15325">
        <ele>68.4</ele>
        <time>2022-10-06T12:58:08Z</time>
      </trkpt>
      <trkpt lat="44.7824" lon="-0.15326">
        <ele>68.4</ele>
        <time>2022-10-06T12:58:09Z</time>
      </trkpt>
      <trkpt lat="44.7824" lon="-0.15327">
        <ele>68.3</ele>
        <time>2022-10-06T12:58:10Z</time>
      </trkpt>
      <trkpt lat="44.78239" lon="-0.15329">
        <ele>68.2</ele>
        <time>2022-10-06T12:58:11Z</time>
      </trkpt>
      <trkpt lat="44.78238" lon="-0.15331">
        <ele>68.2</ele>
        <time>2022-10-06T12:58:12Z</time>
      </trkpt>
      <trkpt lat="44.78238" lon="-0.15332">
        <ele>68.1</ele>
        <time>2022-10-06T12:58:13Z</time>
      </trkpt>
      <trkpt lat="44.78237" lon="-0.15333">
        <ele>68.1</ele>
        <time>2022-10-06T12:58:14Z</time>
      </trkpt>
      <trkpt lat="44.78236" lon="-0.15334">
        <ele>68</ele>
        <time>2022-10-06T12:58:15Z</time>
      </trkpt>
      <trkpt lat="44.78236" lon="-0.15336">
        <ele>68</ele>
        <time>2022-10-06T12:58:16Z</time>
      </trkpt>
      <trkpt lat="44.78235" lon="-0.15337">
        <ele>67.9</ele>
        <time>2022-10-06T12:58:17Z</time>
      </trkpt>
      <trkpt lat="44.78234" lon="-0.15339">
        <ele>67.8</ele>
        <time>2022-10-06T12:58:18Z</time>
      </trkpt>
      <trkpt lat="44.78234" lon="-0.1534">
        <ele>67.8</ele>
        <time>2022-10-06T12:58:19Z</time>
      </trkpt>
      <trkpt lat="44.78233" lon="-0.15341">
        <ele>67.7</ele>
        <time>2022-10-06T12:58:20Z</time>
      </trkpt>
      <trkpt lat="44.78232" lon="-0.15343">
        <ele>67.7</ele>
        <time>2022-10-06T12:58:21Z</time>
      </trkpt>
      <trkpt lat="44.78231" lon="-0.15344">
        <ele>67.6</ele>
        <time>2022-10-06T12:58:22Z</time>
      </trkpt>
      <trkpt lat="44.78231" lon="-0.15346">
        <ele>67.6</ele>
        <time>2022-10-06T12:58:23Z</time>
      </trkpt>
      <trkpt lat="44.7823" lon="-0.15347">
        <ele>67.5</ele>
        <time>2022-10-06T12:58:24Z</time>
      </trkpt>
      <trkpt lat="44.78229" lon="-0.15348">
        <ele>67.5</ele>
        <time>2022-10-06T12:58:25Z</time>
      </trkpt>
      <trkpt lat="44.78229" lon="-0.1535">
        <ele>67.4</ele>
        <time>2022-10-06T12:58:26Z</time>
      </trkpt>
      <trkpt lat="44.78228" lon="-0.15351">
        <ele>67.3</ele>
        <time>2022-10-06T12:58:27Z</time>
      </trkpt>
      <trkpt lat="44.78227" lon="-0.15353">
        <ele>67.3</ele>
        <time>2022-10-06T12:58:28Z</time>
      </trkpt>
      <trkpt lat="44.78226" lon="-0.15355">
        <ele>67.2</ele>
        <time>2022-10-06T12:58:29Z</time>
      </trkpt>
      <trkpt lat="44.78226" lon="-0.15356">
        <ele>67.2</ele>
        <time>2022-10-06T12:58:30Z</time>
      </trkpt>
      <trkpt lat="44.78225" lon="-0.15357">
        <ele>67.1</ele>
        <time>2022-10-06T12:58:31Z</time>
      </trkpt>
      <trkpt lat="44.78225" lon="-0.15359">
        <ele>67.1</ele>
        <time>2022-10-06T12:58:32Z</time>
      </trkpt>
      <trkpt lat="44.78224" lon="-0.15361">
        <ele>67</ele>
        <time>2022-10-06T12:58:33Z</time>
      </trkpt>
      <trkpt lat="44.78223" lon="-0.15362">
        <ele>67</ele>
        <time>2022-10-06T12:58:34Z</time>
      </trkpt>
      <trkpt lat="44.78223" lon="-0.15364">
        <ele>66.9</ele>
        <time>2022-10-06T12:58:35Z</time>
      </trkpt>
      <trkpt lat="44.78222" lon="-0.15365">
        <ele>66.9</ele>
        <time>2022-10-06T12:58:36Z</time>
      </trkpt>
      <trkpt lat="44.78222" lon="-0.15366">
        <ele>66.8</ele>
        <time>2022-10-06T12:58:37Z</time>
      </trkpt>
      <trkpt lat="44.78222" lon="-0.15368">
        <ele>66.8</ele>
        <time>2022-10-06T12:58:38Z</time>
      </trkpt>
      <trkpt lat="44.78222" lon="-0.15368">
        <ele>66.8</ele>
        <time>2022-10-06T12:58:39Z</time>
      </trkpt>
      <trkpt lat="44.78221" lon="-0.15369">
        <ele>66.7</ele>
        <time>2022-10-06T12:58:40Z</time>
      </trkpt>
      <trkpt lat="44.78221" lon="-0.1537">
        <ele>66.7</ele>
        <time>2022-10-06T12:58:41Z</time>
      </trkpt>
      <trkpt lat="44.7822" lon="-0.15372">
        <ele>66.6</ele>
        <time>2022-10-06T12:58:42Z</time>
      </trkpt>
      <trkpt lat="44.78219" lon="-0.15374">
        <ele>66.6</ele>
        <time>2022-10-06T12:58:43Z</time>
      </trkpt>
      <trkpt lat="44.78219" lon="-0.15375">
        <ele>66.6</ele>
        <time>2022-10-06T12:58:44Z</time>
      </trkpt>
      <trkpt lat="44.78219" lon="-0.15376">
        <ele>66.5</ele>
        <time>2022-10-06T12:58:45Z</time>
      </trkpt>
      <trkpt lat="44.78218" lon="-0.15377">
        <ele>66.5</ele>
        <time>2022-10-06T12:58:46Z</time>
      </trkpt>
      <trkpt lat="44.78218" lon="-0.15378">
        <ele>66.4</ele>
        <time>2022-10-06T12:58:47Z</time>
      </trkpt>
      <trkpt lat="44.78216" lon="-0.1538">
        <ele>66.4</ele>
        <time>2022-10-06T12:58:48Z</time>
      </trkpt>
      <trkpt lat="44.78216" lon="-0.15381">
        <ele>66.3</ele>
        <time>2022-10-06T12:58:49Z</time>
      </trkpt>
      <trkpt lat="44.78216" lon="-0.15382">
        <ele>66.3</ele>
        <time>2022-10-06T12:58:50Z</time>
      </trkpt>
      <trkpt lat="44.78215" lon="-0.15383">
        <ele>66.3</ele>
        <time>2022-10-06T12:58:51Z</time>
      </trkpt>
      <trkpt lat="44.78214" lon="-0.15385">
        <ele>66.2</ele>
        <time>2022-10-06T12:58:52Z</time>
      </trkpt>
      <trkpt lat="44.78212" lon="-0.15387">
        <ele>66.1</ele>
        <time>2022-10-06T12:58:53Z</time>
      </trkpt>
      <trkpt lat="44.78212" lon="-0.15388">
        <ele>66.1</ele>
        <time>2022-10-06T12:58:54Z</time>
      </trkpt>
      <trkpt lat="44.78212" lon="-0.15389">
        <ele>66.1</ele>
        <time>2022-10-06T12:58:55Z</time>
      </trkpt>
      <trkpt lat="44.7821" lon="-0.15392">
        <ele>66</ele>
        <time>2022-10-06T12:58:56Z</time>
      </trkpt>
      <trkpt lat="44.78209" lon="-0.15393">
        <ele>65.9</ele>
        <time>2022-10-06T12:58:57Z</time>
      </trkpt>
      <trkpt lat="44.78209" lon="-0.15394">
        <ele>65.9</ele>
        <time>2022-10-06T12:58:58Z</time>
      </trkpt>
      <trkpt lat="44.78208" lon="-0.15396">
        <ele>65.8</ele>
        <time>2022-10-06T12:58:59Z</time>
      </trkpt>
      <trkpt lat="44.78207" lon="-0.15397">
        <ele>65.8</ele>
        <time>2022-10-06T12:59:00Z</time>
      </trkpt>
      <trkpt lat="44.78207" lon="-0.15398">
        <ele>65.8</ele>
        <time>2022-10-06T12:59:01Z</time>
      </trkpt>
      <trkpt lat="44.78206" lon="-0.154">
        <ele>65.7</ele>
        <time>2022-10-06T12:59:02Z</time>
      </trkpt>
      <trkpt lat="44.78205" lon="-0.15402">
        <ele>65.7</ele>
        <time>2022-10-06T12:59:03Z</time>
      </trkpt>
      <trkpt lat="44.78205" lon="-0.15403">
        <ele>65.6</ele>
        <time>2022-10-06T12:59:04Z</time>
      </trkpt>
      <trkpt lat="44.78204" lon="-0.15404">
        <ele>65.6</ele>
        <time>2022-10-06T12:59:05Z</time>
      </trkpt>
      <trkpt lat="44.78204" lon="-0.15405">
        <ele>65.5</ele>
        <time>2022-10-06T12:59:06Z</time>
      </trkpt>
      <trkpt lat="44.78203" lon="-0.15407">
        <ele>65.5</ele>
        <time>2022-10-06T12:59:07Z</time>
      </trkpt>
      <trkpt lat="44.78203" lon="-0.15408">
        <ele>65.5</ele>
        <time>2022-10-06T12:59:08Z</time>
      </trkpt>
      <trkpt lat="44.78202" lon="-0.1541">
        <ele>65.4</ele>
        <time>2022-10-06T12:59:09Z</time>
      </trkpt>
      <trkpt lat="44.78201" lon="-0.15412">
        <ele>65.3</ele>
        <time>2022-10-06T12:59:10Z</time>
      </trkpt>
      <trkpt lat="44.782" lon="-0.15413">
        <ele>65.3</ele>
        <time>2022-10-06T12:59:11Z</time>
      </trkpt>
      <trkpt lat="44.78199" lon="-0.15414">
        <ele>65.3</ele>
        <time>2022-10-06T12:59:12Z</time>
      </trkpt>
      <trkpt lat="44.78198" lon="-0.15416">
        <ele>65.2</ele>
        <time>2022-10-06T12:59:13Z</time>
      </trkpt>
      <trkpt lat="44.78198" lon="-0.15417">
        <ele>65.2</ele>
        <time>2022-10-06T12:59:14Z</time>
      </trkpt>
      <trkpt lat="44.78197" lon="-0.15419">
        <ele>65.1</ele>
        <time>2022-10-06T12:59:15Z</time>
      </trkpt>
      <trkpt lat="44.78197" lon="-0.1542">
        <ele>65.1</ele>
        <time>2022-10-06T12:59:16Z</time>
      </trkpt>
      <trkpt lat="44.78196" lon="-0.15421">
        <ele>65</ele>
        <time>2022-10-06T12:59:17Z</time>
      </trkpt>
      <trkpt lat="44.78196" lon="-0.15423">
        <ele>65</ele>
        <time>2022-10-06T12:59:18Z</time>
      </trkpt>
      <trkpt lat="44.78195" lon="-0.15425">
        <ele>64.9</ele>
        <time>2022-10-06T12:59:19Z</time>
      </trkpt>
      <trkpt lat="44.78195" lon="-0.15426">
        <ele>64.9</ele>
        <time>2022-10-06T12:59:20Z</time>
      </trkpt>
      <trkpt lat="44.78194" lon="-0.15428">
        <ele>64.8</ele>
        <time>2022-10-06T12:59:21Z</time>
      </trkpt>
      <trkpt lat="44.78193" lon="-0.15429">
        <ele>64.8</ele>
        <time>2022-10-06T12:59:22Z</time>
      </trkpt>
      <trkpt lat="44.78193" lon="-0.15433">
        <ele>64.7</ele>
        <time>2022-10-06T12:59:23Z</time>
      </trkpt>
      <trkpt lat="44.78193" lon="-0.15434">
        <ele>64.7</ele>
        <time>2022-10-06T12:59:24Z</time>
      </trkpt>
      <trkpt lat="44.78193" lon="-0.15435">
        <ele>64.6</ele>
        <time>2022-10-06T12:59:25Z</time>
      </trkpt>
      <trkpt lat="44.78192" lon="-0.15438">
        <ele>64.5</ele>
        <time>2022-10-06T12:59:26Z</time>
      </trkpt>
      <trkpt lat="44.78191" lon="-0.15439">
        <ele>64.5</ele>
        <time>2022-10-06T12:59:27Z</time>
      </trkpt>
      <trkpt lat="44.7819" lon="-0.1544">
        <ele>64.4</ele>
        <time>2022-10-06T12:59:28Z</time>
      </trkpt>
      <trkpt lat="44.7819" lon="-0.15442">
        <ele>64.4</ele>
        <time>2022-10-06T12:59:29Z</time>
      </trkpt>
      <trkpt lat="44.7819" lon="-0.15443">
        <ele>64.4</ele>
        <time>2022-10-06T12:59:30Z</time>
      </trkpt>
      <trkpt lat="44.78189" lon="-0.15445">
        <ele>64.3</ele>
        <time>2022-10-06T12:59:31Z</time>
      </trkpt>
      <trkpt lat="44.78189" lon="-0.15446">
        <ele>64.3</ele>
        <time>2022-10-06T12:59:32Z</time>
      </trkpt>
      <trkpt lat="44.78187" lon="-0.15449">
        <ele>64.2</ele>
        <time>2022-10-06T12:59:33Z</time>
      </trkpt>
      <trkpt lat="44.78187" lon="-0.15449">
        <ele>64.1</ele>
        <time>2022-10-06T12:59:34Z</time>
      </trkpt>
      <trkpt lat="44.78187" lon="-0.15451">
        <ele>64.1</ele>
        <time>2022-10-06T12:59:35Z</time>
      </trkpt>
      <trkpt lat="44.78187" lon="-0.15453">
        <ele>64</ele>
        <time>2022-10-06T12:59:36Z</time>
      </trkpt>
      <trkpt lat="44.78186" lon="-0.15454">
        <ele>64</ele>
        <time>2022-10-06T12:59:37Z</time>
      </trkpt>
      <trkpt lat="44.78186" lon="-0.15456">
        <ele>63.9</ele>
        <time>2022-10-06T12:59:38Z</time>
      </trkpt>
      <trkpt lat="44.78186" lon="-0.15457">
        <ele>63.9</ele>
        <time>2022-10-06T12:59:39Z</time>
      </trkpt>
      <trkpt lat="44.78186" lon="-0.15459">
        <ele>63.8</ele>
        <time>2022-10-06T12:59:40Z</time>
      </trkpt>
      <trkpt lat="44.78186" lon="-0.1546">
        <ele>63.8</ele>
        <time>2022-10-06T12:59:41Z</time>
      </trkpt>
      <trkpt lat="44.78186" lon="-0.15461">
        <ele>63.8</ele>
        <time>2022-10-06T12:59:42Z</time>
      </trkpt>
      <trkpt lat="44.78186" lon="-0.15464">
        <ele>63.7</ele>
        <time>2022-10-06T12:59:43Z</time>
      </trkpt>
      <trkpt lat="44.78185" lon="-0.15465">
        <ele>63.7</ele>
        <time>2022-10-06T12:59:44Z</time>
      </trkpt>
      <trkpt lat="44.78185" lon="-0.15466">
        <ele>63.6</ele>
        <time>2022-10-06T12:59:45Z</time>
      </trkpt>
      <trkpt lat="44.78184" lon="-0.15469">
        <ele>63.5</ele>
        <time>2022-10-06T12:59:46Z</time>
      </trkpt>
      <trkpt lat="44.78184" lon="-0.1547">
        <ele>63.5</ele>
        <time>2022-10-06T12:59:47Z</time>
      </trkpt>
      <trkpt lat="44.78183" lon="-0.15471">
        <ele>63.4</ele>
        <time>2022-10-06T12:59:48Z</time>
      </trkpt>
      <trkpt lat="44.78183" lon="-0.15472">
        <ele>63.4</ele>
        <time>2022-10-06T12:59:49Z</time>
      </trkpt>
      <trkpt lat="44.78183" lon="-0.15473">
        <ele>63.4</ele>
        <time>2022-10-06T12:59:50Z</time>
      </trkpt>
      <trkpt lat="44.78183" lon="-0.15475">
        <ele>63.3</ele>
        <time>2022-10-06T12:59:51Z</time>
      </trkpt>
      <trkpt lat="44.78183" lon="-0.15475">
        <ele>63.3</ele>
        <time>2022-10-06T12:59:52Z</time>
      </trkpt>
      <trkpt lat="44.78183" lon="-0.15476">
        <ele>63.3</ele>
        <time>2022-10-06T12:59:53Z</time>
      </trkpt>
      <trkpt lat="44.78183" lon="-0.15477">
        <ele>63.3</ele>
        <time>2022-10-06T12:59:54Z</time>
      </trkpt>
      <trkpt lat="44.78184" lon="-0.15477">
        <ele>63.3</ele>
        <time>2022-10-06T12:59:55Z</time>
      </trkpt>
      <trkpt lat="44.78184" lon="-0.15478">
        <ele>63.3</ele>
        <time>2022-10-06T12:59:56Z</time>
      </trkpt>
      <trkpt lat="44.78184" lon="-0.15478">
        <ele>63.2</ele>
        <time>2022-10-06T12:59:57Z</time>
      </trkpt>
      <trkpt lat="44.78185" lon="-0.15479">
        <ele>63.2</ele>
        <time>2022-10-06T12:59:58Z</time>
      </trkpt>
      <trkpt lat="44.78185" lon="-0.1548">
        <ele>63.2</ele>
        <time>2022-10-06T12:59:59Z</time>
      </trkpt>
      <trkpt lat="44.78185" lon="-0.1548">
        <ele>63.2</ele>
        <time>2022-10-06T13:00:00Z</time>
      </trkpt>
      <trkpt lat="44.78185" lon="-0.1548">
        <ele>63.2</ele>
        <time>2022-10-06T13:00:01Z</time>
      </trkpt>
      <trkpt lat="44.78186" lon="-0.15481">
        <ele>63.2</ele>
        <time>2022-10-06T13:00:02Z</time>
      </trkpt>
      <trkpt lat="44.78187" lon="-0.15482">
        <ele>63.1</ele>
        <time>2022-10-06T13:00:03Z</time>
      </trkpt>
      <trkpt lat="44.78187" lon="-0.15483">
        <ele>63.1</ele>
        <time>2022-10-06T13:00:04Z</time>
      </trkpt>
      <trkpt lat="44.78188" lon="-0.15484">
        <ele>63.1</ele>
        <time>2022-10-06T13:00:05Z</time>
      </trkpt>
      <trkpt lat="44.78188" lon="-0.15486">
        <ele>63</ele>
        <time>2022-10-06T13:00:06Z</time>
      </trkpt>
      <trkpt lat="44.78188" lon="-0.15487">
        <ele>63</ele>
        <time>2022-10-06T13:00:07Z</time>
      </trkpt>
      <trkpt lat="44.78189" lon="-0.15489">
        <ele>63</ele>
        <time>2022-10-06T13:00:08Z</time>
      </trkpt>
      <trkpt lat="44.78189" lon="-0.1549">
        <ele>62.9</ele>
        <time>2022-10-06T13:00:09Z</time>
      </trkpt>
      <trkpt lat="44.7819" lon="-0.15492">
        <ele>62.9</ele>
        <time>2022-10-06T13:00:10Z</time>
      </trkpt>
      <trkpt lat="44.78191" lon="-0.15494">
        <ele>62.9</ele>
        <time>2022-10-06T13:00:11Z</time>
      </trkpt>
      <trkpt lat="44.78191" lon="-0.15495">
        <ele>62.8</ele>
        <time>2022-10-06T13:00:12Z</time>
      </trkpt>
      <trkpt lat="44.78192" lon="-0.15496">
        <ele>62.8</ele>
        <time>2022-10-06T13:00:13Z</time>
      </trkpt>
      <trkpt lat="44.78192" lon="-0.15497">
        <ele>62.8</ele>
        <time>2022-10-06T13:00:14Z</time>
      </trkpt>
      <trkpt lat="44.78193" lon="-0.15498">
        <ele>62.7</ele>
        <time>2022-10-06T13:00:15Z</time>
      </trkpt>
      <trkpt lat="44.78193" lon="-0.155">
        <ele>62.7</ele>
        <time>2022-10-06T13:00:16Z</time>
      </trkpt>
      <trkpt lat="44.78193" lon="-0.15501">
        <ele>62.7</ele>
        <time>2022-10-06T13:00:17Z</time>
      </trkpt>
      <trkpt lat="44.78193" lon="-0.15503">
        <ele>62.6</ele>
        <time>2022-10-06T13:00:18Z</time>
      </trkpt>
      <trkpt lat="44.78193" lon="-0.15504">
        <ele>62.6</ele>
        <time>2022-10-06T13:00:19Z</time>
      </trkpt>
      <trkpt lat="44.78193" lon="-0.15505">
        <ele>62.6</ele>
        <time>2022-10-06T13:00:20Z</time>
      </trkpt>
      <trkpt lat="44.78193" lon="-0.15507">
        <ele>62.6</ele>
        <time>2022-10-06T13:00:21Z</time>
      </trkpt>
      <trkpt lat="44.78193" lon="-0.15509">
        <ele>62.5</ele>
        <time>2022-10-06T13:00:22Z</time>
      </trkpt>
      <trkpt lat="44.78193" lon="-0.15512">
        <ele>62.5</ele>
        <time>2022-10-06T13:00:23Z</time>
      </trkpt>
      <trkpt lat="44.78193" lon="-0.15513">
        <ele>62.4</ele>
        <time>2022-10-06T13:00:24Z</time>
      </trkpt>
      <trkpt lat="44.78193" lon="-0.15514">
        <ele>62.4</ele>
        <time>2022-10-06T13:00:25Z</time>
      </trkpt>
      <trkpt lat="44.78192" lon="-0.15517">
        <ele>62.4</ele>
        <time>2022-10-06T13:00:26Z</time>
      </trkpt>
      <trkpt lat="44.78192" lon="-0.15518">
        <ele>62.3</ele>
        <time>2022-10-06T13:00:27Z</time>
      </trkpt>
      <trkpt lat="44.78192" lon="-0.1552">
        <ele>62.3</ele>
        <time>2022-10-06T13:00:28Z</time>
      </trkpt>
      <trkpt lat="44.78192" lon="-0.15521">
        <ele>62.3</ele>
        <time>2022-10-06T13:00:29Z</time>
      </trkpt>
      <trkpt lat="44.78192" lon="-0.15522">
        <ele>62.3</ele>
        <time>2022-10-06T13:00:30Z</time>
      </trkpt>
      <trkpt lat="44.78192" lon="-0.15523">
        <ele>62.2</ele>
        <time>2022-10-06T13:00:31Z</time>
      </trkpt>
      <trkpt lat="44.78193" lon="-0.15525">
        <ele>62.2</ele>
        <time>2022-10-06T13:00:32Z</time>
      </trkpt>
      <trkpt lat="44.78193" lon="-0.15527">
        <ele>62.1</ele>
        <time>2022-10-06T13:00:33Z</time>
      </trkpt>
      <trkpt lat="44.78193" lon="-0.15528">
        <ele>62.1</ele>
        <time>2022-10-06T13:00:34Z</time>
      </trkpt>
      <trkpt lat="44.78193" lon="-0.1553">
        <ele>62.1</ele>
        <time>2022-10-06T13:00:35Z</time>
      </trkpt>
      <trkpt lat="44.78193" lon="-0.15532">
        <ele>62</ele>
        <time>2022-10-06T13:00:36Z</time>
      </trkpt>
      <trkpt lat="44.78193" lon="-0.15534">
        <ele>62</ele>
        <time>2022-10-06T13:00:37Z</time>
      </trkpt>
      <trkpt lat="44.78193" lon="-0.15535">
        <ele>62</ele>
        <time>2022-10-06T13:00:38Z</time>
      </trkpt>
      <trkpt lat="44.78193" lon="-0.15536">
        <ele>62</ele>
        <time>2022-10-06T13:00:39Z</time>
      </trkpt>
      <trkpt lat="44.78193" lon="-0.15537">
        <ele>61.9</ele>
        <time>2022-10-06T13:00:40Z</time>
      </trkpt>
      <trkpt lat="44.78193" lon="-0.15539">
        <ele>61.9</ele>
        <time>2022-10-06T13:00:41Z</time>
      </trkpt>
      <trkpt lat="44.78193" lon="-0.1554">
        <ele>61.9</ele>
        <time>2022-10-06T13:00:42Z</time>
      </trkpt>
      <trkpt lat="44.78192" lon="-0.15543">
        <ele>61.8</ele>
        <time>2022-10-06T13:00:43Z</time>
      </trkpt>
      <trkpt lat="44.78192" lon="-0.15544">
        <ele>61.8</ele>
        <time>2022-10-06T13:00:44Z</time>
      </trkpt>
      <trkpt lat="44.78192" lon="-0.15545">
        <ele>61.7</ele>
        <time>2022-10-06T13:00:45Z</time>
      </trkpt>
      <trkpt lat="44.78193" lon="-0.15549">
        <ele>61.7</ele>
        <time>2022-10-06T13:00:46Z</time>
      </trkpt>
      <trkpt lat="44.78193" lon="-0.1555">
        <ele>61.6</ele>
        <time>2022-10-06T13:00:47Z</time>
      </trkpt>
      <trkpt lat="44.78193" lon="-0.15552">
        <ele>61.6</ele>
        <time>2022-10-06T13:00:48Z</time>
      </trkpt>
      <trkpt lat="44.78193" lon="-0.15552">
        <ele>61.6</ele>
        <time>2022-10-06T13:00:49Z</time>
      </trkpt>
      <trkpt lat="44.78193" lon="-0.15554">
        <ele>61.6</ele>
        <time>2022-10-06T13:00:50Z</time>
      </trkpt>
      <trkpt lat="44.78193" lon="-0.15556">
        <ele>61.5</ele>
        <time>2022-10-06T13:00:51Z</time>
      </trkpt>
      <trkpt lat="44.78193" lon="-0.15557">
        <ele>61.5</ele>
        <time>2022-10-06T13:00:52Z</time>
      </trkpt>
      <trkpt lat="44.78193" lon="-0.1556">
        <ele>61.4</ele>
        <time>2022-10-06T13:00:53Z</time>
      </trkpt>
      <trkpt lat="44.78193" lon="-0.15561">
        <ele>61.4</ele>
        <time>2022-10-06T13:00:54Z</time>
      </trkpt>
      <trkpt lat="44.78193" lon="-0.15562">
        <ele>61.4</ele>
        <time>2022-10-06T13:00:55Z</time>
      </trkpt>
      <trkpt lat="44.78193" lon="-0.15564">
        <ele>61.3</ele>
        <time>2022-10-06T13:00:56Z</time>
      </trkpt>
      <trkpt lat="44.78193" lon="-0.15566">
        <ele>61.3</ele>
        <time>2022-10-06T13:00:57Z</time>
      </trkpt>
      <trkpt lat="44.78194" lon="-0.15568">
        <ele>61.3</ele>
        <time>2022-10-06T13:00:58Z</time>
      </trkpt>
      <trkpt lat="44.78194" lon="-0.15569">
        <ele>61.2</ele>
        <time>2022-10-06T13:00:59Z</time>
      </trkpt>
      <trkpt lat="44.78194" lon="-0.1557">
        <ele>61.2</ele>
        <time>2022-10-06T13:01:00Z</time>
      </trkpt>
      <trkpt lat="44.78195" lon="-0.15572">
        <ele>61.2</ele>
        <time>2022-10-06T13:01:01Z</time>
      </trkpt>
      <trkpt lat="44.78195" lon="-0.15573">
        <ele>61.1</ele>
        <time>2022-10-06T13:01:02Z</time>
      </trkpt>
      <trkpt lat="44.78195" lon="-0.15576">
        <ele>61.1</ele>
        <time>2022-10-06T13:01:03Z</time>
      </trkpt>
      <trkpt lat="44.78195" lon="-0.15576">
        <ele>61.1</ele>
        <time>2022-10-06T13:01:04Z</time>
      </trkpt>
      <trkpt lat="44.78196" lon="-0.15577">
        <ele>61</ele>
        <time>2022-10-06T13:01:05Z</time>
      </trkpt>
      <trkpt lat="44.78196" lon="-0.15578">
        <ele>61</ele>
        <time>2022-10-06T13:01:06Z</time>
      </trkpt>
      <trkpt lat="44.78196" lon="-0.1558">
        <ele>61</ele>
        <time>2022-10-06T13:01:07Z</time>
      </trkpt>
      <trkpt lat="44.78195" lon="-0.15582">
        <ele>60.9</ele>
        <time>2022-10-06T13:01:08Z</time>
      </trkpt>
      <trkpt lat="44.78194" lon="-0.15583">
        <ele>60.9</ele>
        <time>2022-10-06T13:01:09Z</time>
      </trkpt>
      <trkpt lat="44.78192" lon="-0.15583">
        <ele>60.8</ele>
        <time>2022-10-06T13:01:10Z</time>
      </trkpt>
      <trkpt lat="44.78191" lon="-0.15583">
        <ele>60.8</ele>
        <time>2022-10-06T13:01:11Z</time>
      </trkpt>
      <trkpt lat="44.78189" lon="-0.15586">
        <ele>60.7</ele>
        <time>2022-10-06T13:01:12Z</time>
      </trkpt>
      <trkpt lat="44.78188" lon="-0.15587">
        <ele>60.6</ele>
        <time>2022-10-06T13:01:13Z</time>
      </trkpt>
      <trkpt lat="44.78187" lon="-0.15588">
        <ele>60.6</ele>
        <time>2022-10-06T13:01:14Z</time>
      </trkpt>
      <trkpt lat="44.78187" lon="-0.15589">
        <ele>60.6</ele>
        <time>2022-10-06T13:01:15Z</time>
      </trkpt>
      <trkpt lat="44.78187" lon="-0.15591">
        <ele>60.5</ele>
        <time>2022-10-06T13:01:16Z</time>
      </trkpt>
      <trkpt lat="44.78186" lon="-0.15593">
        <ele>60.5</ele>
        <time>2022-10-06T13:01:17Z</time>
      </trkpt>
      <trkpt lat="44.78186" lon="-0.15595">
        <ele>60.4</ele>
        <time>2022-10-06T13:01:18Z</time>
      </trkpt>
      <trkpt lat="44.78186" lon="-0.15596">
        <ele>60.4</ele>
        <time>2022-10-06T13:01:19Z</time>
      </trkpt>
      <trkpt lat="44.78185" lon="-0.15597">
        <ele>60.3</ele>
        <time>2022-10-06T13:01:20Z</time>
      </trkpt>
      <trkpt lat="44.78183" lon="-0.15597">
        <ele>60.3</ele>
        <time>2022-10-06T13:01:21Z</time>
      </trkpt>
      <trkpt lat="44.78181" lon="-0.15596">
        <ele>60.2</ele>
        <time>2022-10-06T13:01:22Z</time>
      </trkpt>
      <trkpt lat="44.7818" lon="-0.15596">
        <ele>60.1</ele>
        <time>2022-10-06T13:01:23Z</time>
      </trkpt>
      <trkpt lat="44.78179" lon="-0.15596">
        <ele>59.9</ele>
        <time>2022-10-06T13:01:24Z</time>
      </trkpt>
      <trkpt lat="44.78179" lon="-0.15596">
        <ele>60</ele>
        <time>2022-10-06T13:01:25Z</time>
      </trkpt>
      <trkpt lat="44.78179" lon="-0.15596">
        <ele>60</ele>
        <time>2022-10-06T13:01:26Z</time>
      </trkpt>
      <trkpt lat="44.78179" lon="-0.15596">
        <ele>60</ele>
        <time>2022-10-06T13:01:27Z</time>
      </trkpt>
      <trkpt lat="44.78179" lon="-0.15596">
        <ele>60</ele>
        <time>2022-10-06T13:01:28Z</time>
      </trkpt>
      <trkpt lat="44.78179" lon="-0.15595">
        <ele>60</ele>
        <time>2022-10-06T13:01:29Z</time>
      </trkpt>
      <trkpt lat="44.7818" lon="-0.15594">
        <ele>60.1</ele>
        <time>2022-10-06T13:01:30Z</time>
      </trkpt>
      <trkpt lat="44.7818" lon="-0.15592">
        <ele>60.2</ele>
        <time>2022-10-06T13:01:31Z</time>
      </trkpt>
      <trkpt lat="44.78182" lon="-0.15589">
        <ele>60.4</ele>
        <time>2022-10-06T13:01:32Z</time>
      </trkpt>
      <trkpt lat="44.78183" lon="-0.15588">
        <ele>60.4</ele>
        <time>2022-10-06T13:01:33Z</time>
      </trkpt>
      <trkpt lat="44.78184" lon="-0.15588">
        <ele>60.5</ele>
        <time>2022-10-06T13:01:34Z</time>
      </trkpt>
      <trkpt lat="44.78186" lon="-0.15588">
        <ele>60.6</ele>
        <time>2022-10-06T13:01:35Z</time>
      </trkpt>
      <trkpt lat="44.78187" lon="-0.15588">
        <ele>60.7</ele>
        <time>2022-10-06T13:01:36Z</time>
      </trkpt>
      <trkpt lat="44.78189" lon="-0.15589">
        <ele>60.8</ele>
        <time>2022-10-06T13:01:37Z</time>
      </trkpt>
      <trkpt lat="44.7819" lon="-0.1559">
        <ele>61</ele>
        <time>2022-10-06T13:01:38Z</time>
      </trkpt>
      <trkpt lat="44.78192" lon="-0.15591">
        <ele>61.1</ele>
        <time>2022-10-06T13:01:39Z</time>
      </trkpt>
      <trkpt lat="44.78194" lon="-0.15591">
        <ele>61.2</ele>
        <time>2022-10-06T13:01:40Z</time>
      </trkpt>
      <trkpt lat="44.78195" lon="-0.15592">
        <ele>61.3</ele>
        <time>2022-10-06T13:01:41Z</time>
      </trkpt>
      <trkpt lat="44.78196" lon="-0.15592">
        <ele>61.3</ele>
        <time>2022-10-06T13:01:42Z</time>
      </trkpt>
      <trkpt lat="44.78197" lon="-0.15592">
        <ele>61.4</ele>
        <time>2022-10-06T13:01:43Z</time>
      </trkpt>
      <trkpt lat="44.78199" lon="-0.15593">
        <ele>61.6</ele>
        <time>2022-10-06T13:01:44Z</time>
      </trkpt>
      <trkpt lat="44.78199" lon="-0.15593">
        <ele>61.6</ele>
        <time>2022-10-06T13:01:45Z</time>
      </trkpt>
      <trkpt lat="44.78201" lon="-0.15593">
        <ele>61.7</ele>
        <time>2022-10-06T13:01:47Z</time>
      </trkpt>
      <trkpt lat="44.78203" lon="-0.15593">
        <ele>61.8</ele>
        <time>2022-10-06T13:01:48Z</time>
      </trkpt>
      <trkpt lat="44.78205" lon="-0.15593">
        <ele>61.9</ele>
        <time>2022-10-06T13:01:49Z</time>
      </trkpt>
      <trkpt lat="44.78205" lon="-0.15593">
        <ele>61.9</ele>
        <time>2022-10-06T13:01:50Z</time>
      </trkpt>
      <trkpt lat="44.78206" lon="-0.15592">
        <ele>62</ele>
        <time>2022-10-06T13:01:51Z</time>
      </trkpt>
      <trkpt lat="44.78207" lon="-0.15592">
        <ele>62.1</ele>
        <time>2022-10-06T13:01:52Z</time>
      </trkpt>
      <trkpt lat="44.78208" lon="-0.15592">
        <ele>62.1</ele>
        <time>2022-10-06T13:01:53Z</time>
      </trkpt>
      <trkpt lat="44.78209" lon="-0.15591">
        <ele>62.2</ele>
        <time>2022-10-06T13:01:54Z</time>
      </trkpt>
      <trkpt lat="44.7821" lon="-0.15591">
        <ele>62.3</ele>
        <time>2022-10-06T13:01:55Z</time>
      </trkpt>
      <trkpt lat="44.78211" lon="-0.15591">
        <ele>62.3</ele>
        <time>2022-10-06T13:01:56Z</time>
      </trkpt>
      <trkpt lat="44.78212" lon="-0.1559">
        <ele>62.4</ele>
        <time>2022-10-06T13:01:57Z</time>
      </trkpt>
      <trkpt lat="44.78213" lon="-0.1559">
        <ele>62.4</ele>
        <time>2022-10-06T13:01:58Z</time>
      </trkpt>
      <trkpt lat="44.78214" lon="-0.15589">
        <ele>62.5</ele>
        <time>2022-10-06T13:01:59Z</time>
      </trkpt>
      <trkpt lat="44.78214" lon="-0.15589">
        <ele>62.5</ele>
        <time>2022-10-06T13:02:00Z</time>
      </trkpt>
      <trkpt lat="44.78215" lon="-0.15589">
        <ele>62.5</ele>
        <time>2022-10-06T13:02:01Z</time>
      </trkpt>
      <trkpt lat="44.78215" lon="-0.15589">
        <ele>62.6</ele>
        <time>2022-10-06T13:02:02Z</time>
      </trkpt>
      <trkpt lat="44.78215" lon="-0.15588">
        <ele>62.6</ele>
        <time>2022-10-06T13:02:03Z</time>
      </trkpt>
      <trkpt lat="44.78215" lon="-0.15588">
        <ele>62.6</ele>
        <time>2022-10-06T13:02:04Z</time>
      </trkpt>
      <trkpt lat="44.78216" lon="-0.15588">
        <ele>62.6</ele>
        <time>2022-10-06T13:02:05Z</time>
      </trkpt>
      <trkpt lat="44.78217" lon="-0.15588">
        <ele>62.7</ele>
        <time>2022-10-06T13:02:06Z</time>
      </trkpt>
      <trkpt lat="44.78218" lon="-0.15587">
        <ele>62.7</ele>
        <time>2022-10-06T13:02:07Z</time>
      </trkpt>
      <trkpt lat="44.78219" lon="-0.15587">
        <ele>62.8</ele>
        <time>2022-10-06T13:02:08Z</time>
      </trkpt>
      <trkpt lat="44.78219" lon="-0.15586">
        <ele>62.8</ele>
        <time>2022-10-06T13:02:09Z</time>
      </trkpt>
      <trkpt lat="44.7822" lon="-0.15586">
        <ele>62.9</ele>
        <time>2022-10-06T13:02:10Z</time>
      </trkpt>
      <trkpt lat="44.78221" lon="-0.15585">
        <ele>62.9</ele>
        <time>2022-10-06T13:02:11Z</time>
      </trkpt>
      <trkpt lat="44.78222" lon="-0.15585">
        <ele>63</ele>
        <time>2022-10-06T13:02:12Z</time>
      </trkpt>
      <trkpt lat="44.78223" lon="-0.15584">
        <ele>63</ele>
        <time>2022-10-06T13:02:13Z</time>
      </trkpt>
      <trkpt lat="44.78223" lon="-0.15584">
        <ele>63.1</ele>
        <time>2022-10-06T13:02:14Z</time>
      </trkpt>
      <trkpt lat="44.78224" lon="-0.15584">
        <ele>63.1</ele>
        <time>2022-10-06T13:02:15Z</time>
      </trkpt>
      <trkpt lat="44.78225" lon="-0.15583">
        <ele>63.2</ele>
        <time>2022-10-06T13:02:16Z</time>
      </trkpt>
      <trkpt lat="44.78226" lon="-0.15582">
        <ele>63.2</ele>
        <time>2022-10-06T13:02:17Z</time>
      </trkpt>
      <trkpt lat="44.78226" lon="-0.15582">
        <ele>63.2</ele>
        <time>2022-10-06T13:02:18Z</time>
      </trkpt>
      <trkpt lat="44.78227" lon="-0.15581">
        <ele>63.3</ele>
        <time>2022-10-06T13:02:19Z</time>
      </trkpt>
      <trkpt lat="44.78227" lon="-0.15581">
        <ele>63.3</ele>
        <time>2022-10-06T13:02:20Z</time>
      </trkpt>
      <trkpt lat="44.78228" lon="-0.1558">
        <ele>63.3</ele>
        <time>2022-10-06T13:02:21Z</time>
      </trkpt>
      <trkpt lat="44.78228" lon="-0.1558">
        <ele>63.4</ele>
        <time>2022-10-06T13:02:22Z</time>
      </trkpt>
      <trkpt lat="44.78229" lon="-0.1558">
        <ele>63.4</ele>
        <time>2022-10-06T13:02:23Z</time>
      </trkpt>
      <trkpt lat="44.78229" lon="-0.1558">
        <ele>63.4</ele>
        <time>2022-10-06T13:02:24Z</time>
      </trkpt>
      <trkpt lat="44.78229" lon="-0.1558">
        <ele>63.4</ele>
        <time>2022-10-06T13:02:25Z</time>
      </trkpt>
      <trkpt lat="44.78229" lon="-0.1558">
        <ele>63.4</ele>
        <time>2022-10-06T13:02:26Z</time>
      </trkpt>
      <trkpt lat="44.78229" lon="-0.1558">
        <ele>63.4</ele>
        <time>2022-10-06T13:02:27Z</time>
      </trkpt>
      <trkpt lat="44.78229" lon="-0.1558">
        <ele>63.4</ele>
        <time>2022-10-06T13:02:28Z</time>
      </trkpt>
      <trkpt lat="44.78229" lon="-0.1558">
        <ele>63.4</ele>
        <time>2022-10-06T13:02:29Z</time>
      </trkpt>
      <trkpt lat="44.78229" lon="-0.1558">
        <ele>63.4</ele>
        <time>2022-10-06T13:02:30Z</time>
      </trkpt>
      <trkpt lat="44.78229" lon="-0.1558">
        <ele>63.4</ele>
        <time>2022-10-06T13:02:31Z</time>
      </trkpt>
      <trkpt lat="44.78229" lon="-0.1558">
        <ele>63.4</ele>
        <time>2022-10-06T13:02:32Z</time>
      </trkpt>
      <trkpt lat="44.78229" lon="-0.1558">
        <ele>63.4</ele>
        <time>2022-10-06T13:02:33Z</time>
      </trkpt>
      <trkpt lat="44.78229" lon="-0.1558">
        <ele>63.4</ele>
        <time>2022-10-06T13:02:34Z</time>
      </trkpt>
      <trkpt lat="44.78229" lon="-0.1558">
        <ele>63.5</ele>
        <time>2022-10-06T13:02:35Z</time>
      </trkpt>
      <trkpt lat="44.78229" lon="-0.1558">
        <ele>63.5</ele>
        <time>2022-10-06T13:02:36Z</time>
      </trkpt>
      <trkpt lat="44.7823" lon="-0.15579">
        <ele>63.5</ele>
        <time>2022-10-06T13:02:37Z</time>
      </trkpt>
      <trkpt lat="44.78231" lon="-0.15578">
        <ele>63.6</ele>
        <time>2022-10-06T13:02:38Z</time>
      </trkpt>
      <trkpt lat="44.78231" lon="-0.15577">
        <ele>63.6</ele>
        <time>2022-10-06T13:02:39Z</time>
      </trkpt>
      <trkpt lat="44.78232" lon="-0.15577">
        <ele>63.6</ele>
        <time>2022-10-06T13:02:40Z</time>
      </trkpt>
      <trkpt lat="44.78232" lon="-0.15576">
        <ele>63.7</ele>
        <time>2022-10-06T13:02:41Z</time>
      </trkpt>
      <trkpt lat="44.78238" lon="-0.1558">
        <ele>64</ele>
        <time>2022-10-06T13:03:16Z</time>
      </trkpt>
      <trkpt lat="44.78237" lon="-0.15579">
        <ele>64</ele>
        <time>2022-10-06T13:03:17Z</time>
      </trkpt>
      <trkpt lat="44.78237" lon="-0.1558">
        <ele>64.1</ele>
        <time>2022-10-06T13:03:18Z</time>
      </trkpt>
      <trkpt lat="44.78237" lon="-0.15579">
        <ele>64.1</ele>
        <time>2022-10-06T13:03:19Z</time>
      </trkpt>
      <trkpt lat="44.78237" lon="-0.15579">
        <ele>64.1</ele>
        <time>2022-10-06T13:03:20Z</time>
      </trkpt>
      <trkpt lat="44.78238" lon="-0.15579">
        <ele>64.1</ele>
        <time>2022-10-06T13:03:21Z</time>
      </trkpt>
      <trkpt lat="44.78238" lon="-0.15579">
        <ele>64.1</ele>
        <time>2022-10-06T13:03:22Z</time>
      </trkpt>
    </trkseg>
  </trk>
</gpx>